<?xml version='1.0' encoding='UTF-8'?><gpx version="1.1" creator="JPX - https://github.com/jenetics/jpx" xmlns="http://www.topografix.com/GPX/1/1"><trk><trkseg><trkpt lat="43.8104027" lon="12.6942807"><ele>249.0</ele><time>2026-05-02T07:27:57.315Z</time></trkpt><trkpt lat="43.810365" lon="12.6942026"><ele>248.99999999999997</ele><time>2026-05-02T07:27:58.316Z</time></trkpt><trkpt lat="43.8103336" lon="12.6940374"><ele>248.99999999999997</ele><time>2026-05-02T07:28:00.33Z</time></trkpt><trkpt lat="43.8102919" lon="12.693896"><ele>249.0</ele><time>2026-05-02T07:28:01.314Z</time></trkpt><trkpt lat="43.8102585" lon="12.6937824"><ele>249.0</ele><time>2026-05-02T07:28:02.312Z</time></trkpt><trkpt lat="43.8102142" lon="12.6936733"><ele>246.6</ele><time>2026-05-02T07:28:03.313Z</time></trkpt><trkpt lat="43.8101812" lon="12.6935455"><ele>244.2</ele><time>2026-05-02T07:28:04.337Z</time></trkpt><trkpt lat="43.8101407" lon="12.6934145"><ele>241.79999999999998</ele><time>2026-05-02T07:28:05.312Z</time></trkpt><trkpt lat="43.8100968" lon="12.6932877"><ele>239.39999999999998</ele><time>2026-05-02T07:28:06.335Z</time></trkpt><trkpt lat="43.8100519" lon="12.6931559"><ele>237.0</ele><time>2026-05-02T07:28:07.31Z</time></trkpt><trkpt lat="43.8100137" lon="12.6930249"><ele>236.8</ele><time>2026-05-02T07:28:08.337Z</time></trkpt><trkpt lat="43.809976" lon="12.6928916"><ele>236.6</ele><time>2026-05-02T07:28:09.312Z</time></trkpt><trkpt lat="43.8099306" lon="12.6927607"><ele>236.40000000000003</ele><time>2026-05-02T07:28:10.335Z</time></trkpt><trkpt lat="43.8098762" lon="12.6926242"><ele>236.20000000000002</ele><time>2026-05-02T07:28:11.313Z</time></trkpt><trkpt lat="43.8098042" lon="12.6924849"><ele>236.0</ele><time>2026-05-02T07:28:12.313Z</time></trkpt><trkpt lat="43.8097284" lon="12.6923683"><ele>234.8</ele><time>2026-05-02T07:28:13.313Z</time></trkpt><trkpt lat="43.8096603" lon="12.6922464"><ele>233.60000000000002</ele><time>2026-05-02T07:28:14.312Z</time></trkpt><trkpt lat="43.8095654" lon="12.6921575"><ele>232.4</ele><time>2026-05-02T07:28:15.311Z</time></trkpt><trkpt lat="43.8094685" lon="12.6920918"><ele>231.2</ele><time>2026-05-02T07:28:16.338Z</time></trkpt><trkpt lat="43.80938" lon="12.6919984"><ele>230.0</ele><time>2026-05-02T07:28:17.312Z</time></trkpt><trkpt lat="43.8093111" lon="12.6918887"><ele>230.0</ele><time>2026-05-02T07:28:18.338Z</time></trkpt><trkpt lat="43.8092436" lon="12.6917572"><ele>230.0</ele><time>2026-05-02T07:28:19.315Z</time></trkpt><trkpt lat="43.8091751" lon="12.691645"><ele>230.0</ele><time>2026-05-02T07:28:20.336Z</time></trkpt><trkpt lat="43.8091199" lon="12.6914979"><ele>230.0</ele><time>2026-05-02T07:28:21.313Z</time></trkpt><trkpt lat="43.8090596" lon="12.6913609"><ele>230.0</ele><time>2026-05-02T07:28:22.313Z</time></trkpt><trkpt lat="43.808993" lon="12.6912273"><ele>230.0</ele><time>2026-05-02T07:28:23.311Z</time></trkpt><trkpt lat="43.808942" lon="12.6910912"><ele>230.0</ele><time>2026-05-02T07:28:24.34Z</time></trkpt><trkpt lat="43.8088915" lon="12.6909464"><ele>230.0</ele><time>2026-05-02T07:28:25.311Z</time></trkpt><trkpt lat="43.8088462" lon="12.6907967"><ele>230.25</ele><time>2026-05-02T07:28:26.312Z</time></trkpt><trkpt lat="43.8088057" lon="12.6906328"><ele>230.5</ele><time>2026-05-02T07:28:27.313Z</time></trkpt><trkpt lat="43.8087757" lon="12.6904761"><ele>230.75</ele><time>2026-05-02T07:28:28.339Z</time></trkpt><trkpt lat="43.8087501" lon="12.6903201"><ele>231.0</ele><time>2026-05-02T07:28:29.312Z</time></trkpt><trkpt lat="43.8087259" lon="12.6901652"><ele>230.0</ele><time>2026-05-02T07:28:30.312Z</time></trkpt><trkpt lat="43.8087022" lon="12.6900083"><ele>229.0</ele><time>2026-05-02T07:28:31.311Z</time></trkpt><trkpt lat="43.8086778" lon="12.6898507"><ele>228.0</ele><time>2026-05-02T07:28:32.312Z</time></trkpt><trkpt lat="43.8086515" lon="12.6896921"><ele>227.0</ele><time>2026-05-02T07:28:33.312Z</time></trkpt><trkpt lat="43.8086164" lon="12.6895349"><ele>228.0</ele><time>2026-05-02T07:28:34.339Z</time></trkpt><trkpt lat="43.8085722" lon="12.6893763"><ele>229.0</ele><time>2026-05-02T07:28:35.311Z</time></trkpt><trkpt lat="43.8085255" lon="12.6892098"><ele>230.0</ele><time>2026-05-02T07:28:36.312Z</time></trkpt><trkpt lat="43.8084779" lon="12.6890382"><ele>231.0</ele><time>2026-05-02T07:28:37.311Z</time></trkpt><trkpt lat="43.8084245" lon="12.6888724"><ele>231.0</ele><time>2026-05-02T07:28:38.338Z</time></trkpt><trkpt lat="43.8083715" lon="12.6887057"><ele>231.0</ele><time>2026-05-02T07:28:39.312Z</time></trkpt><trkpt lat="43.8083153" lon="12.6885397"><ele>231.0</ele><time>2026-05-02T07:28:40.339Z</time></trkpt><trkpt lat="43.8082617" lon="12.6883837"><ele>231.0</ele><time>2026-05-02T07:28:41.311Z</time></trkpt><trkpt lat="43.8082053" lon="12.6882294"><ele>231.0</ele><time>2026-05-02T07:28:42.313Z</time></trkpt><trkpt lat="43.808152" lon="12.6880765"><ele>231.0</ele><time>2026-05-02T07:28:43.312Z</time></trkpt><trkpt lat="43.8081011" lon="12.6879219"><ele>231.0</ele><time>2026-05-02T07:28:44.34Z</time></trkpt><trkpt lat="43.8080526" lon="12.6877613"><ele>231.0</ele><time>2026-05-02T07:28:45.313Z</time></trkpt><trkpt lat="43.8080067" lon="12.6875891"><ele>230.25</ele><time>2026-05-02T07:28:46.305Z</time></trkpt><trkpt lat="43.8079633" lon="12.6874088"><ele>229.5</ele><time>2026-05-02T07:28:47.313Z</time></trkpt><trkpt lat="43.8079207" lon="12.6872245"><ele>228.75</ele><time>2026-05-02T07:28:48.335Z</time></trkpt><trkpt lat="43.8078872" lon="12.6870458"><ele>228.0</ele><time>2026-05-02T07:28:49.313Z</time></trkpt><trkpt lat="43.8078513" lon="12.6868717"><ele>227.75</ele><time>2026-05-02T07:28:50.312Z</time></trkpt><trkpt lat="43.8078184" lon="12.6867013"><ele>227.5</ele><time>2026-05-02T07:28:51.312Z</time></trkpt><trkpt lat="43.8077779" lon="12.6865343"><ele>227.25</ele><time>2026-05-02T07:28:52.313Z</time></trkpt><trkpt lat="43.8077168" lon="12.686372"><ele>227.0</ele><time>2026-05-02T07:28:53.312Z</time></trkpt><trkpt lat="43.8076361" lon="12.6862178"><ele>228.25</ele><time>2026-05-02T07:28:54.311Z</time></trkpt><trkpt lat="43.8075439" lon="12.6860708"><ele>229.5</ele><time>2026-05-02T07:28:55.33Z</time></trkpt><trkpt lat="43.8074337" lon="12.6859273"><ele>230.75</ele><time>2026-05-02T07:28:56.31Z</time></trkpt><trkpt lat="43.8073148" lon="12.6857856"><ele>232.0</ele><time>2026-05-02T07:28:57.338Z</time></trkpt><trkpt lat="43.8071911" lon="12.6856504"><ele>232.0</ele><time>2026-05-02T07:28:58.313Z</time></trkpt><trkpt lat="43.8070716" lon="12.6855201"><ele>232.0</ele><time>2026-05-02T07:28:59.334Z</time></trkpt><trkpt lat="43.806958" lon="12.6853889"><ele>232.0</ele><time>2026-05-02T07:29:00.337Z</time></trkpt><trkpt lat="43.8068492" lon="12.6852548"><ele>232.0</ele><time>2026-05-02T07:29:01.312Z</time></trkpt><trkpt lat="43.806737" lon="12.6851212"><ele>229.0</ele><time>2026-05-02T07:29:02.337Z</time></trkpt><trkpt lat="43.8066204" lon="12.6849917"><ele>226.0</ele><time>2026-05-02T07:29:03.338Z</time></trkpt><trkpt lat="43.8065042" lon="12.6848612"><ele>223.0</ele><time>2026-05-02T07:29:04.33Z</time></trkpt><trkpt lat="43.806389" lon="12.6847291"><ele>220.0</ele><time>2026-05-02T07:29:05.335Z</time></trkpt><trkpt lat="43.8062774" lon="12.6845904"><ele>220.0</ele><time>2026-05-02T07:29:06.336Z</time></trkpt><trkpt lat="43.8061532" lon="12.6844846"><ele>220.0</ele><time>2026-05-02T07:29:07.31Z</time></trkpt><trkpt lat="43.8060356" lon="12.6843663"><ele>220.0</ele><time>2026-05-02T07:29:08.333Z</time></trkpt><trkpt lat="43.8059146" lon="12.6842455"><ele>220.0</ele><time>2026-05-02T07:29:09.329Z</time></trkpt><trkpt lat="43.8058036" lon="12.6841135"><ele>217.5</ele><time>2026-05-02T07:29:10.336Z</time></trkpt><trkpt lat="43.8056946" lon="12.6839724"><ele>215.0</ele><time>2026-05-02T07:29:11.312Z</time></trkpt><trkpt lat="43.8055972" lon="12.683819"><ele>212.5</ele><time>2026-05-02T07:29:12.312Z</time></trkpt><trkpt lat="43.8054942" lon="12.6836721"><ele>210.0</ele><time>2026-05-02T07:29:13.334Z</time></trkpt><trkpt lat="43.8053879" lon="12.6835303"><ele>210.0</ele><time>2026-05-02T07:29:14.337Z</time></trkpt><trkpt lat="43.8052838" lon="12.6833937"><ele>210.0</ele><time>2026-05-02T07:29:15.313Z</time></trkpt><trkpt lat="43.8051784" lon="12.6832514"><ele>210.0</ele><time>2026-05-02T07:29:16.335Z</time></trkpt><trkpt lat="43.8050686" lon="12.6831119"><ele>210.0</ele><time>2026-05-02T07:29:17.337Z</time></trkpt><trkpt lat="43.8049503" lon="12.6829669"><ele>210.0</ele><time>2026-05-02T07:29:18.333Z</time></trkpt><trkpt lat="43.8048346" lon="12.6828165"><ele>210.0</ele><time>2026-05-02T07:29:19.334Z</time></trkpt><trkpt lat="43.8047143" lon="12.6826658"><ele>210.0</ele><time>2026-05-02T07:29:20.337Z</time></trkpt><trkpt lat="43.8045904" lon="12.6825182"><ele>210.0</ele><time>2026-05-02T07:29:21.312Z</time></trkpt><trkpt lat="43.8044589" lon="12.6823775"><ele>210.0</ele><time>2026-05-02T07:29:22.337Z</time></trkpt><trkpt lat="43.804328" lon="12.6822423"><ele>210.0</ele><time>2026-05-02T07:29:23.338Z</time></trkpt><trkpt lat="43.8041936" lon="12.6821163"><ele>210.0</ele><time>2026-05-02T07:29:24.314Z</time></trkpt><trkpt lat="43.8040592" lon="12.6819931"><ele>210.0</ele><time>2026-05-02T07:29:25.335Z</time></trkpt><trkpt lat="43.8039281" lon="12.6818713"><ele>210.0</ele><time>2026-05-02T07:29:26.337Z</time></trkpt><trkpt lat="43.8038106" lon="12.6817608"><ele>211.0</ele><time>2026-05-02T07:29:27.331Z</time></trkpt><trkpt lat="43.8036988" lon="12.6816619"><ele>212.0</ele><time>2026-05-02T07:29:28.336Z</time></trkpt><trkpt lat="43.8035902" lon="12.6815776"><ele>213.0</ele><time>2026-05-02T07:29:29.312Z</time></trkpt><trkpt lat="43.8034999" lon="12.6815143"><ele>214.0</ele><time>2026-05-02T07:29:30.312Z</time></trkpt><trkpt lat="43.8034068" lon="12.6814519"><ele>214.0</ele><time>2026-05-02T07:29:31.333Z</time></trkpt><trkpt lat="43.803321" lon="12.6814196"><ele>213.99999999999997</ele><time>2026-05-02T07:29:33.332Z</time></trkpt><trkpt lat="43.8032124" lon="12.6813571"><ele>213.99999999999997</ele><time>2026-05-02T07:29:35.337Z</time></trkpt><trkpt lat="43.8031395" lon="12.6813222"><ele>214.0</ele><time>2026-05-02T07:29:36.332Z</time></trkpt><trkpt lat="43.8030569" lon="12.6812849"><ele>214.0</ele><time>2026-05-02T07:29:37.334Z</time></trkpt><trkpt lat="43.8029633" lon="12.6812444"><ele>214.0</ele><time>2026-05-02T07:29:38.336Z</time></trkpt><trkpt lat="43.8028641" lon="12.6812009"><ele>213.99999999999997</ele><time>2026-05-02T07:29:39.332Z</time></trkpt><trkpt lat="43.8027648" lon="12.6811676"><ele>213.99999999999997</ele><time>2026-05-02T07:29:40.336Z</time></trkpt><trkpt lat="43.802668" lon="12.6811298"><ele>214.0</ele><time>2026-05-02T07:29:41.338Z</time></trkpt><trkpt lat="43.8025695" lon="12.6810901"><ele>214.0</ele><time>2026-05-02T07:29:42.332Z</time></trkpt><trkpt lat="43.8024625" lon="12.6810543"><ele>214.6</ele><time>2026-05-02T07:29:43.333Z</time></trkpt><trkpt lat="43.8023602" lon="12.6810044"><ele>215.2</ele><time>2026-05-02T07:29:44.34Z</time></trkpt><trkpt lat="43.8022645" lon="12.6809447"><ele>215.79999999999998</ele><time>2026-05-02T07:29:45.331Z</time></trkpt><trkpt lat="43.802181" lon="12.6808889"><ele>216.39999999999998</ele><time>2026-05-02T07:29:46.337Z</time></trkpt><trkpt lat="43.8021072" lon="12.6808361"><ele>217.0</ele><time>2026-05-02T07:29:47.338Z</time></trkpt><trkpt lat="43.8020272" lon="12.680776"><ele>217.0</ele><time>2026-05-02T07:29:48.33Z</time></trkpt><trkpt lat="43.801937" lon="12.6807138"><ele>217.0</ele><time>2026-05-02T07:29:49.334Z</time></trkpt><trkpt lat="43.8018407" lon="12.6806419"><ele>217.0</ele><time>2026-05-02T07:29:50.337Z</time></trkpt><trkpt lat="43.8017289" lon="12.6805618"><ele>217.0</ele><time>2026-05-02T07:29:51.313Z</time></trkpt><trkpt lat="43.8016139" lon="12.680488"><ele>219.25</ele><time>2026-05-02T07:29:52.334Z</time></trkpt><trkpt lat="43.801489" lon="12.6804349"><ele>221.5</ele><time>2026-05-02T07:29:53.339Z</time></trkpt><trkpt lat="43.8013583" lon="12.680397"><ele>223.75</ele><time>2026-05-02T07:29:54.331Z</time></trkpt><trkpt lat="43.8012213" lon="12.6803694"><ele>226.0</ele><time>2026-05-02T07:29:55.334Z</time></trkpt><trkpt lat="43.8010805" lon="12.6803504"><ele>227.75</ele><time>2026-05-02T07:29:56.338Z</time></trkpt><trkpt lat="43.8009329" lon="12.6803311"><ele>229.5</ele><time>2026-05-02T07:29:57.314Z</time></trkpt><trkpt lat="43.8007855" lon="12.680307"><ele>231.25</ele><time>2026-05-02T07:29:58.334Z</time></trkpt><trkpt lat="43.8006477" lon="12.6802877"><ele>233.0</ele><time>2026-05-02T07:29:59.337Z</time></trkpt><trkpt lat="43.8005138" lon="12.6802823"><ele>233.0</ele><time>2026-05-02T07:30:00.313Z</time></trkpt><trkpt lat="43.8003691" lon="12.6803248"><ele>233.0</ele><time>2026-05-02T07:30:01.335Z</time></trkpt><trkpt lat="43.8002204" lon="12.6804089"><ele>233.0</ele><time>2026-05-02T07:30:02.339Z</time></trkpt><trkpt lat="43.800066" lon="12.6805136"><ele>237.33333333333334</ele><time>2026-05-02T07:30:03.331Z</time></trkpt><trkpt lat="43.7999115" lon="12.6806155"><ele>241.66666666666669</ele><time>2026-05-02T07:30:04.332Z</time></trkpt><trkpt lat="43.79976" lon="12.6807227"><ele>246.0</ele><time>2026-05-02T07:30:05.33Z</time></trkpt><trkpt lat="43.7996223" lon="12.6808164"><ele>246.0</ele><time>2026-05-02T07:30:06.333Z</time></trkpt><trkpt lat="43.7994859" lon="12.6809063"><ele>246.0</ele><time>2026-05-02T07:30:07.409Z</time></trkpt><trkpt lat="43.7993445" lon="12.6809679"><ele>246.0</ele><time>2026-05-02T07:30:08.321Z</time></trkpt><trkpt lat="43.7991998" lon="12.681013"><ele>246.0</ele><time>2026-05-02T07:30:09.332Z</time></trkpt><trkpt lat="43.7990518" lon="12.6810445"><ele>248.33333333333331</ele><time>2026-05-02T07:30:10.312Z</time></trkpt><trkpt lat="43.7988896" lon="12.6810645"><ele>250.66666666666666</ele><time>2026-05-02T07:30:11.337Z</time></trkpt><trkpt lat="43.7987317" lon="12.6810827"><ele>253.0</ele><time>2026-05-02T07:30:12.34Z</time></trkpt><trkpt lat="43.7985649" lon="12.6810913"><ele>259.0</ele><time>2026-05-02T07:30:13.332Z</time></trkpt><trkpt lat="43.7984034" lon="12.6811113"><ele>265.0</ele><time>2026-05-02T07:30:14.336Z</time></trkpt><trkpt lat="43.7982384" lon="12.6811275"><ele>271.0</ele><time>2026-05-02T07:30:15.338Z</time></trkpt><trkpt lat="43.7980775" lon="12.6811506"><ele>271.0</ele><time>2026-05-02T07:30:16.332Z</time></trkpt><trkpt lat="43.7979057" lon="12.6811665"><ele>271.0</ele><time>2026-05-02T07:30:17.336Z</time></trkpt><trkpt lat="43.7977328" lon="12.681191"><ele>271.0</ele><time>2026-05-02T07:30:18.338Z</time></trkpt><trkpt lat="43.7975609" lon="12.6812071"><ele>272.66666666666663</ele><time>2026-05-02T07:30:19.33Z</time></trkpt><trkpt lat="43.7973916" lon="12.681202"><ele>274.3333333333333</ele><time>2026-05-02T07:30:20.335Z</time></trkpt><trkpt lat="43.7972215" lon="12.6811959"><ele>276.0</ele><time>2026-05-02T07:30:21.312Z</time></trkpt><trkpt lat="43.7970597" lon="12.6811851"><ele>276.0</ele><time>2026-05-02T07:30:22.312Z</time></trkpt><trkpt lat="43.7969034" lon="12.681169"><ele>276.0</ele><time>2026-05-02T07:30:23.335Z</time></trkpt><trkpt lat="43.7967486" lon="12.6811515"><ele>276.0</ele><time>2026-05-02T07:30:24.339Z</time></trkpt><trkpt lat="43.7965943" lon="12.6811225"><ele>269.0</ele><time>2026-05-02T07:30:25.31Z</time></trkpt><trkpt lat="43.7964431" lon="12.6810867"><ele>262.0</ele><time>2026-05-02T07:30:26.334Z</time></trkpt><trkpt lat="43.7962922" lon="12.6810566"><ele>255.0</ele><time>2026-05-02T07:30:27.339Z</time></trkpt><trkpt lat="43.7961402" lon="12.6810126"><ele>255.0</ele><time>2026-05-02T07:30:28.313Z</time></trkpt><trkpt lat="43.7960126" lon="12.6809176"><ele>255.0</ele><time>2026-05-02T07:30:29.335Z</time></trkpt><trkpt lat="43.7958717" lon="12.6808374"><ele>255.0</ele><time>2026-05-02T07:30:30.337Z</time></trkpt><trkpt lat="43.7957347" lon="12.6807421"><ele>256.6666666666667</ele><time>2026-05-02T07:30:31.312Z</time></trkpt><trkpt lat="43.7956016" lon="12.6806449"><ele>258.33333333333337</ele><time>2026-05-02T07:30:32.332Z</time></trkpt><trkpt lat="43.7954616" lon="12.6805327"><ele>260.0</ele><time>2026-05-02T07:30:33.341Z</time></trkpt><trkpt lat="43.7953326" lon="12.6804257"><ele>260.0</ele><time>2026-05-02T07:30:34.331Z</time></trkpt><trkpt lat="43.7952192" lon="12.6802834"><ele>260.0</ele><time>2026-05-02T07:30:35.311Z</time></trkpt><trkpt lat="43.7950959" lon="12.6801473"><ele>260.0</ele><time>2026-05-02T07:30:36.338Z</time></trkpt><trkpt lat="43.7949561" lon="12.6800455"><ele>260.6666666666667</ele><time>2026-05-02T07:30:37.31Z</time></trkpt><trkpt lat="43.7948231" lon="12.6799293"><ele>261.3333333333333</ele><time>2026-05-02T07:30:38.333Z</time></trkpt><trkpt lat="43.7946874" lon="12.679808"><ele>262.0</ele><time>2026-05-02T07:30:39.337Z</time></trkpt><trkpt lat="43.7945532" lon="12.679672"><ele>262.0</ele><time>2026-05-02T07:30:40.312Z</time></trkpt><trkpt lat="43.7944141" lon="12.6795597"><ele>262.0</ele><time>2026-05-02T07:30:41.334Z</time></trkpt><trkpt lat="43.794279" lon="12.6794391"><ele>262.0</ele><time>2026-05-02T07:30:42.337Z</time></trkpt><trkpt lat="43.7941391" lon="12.6793141"><ele>259.3333333333333</ele><time>2026-05-02T07:30:43.311Z</time></trkpt><trkpt lat="43.7940037" lon="12.679181"><ele>256.6666666666667</ele><time>2026-05-02T07:30:44.333Z</time></trkpt><trkpt lat="43.7938805" lon="12.6790333"><ele>254.0</ele><time>2026-05-02T07:30:45.336Z</time></trkpt><trkpt lat="43.7937703" lon="12.678864"><ele>254.0</ele><time>2026-05-02T07:30:46.312Z</time></trkpt><trkpt lat="43.7936629" lon="12.6786698"><ele>254.0</ele><time>2026-05-02T07:30:47.336Z</time></trkpt><trkpt lat="43.7935564" lon="12.678489"><ele>254.0</ele><time>2026-05-02T07:30:48.338Z</time></trkpt><trkpt lat="43.793469" lon="12.6782567"><ele>253.66666666666669</ele><time>2026-05-02T07:30:49.333Z</time></trkpt><trkpt lat="43.7933696" lon="12.6780394"><ele>253.33333333333331</ele><time>2026-05-02T07:30:50.337Z</time></trkpt><trkpt lat="43.7932702" lon="12.6778197"><ele>253.0</ele><time>2026-05-02T07:30:51.337Z</time></trkpt><trkpt lat="43.7931694" lon="12.6775952"><ele>252.33333333333331</ele><time>2026-05-02T07:30:52.313Z</time></trkpt><trkpt lat="43.7930627" lon="12.6773742"><ele>251.66666666666669</ele><time>2026-05-02T07:30:53.336Z</time></trkpt><trkpt lat="43.7929535" lon="12.6771537"><ele>251.0</ele><time>2026-05-02T07:30:54.338Z</time></trkpt><trkpt lat="43.7928397" lon="12.6769389"><ele>251.0</ele><time>2026-05-02T07:30:55.331Z</time></trkpt><trkpt lat="43.7927265" lon="12.6767304"><ele>251.0</ele><time>2026-05-02T07:30:56.336Z</time></trkpt><trkpt lat="43.792604" lon="12.6765214"><ele>251.0</ele><time>2026-05-02T07:30:57.313Z</time></trkpt><trkpt lat="43.792482" lon="12.6763121"><ele>252.0</ele><time>2026-05-02T07:30:58.334Z</time></trkpt><trkpt lat="43.7923689" lon="12.6761104"><ele>253.0</ele><time>2026-05-02T07:30:59.339Z</time></trkpt><trkpt lat="43.7922579" lon="12.6759181"><ele>254.0</ele><time>2026-05-02T07:31:00.315Z</time></trkpt><trkpt lat="43.7921443" lon="12.6757322"><ele>255.66666666666669</ele><time>2026-05-02T07:31:01.335Z</time></trkpt><trkpt lat="43.7920341" lon="12.6755466"><ele>257.3333333333333</ele><time>2026-05-02T07:31:02.332Z</time></trkpt><trkpt lat="43.7919137" lon="12.6753658"><ele>259.0</ele><time>2026-05-02T07:31:03.334Z</time></trkpt><trkpt lat="43.7917713" lon="12.6752067"><ele>259.0</ele><time>2026-05-02T07:31:04.336Z</time></trkpt><trkpt lat="43.7916219" lon="12.6750724"><ele>259.0</ele><time>2026-05-02T07:31:05.331Z</time></trkpt><trkpt lat="43.7914619" lon="12.6749494"><ele>259.0</ele><time>2026-05-02T07:31:06.336Z</time></trkpt><trkpt lat="43.7912996" lon="12.6748202"><ele>259.0</ele><time>2026-05-02T07:31:07.336Z</time></trkpt><trkpt lat="43.7911434" lon="12.6746876"><ele>259.0</ele><time>2026-05-02T07:31:08.33Z</time></trkpt><trkpt lat="43.7909898" lon="12.6745438"><ele>259.0</ele><time>2026-05-02T07:31:09.337Z</time></trkpt><trkpt lat="43.7908379" lon="12.6744008"><ele>257.3333333333333</ele><time>2026-05-02T07:31:10.337Z</time></trkpt><trkpt lat="43.7906921" lon="12.6742417"><ele>255.66666666666669</ele><time>2026-05-02T07:31:11.313Z</time></trkpt><trkpt lat="43.7905408" lon="12.6740787"><ele>254.0</ele><time>2026-05-02T07:31:12.335Z</time></trkpt><trkpt lat="43.7903886" lon="12.6739244"><ele>254.0</ele><time>2026-05-02T07:31:13.338Z</time></trkpt><trkpt lat="43.7902381" lon="12.6737719"><ele>254.0</ele><time>2026-05-02T07:31:14.313Z</time></trkpt><trkpt lat="43.7900888" lon="12.6736237"><ele>254.0</ele><time>2026-05-02T07:31:15.333Z</time></trkpt><trkpt lat="43.7899439" lon="12.6734798"><ele>251.66666666666669</ele><time>2026-05-02T07:31:16.337Z</time></trkpt><trkpt lat="43.7897922" lon="12.6733586"><ele>249.33333333333331</ele><time>2026-05-02T07:31:17.332Z</time></trkpt><trkpt lat="43.7896361" lon="12.6732518"><ele>247.0</ele><time>2026-05-02T07:31:18.334Z</time></trkpt><trkpt lat="43.7894803" lon="12.673156"><ele>246.0</ele><time>2026-05-02T07:31:19.337Z</time></trkpt><trkpt lat="43.7893087" lon="12.6730821"><ele>245.0</ele><time>2026-05-02T07:31:20.314Z</time></trkpt><trkpt lat="43.7891493" lon="12.6729999"><ele>244.0</ele><time>2026-05-02T07:31:21.336Z</time></trkpt><trkpt lat="43.7889784" lon="12.6729113"><ele>244.0</ele><time>2026-05-02T07:31:22.311Z</time></trkpt><trkpt lat="43.7887864" lon="12.672843"><ele>244.0</ele><time>2026-05-02T07:31:23.335Z</time></trkpt><trkpt lat="43.7886073" lon="12.6727763"><ele>244.0</ele><time>2026-05-02T07:31:24.336Z</time></trkpt><trkpt lat="43.7884199" lon="12.6726987"><ele>244.33333333333331</ele><time>2026-05-02T07:31:25.312Z</time></trkpt><trkpt lat="43.7882304" lon="12.6726122"><ele>244.66666666666669</ele><time>2026-05-02T07:31:26.335Z</time></trkpt><trkpt lat="43.7880407" lon="12.6725285"><ele>245.0</ele><time>2026-05-02T07:31:27.335Z</time></trkpt><trkpt lat="43.7878497" lon="12.6724523"><ele>247.66666666666669</ele><time>2026-05-02T07:31:28.335Z</time></trkpt><trkpt lat="43.7876757" lon="12.6723735"><ele>250.33333333333331</ele><time>2026-05-02T07:31:29.336Z</time></trkpt><trkpt lat="43.7875187" lon="12.6722895"><ele>253.0</ele><time>2026-05-02T07:31:30.312Z</time></trkpt><trkpt lat="43.7873641" lon="12.6722005"><ele>253.0</ele><time>2026-05-02T07:31:31.332Z</time></trkpt><trkpt lat="43.7872252" lon="12.6720843"><ele>253.0</ele><time>2026-05-02T07:31:32.34Z</time></trkpt><trkpt lat="43.7870993" lon="12.6719201"><ele>253.0</ele><time>2026-05-02T07:31:33.333Z</time></trkpt><trkpt lat="43.7869718" lon="12.6717438"><ele>255.66666666666666</ele><time>2026-05-02T07:31:34.335Z</time></trkpt><trkpt lat="43.7868402" lon="12.6715613"><ele>258.3333333333333</ele><time>2026-05-02T07:31:35.313Z</time></trkpt><trkpt lat="43.7867166" lon="12.6713948"><ele>261.0</ele><time>2026-05-02T07:31:36.31Z</time></trkpt><trkpt lat="43.7865948" lon="12.6712312"><ele>261.0</ele><time>2026-05-02T07:31:37.311Z</time></trkpt><trkpt lat="43.7864772" lon="12.6711111"><ele>261.0</ele><time>2026-05-02T07:31:38.337Z</time></trkpt><trkpt lat="43.7863532" lon="12.6710278"><ele>261.0</ele><time>2026-05-02T07:31:39.331Z</time></trkpt><trkpt lat="43.7862209" lon="12.6709528"><ele>261.0</ele><time>2026-05-02T07:31:40.334Z</time></trkpt><trkpt lat="43.7861033" lon="12.670866"><ele>261.6666666666667</ele><time>2026-05-02T07:31:41.339Z</time></trkpt><trkpt lat="43.7859002" lon="12.6709326"><ele>262.33333333333337</ele><time>2026-05-02T07:31:42.312Z</time></trkpt><trkpt lat="43.7857299" lon="12.6709124"><ele>263.0</ele><time>2026-05-02T07:31:43.336Z</time></trkpt><trkpt lat="43.785561" lon="12.6708658"><ele>263.0</ele><time>2026-05-02T07:31:44.337Z</time></trkpt><trkpt lat="43.7853962" lon="12.6707859"><ele>263.0</ele><time>2026-05-02T07:31:45.312Z</time></trkpt><trkpt lat="43.7852483" lon="12.6706747"><ele>263.0</ele><time>2026-05-02T07:31:46.334Z</time></trkpt><trkpt lat="43.7851097" lon="12.6705573"><ele>264.0</ele><time>2026-05-02T07:31:47.331Z</time></trkpt><trkpt lat="43.7849734" lon="12.670439"><ele>265.0</ele><time>2026-05-02T07:31:48.313Z</time></trkpt><trkpt lat="43.7848342" lon="12.6703165"><ele>266.0</ele><time>2026-05-02T07:31:49.337Z</time></trkpt><trkpt lat="43.7846978" lon="12.6702001"><ele>266.0</ele><time>2026-05-02T07:31:50.331Z</time></trkpt><trkpt lat="43.7845653" lon="12.6700927"><ele>266.0</ele><time>2026-05-02T07:31:51.336Z</time></trkpt><trkpt lat="43.7844315" lon="12.6699887"><ele>266.0</ele><time>2026-05-02T07:31:52.338Z</time></trkpt><trkpt lat="43.7843021" lon="12.6698986"><ele>269.0</ele><time>2026-05-02T07:31:53.333Z</time></trkpt><trkpt lat="43.7841751" lon="12.6698044"><ele>272.0</ele><time>2026-05-02T07:31:54.336Z</time></trkpt><trkpt lat="43.784062" lon="12.6697093"><ele>275.0</ele><time>2026-05-02T07:31:55.336Z</time></trkpt><trkpt lat="43.7839454" lon="12.6696345"><ele>278.0</ele><time>2026-05-02T07:31:56.312Z</time></trkpt><trkpt lat="43.7838259" lon="12.6695403"><ele>278.0</ele><time>2026-05-02T07:31:57.336Z</time></trkpt><trkpt lat="43.7837094" lon="12.6694515"><ele>278.0</ele><time>2026-05-02T07:31:58.337Z</time></trkpt><trkpt lat="43.783604" lon="12.6693517"><ele>278.0</ele><time>2026-05-02T07:31:59.332Z</time></trkpt><trkpt lat="43.7834907" lon="12.6692486"><ele>278.0</ele><time>2026-05-02T07:32:00.335Z</time></trkpt><trkpt lat="43.7833932" lon="12.6691409"><ele>276.75</ele><time>2026-05-02T07:32:01.337Z</time></trkpt><trkpt lat="43.7832999" lon="12.6690187"><ele>275.5</ele><time>2026-05-02T07:32:02.332Z</time></trkpt><trkpt lat="43.7832315" lon="12.668881"><ele>274.25</ele><time>2026-05-02T07:32:03.336Z</time></trkpt><trkpt lat="43.7831801" lon="12.6687279"><ele>273.0</ele><time>2026-05-02T07:32:04.338Z</time></trkpt><trkpt lat="43.7831162" lon="12.6685858"><ele>270.25</ele><time>2026-05-02T07:32:05.331Z</time></trkpt><trkpt lat="43.7830368" lon="12.6684698"><ele>267.5</ele><time>2026-05-02T07:32:06.335Z</time></trkpt><trkpt lat="43.7829335" lon="12.6683835"><ele>264.75</ele><time>2026-05-02T07:32:07.335Z</time></trkpt><trkpt lat="43.7828154" lon="12.6683293"><ele>262.0</ele><time>2026-05-02T07:32:08.33Z</time></trkpt><trkpt lat="43.7827014" lon="12.6683049"><ele>262.6</ele><time>2026-05-02T07:32:09.333Z</time></trkpt><trkpt lat="43.7825927" lon="12.6682905"><ele>263.2</ele><time>2026-05-02T07:32:10.336Z</time></trkpt><trkpt lat="43.7824892" lon="12.6682781"><ele>263.8</ele><time>2026-05-02T07:32:11.314Z</time></trkpt><trkpt lat="43.7823878" lon="12.6682705"><ele>264.4</ele><time>2026-05-02T07:32:12.334Z</time></trkpt><trkpt lat="43.7822935" lon="12.6682597"><ele>265.0</ele><time>2026-05-02T07:32:13.337Z</time></trkpt><trkpt lat="43.782202" lon="12.6682505"><ele>265.0</ele><time>2026-05-02T07:32:14.312Z</time></trkpt><trkpt lat="43.7821116" lon="12.6682342"><ele>265.0</ele><time>2026-05-02T07:32:15.335Z</time></trkpt><trkpt lat="43.7820124" lon="12.6682014"><ele>265.0</ele><time>2026-05-02T07:32:16.339Z</time></trkpt><trkpt lat="43.781912" lon="12.6681454"><ele>265.0</ele><time>2026-05-02T07:32:17.331Z</time></trkpt><trkpt lat="43.7818093" lon="12.6680685"><ele>265.0</ele><time>2026-05-02T07:32:18.333Z</time></trkpt><trkpt lat="43.7817088" lon="12.6679813"><ele>264.6</ele><time>2026-05-02T07:32:19.336Z</time></trkpt><trkpt lat="43.7816182" lon="12.6678882"><ele>264.2</ele><time>2026-05-02T07:32:20.335Z</time></trkpt><trkpt lat="43.7815351" lon="12.667799"><ele>263.8</ele><time>2026-05-02T07:32:21.33Z</time></trkpt><trkpt lat="43.7814488" lon="12.6677129"><ele>263.4</ele><time>2026-05-02T07:32:22.339Z</time></trkpt><trkpt lat="43.7813635" lon="12.6676329"><ele>263.0</ele><time>2026-05-02T07:32:23.312Z</time></trkpt><trkpt lat="43.7812771" lon="12.6675548"><ele>260.25</ele><time>2026-05-02T07:32:24.337Z</time></trkpt><trkpt lat="43.781186" lon="12.667466"><ele>257.5</ele><time>2026-05-02T07:32:25.328Z</time></trkpt><trkpt lat="43.7810934" lon="12.6673711"><ele>254.75</ele><time>2026-05-02T07:32:26.333Z</time></trkpt><trkpt lat="43.7810022" lon="12.6672675"><ele>252.0</ele><time>2026-05-02T07:32:27.338Z</time></trkpt><trkpt lat="43.7809152" lon="12.6671571"><ele>252.0</ele><time>2026-05-02T07:32:28.312Z</time></trkpt><trkpt lat="43.7808291" lon="12.667039"><ele>252.0</ele><time>2026-05-02T07:32:29.333Z</time></trkpt><trkpt lat="43.7807458" lon="12.6669174"><ele>252.0</ele><time>2026-05-02T07:32:30.341Z</time></trkpt><trkpt lat="43.7806693" lon="12.6668043"><ele>252.0</ele><time>2026-05-02T07:32:31.331Z</time></trkpt><trkpt lat="43.7805973" lon="12.666691"><ele>250.5</ele><time>2026-05-02T07:32:32.339Z</time></trkpt><trkpt lat="43.7805261" lon="12.6665833"><ele>249.0</ele><time>2026-05-02T07:32:33.337Z</time></trkpt><trkpt lat="43.7804526" lon="12.6664708"><ele>247.5</ele><time>2026-05-02T07:32:34.311Z</time></trkpt><trkpt lat="43.7803743" lon="12.666345"><ele>246.0</ele><time>2026-05-02T07:32:35.335Z</time></trkpt><trkpt lat="43.7802918" lon="12.6662133"><ele>245.5</ele><time>2026-05-02T07:32:36.338Z</time></trkpt><trkpt lat="43.7802072" lon="12.6660675"><ele>245.0</ele><time>2026-05-02T07:32:37.328Z</time></trkpt><trkpt lat="43.780126" lon="12.6659159"><ele>244.5</ele><time>2026-05-02T07:32:38.336Z</time></trkpt><trkpt lat="43.7800491" lon="12.6657639"><ele>244.0</ele><time>2026-05-02T07:32:39.331Z</time></trkpt><trkpt lat="43.7799701" lon="12.6656058"><ele>244.0</ele><time>2026-05-02T07:32:40.333Z</time></trkpt><trkpt lat="43.7798874" lon="12.6654573"><ele>244.0</ele><time>2026-05-02T07:32:41.34Z</time></trkpt><trkpt lat="43.7797927" lon="12.6653113"><ele>244.0</ele><time>2026-05-02T07:32:42.332Z</time></trkpt><trkpt lat="43.7796839" lon="12.6651757"><ele>244.0</ele><time>2026-05-02T07:32:43.334Z</time></trkpt><trkpt lat="43.7795658" lon="12.6650619"><ele>242.5</ele><time>2026-05-02T07:32:44.339Z</time></trkpt><trkpt lat="43.7794365" lon="12.6649696"><ele>241.0</ele><time>2026-05-02T07:32:45.332Z</time></trkpt><trkpt lat="43.7793073" lon="12.6648978"><ele>239.5</ele><time>2026-05-02T07:32:46.335Z</time></trkpt><trkpt lat="43.7791711" lon="12.6648331"><ele>238.0</ele><time>2026-05-02T07:32:47.337Z</time></trkpt><trkpt lat="43.7790366" lon="12.6647661"><ele>238.0</ele><time>2026-05-02T07:32:48.332Z</time></trkpt><trkpt lat="43.7789042" lon="12.6646966"><ele>238.0</ele><time>2026-05-02T07:32:49.334Z</time></trkpt><trkpt lat="43.7787655" lon="12.6646211"><ele>238.0</ele><time>2026-05-02T07:32:50.339Z</time></trkpt><trkpt lat="43.7786166" lon="12.664542"><ele>237.33333333333331</ele><time>2026-05-02T07:32:51.331Z</time></trkpt><trkpt lat="43.7784687" lon="12.6644595"><ele>236.66666666666669</ele><time>2026-05-02T07:32:52.334Z</time></trkpt><trkpt lat="43.7783133" lon="12.6643934"><ele>236.0</ele><time>2026-05-02T07:32:53.338Z</time></trkpt><trkpt lat="43.7781606" lon="12.6643312"><ele>235.33333333333334</ele><time>2026-05-02T07:32:54.312Z</time></trkpt><trkpt lat="43.7780027" lon="12.6642764"><ele>234.66666666666669</ele><time>2026-05-02T07:32:55.332Z</time></trkpt><trkpt lat="43.7778486" lon="12.6642241"><ele>234.0</ele><time>2026-05-02T07:32:56.335Z</time></trkpt><trkpt lat="43.7777007" lon="12.6641735"><ele>232.66666666666669</ele><time>2026-05-02T07:32:57.311Z</time></trkpt><trkpt lat="43.7775538" lon="12.6641173"><ele>231.33333333333334</ele><time>2026-05-02T07:32:58.336Z</time></trkpt><trkpt lat="43.777406" lon="12.6640616"><ele>230.0</ele><time>2026-05-02T07:32:59.339Z</time></trkpt><trkpt lat="43.7772526" lon="12.6640089"><ele>230.0</ele><time>2026-05-02T07:33:00.312Z</time></trkpt><trkpt lat="43.7770972" lon="12.663954"><ele>230.0</ele><time>2026-05-02T07:33:01.334Z</time></trkpt><trkpt lat="43.7769404" lon="12.6639009"><ele>230.0</ele><time>2026-05-02T07:33:02.337Z</time></trkpt><trkpt lat="43.7767789" lon="12.6638436"><ele>231.0</ele><time>2026-05-02T07:33:03.333Z</time></trkpt><trkpt lat="43.7766229" lon="12.6637905"><ele>232.0</ele><time>2026-05-02T07:33:04.333Z</time></trkpt><trkpt lat="43.7764649" lon="12.6637333"><ele>233.0</ele><time>2026-05-02T07:33:05.336Z</time></trkpt><trkpt lat="43.7763091" lon="12.6636816"><ele>233.0</ele><time>2026-05-02T07:33:06.331Z</time></trkpt><trkpt lat="43.7761503" lon="12.6636384"><ele>233.0</ele><time>2026-05-02T07:33:07.335Z</time></trkpt><trkpt lat="43.7759907" lon="12.6636017"><ele>233.0</ele><time>2026-05-02T07:33:08.33Z</time></trkpt><trkpt lat="43.7758297" lon="12.6635756"><ele>236.66666666666669</ele><time>2026-05-02T07:33:09.334Z</time></trkpt><trkpt lat="43.7756785" lon="12.6635365"><ele>240.33333333333331</ele><time>2026-05-02T07:33:10.338Z</time></trkpt><trkpt lat="43.7755103" lon="12.663533"><ele>244.0</ele><time>2026-05-02T07:33:11.331Z</time></trkpt><trkpt lat="43.7753469" lon="12.6635016"><ele>245.75</ele><time>2026-05-02T07:33:12.337Z</time></trkpt><trkpt lat="43.7751841" lon="12.6634649"><ele>247.5</ele><time>2026-05-02T07:33:13.337Z</time></trkpt><trkpt lat="43.7750511" lon="12.6634818"><ele>249.25</ele><time>2026-05-02T07:33:14.332Z</time></trkpt><trkpt lat="43.7749109" lon="12.6634672"><ele>251.0</ele><time>2026-05-02T07:33:15.334Z</time></trkpt><trkpt lat="43.774758" lon="12.6634653"><ele>251.0</ele><time>2026-05-02T07:33:16.337Z</time></trkpt><trkpt lat="43.7745968" lon="12.6634493"><ele>251.0</ele><time>2026-05-02T07:33:17.333Z</time></trkpt><trkpt lat="43.7744315" lon="12.6634369"><ele>251.0</ele><time>2026-05-02T07:33:18.333Z</time></trkpt><trkpt lat="43.7742756" lon="12.6634276"><ele>252.33333333333334</ele><time>2026-05-02T07:33:19.338Z</time></trkpt><trkpt lat="43.7741273" lon="12.6634176"><ele>253.66666666666669</ele><time>2026-05-02T07:33:20.337Z</time></trkpt><trkpt lat="43.7739776" lon="12.6633998"><ele>255.0</ele><time>2026-05-02T07:33:21.335Z</time></trkpt><trkpt lat="43.7738271" lon="12.6633862"><ele>255.0</ele><time>2026-05-02T07:33:22.339Z</time></trkpt><trkpt lat="43.7736676" lon="12.6633933"><ele>255.0</ele><time>2026-05-02T07:33:23.334Z</time></trkpt><trkpt lat="43.7735039" lon="12.6634219"><ele>255.0</ele><time>2026-05-02T07:33:24.339Z</time></trkpt><trkpt lat="43.7733271" lon="12.6634603"><ele>254.33333333333331</ele><time>2026-05-02T07:33:25.329Z</time></trkpt><trkpt lat="43.7731747" lon="12.6635168"><ele>253.66666666666666</ele><time>2026-05-02T07:33:26.334Z</time></trkpt><trkpt lat="43.7730124" lon="12.6635698"><ele>253.0</ele><time>2026-05-02T07:33:27.338Z</time></trkpt><trkpt lat="43.7728587" lon="12.6636186"><ele>253.0</ele><time>2026-05-02T07:33:28.332Z</time></trkpt><trkpt lat="43.7726956" lon="12.6636638"><ele>253.0</ele><time>2026-05-02T07:33:29.335Z</time></trkpt><trkpt lat="43.7725341" lon="12.6637212"><ele>253.0</ele><time>2026-05-02T07:33:30.338Z</time></trkpt><trkpt lat="43.7723893" lon="12.6637737"><ele>253.0</ele><time>2026-05-02T07:33:31.4Z</time></trkpt><trkpt lat="43.772238" lon="12.6638311"><ele>253.0</ele><time>2026-05-02T07:33:32.338Z</time></trkpt><trkpt lat="43.7721023" lon="12.6638798"><ele>253.0</ele><time>2026-05-02T07:33:33.317Z</time></trkpt><trkpt lat="43.7719699" lon="12.6639191"><ele>253.0</ele><time>2026-05-02T07:33:34.333Z</time></trkpt><trkpt lat="43.7718334" lon="12.6639579"><ele>254.0</ele><time>2026-05-02T07:33:35.337Z</time></trkpt><trkpt lat="43.7717034" lon="12.6639776"><ele>255.0</ele><time>2026-05-02T07:33:36.331Z</time></trkpt><trkpt lat="43.771568" lon="12.6640016"><ele>256.0</ele><time>2026-05-02T07:33:37.333Z</time></trkpt><trkpt lat="43.7714541" lon="12.6639545"><ele>257.0</ele><time>2026-05-02T07:33:38.338Z</time></trkpt><trkpt lat="43.7713375" lon="12.6639266"><ele>257.0</ele><time>2026-05-02T07:33:39.313Z</time></trkpt><trkpt lat="43.7712429" lon="12.6638408"><ele>257.0</ele><time>2026-05-02T07:33:40.334Z</time></trkpt><trkpt lat="43.7711278" lon="12.6637068"><ele>257.0</ele><time>2026-05-02T07:33:41.337Z</time></trkpt><trkpt lat="43.7710315" lon="12.6635873"><ele>257.0</ele><time>2026-05-02T07:33:42.313Z</time></trkpt><trkpt lat="43.7709361" lon="12.6634649"><ele>256.0</ele><time>2026-05-02T07:33:43.328Z</time></trkpt><trkpt lat="43.7708447" lon="12.6633546"><ele>255.0</ele><time>2026-05-02T07:33:44.333Z</time></trkpt><trkpt lat="43.7707455" lon="12.6632483"><ele>254.0</ele><time>2026-05-02T07:33:45.333Z</time></trkpt><trkpt lat="43.7706531" lon="12.663146"><ele>253.0</ele><time>2026-05-02T07:33:46.336Z</time></trkpt><trkpt lat="43.770557" lon="12.6630416"><ele>253.0</ele><time>2026-05-02T07:33:47.31Z</time></trkpt><trkpt lat="43.7704633" lon="12.6629427"><ele>253.0</ele><time>2026-05-02T07:33:48.332Z</time></trkpt><trkpt lat="43.7703658" lon="12.6628401"><ele>253.0</ele><time>2026-05-02T07:33:49.335Z</time></trkpt><trkpt lat="43.7702711" lon="12.6627328"><ele>253.0</ele><time>2026-05-02T07:33:50.332Z</time></trkpt><trkpt lat="43.7701684" lon="12.6626245"><ele>253.75</ele><time>2026-05-02T07:33:51.337Z</time></trkpt><trkpt lat="43.770062" lon="12.6625069"><ele>254.5</ele><time>2026-05-02T07:33:52.339Z</time></trkpt><trkpt lat="43.7699524" lon="12.6623881"><ele>255.25</ele><time>2026-05-02T07:33:53.331Z</time></trkpt><trkpt lat="43.7698428" lon="12.662269"><ele>256.0</ele><time>2026-05-02T07:33:54.335Z</time></trkpt><trkpt lat="43.7697369" lon="12.6621491"><ele>256.0</ele><time>2026-05-02T07:33:55.335Z</time></trkpt><trkpt lat="43.7696287" lon="12.662035"><ele>256.0</ele><time>2026-05-02T07:33:56.33Z</time></trkpt><trkpt lat="43.7695116" lon="12.6619247"><ele>256.0</ele><time>2026-05-02T07:33:57.334Z</time></trkpt><trkpt lat="43.7693843" lon="12.6618181"><ele>256.0</ele><time>2026-05-02T07:33:58.339Z</time></trkpt><trkpt lat="43.7692514" lon="12.6617195"><ele>255.75</ele><time>2026-05-02T07:33:59.312Z</time></trkpt><trkpt lat="43.7691183" lon="12.6616317"><ele>255.5</ele><time>2026-05-02T07:34:00.334Z</time></trkpt><trkpt lat="43.7689888" lon="12.6615583"><ele>255.25</ele><time>2026-05-02T07:34:01.336Z</time></trkpt><trkpt lat="43.7688666" lon="12.661496"><ele>255.0</ele><time>2026-05-02T07:34:02.332Z</time></trkpt><trkpt lat="43.7687447" lon="12.661442"><ele>255.0</ele><time>2026-05-02T07:34:03.332Z</time></trkpt><trkpt lat="43.7686331" lon="12.6614005"><ele>255.0</ele><time>2026-05-02T07:34:04.337Z</time></trkpt><trkpt lat="43.7685165" lon="12.6613572"><ele>255.0</ele><time>2026-05-02T07:34:05.333Z</time></trkpt><trkpt lat="43.7684075" lon="12.6613416"><ele>255.0</ele><time>2026-05-02T07:34:06.335Z</time></trkpt><trkpt lat="43.7682918" lon="12.661326"><ele>253.5</ele><time>2026-05-02T07:34:07.335Z</time></trkpt><trkpt lat="43.7681736" lon="12.6613135"><ele>252.0</ele><time>2026-05-02T07:34:08.331Z</time></trkpt><trkpt lat="43.7680517" lon="12.6612896"><ele>250.5</ele><time>2026-05-02T07:34:09.333Z</time></trkpt><trkpt lat="43.7679358" lon="12.6612457"><ele>249.0</ele><time>2026-05-02T07:34:10.331Z</time></trkpt><trkpt lat="43.76782" lon="12.6611818"><ele>249.0</ele><time>2026-05-02T07:34:11.336Z</time></trkpt><trkpt lat="43.7677077" lon="12.6610958"><ele>249.0</ele><time>2026-05-02T07:34:12.338Z</time></trkpt><trkpt lat="43.7676076" lon="12.6609935"><ele>249.0</ele><time>2026-05-02T07:34:13.334Z</time></trkpt><trkpt lat="43.7675039" lon="12.6608967"><ele>249.0</ele><time>2026-05-02T07:34:14.337Z</time></trkpt><trkpt lat="43.7673997" lon="12.6608033"><ele>249.0</ele><time>2026-05-02T07:34:15.336Z</time></trkpt><trkpt lat="43.7672995" lon="12.6607227"><ele>249.0</ele><time>2026-05-02T07:34:16.33Z</time></trkpt><trkpt lat="43.7671934" lon="12.6606418"><ele>249.0</ele><time>2026-05-02T07:34:17.335Z</time></trkpt><trkpt lat="43.7670853" lon="12.6605669"><ele>249.0</ele><time>2026-05-02T07:34:18.337Z</time></trkpt><trkpt lat="43.7669723" lon="12.6604923"><ele>249.0</ele><time>2026-05-02T07:34:19.331Z</time></trkpt><trkpt lat="43.766856" lon="12.6604166"><ele>249.0</ele><time>2026-05-02T07:34:20.338Z</time></trkpt><trkpt lat="43.7667295" lon="12.6603439"><ele>249.0</ele><time>2026-05-02T07:34:21.338Z</time></trkpt><trkpt lat="43.7665947" lon="12.6602631"><ele>249.0</ele><time>2026-05-02T07:34:22.332Z</time></trkpt><trkpt lat="43.7664547" lon="12.6601775"><ele>253.0</ele><time>2026-05-02T07:34:23.333Z</time></trkpt><trkpt lat="43.7663187" lon="12.6600774"><ele>257.0</ele><time>2026-05-02T07:34:24.338Z</time></trkpt><trkpt lat="43.7661962" lon="12.6599562"><ele>261.0</ele><time>2026-05-02T07:34:25.312Z</time></trkpt><trkpt lat="43.7660888" lon="12.6598007"><ele>258.6666666666667</ele><time>2026-05-02T07:34:26.337Z</time></trkpt><trkpt lat="43.7659967" lon="12.6595799"><ele>256.33333333333337</ele><time>2026-05-02T07:34:27.313Z</time></trkpt><trkpt lat="43.7659085" lon="12.6593343"><ele>254.0</ele><time>2026-05-02T07:34:28.331Z</time></trkpt><trkpt lat="43.7658228" lon="12.6590914"><ele>259.0</ele><time>2026-05-02T07:34:29.332Z</time></trkpt><trkpt lat="43.7657473" lon="12.6588766"><ele>264.0</ele><time>2026-05-02T07:34:30.338Z</time></trkpt><trkpt lat="43.765682" lon="12.658675"><ele>269.0</ele><time>2026-05-02T07:34:31.334Z</time></trkpt><trkpt lat="43.7656257" lon="12.6584972"><ele>269.25</ele><time>2026-05-02T07:34:32.312Z</time></trkpt><trkpt lat="43.7655742" lon="12.6583184"><ele>269.5</ele><time>2026-05-02T07:34:33.335Z</time></trkpt><trkpt lat="43.7655234" lon="12.6581509"><ele>269.75</ele><time>2026-05-02T07:34:34.331Z</time></trkpt><trkpt lat="43.7654397" lon="12.6580612"><ele>270.0</ele><time>2026-05-02T07:34:35.335Z</time></trkpt><trkpt lat="43.7653522" lon="12.6579625"><ele>270.0</ele><time>2026-05-02T07:34:36.336Z</time></trkpt><trkpt lat="43.7652452" lon="12.6578804"><ele>270.0</ele><time>2026-05-02T07:34:37.331Z</time></trkpt><trkpt lat="43.7651313" lon="12.6578258"><ele>270.0</ele><time>2026-05-02T07:34:38.333Z</time></trkpt><trkpt lat="43.7650237" lon="12.657784"><ele>270.0</ele><time>2026-05-02T07:34:39.337Z</time></trkpt><trkpt lat="43.764917" lon="12.6577529"><ele>271.2</ele><time>2026-05-02T07:34:40.312Z</time></trkpt><trkpt lat="43.764805" lon="12.6577272"><ele>272.4</ele><time>2026-05-02T07:34:41.332Z</time></trkpt><trkpt lat="43.7646953" lon="12.6577139"><ele>273.6</ele><time>2026-05-02T07:34:42.338Z</time></trkpt><trkpt lat="43.7645834" lon="12.6577069"><ele>274.8</ele><time>2026-05-02T07:34:43.331Z</time></trkpt><trkpt lat="43.7644718" lon="12.6576983"><ele>276.0</ele><time>2026-05-02T07:34:44.336Z</time></trkpt><trkpt lat="43.7643596" lon="12.6576857"><ele>278.6</ele><time>2026-05-02T07:34:45.339Z</time></trkpt><trkpt lat="43.7642573" lon="12.6576711"><ele>281.20000000000005</ele><time>2026-05-02T07:34:46.332Z</time></trkpt><trkpt lat="43.7641654" lon="12.6576427"><ele>283.79999999999995</ele><time>2026-05-02T07:34:47.335Z</time></trkpt><trkpt lat="43.7640717" lon="12.6576059"><ele>286.4</ele><time>2026-05-02T07:34:48.337Z</time></trkpt><trkpt lat="43.7640129" lon="12.657494"><ele>289.0</ele><time>2026-05-02T07:34:49.331Z</time></trkpt><trkpt lat="43.7639663" lon="12.657386"><ele>289.0</ele><time>2026-05-02T07:34:50.336Z</time></trkpt><trkpt lat="43.7639395" lon="12.6572559"><ele>289.0</ele><time>2026-05-02T07:34:51.34Z</time></trkpt><trkpt lat="43.7639281" lon="12.6571155"><ele>289.0</ele><time>2026-05-02T07:34:52.332Z</time></trkpt><trkpt lat="43.7639203" lon="12.6569662"><ele>289.0</ele><time>2026-05-02T07:34:53.333Z</time></trkpt><trkpt lat="43.7639137" lon="12.6568241"><ele>289.0</ele><time>2026-05-02T07:34:54.339Z</time></trkpt><trkpt lat="43.7639016" lon="12.6566864"><ele>290.5</ele><time>2026-05-02T07:34:55.314Z</time></trkpt><trkpt lat="43.7638959" lon="12.6565643"><ele>292.0</ele><time>2026-05-02T07:34:56.333Z</time></trkpt><trkpt lat="43.7638893" lon="12.6564325"><ele>293.5</ele><time>2026-05-02T07:34:57.338Z</time></trkpt><trkpt lat="43.7638811" lon="12.6563042"><ele>295.0</ele><time>2026-05-02T07:34:58.335Z</time></trkpt><trkpt lat="43.7638765" lon="12.6561899"><ele>296.5</ele><time>2026-05-02T07:34:59.34Z</time></trkpt><trkpt lat="43.7638699" lon="12.6560823"><ele>298.0</ele><time>2026-05-02T07:35:00.334Z</time></trkpt><trkpt lat="43.7638654" lon="12.6559727"><ele>298.8333333333333</ele><time>2026-05-02T07:35:01.337Z</time></trkpt><trkpt lat="43.7638612" lon="12.6558634"><ele>299.66666666666663</ele><time>2026-05-02T07:35:02.34Z</time></trkpt><trkpt lat="43.7638532" lon="12.6557571"><ele>300.5</ele><time>2026-05-02T07:35:03.332Z</time></trkpt><trkpt lat="43.7638268" lon="12.6556642"><ele>301.3333333333333</ele><time>2026-05-02T07:35:04.333Z</time></trkpt><trkpt lat="43.7637898" lon="12.6555923"><ele>302.1666666666667</ele><time>2026-05-02T07:35:05.332Z</time></trkpt><trkpt lat="43.7637043" lon="12.6555235"><ele>303.0</ele><time>2026-05-02T07:35:07.335Z</time></trkpt><trkpt lat="43.7635931" lon="12.6555508"><ele>303.0</ele><time>2026-05-02T07:35:09.333Z</time></trkpt><trkpt lat="43.7635351" lon="12.6555971"><ele>303.0</ele><time>2026-05-02T07:35:10.33Z</time></trkpt><trkpt lat="43.7634725" lon="12.6556458"><ele>303.0</ele><time>2026-05-02T07:35:11.312Z</time></trkpt><trkpt lat="43.7634013" lon="12.655722"><ele>303.0</ele><time>2026-05-02T07:35:12.313Z</time></trkpt><trkpt lat="43.7633375" lon="12.6557938"><ele>303.0</ele><time>2026-05-02T07:35:13.315Z</time></trkpt><trkpt lat="43.7632781" lon="12.655856"><ele>303.0</ele><time>2026-05-02T07:35:14.336Z</time></trkpt><trkpt lat="43.7632189" lon="12.6559172"><ele>304.1666666666667</ele><time>2026-05-02T07:35:15.313Z</time></trkpt><trkpt lat="43.7631597" lon="12.6559797"><ele>305.3333333333333</ele><time>2026-05-02T07:35:16.339Z</time></trkpt><trkpt lat="43.7630962" lon="12.6560434"><ele>306.5</ele><time>2026-05-02T07:35:17.313Z</time></trkpt><trkpt lat="43.7630307" lon="12.6561046"><ele>307.66666666666663</ele><time>2026-05-02T07:35:18.338Z</time></trkpt><trkpt lat="43.7629602" lon="12.6561557"><ele>308.8333333333333</ele><time>2026-05-02T07:35:19.312Z</time></trkpt><trkpt lat="43.7628739" lon="12.6562104"><ele>310.0</ele><time>2026-05-02T07:35:20.338Z</time></trkpt><trkpt lat="43.7627801" lon="12.656256"><ele>313.2</ele><time>2026-05-02T07:35:21.346Z</time></trkpt><trkpt lat="43.7626814" lon="12.6562939"><ele>316.4</ele><time>2026-05-02T07:35:22.314Z</time></trkpt><trkpt lat="43.7625867" lon="12.6563349"><ele>319.6</ele><time>2026-05-02T07:35:23.313Z</time></trkpt><trkpt lat="43.7625028" lon="12.6563692"><ele>322.8</ele><time>2026-05-02T07:35:24.312Z</time></trkpt><trkpt lat="43.7624013" lon="12.656404"><ele>326.0</ele><time>2026-05-02T07:35:25.335Z</time></trkpt><trkpt lat="43.7622952" lon="12.6564282"><ele>326.0</ele><time>2026-05-02T07:35:26.312Z</time></trkpt><trkpt lat="43.7621791" lon="12.6564433"><ele>326.0</ele><time>2026-05-02T07:35:27.312Z</time></trkpt><trkpt lat="43.7620718" lon="12.656455"><ele>326.0</ele><time>2026-05-02T07:35:28.332Z</time></trkpt><trkpt lat="43.7618672" lon="12.6564529"><ele>326.0</ele><time>2026-05-02T07:35:29.336Z</time></trkpt><trkpt lat="43.7616747" lon="12.6564569"><ele>330.33333333333337</ele><time>2026-05-02T07:35:30.331Z</time></trkpt><trkpt lat="43.7614974" lon="12.6564413"><ele>334.6666666666667</ele><time>2026-05-02T07:35:31.338Z</time></trkpt><trkpt lat="43.7613376" lon="12.6564205"><ele>339.0</ele><time>2026-05-02T07:35:32.312Z</time></trkpt><trkpt lat="43.7611706" lon="12.6564204"><ele>341.0</ele><time>2026-05-02T07:35:33.309Z</time></trkpt><trkpt lat="43.7610111" lon="12.6564191"><ele>343.0</ele><time>2026-05-02T07:35:34.315Z</time></trkpt><trkpt lat="43.7608661" lon="12.6564293"><ele>345.0</ele><time>2026-05-02T07:35:35.339Z</time></trkpt><trkpt lat="43.7607334" lon="12.6564352"><ele>347.0</ele><time>2026-05-02T07:35:36.312Z</time></trkpt><trkpt lat="43.7606268" lon="12.6564214"><ele>347.0</ele><time>2026-05-02T07:35:37.336Z</time></trkpt><trkpt lat="43.7605141" lon="12.6563873"><ele>347.0</ele><time>2026-05-02T07:35:38.312Z</time></trkpt><trkpt lat="43.7604102" lon="12.6563258"><ele>347.0</ele><time>2026-05-02T07:35:39.333Z</time></trkpt><trkpt lat="43.7603172" lon="12.6562433"><ele>347.0</ele><time>2026-05-02T07:35:40.312Z</time></trkpt><trkpt lat="43.7602911" lon="12.6560579"><ele>350.0</ele><time>2026-05-02T07:35:41.334Z</time></trkpt><trkpt lat="43.760235" lon="12.6558952"><ele>353.0</ele><time>2026-05-02T07:35:42.335Z</time></trkpt><trkpt lat="43.7601763" lon="12.6557231"><ele>356.0</ele><time>2026-05-02T07:35:43.334Z</time></trkpt><trkpt lat="43.7601303" lon="12.655552"><ele>359.0</ele><time>2026-05-02T07:35:44.332Z</time></trkpt><trkpt lat="43.7600877" lon="12.6553764"><ele>360.75</ele><time>2026-05-02T07:35:45.331Z</time></trkpt><trkpt lat="43.7600451" lon="12.6552013"><ele>362.5</ele><time>2026-05-02T07:35:46.336Z</time></trkpt><trkpt lat="43.760086" lon="12.6550206"><ele>364.25</ele><time>2026-05-02T07:35:47.312Z</time></trkpt><trkpt lat="43.7601195" lon="12.6548491"><ele>366.0</ele><time>2026-05-02T07:35:48.337Z</time></trkpt><trkpt lat="43.7602717" lon="12.6546915"><ele>368.6666666666667</ele><time>2026-05-02T07:35:49.313Z</time></trkpt><trkpt lat="43.7603333" lon="12.6545245"><ele>371.33333333333337</ele><time>2026-05-02T07:35:50.338Z</time></trkpt><trkpt lat="43.7604477" lon="12.6543522"><ele>374.0</ele><time>2026-05-02T07:35:51.304Z</time></trkpt><trkpt lat="43.7605624" lon="12.65418"><ele>374.0</ele><time>2026-05-02T07:35:52.332Z</time></trkpt><trkpt lat="43.760678" lon="12.654022"><ele>374.0</ele><time>2026-05-02T07:35:53.329Z</time></trkpt><trkpt lat="43.760775" lon="12.6538873"><ele>374.0</ele><time>2026-05-02T07:35:54.338Z</time></trkpt><trkpt lat="43.7608789" lon="12.6537396"><ele>374.0</ele><time>2026-05-02T07:35:55.311Z</time></trkpt><trkpt lat="43.7609426" lon="12.6536086"><ele>372.75</ele><time>2026-05-02T07:35:56.309Z</time></trkpt><trkpt lat="43.7610328" lon="12.653474"><ele>371.5</ele><time>2026-05-02T07:35:57.31Z</time></trkpt><trkpt lat="43.7610248" lon="12.6532635"><ele>370.25</ele><time>2026-05-02T07:35:58.338Z</time></trkpt><trkpt lat="43.7610277" lon="12.6531017"><ele>369.0</ele><time>2026-05-02T07:35:59.312Z</time></trkpt><trkpt lat="43.7610078" lon="12.6529314"><ele>370.25</ele><time>2026-05-02T07:36:00.336Z</time></trkpt><trkpt lat="43.7609887" lon="12.652759"><ele>371.5</ele><time>2026-05-02T07:36:01.311Z</time></trkpt><trkpt lat="43.7609756" lon="12.6525922"><ele>372.75</ele><time>2026-05-02T07:36:02.311Z</time></trkpt><trkpt lat="43.7609605" lon="12.6524207"><ele>374.0</ele><time>2026-05-02T07:36:03.311Z</time></trkpt><trkpt lat="43.7609479" lon="12.6522566"><ele>374.0</ele><time>2026-05-02T07:36:04.336Z</time></trkpt><trkpt lat="43.7609425" lon="12.6521002"><ele>374.0</ele><time>2026-05-02T07:36:05.313Z</time></trkpt><trkpt lat="43.7609439" lon="12.6519458"><ele>374.0</ele><time>2026-05-02T07:36:06.313Z</time></trkpt><trkpt lat="43.7609441" lon="12.6517917"><ele>374.0</ele><time>2026-05-02T07:36:07.311Z</time></trkpt><trkpt lat="43.7609473" lon="12.6516372"><ele>374.0</ele><time>2026-05-02T07:36:08.338Z</time></trkpt><trkpt lat="43.7609479" lon="12.6514833"><ele>374.5</ele><time>2026-05-02T07:36:09.331Z</time></trkpt><trkpt lat="43.7609484" lon="12.6513226"><ele>375.0</ele><time>2026-05-02T07:36:10.335Z</time></trkpt><trkpt lat="43.760952" lon="12.6511598"><ele>375.5</ele><time>2026-05-02T07:36:11.313Z</time></trkpt><trkpt lat="43.7609596" lon="12.6510012"><ele>376.0</ele><time>2026-05-02T07:36:12.337Z</time></trkpt><trkpt lat="43.7609692" lon="12.6508453"><ele>376.0</ele><time>2026-05-02T07:36:13.313Z</time></trkpt><trkpt lat="43.7609889" lon="12.6506938"><ele>376.0</ele><time>2026-05-02T07:36:14.338Z</time></trkpt><trkpt lat="43.7610076" lon="12.6505419"><ele>376.0</ele><time>2026-05-02T07:36:15.331Z</time></trkpt><trkpt lat="43.7610437" lon="12.6504019"><ele>376.0</ele><time>2026-05-02T07:36:16.336Z</time></trkpt><trkpt lat="43.7610599" lon="12.6502355"><ele>373.25</ele><time>2026-05-02T07:36:17.312Z</time></trkpt><trkpt lat="43.7610771" lon="12.6501023"><ele>370.5</ele><time>2026-05-02T07:36:18.339Z</time></trkpt><trkpt lat="43.7611517" lon="12.6499479"><ele>367.75</ele><time>2026-05-02T07:36:19.312Z</time></trkpt><trkpt lat="43.7612251" lon="12.6498179"><ele>365.0</ele><time>2026-05-02T07:36:20.311Z</time></trkpt><trkpt lat="43.7612829" lon="12.6496842"><ele>365.0</ele><time>2026-05-02T07:36:21.311Z</time></trkpt><trkpt lat="43.7613389" lon="12.6495469"><ele>365.0</ele><time>2026-05-02T07:36:22.336Z</time></trkpt><trkpt lat="43.7614024" lon="12.6493891"><ele>365.0</ele><time>2026-05-02T07:36:23.332Z</time></trkpt><trkpt lat="43.7614601" lon="12.6492374"><ele>365.0</ele><time>2026-05-02T07:36:24.312Z</time></trkpt><trkpt lat="43.7615202" lon="12.6490903"><ele>368.75</ele><time>2026-05-02T07:36:25.311Z</time></trkpt><trkpt lat="43.7615805" lon="12.6489371"><ele>372.5</ele><time>2026-05-02T07:36:26.336Z</time></trkpt><trkpt lat="43.7616373" lon="12.6487773"><ele>376.25</ele><time>2026-05-02T07:36:27.313Z</time></trkpt><trkpt lat="43.7616933" lon="12.6486131"><ele>380.0</ele><time>2026-05-02T07:36:28.312Z</time></trkpt><trkpt lat="43.7617363" lon="12.6484399"><ele>382.5</ele><time>2026-05-02T07:36:29.312Z</time></trkpt><trkpt lat="43.7617675" lon="12.6482576"><ele>385.0</ele><time>2026-05-02T07:36:30.337Z</time></trkpt><trkpt lat="43.761772" lon="12.6480723"><ele>387.5</ele><time>2026-05-02T07:36:31.312Z</time></trkpt><trkpt lat="43.7617527" lon="12.6478837"><ele>390.0</ele><time>2026-05-02T07:36:32.334Z</time></trkpt><trkpt lat="43.7616985" lon="12.6477138"><ele>390.0</ele><time>2026-05-02T07:36:33.334Z</time></trkpt><trkpt lat="43.761641" lon="12.6475637"><ele>390.0</ele><time>2026-05-02T07:36:34.311Z</time></trkpt><trkpt lat="43.7615924" lon="12.6474346"><ele>390.0</ele><time>2026-05-02T07:36:35.311Z</time></trkpt><trkpt lat="43.7615452" lon="12.6473178"><ele>390.0</ele><time>2026-05-02T07:36:36.312Z</time></trkpt><trkpt lat="43.7615017" lon="12.6472067"><ele>390.0</ele><time>2026-05-02T07:36:37.31Z</time></trkpt><trkpt lat="43.7614573" lon="12.6470968"><ele>390.0</ele><time>2026-05-02T07:36:38.337Z</time></trkpt><trkpt lat="43.7614139" lon="12.6469755"><ele>390.0</ele><time>2026-05-02T07:36:39.331Z</time></trkpt><trkpt lat="43.7613653" lon="12.6468404"><ele>390.0</ele><time>2026-05-02T07:36:40.314Z</time></trkpt><trkpt lat="43.7613084" lon="12.6466895"><ele>390.0</ele><time>2026-05-02T07:36:41.331Z</time></trkpt><trkpt lat="43.7612544" lon="12.6465431"><ele>390.0</ele><time>2026-05-02T07:36:42.311Z</time></trkpt><trkpt lat="43.7611996" lon="12.6463918"><ele>388.25</ele><time>2026-05-02T07:36:43.313Z</time></trkpt><trkpt lat="43.7611412" lon="12.646242"><ele>386.5</ele><time>2026-05-02T07:36:44.339Z</time></trkpt><trkpt lat="43.7610747" lon="12.6461013"><ele>384.75</ele><time>2026-05-02T07:36:45.313Z</time></trkpt><trkpt lat="43.761" lon="12.6459724"><ele>383.0</ele><time>2026-05-02T07:36:46.339Z</time></trkpt><trkpt lat="43.7609129" lon="12.6458483"><ele>383.0</ele><time>2026-05-02T07:36:47.312Z</time></trkpt><trkpt lat="43.7608165" lon="12.6457259"><ele>383.0</ele><time>2026-05-02T07:36:48.313Z</time></trkpt><trkpt lat="43.7607161" lon="12.6456026"><ele>383.0</ele><time>2026-05-02T07:36:49.31Z</time></trkpt><trkpt lat="43.7606152" lon="12.6454883"><ele>383.0</ele><time>2026-05-02T07:36:50.334Z</time></trkpt><trkpt lat="43.7605165" lon="12.6453765"><ele>382.25</ele><time>2026-05-02T07:36:51.312Z</time></trkpt><trkpt lat="43.7604179" lon="12.6452669"><ele>381.5</ele><time>2026-05-02T07:36:52.311Z</time></trkpt><trkpt lat="43.7603091" lon="12.6451756"><ele>380.75</ele><time>2026-05-02T07:36:53.312Z</time></trkpt><trkpt lat="43.7602111" lon="12.6451015"><ele>380.0</ele><time>2026-05-02T07:36:54.335Z</time></trkpt><trkpt lat="43.7601187" lon="12.6450344"><ele>382.0</ele><time>2026-05-02T07:36:55.311Z</time></trkpt><trkpt lat="43.7600143" lon="12.6449549"><ele>384.0</ele><time>2026-05-02T07:36:56.332Z</time></trkpt><trkpt lat="43.759902" lon="12.6448775"><ele>386.0</ele><time>2026-05-02T07:36:57.311Z</time></trkpt><trkpt lat="43.7597721" lon="12.6448005"><ele>388.0</ele><time>2026-05-02T07:36:58.338Z</time></trkpt><trkpt lat="43.7596248" lon="12.6447155"><ele>388.0</ele><time>2026-05-02T07:36:59.312Z</time></trkpt><trkpt lat="43.7594608" lon="12.6446232"><ele>388.0</ele><time>2026-05-02T07:37:00.312Z</time></trkpt><trkpt lat="43.7592858" lon="12.6445271"><ele>388.0</ele><time>2026-05-02T07:37:01.312Z</time></trkpt><trkpt lat="43.7591073" lon="12.6444068"><ele>391.0</ele><time>2026-05-02T07:37:02.312Z</time></trkpt><trkpt lat="43.7589417" lon="12.6442599"><ele>394.0</ele><time>2026-05-02T07:37:03.314Z</time></trkpt><trkpt lat="43.75878" lon="12.6440909"><ele>397.0</ele><time>2026-05-02T07:37:04.336Z</time></trkpt><trkpt lat="43.758624" lon="12.6439081"><ele>395.6666666666667</ele><time>2026-05-02T07:37:05.33Z</time></trkpt><trkpt lat="43.7584784" lon="12.6437151"><ele>394.33333333333337</ele><time>2026-05-02T07:37:06.304Z</time></trkpt><trkpt lat="43.7583402" lon="12.6435341"><ele>393.0</ele><time>2026-05-02T07:37:07.311Z</time></trkpt><trkpt lat="43.7581963" lon="12.6433722"><ele>396.66666666666663</ele><time>2026-05-02T07:37:08.337Z</time></trkpt><trkpt lat="43.7580444" lon="12.6432207"><ele>400.3333333333333</ele><time>2026-05-02T07:37:09.312Z</time></trkpt><trkpt lat="43.7578895" lon="12.6430944"><ele>404.0</ele><time>2026-05-02T07:37:10.338Z</time></trkpt><trkpt lat="43.7577079" lon="12.6429998"><ele>404.0</ele><time>2026-05-02T07:37:11.307Z</time></trkpt><trkpt lat="43.7575225" lon="12.6429016"><ele>404.0</ele><time>2026-05-02T07:37:12.334Z</time></trkpt><trkpt lat="43.7573247" lon="12.6427989"><ele>404.0</ele><time>2026-05-02T07:37:13.331Z</time></trkpt><trkpt lat="43.7571332" lon="12.6426858"><ele>400.66666666666663</ele><time>2026-05-02T07:37:14.337Z</time></trkpt><trkpt lat="43.7569545" lon="12.6425757"><ele>397.33333333333337</ele><time>2026-05-02T07:37:15.311Z</time></trkpt><trkpt lat="43.756776" lon="12.6424636"><ele>394.0</ele><time>2026-05-02T07:37:16.337Z</time></trkpt><trkpt lat="43.7566012" lon="12.6423443"><ele>394.0</ele><time>2026-05-02T07:37:17.312Z</time></trkpt><trkpt lat="43.7564282" lon="12.6422277"><ele>394.0</ele><time>2026-05-02T07:37:18.31Z</time></trkpt><trkpt lat="43.7562556" lon="12.6421119"><ele>394.0</ele><time>2026-05-02T07:37:19.312Z</time></trkpt><trkpt lat="43.756085" lon="12.6419973"><ele>393.6666666666667</ele><time>2026-05-02T07:37:20.312Z</time></trkpt><trkpt lat="43.7559159" lon="12.6418753"><ele>393.33333333333337</ele><time>2026-05-02T07:37:21.313Z</time></trkpt><trkpt lat="43.7557532" lon="12.64175"><ele>393.0</ele><time>2026-05-02T07:37:22.311Z</time></trkpt><trkpt lat="43.7555814" lon="12.6415969"><ele>393.0</ele><time>2026-05-02T07:37:23.31Z</time></trkpt><trkpt lat="43.7554075" lon="12.6414907"><ele>393.0</ele><time>2026-05-02T07:37:24.312Z</time></trkpt><trkpt lat="43.7552189" lon="12.6414238"><ele>393.0</ele><time>2026-05-02T07:37:25.311Z</time></trkpt><trkpt lat="43.7550141" lon="12.6413639"><ele>395.0</ele><time>2026-05-02T07:37:26.309Z</time></trkpt><trkpt lat="43.7548187" lon="12.6412972"><ele>397.0</ele><time>2026-05-02T07:37:27.314Z</time></trkpt><trkpt lat="43.754628" lon="12.6412611"><ele>399.0</ele><time>2026-05-02T07:37:28.312Z</time></trkpt><trkpt lat="43.7544433" lon="12.6412115"><ele>397.33333333333337</ele><time>2026-05-02T07:37:29.331Z</time></trkpt><trkpt lat="43.7542907" lon="12.6410985"><ele>395.6666666666667</ele><time>2026-05-02T07:37:30.311Z</time></trkpt><trkpt lat="43.7541444" lon="12.6409687"><ele>394.0</ele><time>2026-05-02T07:37:31.312Z</time></trkpt><trkpt lat="43.7539922" lon="12.6408221"><ele>394.0</ele><time>2026-05-02T07:37:32.313Z</time></trkpt><trkpt lat="43.753842" lon="12.6406749"><ele>394.0</ele><time>2026-05-02T07:37:33.313Z</time></trkpt><trkpt lat="43.7536884" lon="12.6405196"><ele>394.0</ele><time>2026-05-02T07:37:34.311Z</time></trkpt><trkpt lat="43.7535228" lon="12.6403617"><ele>394.33333333333337</ele><time>2026-05-02T07:37:35.31Z</time></trkpt><trkpt lat="43.7533554" lon="12.6402007"><ele>394.66666666666663</ele><time>2026-05-02T07:37:36.337Z</time></trkpt><trkpt lat="43.7531789" lon="12.6400412"><ele>395.0</ele><time>2026-05-02T07:37:37.311Z</time></trkpt><trkpt lat="43.7530553" lon="12.6399252"><ele>395.0</ele><time>2026-05-02T07:37:38.334Z</time></trkpt><trkpt lat="43.7529052" lon="12.639798"><ele>395.0</ele><time>2026-05-02T07:37:39.332Z</time></trkpt><trkpt lat="43.7527582" lon="12.6397002"><ele>395.0</ele><time>2026-05-02T07:37:40.337Z</time></trkpt><trkpt lat="43.7526236" lon="12.6396225"><ele>393.8</ele><time>2026-05-02T07:37:41.31Z</time></trkpt><trkpt lat="43.7525324" lon="12.6396405"><ele>392.6</ele><time>2026-05-02T07:37:42.338Z</time></trkpt><trkpt lat="43.752427" lon="12.6396243"><ele>391.4</ele><time>2026-05-02T07:37:43.312Z</time></trkpt><trkpt lat="43.7523198" lon="12.6396014"><ele>390.2</ele><time>2026-05-02T07:37:44.312Z</time></trkpt><trkpt lat="43.7522157" lon="12.6395832"><ele>389.0</ele><time>2026-05-02T07:37:45.333Z</time></trkpt><trkpt lat="43.7521023" lon="12.6395519"><ele>389.0</ele><time>2026-05-02T07:37:46.338Z</time></trkpt><trkpt lat="43.7519712" lon="12.6395294"><ele>389.0</ele><time>2026-05-02T07:37:47.312Z</time></trkpt><trkpt lat="43.7518454" lon="12.6394966"><ele>389.0</ele><time>2026-05-02T07:37:48.311Z</time></trkpt><trkpt lat="43.7517083" lon="12.6394643"><ele>389.0</ele><time>2026-05-02T07:37:49.311Z</time></trkpt><trkpt lat="43.7515746" lon="12.6394467"><ele>387.5</ele><time>2026-05-02T07:37:50.312Z</time></trkpt><trkpt lat="43.7514425" lon="12.6394112"><ele>386.0</ele><time>2026-05-02T07:37:51.312Z</time></trkpt><trkpt lat="43.7513214" lon="12.6393778"><ele>384.5</ele><time>2026-05-02T07:37:52.313Z</time></trkpt><trkpt lat="43.7512112" lon="12.6393133"><ele>383.0</ele><time>2026-05-02T07:37:53.311Z</time></trkpt><trkpt lat="43.7510922" lon="12.639253"><ele>384.75</ele><time>2026-05-02T07:37:54.338Z</time></trkpt><trkpt lat="43.7509826" lon="12.6391722"><ele>386.5</ele><time>2026-05-02T07:37:55.311Z</time></trkpt><trkpt lat="43.7508711" lon="12.6390779"><ele>388.25</ele><time>2026-05-02T07:37:56.312Z</time></trkpt><trkpt lat="43.7507537" lon="12.6389689"><ele>390.0</ele><time>2026-05-02T07:37:57.333Z</time></trkpt><trkpt lat="43.7506323" lon="12.6388666"><ele>390.0</ele><time>2026-05-02T07:37:58.334Z</time></trkpt><trkpt lat="43.7504671" lon="12.6387315"><ele>390.0</ele><time>2026-05-02T07:37:59.324Z</time></trkpt><trkpt lat="43.7503095" lon="12.6385995"><ele>390.0</ele><time>2026-05-02T07:38:00.339Z</time></trkpt><trkpt lat="43.750144" lon="12.6384647"><ele>391.66666666666663</ele><time>2026-05-02T07:38:01.312Z</time></trkpt><trkpt lat="43.7499877" lon="12.6383674"><ele>393.3333333333333</ele><time>2026-05-02T07:38:02.312Z</time></trkpt><trkpt lat="43.7498313" lon="12.6383259"><ele>395.0</ele><time>2026-05-02T07:38:03.331Z</time></trkpt><trkpt lat="43.7496721" lon="12.6382886"><ele>395.0</ele><time>2026-05-02T07:38:04.312Z</time></trkpt><trkpt lat="43.7495333" lon="12.6382694"><ele>395.0</ele><time>2026-05-02T07:38:05.311Z</time></trkpt><trkpt lat="43.749364" lon="12.6384188"><ele>395.0</ele><time>2026-05-02T07:38:06.311Z</time></trkpt><trkpt lat="43.7492171" lon="12.6384423"><ele>397.66666666666663</ele><time>2026-05-02T07:38:07.313Z</time></trkpt><trkpt lat="43.7490549" lon="12.6384046"><ele>400.33333333333337</ele><time>2026-05-02T07:38:08.335Z</time></trkpt><trkpt lat="43.7489062" lon="12.6383734"><ele>403.0</ele><time>2026-05-02T07:38:09.33Z</time></trkpt><trkpt lat="43.7487426" lon="12.6382685"><ele>403.0</ele><time>2026-05-02T07:38:10.332Z</time></trkpt><trkpt lat="43.7485868" lon="12.6381188"><ele>403.0</ele><time>2026-05-02T07:38:11.336Z</time></trkpt><trkpt lat="43.7484244" lon="12.6380067"><ele>403.0</ele><time>2026-05-02T07:38:12.312Z</time></trkpt><trkpt lat="43.7482337" lon="12.6380363"><ele>403.0</ele><time>2026-05-02T07:38:13.337Z</time></trkpt><trkpt lat="43.748047" lon="12.6380517"><ele>403.0</ele><time>2026-05-02T07:38:14.338Z</time></trkpt><trkpt lat="43.7478505" lon="12.6380727"><ele>403.0</ele><time>2026-05-02T07:38:15.334Z</time></trkpt><trkpt lat="43.7476683" lon="12.6381008"><ele>404.0</ele><time>2026-05-02T07:38:16.332Z</time></trkpt><trkpt lat="43.7474912" lon="12.6381044"><ele>405.0</ele><time>2026-05-02T07:38:17.335Z</time></trkpt><trkpt lat="43.7473197" lon="12.6380185"><ele>406.0</ele><time>2026-05-02T07:38:18.331Z</time></trkpt><trkpt lat="43.7471252" lon="12.6379271"><ele>406.0</ele><time>2026-05-02T07:38:19.333Z</time></trkpt><trkpt lat="43.7469106" lon="12.6378109"><ele>406.0</ele><time>2026-05-02T07:38:20.336Z</time></trkpt><trkpt lat="43.7467046" lon="12.6376472"><ele>408.33333333333337</ele><time>2026-05-02T07:38:21.406Z</time></trkpt><trkpt lat="43.7465103" lon="12.6374991"><ele>410.66666666666663</ele><time>2026-05-02T07:38:22.322Z</time></trkpt><trkpt lat="43.7463319" lon="12.6373466"><ele>413.0</ele><time>2026-05-02T07:38:23.338Z</time></trkpt><trkpt lat="43.7461559" lon="12.6372226"><ele>412.66666666666663</ele><time>2026-05-02T07:38:24.333Z</time></trkpt><trkpt lat="43.7459799" lon="12.6371262"><ele>412.33333333333337</ele><time>2026-05-02T07:38:25.333Z</time></trkpt><trkpt lat="43.7458112" lon="12.6370473"><ele>412.0</ele><time>2026-05-02T07:38:26.337Z</time></trkpt><trkpt lat="43.7456475" lon="12.6369833"><ele>412.0</ele><time>2026-05-02T07:38:27.311Z</time></trkpt><trkpt lat="43.7454987" lon="12.6369252"><ele>412.0</ele><time>2026-05-02T07:38:28.335Z</time></trkpt><trkpt lat="43.7453652" lon="12.6368568"><ele>412.0</ele><time>2026-05-02T07:38:29.334Z</time></trkpt><trkpt lat="43.7452379" lon="12.6367706"><ele>412.0</ele><time>2026-05-02T07:38:30.337Z</time></trkpt><trkpt lat="43.7451183" lon="12.6366654"><ele>414.5</ele><time>2026-05-02T07:38:31.337Z</time></trkpt><trkpt lat="43.7450086" lon="12.6365441"><ele>417.0</ele><time>2026-05-02T07:38:32.312Z</time></trkpt><trkpt lat="43.7449033" lon="12.6364211"><ele>419.5</ele><time>2026-05-02T07:38:33.334Z</time></trkpt><trkpt lat="43.7447919" lon="12.6362842"><ele>422.0</ele><time>2026-05-02T07:38:34.336Z</time></trkpt><trkpt lat="43.7446771" lon="12.636149"><ele>422.66666666666663</ele><time>2026-05-02T07:38:35.331Z</time></trkpt><trkpt lat="43.7445592" lon="12.6360014"><ele>423.33333333333337</ele><time>2026-05-02T07:38:36.334Z</time></trkpt><trkpt lat="43.7444362" lon="12.6358534"><ele>424.0</ele><time>2026-05-02T07:38:37.312Z</time></trkpt><trkpt lat="43.7443083" lon="12.6357089"><ele>424.0</ele><time>2026-05-02T07:38:38.331Z</time></trkpt><trkpt lat="43.7441847" lon="12.6355739"><ele>424.0</ele><time>2026-05-02T07:38:39.333Z</time></trkpt><trkpt lat="43.7440635" lon="12.6354324"><ele>424.0</ele><time>2026-05-02T07:38:40.329Z</time></trkpt><trkpt lat="43.743946" lon="12.6352955"><ele>426.0</ele><time>2026-05-02T07:38:41.333Z</time></trkpt><trkpt lat="43.7438264" lon="12.6351572"><ele>428.0</ele><time>2026-05-02T07:38:42.337Z</time></trkpt><trkpt lat="43.7437139" lon="12.6350294"><ele>430.0</ele><time>2026-05-02T07:38:43.33Z</time></trkpt><trkpt lat="43.7436047" lon="12.6348974"><ele>432.0</ele><time>2026-05-02T07:38:44.334Z</time></trkpt><trkpt lat="43.743494" lon="12.6347589"><ele>432.0</ele><time>2026-05-02T07:38:45.335Z</time></trkpt><trkpt lat="43.7433775" lon="12.634616"><ele>432.0</ele><time>2026-05-02T07:38:46.335Z</time></trkpt><trkpt lat="43.7432571" lon="12.6344748"><ele>432.0</ele><time>2026-05-02T07:38:47.335Z</time></trkpt><trkpt lat="43.7431403" lon="12.634331"><ele>434.0</ele><time>2026-05-02T07:38:48.337Z</time></trkpt><trkpt lat="43.7430287" lon="12.6341775"><ele>436.0</ele><time>2026-05-02T07:38:49.332Z</time></trkpt><trkpt lat="43.7429205" lon="12.6340363"><ele>438.0</ele><time>2026-05-02T07:38:50.332Z</time></trkpt><trkpt lat="43.7428235" lon="12.6338974"><ele>440.0</ele><time>2026-05-02T07:38:51.341Z</time></trkpt><trkpt lat="43.742749" lon="12.6337438"><ele>439.75</ele><time>2026-05-02T07:38:52.332Z</time></trkpt><trkpt lat="43.7426928" lon="12.6335803"><ele>439.5</ele><time>2026-05-02T07:38:53.338Z</time></trkpt><trkpt lat="43.7426415" lon="12.6334136"><ele>439.25</ele><time>2026-05-02T07:38:54.333Z</time></trkpt><trkpt lat="43.7425878" lon="12.6332313"><ele>439.0</ele><time>2026-05-02T07:38:55.332Z</time></trkpt><trkpt lat="43.7425513" lon="12.6331211"><ele>439.0</ele><time>2026-05-02T07:38:56.339Z</time></trkpt><trkpt lat="43.7425116" lon="12.6329817"><ele>439.0</ele><time>2026-05-02T07:38:57.313Z</time></trkpt><trkpt lat="43.7424761" lon="12.6328463"><ele>439.0</ele><time>2026-05-02T07:38:58.335Z</time></trkpt><trkpt lat="43.7424346" lon="12.6327068"><ele>439.0</ele><time>2026-05-02T07:38:59.339Z</time></trkpt><trkpt lat="43.7424001" lon="12.632561"><ele>439.0</ele><time>2026-05-02T07:39:00.313Z</time></trkpt><trkpt lat="43.7423485" lon="12.6324205"><ele>438.25</ele><time>2026-05-02T07:39:01.333Z</time></trkpt><trkpt lat="43.7422917" lon="12.6322813"><ele>437.5</ele><time>2026-05-02T07:39:02.334Z</time></trkpt><trkpt lat="43.7422003" lon="12.6321698"><ele>436.75</ele><time>2026-05-02T07:39:03.333Z</time></trkpt><trkpt lat="43.7421014" lon="12.6320915"><ele>436.0</ele><time>2026-05-02T07:39:04.337Z</time></trkpt><trkpt lat="43.7419569" lon="12.6320362"><ele>437.6666666666667</ele><time>2026-05-02T07:39:05.333Z</time></trkpt><trkpt lat="43.7418135" lon="12.6319401"><ele>439.33333333333337</ele><time>2026-05-02T07:39:06.336Z</time></trkpt><trkpt lat="43.7416427" lon="12.631979"><ele>441.0</ele><time>2026-05-02T07:39:07.336Z</time></trkpt><trkpt lat="43.7415001" lon="12.6319487"><ele>443.0</ele><time>2026-05-02T07:39:08.33Z</time></trkpt><trkpt lat="43.7413598" lon="12.6319322"><ele>445.0</ele><time>2026-05-02T07:39:09.335Z</time></trkpt><trkpt lat="43.7412248" lon="12.6319138"><ele>447.0</ele><time>2026-05-02T07:39:10.339Z</time></trkpt><trkpt lat="43.7410989" lon="12.6318956"><ele>449.0</ele><time>2026-05-02T07:39:11.334Z</time></trkpt><trkpt lat="43.7409813" lon="12.6318764"><ele>449.0</ele><time>2026-05-02T07:39:12.336Z</time></trkpt><trkpt lat="43.7408751" lon="12.6318418"><ele>449.0</ele><time>2026-05-02T07:39:13.339Z</time></trkpt><trkpt lat="43.7407725" lon="12.6318195"><ele>449.0</ele><time>2026-05-02T07:39:14.333Z</time></trkpt><trkpt lat="43.7406597" lon="12.631803"><ele>449.0</ele><time>2026-05-02T07:39:15.337Z</time></trkpt><trkpt lat="43.7405416" lon="12.6317814"><ele>449.0</ele><time>2026-05-02T07:39:16.339Z</time></trkpt><trkpt lat="43.7404175" lon="12.6317622"><ele>449.0</ele><time>2026-05-02T07:39:17.332Z</time></trkpt><trkpt lat="43.7402816" lon="12.6317509"><ele>449.0</ele><time>2026-05-02T07:39:18.336Z</time></trkpt><trkpt lat="43.7401575" lon="12.6317089"><ele>449.0</ele><time>2026-05-02T07:39:19.339Z</time></trkpt><trkpt lat="43.7400262" lon="12.6316895"><ele>449.0</ele><time>2026-05-02T07:39:20.333Z</time></trkpt><trkpt lat="43.7398961" lon="12.6316481"><ele>448.5</ele><time>2026-05-02T07:39:21.332Z</time></trkpt><trkpt lat="43.7397522" lon="12.6316075"><ele>448.0</ele><time>2026-05-02T07:39:22.337Z</time></trkpt><trkpt lat="43.7396136" lon="12.6315427"><ele>447.5</ele><time>2026-05-02T07:39:23.333Z</time></trkpt><trkpt lat="43.7394766" lon="12.6314711"><ele>447.0</ele><time>2026-05-02T07:39:24.336Z</time></trkpt><trkpt lat="43.7393376" lon="12.6314095"><ele>447.0</ele><time>2026-05-02T07:39:25.335Z</time></trkpt><trkpt lat="43.7391895" lon="12.6313626"><ele>447.0</ele><time>2026-05-02T07:39:26.31Z</time></trkpt><trkpt lat="43.7390494" lon="12.6313131"><ele>447.0</ele><time>2026-05-02T07:39:27.337Z</time></trkpt><trkpt lat="43.7389098" lon="12.6313331"><ele>447.0</ele><time>2026-05-02T07:39:28.337Z</time></trkpt><trkpt lat="43.7387707" lon="12.6313611"><ele>447.0</ele><time>2026-05-02T07:39:29.332Z</time></trkpt><trkpt lat="43.7386417" lon="12.6314147"><ele>447.0</ele><time>2026-05-02T07:39:30.335Z</time></trkpt><trkpt lat="43.7385159" lon="12.631499"><ele>447.0</ele><time>2026-05-02T07:39:31.338Z</time></trkpt><trkpt lat="43.7383991" lon="12.6315825"><ele>447.0</ele><time>2026-05-02T07:39:32.333Z</time></trkpt><trkpt lat="43.7382853" lon="12.6316852"><ele>447.5</ele><time>2026-05-02T07:39:33.334Z</time></trkpt><trkpt lat="43.7381802" lon="12.6317726"><ele>448.0</ele><time>2026-05-02T07:39:34.337Z</time></trkpt><trkpt lat="43.7380569" lon="12.6318693"><ele>448.5</ele><time>2026-05-02T07:39:35.333Z</time></trkpt><trkpt lat="43.7379386" lon="12.6319751"><ele>449.0</ele><time>2026-05-02T07:39:36.338Z</time></trkpt><trkpt lat="43.7378151" lon="12.6320699"><ele>447.25</ele><time>2026-05-02T07:39:37.34Z</time></trkpt><trkpt lat="43.7376928" lon="12.6321711"><ele>445.5</ele><time>2026-05-02T07:39:38.331Z</time></trkpt><trkpt lat="43.7375572" lon="12.6322727"><ele>443.75</ele><time>2026-05-02T07:39:39.333Z</time></trkpt><trkpt lat="43.7374362" lon="12.6323509"><ele>442.0</ele><time>2026-05-02T07:39:40.336Z</time></trkpt><trkpt lat="43.7373363" lon="12.6323852"><ele>442.0</ele><time>2026-05-02T07:39:41.332Z</time></trkpt><trkpt lat="43.7371836" lon="12.6324488"><ele>442.0</ele><time>2026-05-02T07:39:42.339Z</time></trkpt><trkpt lat="43.7370413" lon="12.6324935"><ele>442.0</ele><time>2026-05-02T07:39:43.313Z</time></trkpt><trkpt lat="43.7368971" lon="12.6325305"><ele>442.25</ele><time>2026-05-02T07:39:44.338Z</time></trkpt><trkpt lat="43.7367634" lon="12.632555"><ele>442.5</ele><time>2026-05-02T07:39:45.337Z</time></trkpt><trkpt lat="43.7366142" lon="12.6325325"><ele>442.75</ele><time>2026-05-02T07:39:46.337Z</time></trkpt><trkpt lat="43.7364703" lon="12.6325289"><ele>443.0</ele><time>2026-05-02T07:39:47.334Z</time></trkpt><trkpt lat="43.7363333" lon="12.6325267"><ele>443.0</ele><time>2026-05-02T07:39:48.338Z</time></trkpt><trkpt lat="43.7361926" lon="12.6325075"><ele>443.0</ele><time>2026-05-02T07:39:49.309Z</time></trkpt><trkpt lat="43.7360571" lon="12.6324506"><ele>443.0</ele><time>2026-05-02T07:39:50.335Z</time></trkpt><trkpt lat="43.7359328" lon="12.6323987"><ele>443.0</ele><time>2026-05-02T07:39:51.338Z</time></trkpt><trkpt lat="43.735807" lon="12.6323404"><ele>442.5</ele><time>2026-05-02T07:39:52.313Z</time></trkpt><trkpt lat="43.7356832" lon="12.6322819"><ele>442.0</ele><time>2026-05-02T07:39:53.334Z</time></trkpt><trkpt lat="43.7355713" lon="12.6322029"><ele>441.5</ele><time>2026-05-02T07:39:54.337Z</time></trkpt><trkpt lat="43.7354523" lon="12.6321519"><ele>441.0</ele><time>2026-05-02T07:39:55.313Z</time></trkpt><trkpt lat="43.7353265" lon="12.6321067"><ele>440.25</ele><time>2026-05-02T07:39:56.336Z</time></trkpt><trkpt lat="43.7351991" lon="12.6320733"><ele>439.5</ele><time>2026-05-02T07:39:57.337Z</time></trkpt><trkpt lat="43.735077" lon="12.6320471"><ele>438.75</ele><time>2026-05-02T07:39:58.333Z</time></trkpt><trkpt lat="43.7349685" lon="12.6320324"><ele>438.0</ele><time>2026-05-02T07:39:59.336Z</time></trkpt><trkpt lat="43.7348712" lon="12.6320213"><ele>438.0</ele><time>2026-05-02T07:40:00.337Z</time></trkpt><trkpt lat="43.7347867" lon="12.6320101"><ele>438.0</ele><time>2026-05-02T07:40:01.334Z</time></trkpt><trkpt lat="43.7347115" lon="12.6319862"><ele>438.0</ele><time>2026-05-02T07:40:02.337Z</time></trkpt><trkpt lat="43.7346473" lon="12.6319472"><ele>438.0</ele><time>2026-05-02T07:40:03.337Z</time></trkpt><trkpt lat="43.734579" lon="12.6319045"><ele>438.0</ele><time>2026-05-02T07:40:04.332Z</time></trkpt><trkpt lat="43.7345086" lon="12.6318721"><ele>438.0</ele><time>2026-05-02T07:40:05.333Z</time></trkpt><trkpt lat="43.7344373" lon="12.6318529"><ele>437.79999999999995</ele><time>2026-05-02T07:40:06.338Z</time></trkpt><trkpt lat="43.7342827" lon="12.631887"><ele>437.59999999999997</ele><time>2026-05-02T07:40:08.333Z</time></trkpt><trkpt lat="43.734173" lon="12.6318936"><ele>437.40000000000003</ele><time>2026-05-02T07:40:09.333Z</time></trkpt><trkpt lat="43.7340864" lon="12.6318894"><ele>437.20000000000005</ele><time>2026-05-02T07:40:10.338Z</time></trkpt><trkpt lat="43.7339915" lon="12.6319057"><ele>437.0</ele><time>2026-05-02T07:40:11.34Z</time></trkpt><trkpt lat="43.7339113" lon="12.6319065"><ele>436.99999999999994</ele><time>2026-05-02T07:40:12.333Z</time></trkpt><trkpt lat="43.7338226" lon="12.6319184"><ele>437.0</ele><time>2026-05-02T07:40:13.41Z</time></trkpt><trkpt lat="43.7337313" lon="12.6319151"><ele>437.0</ele><time>2026-05-02T07:40:14.342Z</time></trkpt><trkpt lat="43.7336427" lon="12.6319473"><ele>437.0</ele><time>2026-05-02T07:40:15.333Z</time></trkpt><trkpt lat="43.7335484" lon="12.6319793"><ele>436.99999999999994</ele><time>2026-05-02T07:40:16.332Z</time></trkpt><trkpt lat="43.7334691" lon="12.6319939"><ele>437.0</ele><time>2026-05-02T07:40:17.312Z</time></trkpt><trkpt lat="43.7334022" lon="12.6319951"><ele>436.99999999999994</ele><time>2026-05-02T07:40:18.314Z</time></trkpt><trkpt lat="43.7333327" lon="12.6319934"><ele>437.0</ele><time>2026-05-02T07:40:19.332Z</time></trkpt><trkpt lat="43.7332581" lon="12.6319824"><ele>437.0</ele><time>2026-05-02T07:40:20.339Z</time></trkpt><trkpt lat="43.7331658" lon="12.631934"><ele>437.0</ele><time>2026-05-02T07:40:21.316Z</time></trkpt><trkpt lat="43.7330791" lon="12.6318981"><ele>436.99999999999994</ele><time>2026-05-02T07:40:22.338Z</time></trkpt><trkpt lat="43.7329913" lon="12.6318997"><ele>437.0</ele><time>2026-05-02T07:40:23.333Z</time></trkpt><trkpt lat="43.7328505" lon="12.631909"><ele>437.0</ele><time>2026-05-02T07:40:25.335Z</time></trkpt><trkpt lat="43.7327783" lon="12.6319152"><ele>437.00000000000006</ele><time>2026-05-02T07:40:26.334Z</time></trkpt><trkpt lat="43.7326807" lon="12.6319043"><ele>437.00000000000006</ele><time>2026-05-02T07:40:27.339Z</time></trkpt><trkpt lat="43.7325756" lon="12.6319072"><ele>437.0</ele><time>2026-05-02T07:40:28.316Z</time></trkpt><trkpt lat="43.7324738" lon="12.631917"><ele>437.0</ele><time>2026-05-02T07:40:29.337Z</time></trkpt><trkpt lat="43.7323589" lon="12.6319097"><ele>437.25</ele><time>2026-05-02T07:40:30.311Z</time></trkpt><trkpt lat="43.7322358" lon="12.6319277"><ele>437.5</ele><time>2026-05-02T07:40:31.312Z</time></trkpt><trkpt lat="43.7321049" lon="12.6319629"><ele>437.75</ele><time>2026-05-02T07:40:32.313Z</time></trkpt><trkpt lat="43.7319771" lon="12.6319972"><ele>438.0</ele><time>2026-05-02T07:40:33.339Z</time></trkpt><trkpt lat="43.7318508" lon="12.6320152"><ele>437.25</ele><time>2026-05-02T07:40:34.314Z</time></trkpt><trkpt lat="43.7317139" lon="12.6320526"><ele>436.5</ele><time>2026-05-02T07:40:35.336Z</time></trkpt><trkpt lat="43.7315747" lon="12.6320738"><ele>435.75</ele><time>2026-05-02T07:40:36.332Z</time></trkpt><trkpt lat="43.7314374" lon="12.6320774"><ele>435.0</ele><time>2026-05-02T07:40:37.336Z</time></trkpt><trkpt lat="43.7312965" lon="12.6320368"><ele>436.25</ele><time>2026-05-02T07:40:38.333Z</time></trkpt><trkpt lat="43.7312029" lon="12.6318942"><ele>437.5</ele><time>2026-05-02T07:40:39.338Z</time></trkpt><trkpt lat="43.7310714" lon="12.6317934"><ele>438.75</ele><time>2026-05-02T07:40:40.334Z</time></trkpt><trkpt lat="43.7309438" lon="12.6316609"><ele>440.0</ele><time>2026-05-02T07:40:41.339Z</time></trkpt><trkpt lat="43.7308198" lon="12.6315501"><ele>440.0</ele><time>2026-05-02T07:40:42.314Z</time></trkpt><trkpt lat="43.7306814" lon="12.6314334"><ele>440.0</ele><time>2026-05-02T07:40:43.313Z</time></trkpt><trkpt lat="43.7305385" lon="12.6313221"><ele>440.0</ele><time>2026-05-02T07:40:44.334Z</time></trkpt><trkpt lat="43.7303995" lon="12.6312241"><ele>440.0</ele><time>2026-05-02T07:40:45.338Z</time></trkpt><trkpt lat="43.7302592" lon="12.6311736"><ele>440.0</ele><time>2026-05-02T07:40:46.335Z</time></trkpt><trkpt lat="43.7301198" lon="12.6311008"><ele>440.0</ele><time>2026-05-02T07:40:47.339Z</time></trkpt><trkpt lat="43.7299991" lon="12.6310197"><ele>440.0</ele><time>2026-05-02T07:40:48.307Z</time></trkpt><trkpt lat="43.7298622" lon="12.6310053"><ele>441.0</ele><time>2026-05-02T07:40:49.335Z</time></trkpt><trkpt lat="43.7297261" lon="12.6310509"><ele>442.0</ele><time>2026-05-02T07:40:50.334Z</time></trkpt><trkpt lat="43.7295947" lon="12.6310994"><ele>443.0</ele><time>2026-05-02T07:40:51.339Z</time></trkpt><trkpt lat="43.7294894" lon="12.6312192"><ele>444.0</ele><time>2026-05-02T07:40:52.314Z</time></trkpt><trkpt lat="43.7293815" lon="12.6313228"><ele>444.4</ele><time>2026-05-02T07:40:53.335Z</time></trkpt><trkpt lat="43.7292798" lon="12.6314322"><ele>444.79999999999995</ele><time>2026-05-02T07:40:54.332Z</time></trkpt><trkpt lat="43.7292354" lon="12.6315333"><ele>445.20000000000005</ele><time>2026-05-02T07:40:55.337Z</time></trkpt><trkpt lat="43.7291831" lon="12.6316538"><ele>445.6</ele><time>2026-05-02T07:40:56.314Z</time></trkpt><trkpt lat="43.729137" lon="12.6317513"><ele>446.0</ele><time>2026-05-02T07:40:57.34Z</time></trkpt><trkpt lat="43.7291023" lon="12.6318601"><ele>447.0</ele><time>2026-05-02T07:40:58.309Z</time></trkpt><trkpt lat="43.7290979" lon="12.6320127"><ele>448.0</ele><time>2026-05-02T07:40:59.338Z</time></trkpt><trkpt lat="43.7290967" lon="12.6321631"><ele>449.0</ele><time>2026-05-02T07:41:00.334Z</time></trkpt><trkpt lat="43.7291241" lon="12.6322849"><ele>450.0</ele><time>2026-05-02T07:41:01.335Z</time></trkpt><trkpt lat="43.7291372" lon="12.6323798"><ele>451.0</ele><time>2026-05-02T07:41:02.313Z</time></trkpt><trkpt lat="43.7291452" lon="12.6324948"><ele>451.00000000000006</ele><time>2026-05-02T07:41:03.339Z</time></trkpt><trkpt lat="43.7291538" lon="12.6326172"><ele>451.0</ele><time>2026-05-02T07:41:04.313Z</time></trkpt><trkpt lat="43.7291663" lon="12.6327367"><ele>451.0</ele><time>2026-05-02T07:41:05.337Z</time></trkpt><trkpt lat="43.7291817" lon="12.6328322"><ele>451.0</ele><time>2026-05-02T07:41:06.312Z</time></trkpt><trkpt lat="43.7291916" lon="12.6329203"><ele>451.00000000000006</ele><time>2026-05-02T07:41:07.338Z</time></trkpt><trkpt lat="43.7291991" lon="12.6330319"><ele>451.0</ele><time>2026-05-02T07:41:09.314Z</time></trkpt><trkpt lat="43.7292079" lon="12.6331284"><ele>451.50000000000006</ele><time>2026-05-02T07:41:11.342Z</time></trkpt><trkpt lat="43.7292233" lon="12.6332407"><ele>452.0</ele><time>2026-05-02T07:41:13.337Z</time></trkpt><trkpt lat="43.7292331" lon="12.6333408"><ele>452.5</ele><time>2026-05-02T07:41:14.327Z</time></trkpt><trkpt lat="43.7292284" lon="12.6335092"><ele>453.0</ele><time>2026-05-02T07:41:16.312Z</time></trkpt><trkpt lat="43.7292346" lon="12.6336057"><ele>453.50000000000006</ele><time>2026-05-02T07:41:17.319Z</time></trkpt><trkpt lat="43.7292623" lon="12.633728"><ele>454.0</ele><time>2026-05-02T07:41:18.315Z</time></trkpt><trkpt lat="43.729288" lon="12.6338896"><ele>455.2</ele><time>2026-05-02T07:41:20.312Z</time></trkpt><trkpt lat="43.7292916" lon="12.633992"><ele>456.4</ele><time>2026-05-02T07:41:21.312Z</time></trkpt><trkpt lat="43.7293044" lon="12.6341311"><ele>457.6</ele><time>2026-05-02T07:41:22.317Z</time></trkpt><trkpt lat="43.7293254" lon="12.6342718"><ele>458.8</ele><time>2026-05-02T07:41:23.337Z</time></trkpt><trkpt lat="43.729329" lon="12.6343983"><ele>460.0</ele><time>2026-05-02T07:41:24.332Z</time></trkpt><trkpt lat="43.7293347" lon="12.6345239"><ele>460.4</ele><time>2026-05-02T07:41:25.335Z</time></trkpt><trkpt lat="43.7293319" lon="12.634648"><ele>460.8</ele><time>2026-05-02T07:41:26.334Z</time></trkpt><trkpt lat="43.7293312" lon="12.6347826"><ele>461.20000000000005</ele><time>2026-05-02T07:41:27.338Z</time></trkpt><trkpt lat="43.7293501" lon="12.6349334"><ele>461.6</ele><time>2026-05-02T07:41:28.313Z</time></trkpt><trkpt lat="43.7293638" lon="12.6351211"><ele>462.0</ele><time>2026-05-02T07:41:29.338Z</time></trkpt><trkpt lat="43.7294022" lon="12.6352894"><ele>456.40000000000003</ele><time>2026-05-02T07:41:30.333Z</time></trkpt><trkpt lat="43.7294004" lon="12.6354381"><ele>450.80000000000007</ele><time>2026-05-02T07:41:31.337Z</time></trkpt><trkpt lat="43.7294322" lon="12.6355761"><ele>445.2</ele><time>2026-05-02T07:41:32.313Z</time></trkpt><trkpt lat="43.7294408" lon="12.6357506"><ele>439.6</ele><time>2026-05-02T07:41:34.312Z</time></trkpt><trkpt lat="43.7294897" lon="12.6358811"><ele>434.0</ele><time>2026-05-02T07:41:36.313Z</time></trkpt><trkpt lat="43.7295872" lon="12.6360228"><ele>434.0</ele><time>2026-05-02T07:41:38.32Z</time></trkpt><trkpt lat="43.7296465" lon="12.6361208"><ele>434.0</ele><time>2026-05-02T07:41:39.339Z</time></trkpt><trkpt lat="43.7297332" lon="12.636213"><ele>434.0</ele><time>2026-05-02T07:41:40.313Z</time></trkpt><trkpt lat="43.7298014" lon="12.6363067"><ele>434.0</ele><time>2026-05-02T07:41:41.339Z</time></trkpt><trkpt lat="43.7298731" lon="12.6364036"><ele>434.0</ele><time>2026-05-02T07:41:42.314Z</time></trkpt><trkpt lat="43.729944" lon="12.6365055"><ele>434.0</ele><time>2026-05-02T07:41:43.339Z</time></trkpt><trkpt lat="43.7300051" lon="12.6366215"><ele>434.0</ele><time>2026-05-02T07:41:44.313Z</time></trkpt><trkpt lat="43.7300203" lon="12.6367661"><ele>434.0</ele><time>2026-05-02T07:41:45.331Z</time></trkpt><trkpt lat="43.7300224" lon="12.6368894"><ele>434.0</ele><time>2026-05-02T07:41:46.313Z</time></trkpt><trkpt lat="43.7300111" lon="12.6370157"><ele>434.0</ele><time>2026-05-02T07:41:47.337Z</time></trkpt><trkpt lat="43.729952" lon="12.6371086"><ele>431.6</ele><time>2026-05-02T07:41:48.315Z</time></trkpt><trkpt lat="43.7298684" lon="12.6371505"><ele>429.2</ele><time>2026-05-02T07:41:49.312Z</time></trkpt><trkpt lat="43.7297756" lon="12.6371735"><ele>426.8</ele><time>2026-05-02T07:41:50.334Z</time></trkpt><trkpt lat="43.7296679" lon="12.6371652"><ele>424.40000000000003</ele><time>2026-05-02T07:41:51.336Z</time></trkpt><trkpt lat="43.729558" lon="12.6371502"><ele>422.0</ele><time>2026-05-02T07:41:52.335Z</time></trkpt><trkpt lat="43.729438" lon="12.6371776"><ele>421.5</ele><time>2026-05-02T07:41:53.314Z</time></trkpt><trkpt lat="43.7293215" lon="12.6371976"><ele>421.0</ele><time>2026-05-02T07:41:54.313Z</time></trkpt><trkpt lat="43.7291987" lon="12.6372739"><ele>420.5</ele><time>2026-05-02T07:41:55.335Z</time></trkpt><trkpt lat="43.7290823" lon="12.6373322"><ele>420.0</ele><time>2026-05-02T07:41:56.335Z</time></trkpt><trkpt lat="43.728972" lon="12.6373862"><ele>420.0</ele><time>2026-05-02T07:41:57.337Z</time></trkpt><trkpt lat="43.7288554" lon="12.6374441"><ele>420.0</ele><time>2026-05-02T07:41:58.333Z</time></trkpt><trkpt lat="43.7287492" lon="12.6374965"><ele>420.0</ele><time>2026-05-02T07:41:59.34Z</time></trkpt><trkpt lat="43.7286462" lon="12.6375387"><ele>420.0</ele><time>2026-05-02T07:42:00.316Z</time></trkpt><trkpt lat="43.728551" lon="12.6375723"><ele>420.0</ele><time>2026-05-02T07:42:01.339Z</time></trkpt><trkpt lat="43.7284688" lon="12.6376014"><ele>419.6</ele><time>2026-05-02T07:42:02.312Z</time></trkpt><trkpt lat="43.7284055" lon="12.6376032"><ele>419.2</ele><time>2026-05-02T07:42:03.314Z</time></trkpt><trkpt lat="43.7282936" lon="12.6376129"><ele>418.79999999999995</ele><time>2026-05-02T07:42:05.339Z</time></trkpt><trkpt lat="43.7281918" lon="12.6376408"><ele>418.4</ele><time>2026-05-02T07:42:07.312Z</time></trkpt><trkpt lat="43.7281" lon="12.6376692"><ele>418.0</ele><time>2026-05-02T07:42:09.336Z</time></trkpt><trkpt lat="43.7280208" lon="12.6377354"><ele>415.33333333333337</ele><time>2026-05-02T07:42:11.338Z</time></trkpt><trkpt lat="43.7279726" lon="12.6378482"><ele>412.6666666666667</ele><time>2026-05-02T07:42:13.325Z</time></trkpt><trkpt lat="43.7279379" lon="12.6379252"><ele>410.0</ele><time>2026-05-02T07:42:14.334Z</time></trkpt><trkpt lat="43.7278594" lon="12.6380436"><ele>407.33333333333337</ele><time>2026-05-02T07:42:16.312Z</time></trkpt><trkpt lat="43.727786" lon="12.6381143"><ele>404.6666666666667</ele><time>2026-05-02T07:42:18.313Z</time></trkpt><trkpt lat="43.7277153" lon="12.6381592"><ele>402.0</ele><time>2026-05-02T07:42:21.313Z</time></trkpt><trkpt lat="43.7276542" lon="12.6382205"><ele>402.0</ele><time>2026-05-02T07:42:25.311Z</time></trkpt><trkpt lat="43.7275868" lon="12.6382574"><ele>402.0</ele><time>2026-05-02T07:42:29.338Z</time></trkpt><trkpt lat="43.7275232" lon="12.6383243"><ele>402.0</ele><time>2026-05-02T07:42:32.313Z</time></trkpt><trkpt lat="43.7276005" lon="12.6383259"><ele>402.0</ele><time>2026-05-02T07:42:35.338Z</time></trkpt><trkpt lat="43.7276382" lon="12.6382392"><ele>402.0</ele><time>2026-05-02T07:49:52.311Z</time></trkpt><trkpt lat="43.7276987" lon="12.6381894"><ele>402.0</ele><time>2026-05-02T07:49:54.313Z</time></trkpt><trkpt lat="43.7278017" lon="12.6380861"><ele>400.20000000000005</ele><time>2026-05-02T07:49:56.352Z</time></trkpt><trkpt lat="43.7278592" lon="12.6380395"><ele>398.4</ele><time>2026-05-02T07:49:57.312Z</time></trkpt><trkpt lat="43.727971" lon="12.6379891"><ele>396.6</ele><time>2026-05-02T07:50:08.332Z</time></trkpt><trkpt lat="43.728081" lon="12.6379649"><ele>394.79999999999995</ele><time>2026-05-02T07:50:10.335Z</time></trkpt><trkpt lat="43.7281596" lon="12.6379463"><ele>393.0</ele><time>2026-05-02T07:50:11.322Z</time></trkpt><trkpt lat="43.7282546" lon="12.6379145"><ele>393.0</ele><time>2026-05-02T07:50:12.311Z</time></trkpt><trkpt lat="43.7283899" lon="12.6379008"><ele>393.0</ele><time>2026-05-02T07:50:13.312Z</time></trkpt><trkpt lat="43.728479" lon="12.6378938"><ele>393.0</ele><time>2026-05-02T07:50:14.336Z</time></trkpt><trkpt lat="43.7285841" lon="12.637904"><ele>393.0</ele><time>2026-05-02T07:50:15.31Z</time></trkpt><trkpt lat="43.7286585" lon="12.6379075"><ele>393.0</ele><time>2026-05-02T07:50:16.311Z</time></trkpt><trkpt lat="43.7287754" lon="12.637911"><ele>392.3333333333333</ele><time>2026-05-02T07:50:18.311Z</time></trkpt><trkpt lat="43.7288738" lon="12.6379044"><ele>391.66666666666663</ele><time>2026-05-02T07:50:20.337Z</time></trkpt><trkpt lat="43.7289589" lon="12.6379026"><ele>391.0</ele><time>2026-05-02T07:50:22.312Z</time></trkpt><trkpt lat="43.7290696" lon="12.6378993"><ele>390.3333333333333</ele><time>2026-05-02T07:50:24.336Z</time></trkpt><trkpt lat="43.7291348" lon="12.6379212"><ele>389.66666666666663</ele><time>2026-05-02T07:50:27.313Z</time></trkpt><trkpt lat="43.7292012" lon="12.6379917"><ele>389.0</ele><time>2026-05-02T07:50:36.313Z</time></trkpt><trkpt lat="43.7292761" lon="12.6380795"><ele>389.0</ele><time>2026-05-02T07:50:37.311Z</time></trkpt><trkpt lat="43.7293775" lon="12.6381826"><ele>389.0</ele><time>2026-05-02T07:50:38.322Z</time></trkpt><trkpt lat="43.7295525" lon="12.638303"><ele>389.0</ele><time>2026-05-02T07:50:39.311Z</time></trkpt><trkpt lat="43.7298041" lon="12.6383671"><ele>389.0</ele><time>2026-05-02T07:50:40.31Z</time></trkpt><trkpt lat="43.7299675" lon="12.6384167"><ele>389.0</ele><time>2026-05-02T07:50:41.335Z</time></trkpt><trkpt lat="43.7301385" lon="12.6384659"><ele>389.0</ele><time>2026-05-02T07:50:42.312Z</time></trkpt><trkpt lat="43.7302812" lon="12.6384641"><ele>389.0</ele><time>2026-05-02T07:50:43.31Z</time></trkpt><trkpt lat="43.7304142" lon="12.6384545"><ele>389.0</ele><time>2026-05-02T07:50:44.313Z</time></trkpt><trkpt lat="43.7305055" lon="12.6384335"><ele>389.0</ele><time>2026-05-02T07:50:45.311Z</time></trkpt><trkpt lat="43.7305565" lon="12.6383685"><ele>389.0</ele><time>2026-05-02T07:50:46.311Z</time></trkpt><trkpt lat="43.7306363" lon="12.6383027"><ele>389.0</ele><time>2026-05-02T07:50:47.335Z</time></trkpt><trkpt lat="43.7307023" lon="12.6382079"><ele>388.99999999999994</ele><time>2026-05-02T07:50:48.335Z</time></trkpt><trkpt lat="43.7307614" lon="12.6381284"><ele>389.0</ele><time>2026-05-02T07:50:49.333Z</time></trkpt><trkpt lat="43.7308035" lon="12.6380167"><ele>389.0</ele><time>2026-05-02T07:50:50.332Z</time></trkpt><trkpt lat="43.7308372" lon="12.6379125"><ele>389.0</ele><time>2026-05-02T07:50:51.334Z</time></trkpt><trkpt lat="43.7308633" lon="12.6377999"><ele>388.99999999999994</ele><time>2026-05-02T07:50:52.311Z</time></trkpt><trkpt lat="43.730877" lon="12.6376889"><ele>389.0</ele><time>2026-05-02T07:50:53.334Z</time></trkpt><trkpt lat="43.7308803" lon="12.6375738"><ele>390.66666666666663</ele><time>2026-05-02T07:50:54.335Z</time></trkpt><trkpt lat="43.7308755" lon="12.6374588"><ele>392.3333333333333</ele><time>2026-05-02T07:50:55.329Z</time></trkpt><trkpt lat="43.730865" lon="12.637344"><ele>394.0</ele><time>2026-05-02T07:50:56.332Z</time></trkpt><trkpt lat="43.7308352" lon="12.6372309"><ele>395.66666666666663</ele><time>2026-05-02T07:50:57.337Z</time></trkpt><trkpt lat="43.7308114" lon="12.6371096"><ele>397.3333333333333</ele><time>2026-05-02T07:50:58.332Z</time></trkpt><trkpt lat="43.7307754" lon="12.6369938"><ele>399.0</ele><time>2026-05-02T07:50:59.332Z</time></trkpt><trkpt lat="43.7307364" lon="12.6368824"><ele>399.0</ele><time>2026-05-02T07:51:00.335Z</time></trkpt><trkpt lat="43.7307057" lon="12.6367517"><ele>399.0</ele><time>2026-05-02T07:51:01.332Z</time></trkpt><trkpt lat="43.7306729" lon="12.6366094"><ele>399.0</ele><time>2026-05-02T07:51:02.334Z</time></trkpt><trkpt lat="43.7306289" lon="12.6364742"><ele>399.0</ele><time>2026-05-02T07:51:03.331Z</time></trkpt><trkpt lat="43.7305946" lon="12.6363508"><ele>399.0</ele><time>2026-05-02T07:51:04.332Z</time></trkpt><trkpt lat="43.7305634" lon="12.6362527"><ele>399.0</ele><time>2026-05-02T07:51:05.335Z</time></trkpt><trkpt lat="43.730541" lon="12.6361669"><ele>399.0</ele><time>2026-05-02T07:51:06.331Z</time></trkpt><trkpt lat="43.7305671" lon="12.6360426"><ele>399.0</ele><time>2026-05-02T07:51:08.311Z</time></trkpt><trkpt lat="43.7306693" lon="12.6360483"><ele>399.0</ele><time>2026-05-02T07:51:10.416Z</time></trkpt><trkpt lat="43.7307204" lon="12.6361042"><ele>399.0</ele><time>2026-05-02T07:51:11.331Z</time></trkpt><trkpt lat="43.7307707" lon="12.6361809"><ele>399.0</ele><time>2026-05-02T07:51:12.311Z</time></trkpt><trkpt lat="43.7308277" lon="12.6362589"><ele>399.0</ele><time>2026-05-02T07:51:13.336Z</time></trkpt><trkpt lat="43.7308875" lon="12.6363396"><ele>399.0</ele><time>2026-05-02T07:51:14.331Z</time></trkpt><trkpt lat="43.7309413" lon="12.6364163"><ele>399.0</ele><time>2026-05-02T07:51:15.337Z</time></trkpt><trkpt lat="43.730978" lon="12.6364876"><ele>399.0</ele><time>2026-05-02T07:51:16.339Z</time></trkpt><trkpt lat="43.7310092" lon="12.6365688"><ele>399.0</ele><time>2026-05-02T07:51:17.311Z</time></trkpt><trkpt lat="43.7310424" lon="12.6366465"><ele>399.0</ele><time>2026-05-02T07:51:18.333Z</time></trkpt><trkpt lat="43.7310545" lon="12.6368054"><ele>393.3333333333333</ele><time>2026-05-02T07:51:20.333Z</time></trkpt><trkpt lat="43.7310889" lon="12.6369217"><ele>387.6666666666667</ele><time>2026-05-02T07:51:22.314Z</time></trkpt><trkpt lat="43.7311254" lon="12.6370317"><ele>382.0</ele><time>2026-05-02T07:51:25.331Z</time></trkpt><trkpt lat="43.7311831" lon="12.6371149"><ele>376.33333333333337</ele><time>2026-05-02T07:51:28.33Z</time></trkpt><trkpt lat="43.7311933" lon="12.6372163"><ele>370.6666666666667</ele><time>2026-05-02T07:51:32.335Z</time></trkpt><trkpt lat="43.7311624" lon="12.6373148"><ele>365.0</ele><time>2026-05-02T07:51:36.335Z</time></trkpt><trkpt lat="43.7312276" lon="12.6372595"><ele>365.0</ele><time>2026-05-02T07:51:41.335Z</time></trkpt><trkpt lat="43.7312141" lon="12.6371676"><ele>365.0</ele><time>2026-05-02T07:51:43.313Z</time></trkpt><trkpt lat="43.7311579" lon="12.6370735"><ele>365.0</ele><time>2026-05-02T07:51:46.334Z</time></trkpt><trkpt lat="43.7311089" lon="12.6370159"><ele>365.0</ele><time>2026-05-02T07:51:48.335Z</time></trkpt><trkpt lat="43.7310762" lon="12.6369123"><ele>365.0</ele><time>2026-05-02T07:51:50.332Z</time></trkpt><trkpt lat="43.7310585" lon="12.6367654"><ele>365.0</ele><time>2026-05-02T07:51:52.312Z</time></trkpt><trkpt lat="43.7310418" lon="12.6366039"><ele>369.28571428571433</ele><time>2026-05-02T07:51:54.312Z</time></trkpt><trkpt lat="43.73101" lon="12.6365144"><ele>373.57142857142856</ele><time>2026-05-02T07:51:55.315Z</time></trkpt><trkpt lat="43.7309802" lon="12.6364342"><ele>377.8571428571429</ele><time>2026-05-02T07:51:56.333Z</time></trkpt><trkpt lat="43.7309239" lon="12.6363671"><ele>382.14285714285717</ele><time>2026-05-02T07:51:57.336Z</time></trkpt><trkpt lat="43.730875" lon="12.6363027"><ele>386.42857142857144</ele><time>2026-05-02T07:51:58.331Z</time></trkpt><trkpt lat="43.7308255" lon="12.6362406"><ele>390.7142857142857</ele><time>2026-05-02T07:51:59.33Z</time></trkpt><trkpt lat="43.7307783" lon="12.6361804"><ele>395.0</ele><time>2026-05-02T07:52:00.332Z</time></trkpt><trkpt lat="43.7306842" lon="12.6360708"><ele>394.99999999999994</ele><time>2026-05-02T07:52:02.339Z</time></trkpt><trkpt lat="43.7305972" lon="12.6359849"><ele>395.0</ele><time>2026-05-02T07:52:04.331Z</time></trkpt><trkpt lat="43.7305338" lon="12.6359395"><ele>395.0</ele><time>2026-05-02T07:52:06.333Z</time></trkpt><trkpt lat="43.7304779" lon="12.6358954"><ele>395.0</ele><time>2026-05-02T07:52:09.332Z</time></trkpt><trkpt lat="43.7304236" lon="12.635761"><ele>394.99999999999994</ele><time>2026-05-02T07:52:11.333Z</time></trkpt><trkpt lat="43.7304034" lon="12.6356533"><ele>395.0</ele><time>2026-05-02T07:52:12.319Z</time></trkpt><trkpt lat="43.730381" lon="12.6354854"><ele>395.0</ele><time>2026-05-02T07:52:13.336Z</time></trkpt><trkpt lat="43.7303575" lon="12.6353529"><ele>395.0</ele><time>2026-05-02T07:52:14.327Z</time></trkpt><trkpt lat="43.7303307" lon="12.6351661"><ele>395.0</ele><time>2026-05-02T07:52:15.337Z</time></trkpt><trkpt lat="43.7303046" lon="12.6349635"><ele>395.0</ele><time>2026-05-02T07:52:16.312Z</time></trkpt><trkpt lat="43.7302792" lon="12.6347717"><ele>394.25</ele><time>2026-05-02T07:52:17.337Z</time></trkpt><trkpt lat="43.7302491" lon="12.6345792"><ele>393.5</ele><time>2026-05-02T07:52:18.334Z</time></trkpt><trkpt lat="43.7302235" lon="12.634388"><ele>392.75</ele><time>2026-05-02T07:52:19.335Z</time></trkpt><trkpt lat="43.7302011" lon="12.6342011"><ele>392.0</ele><time>2026-05-02T07:52:20.312Z</time></trkpt><trkpt lat="43.7301776" lon="12.6340268"><ele>397.16666666666663</ele><time>2026-05-02T07:52:21.311Z</time></trkpt><trkpt lat="43.7301539" lon="12.633874"><ele>402.3333333333333</ele><time>2026-05-02T07:52:22.311Z</time></trkpt><trkpt lat="43.7301386" lon="12.6337433"><ele>407.5</ele><time>2026-05-02T07:52:23.335Z</time></trkpt><trkpt lat="43.73013" lon="12.633633"><ele>412.66666666666663</ele><time>2026-05-02T07:52:24.313Z</time></trkpt><trkpt lat="43.7301509" lon="12.633533"><ele>417.8333333333333</ele><time>2026-05-02T07:52:25.336Z</time></trkpt><trkpt lat="43.7301782" lon="12.6334436"><ele>423.0</ele><time>2026-05-02T07:52:26.312Z</time></trkpt><trkpt lat="43.7302095" lon="12.6333301"><ele>423.2</ele><time>2026-05-02T07:52:27.311Z</time></trkpt><trkpt lat="43.7301747" lon="12.6332166"><ele>423.4</ele><time>2026-05-02T07:52:28.331Z</time></trkpt><trkpt lat="43.7301517" lon="12.6330971"><ele>423.59999999999997</ele><time>2026-05-02T07:52:29.335Z</time></trkpt><trkpt lat="43.7301224" lon="12.6329661"><ele>423.79999999999995</ele><time>2026-05-02T07:52:30.312Z</time></trkpt><trkpt lat="43.7301069" lon="12.6328367"><ele>424.0</ele><time>2026-05-02T07:52:31.336Z</time></trkpt><trkpt lat="43.7301094" lon="12.6327105"><ele>424.1666666666667</ele><time>2026-05-02T07:52:32.327Z</time></trkpt><trkpt lat="43.7301335" lon="12.632589"><ele>424.33333333333337</ele><time>2026-05-02T07:52:33.334Z</time></trkpt><trkpt lat="43.7301733" lon="12.6324909"><ele>424.5</ele><time>2026-05-02T07:52:34.31Z</time></trkpt><trkpt lat="43.7302278" lon="12.6324148"><ele>424.66666666666663</ele><time>2026-05-02T07:52:35.336Z</time></trkpt><trkpt lat="43.7302953" lon="12.6323596"><ele>424.8333333333333</ele><time>2026-05-02T07:52:36.312Z</time></trkpt><trkpt lat="43.730366" lon="12.6323216"><ele>425.0</ele><time>2026-05-02T07:52:37.308Z</time></trkpt><trkpt lat="43.7304519" lon="12.6323043"><ele>425.0</ele><time>2026-05-02T07:52:38.33Z</time></trkpt><trkpt lat="43.7305475" lon="12.6323135"><ele>425.0</ele><time>2026-05-02T07:52:39.333Z</time></trkpt><trkpt lat="43.7306499" lon="12.6323527"><ele>425.0</ele><time>2026-05-02T07:52:40.331Z</time></trkpt><trkpt lat="43.7307559" lon="12.6324105"><ele>425.0</ele><time>2026-05-02T07:52:41.334Z</time></trkpt><trkpt lat="43.7308651" lon="12.6325024"><ele>425.0</ele><time>2026-05-02T07:52:42.313Z</time></trkpt><trkpt lat="43.7309767" lon="12.6325955"><ele>427.5</ele><time>2026-05-02T07:52:43.335Z</time></trkpt><trkpt lat="43.7310909" lon="12.6326872"><ele>430.0</ele><time>2026-05-02T07:52:44.31Z</time></trkpt><trkpt lat="43.7312014" lon="12.6327651"><ele>432.5</ele><time>2026-05-02T07:52:45.334Z</time></trkpt><trkpt lat="43.7313149" lon="12.63282"><ele>435.0</ele><time>2026-05-02T07:52:46.31Z</time></trkpt><trkpt lat="43.7314204" lon="12.6328436"><ele>433.25</ele><time>2026-05-02T07:52:47.335Z</time></trkpt><trkpt lat="43.7315395" lon="12.6328557"><ele>431.5</ele><time>2026-05-02T07:52:48.311Z</time></trkpt><trkpt lat="43.7316529" lon="12.6328529"><ele>429.75</ele><time>2026-05-02T07:52:49.31Z</time></trkpt><trkpt lat="43.7317787" lon="12.6328482"><ele>428.0</ele><time>2026-05-02T07:52:50.312Z</time></trkpt><trkpt lat="43.7319029" lon="12.6328418"><ele>428.0</ele><time>2026-05-02T07:52:51.337Z</time></trkpt><trkpt lat="43.7320275" lon="12.63283"><ele>428.0</ele><time>2026-05-02T07:52:52.311Z</time></trkpt><trkpt lat="43.7321594" lon="12.6328241"><ele>428.0</ele><time>2026-05-02T07:52:53.335Z</time></trkpt><trkpt lat="43.7322967" lon="12.6328165"><ele>428.0</ele><time>2026-05-02T07:52:54.313Z</time></trkpt><trkpt lat="43.7324306" lon="12.6327986"><ele>430.5</ele><time>2026-05-02T07:52:55.336Z</time></trkpt><trkpt lat="43.7325581" lon="12.6327872"><ele>433.0</ele><time>2026-05-02T07:52:56.313Z</time></trkpt><trkpt lat="43.732677" lon="12.6327696"><ele>435.5</ele><time>2026-05-02T07:52:57.335Z</time></trkpt><trkpt lat="43.7327857" lon="12.6327412"><ele>438.0</ele><time>2026-05-02T07:52:58.312Z</time></trkpt><trkpt lat="43.732895" lon="12.6326934"><ele>438.0</ele><time>2026-05-02T07:52:59.335Z</time></trkpt><trkpt lat="43.7329708" lon="12.6326608"><ele>437.99999999999994</ele><time>2026-05-02T07:53:00.311Z</time></trkpt><trkpt lat="43.7330359" lon="12.6326023"><ele>437.99999999999994</ele><time>2026-05-02T07:53:01.336Z</time></trkpt><trkpt lat="43.7331257" lon="12.6325133"><ele>438.0</ele><time>2026-05-02T07:53:03.336Z</time></trkpt><trkpt lat="43.733195" lon="12.6324358"><ele>438.0</ele><time>2026-05-02T07:53:05.311Z</time></trkpt><trkpt lat="43.7332684" lon="12.6323394"><ele>438.0</ele><time>2026-05-02T07:53:07.32Z</time></trkpt><trkpt lat="43.733333" lon="12.6322514"><ele>437.99999999999994</ele><time>2026-05-02T07:53:09.335Z</time></trkpt><trkpt lat="43.7333745" lon="12.6321189"><ele>437.99999999999994</ele><time>2026-05-02T07:53:11.336Z</time></trkpt><trkpt lat="43.733343" lon="12.6319937"><ele>438.0</ele><time>2026-05-02T07:53:13.335Z</time></trkpt><trkpt lat="43.7332592" lon="12.6319254"><ele>438.0</ele><time>2026-05-02T07:53:15.334Z</time></trkpt><trkpt lat="43.7331491" lon="12.6319154"><ele>438.0</ele><time>2026-05-02T07:53:17.31Z</time></trkpt><trkpt lat="43.7330561" lon="12.6319139"><ele>438.0</ele><time>2026-05-02T07:53:19.312Z</time></trkpt><trkpt lat="43.7329938" lon="12.6318935"><ele>438.0</ele><time>2026-05-02T07:53:21.334Z</time></trkpt><trkpt lat="43.7329233" lon="12.6318702"><ele>438.0</ele><time>2026-05-02T07:53:25.337Z</time></trkpt><trkpt lat="43.7328441" lon="12.6319148"><ele>438.0</ele><time>2026-05-02T07:55:05.333Z</time></trkpt><trkpt lat="43.7327762" lon="12.6319234"><ele>438.0</ele><time>2026-05-02T07:55:07.312Z</time></trkpt><trkpt lat="43.732671" lon="12.6319203"><ele>438.0</ele><time>2026-05-02T07:55:08.337Z</time></trkpt><trkpt lat="43.7325935" lon="12.6319158"><ele>437.99999999999994</ele><time>2026-05-02T07:55:09.311Z</time></trkpt><trkpt lat="43.732525" lon="12.631907"><ele>437.99999999999994</ele><time>2026-05-02T07:55:10.335Z</time></trkpt><trkpt lat="43.7323956" lon="12.631906"><ele>438.0</ele><time>2026-05-02T07:55:12.335Z</time></trkpt><trkpt lat="43.7323089" lon="12.631916"><ele>438.0</ele><time>2026-05-02T07:55:13.332Z</time></trkpt><trkpt lat="43.7322174" lon="12.631939"><ele>438.0</ele><time>2026-05-02T07:55:14.335Z</time></trkpt><trkpt lat="43.7321188" lon="12.6319609"><ele>437.99999999999994</ele><time>2026-05-02T07:55:15.315Z</time></trkpt><trkpt lat="43.7320228" lon="12.631987"><ele>437.99999999999994</ele><time>2026-05-02T07:55:16.338Z</time></trkpt><trkpt lat="43.7319335" lon="12.6320005"><ele>438.0</ele><time>2026-05-02T07:55:17.311Z</time></trkpt><trkpt lat="43.7318453" lon="12.6320171"><ele>438.0</ele><time>2026-05-02T07:55:18.335Z</time></trkpt><trkpt lat="43.73175" lon="12.6320299"><ele>437.4</ele><time>2026-05-02T07:55:19.312Z</time></trkpt><trkpt lat="43.7316523" lon="12.6320443"><ele>436.79999999999995</ele><time>2026-05-02T07:55:20.335Z</time></trkpt><trkpt lat="43.7315505" lon="12.6320305"><ele>436.2</ele><time>2026-05-02T07:55:21.312Z</time></trkpt><trkpt lat="43.7314485" lon="12.6320116"><ele>435.6</ele><time>2026-05-02T07:55:22.336Z</time></trkpt><trkpt lat="43.7313436" lon="12.6319789"><ele>435.0</ele><time>2026-05-02T07:55:23.311Z</time></trkpt><trkpt lat="43.7312224" lon="12.6319224"><ele>436.66666666666663</ele><time>2026-05-02T07:55:24.336Z</time></trkpt><trkpt lat="43.731096" lon="12.6318402"><ele>438.3333333333333</ele><time>2026-05-02T07:55:25.312Z</time></trkpt><trkpt lat="43.7309659" lon="12.6317276"><ele>440.0</ele><time>2026-05-02T07:55:26.31Z</time></trkpt><trkpt lat="43.7308278" lon="12.6316069"><ele>440.0</ele><time>2026-05-02T07:55:27.312Z</time></trkpt><trkpt lat="43.7306868" lon="12.6314944"><ele>440.0</ele><time>2026-05-02T07:55:28.312Z</time></trkpt><trkpt lat="43.7305362" lon="12.6313668"><ele>440.0</ele><time>2026-05-02T07:55:29.331Z</time></trkpt><trkpt lat="43.7303916" lon="12.631274"><ele>440.0</ele><time>2026-05-02T07:55:30.335Z</time></trkpt><trkpt lat="43.730255" lon="12.6311906"><ele>440.0</ele><time>2026-05-02T07:55:31.312Z</time></trkpt><trkpt lat="43.7301288" lon="12.6311263"><ele>440.0</ele><time>2026-05-02T07:55:32.337Z</time></trkpt><trkpt lat="43.7299907" lon="12.6310879"><ele>440.0</ele><time>2026-05-02T07:55:33.311Z</time></trkpt><trkpt lat="43.7298527" lon="12.6310737"><ele>441.0</ele><time>2026-05-02T07:55:34.313Z</time></trkpt><trkpt lat="43.729719" lon="12.6310988"><ele>442.0</ele><time>2026-05-02T07:55:35.311Z</time></trkpt><trkpt lat="43.7295846" lon="12.6311417"><ele>443.0</ele><time>2026-05-02T07:55:36.312Z</time></trkpt><trkpt lat="43.7294676" lon="12.6312273"><ele>444.0</ele><time>2026-05-02T07:55:37.313Z</time></trkpt><trkpt lat="43.7293845" lon="12.6313266"><ele>444.3333333333333</ele><time>2026-05-02T07:55:38.312Z</time></trkpt><trkpt lat="43.7293067" lon="12.6314383"><ele>444.66666666666663</ele><time>2026-05-02T07:55:39.313Z</time></trkpt><trkpt lat="43.7292504" lon="12.6315508"><ele>445.0</ele><time>2026-05-02T07:55:40.336Z</time></trkpt><trkpt lat="43.7292114" lon="12.6316496"><ele>445.3333333333333</ele><time>2026-05-02T07:55:41.311Z</time></trkpt><trkpt lat="43.7291705" lon="12.6317471"><ele>445.66666666666663</ele><time>2026-05-02T07:55:42.312Z</time></trkpt><trkpt lat="43.7291379" lon="12.6318283"><ele>446.0</ele><time>2026-05-02T07:55:43.315Z</time></trkpt><trkpt lat="43.729122" lon="12.6319268"><ele>447.0</ele><time>2026-05-02T07:55:44.333Z</time></trkpt><trkpt lat="43.7291022" lon="12.6320302"><ele>448.0</ele><time>2026-05-02T07:55:45.312Z</time></trkpt><trkpt lat="43.7291062" lon="12.6321393"><ele>449.0</ele><time>2026-05-02T07:55:46.335Z</time></trkpt><trkpt lat="43.7291229" lon="12.6322798"><ele>450.0</ele><time>2026-05-02T07:55:47.311Z</time></trkpt><trkpt lat="43.7291569" lon="12.6324467"><ele>451.0</ele><time>2026-05-02T07:55:48.334Z</time></trkpt><trkpt lat="43.7291698" lon="12.6325863"><ele>451.0</ele><time>2026-05-02T07:55:49.33Z</time></trkpt><trkpt lat="43.7291705" lon="12.6327242"><ele>451.0</ele><time>2026-05-02T07:55:50.336Z</time></trkpt><trkpt lat="43.7291849" lon="12.6328442"><ele>451.0</ele><time>2026-05-02T07:55:51.313Z</time></trkpt><trkpt lat="43.7292055" lon="12.6329819"><ele>451.0</ele><time>2026-05-02T07:55:52.334Z</time></trkpt><trkpt lat="43.7292184" lon="12.6330921"><ele>451.0</ele><time>2026-05-02T07:55:53.312Z</time></trkpt><trkpt lat="43.7292194" lon="12.6332392"><ele>451.6</ele><time>2026-05-02T07:55:55.333Z</time></trkpt><trkpt lat="43.7292288" lon="12.6333988"><ele>452.20000000000005</ele><time>2026-05-02T07:55:57.331Z</time></trkpt><trkpt lat="43.7292358" lon="12.633503"><ele>452.79999999999995</ele><time>2026-05-02T07:55:58.318Z</time></trkpt><trkpt lat="43.729246" lon="12.6336174"><ele>453.4</ele><time>2026-05-02T07:55:59.313Z</time></trkpt><trkpt lat="43.7292538" lon="12.6337419"><ele>454.0</ele><time>2026-05-02T07:56:00.336Z</time></trkpt><trkpt lat="43.7292584" lon="12.6338771"><ele>455.2</ele><time>2026-05-02T07:56:01.311Z</time></trkpt><trkpt lat="43.7292743" lon="12.6340139"><ele>456.4</ele><time>2026-05-02T07:56:02.311Z</time></trkpt><trkpt lat="43.7293003" lon="12.6341744"><ele>457.6</ele><time>2026-05-02T07:56:03.333Z</time></trkpt><trkpt lat="43.7293125" lon="12.6343208"><ele>458.8</ele><time>2026-05-02T07:56:04.335Z</time></trkpt><trkpt lat="43.7293314" lon="12.6344575"><ele>460.0</ele><time>2026-05-02T07:56:05.332Z</time></trkpt><trkpt lat="43.7293433" lon="12.6346131"><ele>460.4</ele><time>2026-05-02T07:56:06.336Z</time></trkpt><trkpt lat="43.7293545" lon="12.6347275"><ele>460.8</ele><time>2026-05-02T07:56:07.332Z</time></trkpt><trkpt lat="43.7293664" lon="12.6348673"><ele>461.20000000000005</ele><time>2026-05-02T07:56:08.337Z</time></trkpt><trkpt lat="43.7293762" lon="12.6350287"><ele>461.6</ele><time>2026-05-02T07:56:09.332Z</time></trkpt><trkpt lat="43.7293949" lon="12.6351861"><ele>462.0</ele><time>2026-05-02T07:56:10.337Z</time></trkpt><trkpt lat="43.7294097" lon="12.6353389"><ele>434.0</ele><time>2026-05-02T07:56:11.312Z</time></trkpt><trkpt lat="43.7294223" lon="12.635475"><ele>434.0</ele><time>2026-05-02T07:56:12.336Z</time></trkpt><trkpt lat="43.7294352" lon="12.6355964"><ele>434.0</ele><time>2026-05-02T07:56:13.312Z</time></trkpt><trkpt lat="43.7294439" lon="12.6356964"><ele>434.0</ele><time>2026-05-02T07:56:14.336Z</time></trkpt><trkpt lat="43.7294544" lon="12.6358159"><ele>434.0</ele><time>2026-05-02T07:56:16.312Z</time></trkpt><trkpt lat="43.7294491" lon="12.6359068"><ele>434.0</ele><time>2026-05-02T07:56:18.339Z</time></trkpt></trkseg><trkseg><trkpt lat="43.7295201" lon="12.6359236"><ele>434.0</ele><time>2026-05-02T09:01:39.318Z</time></trkpt><trkpt lat="43.7295526" lon="12.6359983"><ele>434.0</ele><time>2026-05-02T09:01:55.316Z</time></trkpt><trkpt lat="43.7295374" lon="12.6358961"><ele>434.0</ele><time>2026-05-02T09:02:20.32Z</time></trkpt><trkpt lat="43.7294909" lon="12.6358168"><ele>434.0</ele><time>2026-05-02T09:02:23.319Z</time></trkpt><trkpt lat="43.7294459" lon="12.6356935"><ele>434.0</ele><time>2026-05-02T09:02:25.319Z</time></trkpt><trkpt lat="43.7294303" lon="12.6356042"><ele>434.0</ele><time>2026-05-02T09:02:26.318Z</time></trkpt><trkpt lat="43.7294251" lon="12.6355104"><ele>434.0</ele><time>2026-05-02T09:02:27.319Z</time></trkpt><trkpt lat="43.7294058" lon="12.6353573"><ele>433.0</ele><time>2026-05-02T09:02:29.317Z</time></trkpt><trkpt lat="43.7294014" lon="12.6352039"><ele>432.0</ele><time>2026-05-02T09:02:31.311Z</time></trkpt><trkpt lat="43.7293828" lon="12.6350661"><ele>431.0</ele><time>2026-05-02T09:02:33.319Z</time></trkpt><trkpt lat="43.7293646" lon="12.6349459"><ele>430.0</ele><time>2026-05-02T09:02:35.316Z</time></trkpt><trkpt lat="43.7293434" lon="12.6348189"><ele>429.0</ele><time>2026-05-02T09:02:37.314Z</time></trkpt><trkpt lat="43.7293334" lon="12.6346226"><ele>433.42857142857144</ele><time>2026-05-02T09:02:39.323Z</time></trkpt><trkpt lat="43.7293285" lon="12.6345059"><ele>437.8571428571429</ele><time>2026-05-02T09:02:40.32Z</time></trkpt><trkpt lat="43.7293223" lon="12.6343917"><ele>442.2857142857142</ele><time>2026-05-02T09:02:41.319Z</time></trkpt><trkpt lat="43.7293184" lon="12.6342963"><ele>446.71428571428567</ele><time>2026-05-02T09:02:42.319Z</time></trkpt><trkpt lat="43.7293132" lon="12.6342028"><ele>451.1428571428571</ele><time>2026-05-02T09:02:43.314Z</time></trkpt><trkpt lat="43.7293062" lon="12.6341112"><ele>455.5714285714285</ele><time>2026-05-02T09:02:44.318Z</time></trkpt><trkpt lat="43.7292902" lon="12.6340074"><ele>459.99999999999994</ele><time>2026-05-02T09:02:45.318Z</time></trkpt><trkpt lat="43.7292769" lon="12.6338873"><ele>460.00000000000006</ele><time>2026-05-02T09:02:46.318Z</time></trkpt><trkpt lat="43.729274" lon="12.6337797"><ele>460.0</ele><time>2026-05-02T09:02:47.317Z</time></trkpt><trkpt lat="43.7292689" lon="12.6336844"><ele>460.0</ele><time>2026-05-02T09:02:48.321Z</time></trkpt><trkpt lat="43.7292549" lon="12.6335945"><ele>460.0</ele><time>2026-05-02T09:02:49.315Z</time></trkpt><trkpt lat="43.7292304" lon="12.6334508"><ele>460.00000000000006</ele><time>2026-05-02T09:02:51.317Z</time></trkpt><trkpt lat="43.7291766" lon="12.633321"><ele>460.0</ele><time>2026-05-02T09:02:53.315Z</time></trkpt><trkpt lat="43.7291403" lon="12.633172"><ele>458.8</ele><time>2026-05-02T09:02:54.317Z</time></trkpt><trkpt lat="43.729103" lon="12.6330435"><ele>457.6</ele><time>2026-05-02T09:02:55.315Z</time></trkpt><trkpt lat="43.7290761" lon="12.6329119"><ele>456.4</ele><time>2026-05-02T09:02:56.32Z</time></trkpt><trkpt lat="43.7290449" lon="12.6327761"><ele>455.2</ele><time>2026-05-02T09:02:57.316Z</time></trkpt><trkpt lat="43.7290255" lon="12.6326567"><ele>454.0</ele><time>2026-05-02T09:02:58.314Z</time></trkpt><trkpt lat="43.7289852" lon="12.6325408"><ele>453.50000000000006</ele><time>2026-05-02T09:02:59.319Z</time></trkpt><trkpt lat="43.7289515" lon="12.6324345"><ele>453.0</ele><time>2026-05-02T09:03:00.317Z</time></trkpt><trkpt lat="43.7289224" lon="12.6323537"><ele>452.5</ele><time>2026-05-02T09:03:01.314Z</time></trkpt><trkpt lat="43.7288639" lon="12.6322198"><ele>452.0</ele><time>2026-05-02T09:03:03.317Z</time></trkpt><trkpt lat="43.7287946" lon="12.6321103"><ele>451.50000000000006</ele><time>2026-05-02T09:03:05.318Z</time></trkpt><trkpt lat="43.7287516" lon="12.6320373"><ele>451.0</ele><time>2026-05-02T09:03:07.314Z</time></trkpt><trkpt lat="43.7286705" lon="12.6320636"><ele>451.00000000000006</ele><time>2026-05-02T09:03:22.316Z</time></trkpt><trkpt lat="43.7286036" lon="12.6320417"><ele>451.0</ele><time>2026-05-02T09:03:37.314Z</time></trkpt><trkpt lat="43.7285033" lon="12.6319767"><ele>451.0</ele><time>2026-05-02T09:03:39.325Z</time></trkpt><trkpt lat="43.7284298" lon="12.631961"><ele>451.0</ele><time>2026-05-02T09:03:40.315Z</time></trkpt><trkpt lat="43.728345" lon="12.6319765"><ele>451.00000000000006</ele><time>2026-05-02T09:03:41.317Z</time></trkpt><trkpt lat="43.7282544" lon="12.6320086"><ele>451.0</ele><time>2026-05-02T09:03:42.316Z</time></trkpt><trkpt lat="43.7281709" lon="12.6320452"><ele>452.4</ele><time>2026-05-02T09:03:43.316Z</time></trkpt><trkpt lat="43.7280999" lon="12.6320787"><ele>453.8</ele><time>2026-05-02T09:03:44.323Z</time></trkpt><trkpt lat="43.727983" lon="12.6321275"><ele>455.19999999999993</ele><time>2026-05-02T09:03:46.317Z</time></trkpt><trkpt lat="43.7278602" lon="12.6321761"><ele>456.59999999999997</ele><time>2026-05-02T09:03:48.319Z</time></trkpt><trkpt lat="43.7277879" lon="12.6321989"><ele>458.0</ele><time>2026-05-02T09:03:49.319Z</time></trkpt><trkpt lat="43.7277226" lon="12.6322163"><ele>458.0</ele><time>2026-05-02T09:03:50.319Z</time></trkpt><trkpt lat="43.7276365" lon="12.6322502"><ele>457.99999999999994</ele><time>2026-05-02T09:03:51.318Z</time></trkpt><trkpt lat="43.7275423" lon="12.6322712"><ele>457.99999999999994</ele><time>2026-05-02T09:03:52.318Z</time></trkpt><trkpt lat="43.7274523" lon="12.6322585"><ele>458.0</ele><time>2026-05-02T09:03:53.319Z</time></trkpt><trkpt lat="43.7273771" lon="12.6321864"><ele>458.0</ele><time>2026-05-02T09:03:54.319Z</time></trkpt><trkpt lat="43.7273031" lon="12.6321189"><ele>458.0</ele><time>2026-05-02T09:03:55.318Z</time></trkpt><trkpt lat="43.7272281" lon="12.6320598"><ele>457.99999999999994</ele><time>2026-05-02T09:03:56.317Z</time></trkpt><trkpt lat="43.7271417" lon="12.6319435"><ele>457.99999999999994</ele><time>2026-05-02T09:03:57.318Z</time></trkpt><trkpt lat="43.7270601" lon="12.6318509"><ele>458.0</ele><time>2026-05-02T09:03:58.315Z</time></trkpt><trkpt lat="43.7269771" lon="12.6317533"><ele>458.0</ele><time>2026-05-02T09:03:59.312Z</time></trkpt><trkpt lat="43.7268834" lon="12.6316916"><ele>457.0</ele><time>2026-05-02T09:04:00.312Z</time></trkpt><trkpt lat="43.7268024" lon="12.6315975"><ele>456.0</ele><time>2026-05-02T09:04:01.313Z</time></trkpt><trkpt lat="43.7266999" lon="12.6314816"><ele>455.0</ele><time>2026-05-02T09:04:02.313Z</time></trkpt><trkpt lat="43.7266107" lon="12.6314135"><ele>454.0</ele><time>2026-05-02T09:04:03.313Z</time></trkpt><trkpt lat="43.7265495" lon="12.6312832"><ele>454.0</ele><time>2026-05-02T09:04:04.312Z</time></trkpt><trkpt lat="43.7264717" lon="12.6311594"><ele>454.0</ele><time>2026-05-02T09:04:05.319Z</time></trkpt><trkpt lat="43.7263465" lon="12.6309808"><ele>454.0</ele><time>2026-05-02T09:04:06.321Z</time></trkpt><trkpt lat="43.7262303" lon="12.6308469"><ele>452.75</ele><time>2026-05-02T09:04:07.32Z</time></trkpt><trkpt lat="43.7261203" lon="12.630715"><ele>451.5</ele><time>2026-05-02T09:04:08.316Z</time></trkpt><trkpt lat="43.7259946" lon="12.6305924"><ele>450.25</ele><time>2026-05-02T09:04:09.316Z</time></trkpt><trkpt lat="43.7258816" lon="12.630461"><ele>449.0</ele><time>2026-05-02T09:04:10.318Z</time></trkpt><trkpt lat="43.7257742" lon="12.6303249"><ele>445.25</ele><time>2026-05-02T09:04:11.316Z</time></trkpt><trkpt lat="43.725663" lon="12.6302059"><ele>441.5</ele><time>2026-05-02T09:04:12.314Z</time></trkpt><trkpt lat="43.725565" lon="12.630103"><ele>437.75</ele><time>2026-05-02T09:04:13.318Z</time></trkpt><trkpt lat="43.7254708" lon="12.63001"><ele>434.0</ele><time>2026-05-02T09:04:14.316Z</time></trkpt><trkpt lat="43.7253648" lon="12.6299484"><ele>434.0</ele><time>2026-05-02T09:04:15.316Z</time></trkpt><trkpt lat="43.7252632" lon="12.6299693"><ele>434.0</ele><time>2026-05-02T09:04:16.321Z</time></trkpt><trkpt lat="43.7251773" lon="12.630032"><ele>434.0</ele><time>2026-05-02T09:04:17.315Z</time></trkpt><trkpt lat="43.7250909" lon="12.6300778"><ele>434.0</ele><time>2026-05-02T09:04:18.317Z</time></trkpt><trkpt lat="43.7250081" lon="12.6301488"><ele>434.0</ele><time>2026-05-02T09:04:19.312Z</time></trkpt><trkpt lat="43.7250428" lon="12.630386"><ele>435.5</ele><time>2026-05-02T09:04:20.316Z</time></trkpt><trkpt lat="43.725021" lon="12.6305751"><ele>437.0</ele><time>2026-05-02T09:04:21.314Z</time></trkpt><trkpt lat="43.7249822" lon="12.6307415"><ele>438.5</ele><time>2026-05-02T09:04:22.314Z</time></trkpt><trkpt lat="43.7249438" lon="12.6308826"><ele>440.0</ele><time>2026-05-02T09:04:23.313Z</time></trkpt><trkpt lat="43.7248715" lon="12.6309871"><ele>440.0</ele><time>2026-05-02T09:04:24.313Z</time></trkpt><trkpt lat="43.7247673" lon="12.6310561"><ele>440.0</ele><time>2026-05-02T09:04:25.313Z</time></trkpt><trkpt lat="43.7246475" lon="12.6310848"><ele>440.0</ele><time>2026-05-02T09:04:26.316Z</time></trkpt><trkpt lat="43.7245063" lon="12.631077"><ele>440.0</ele><time>2026-05-02T09:04:27.312Z</time></trkpt><trkpt lat="43.724355" lon="12.6310434"><ele>438.66666666666663</ele><time>2026-05-02T09:04:28.312Z</time></trkpt><trkpt lat="43.7242031" lon="12.6310048"><ele>437.33333333333337</ele><time>2026-05-02T09:04:29.312Z</time></trkpt><trkpt lat="43.7240696" lon="12.6309204"><ele>436.0</ele><time>2026-05-02T09:04:30.312Z</time></trkpt><trkpt lat="43.7239296" lon="12.6308483"><ele>436.0</ele><time>2026-05-02T09:04:31.313Z</time></trkpt><trkpt lat="43.7238192" lon="12.6307394"><ele>436.0</ele><time>2026-05-02T09:04:32.311Z</time></trkpt><trkpt lat="43.723682" lon="12.6306553"><ele>436.0</ele><time>2026-05-02T09:04:33.311Z</time></trkpt><trkpt lat="43.7235505" lon="12.6305836"><ele>436.0</ele><time>2026-05-02T09:04:34.319Z</time></trkpt><trkpt lat="43.7233945" lon="12.6305605"><ele>438.33333333333337</ele><time>2026-05-02T09:04:35.313Z</time></trkpt><trkpt lat="43.7232561" lon="12.6305468"><ele>440.66666666666663</ele><time>2026-05-02T09:04:36.318Z</time></trkpt><trkpt lat="43.7230999" lon="12.6305148"><ele>443.0</ele><time>2026-05-02T09:04:37.315Z</time></trkpt><trkpt lat="43.7229487" lon="12.6304807"><ele>443.0</ele><time>2026-05-02T09:04:38.319Z</time></trkpt><trkpt lat="43.7228168" lon="12.6304106"><ele>443.0</ele><time>2026-05-02T09:04:39.32Z</time></trkpt><trkpt lat="43.7226702" lon="12.630348"><ele>443.0</ele><time>2026-05-02T09:04:40.315Z</time></trkpt><trkpt lat="43.7225353" lon="12.6301571"><ele>438.0</ele><time>2026-05-02T09:04:41.317Z</time></trkpt><trkpt lat="43.7223975" lon="12.6300187"><ele>433.0</ele><time>2026-05-02T09:04:42.316Z</time></trkpt><trkpt lat="43.7223304" lon="12.6298086"><ele>428.0</ele><time>2026-05-02T09:04:43.319Z</time></trkpt><trkpt lat="43.7222209" lon="12.6296576"><ele>428.0</ele><time>2026-05-02T09:04:44.315Z</time></trkpt><trkpt lat="43.7221426" lon="12.6295032"><ele>428.0</ele><time>2026-05-02T09:04:45.315Z</time></trkpt><trkpt lat="43.722054" lon="12.6293455"><ele>428.0</ele><time>2026-05-02T09:04:46.317Z</time></trkpt><trkpt lat="43.7219374" lon="12.6292602"><ele>428.0</ele><time>2026-05-02T09:04:47.318Z</time></trkpt><trkpt lat="43.7218046" lon="12.6292473"><ele>427.25</ele><time>2026-05-02T09:04:48.32Z</time></trkpt><trkpt lat="43.7216728" lon="12.6292296"><ele>426.5</ele><time>2026-05-02T09:04:49.311Z</time></trkpt><trkpt lat="43.7215449" lon="12.6291957"><ele>425.75</ele><time>2026-05-02T09:04:50.31Z</time></trkpt><trkpt lat="43.7214401" lon="12.6291742"><ele>425.0</ele><time>2026-05-02T09:04:51.312Z</time></trkpt><trkpt lat="43.7213289" lon="12.6291694"><ele>424.99999999999994</ele><time>2026-05-02T09:04:52.314Z</time></trkpt><trkpt lat="43.7211987" lon="12.6291467"><ele>425.0</ele><time>2026-05-02T09:04:54.312Z</time></trkpt><trkpt lat="43.7211303" lon="12.6291482"><ele>425.0</ele><time>2026-05-02T09:04:55.313Z</time></trkpt><trkpt lat="43.7210412" lon="12.6291843"><ele>425.0</ele><time>2026-05-02T09:04:57.316Z</time></trkpt><trkpt lat="43.7210022" lon="12.6292585"><ele>424.99999999999994</ele><time>2026-05-02T09:05:07.318Z</time></trkpt><trkpt lat="43.7210245" lon="12.6293707"><ele>425.0</ele><time>2026-05-02T09:05:09.319Z</time></trkpt><trkpt lat="43.7210655" lon="12.6295066"><ele>426.2</ele><time>2026-05-02T09:05:10.328Z</time></trkpt><trkpt lat="43.7210752" lon="12.6296037"><ele>427.4</ele><time>2026-05-02T09:05:11.313Z</time></trkpt><trkpt lat="43.7209594" lon="12.6295931"><ele>428.6</ele><time>2026-05-02T09:05:13.313Z</time></trkpt><trkpt lat="43.7208287" lon="12.6295116"><ele>429.8</ele><time>2026-05-02T09:05:15.315Z</time></trkpt><trkpt lat="43.7207249" lon="12.6294498"><ele>431.0</ele><time>2026-05-02T09:05:16.314Z</time></trkpt><trkpt lat="43.7206049" lon="12.6294063"><ele>428.0</ele><time>2026-05-02T09:05:17.315Z</time></trkpt><trkpt lat="43.7204807" lon="12.6293417"><ele>425.0</ele><time>2026-05-02T09:05:18.316Z</time></trkpt><trkpt lat="43.7203395" lon="12.6292783"><ele>422.0</ele><time>2026-05-02T09:05:19.315Z</time></trkpt><trkpt lat="43.7202103" lon="12.6292093"><ele>419.0</ele><time>2026-05-02T09:05:20.315Z</time></trkpt><trkpt lat="43.7200877" lon="12.6291402"><ele>417.6</ele><time>2026-05-02T09:05:21.315Z</time></trkpt><trkpt lat="43.7199737" lon="12.6290705"><ele>416.2</ele><time>2026-05-02T09:05:22.312Z</time></trkpt><trkpt lat="43.7198708" lon="12.6290304"><ele>414.8</ele><time>2026-05-02T09:05:23.318Z</time></trkpt><trkpt lat="43.7197828" lon="12.6289928"><ele>413.40000000000003</ele><time>2026-05-02T09:05:24.315Z</time></trkpt><trkpt lat="43.7196984" lon="12.629025"><ele>412.0</ele><time>2026-05-02T09:05:25.315Z</time></trkpt><trkpt lat="43.7196473" lon="12.6290797"><ele>412.0</ele><time>2026-05-02T09:05:26.311Z</time></trkpt><trkpt lat="43.7195795" lon="12.6291262"><ele>412.0</ele><time>2026-05-02T09:05:27.315Z</time></trkpt><trkpt lat="43.7195591" lon="12.6292522"><ele>412.0</ele><time>2026-05-02T09:05:28.315Z</time></trkpt><trkpt lat="43.7195195" lon="12.6293807"><ele>412.0</ele><time>2026-05-02T09:05:29.317Z</time></trkpt><trkpt lat="43.7195095" lon="12.6296417"><ele>406.75</ele><time>2026-05-02T09:05:30.315Z</time></trkpt><trkpt lat="43.7194856" lon="12.6298177"><ele>401.5</ele><time>2026-05-02T09:05:31.313Z</time></trkpt><trkpt lat="43.7194724" lon="12.6300203"><ele>396.25</ele><time>2026-05-02T09:05:32.317Z</time></trkpt><trkpt lat="43.7194522" lon="12.6302317"><ele>391.0</ele><time>2026-05-02T09:05:33.314Z</time></trkpt><trkpt lat="43.7193741" lon="12.6304213"><ele>389.0</ele><time>2026-05-02T09:05:34.318Z</time></trkpt><trkpt lat="43.7193181" lon="12.6305682"><ele>387.0</ele><time>2026-05-02T09:05:35.317Z</time></trkpt><trkpt lat="43.7192153" lon="12.6307094"><ele>385.0</ele><time>2026-05-02T09:05:36.317Z</time></trkpt><trkpt lat="43.7191227" lon="12.6308262"><ele>383.0</ele><time>2026-05-02T09:05:37.317Z</time></trkpt><trkpt lat="43.7190173" lon="12.6309381"><ele>383.0</ele><time>2026-05-02T09:05:38.312Z</time></trkpt><trkpt lat="43.7189235" lon="12.6309844"><ele>383.0</ele><time>2026-05-02T09:05:39.316Z</time></trkpt><trkpt lat="43.7188092" lon="12.6310378"><ele>383.0</ele><time>2026-05-02T09:05:40.311Z</time></trkpt><trkpt lat="43.7187002" lon="12.6311337"><ele>383.0</ele><time>2026-05-02T09:05:41.339Z</time></trkpt><trkpt lat="43.718663" lon="12.6313457"><ele>382.4</ele><time>2026-05-02T09:05:42.318Z</time></trkpt><trkpt lat="43.7186024" lon="12.6314621"><ele>381.79999999999995</ele><time>2026-05-02T09:05:43.318Z</time></trkpt><trkpt lat="43.7185341" lon="12.6315674"><ele>381.2</ele><time>2026-05-02T09:05:44.317Z</time></trkpt><trkpt lat="43.7184202" lon="12.6316292"><ele>380.6</ele><time>2026-05-02T09:05:45.311Z</time></trkpt><trkpt lat="43.7183645" lon="12.6317155"><ele>380.0</ele><time>2026-05-02T09:05:46.314Z</time></trkpt><trkpt lat="43.7182417" lon="12.6317836"><ele>380.0</ele><time>2026-05-02T09:05:47.34Z</time></trkpt><trkpt lat="43.7180305" lon="12.6317207"><ele>380.0</ele><time>2026-05-02T09:05:48.317Z</time></trkpt><trkpt lat="43.7178567" lon="12.6317625"><ele>380.0</ele><time>2026-05-02T09:05:49.317Z</time></trkpt><trkpt lat="43.7176946" lon="12.6317823"><ele>378.33333333333337</ele><time>2026-05-02T09:05:50.315Z</time></trkpt><trkpt lat="43.7175377" lon="12.6318506"><ele>376.6666666666667</ele><time>2026-05-02T09:05:51.32Z</time></trkpt><trkpt lat="43.7173741" lon="12.631876"><ele>375.0</ele><time>2026-05-02T09:05:52.313Z</time></trkpt><trkpt lat="43.7172309" lon="12.6319211"><ele>375.0</ele><time>2026-05-02T09:05:53.336Z</time></trkpt><trkpt lat="43.7170976" lon="12.6319729"><ele>375.0</ele><time>2026-05-02T09:05:54.316Z</time></trkpt><trkpt lat="43.7169637" lon="12.6318685"><ele>375.0</ele><time>2026-05-02T09:05:55.315Z</time></trkpt><trkpt lat="43.7168485" lon="12.6318171"><ele>375.0</ele><time>2026-05-02T09:05:56.316Z</time></trkpt><trkpt lat="43.716748" lon="12.631771"><ele>372.75</ele><time>2026-05-02T09:05:57.315Z</time></trkpt><trkpt lat="43.7166409" lon="12.6317768"><ele>370.5</ele><time>2026-05-02T09:05:58.315Z</time></trkpt><trkpt lat="43.7165397" lon="12.6317861"><ele>368.25</ele><time>2026-05-02T09:05:59.31Z</time></trkpt><trkpt lat="43.7164407" lon="12.6319036"><ele>366.0</ele><time>2026-05-02T09:06:00.314Z</time></trkpt><trkpt lat="43.7163236" lon="12.6320165"><ele>363.5</ele><time>2026-05-02T09:06:01.316Z</time></trkpt><trkpt lat="43.7162128" lon="12.6321158"><ele>361.0</ele><time>2026-05-02T09:06:02.317Z</time></trkpt><trkpt lat="43.7160978" lon="12.6322094"><ele>358.5</ele><time>2026-05-02T09:06:03.317Z</time></trkpt><trkpt lat="43.7159595" lon="12.6323649"><ele>356.0</ele><time>2026-05-02T09:06:04.315Z</time></trkpt><trkpt lat="43.7158208" lon="12.6325055"><ele>355.0</ele><time>2026-05-02T09:06:05.314Z</time></trkpt><trkpt lat="43.7156573" lon="12.6326863"><ele>354.0</ele><time>2026-05-02T09:06:06.313Z</time></trkpt><trkpt lat="43.7155318" lon="12.6329017"><ele>353.0</ele><time>2026-05-02T09:06:07.312Z</time></trkpt><trkpt lat="43.7155313" lon="12.6330894"><ele>352.75</ele><time>2026-05-02T09:06:08.313Z</time></trkpt><trkpt lat="43.7154422" lon="12.6332597"><ele>352.5</ele><time>2026-05-02T09:06:09.312Z</time></trkpt><trkpt lat="43.7153679" lon="12.6334167"><ele>352.25</ele><time>2026-05-02T09:06:10.316Z</time></trkpt><trkpt lat="43.7152814" lon="12.6335554"><ele>352.0</ele><time>2026-05-02T09:06:11.314Z</time></trkpt><trkpt lat="43.7151904" lon="12.6336509"><ele>352.0</ele><time>2026-05-02T09:06:12.314Z</time></trkpt><trkpt lat="43.7150844" lon="12.6337502"><ele>352.0</ele><time>2026-05-02T09:06:13.318Z</time></trkpt><trkpt lat="43.7149493" lon="12.6338322"><ele>352.0</ele><time>2026-05-02T09:06:14.313Z</time></trkpt><trkpt lat="43.7147905" lon="12.6338911"><ele>352.0</ele><time>2026-05-02T09:06:15.315Z</time></trkpt><trkpt lat="43.7146399" lon="12.6339457"><ele>352.0</ele><time>2026-05-02T09:06:16.315Z</time></trkpt><trkpt lat="43.7144959" lon="12.6339561"><ele>352.0</ele><time>2026-05-02T09:06:17.311Z</time></trkpt><trkpt lat="43.7143639" lon="12.6339659"><ele>352.0</ele><time>2026-05-02T09:06:18.314Z</time></trkpt><trkpt lat="43.7142543" lon="12.6339896"><ele>352.0</ele><time>2026-05-02T09:06:19.314Z</time></trkpt><trkpt lat="43.7141437" lon="12.6340179"><ele>350.66666666666663</ele><time>2026-05-02T09:06:20.312Z</time></trkpt><trkpt lat="43.7140138" lon="12.6341532"><ele>349.3333333333333</ele><time>2026-05-02T09:06:21.314Z</time></trkpt><trkpt lat="43.7138778" lon="12.6342612"><ele>348.0</ele><time>2026-05-02T09:06:22.324Z</time></trkpt><trkpt lat="43.7137515" lon="12.6343513"><ele>348.0</ele><time>2026-05-02T09:06:23.313Z</time></trkpt><trkpt lat="43.7136303" lon="12.6344264"><ele>348.0</ele><time>2026-05-02T09:06:24.317Z</time></trkpt><trkpt lat="43.7135135" lon="12.6344844"><ele>348.0</ele><time>2026-05-02T09:06:25.312Z</time></trkpt><trkpt lat="43.7134041" lon="12.6345304"><ele>348.0</ele><time>2026-05-02T09:06:26.311Z</time></trkpt><trkpt lat="43.7132695" lon="12.6345255"><ele>342.0</ele><time>2026-05-02T09:06:27.315Z</time></trkpt><trkpt lat="43.7130806" lon="12.6344342"><ele>336.0</ele><time>2026-05-02T09:06:28.319Z</time></trkpt><trkpt lat="43.7129267" lon="12.6343872"><ele>330.0</ele><time>2026-05-02T09:06:29.321Z</time></trkpt><trkpt lat="43.7127822" lon="12.6343488"><ele>328.75</ele><time>2026-05-02T09:06:30.318Z</time></trkpt><trkpt lat="43.7126439" lon="12.6342964"><ele>327.5</ele><time>2026-05-02T09:06:31.307Z</time></trkpt><trkpt lat="43.7125136" lon="12.6342473"><ele>326.25</ele><time>2026-05-02T09:06:32.315Z</time></trkpt><trkpt lat="43.7123633" lon="12.6341966"><ele>325.0</ele><time>2026-05-02T09:06:33.318Z</time></trkpt><trkpt lat="43.7122214" lon="12.6341451"><ele>325.0</ele><time>2026-05-02T09:06:34.316Z</time></trkpt><trkpt lat="43.7120716" lon="12.6341187"><ele>325.0</ele><time>2026-05-02T09:06:35.314Z</time></trkpt><trkpt lat="43.7119033" lon="12.634107"><ele>325.0</ele><time>2026-05-02T09:06:36.309Z</time></trkpt><trkpt lat="43.7117348" lon="12.6341098"><ele>322.3333333333333</ele><time>2026-05-02T09:06:37.317Z</time></trkpt><trkpt lat="43.7115685" lon="12.6341246"><ele>319.6666666666667</ele><time>2026-05-02T09:06:38.314Z</time></trkpt><trkpt lat="43.7114028" lon="12.6341422"><ele>317.0</ele><time>2026-05-02T09:06:39.317Z</time></trkpt><trkpt lat="43.7112425" lon="12.6341576"><ele>317.0</ele><time>2026-05-02T09:06:40.317Z</time></trkpt><trkpt lat="43.7110824" lon="12.6341956"><ele>317.0</ele><time>2026-05-02T09:06:41.319Z</time></trkpt><trkpt lat="43.7109307" lon="12.6341598"><ele>317.0</ele><time>2026-05-02T09:06:42.312Z</time></trkpt><trkpt lat="43.7107684" lon="12.6341679"><ele>314.75</ele><time>2026-05-02T09:06:43.336Z</time></trkpt><trkpt lat="43.7106331" lon="12.6340864"><ele>312.5</ele><time>2026-05-02T09:06:44.315Z</time></trkpt><trkpt lat="43.710483" lon="12.6340625"><ele>310.25</ele><time>2026-05-02T09:06:45.316Z</time></trkpt><trkpt lat="43.7103583" lon="12.6340487"><ele>308.0</ele><time>2026-05-02T09:06:46.316Z</time></trkpt><trkpt lat="43.7102261" lon="12.6340556"><ele>305.25</ele><time>2026-05-02T09:06:47.316Z</time></trkpt><trkpt lat="43.710104" lon="12.6340867"><ele>302.5</ele><time>2026-05-02T09:06:48.312Z</time></trkpt><trkpt lat="43.7099665" lon="12.634147"><ele>299.75</ele><time>2026-05-02T09:06:49.318Z</time></trkpt><trkpt lat="43.7098463" lon="12.6342268"><ele>297.0</ele><time>2026-05-02T09:06:50.32Z</time></trkpt><trkpt lat="43.7097128" lon="12.6342809"><ele>297.0</ele><time>2026-05-02T09:06:51.317Z</time></trkpt><trkpt lat="43.7095846" lon="12.6343064"><ele>297.0</ele><time>2026-05-02T09:06:52.318Z</time></trkpt><trkpt lat="43.7093987" lon="12.6341623"><ele>297.0</ele><time>2026-05-02T09:06:53.314Z</time></trkpt><trkpt lat="43.7092397" lon="12.6341034"><ele>295.3333333333333</ele><time>2026-05-02T09:06:54.315Z</time></trkpt><trkpt lat="43.7090714" lon="12.6340338"><ele>293.66666666666663</ele><time>2026-05-02T09:06:55.314Z</time></trkpt><trkpt lat="43.7089109" lon="12.6339698"><ele>292.0</ele><time>2026-05-02T09:06:56.32Z</time></trkpt><trkpt lat="43.7087466" lon="12.6338948"><ele>292.0</ele><time>2026-05-02T09:06:57.313Z</time></trkpt><trkpt lat="43.7085895" lon="12.6338109"><ele>292.0</ele><time>2026-05-02T09:06:58.323Z</time></trkpt><trkpt lat="43.7084512" lon="12.6337549"><ele>292.0</ele><time>2026-05-02T09:06:59.315Z</time></trkpt><trkpt lat="43.7083257" lon="12.6336986"><ele>292.0</ele><time>2026-05-02T09:07:00.315Z</time></trkpt><trkpt lat="43.7082086" lon="12.6336613"><ele>291.75</ele><time>2026-05-02T09:07:01.313Z</time></trkpt><trkpt lat="43.7080744" lon="12.6336722"><ele>291.5</ele><time>2026-05-02T09:07:02.313Z</time></trkpt><trkpt lat="43.7079539" lon="12.6336599"><ele>291.25</ele><time>2026-05-02T09:07:03.312Z</time></trkpt><trkpt lat="43.7078309" lon="12.6337076"><ele>291.0</ele><time>2026-05-02T09:07:04.312Z</time></trkpt><trkpt lat="43.7076797" lon="12.6338084"><ele>284.3333333333333</ele><time>2026-05-02T09:07:05.315Z</time></trkpt><trkpt lat="43.707529" lon="12.6339313"><ele>277.66666666666663</ele><time>2026-05-02T09:07:06.316Z</time></trkpt><trkpt lat="43.7073859" lon="12.6340474"><ele>271.0</ele><time>2026-05-02T09:07:07.315Z</time></trkpt><trkpt lat="43.7072492" lon="12.6341715"><ele>271.0</ele><time>2026-05-02T09:07:08.312Z</time></trkpt><trkpt lat="43.7071169" lon="12.6342798"><ele>271.0</ele><time>2026-05-02T09:07:09.316Z</time></trkpt><trkpt lat="43.7069947" lon="12.6343759"><ele>271.0</ele><time>2026-05-02T09:07:10.315Z</time></trkpt><trkpt lat="43.7068906" lon="12.6344675"><ele>271.0</ele><time>2026-05-02T09:07:11.316Z</time></trkpt><trkpt lat="43.7067946" lon="12.6345588"><ele>267.8</ele><time>2026-05-02T09:07:12.31Z</time></trkpt><trkpt lat="43.7067163" lon="12.6346601"><ele>264.6</ele><time>2026-05-02T09:07:13.316Z</time></trkpt><trkpt lat="43.7066702" lon="12.6347729"><ele>261.4</ele><time>2026-05-02T09:07:14.315Z</time></trkpt><trkpt lat="43.7066657" lon="12.6349051"><ele>258.2</ele><time>2026-05-02T09:07:15.316Z</time></trkpt><trkpt lat="43.7066583" lon="12.635032"><ele>255.0</ele><time>2026-05-02T09:07:16.313Z</time></trkpt><trkpt lat="43.7067038" lon="12.6352448"><ele>252.66666666666669</ele><time>2026-05-02T09:07:17.315Z</time></trkpt><trkpt lat="43.7067401" lon="12.6354571"><ele>250.33333333333334</ele><time>2026-05-02T09:07:18.314Z</time></trkpt><trkpt lat="43.706773" lon="12.6356598"><ele>248.0</ele><time>2026-05-02T09:07:19.317Z</time></trkpt><trkpt lat="43.7067993" lon="12.6358583"><ele>248.0</ele><time>2026-05-02T09:07:20.321Z</time></trkpt><trkpt lat="43.706818" lon="12.6360467"><ele>248.0</ele><time>2026-05-02T09:07:21.317Z</time></trkpt><trkpt lat="43.7067785" lon="12.6362135"><ele>248.0</ele><time>2026-05-02T09:07:22.321Z</time></trkpt><trkpt lat="43.7067203" lon="12.6363705"><ele>248.0</ele><time>2026-05-02T09:07:23.319Z</time></trkpt><trkpt lat="43.7066571" lon="12.6365092"><ele>247.25</ele><time>2026-05-02T09:07:24.316Z</time></trkpt><trkpt lat="43.7065681" lon="12.6366292"><ele>246.5</ele><time>2026-05-02T09:07:25.313Z</time></trkpt><trkpt lat="43.7064956" lon="12.6367601"><ele>245.75</ele><time>2026-05-02T09:07:26.312Z</time></trkpt><trkpt lat="43.7064409" lon="12.6369174"><ele>245.0</ele><time>2026-05-02T09:07:27.318Z</time></trkpt><trkpt lat="43.7063761" lon="12.6370628"><ele>243.25</ele><time>2026-05-02T09:07:28.319Z</time></trkpt><trkpt lat="43.7063501" lon="12.6372096"><ele>241.5</ele><time>2026-05-02T09:07:29.315Z</time></trkpt><trkpt lat="43.7063729" lon="12.637409"><ele>239.75</ele><time>2026-05-02T09:07:30.313Z</time></trkpt><trkpt lat="43.7063683" lon="12.6375821"><ele>238.0</ele><time>2026-05-02T09:07:31.316Z</time></trkpt><trkpt lat="43.7063628" lon="12.6377639"><ele>237.75</ele><time>2026-05-02T09:07:32.384Z</time></trkpt><trkpt lat="43.7062307" lon="12.6378473"><ele>237.5</ele><time>2026-05-02T09:07:33.316Z</time></trkpt><trkpt lat="43.7061489" lon="12.6379328"><ele>237.25</ele><time>2026-05-02T09:07:34.317Z</time></trkpt><trkpt lat="43.7060309" lon="12.6379661"><ele>237.0</ele><time>2026-05-02T09:07:35.319Z</time></trkpt><trkpt lat="43.7059361" lon="12.6380505"><ele>237.0</ele><time>2026-05-02T09:07:36.319Z</time></trkpt><trkpt lat="43.7058485" lon="12.638162"><ele>237.0</ele><time>2026-05-02T09:07:37.313Z</time></trkpt><trkpt lat="43.7057971" lon="12.6382964"><ele>237.0</ele><time>2026-05-02T09:07:38.313Z</time></trkpt><trkpt lat="43.7058021" lon="12.6384557"><ele>237.0</ele><time>2026-05-02T09:07:39.319Z</time></trkpt><trkpt lat="43.7057887" lon="12.6385614"><ele>237.0</ele><time>2026-05-02T09:07:40.315Z</time></trkpt><trkpt lat="43.7057463" lon="12.6386364"><ele>237.0</ele><time>2026-05-02T09:07:41.316Z</time></trkpt><trkpt lat="43.7056846" lon="12.6386762"><ele>237.0</ele><time>2026-05-02T09:07:42.315Z</time></trkpt><trkpt lat="43.7056086" lon="12.6387032"><ele>237.0</ele><time>2026-05-02T09:07:43.32Z</time></trkpt><trkpt lat="43.705506" lon="12.6386557"><ele>237.0</ele><time>2026-05-02T09:07:44.316Z</time></trkpt><trkpt lat="43.7053974" lon="12.6386013"><ele>237.0</ele><time>2026-05-02T09:07:45.314Z</time></trkpt><trkpt lat="43.7052441" lon="12.6383888"><ele>241.0</ele><time>2026-05-02T09:07:46.314Z</time></trkpt><trkpt lat="43.7051071" lon="12.6382846"><ele>245.0</ele><time>2026-05-02T09:07:47.316Z</time></trkpt><trkpt lat="43.7049707" lon="12.6381591"><ele>249.0</ele><time>2026-05-02T09:07:48.316Z</time></trkpt><trkpt lat="43.7048277" lon="12.638029"><ele>249.0</ele><time>2026-05-02T09:07:49.315Z</time></trkpt><trkpt lat="43.7046713" lon="12.6379327"><ele>249.0</ele><time>2026-05-02T09:07:50.314Z</time></trkpt><trkpt lat="43.7045169" lon="12.637812"><ele>249.0</ele><time>2026-05-02T09:07:51.315Z</time></trkpt><trkpt lat="43.7043553" lon="12.63773"><ele>253.0</ele><time>2026-05-02T09:07:52.312Z</time></trkpt><trkpt lat="43.7041993" lon="12.6376507"><ele>257.0</ele><time>2026-05-02T09:07:53.316Z</time></trkpt><trkpt lat="43.7040405" lon="12.6375948"><ele>261.0</ele><time>2026-05-02T09:07:54.317Z</time></trkpt><trkpt lat="43.7038712" lon="12.6375405"><ele>261.0</ele><time>2026-05-02T09:07:55.314Z</time></trkpt><trkpt lat="43.7037225" lon="12.637547"><ele>261.0</ele><time>2026-05-02T09:07:56.312Z</time></trkpt><trkpt lat="43.7035608" lon="12.6375068"><ele>261.0</ele><time>2026-05-02T09:07:57.31Z</time></trkpt><trkpt lat="43.7034543" lon="12.6374877"><ele>261.0</ele><time>2026-05-02T09:07:58.31Z</time></trkpt><trkpt lat="43.7033515" lon="12.6374053"><ele>264.5</ele><time>2026-05-02T09:07:59.316Z</time></trkpt><trkpt lat="43.703268" lon="12.6372936"><ele>268.0</ele><time>2026-05-02T09:08:00.316Z</time></trkpt><trkpt lat="43.7032167" lon="12.6371436"><ele>271.5</ele><time>2026-05-02T09:08:01.313Z</time></trkpt><trkpt lat="43.7031727" lon="12.636996"><ele>275.0</ele><time>2026-05-02T09:08:02.313Z</time></trkpt><trkpt lat="43.703122" lon="12.6368687"><ele>275.2</ele><time>2026-05-02T09:08:03.313Z</time></trkpt><trkpt lat="43.7030761" lon="12.6367504"><ele>275.4</ele><time>2026-05-02T09:08:04.311Z</time></trkpt><trkpt lat="43.7029899" lon="12.6366884"><ele>275.6</ele><time>2026-05-02T09:08:05.318Z</time></trkpt><trkpt lat="43.7028724" lon="12.6367358"><ele>275.8</ele><time>2026-05-02T09:08:06.319Z</time></trkpt><trkpt lat="43.70277" lon="12.6367817"><ele>276.0</ele><time>2026-05-02T09:08:07.316Z</time></trkpt><trkpt lat="43.7026494" lon="12.6368693"><ele>278.75</ele><time>2026-05-02T09:08:08.321Z</time></trkpt><trkpt lat="43.7025333" lon="12.6369768"><ele>281.5</ele><time>2026-05-02T09:08:09.319Z</time></trkpt><trkpt lat="43.7024122" lon="12.6370821"><ele>284.25</ele><time>2026-05-02T09:08:10.318Z</time></trkpt><trkpt lat="43.7022748" lon="12.6371744"><ele>287.0</ele><time>2026-05-02T09:08:11.322Z</time></trkpt><trkpt lat="43.7021354" lon="12.6372697"><ele>287.0</ele><time>2026-05-02T09:08:12.318Z</time></trkpt><trkpt lat="43.7020012" lon="12.6373517"><ele>287.0</ele><time>2026-05-02T09:08:13.32Z</time></trkpt><trkpt lat="43.7018761" lon="12.6374187"><ele>287.0</ele><time>2026-05-02T09:08:14.319Z</time></trkpt><trkpt lat="43.701755" lon="12.6374442"><ele>287.0</ele><time>2026-05-02T09:08:15.317Z</time></trkpt><trkpt lat="43.7016206" lon="12.6374199"><ele>293.0</ele><time>2026-05-02T09:08:16.32Z</time></trkpt><trkpt lat="43.7014711" lon="12.6373649"><ele>299.0</ele><time>2026-05-02T09:08:17.319Z</time></trkpt><trkpt lat="43.701314" lon="12.6373362"><ele>305.0</ele><time>2026-05-02T09:08:18.321Z</time></trkpt><trkpt lat="43.7011502" lon="12.6373592"><ele>304.6666666666667</ele><time>2026-05-02T09:08:19.313Z</time></trkpt><trkpt lat="43.700994" lon="12.6374078"><ele>304.3333333333333</ele><time>2026-05-02T09:08:20.316Z</time></trkpt><trkpt lat="43.7008367" lon="12.6375147"><ele>304.0</ele><time>2026-05-02T09:08:21.319Z</time></trkpt><trkpt lat="43.7006895" lon="12.6376459"><ele>304.0</ele><time>2026-05-02T09:08:22.32Z</time></trkpt><trkpt lat="43.7005314" lon="12.6377966"><ele>304.0</ele><time>2026-05-02T09:08:23.316Z</time></trkpt><trkpt lat="43.700377" lon="12.6379553"><ele>304.0</ele><time>2026-05-02T09:08:24.339Z</time></trkpt><trkpt lat="43.7002268" lon="12.6381056"><ele>308.0</ele><time>2026-05-02T09:08:25.316Z</time></trkpt><trkpt lat="43.7000914" lon="12.6382457"><ele>312.0</ele><time>2026-05-02T09:08:26.316Z</time></trkpt><trkpt lat="43.6999544" lon="12.6383793"><ele>316.0</ele><time>2026-05-02T09:08:27.313Z</time></trkpt><trkpt lat="43.6998105" lon="12.638509"><ele>316.0</ele><time>2026-05-02T09:08:28.316Z</time></trkpt><trkpt lat="43.6996903" lon="12.6386318"><ele>316.0</ele><time>2026-05-02T09:08:29.316Z</time></trkpt><trkpt lat="43.6996274" lon="12.6386991"><ele>316.0</ele><time>2026-05-02T09:08:30.316Z</time></trkpt><trkpt lat="43.6995328" lon="12.6387915"><ele>316.0</ele><time>2026-05-02T09:08:31.316Z</time></trkpt><trkpt lat="43.6994747" lon="12.6389104"><ele>316.0</ele><time>2026-05-02T09:08:32.31Z</time></trkpt><trkpt lat="43.6994282" lon="12.6390759"><ele>314.0</ele><time>2026-05-02T09:08:33.315Z</time></trkpt><trkpt lat="43.699391" lon="12.6392421"><ele>312.0</ele><time>2026-05-02T09:08:34.32Z</time></trkpt><trkpt lat="43.6993594" lon="12.6394223"><ele>310.0</ele><time>2026-05-02T09:08:35.324Z</time></trkpt><trkpt lat="43.6993274" lon="12.639611"><ele>308.0</ele><time>2026-05-02T09:08:36.321Z</time></trkpt><trkpt lat="43.6992887" lon="12.6397972"><ele>306.5</ele><time>2026-05-02T09:08:37.32Z</time></trkpt><trkpt lat="43.6992598" lon="12.639966"><ele>305.0</ele><time>2026-05-02T09:08:38.32Z</time></trkpt><trkpt lat="43.6992296" lon="12.6401327"><ele>303.5</ele><time>2026-05-02T09:08:39.32Z</time></trkpt><trkpt lat="43.6992105" lon="12.6403233"><ele>302.0</ele><time>2026-05-02T09:08:40.318Z</time></trkpt><trkpt lat="43.6992048" lon="12.6405009"><ele>302.0</ele><time>2026-05-02T09:08:41.321Z</time></trkpt><trkpt lat="43.699191" lon="12.640691"><ele>302.0</ele><time>2026-05-02T09:08:42.323Z</time></trkpt><trkpt lat="43.6991679" lon="12.640873"><ele>302.0</ele><time>2026-05-02T09:08:43.32Z</time></trkpt><trkpt lat="43.6991366" lon="12.6410486"><ele>302.0</ele><time>2026-05-02T09:08:44.32Z</time></trkpt><trkpt lat="43.6990785" lon="12.6412045"><ele>300.75</ele><time>2026-05-02T09:08:45.319Z</time></trkpt><trkpt lat="43.6989805" lon="12.6413142"><ele>299.5</ele><time>2026-05-02T09:08:46.318Z</time></trkpt><trkpt lat="43.6988738" lon="12.6414061"><ele>298.25</ele><time>2026-05-02T09:08:47.322Z</time></trkpt><trkpt lat="43.6987525" lon="12.6414712"><ele>297.0</ele><time>2026-05-02T09:08:48.319Z</time></trkpt><trkpt lat="43.6986347" lon="12.6414986"><ele>290.6666666666667</ele><time>2026-05-02T09:08:49.318Z</time></trkpt><trkpt lat="43.6984955" lon="12.6414339"><ele>284.33333333333337</ele><time>2026-05-02T09:08:50.318Z</time></trkpt><trkpt lat="43.6983451" lon="12.6413441"><ele>278.0</ele><time>2026-05-02T09:08:51.319Z</time></trkpt><trkpt lat="43.698187" lon="12.6412266"><ele>278.0</ele><time>2026-05-02T09:08:52.322Z</time></trkpt><trkpt lat="43.6980324" lon="12.6411439"><ele>278.0</ele><time>2026-05-02T09:08:53.322Z</time></trkpt><trkpt lat="43.6978827" lon="12.6410485"><ele>278.0</ele><time>2026-05-02T09:08:54.319Z</time></trkpt><trkpt lat="43.6977651" lon="12.6409686"><ele>276.0</ele><time>2026-05-02T09:08:55.317Z</time></trkpt><trkpt lat="43.6976606" lon="12.6409011"><ele>274.0</ele><time>2026-05-02T09:08:56.316Z</time></trkpt><trkpt lat="43.6975811" lon="12.6408286"><ele>272.0</ele><time>2026-05-02T09:08:57.318Z</time></trkpt><trkpt lat="43.6975382" lon="12.6407312"><ele>270.0</ele><time>2026-05-02T09:08:58.319Z</time></trkpt><trkpt lat="43.69753" lon="12.6406264"><ele>268.0</ele><time>2026-05-02T09:08:59.314Z</time></trkpt><trkpt lat="43.6975728" lon="12.6405542"><ele>266.0</ele><time>2026-05-02T09:09:00.32Z</time></trkpt><trkpt lat="43.6976532" lon="12.6405159"><ele>266.0</ele><time>2026-05-02T09:09:01.317Z</time></trkpt><trkpt lat="43.6977371" lon="12.6404857"><ele>266.0</ele><time>2026-05-02T09:09:02.31Z</time></trkpt><trkpt lat="43.6978413" lon="12.6404529"><ele>266.0</ele><time>2026-05-02T09:09:03.31Z</time></trkpt><trkpt lat="43.6979228" lon="12.6403877"><ele>266.0</ele><time>2026-05-02T09:09:04.313Z</time></trkpt><trkpt lat="43.6979867" lon="12.6402974"><ele>266.0</ele><time>2026-05-02T09:09:05.312Z</time></trkpt><trkpt lat="43.6980301" lon="12.6402303"><ele>266.0</ele><time>2026-05-02T09:09:06.31Z</time></trkpt><trkpt lat="43.6980398" lon="12.6401394"><ele>265.6</ele><time>2026-05-02T09:09:07.315Z</time></trkpt><trkpt lat="43.6980102" lon="12.6400294"><ele>265.20000000000005</ele><time>2026-05-02T09:09:08.312Z</time></trkpt><trkpt lat="43.697948" lon="12.6399352"><ele>264.79999999999995</ele><time>2026-05-02T09:09:09.316Z</time></trkpt><trkpt lat="43.6978477" lon="12.6398882"><ele>264.4</ele><time>2026-05-02T09:09:10.318Z</time></trkpt><trkpt lat="43.6977362" lon="12.639835"><ele>264.0</ele><time>2026-05-02T09:09:11.315Z</time></trkpt><trkpt lat="43.6975907" lon="12.6398229"><ele>264.0</ele><time>2026-05-02T09:09:12.315Z</time></trkpt><trkpt lat="43.6974637" lon="12.6397943"><ele>264.0</ele><time>2026-05-02T09:09:13.318Z</time></trkpt><trkpt lat="43.6973498" lon="12.6398079"><ele>264.0</ele><time>2026-05-02T09:09:14.312Z</time></trkpt><trkpt lat="43.6972518" lon="12.6398682"><ele>264.0</ele><time>2026-05-02T09:09:15.315Z</time></trkpt><trkpt lat="43.6971806" lon="12.6399459"><ele>264.0</ele><time>2026-05-02T09:09:16.316Z</time></trkpt><trkpt lat="43.6971017" lon="12.6400967"><ele>264.0</ele><time>2026-05-02T09:09:17.319Z</time></trkpt><trkpt lat="43.6969959" lon="12.6402283"><ele>264.0</ele><time>2026-05-02T09:09:18.314Z</time></trkpt><trkpt lat="43.6968665" lon="12.6403594"><ele>264.0</ele><time>2026-05-02T09:09:19.314Z</time></trkpt><trkpt lat="43.6967285" lon="12.6404711"><ele>261.0</ele><time>2026-05-02T09:09:20.315Z</time></trkpt><trkpt lat="43.6966014" lon="12.6405741"><ele>258.0</ele><time>2026-05-02T09:09:21.316Z</time></trkpt><trkpt lat="43.6964792" lon="12.6406718"><ele>255.0</ele><time>2026-05-02T09:09:22.316Z</time></trkpt><trkpt lat="43.6963679" lon="12.6407512"><ele>252.0</ele><time>2026-05-02T09:09:23.314Z</time></trkpt><trkpt lat="43.6962378" lon="12.6407865"><ele>250.66666666666669</ele><time>2026-05-02T09:09:24.315Z</time></trkpt><trkpt lat="43.6960854" lon="12.6407586"><ele>249.33333333333334</ele><time>2026-05-02T09:09:25.316Z</time></trkpt><trkpt lat="43.6959314" lon="12.6407153"><ele>248.0</ele><time>2026-05-02T09:09:26.312Z</time></trkpt><trkpt lat="43.6957882" lon="12.6406794"><ele>248.0</ele><time>2026-05-02T09:09:27.321Z</time></trkpt><trkpt lat="43.6956431" lon="12.6406512"><ele>248.0</ele><time>2026-05-02T09:09:28.317Z</time></trkpt><trkpt lat="43.6955047" lon="12.6406386"><ele>248.0</ele><time>2026-05-02T09:09:29.316Z</time></trkpt><trkpt lat="43.6953645" lon="12.6406354"><ele>248.0</ele><time>2026-05-02T09:09:30.315Z</time></trkpt><trkpt lat="43.6952328" lon="12.640642"><ele>247.0</ele><time>2026-05-02T09:09:31.317Z</time></trkpt><trkpt lat="43.6951006" lon="12.6406405"><ele>246.0</ele><time>2026-05-02T09:09:32.315Z</time></trkpt><trkpt lat="43.6949736" lon="12.6406294"><ele>245.0</ele><time>2026-05-02T09:09:33.313Z</time></trkpt><trkpt lat="43.6948468" lon="12.6406005"><ele>244.0</ele><time>2026-05-02T09:09:34.314Z</time></trkpt><trkpt lat="43.6947172" lon="12.6405581"><ele>244.0</ele><time>2026-05-02T09:09:35.313Z</time></trkpt><trkpt lat="43.6945836" lon="12.6405287"><ele>244.0</ele><time>2026-05-02T09:09:36.311Z</time></trkpt><trkpt lat="43.6944433" lon="12.6405141"><ele>244.0</ele><time>2026-05-02T09:09:37.314Z</time></trkpt><trkpt lat="43.6942992" lon="12.6405144"><ele>244.0</ele><time>2026-05-02T09:09:38.312Z</time></trkpt><trkpt lat="43.6941635" lon="12.6405347"><ele>243.0</ele><time>2026-05-02T09:09:39.308Z</time></trkpt><trkpt lat="43.6940379" lon="12.6405801"><ele>242.0</ele><time>2026-05-02T09:09:40.311Z</time></trkpt><trkpt lat="43.6939061" lon="12.6406334"><ele>241.0</ele><time>2026-05-02T09:09:41.315Z</time></trkpt><trkpt lat="43.6937772" lon="12.6406771"><ele>240.0</ele><time>2026-05-02T09:09:42.317Z</time></trkpt><trkpt lat="43.6936556" lon="12.640708"><ele>235.25</ele><time>2026-05-02T09:09:43.308Z</time></trkpt><trkpt lat="43.6935345" lon="12.6407315"><ele>230.5</ele><time>2026-05-02T09:09:44.313Z</time></trkpt><trkpt lat="43.6934237" lon="12.6407651"><ele>225.75</ele><time>2026-05-02T09:09:45.316Z</time></trkpt><trkpt lat="43.6933178" lon="12.6407979"><ele>221.0</ele><time>2026-05-02T09:09:46.315Z</time></trkpt><trkpt lat="43.6932296" lon="12.6409059"><ele>221.0</ele><time>2026-05-02T09:09:47.309Z</time></trkpt><trkpt lat="43.6931487" lon="12.6410277"><ele>221.0</ele><time>2026-05-02T09:09:48.312Z</time></trkpt><trkpt lat="43.6930635" lon="12.6411568"><ele>221.0</ele><time>2026-05-02T09:09:49.313Z</time></trkpt><trkpt lat="43.6929659" lon="12.6412797"><ele>221.0</ele><time>2026-05-02T09:09:50.311Z</time></trkpt><trkpt lat="43.6928702" lon="12.6414006"><ele>221.75</ele><time>2026-05-02T09:09:51.312Z</time></trkpt><trkpt lat="43.692778" lon="12.6415251"><ele>222.5</ele><time>2026-05-02T09:09:52.312Z</time></trkpt><trkpt lat="43.6926817" lon="12.6416447"><ele>223.25</ele><time>2026-05-02T09:09:53.315Z</time></trkpt><trkpt lat="43.6925807" lon="12.6417427"><ele>224.0</ele><time>2026-05-02T09:09:54.312Z</time></trkpt><trkpt lat="43.6924857" lon="12.6418327"><ele>223.25</ele><time>2026-05-02T09:09:55.311Z</time></trkpt><trkpt lat="43.6923912" lon="12.6419301"><ele>222.5</ele><time>2026-05-02T09:09:56.315Z</time></trkpt><trkpt lat="43.6923019" lon="12.6420328"><ele>221.75</ele><time>2026-05-02T09:09:57.314Z</time></trkpt><trkpt lat="43.6922177" lon="12.6421468"><ele>221.0</ele><time>2026-05-02T09:09:58.313Z</time></trkpt><trkpt lat="43.6921391" lon="12.6422571"><ele>221.00000000000003</ele><time>2026-05-02T09:09:59.314Z</time></trkpt><trkpt lat="43.6920691" lon="12.6423567"><ele>221.0</ele><time>2026-05-02T09:10:00.315Z</time></trkpt><trkpt lat="43.6919916" lon="12.6424366"><ele>221.0</ele><time>2026-05-02T09:10:01.316Z</time></trkpt><trkpt lat="43.6919162" lon="12.6424842"><ele>221.0</ele><time>2026-05-02T09:10:02.314Z</time></trkpt><trkpt lat="43.6918419" lon="12.6425034"><ele>221.00000000000003</ele><time>2026-05-02T09:10:03.317Z</time></trkpt><trkpt lat="43.6917686" lon="12.6425251"><ele>221.0</ele><time>2026-05-02T09:10:04.316Z</time></trkpt><trkpt lat="43.6917014" lon="12.6425295"><ele>217.8</ele><time>2026-05-02T09:10:05.316Z</time></trkpt><trkpt lat="43.691638" lon="12.6425489"><ele>214.60000000000002</ele><time>2026-05-02T09:10:06.312Z</time></trkpt><trkpt lat="43.6915875" lon="12.642649"><ele>211.4</ele><time>2026-05-02T09:10:08.317Z</time></trkpt><trkpt lat="43.6916013" lon="12.6428368"><ele>208.2</ele><time>2026-05-02T09:10:10.318Z</time></trkpt><trkpt lat="43.6916061" lon="12.6429586"><ele>205.0</ele><time>2026-05-02T09:10:11.322Z</time></trkpt><trkpt lat="43.691602" lon="12.6430766"><ele>204.66666666666666</ele><time>2026-05-02T09:10:12.319Z</time></trkpt><trkpt lat="43.6915899" lon="12.6431906"><ele>204.33333333333331</ele><time>2026-05-02T09:10:13.318Z</time></trkpt><trkpt lat="43.691579" lon="12.6433139"><ele>204.0</ele><time>2026-05-02T09:10:14.314Z</time></trkpt><trkpt lat="43.6915751" lon="12.6434314"><ele>203.66666666666669</ele><time>2026-05-02T09:10:15.315Z</time></trkpt><trkpt lat="43.691564" lon="12.6435369"><ele>203.33333333333334</ele><time>2026-05-02T09:10:16.314Z</time></trkpt><trkpt lat="43.6915491" lon="12.6436323"><ele>203.0</ele><time>2026-05-02T09:10:17.314Z</time></trkpt><trkpt lat="43.6915086" lon="12.6437891"><ele>203.0</ele><time>2026-05-02T09:10:19.317Z</time></trkpt><trkpt lat="43.6914292" lon="12.6438434"><ele>203.0</ele><time>2026-05-02T09:10:22.315Z</time></trkpt><trkpt lat="43.6913082" lon="12.6437449"><ele>203.0</ele><time>2026-05-02T09:10:24.315Z</time></trkpt><trkpt lat="43.6912254" lon="12.6436746"><ele>203.0</ele><time>2026-05-02T09:10:25.316Z</time></trkpt><trkpt lat="43.6911502" lon="12.6436153"><ele>203.0</ele><time>2026-05-02T09:10:26.32Z</time></trkpt><trkpt lat="43.6910427" lon="12.6434984"><ele>202.25</ele><time>2026-05-02T09:10:27.319Z</time></trkpt><trkpt lat="43.6909452" lon="12.6434063"><ele>201.5</ele><time>2026-05-02T09:10:28.319Z</time></trkpt><trkpt lat="43.6908401" lon="12.6433001"><ele>200.75</ele><time>2026-05-02T09:10:29.317Z</time></trkpt><trkpt lat="43.6907701" lon="12.6431299"><ele>200.0</ele><time>2026-05-02T09:10:30.319Z</time></trkpt><trkpt lat="43.6906858" lon="12.6429954"><ele>200.0</ele><time>2026-05-02T09:10:31.319Z</time></trkpt><trkpt lat="43.6905952" lon="12.6428627"><ele>200.0</ele><time>2026-05-02T09:10:32.315Z</time></trkpt><trkpt lat="43.6905088" lon="12.6427267"><ele>200.0</ele><time>2026-05-02T09:10:33.318Z</time></trkpt><trkpt lat="43.6904152" lon="12.6426406"><ele>200.0</ele><time>2026-05-02T09:10:34.321Z</time></trkpt><trkpt lat="43.6903145" lon="12.6425645"><ele>201.0</ele><time>2026-05-02T09:10:35.319Z</time></trkpt><trkpt lat="43.6902015" lon="12.6425076"><ele>202.0</ele><time>2026-05-02T09:10:36.318Z</time></trkpt><trkpt lat="43.6900671" lon="12.6425272"><ele>203.0</ele><time>2026-05-02T09:10:37.317Z</time></trkpt><trkpt lat="43.6899512" lon="12.6425606"><ele>204.0</ele><time>2026-05-02T09:10:38.316Z</time></trkpt><trkpt lat="43.6898361" lon="12.642605"><ele>204.0</ele><time>2026-05-02T09:10:39.325Z</time></trkpt><trkpt lat="43.6897013" lon="12.6426563"><ele>204.0</ele><time>2026-05-02T09:10:40.315Z</time></trkpt><trkpt lat="43.6895947" lon="12.6426725"><ele>204.0</ele><time>2026-05-02T09:10:41.319Z</time></trkpt><trkpt lat="43.6894731" lon="12.6426867"><ele>204.0</ele><time>2026-05-02T09:10:42.318Z</time></trkpt><trkpt lat="43.6893637" lon="12.642695"><ele>203.0</ele><time>2026-05-02T09:10:43.319Z</time></trkpt><trkpt lat="43.6892443" lon="12.6427035"><ele>202.0</ele><time>2026-05-02T09:10:44.318Z</time></trkpt><trkpt lat="43.6891301" lon="12.642709"><ele>201.0</ele><time>2026-05-02T09:10:45.319Z</time></trkpt><trkpt lat="43.6890216" lon="12.6427096"><ele>200.0</ele><time>2026-05-02T09:10:46.313Z</time></trkpt><trkpt lat="43.6889141" lon="12.6427092"><ele>200.0</ele><time>2026-05-02T09:10:47.312Z</time></trkpt><trkpt lat="43.6888143" lon="12.6427166"><ele>200.0</ele><time>2026-05-02T09:10:48.317Z</time></trkpt><trkpt lat="43.6887198" lon="12.6427201"><ele>200.0</ele><time>2026-05-02T09:10:49.318Z</time></trkpt><trkpt lat="43.6886265" lon="12.6427269"><ele>200.0</ele><time>2026-05-02T09:10:50.317Z</time></trkpt><trkpt lat="43.6885316" lon="12.6427332"><ele>200.0</ele><time>2026-05-02T09:10:51.316Z</time></trkpt><trkpt lat="43.6884416" lon="12.6427355"><ele>200.0</ele><time>2026-05-02T09:10:52.316Z</time></trkpt><trkpt lat="43.6883507" lon="12.642738"><ele>200.0</ele><time>2026-05-02T09:10:53.314Z</time></trkpt><trkpt lat="43.6882582" lon="12.6427405"><ele>200.0</ele><time>2026-05-02T09:10:54.32Z</time></trkpt><trkpt lat="43.6881629" lon="12.6427458"><ele>200.0</ele><time>2026-05-02T09:10:55.318Z</time></trkpt><trkpt lat="43.6880584" lon="12.6427519"><ele>200.0</ele><time>2026-05-02T09:10:56.315Z</time></trkpt><trkpt lat="43.6879454" lon="12.6427585"><ele>200.0</ele><time>2026-05-02T09:10:57.316Z</time></trkpt><trkpt lat="43.6878228" lon="12.6427693"><ele>200.0</ele><time>2026-05-02T09:10:58.318Z</time></trkpt><trkpt lat="43.6876939" lon="12.6427757"><ele>200.0</ele><time>2026-05-02T09:10:59.318Z</time></trkpt><trkpt lat="43.6875635" lon="12.6427861"><ele>200.0</ele><time>2026-05-02T09:11:00.317Z</time></trkpt><trkpt lat="43.6874339" lon="12.642794"><ele>200.0</ele><time>2026-05-02T09:11:01.316Z</time></trkpt><trkpt lat="43.6873042" lon="12.642796"><ele>200.0</ele><time>2026-05-02T09:11:02.317Z</time></trkpt><trkpt lat="43.6871734" lon="12.6428049"><ele>200.0</ele><time>2026-05-02T09:11:03.315Z</time></trkpt><trkpt lat="43.6870403" lon="12.6428158"><ele>200.0</ele><time>2026-05-02T09:11:04.318Z</time></trkpt><trkpt lat="43.6869033" lon="12.6428253"><ele>200.0</ele><time>2026-05-02T09:11:05.321Z</time></trkpt><trkpt lat="43.6867651" lon="12.6428327"><ele>200.0</ele><time>2026-05-02T09:11:06.319Z</time></trkpt><trkpt lat="43.6866307" lon="12.6428495"><ele>200.0</ele><time>2026-05-02T09:11:07.321Z</time></trkpt><trkpt lat="43.6864957" lon="12.6428805"><ele>200.0</ele><time>2026-05-02T09:11:08.317Z</time></trkpt><trkpt lat="43.6863599" lon="12.6429143"><ele>200.0</ele><time>2026-05-02T09:11:09.315Z</time></trkpt><trkpt lat="43.6862284" lon="12.6429423"><ele>200.0</ele><time>2026-05-02T09:11:10.315Z</time></trkpt><trkpt lat="43.6860998" lon="12.6429757"><ele>200.0</ele><time>2026-05-02T09:11:11.311Z</time></trkpt><trkpt lat="43.6859728" lon="12.6430057"><ele>200.0</ele><time>2026-05-02T09:11:12.316Z</time></trkpt><trkpt lat="43.685855" lon="12.6430259"><ele>199.5</ele><time>2026-05-02T09:11:13.313Z</time></trkpt><trkpt lat="43.6857355" lon="12.643044"><ele>199.0</ele><time>2026-05-02T09:11:14.315Z</time></trkpt><trkpt lat="43.6856149" lon="12.6430541"><ele>198.5</ele><time>2026-05-02T09:11:15.318Z</time></trkpt><trkpt lat="43.6855043" lon="12.6430646"><ele>198.0</ele><time>2026-05-02T09:11:16.316Z</time></trkpt><trkpt lat="43.685388" lon="12.6430717"><ele>198.0</ele><time>2026-05-02T09:11:17.316Z</time></trkpt><trkpt lat="43.6852767" lon="12.6430787"><ele>198.0</ele><time>2026-05-02T09:11:18.317Z</time></trkpt><trkpt lat="43.6851634" lon="12.6430848"><ele>198.0</ele><time>2026-05-02T09:11:19.317Z</time></trkpt><trkpt lat="43.6850526" lon="12.6430949"><ele>198.0</ele><time>2026-05-02T09:11:20.315Z</time></trkpt><trkpt lat="43.6849483" lon="12.6431019"><ele>198.0</ele><time>2026-05-02T09:11:21.317Z</time></trkpt><trkpt lat="43.6848504" lon="12.6431082"><ele>198.0</ele><time>2026-05-02T09:11:22.319Z</time></trkpt><trkpt lat="43.6847607" lon="12.6431145"><ele>198.0</ele><time>2026-05-02T09:11:23.316Z</time></trkpt><trkpt lat="43.6846588" lon="12.6431236"><ele>198.0</ele><time>2026-05-02T09:11:24.316Z</time></trkpt><trkpt lat="43.6845776" lon="12.6431241"><ele>198.0</ele><time>2026-05-02T09:11:25.319Z</time></trkpt><trkpt lat="43.6844886" lon="12.64313"><ele>198.0</ele><time>2026-05-02T09:11:26.316Z</time></trkpt><trkpt lat="43.6843975" lon="12.6431357"><ele>198.60000000000002</ele><time>2026-05-02T09:11:27.313Z</time></trkpt><trkpt lat="43.6843128" lon="12.6431463"><ele>199.20000000000002</ele><time>2026-05-02T09:11:28.316Z</time></trkpt><trkpt lat="43.6842278" lon="12.6431602"><ele>199.8</ele><time>2026-05-02T09:11:29.317Z</time></trkpt><trkpt lat="43.684142" lon="12.6431665"><ele>200.4</ele><time>2026-05-02T09:11:30.313Z</time></trkpt><trkpt lat="43.6840599" lon="12.6431763"><ele>201.0</ele><time>2026-05-02T09:11:31.434Z</time></trkpt><trkpt lat="43.6838855" lon="12.643195"><ele>201.0</ele><time>2026-05-02T09:11:33.318Z</time></trkpt><trkpt lat="43.6838095" lon="12.6432003"><ele>201.0</ele><time>2026-05-02T09:11:34.319Z</time></trkpt><trkpt lat="43.6837414" lon="12.6432042"><ele>201.0</ele><time>2026-05-02T09:11:35.32Z</time></trkpt><trkpt lat="43.6836703" lon="12.643202"><ele>201.0</ele><time>2026-05-02T09:11:36.316Z</time></trkpt><trkpt lat="43.6836057" lon="12.643196"><ele>201.0</ele><time>2026-05-02T09:11:37.323Z</time></trkpt><trkpt lat="43.6835426" lon="12.6431895"><ele>201.0</ele><time>2026-05-02T09:11:38.32Z</time></trkpt><trkpt lat="43.6834791" lon="12.6431817"><ele>201.0</ele><time>2026-05-02T09:11:39.321Z</time></trkpt><trkpt lat="43.6834141" lon="12.6431744"><ele>200.8</ele><time>2026-05-02T09:11:40.321Z</time></trkpt><trkpt lat="43.6832989" lon="12.6431566"><ele>200.60000000000002</ele><time>2026-05-02T09:11:42.319Z</time></trkpt><trkpt lat="43.6832138" lon="12.6431294"><ele>200.4</ele><time>2026-05-02T09:11:44.319Z</time></trkpt><trkpt lat="43.6831408" lon="12.6430776"><ele>200.2</ele><time>2026-05-02T09:11:46.322Z</time></trkpt><trkpt lat="43.6830744" lon="12.6429684"><ele>200.0</ele><time>2026-05-02T09:11:48.326Z</time></trkpt><trkpt lat="43.6830186" lon="12.6428196"><ele>200.2</ele><time>2026-05-02T09:11:50.314Z</time></trkpt><trkpt lat="43.6829678" lon="12.642765"><ele>200.4</ele><time>2026-05-02T09:11:51.298Z</time></trkpt><trkpt lat="43.6828643" lon="12.6426869"><ele>200.60000000000002</ele><time>2026-05-02T09:11:53.318Z</time></trkpt><trkpt lat="43.6827999" lon="12.6427074"><ele>200.8</ele><time>2026-05-02T09:11:54.319Z</time></trkpt><trkpt lat="43.6827081" lon="12.6427639"><ele>201.0</ele><time>2026-05-02T09:11:56.318Z</time></trkpt><trkpt lat="43.6826234" lon="12.6429073"><ele>201.0</ele><time>2026-05-02T09:11:58.317Z</time></trkpt><trkpt lat="43.6825108" lon="12.643024"><ele>201.0</ele><time>2026-05-02T09:12:00.316Z</time></trkpt><trkpt lat="43.682425" lon="12.6430227"><ele>201.0</ele><time>2026-05-02T09:12:01.33Z</time></trkpt><trkpt lat="43.6823364" lon="12.643034"><ele>201.0</ele><time>2026-05-02T09:12:02.314Z</time></trkpt><trkpt lat="43.6822331" lon="12.6430485"><ele>201.0</ele><time>2026-05-02T09:12:03.315Z</time></trkpt><trkpt lat="43.6821263" lon="12.6430617"><ele>201.0</ele><time>2026-05-02T09:12:04.318Z</time></trkpt><trkpt lat="43.6820195" lon="12.6430787"><ele>201.0</ele><time>2026-05-02T09:12:05.317Z</time></trkpt><trkpt lat="43.6819167" lon="12.643095"><ele>201.0</ele><time>2026-05-02T09:12:06.317Z</time></trkpt><trkpt lat="43.6818161" lon="12.6431085"><ele>201.0</ele><time>2026-05-02T09:12:07.318Z</time></trkpt><trkpt lat="43.6817193" lon="12.6431282"><ele>201.0</ele><time>2026-05-02T09:12:08.317Z</time></trkpt><trkpt lat="43.681617" lon="12.6431488"><ele>201.4</ele><time>2026-05-02T09:12:09.316Z</time></trkpt><trkpt lat="43.6815181" lon="12.6431686"><ele>201.8</ele><time>2026-05-02T09:12:10.315Z</time></trkpt><trkpt lat="43.681423" lon="12.643197"><ele>202.20000000000002</ele><time>2026-05-02T09:12:11.316Z</time></trkpt><trkpt lat="43.6813366" lon="12.6432324"><ele>202.60000000000002</ele><time>2026-05-02T09:12:12.318Z</time></trkpt><trkpt lat="43.6812504" lon="12.6432673"><ele>203.0</ele><time>2026-05-02T09:12:13.32Z</time></trkpt><trkpt lat="43.6811686" lon="12.643306"><ele>202.83333333333334</ele><time>2026-05-02T09:12:14.321Z</time></trkpt><trkpt lat="43.6810869" lon="12.6433366"><ele>202.66666666666669</ele><time>2026-05-02T09:12:15.317Z</time></trkpt><trkpt lat="43.6810048" lon="12.6433732"><ele>202.5</ele><time>2026-05-02T09:12:16.32Z</time></trkpt><trkpt lat="43.6809186" lon="12.6434155"><ele>202.33333333333331</ele><time>2026-05-02T09:12:17.315Z</time></trkpt><trkpt lat="43.6808332" lon="12.643459"><ele>202.16666666666666</ele><time>2026-05-02T09:12:18.317Z</time></trkpt><trkpt lat="43.6807589" lon="12.6434925"><ele>202.0</ele><time>2026-05-02T09:12:19.316Z</time></trkpt><trkpt lat="43.6806878" lon="12.6435264"><ele>202.0</ele><time>2026-05-02T09:12:20.316Z</time></trkpt><trkpt lat="43.6806175" lon="12.6435595"><ele>202.0</ele><time>2026-05-02T09:12:21.316Z</time></trkpt><trkpt lat="43.6804959" lon="12.6436106"><ele>202.0</ele><time>2026-05-02T09:12:23.315Z</time></trkpt><trkpt lat="43.6804307" lon="12.6436378"><ele>202.0</ele><time>2026-05-02T09:12:24.315Z</time></trkpt><trkpt lat="43.6803032" lon="12.6436935"><ele>202.0</ele><time>2026-05-02T09:12:26.317Z</time></trkpt><trkpt lat="43.6802348" lon="12.6437203"><ele>201.99999999999997</ele><time>2026-05-02T09:12:27.321Z</time></trkpt><trkpt lat="43.6801478" lon="12.6437456"><ele>202.0</ele><time>2026-05-02T09:12:28.323Z</time></trkpt><trkpt lat="43.6800621" lon="12.6437695"><ele>202.0</ele><time>2026-05-02T09:12:29.322Z</time></trkpt><trkpt lat="43.6799808" lon="12.643788"><ele>202.0</ele><time>2026-05-02T09:12:30.321Z</time></trkpt><trkpt lat="43.6799041" lon="12.6437973"><ele>201.99999999999997</ele><time>2026-05-02T09:12:31.32Z</time></trkpt><trkpt lat="43.6798321" lon="12.6437937"><ele>202.0</ele><time>2026-05-02T09:12:32.321Z</time></trkpt><trkpt lat="43.6797586" lon="12.6438035"><ele>202.0</ele><time>2026-05-02T09:12:33.32Z</time></trkpt><trkpt lat="43.6796868" lon="12.6438118"><ele>202.0</ele><time>2026-05-02T09:12:34.321Z</time></trkpt><trkpt lat="43.6796166" lon="12.64382"><ele>202.0</ele><time>2026-05-02T09:12:35.318Z</time></trkpt><trkpt lat="43.6795449" lon="12.6438317"><ele>202.0</ele><time>2026-05-02T09:12:36.314Z</time></trkpt><trkpt lat="43.6794775" lon="12.6438399"><ele>202.0</ele><time>2026-05-02T09:12:37.314Z</time></trkpt><trkpt lat="43.6794064" lon="12.643854"><ele>202.0</ele><time>2026-05-02T09:12:38.316Z</time></trkpt><trkpt lat="43.6793407" lon="12.6438653"><ele>202.0</ele><time>2026-05-02T09:12:39.316Z</time></trkpt><trkpt lat="43.6792681" lon="12.6438785"><ele>202.0</ele><time>2026-05-02T09:12:40.318Z</time></trkpt><trkpt lat="43.6791952" lon="12.6438905"><ele>202.0</ele><time>2026-05-02T09:12:41.316Z</time></trkpt><trkpt lat="43.6791225" lon="12.6439032"><ele>202.0</ele><time>2026-05-02T09:12:42.316Z</time></trkpt><trkpt lat="43.6790446" lon="12.6439121"><ele>202.0</ele><time>2026-05-02T09:12:43.316Z</time></trkpt><trkpt lat="43.6789719" lon="12.6439227"><ele>202.0</ele><time>2026-05-02T09:12:44.317Z</time></trkpt><trkpt lat="43.6789008" lon="12.6439376"><ele>202.0</ele><time>2026-05-02T09:12:45.318Z</time></trkpt><trkpt lat="43.6788254" lon="12.6439453"><ele>202.0</ele><time>2026-05-02T09:12:46.317Z</time></trkpt><trkpt lat="43.6787504" lon="12.6439585"><ele>201.99999999999997</ele><time>2026-05-02T09:12:47.313Z</time></trkpt><trkpt lat="43.6786799" lon="12.6439647"><ele>202.0</ele><time>2026-05-02T09:12:48.317Z</time></trkpt><trkpt lat="43.6786077" lon="12.6439783"><ele>202.0</ele><time>2026-05-02T09:12:49.313Z</time></trkpt><trkpt lat="43.6785353" lon="12.6439872"><ele>202.0</ele><time>2026-05-02T09:12:50.315Z</time></trkpt><trkpt lat="43.6784713" lon="12.644"><ele>201.99999999999997</ele><time>2026-05-02T09:12:51.318Z</time></trkpt><trkpt lat="43.6783983" lon="12.6440167"><ele>202.0</ele><time>2026-05-02T09:12:52.317Z</time></trkpt><trkpt lat="43.6782649" lon="12.6440631"><ele>202.0</ele><time>2026-05-02T09:12:54.317Z</time></trkpt><trkpt lat="43.6781997" lon="12.6440898"><ele>202.0</ele><time>2026-05-02T09:12:55.313Z</time></trkpt><trkpt lat="43.6780938" lon="12.6441394"><ele>202.0</ele><time>2026-05-02T09:12:57.317Z</time></trkpt><trkpt lat="43.6779824" lon="12.6441867"><ele>202.0</ele><time>2026-05-02T09:12:59.316Z</time></trkpt><trkpt lat="43.6779053" lon="12.6442598"><ele>202.0</ele><time>2026-05-02T09:13:01.317Z</time></trkpt><trkpt lat="43.6778144" lon="12.6443347"><ele>202.16666666666666</ele><time>2026-05-02T09:13:03.314Z</time></trkpt><trkpt lat="43.6777131" lon="12.6444118"><ele>202.33333333333331</ele><time>2026-05-02T09:13:05.333Z</time></trkpt><trkpt lat="43.6776449" lon="12.6444706"><ele>202.5</ele><time>2026-05-02T09:13:06.317Z</time></trkpt><trkpt lat="43.6775787" lon="12.6445468"><ele>202.66666666666669</ele><time>2026-05-02T09:13:07.317Z</time></trkpt><trkpt lat="43.677525" lon="12.6446221"><ele>202.83333333333334</ele><time>2026-05-02T09:13:08.316Z</time></trkpt><trkpt lat="43.6774647" lon="12.6446891"><ele>203.0</ele><time>2026-05-02T09:13:09.317Z</time></trkpt><trkpt lat="43.6774053" lon="12.6447519"><ele>202.66666666666669</ele><time>2026-05-02T09:13:10.319Z</time></trkpt><trkpt lat="43.6773478" lon="12.6448181"><ele>202.33333333333334</ele><time>2026-05-02T09:13:11.316Z</time></trkpt><trkpt lat="43.6772899" lon="12.6448831"><ele>202.0</ele><time>2026-05-02T09:13:12.317Z</time></trkpt><trkpt lat="43.6772367" lon="12.6449471"><ele>201.66666666666669</ele><time>2026-05-02T09:13:13.438Z</time></trkpt><trkpt lat="43.6771424" lon="12.6450547"><ele>201.33333333333334</ele><time>2026-05-02T09:13:15.316Z</time></trkpt><trkpt lat="43.6770626" lon="12.6451353"><ele>201.0</ele><time>2026-05-02T09:13:17.315Z</time></trkpt><trkpt lat="43.6769915" lon="12.6451848"><ele>201.16666666666666</ele><time>2026-05-02T09:13:19.318Z</time></trkpt><trkpt lat="43.6769141" lon="12.645192"><ele>201.33333333333331</ele><time>2026-05-02T09:13:21.318Z</time></trkpt><trkpt lat="43.6768434" lon="12.6451361"><ele>201.5</ele><time>2026-05-02T09:13:23.316Z</time></trkpt><trkpt lat="43.6767624" lon="12.6450744"><ele>201.66666666666666</ele><time>2026-05-02T09:13:25.317Z</time></trkpt><trkpt lat="43.676693" lon="12.6450218"><ele>201.83333333333331</ele><time>2026-05-02T09:13:27.316Z</time></trkpt><trkpt lat="43.6766182" lon="12.6449784"><ele>202.0</ele><time>2026-05-02T09:13:29.316Z</time></trkpt><trkpt lat="43.6765244" lon="12.644927"><ele>202.0</ele><time>2026-05-02T09:13:31.315Z</time></trkpt><trkpt lat="43.6764351" lon="12.6448751"><ele>202.0</ele><time>2026-05-02T09:13:33.307Z</time></trkpt><trkpt lat="43.6763332" lon="12.6448179"><ele>202.0</ele><time>2026-05-02T09:13:35.321Z</time></trkpt><trkpt lat="43.6762467" lon="12.6447767"><ele>202.0</ele><time>2026-05-02T09:13:37.319Z</time></trkpt><trkpt lat="43.676161" lon="12.6447365"><ele>202.0</ele><time>2026-05-02T09:13:39.317Z</time></trkpt><trkpt lat="43.6760707" lon="12.6446953"><ele>202.25</ele><time>2026-05-02T09:13:41.331Z</time></trkpt><trkpt lat="43.6759626" lon="12.6446332"><ele>202.5</ele><time>2026-05-02T09:13:43.316Z</time></trkpt><trkpt lat="43.6758541" lon="12.6445624"><ele>202.75</ele><time>2026-05-02T09:13:45.315Z</time></trkpt><trkpt lat="43.6757534" lon="12.6445032"><ele>203.0</ele><time>2026-05-02T09:13:47.317Z</time></trkpt><trkpt lat="43.6756261" lon="12.6444336"><ele>203.0</ele><time>2026-05-02T09:13:49.314Z</time></trkpt><trkpt lat="43.6755481" lon="12.6443971"><ele>203.0</ele><time>2026-05-02T09:13:50.317Z</time></trkpt><trkpt lat="43.6754788" lon="12.6443551"><ele>203.0</ele><time>2026-05-02T09:13:51.323Z</time></trkpt><trkpt lat="43.6754047" lon="12.6443249"><ele>203.0</ele><time>2026-05-02T09:13:52.317Z</time></trkpt><trkpt lat="43.6753357" lon="12.6442929"><ele>203.0</ele><time>2026-05-02T09:13:53.318Z</time></trkpt><trkpt lat="43.6752854" lon="12.6442392"><ele>203.0</ele><time>2026-05-02T09:13:54.317Z</time></trkpt><trkpt lat="43.6752733" lon="12.6441492"><ele>203.0</ele><time>2026-05-02T09:13:55.311Z</time></trkpt><trkpt lat="43.6752753" lon="12.6440606"><ele>203.00000000000003</ele><time>2026-05-02T09:13:56.316Z</time></trkpt><trkpt lat="43.675289" lon="12.6439081"><ele>203.0</ele><time>2026-05-02T09:13:58.312Z</time></trkpt><trkpt lat="43.6752517" lon="12.6437795"><ele>203.0</ele><time>2026-05-02T09:14:00.313Z</time></trkpt><trkpt lat="43.6751685" lon="12.6437549"><ele>203.0</ele><time>2026-05-02T09:14:02.316Z</time></trkpt><trkpt lat="43.6751066" lon="12.643707"><ele>203.00000000000003</ele><time>2026-05-02T09:14:04.323Z</time></trkpt><trkpt lat="43.6750426" lon="12.643715"><ele>203.0</ele><time>2026-05-02T09:14:06.323Z</time></trkpt><trkpt lat="43.675084" lon="12.6438055"><ele>202.83333333333334</ele><time>2026-05-02T09:14:09.314Z</time></trkpt><trkpt lat="43.6751678" lon="12.6437636"><ele>202.66666666666669</ele><time>2026-05-02T09:14:12.318Z</time></trkpt><trkpt lat="43.6752356" lon="12.6437942"><ele>202.5</ele><time>2026-05-02T09:14:14.318Z</time></trkpt><trkpt lat="43.6752469" lon="12.6438933"><ele>202.33333333333331</ele><time>2026-05-02T09:14:15.325Z</time></trkpt><trkpt lat="43.6752209" lon="12.644052"><ele>202.16666666666666</ele><time>2026-05-02T09:14:17.315Z</time></trkpt><trkpt lat="43.6751579" lon="12.6441211"><ele>202.0</ele><time>2026-05-02T09:14:19.317Z</time></trkpt><trkpt lat="43.6750475" lon="12.6440975"><ele>201.99999999999997</ele><time>2026-05-02T09:14:21.32Z</time></trkpt><trkpt lat="43.6749418" lon="12.6440368"><ele>202.0</ele><time>2026-05-02T09:14:23.316Z</time></trkpt><trkpt lat="43.6748814" lon="12.6440055"><ele>202.0</ele><time>2026-05-02T09:14:24.317Z</time></trkpt><trkpt lat="43.6748184" lon="12.6439738"><ele>202.0</ele><time>2026-05-02T09:14:25.32Z</time></trkpt><trkpt lat="43.6747505" lon="12.6439355"><ele>201.99999999999997</ele><time>2026-05-02T09:14:26.32Z</time></trkpt><trkpt lat="43.674685" lon="12.6439045"><ele>202.0</ele><time>2026-05-02T09:14:27.318Z</time></trkpt><trkpt lat="43.6746155" lon="12.6438576"><ele>202.0</ele><time>2026-05-02T09:14:28.317Z</time></trkpt><trkpt lat="43.6745496" lon="12.6438115"><ele>202.0</ele><time>2026-05-02T09:14:29.314Z</time></trkpt><trkpt lat="43.67449" lon="12.6437779"><ele>202.0</ele><time>2026-05-02T09:14:30.316Z</time></trkpt><trkpt lat="43.6744209" lon="12.6437386"><ele>202.0</ele><time>2026-05-02T09:14:31.317Z</time></trkpt><trkpt lat="43.6743568" lon="12.6436899"><ele>202.0</ele><time>2026-05-02T09:14:32.317Z</time></trkpt><trkpt lat="43.674291" lon="12.6436375"><ele>202.0</ele><time>2026-05-02T09:14:33.319Z</time></trkpt><trkpt lat="43.674227" lon="12.6435829"><ele>202.0</ele><time>2026-05-02T09:14:34.315Z</time></trkpt><trkpt lat="43.6741587" lon="12.6435333"><ele>203.16666666666666</ele><time>2026-05-02T09:14:35.315Z</time></trkpt><trkpt lat="43.6740867" lon="12.6434844"><ele>204.33333333333331</ele><time>2026-05-02T09:14:36.323Z</time></trkpt><trkpt lat="43.6740179" lon="12.6434317"><ele>205.5</ele><time>2026-05-02T09:14:37.32Z</time></trkpt><trkpt lat="43.6739511" lon="12.6433781"><ele>206.66666666666669</ele><time>2026-05-02T09:14:38.318Z</time></trkpt><trkpt lat="43.6738849" lon="12.6433203"><ele>207.83333333333334</ele><time>2026-05-02T09:14:39.317Z</time></trkpt><trkpt lat="43.6738236" lon="12.6432617"><ele>209.0</ele><time>2026-05-02T09:14:40.316Z</time></trkpt><trkpt lat="43.6737631" lon="12.6431921"><ele>209.00000000000003</ele><time>2026-05-02T09:14:41.317Z</time></trkpt><trkpt lat="43.6737" lon="12.6431239"><ele>209.0</ele><time>2026-05-02T09:14:42.319Z</time></trkpt><trkpt lat="43.6736377" lon="12.6430529"><ele>209.0</ele><time>2026-05-02T09:14:43.316Z</time></trkpt><trkpt lat="43.673581" lon="12.6429762"><ele>209.0</ele><time>2026-05-02T09:14:44.316Z</time></trkpt><trkpt lat="43.6735271" lon="12.6429028"><ele>209.00000000000003</ele><time>2026-05-02T09:14:45.317Z</time></trkpt><trkpt lat="43.673477" lon="12.64283"><ele>209.0</ele><time>2026-05-02T09:14:46.321Z</time></trkpt><trkpt lat="43.673423" lon="12.6427261"><ele>209.66666666666669</ele><time>2026-05-02T09:14:48.317Z</time></trkpt><trkpt lat="43.6733788" lon="12.6426616"><ele>210.33333333333334</ele><time>2026-05-02T09:14:50.315Z</time></trkpt><trkpt lat="43.6733184" lon="12.6425906"><ele>211.0</ele><time>2026-05-02T09:14:52.329Z</time></trkpt><trkpt lat="43.6732753" lon="12.6425204"><ele>211.66666666666669</ele><time>2026-05-02T09:14:53.327Z</time></trkpt><trkpt lat="43.6732332" lon="12.6424287"><ele>212.33333333333334</ele><time>2026-05-02T09:14:54.315Z</time></trkpt><trkpt lat="43.6731987" lon="12.6423411"><ele>213.0</ele><time>2026-05-02T09:14:55.315Z</time></trkpt><trkpt lat="43.6731483" lon="12.6422131"><ele>213.0</ele><time>2026-05-02T09:14:56.317Z</time></trkpt><trkpt lat="43.6730839" lon="12.6420847"><ele>213.0</ele><time>2026-05-02T09:14:57.317Z</time></trkpt><trkpt lat="43.6730318" lon="12.6419529"><ele>213.0</ele><time>2026-05-02T09:14:58.315Z</time></trkpt><trkpt lat="43.6729687" lon="12.6417853"><ele>213.0</ele><time>2026-05-02T09:14:59.316Z</time></trkpt><trkpt lat="43.6729252" lon="12.6416469"><ele>212.0</ele><time>2026-05-02T09:15:00.317Z</time></trkpt><trkpt lat="43.6728874" lon="12.6415191"><ele>211.0</ele><time>2026-05-02T09:15:01.317Z</time></trkpt><trkpt lat="43.6728319" lon="12.641326"><ele>210.0</ele><time>2026-05-02T09:15:02.318Z</time></trkpt><trkpt lat="43.6727898" lon="12.6411868"><ele>209.0</ele><time>2026-05-02T09:15:03.317Z</time></trkpt><trkpt lat="43.6727377" lon="12.6410292"><ele>209.0</ele><time>2026-05-02T09:15:04.315Z</time></trkpt><trkpt lat="43.6726614" lon="12.6408661"><ele>209.0</ele><time>2026-05-02T09:15:05.315Z</time></trkpt><trkpt lat="43.6726136" lon="12.6407084"><ele>209.0</ele><time>2026-05-02T09:15:06.318Z</time></trkpt><trkpt lat="43.6725605" lon="12.6405592"><ele>209.0</ele><time>2026-05-02T09:15:07.316Z</time></trkpt><trkpt lat="43.6725137" lon="12.6403841"><ele>209.0</ele><time>2026-05-02T09:15:08.316Z</time></trkpt><trkpt lat="43.672466" lon="12.6402259"><ele>209.0</ele><time>2026-05-02T09:15:09.317Z</time></trkpt><trkpt lat="43.672423" lon="12.6400652"><ele>209.0</ele><time>2026-05-02T09:15:10.316Z</time></trkpt><trkpt lat="43.6723587" lon="12.639919"><ele>209.0</ele><time>2026-05-02T09:15:11.316Z</time></trkpt><trkpt lat="43.6723003" lon="12.6397724"><ele>209.0</ele><time>2026-05-02T09:15:12.315Z</time></trkpt><trkpt lat="43.6722545" lon="12.63961"><ele>209.0</ele><time>2026-05-02T09:15:13.316Z</time></trkpt><trkpt lat="43.6721985" lon="12.6394555"><ele>209.0</ele><time>2026-05-02T09:15:14.317Z</time></trkpt><trkpt lat="43.672133" lon="12.6392841"><ele>209.0</ele><time>2026-05-02T09:15:15.318Z</time></trkpt><trkpt lat="43.6720724" lon="12.6391124"><ele>209.0</ele><time>2026-05-02T09:15:16.322Z</time></trkpt><trkpt lat="43.6720175" lon="12.6389373"><ele>209.0</ele><time>2026-05-02T09:15:17.314Z</time></trkpt><trkpt lat="43.6719604" lon="12.6387585"><ele>209.0</ele><time>2026-05-02T09:15:18.313Z</time></trkpt><trkpt lat="43.6718943" lon="12.638579"><ele>209.0</ele><time>2026-05-02T09:15:19.316Z</time></trkpt><trkpt lat="43.6718257" lon="12.6383821"><ele>207.5</ele><time>2026-05-02T09:15:20.313Z</time></trkpt><trkpt lat="43.6717645" lon="12.6381923"><ele>206.0</ele><time>2026-05-02T09:15:21.436Z</time></trkpt><trkpt lat="43.6716313" lon="12.6377967"><ele>206.0</ele><time>2026-05-02T09:15:23.317Z</time></trkpt><trkpt lat="43.6715648" lon="12.6375963"><ele>206.0</ele><time>2026-05-02T09:15:24.316Z</time></trkpt><trkpt lat="43.6714937" lon="12.6373915"><ele>206.0</ele><time>2026-05-02T09:15:25.318Z</time></trkpt><trkpt lat="43.6714275" lon="12.6371869"><ele>206.0</ele><time>2026-05-02T09:15:26.323Z</time></trkpt><trkpt lat="43.6713603" lon="12.6369854"><ele>206.0</ele><time>2026-05-02T09:15:27.312Z</time></trkpt><trkpt lat="43.671293" lon="12.6367872"><ele>206.0</ele><time>2026-05-02T09:15:28.317Z</time></trkpt><trkpt lat="43.6712186" lon="12.6365844"><ele>206.0</ele><time>2026-05-02T09:15:29.314Z</time></trkpt><trkpt lat="43.6711659" lon="12.6363932"><ele>206.0</ele><time>2026-05-02T09:15:30.316Z</time></trkpt><trkpt lat="43.6711011" lon="12.6362024"><ele>206.0</ele><time>2026-05-02T09:15:31.316Z</time></trkpt><trkpt lat="43.6710308" lon="12.6359975"><ele>204.66666666666669</ele><time>2026-05-02T09:15:32.317Z</time></trkpt><trkpt lat="43.6709592" lon="12.6357986"><ele>203.33333333333331</ele><time>2026-05-02T09:15:33.312Z</time></trkpt><trkpt lat="43.6708962" lon="12.6356133"><ele>202.0</ele><time>2026-05-02T09:15:34.316Z</time></trkpt><trkpt lat="43.6708296" lon="12.6354163"><ele>203.0</ele><time>2026-05-02T09:15:35.316Z</time></trkpt><trkpt lat="43.6707643" lon="12.6352259"><ele>204.0</ele><time>2026-05-02T09:15:36.326Z</time></trkpt><trkpt lat="43.6706938" lon="12.6350285"><ele>205.0</ele><time>2026-05-02T09:15:37.311Z</time></trkpt><trkpt lat="43.6706231" lon="12.634844"><ele>205.0</ele><time>2026-05-02T09:15:38.316Z</time></trkpt><trkpt lat="43.6705651" lon="12.6346662"><ele>205.0</ele><time>2026-05-02T09:15:39.315Z</time></trkpt><trkpt lat="43.6704996" lon="12.6344805"><ele>205.0</ele><time>2026-05-02T09:15:40.312Z</time></trkpt><trkpt lat="43.6704444" lon="12.6343015"><ele>205.0</ele><time>2026-05-02T09:15:41.312Z</time></trkpt><trkpt lat="43.6703798" lon="12.6341267"><ele>205.0</ele><time>2026-05-02T09:15:42.312Z</time></trkpt><trkpt lat="43.6703228" lon="12.6339472"><ele>205.0</ele><time>2026-05-02T09:15:43.317Z</time></trkpt><trkpt lat="43.6702629" lon="12.6337947"><ele>205.0</ele><time>2026-05-02T09:15:44.316Z</time></trkpt><trkpt lat="43.6701953" lon="12.6336247"><ele>205.0</ele><time>2026-05-02T09:15:45.317Z</time></trkpt><trkpt lat="43.6701407" lon="12.6334517"><ele>205.0</ele><time>2026-05-02T09:15:46.32Z</time></trkpt><trkpt lat="43.6700718" lon="12.6332607"><ele>205.0</ele><time>2026-05-02T09:15:47.311Z</time></trkpt><trkpt lat="43.6700011" lon="12.6330512"><ele>205.0</ele><time>2026-05-02T09:15:48.316Z</time></trkpt><trkpt lat="43.6699289" lon="12.6328332"><ele>205.66666666666666</ele><time>2026-05-02T09:15:49.313Z</time></trkpt><trkpt lat="43.6698632" lon="12.6326191"><ele>206.33333333333331</ele><time>2026-05-02T09:15:50.312Z</time></trkpt><trkpt lat="43.6697992" lon="12.6324253"><ele>207.0</ele><time>2026-05-02T09:15:51.319Z</time></trkpt><trkpt lat="43.6697396" lon="12.6322423"><ele>207.0</ele><time>2026-05-02T09:15:52.312Z</time></trkpt><trkpt lat="43.6696792" lon="12.632067"><ele>207.0</ele><time>2026-05-02T09:15:53.316Z</time></trkpt><trkpt lat="43.6696211" lon="12.6318964"><ele>207.0</ele><time>2026-05-02T09:15:54.314Z</time></trkpt><trkpt lat="43.6695487" lon="12.6317261"><ele>207.0</ele><time>2026-05-02T09:15:55.317Z</time></trkpt><trkpt lat="43.6694887" lon="12.6315474"><ele>207.0</ele><time>2026-05-02T09:15:56.319Z</time></trkpt><trkpt lat="43.6694345" lon="12.6313749"><ele>207.0</ele><time>2026-05-02T09:15:57.322Z</time></trkpt><trkpt lat="43.6693744" lon="12.631203"><ele>207.0</ele><time>2026-05-02T09:15:58.317Z</time></trkpt><trkpt lat="43.6693074" lon="12.6310282"><ele>207.0</ele><time>2026-05-02T09:15:59.315Z</time></trkpt><trkpt lat="43.6692463" lon="12.6308676"><ele>207.0</ele><time>2026-05-02T09:16:00.316Z</time></trkpt><trkpt lat="43.6691868" lon="12.6306376"><ele>207.0</ele><time>2026-05-02T09:16:01.315Z</time></trkpt><trkpt lat="43.669109" lon="12.630386"><ele>207.0</ele><time>2026-05-02T09:16:02.316Z</time></trkpt><trkpt lat="43.6690253" lon="12.6301196"><ele>207.5</ele><time>2026-05-02T09:16:03.315Z</time></trkpt><trkpt lat="43.6689428" lon="12.6298588"><ele>208.0</ele><time>2026-05-02T09:16:04.316Z</time></trkpt><trkpt lat="43.668803" lon="12.6295336"><ele>208.33333333333331</ele><time>2026-05-02T09:16:05.315Z</time></trkpt><trkpt lat="43.6687079" lon="12.6292781"><ele>208.66666666666669</ele><time>2026-05-02T09:16:06.325Z</time></trkpt><trkpt lat="43.6686176" lon="12.6290193"><ele>209.0</ele><time>2026-05-02T09:16:07.317Z</time></trkpt><trkpt lat="43.6685348" lon="12.6287696"><ele>209.33333333333334</ele><time>2026-05-02T09:16:08.318Z</time></trkpt><trkpt lat="43.6684406" lon="12.6285292"><ele>209.66666666666669</ele><time>2026-05-02T09:16:09.317Z</time></trkpt><trkpt lat="43.6683582" lon="12.6283106"><ele>210.0</ele><time>2026-05-02T09:16:10.316Z</time></trkpt><trkpt lat="43.668287" lon="12.6280917"><ele>210.0</ele><time>2026-05-02T09:16:11.316Z</time></trkpt><trkpt lat="43.6682167" lon="12.6278876"><ele>210.0</ele><time>2026-05-02T09:16:12.315Z</time></trkpt><trkpt lat="43.668146" lon="12.6276845"><ele>210.0</ele><time>2026-05-02T09:16:13.315Z</time></trkpt><trkpt lat="43.6680844" lon="12.627485"><ele>210.75</ele><time>2026-05-02T09:16:14.317Z</time></trkpt><trkpt lat="43.668027" lon="12.6272926"><ele>211.5</ele><time>2026-05-02T09:16:15.319Z</time></trkpt><trkpt lat="43.6679642" lon="12.6271073"><ele>212.25</ele><time>2026-05-02T09:16:16.318Z</time></trkpt><trkpt lat="43.6679008" lon="12.626922"><ele>213.0</ele><time>2026-05-02T09:16:17.321Z</time></trkpt><trkpt lat="43.6678353" lon="12.6267226"><ele>212.33333333333331</ele><time>2026-05-02T09:16:18.321Z</time></trkpt><trkpt lat="43.6677644" lon="12.6265257"><ele>211.66666666666666</ele><time>2026-05-02T09:16:19.315Z</time></trkpt><trkpt lat="43.6676949" lon="12.6263184"><ele>211.0</ele><time>2026-05-02T09:16:20.316Z</time></trkpt><trkpt lat="43.6676156" lon="12.6261081"><ele>211.0</ele><time>2026-05-02T09:16:21.32Z</time></trkpt><trkpt lat="43.6675415" lon="12.6259019"><ele>211.0</ele><time>2026-05-02T09:16:22.316Z</time></trkpt><trkpt lat="43.6674723" lon="12.6257055"><ele>211.0</ele><time>2026-05-02T09:16:23.316Z</time></trkpt><trkpt lat="43.6674082" lon="12.6255153"><ele>211.0</ele><time>2026-05-02T09:16:24.322Z</time></trkpt><trkpt lat="43.6673453" lon="12.6253345"><ele>211.0</ele><time>2026-05-02T09:16:25.317Z</time></trkpt><trkpt lat="43.6672867" lon="12.6251522"><ele>211.0</ele><time>2026-05-02T09:16:26.312Z</time></trkpt><trkpt lat="43.6672303" lon="12.6249798"><ele>211.0</ele><time>2026-05-02T09:16:27.32Z</time></trkpt><trkpt lat="43.6671747" lon="12.6248079"><ele>211.20000000000002</ele><time>2026-05-02T09:16:28.316Z</time></trkpt><trkpt lat="43.6671278" lon="12.6246581"><ele>211.4</ele><time>2026-05-02T09:16:29.32Z</time></trkpt><trkpt lat="43.6671107" lon="12.6245221"><ele>211.6</ele><time>2026-05-02T09:16:30.314Z</time></trkpt><trkpt lat="43.6671008" lon="12.6244039"><ele>211.8</ele><time>2026-05-02T09:16:31.316Z</time></trkpt><trkpt lat="43.6670998" lon="12.6243146"><ele>212.0</ele><time>2026-05-02T09:16:32.317Z</time></trkpt><trkpt lat="43.6670771" lon="12.6242015"><ele>212.0</ele><time>2026-05-02T09:16:34.314Z</time></trkpt><trkpt lat="43.6670075" lon="12.624286"><ele>212.0</ele><time>2026-05-02T09:16:39.316Z</time></trkpt><trkpt lat="43.6670088" lon="12.6243786"><ele>212.0</ele><time>2026-05-02T09:16:40.333Z</time></trkpt><trkpt lat="43.6670436" lon="12.6245082"><ele>212.0</ele><time>2026-05-02T09:16:41.321Z</time></trkpt><trkpt lat="43.6671" lon="12.6246504"><ele>212.0</ele><time>2026-05-02T09:16:42.316Z</time></trkpt><trkpt lat="43.6671651" lon="12.6248441"><ele>212.0</ele><time>2026-05-02T09:16:43.322Z</time></trkpt><trkpt lat="43.6672343" lon="12.6250467"><ele>212.0</ele><time>2026-05-02T09:16:44.317Z</time></trkpt><trkpt lat="43.6673094" lon="12.6252709"><ele>212.0</ele><time>2026-05-02T09:16:45.316Z</time></trkpt><trkpt lat="43.6673879" lon="12.6254975"><ele>211.66666666666669</ele><time>2026-05-02T09:16:46.319Z</time></trkpt><trkpt lat="43.6674628" lon="12.6257268"><ele>211.33333333333331</ele><time>2026-05-02T09:16:47.315Z</time></trkpt><trkpt lat="43.6675303" lon="12.6259573"><ele>211.0</ele><time>2026-05-02T09:16:48.315Z</time></trkpt><trkpt lat="43.6676001" lon="12.6261888"><ele>210.33333333333331</ele><time>2026-05-02T09:16:49.315Z</time></trkpt><trkpt lat="43.6676846" lon="12.6264149"><ele>209.66666666666669</ele><time>2026-05-02T09:16:50.317Z</time></trkpt><trkpt lat="43.667775" lon="12.6266821"><ele>209.0</ele><time>2026-05-02T09:16:51.316Z</time></trkpt><trkpt lat="43.6678697" lon="12.6269349"><ele>211.0</ele><time>2026-05-02T09:16:52.315Z</time></trkpt><trkpt lat="43.6679802" lon="12.6272585"><ele>213.0</ele><time>2026-05-02T09:16:53.314Z</time></trkpt><trkpt lat="43.6680932" lon="12.6276063"><ele>211.5</ele><time>2026-05-02T09:16:54.316Z</time></trkpt><trkpt lat="43.668216" lon="12.6279788"><ele>210.0</ele><time>2026-05-02T09:16:55.316Z</time></trkpt><trkpt lat="43.6683402" lon="12.6283226"><ele>209.5</ele><time>2026-05-02T09:16:56.325Z</time></trkpt><trkpt lat="43.6684502" lon="12.6286514"><ele>209.0</ele><time>2026-05-02T09:16:57.311Z</time></trkpt><trkpt lat="43.6685618" lon="12.6289867"><ele>209.5</ele><time>2026-05-02T09:16:58.312Z</time></trkpt><trkpt lat="43.6686565" lon="12.6292661"><ele>210.0</ele><time>2026-05-02T09:16:59.314Z</time></trkpt><trkpt lat="43.6687574" lon="12.6295549"><ele>209.33333333333331</ele><time>2026-05-02T09:17:00.315Z</time></trkpt><trkpt lat="43.6688526" lon="12.6298265"><ele>208.66666666666666</ele><time>2026-05-02T09:17:01.315Z</time></trkpt><trkpt lat="43.6689438" lon="12.630088"><ele>208.0</ele><time>2026-05-02T09:17:02.314Z</time></trkpt><trkpt lat="43.6690309" lon="12.6303437"><ele>207.66666666666666</ele><time>2026-05-02T09:17:03.316Z</time></trkpt><trkpt lat="43.6691174" lon="12.6305949"><ele>207.33333333333331</ele><time>2026-05-02T09:17:04.315Z</time></trkpt><trkpt lat="43.6692074" lon="12.6308447"><ele>207.0</ele><time>2026-05-02T09:17:05.315Z</time></trkpt><trkpt lat="43.6692925" lon="12.6310901"><ele>206.66666666666669</ele><time>2026-05-02T09:17:06.321Z</time></trkpt><trkpt lat="43.6693788" lon="12.6313316"><ele>206.33333333333334</ele><time>2026-05-02T09:17:07.318Z</time></trkpt><trkpt lat="43.6694528" lon="12.6315523"><ele>206.0</ele><time>2026-05-02T09:17:08.315Z</time></trkpt><trkpt lat="43.6695323" lon="12.6317721"><ele>206.33333333333334</ele><time>2026-05-02T09:17:09.314Z</time></trkpt><trkpt lat="43.6696066" lon="12.6319807"><ele>206.66666666666669</ele><time>2026-05-02T09:17:10.315Z</time></trkpt><trkpt lat="43.6696773" lon="12.6321849"><ele>207.0</ele><time>2026-05-02T09:17:11.317Z</time></trkpt><trkpt lat="43.669759" lon="12.6323856"><ele>207.0</ele><time>2026-05-02T09:17:12.317Z</time></trkpt><trkpt lat="43.6697621" lon="12.6325195"><ele>207.0</ele><time>2026-05-02T09:17:14.315Z</time></trkpt><trkpt lat="43.6697026" lon="12.6325839"><ele>207.0</ele><time>2026-05-02T09:17:15.319Z</time></trkpt><trkpt lat="43.6696463" lon="12.6326589"><ele>207.0</ele><time>2026-05-02T09:17:16.319Z</time></trkpt><trkpt lat="43.6695707" lon="12.6327047"><ele>207.0</ele><time>2026-05-02T09:17:17.316Z</time></trkpt><trkpt lat="43.6694455" lon="12.6327667"><ele>206.0</ele><time>2026-05-02T09:17:18.315Z</time></trkpt><trkpt lat="43.6693194" lon="12.6328512"><ele>205.0</ele><time>2026-05-02T09:17:19.315Z</time></trkpt><trkpt lat="43.6691283" lon="12.6329858"><ele>204.0</ele><time>2026-05-02T09:17:20.316Z</time></trkpt><trkpt lat="43.668992" lon="12.6331008"><ele>204.0</ele><time>2026-05-02T09:17:21.315Z</time></trkpt><trkpt lat="43.6688466" lon="12.6332175"><ele>204.0</ele><time>2026-05-02T09:17:22.315Z</time></trkpt><trkpt lat="43.6687082" lon="12.6333147"><ele>204.0</ele><time>2026-05-02T09:17:23.316Z</time></trkpt><trkpt lat="43.6685715" lon="12.6334206"><ele>204.33333333333331</ele><time>2026-05-02T09:17:24.314Z</time></trkpt><trkpt lat="43.6684315" lon="12.6335129"><ele>204.66666666666666</ele><time>2026-05-02T09:17:25.315Z</time></trkpt><trkpt lat="43.6682941" lon="12.6336061"><ele>205.0</ele><time>2026-05-02T09:17:26.321Z</time></trkpt><trkpt lat="43.6681472" lon="12.6337124"><ele>205.0</ele><time>2026-05-02T09:17:27.314Z</time></trkpt><trkpt lat="43.6679619" lon="12.633762"><ele>205.0</ele><time>2026-05-02T09:17:28.315Z</time></trkpt><trkpt lat="43.6677675" lon="12.6338126"><ele>205.0</ele><time>2026-05-02T09:17:29.315Z</time></trkpt><trkpt lat="43.6675826" lon="12.6338517"><ele>205.0</ele><time>2026-05-02T09:17:30.315Z</time></trkpt><trkpt lat="43.6673964" lon="12.6338674"><ele>205.0</ele><time>2026-05-02T09:17:31.315Z</time></trkpt><trkpt lat="43.6671965" lon="12.6338605"><ele>205.0</ele><time>2026-05-02T09:17:32.315Z</time></trkpt><trkpt lat="43.6670166" lon="12.6338752"><ele>205.33333333333331</ele><time>2026-05-02T09:17:33.316Z</time></trkpt><trkpt lat="43.666856" lon="12.6338456"><ele>205.66666666666669</ele><time>2026-05-02T09:17:34.341Z</time></trkpt><trkpt lat="43.6666929" lon="12.6338052"><ele>206.0</ele><time>2026-05-02T09:17:35.315Z</time></trkpt><trkpt lat="43.6665343" lon="12.6337189"><ele>206.33333333333334</ele><time>2026-05-02T09:17:36.315Z</time></trkpt><trkpt lat="43.666386" lon="12.6335994"><ele>206.66666666666669</ele><time>2026-05-02T09:17:37.314Z</time></trkpt><trkpt lat="43.6662423" lon="12.6334052"><ele>207.0</ele><time>2026-05-02T09:17:38.315Z</time></trkpt><trkpt lat="43.6660859" lon="12.6332143"><ele>209.33333333333331</ele><time>2026-05-02T09:17:39.314Z</time></trkpt><trkpt lat="43.6659153" lon="12.6330358"><ele>211.66666666666666</ele><time>2026-05-02T09:17:40.315Z</time></trkpt><trkpt lat="43.665741" lon="12.6328486"><ele>214.0</ele><time>2026-05-02T09:17:41.315Z</time></trkpt><trkpt lat="43.6655398" lon="12.6326843"><ele>214.0</ele><time>2026-05-02T09:17:42.314Z</time></trkpt><trkpt lat="43.6653423" lon="12.6325252"><ele>214.0</ele><time>2026-05-02T09:17:43.316Z</time></trkpt><trkpt lat="43.6651761" lon="12.6323986"><ele>214.0</ele><time>2026-05-02T09:17:44.315Z</time></trkpt><trkpt lat="43.6649938" lon="12.6322775"><ele>218.66666666666666</ele><time>2026-05-02T09:17:45.315Z</time></trkpt><trkpt lat="43.6648012" lon="12.6322031"><ele>223.33333333333331</ele><time>2026-05-02T09:17:46.315Z</time></trkpt><trkpt lat="43.6646344" lon="12.6321322"><ele>228.0</ele><time>2026-05-02T09:17:47.314Z</time></trkpt><trkpt lat="43.6644558" lon="12.6320757"><ele>230.66666666666669</ele><time>2026-05-02T09:17:48.316Z</time></trkpt><trkpt lat="43.6642865" lon="12.632085"><ele>233.33333333333334</ele><time>2026-05-02T09:17:49.315Z</time></trkpt><trkpt lat="43.6640993" lon="12.6320756"><ele>236.0</ele><time>2026-05-02T09:17:50.315Z</time></trkpt><trkpt lat="43.6639167" lon="12.6321216"><ele>236.0</ele><time>2026-05-02T09:17:51.317Z</time></trkpt><trkpt lat="43.6637273" lon="12.6322998"><ele>236.0</ele><time>2026-05-02T09:17:52.316Z</time></trkpt><trkpt lat="43.6635325" lon="12.6324005"><ele>236.0</ele><time>2026-05-02T09:17:53.314Z</time></trkpt><trkpt lat="43.6633298" lon="12.6325103"><ele>235.0</ele><time>2026-05-02T09:17:54.317Z</time></trkpt><trkpt lat="43.663129" lon="12.6326149"><ele>234.0</ele><time>2026-05-02T09:17:55.312Z</time></trkpt><trkpt lat="43.662917" lon="12.6327273"><ele>233.0</ele><time>2026-05-02T09:17:56.318Z</time></trkpt><trkpt lat="43.662701" lon="12.6328269"><ele>239.5</ele><time>2026-05-02T09:17:57.313Z</time></trkpt><trkpt lat="43.6624832" lon="12.6329404"><ele>246.0</ele><time>2026-05-02T09:17:58.314Z</time></trkpt><trkpt lat="43.6622787" lon="12.6330519"><ele>246.0</ele><time>2026-05-02T09:17:59.315Z</time></trkpt><trkpt lat="43.6620286" lon="12.6331782"><ele>246.0</ele><time>2026-05-02T09:18:00.313Z</time></trkpt><trkpt lat="43.6618017" lon="12.6332951"><ele>242.0</ele><time>2026-05-02T09:18:01.318Z</time></trkpt><trkpt lat="43.6615764" lon="12.6334105"><ele>238.0</ele><time>2026-05-02T09:18:02.312Z</time></trkpt><trkpt lat="43.661424" lon="12.6334937"><ele>234.0</ele><time>2026-05-02T09:18:03.312Z</time></trkpt><trkpt lat="43.6612385" lon="12.6335902"><ele>234.66666666666669</ele><time>2026-05-02T09:18:04.312Z</time></trkpt><trkpt lat="43.6610726" lon="12.6336718"><ele>235.33333333333334</ele><time>2026-05-02T09:18:05.303Z</time></trkpt><trkpt lat="43.6609141" lon="12.633698"><ele>236.0</ele><time>2026-05-02T09:18:06.306Z</time></trkpt><trkpt lat="43.6607565" lon="12.6336929"><ele>236.0</ele><time>2026-05-02T09:18:07.311Z</time></trkpt><trkpt lat="43.6605952" lon="12.6336462"><ele>236.0</ele><time>2026-05-02T09:18:08.306Z</time></trkpt><trkpt lat="43.6604282" lon="12.6335625"><ele>236.0</ele><time>2026-05-02T09:18:09.314Z</time></trkpt><trkpt lat="43.6602602" lon="12.6334435"><ele>238.0</ele><time>2026-05-02T09:18:10.315Z</time></trkpt><trkpt lat="43.6600789" lon="12.6333119"><ele>240.0</ele><time>2026-05-02T09:18:11.317Z</time></trkpt><trkpt lat="43.6598884" lon="12.6331705"><ele>242.0</ele><time>2026-05-02T09:18:12.315Z</time></trkpt><trkpt lat="43.6596985" lon="12.6330413"><ele>242.0</ele><time>2026-05-02T09:18:13.319Z</time></trkpt><trkpt lat="43.6595172" lon="12.6329077"><ele>242.0</ele><time>2026-05-02T09:18:14.313Z</time></trkpt><trkpt lat="43.6593465" lon="12.6327819"><ele>242.0</ele><time>2026-05-02T09:18:15.31Z</time></trkpt><trkpt lat="43.6591887" lon="12.6326903"><ele>240.0</ele><time>2026-05-02T09:18:16.316Z</time></trkpt><trkpt lat="43.6590363" lon="12.632632"><ele>238.0</ele><time>2026-05-02T09:18:17.314Z</time></trkpt><trkpt lat="43.6588882" lon="12.6325911"><ele>236.0</ele><time>2026-05-02T09:18:18.316Z</time></trkpt><trkpt lat="43.6587376" lon="12.6325537"><ele>237.0</ele><time>2026-05-02T09:18:19.315Z</time></trkpt><trkpt lat="43.6585755" lon="12.6325179"><ele>238.0</ele><time>2026-05-02T09:18:20.312Z</time></trkpt><trkpt lat="43.6584177" lon="12.6324887"><ele>239.0</ele><time>2026-05-02T09:18:21.316Z</time></trkpt><trkpt lat="43.658251" lon="12.6324443"><ele>239.0</ele><time>2026-05-02T09:18:22.316Z</time></trkpt><trkpt lat="43.6580693" lon="12.6324227"><ele>239.0</ele><time>2026-05-02T09:18:23.315Z</time></trkpt><trkpt lat="43.6578911" lon="12.6323925"><ele>239.0</ele><time>2026-05-02T09:18:24.315Z</time></trkpt><trkpt lat="43.6577323" lon="12.6323567"><ele>239.0</ele><time>2026-05-02T09:18:25.316Z</time></trkpt><trkpt lat="43.6575721" lon="12.6323289"><ele>239.0</ele><time>2026-05-02T09:18:26.316Z</time></trkpt><trkpt lat="43.6574125" lon="12.6322924"><ele>239.0</ele><time>2026-05-02T09:18:27.315Z</time></trkpt><trkpt lat="43.657246" lon="12.6322516"><ele>239.0</ele><time>2026-05-02T09:18:28.316Z</time></trkpt><trkpt lat="43.6570839" lon="12.6321977"><ele>239.0</ele><time>2026-05-02T09:18:29.314Z</time></trkpt><trkpt lat="43.6569367" lon="12.6321515"><ele>239.0</ele><time>2026-05-02T09:18:30.315Z</time></trkpt><trkpt lat="43.6568189" lon="12.6320602"><ele>240.0</ele><time>2026-05-02T09:18:31.317Z</time></trkpt><trkpt lat="43.6566987" lon="12.6319507"><ele>241.0</ele><time>2026-05-02T09:18:32.316Z</time></trkpt><trkpt lat="43.6566024" lon="12.6318058"><ele>242.0</ele><time>2026-05-02T09:18:33.314Z</time></trkpt><trkpt lat="43.6565122" lon="12.6316396"><ele>243.0</ele><time>2026-05-02T09:18:34.316Z</time></trkpt><trkpt lat="43.65642" lon="12.6314866"><ele>243.0</ele><time>2026-05-02T09:18:35.316Z</time></trkpt><trkpt lat="43.6563002" lon="12.6313704"><ele>243.0</ele><time>2026-05-02T09:18:36.315Z</time></trkpt><trkpt lat="43.6561938" lon="12.631253"><ele>243.0</ele><time>2026-05-02T09:18:37.315Z</time></trkpt><trkpt lat="43.6560628" lon="12.6311085"><ele>244.0</ele><time>2026-05-02T09:18:38.31Z</time></trkpt><trkpt lat="43.6559395" lon="12.6309754"><ele>245.0</ele><time>2026-05-02T09:18:39.315Z</time></trkpt><trkpt lat="43.65582" lon="12.6308502"><ele>246.0</ele><time>2026-05-02T09:18:40.315Z</time></trkpt><trkpt lat="43.6556958" lon="12.630733"><ele>246.0</ele><time>2026-05-02T09:18:41.318Z</time></trkpt><trkpt lat="43.6555613" lon="12.630646"><ele>246.0</ele><time>2026-05-02T09:18:42.314Z</time></trkpt><trkpt lat="43.6554105" lon="12.6305739"><ele>246.0</ele><time>2026-05-02T09:18:43.315Z</time></trkpt><trkpt lat="43.6552401" lon="12.6305185"><ele>247.66666666666669</ele><time>2026-05-02T09:18:44.317Z</time></trkpt><trkpt lat="43.6550535" lon="12.6304658"><ele>249.33333333333334</ele><time>2026-05-02T09:18:45.316Z</time></trkpt><trkpt lat="43.6548265" lon="12.630406"><ele>251.0</ele><time>2026-05-02T09:18:46.315Z</time></trkpt><trkpt lat="43.6546025" lon="12.6303377"><ele>248.33333333333334</ele><time>2026-05-02T09:18:47.314Z</time></trkpt><trkpt lat="43.6543798" lon="12.6302747"><ele>245.66666666666669</ele><time>2026-05-02T09:18:48.317Z</time></trkpt><trkpt lat="43.6541686" lon="12.6302115"><ele>243.0</ele><time>2026-05-02T09:18:49.315Z</time></trkpt><trkpt lat="43.653943" lon="12.6301567"><ele>243.0</ele><time>2026-05-02T09:18:50.314Z</time></trkpt><trkpt lat="43.6537205" lon="12.6300878"><ele>243.0</ele><time>2026-05-02T09:18:51.316Z</time></trkpt><trkpt lat="43.653507" lon="12.6300185"><ele>243.0</ele><time>2026-05-02T09:18:52.32Z</time></trkpt><trkpt lat="43.6532861" lon="12.6299542"><ele>243.33333333333331</ele><time>2026-05-02T09:18:53.315Z</time></trkpt><trkpt lat="43.6530853" lon="12.6298952"><ele>243.66666666666666</ele><time>2026-05-02T09:18:54.315Z</time></trkpt><trkpt lat="43.6528878" lon="12.6298395"><ele>244.0</ele><time>2026-05-02T09:18:55.319Z</time></trkpt><trkpt lat="43.6526999" lon="12.6297785"><ele>244.0</ele><time>2026-05-02T09:18:56.316Z</time></trkpt><trkpt lat="43.6525259" lon="12.6297312"><ele>244.0</ele><time>2026-05-02T09:18:57.316Z</time></trkpt><trkpt lat="43.6523742" lon="12.6296911"><ele>244.0</ele><time>2026-05-02T09:18:58.315Z</time></trkpt><trkpt lat="43.6522356" lon="12.6296465"><ele>244.0</ele><time>2026-05-02T09:18:59.316Z</time></trkpt><trkpt lat="43.6521057" lon="12.6296084"><ele>244.0</ele><time>2026-05-02T09:19:00.317Z</time></trkpt><trkpt lat="43.6520026" lon="12.6296026"><ele>244.0</ele><time>2026-05-02T09:19:01.316Z</time></trkpt><trkpt lat="43.6519141" lon="12.6295279"><ele>244.0</ele><time>2026-05-02T09:19:04.316Z</time></trkpt><trkpt lat="43.6518387" lon="12.6293921"><ele>245.6</ele><time>2026-05-02T09:19:06.313Z</time></trkpt><trkpt lat="43.6517639" lon="12.6293661"><ele>247.2</ele><time>2026-05-02T09:19:07.313Z</time></trkpt><trkpt lat="43.6516929" lon="12.6293516"><ele>248.79999999999998</ele><time>2026-05-02T09:19:08.312Z</time></trkpt><trkpt lat="43.6515929" lon="12.6293868"><ele>250.39999999999998</ele><time>2026-05-02T09:19:09.312Z</time></trkpt><trkpt lat="43.6514934" lon="12.6293913"><ele>252.0</ele><time>2026-05-02T09:19:10.312Z</time></trkpt><trkpt lat="43.6513884" lon="12.6293778"><ele>252.0</ele><time>2026-05-02T09:19:11.312Z</time></trkpt><trkpt lat="43.6512865" lon="12.6293511"><ele>252.0</ele><time>2026-05-02T09:19:12.311Z</time></trkpt><trkpt lat="43.6511886" lon="12.6293148"><ele>252.0</ele><time>2026-05-02T09:19:13.311Z</time></trkpt><trkpt lat="43.6511056" lon="12.6292678"><ele>252.0</ele><time>2026-05-02T09:19:14.311Z</time></trkpt><trkpt lat="43.6510326" lon="12.629227"><ele>252.0</ele><time>2026-05-02T09:19:15.309Z</time></trkpt><trkpt lat="43.6509283" lon="12.6291655"><ele>252.0</ele><time>2026-05-02T09:19:17.316Z</time></trkpt><trkpt lat="43.6508698" lon="12.6291128"><ele>252.0</ele><time>2026-05-02T09:19:19.314Z</time></trkpt><trkpt lat="43.6508055" lon="12.6289899"><ele>252.0</ele><time>2026-05-02T09:19:23.317Z</time></trkpt><trkpt lat="43.6507635" lon="12.6288821"><ele>252.0</ele><time>2026-05-02T09:19:24.314Z</time></trkpt><trkpt lat="43.6507252" lon="12.6287565"><ele>252.0</ele><time>2026-05-02T09:19:25.317Z</time></trkpt><trkpt lat="43.6506732" lon="12.6286094"><ele>252.0</ele><time>2026-05-02T09:19:26.316Z</time></trkpt><trkpt lat="43.6505774" lon="12.6285022"><ele>252.0</ele><time>2026-05-02T09:19:27.315Z</time></trkpt><trkpt lat="43.6504508" lon="12.6284199"><ele>252.0</ele><time>2026-05-02T09:19:28.315Z</time></trkpt><trkpt lat="43.6503038" lon="12.6283042"><ele>252.0</ele><time>2026-05-02T09:19:29.316Z</time></trkpt><trkpt lat="43.6501602" lon="12.628148"><ele>250.66666666666669</ele><time>2026-05-02T09:19:30.315Z</time></trkpt><trkpt lat="43.6500071" lon="12.6279985"><ele>249.33333333333334</ele><time>2026-05-02T09:19:31.317Z</time></trkpt><trkpt lat="43.6498525" lon="12.6278702"><ele>248.0</ele><time>2026-05-02T09:19:32.315Z</time></trkpt><trkpt lat="43.6497073" lon="12.6277653"><ele>249.25</ele><time>2026-05-02T09:19:33.315Z</time></trkpt><trkpt lat="43.6495679" lon="12.6276793"><ele>250.5</ele><time>2026-05-02T09:19:34.316Z</time></trkpt><trkpt lat="43.6494272" lon="12.6276065"><ele>251.75</ele><time>2026-05-02T09:19:35.314Z</time></trkpt><trkpt lat="43.6492974" lon="12.6275198"><ele>253.0</ele><time>2026-05-02T09:19:36.315Z</time></trkpt><trkpt lat="43.6491922" lon="12.6274138"><ele>253.0</ele><time>2026-05-02T09:19:37.317Z</time></trkpt><trkpt lat="43.6490925" lon="12.6272792"><ele>253.0</ele><time>2026-05-02T09:19:38.315Z</time></trkpt><trkpt lat="43.6489955" lon="12.6271589"><ele>253.0</ele><time>2026-05-02T09:19:39.316Z</time></trkpt><trkpt lat="43.6489384" lon="12.6269623"><ele>253.0</ele><time>2026-05-02T09:19:40.316Z</time></trkpt><trkpt lat="43.6488868" lon="12.6267665"><ele>256.0</ele><time>2026-05-02T09:19:41.314Z</time></trkpt><trkpt lat="43.6488472" lon="12.6265766"><ele>259.0</ele><time>2026-05-02T09:19:42.313Z</time></trkpt><trkpt lat="43.6488246" lon="12.626356"><ele>262.0</ele><time>2026-05-02T09:19:43.316Z</time></trkpt><trkpt lat="43.6487805" lon="12.626147"><ele>263.3333333333333</ele><time>2026-05-02T09:19:44.316Z</time></trkpt><trkpt lat="43.6487371" lon="12.6259355"><ele>264.6666666666667</ele><time>2026-05-02T09:19:45.313Z</time></trkpt><trkpt lat="43.6486767" lon="12.625735"><ele>266.0</ele><time>2026-05-02T09:19:46.316Z</time></trkpt><trkpt lat="43.6486359" lon="12.6255497"><ele>264.0</ele><time>2026-05-02T09:19:47.313Z</time></trkpt><trkpt lat="43.6485916" lon="12.6253637"><ele>262.0</ele><time>2026-05-02T09:19:48.313Z</time></trkpt><trkpt lat="43.6485475" lon="12.6251656"><ele>260.0</ele><time>2026-05-02T09:19:49.315Z</time></trkpt><trkpt lat="43.6485121" lon="12.6250126"><ele>258.0</ele><time>2026-05-02T09:19:50.316Z</time></trkpt><trkpt lat="43.6484395" lon="12.6248682"><ele>258.0</ele><time>2026-05-02T09:19:51.316Z</time></trkpt><trkpt lat="43.6484008" lon="12.6247067"><ele>258.0</ele><time>2026-05-02T09:19:52.319Z</time></trkpt><trkpt lat="43.6482839" lon="12.6246246"><ele>258.0</ele><time>2026-05-02T09:19:53.315Z</time></trkpt><trkpt lat="43.6482158" lon="12.6245451"><ele>258.0</ele><time>2026-05-02T09:19:54.315Z</time></trkpt><trkpt lat="43.6481495" lon="12.6244697"><ele>258.0</ele><time>2026-05-02T09:19:55.313Z</time></trkpt><trkpt lat="43.6480416" lon="12.6244138"><ele>258.0</ele><time>2026-05-02T09:19:56.318Z</time></trkpt><trkpt lat="43.6479456" lon="12.6243531"><ele>258.0</ele><time>2026-05-02T09:19:57.316Z</time></trkpt><trkpt lat="43.6478392" lon="12.6242991"><ele>258.0</ele><time>2026-05-02T09:19:58.315Z</time></trkpt><trkpt lat="43.6477484" lon="12.6242509"><ele>258.0</ele><time>2026-05-02T09:19:59.317Z</time></trkpt><trkpt lat="43.6476463" lon="12.6241973"><ele>258.0</ele><time>2026-05-02T09:20:00.317Z</time></trkpt><trkpt lat="43.6475529" lon="12.6241297"><ele>258.0</ele><time>2026-05-02T09:20:01.316Z</time></trkpt><trkpt lat="43.6474681" lon="12.6240837"><ele>258.0</ele><time>2026-05-02T09:20:02.315Z</time></trkpt><trkpt lat="43.6473385" lon="12.6240095"><ele>258.0</ele><time>2026-05-02T09:20:03.316Z</time></trkpt><trkpt lat="43.6472387" lon="12.6239558"><ele>258.0</ele><time>2026-05-02T09:20:04.315Z</time></trkpt><trkpt lat="43.6471391" lon="12.6238942"><ele>258.0</ele><time>2026-05-02T09:20:05.314Z</time></trkpt><trkpt lat="43.6470427" lon="12.6238146"><ele>257.75</ele><time>2026-05-02T09:20:06.321Z</time></trkpt><trkpt lat="43.6469504" lon="12.6237205"><ele>257.5</ele><time>2026-05-02T09:20:07.317Z</time></trkpt><trkpt lat="43.6468455" lon="12.6236281"><ele>257.25</ele><time>2026-05-02T09:20:08.315Z</time></trkpt><trkpt lat="43.6467524" lon="12.623532"><ele>257.0</ele><time>2026-05-02T09:20:09.315Z</time></trkpt><trkpt lat="43.6466636" lon="12.6234456"><ele>257.4</ele><time>2026-05-02T09:20:10.318Z</time></trkpt><trkpt lat="43.6465811" lon="12.6233655"><ele>257.79999999999995</ele><time>2026-05-02T09:20:11.315Z</time></trkpt><trkpt lat="43.6464908" lon="12.6232764"><ele>258.2</ele><time>2026-05-02T09:20:12.315Z</time></trkpt><trkpt lat="43.6464127" lon="12.6231734"><ele>258.59999999999997</ele><time>2026-05-02T09:20:13.319Z</time></trkpt><trkpt lat="43.6463432" lon="12.6230531"><ele>259.0</ele><time>2026-05-02T09:20:14.319Z</time></trkpt><trkpt lat="43.6462893" lon="12.6229357"><ele>259.0</ele><time>2026-05-02T09:20:15.314Z</time></trkpt><trkpt lat="43.646227" lon="12.6228239"><ele>259.0</ele><time>2026-05-02T09:20:16.316Z</time></trkpt><trkpt lat="43.6461565" lon="12.6227489"><ele>259.0</ele><time>2026-05-02T09:20:17.316Z</time></trkpt><trkpt lat="43.6460851" lon="12.6226767"><ele>259.0</ele><time>2026-05-02T09:20:18.32Z</time></trkpt><trkpt lat="43.6459929" lon="12.6226207"><ele>259.0</ele><time>2026-05-02T09:20:19.315Z</time></trkpt><trkpt lat="43.6459046" lon="12.6225568"><ele>259.0</ele><time>2026-05-02T09:20:20.317Z</time></trkpt><trkpt lat="43.6457687" lon="12.6224986"><ele>259.0</ele><time>2026-05-02T09:20:21.316Z</time></trkpt><trkpt lat="43.6456388" lon="12.6224639"><ele>259.0</ele><time>2026-05-02T09:20:22.32Z</time></trkpt><trkpt lat="43.6455255" lon="12.6224395"><ele>259.0</ele><time>2026-05-02T09:20:23.316Z</time></trkpt><trkpt lat="43.6454094" lon="12.6224235"><ele>259.75</ele><time>2026-05-02T09:20:24.315Z</time></trkpt><trkpt lat="43.6452894" lon="12.6224331"><ele>260.5</ele><time>2026-05-02T09:20:25.321Z</time></trkpt><trkpt lat="43.6451756" lon="12.6224414"><ele>261.25</ele><time>2026-05-02T09:20:26.317Z</time></trkpt><trkpt lat="43.6450438" lon="12.6224615"><ele>262.0</ele><time>2026-05-02T09:20:27.315Z</time></trkpt><trkpt lat="43.6449243" lon="12.6224345"><ele>262.0</ele><time>2026-05-02T09:20:28.321Z</time></trkpt><trkpt lat="43.6447923" lon="12.6224263"><ele>262.0</ele><time>2026-05-02T09:20:29.315Z</time></trkpt><trkpt lat="43.6446519" lon="12.6223905"><ele>262.0</ele><time>2026-05-02T09:20:30.316Z</time></trkpt><trkpt lat="43.6445153" lon="12.6223371"><ele>262.0</ele><time>2026-05-02T09:20:31.312Z</time></trkpt><trkpt lat="43.6443821" lon="12.6222714"><ele>261.75</ele><time>2026-05-02T09:20:32.313Z</time></trkpt><trkpt lat="43.6442607" lon="12.6222016"><ele>261.5</ele><time>2026-05-02T09:20:33.316Z</time></trkpt><trkpt lat="43.644146" lon="12.6221252"><ele>261.25</ele><time>2026-05-02T09:20:34.312Z</time></trkpt><trkpt lat="43.6440365" lon="12.6220399"><ele>261.0</ele><time>2026-05-02T09:20:35.315Z</time></trkpt><trkpt lat="43.6439345" lon="12.6219507"><ele>261.75</ele><time>2026-05-02T09:20:36.315Z</time></trkpt><trkpt lat="43.6438407" lon="12.6218282"><ele>262.5</ele><time>2026-05-02T09:20:37.314Z</time></trkpt><trkpt lat="43.6437365" lon="12.6216867"><ele>263.25</ele><time>2026-05-02T09:20:38.314Z</time></trkpt><trkpt lat="43.6436352" lon="12.6215322"><ele>264.0</ele><time>2026-05-02T09:20:39.315Z</time></trkpt><trkpt lat="43.6435271" lon="12.6213626"><ele>264.0</ele><time>2026-05-02T09:20:40.314Z</time></trkpt><trkpt lat="43.6434194" lon="12.6211872"><ele>264.0</ele><time>2026-05-02T09:20:41.315Z</time></trkpt><trkpt lat="43.6433159" lon="12.6210114"><ele>264.0</ele><time>2026-05-02T09:20:42.316Z</time></trkpt><trkpt lat="43.6432155" lon="12.6208466"><ele>266.0</ele><time>2026-05-02T09:20:43.315Z</time></trkpt><trkpt lat="43.6431221" lon="12.6206919"><ele>268.0</ele><time>2026-05-02T09:20:44.315Z</time></trkpt><trkpt lat="43.6430261" lon="12.6205439"><ele>270.0</ele><time>2026-05-02T09:20:45.314Z</time></trkpt><trkpt lat="43.6429305" lon="12.620405"><ele>272.0</ele><time>2026-05-02T09:20:46.314Z</time></trkpt><trkpt lat="43.6428292" lon="12.6202692"><ele>272.25</ele><time>2026-05-02T09:20:47.314Z</time></trkpt><trkpt lat="43.6427294" lon="12.6201413"><ele>272.5</ele><time>2026-05-02T09:20:48.315Z</time></trkpt><trkpt lat="43.6426173" lon="12.620007"><ele>272.75</ele><time>2026-05-02T09:20:49.316Z</time></trkpt><trkpt lat="43.6425068" lon="12.6198746"><ele>273.0</ele><time>2026-05-02T09:20:50.313Z</time></trkpt><trkpt lat="43.6423873" lon="12.6197478"><ele>273.0</ele><time>2026-05-02T09:20:51.316Z</time></trkpt><trkpt lat="43.6422838" lon="12.6196159"><ele>273.0</ele><time>2026-05-02T09:20:52.316Z</time></trkpt><trkpt lat="43.6421683" lon="12.6194567"><ele>273.0</ele><time>2026-05-02T09:20:53.316Z</time></trkpt><trkpt lat="43.6420332" lon="12.6193186"><ele>273.75</ele><time>2026-05-02T09:20:54.315Z</time></trkpt><trkpt lat="43.6419301" lon="12.6191758"><ele>274.5</ele><time>2026-05-02T09:20:55.313Z</time></trkpt><trkpt lat="43.6418151" lon="12.6190411"><ele>275.25</ele><time>2026-05-02T09:20:56.315Z</time></trkpt><trkpt lat="43.6417162" lon="12.6189312"><ele>276.0</ele><time>2026-05-02T09:20:57.316Z</time></trkpt><trkpt lat="43.6416223" lon="12.6188161"><ele>276.0</ele><time>2026-05-02T09:20:58.32Z</time></trkpt><trkpt lat="43.6415069" lon="12.6187148"><ele>276.0</ele><time>2026-05-02T09:20:59.311Z</time></trkpt><trkpt lat="43.6413873" lon="12.618626"><ele>276.0</ele><time>2026-05-02T09:21:00.316Z</time></trkpt><trkpt lat="43.6412791" lon="12.6185461"><ele>276.0</ele><time>2026-05-02T09:21:01.32Z</time></trkpt><trkpt lat="43.6411915" lon="12.6184459"><ele>276.6</ele><time>2026-05-02T09:21:02.313Z</time></trkpt><trkpt lat="43.6411034" lon="12.6183609"><ele>277.20000000000005</ele><time>2026-05-02T09:21:03.316Z</time></trkpt><trkpt lat="43.6410117" lon="12.6182751"><ele>277.79999999999995</ele><time>2026-05-02T09:21:04.318Z</time></trkpt><trkpt lat="43.640932" lon="12.6181939"><ele>278.4</ele><time>2026-05-02T09:21:05.316Z</time></trkpt><trkpt lat="43.6408693" lon="12.6181282"><ele>279.0</ele><time>2026-05-02T09:21:06.314Z</time></trkpt><trkpt lat="43.6407732" lon="12.6180445"><ele>279.0</ele><time>2026-05-02T09:21:08.307Z</time></trkpt><trkpt lat="43.6407125" lon="12.617983"><ele>279.0</ele><time>2026-05-02T09:21:11.314Z</time></trkpt><trkpt lat="43.6406357" lon="12.6179129"><ele>279.0</ele><time>2026-05-02T09:21:40.312Z</time></trkpt><trkpt lat="43.640528" lon="12.6178065"><ele>279.0</ele><time>2026-05-02T09:21:42.32Z</time></trkpt><trkpt lat="43.6404639" lon="12.6177471"><ele>279.0</ele><time>2026-05-02T09:21:43.316Z</time></trkpt><trkpt lat="43.6403957" lon="12.6176911"><ele>279.8</ele><time>2026-05-02T09:21:44.318Z</time></trkpt><trkpt lat="43.6403145" lon="12.6176043"><ele>280.59999999999997</ele><time>2026-05-02T09:21:45.316Z</time></trkpt><trkpt lat="43.6402306" lon="12.6175258"><ele>281.4</ele><time>2026-05-02T09:21:46.318Z</time></trkpt><trkpt lat="43.6401462" lon="12.6174512"><ele>282.2</ele><time>2026-05-02T09:21:47.316Z</time></trkpt><trkpt lat="43.6400649" lon="12.6173681"><ele>283.0</ele><time>2026-05-02T09:21:48.322Z</time></trkpt><trkpt lat="43.6399844" lon="12.6172819"><ele>283.0</ele><time>2026-05-02T09:21:49.317Z</time></trkpt><trkpt lat="43.6399074" lon="12.6171864"><ele>283.0</ele><time>2026-05-02T09:21:50.317Z</time></trkpt><trkpt lat="43.6398144" lon="12.6170911"><ele>283.0</ele><time>2026-05-02T09:21:51.315Z</time></trkpt><trkpt lat="43.6397185" lon="12.616996"><ele>283.0</ele><time>2026-05-02T09:21:52.316Z</time></trkpt><trkpt lat="43.6396228" lon="12.6168907"><ele>284.5</ele><time>2026-05-02T09:21:53.316Z</time></trkpt><trkpt lat="43.6395164" lon="12.6167893"><ele>286.0</ele><time>2026-05-02T09:21:54.315Z</time></trkpt><trkpt lat="43.6394098" lon="12.6166738"><ele>287.5</ele><time>2026-05-02T09:21:55.315Z</time></trkpt><trkpt lat="43.6393073" lon="12.6165671"><ele>289.0</ele><time>2026-05-02T09:21:56.314Z</time></trkpt><trkpt lat="43.6392058" lon="12.6164533"><ele>289.0</ele><time>2026-05-02T09:21:57.316Z</time></trkpt><trkpt lat="43.6391087" lon="12.6163451"><ele>289.0</ele><time>2026-05-02T09:21:58.309Z</time></trkpt><trkpt lat="43.6390126" lon="12.6162401"><ele>289.0</ele><time>2026-05-02T09:21:59.316Z</time></trkpt><trkpt lat="43.6389211" lon="12.6161369"><ele>289.0</ele><time>2026-05-02T09:22:00.318Z</time></trkpt><trkpt lat="43.6388274" lon="12.6160518"><ele>290.2</ele><time>2026-05-02T09:22:01.321Z</time></trkpt><trkpt lat="43.6387411" lon="12.6159685"><ele>291.4</ele><time>2026-05-02T09:22:02.315Z</time></trkpt><trkpt lat="43.6386554" lon="12.615881"><ele>292.6</ele><time>2026-05-02T09:22:03.318Z</time></trkpt><trkpt lat="43.6385717" lon="12.6157892"><ele>293.8</ele><time>2026-05-02T09:22:04.316Z</time></trkpt><trkpt lat="43.6384966" lon="12.615686"><ele>295.0</ele><time>2026-05-02T09:22:05.316Z</time></trkpt><trkpt lat="43.6384281" lon="12.6155804"><ele>295.0</ele><time>2026-05-02T09:22:06.316Z</time></trkpt><trkpt lat="43.6383606" lon="12.6154773"><ele>295.0</ele><time>2026-05-02T09:22:07.319Z</time></trkpt><trkpt lat="43.6382972" lon="12.6153688"><ele>295.0</ele><time>2026-05-02T09:22:08.315Z</time></trkpt><trkpt lat="43.6382366" lon="12.615271"><ele>295.0</ele><time>2026-05-02T09:22:09.315Z</time></trkpt><trkpt lat="43.6381616" lon="12.6151728"><ele>295.0</ele><time>2026-05-02T09:22:10.314Z</time></trkpt><trkpt lat="43.6380853" lon="12.6150833"><ele>295.5</ele><time>2026-05-02T09:22:11.316Z</time></trkpt><trkpt lat="43.6380102" lon="12.6150043"><ele>296.0</ele><time>2026-05-02T09:22:12.314Z</time></trkpt><trkpt lat="43.6379392" lon="12.6149258"><ele>296.5</ele><time>2026-05-02T09:22:13.316Z</time></trkpt><trkpt lat="43.6378706" lon="12.6148554"><ele>297.0</ele><time>2026-05-02T09:22:14.314Z</time></trkpt><trkpt lat="43.637807" lon="12.614781"><ele>297.5</ele><time>2026-05-02T09:22:15.316Z</time></trkpt><trkpt lat="43.637738" lon="12.6147136"><ele>298.0</ele><time>2026-05-02T09:22:16.317Z</time></trkpt><trkpt lat="43.6376756" lon="12.6146526"><ele>298.0</ele><time>2026-05-02T09:22:17.314Z</time></trkpt><trkpt lat="43.6376172" lon="12.6145926"><ele>298.0</ele><time>2026-05-02T09:22:18.317Z</time></trkpt><trkpt lat="43.6375567" lon="12.6145486"><ele>298.0</ele><time>2026-05-02T09:22:19.315Z</time></trkpt><trkpt lat="43.6374837" lon="12.6145267"><ele>298.0</ele><time>2026-05-02T09:22:20.317Z</time></trkpt><trkpt lat="43.6374094" lon="12.6145324"><ele>298.0</ele><time>2026-05-02T09:22:21.315Z</time></trkpt><trkpt lat="43.6373395" lon="12.614571"><ele>298.0</ele><time>2026-05-02T09:22:22.316Z</time></trkpt><trkpt lat="43.6372763" lon="12.614639"><ele>298.0</ele><time>2026-05-02T09:22:23.315Z</time></trkpt><trkpt lat="43.6372081" lon="12.6147311"><ele>298.0</ele><time>2026-05-02T09:22:24.314Z</time></trkpt><trkpt lat="43.6371465" lon="12.6148119"><ele>298.0</ele><time>2026-05-02T09:22:25.315Z</time></trkpt><trkpt lat="43.6370791" lon="12.6148771"><ele>298.0</ele><time>2026-05-02T09:22:26.315Z</time></trkpt><trkpt lat="43.6370071" lon="12.6149133"><ele>298.0</ele><time>2026-05-02T09:22:27.316Z</time></trkpt><trkpt lat="43.6369303" lon="12.6149563"><ele>298.0</ele><time>2026-05-02T09:22:28.311Z</time></trkpt><trkpt lat="43.6368331" lon="12.6148801"><ele>298.0</ele><time>2026-05-02T09:22:29.317Z</time></trkpt><trkpt lat="43.6367298" lon="12.6148121"><ele>297.0</ele><time>2026-05-02T09:22:30.304Z</time></trkpt><trkpt lat="43.6366155" lon="12.614725"><ele>296.0</ele><time>2026-05-02T09:22:31.316Z</time></trkpt><trkpt lat="43.6364817" lon="12.6146147"><ele>295.0</ele><time>2026-05-02T09:22:32.315Z</time></trkpt><trkpt lat="43.6363692" lon="12.6145198"><ele>294.0</ele><time>2026-05-02T09:22:33.315Z</time></trkpt><trkpt lat="43.6362684" lon="12.6144312"><ele>296.5</ele><time>2026-05-02T09:22:34.315Z</time></trkpt><trkpt lat="43.6361629" lon="12.6143463"><ele>299.0</ele><time>2026-05-02T09:22:35.314Z</time></trkpt><trkpt lat="43.6360626" lon="12.6142716"><ele>301.5</ele><time>2026-05-02T09:22:36.315Z</time></trkpt><trkpt lat="43.63596" lon="12.6142115"><ele>304.0</ele><time>2026-05-02T09:22:37.314Z</time></trkpt><trkpt lat="43.6358433" lon="12.6141718"><ele>304.75</ele><time>2026-05-02T09:22:38.316Z</time></trkpt><trkpt lat="43.6357228" lon="12.6141297"><ele>305.5</ele><time>2026-05-02T09:22:39.317Z</time></trkpt><trkpt lat="43.6355964" lon="12.6141423"><ele>306.25</ele><time>2026-05-02T09:22:40.315Z</time></trkpt><trkpt lat="43.6354736" lon="12.6141485"><ele>307.0</ele><time>2026-05-02T09:22:41.314Z</time></trkpt><trkpt lat="43.6353478" lon="12.6141532"><ele>307.25</ele><time>2026-05-02T09:22:42.314Z</time></trkpt><trkpt lat="43.635222" lon="12.6141423"><ele>307.5</ele><time>2026-05-02T09:22:43.316Z</time></trkpt><trkpt lat="43.6350937" lon="12.6141175"><ele>307.75</ele><time>2026-05-02T09:22:44.309Z</time></trkpt><trkpt lat="43.6349778" lon="12.6140691"><ele>308.0</ele><time>2026-05-02T09:22:45.314Z</time></trkpt><trkpt lat="43.6348607" lon="12.613991"><ele>308.0</ele><time>2026-05-02T09:22:46.312Z</time></trkpt><trkpt lat="43.6347181" lon="12.613915"><ele>308.0</ele><time>2026-05-02T09:22:47.315Z</time></trkpt><trkpt lat="43.6345866" lon="12.613865"><ele>308.0</ele><time>2026-05-02T09:22:48.315Z</time></trkpt><trkpt lat="43.6344415" lon="12.6138104"><ele>308.0</ele><time>2026-05-02T09:22:49.316Z</time></trkpt><trkpt lat="43.6343127" lon="12.6137497"><ele>310.5</ele><time>2026-05-02T09:22:50.315Z</time></trkpt><trkpt lat="43.6341965" lon="12.613694"><ele>313.0</ele><time>2026-05-02T09:22:51.314Z</time></trkpt><trkpt lat="43.6340864" lon="12.6136463"><ele>315.5</ele><time>2026-05-02T09:22:52.32Z</time></trkpt><trkpt lat="43.633975" lon="12.6136074"><ele>318.0</ele><time>2026-05-02T09:22:53.315Z</time></trkpt><trkpt lat="43.6338677" lon="12.6135667"><ele>319.4</ele><time>2026-05-02T09:22:54.315Z</time></trkpt><trkpt lat="43.6337666" lon="12.6135271"><ele>320.8</ele><time>2026-05-02T09:22:55.315Z</time></trkpt><trkpt lat="43.6336637" lon="12.6134938"><ele>322.2</ele><time>2026-05-02T09:22:56.316Z</time></trkpt><trkpt lat="43.6335682" lon="12.6134185"><ele>323.6</ele><time>2026-05-02T09:22:57.317Z</time></trkpt><trkpt lat="43.6334776" lon="12.613353"><ele>325.0</ele><time>2026-05-02T09:22:58.315Z</time></trkpt><trkpt lat="43.6333944" lon="12.6132892"><ele>325.2</ele><time>2026-05-02T09:22:59.314Z</time></trkpt><trkpt lat="43.6333096" lon="12.6132228"><ele>325.4</ele><time>2026-05-02T09:23:00.314Z</time></trkpt><trkpt lat="43.6332253" lon="12.613132"><ele>325.6</ele><time>2026-05-02T09:23:01.324Z</time></trkpt><trkpt lat="43.6331239" lon="12.6130454"><ele>325.8</ele><time>2026-05-02T09:23:02.318Z</time></trkpt><trkpt lat="43.6330337" lon="12.6129537"><ele>326.0</ele><time>2026-05-02T09:23:03.314Z</time></trkpt><trkpt lat="43.6329405" lon="12.6128763"><ele>328.8</ele><time>2026-05-02T09:23:04.318Z</time></trkpt><trkpt lat="43.6328761" lon="12.6128048"><ele>331.6</ele><time>2026-05-02T09:23:05.315Z</time></trkpt><trkpt lat="43.6328128" lon="12.6127471"><ele>334.4</ele><time>2026-05-02T09:23:06.315Z</time></trkpt><trkpt lat="43.6327499" lon="12.6127103"><ele>337.2</ele><time>2026-05-02T09:23:07.441Z</time></trkpt><trkpt lat="43.6326256" lon="12.6127124"><ele>340.0</ele><time>2026-05-02T09:23:09.315Z</time></trkpt><trkpt lat="43.63257" lon="12.6128289"><ele>340.6</ele><time>2026-05-02T09:23:10.316Z</time></trkpt><trkpt lat="43.6325131" lon="12.6129125"><ele>341.2</ele><time>2026-05-02T09:23:11.315Z</time></trkpt><trkpt lat="43.6324628" lon="12.613006"><ele>341.79999999999995</ele><time>2026-05-02T09:23:12.315Z</time></trkpt><trkpt lat="43.6324008" lon="12.6130725"><ele>342.4</ele><time>2026-05-02T09:23:13.32Z</time></trkpt><trkpt lat="43.6323315" lon="12.6131042"><ele>343.0</ele><time>2026-05-02T09:23:14.318Z</time></trkpt><trkpt lat="43.6322036" lon="12.6130358"><ele>343.0</ele><time>2026-05-02T09:23:16.317Z</time></trkpt><trkpt lat="43.6321592" lon="12.612953"><ele>343.0</ele><time>2026-05-02T09:23:17.314Z</time></trkpt><trkpt lat="43.632106" lon="12.6128517"><ele>343.0</ele><time>2026-05-02T09:23:18.315Z</time></trkpt><trkpt lat="43.6320466" lon="12.6127335"><ele>343.0</ele><time>2026-05-02T09:23:19.315Z</time></trkpt><trkpt lat="43.6319967" lon="12.6126176"><ele>343.0</ele><time>2026-05-02T09:23:20.338Z</time></trkpt><trkpt lat="43.6319353" lon="12.6125025"><ele>346.0</ele><time>2026-05-02T09:23:21.316Z</time></trkpt><trkpt lat="43.6318661" lon="12.6123872"><ele>349.0</ele><time>2026-05-02T09:23:22.313Z</time></trkpt><trkpt lat="43.6317944" lon="12.6122863"><ele>352.0</ele><time>2026-05-02T09:23:23.317Z</time></trkpt><trkpt lat="43.631745" lon="12.6122013"><ele>355.0</ele><time>2026-05-02T09:23:24.315Z</time></trkpt><trkpt lat="43.6317063" lon="12.6121281"><ele>358.0</ele><time>2026-05-02T09:23:25.315Z</time></trkpt><trkpt lat="43.6316364" lon="12.6119693"><ele>358.0</ele><time>2026-05-02T09:23:27.315Z</time></trkpt><trkpt lat="43.6316031" lon="12.6118793"><ele>358.0</ele><time>2026-05-02T09:23:28.315Z</time></trkpt><trkpt lat="43.6315698" lon="12.611776"><ele>358.0</ele><time>2026-05-02T09:23:29.314Z</time></trkpt><trkpt lat="43.6315289" lon="12.6116619"><ele>358.0</ele><time>2026-05-02T09:23:30.314Z</time></trkpt><trkpt lat="43.6314931" lon="12.6115329"><ele>358.0</ele><time>2026-05-02T09:23:31.315Z</time></trkpt><trkpt lat="43.6314461" lon="12.611399"><ele>358.0</ele><time>2026-05-02T09:23:32.315Z</time></trkpt><trkpt lat="43.6313993" lon="12.6112672"><ele>358.0</ele><time>2026-05-02T09:23:33.316Z</time></trkpt><trkpt lat="43.6313474" lon="12.6111278"><ele>358.0</ele><time>2026-05-02T09:23:34.316Z</time></trkpt><trkpt lat="43.6312898" lon="12.6109824"><ele>358.0</ele><time>2026-05-02T09:23:35.311Z</time></trkpt><trkpt lat="43.6312344" lon="12.6108353"><ele>359.59999999999997</ele><time>2026-05-02T09:23:36.315Z</time></trkpt><trkpt lat="43.6311835" lon="12.6107134"><ele>361.2</ele><time>2026-05-02T09:23:37.315Z</time></trkpt><trkpt lat="43.6311374" lon="12.6105952"><ele>362.8</ele><time>2026-05-02T09:23:38.341Z</time></trkpt><trkpt lat="43.6310881" lon="12.610514"><ele>364.4</ele><time>2026-05-02T09:23:39.314Z</time></trkpt><trkpt lat="43.6310557" lon="12.6103798"><ele>366.0</ele><time>2026-05-02T09:23:41.312Z</time></trkpt><trkpt lat="43.6310406" lon="12.6102742"><ele>366.6</ele><time>2026-05-02T09:23:44.324Z</time></trkpt><trkpt lat="43.6309964" lon="12.610188"><ele>367.20000000000005</ele><time>2026-05-02T09:24:18.314Z</time></trkpt><trkpt lat="43.6309044" lon="12.6101409"><ele>367.79999999999995</ele><time>2026-05-02T09:24:20.326Z</time></trkpt><trkpt lat="43.6307828" lon="12.6100939"><ele>368.4</ele><time>2026-05-02T09:24:22.314Z</time></trkpt><trkpt lat="43.6307112" lon="12.6100536"><ele>369.0</ele><time>2026-05-02T09:24:23.315Z</time></trkpt><trkpt lat="43.6306458" lon="12.6099895"><ele>369.0</ele><time>2026-05-02T09:24:24.315Z</time></trkpt><trkpt lat="43.6305776" lon="12.6099255"><ele>369.0</ele><time>2026-05-02T09:24:25.316Z</time></trkpt><trkpt lat="43.6305223" lon="12.609836"><ele>369.0</ele><time>2026-05-02T09:24:26.316Z</time></trkpt><trkpt lat="43.6304652" lon="12.6097544"><ele>369.0</ele><time>2026-05-02T09:24:27.315Z</time></trkpt><trkpt lat="43.6304144" lon="12.6096481"><ele>369.0</ele><time>2026-05-02T09:24:28.315Z</time></trkpt><trkpt lat="43.6303593" lon="12.6095507"><ele>369.0</ele><time>2026-05-02T09:24:29.316Z</time></trkpt><trkpt lat="43.6303051" lon="12.6094512"><ele>367.5</ele><time>2026-05-02T09:24:30.316Z</time></trkpt><trkpt lat="43.6302547" lon="12.6093589"><ele>366.0</ele><time>2026-05-02T09:24:31.315Z</time></trkpt><trkpt lat="43.6302054" lon="12.6092758"><ele>364.5</ele><time>2026-05-02T09:24:32.315Z</time></trkpt><trkpt lat="43.6301601" lon="12.609203"><ele>363.0</ele><time>2026-05-02T09:24:33.316Z</time></trkpt><trkpt lat="43.6301179" lon="12.6091337"><ele>361.5</ele><time>2026-05-02T09:24:34.322Z</time></trkpt><trkpt lat="43.6300729" lon="12.6090657"><ele>360.0</ele><time>2026-05-02T09:24:35.317Z</time></trkpt><trkpt lat="43.63001" lon="12.6089271"><ele>360.0</ele><time>2026-05-02T09:24:37.315Z</time></trkpt><trkpt lat="43.63" lon="12.60876"><ele>360.0</ele><time>2026-05-02T09:24:39.307Z</time></trkpt><trkpt lat="43.6300345" lon="12.6086606"><ele>360.0</ele><time>2026-05-02T09:24:40.315Z</time></trkpt><trkpt lat="43.6300861" lon="12.6085529"><ele>360.0</ele><time>2026-05-02T09:24:41.316Z</time></trkpt><trkpt lat="43.6301412" lon="12.6084433"><ele>360.0</ele><time>2026-05-02T09:24:42.316Z</time></trkpt><trkpt lat="43.6301958" lon="12.6083306"><ele>357.8333333333333</ele><time>2026-05-02T09:24:43.316Z</time></trkpt><trkpt lat="43.6302527" lon="12.6082374"><ele>355.6666666666667</ele><time>2026-05-02T09:24:44.317Z</time></trkpt><trkpt lat="43.6303202" lon="12.6081504"><ele>353.5</ele><time>2026-05-02T09:24:45.315Z</time></trkpt><trkpt lat="43.6303592" lon="12.6080558"><ele>351.33333333333337</ele><time>2026-05-02T09:24:46.315Z</time></trkpt><trkpt lat="43.6304287" lon="12.6080303"><ele>349.1666666666667</ele><time>2026-05-02T09:24:49.316Z</time></trkpt><trkpt lat="43.6303748" lon="12.6079673"><ele>347.0</ele><time>2026-05-02T09:24:51.317Z</time></trkpt><trkpt lat="43.630336" lon="12.607871"><ele>346.40000000000003</ele><time>2026-05-02T09:24:54.309Z</time></trkpt><trkpt lat="43.6302965" lon="12.6077713"><ele>345.8</ele><time>2026-05-02T09:24:56.319Z</time></trkpt><trkpt lat="43.6302783" lon="12.6076682"><ele>345.2</ele><time>2026-05-02T09:24:58.314Z</time></trkpt><trkpt lat="43.6302865" lon="12.6075521"><ele>344.6</ele><time>2026-05-02T09:25:01.315Z</time></trkpt><trkpt lat="43.6302381" lon="12.6076176"><ele>344.0</ele><time>2026-05-02T09:25:09.314Z</time></trkpt><trkpt lat="43.6302936" lon="12.6078139"><ele>344.6</ele><time>2026-05-02T09:25:12.314Z</time></trkpt><trkpt lat="43.6303233" lon="12.6079135"><ele>345.2</ele><time>2026-05-02T09:25:14.317Z</time></trkpt><trkpt lat="43.6304096" lon="12.6079132"><ele>345.8</ele><time>2026-05-02T09:25:16.326Z</time></trkpt><trkpt lat="43.6305104" lon="12.6078515"><ele>346.40000000000003</ele><time>2026-05-02T09:25:18.322Z</time></trkpt><trkpt lat="43.6305669" lon="12.6078037"><ele>347.0</ele><time>2026-05-02T09:25:19.315Z</time></trkpt><trkpt lat="43.6306856" lon="12.6077285"><ele>345.8</ele><time>2026-05-02T09:25:21.316Z</time></trkpt><trkpt lat="43.630746" lon="12.6077016"><ele>344.6</ele><time>2026-05-02T09:25:22.316Z</time></trkpt><trkpt lat="43.6308551" lon="12.607639"><ele>343.40000000000003</ele><time>2026-05-02T09:25:24.316Z</time></trkpt><trkpt lat="43.6309526" lon="12.6075607"><ele>342.20000000000005</ele><time>2026-05-02T09:25:26.323Z</time></trkpt><trkpt lat="43.6310024" lon="12.6075037"><ele>341.0</ele><time>2026-05-02T09:25:27.316Z</time></trkpt><trkpt lat="43.6310768" lon="12.6073511"><ele>341.0</ele><time>2026-05-02T09:25:29.315Z</time></trkpt><trkpt lat="43.6311225" lon="12.6072409"><ele>341.0</ele><time>2026-05-02T09:25:30.315Z</time></trkpt><trkpt lat="43.631178" lon="12.6070707"><ele>341.0</ele><time>2026-05-02T09:25:31.317Z</time></trkpt><trkpt lat="43.6312335" lon="12.6069268"><ele>341.0</ele><time>2026-05-02T09:25:32.317Z</time></trkpt><trkpt lat="43.6312965" lon="12.6067805"><ele>338.0</ele><time>2026-05-02T09:25:33.315Z</time></trkpt><trkpt lat="43.631345" lon="12.6066421"><ele>335.0</ele><time>2026-05-02T09:25:34.315Z</time></trkpt><trkpt lat="43.6313803" lon="12.6065394"><ele>332.0</ele><time>2026-05-02T09:25:35.315Z</time></trkpt><trkpt lat="43.6314187" lon="12.6064374"><ele>329.0</ele><time>2026-05-02T09:25:36.319Z</time></trkpt><trkpt lat="43.6314516" lon="12.6063523"><ele>326.0</ele><time>2026-05-02T09:25:37.315Z</time></trkpt><trkpt lat="43.6314893" lon="12.6062628"><ele>323.0</ele><time>2026-05-02T09:25:38.316Z</time></trkpt><trkpt lat="43.63154" lon="12.6061254"><ele>322.6666666666667</ele><time>2026-05-02T09:25:40.315Z</time></trkpt><trkpt lat="43.6315445" lon="12.6060298"><ele>322.33333333333337</ele><time>2026-05-02T09:25:42.315Z</time></trkpt><trkpt lat="43.6314784" lon="12.6059441"><ele>322.0</ele><time>2026-05-02T09:25:44.322Z</time></trkpt><trkpt lat="43.6314078" lon="12.6059197"><ele>321.6666666666667</ele><time>2026-05-02T09:25:45.314Z</time></trkpt><trkpt lat="43.6313276" lon="12.6058861"><ele>321.3333333333333</ele><time>2026-05-02T09:25:46.323Z</time></trkpt><trkpt lat="43.6312348" lon="12.6058515"><ele>321.0</ele><time>2026-05-02T09:25:47.315Z</time></trkpt><trkpt lat="43.6311274" lon="12.6058081"><ele>321.0</ele><time>2026-05-02T09:25:48.313Z</time></trkpt><trkpt lat="43.6310158" lon="12.6057664"><ele>321.0</ele><time>2026-05-02T09:25:49.315Z</time></trkpt><trkpt lat="43.6308948" lon="12.6057157"><ele>321.0</ele><time>2026-05-02T09:25:50.314Z</time></trkpt><trkpt lat="43.6307714" lon="12.605678"><ele>321.0</ele><time>2026-05-02T09:25:51.316Z</time></trkpt><trkpt lat="43.6306522" lon="12.605627"><ele>321.0</ele><time>2026-05-02T09:25:52.315Z</time></trkpt><trkpt lat="43.6305364" lon="12.6055633"><ele>321.0</ele><time>2026-05-02T09:25:53.313Z</time></trkpt><trkpt lat="43.6304179" lon="12.6055163"><ele>321.0</ele><time>2026-05-02T09:25:54.315Z</time></trkpt><trkpt lat="43.6303002" lon="12.6054726"><ele>321.0</ele><time>2026-05-02T09:25:55.313Z</time></trkpt><trkpt lat="43.630172" lon="12.605431"><ele>322.0</ele><time>2026-05-02T09:25:56.317Z</time></trkpt><trkpt lat="43.6300478" lon="12.6053921"><ele>323.0</ele><time>2026-05-02T09:25:57.318Z</time></trkpt><trkpt lat="43.6299221" lon="12.6053582"><ele>324.0</ele><time>2026-05-02T09:25:58.316Z</time></trkpt><trkpt lat="43.6298113" lon="12.6053298"><ele>325.0</ele><time>2026-05-02T09:25:59.32Z</time></trkpt><trkpt lat="43.6297077" lon="12.6052933"><ele>325.5</ele><time>2026-05-02T09:26:00.315Z</time></trkpt><trkpt lat="43.6296137" lon="12.6052713"><ele>326.0</ele><time>2026-05-02T09:26:01.314Z</time></trkpt><trkpt lat="43.6295348" lon="12.6052501"><ele>326.5</ele><time>2026-05-02T09:26:02.314Z</time></trkpt><trkpt lat="43.6294681" lon="12.6052334"><ele>327.0</ele><time>2026-05-02T09:26:03.316Z</time></trkpt><trkpt lat="43.6293787" lon="12.6052263"><ele>327.5</ele><time>2026-05-02T09:26:05.315Z</time></trkpt><trkpt lat="43.6293014" lon="12.6052336"><ele>328.0</ele><time>2026-05-02T09:26:11.316Z</time></trkpt><trkpt lat="43.6292163" lon="12.6053678"><ele>328.0</ele><time>2026-05-02T09:26:13.315Z</time></trkpt><trkpt lat="43.6291683" lon="12.6054856"><ele>328.0</ele><time>2026-05-02T09:26:14.318Z</time></trkpt><trkpt lat="43.6291139" lon="12.6056129"><ele>328.0</ele><time>2026-05-02T09:26:15.315Z</time></trkpt><trkpt lat="43.6290528" lon="12.6057609"><ele>328.0</ele><time>2026-05-02T09:26:16.321Z</time></trkpt><trkpt lat="43.6289861" lon="12.6059156"><ele>328.0</ele><time>2026-05-02T09:26:17.312Z</time></trkpt><trkpt lat="43.6289192" lon="12.6060755"><ele>328.0</ele><time>2026-05-02T09:26:18.316Z</time></trkpt><trkpt lat="43.6288584" lon="12.6062035"><ele>328.0</ele><time>2026-05-02T09:26:19.311Z</time></trkpt><trkpt lat="43.6288085" lon="12.6062997"><ele>328.0</ele><time>2026-05-02T09:26:20.312Z</time></trkpt><trkpt lat="43.6287661" lon="12.6063851"><ele>328.0</ele><time>2026-05-02T09:26:21.317Z</time></trkpt><trkpt lat="43.6287023" lon="12.6064413"><ele>328.16666666666663</ele><time>2026-05-02T09:26:23.312Z</time></trkpt><trkpt lat="43.6286171" lon="12.6064477"><ele>328.3333333333333</ele><time>2026-05-02T09:26:26.32Z</time></trkpt><trkpt lat="43.628543" lon="12.6063839"><ele>328.5</ele><time>2026-05-02T09:26:28.325Z</time></trkpt><trkpt lat="43.6284932" lon="12.6063295"><ele>328.6666666666667</ele><time>2026-05-02T09:26:29.316Z</time></trkpt><trkpt lat="43.6284378" lon="12.6062708"><ele>328.83333333333337</ele><time>2026-05-02T09:26:30.315Z</time></trkpt><trkpt lat="43.6283746" lon="12.6062043"><ele>329.0</ele><time>2026-05-02T09:26:31.316Z</time></trkpt><trkpt lat="43.6283183" lon="12.6061274"><ele>329.0</ele><time>2026-05-02T09:26:32.316Z</time></trkpt><trkpt lat="43.6282214" lon="12.6059825"><ele>329.0</ele><time>2026-05-02T09:26:33.316Z</time></trkpt><trkpt lat="43.6281257" lon="12.6058216"><ele>329.0</ele><time>2026-05-02T09:26:34.317Z</time></trkpt><trkpt lat="43.6280489" lon="12.6056885"><ele>329.0</ele><time>2026-05-02T09:26:35.316Z</time></trkpt><trkpt lat="43.6279835" lon="12.6055738"><ele>329.0</ele><time>2026-05-02T09:26:36.324Z</time></trkpt><trkpt lat="43.6279434" lon="12.6054659"><ele>329.0</ele><time>2026-05-02T09:26:37.322Z</time></trkpt><trkpt lat="43.6279166" lon="12.6053687"><ele>329.0</ele><time>2026-05-02T09:26:38.315Z</time></trkpt><trkpt lat="43.6279076" lon="12.6052611"><ele>329.0</ele><time>2026-05-02T09:26:39.315Z</time></trkpt><trkpt lat="43.6279166" lon="12.6051287"><ele>329.0</ele><time>2026-05-02T09:26:40.318Z</time></trkpt><trkpt lat="43.6279405" lon="12.604999"><ele>329.0</ele><time>2026-05-02T09:26:41.315Z</time></trkpt><trkpt lat="43.6279683" lon="12.6048477"><ele>330.0</ele><time>2026-05-02T09:26:42.316Z</time></trkpt><trkpt lat="43.6279857" lon="12.6046979"><ele>331.0</ele><time>2026-05-02T09:26:43.316Z</time></trkpt><trkpt lat="43.6280002" lon="12.604547"><ele>332.0</ele><time>2026-05-02T09:26:44.317Z</time></trkpt><trkpt lat="43.6280034" lon="12.6043917"><ele>333.0</ele><time>2026-05-02T09:26:45.315Z</time></trkpt><trkpt lat="43.6279886" lon="12.6042399"><ele>334.0</ele><time>2026-05-02T09:26:46.316Z</time></trkpt><trkpt lat="43.6279673" lon="12.6040897"><ele>334.0</ele><time>2026-05-02T09:26:47.305Z</time></trkpt><trkpt lat="43.6279371" lon="12.6039436"><ele>334.0</ele><time>2026-05-02T09:26:48.316Z</time></trkpt><trkpt lat="43.6278993" lon="12.6038001"><ele>334.0</ele><time>2026-05-02T09:26:49.316Z</time></trkpt><trkpt lat="43.6278511" lon="12.6036638"><ele>334.0</ele><time>2026-05-02T09:26:50.314Z</time></trkpt><trkpt lat="43.6277938" lon="12.6035348"><ele>334.0</ele><time>2026-05-02T09:26:51.315Z</time></trkpt><trkpt lat="43.6277238" lon="12.603418"><ele>336.2</ele><time>2026-05-02T09:26:52.319Z</time></trkpt><trkpt lat="43.6276436" lon="12.6033079"><ele>338.4</ele><time>2026-05-02T09:26:53.314Z</time></trkpt><trkpt lat="43.6275658" lon="12.6032179"><ele>340.6</ele><time>2026-05-02T09:26:54.316Z</time></trkpt><trkpt lat="43.6274737" lon="12.6031514"><ele>342.8</ele><time>2026-05-02T09:26:55.314Z</time></trkpt><trkpt lat="43.6273645" lon="12.6031063"><ele>345.0</ele><time>2026-05-02T09:26:56.316Z</time></trkpt><trkpt lat="43.6272416" lon="12.6030852"><ele>345.0</ele><time>2026-05-02T09:26:57.423Z</time></trkpt><trkpt lat="43.6270237" lon="12.603053"><ele>345.0</ele><time>2026-05-02T09:26:59.314Z</time></trkpt><trkpt lat="43.6269185" lon="12.6030061"><ele>345.0</ele><time>2026-05-02T09:27:00.317Z</time></trkpt><trkpt lat="43.6268047" lon="12.6029423"><ele>345.2</ele><time>2026-05-02T09:27:01.317Z</time></trkpt><trkpt lat="43.6266993" lon="12.6028822"><ele>345.4</ele><time>2026-05-02T09:27:02.315Z</time></trkpt><trkpt lat="43.626606" lon="12.6028171"><ele>345.6</ele><time>2026-05-02T09:27:03.316Z</time></trkpt><trkpt lat="43.6265213" lon="12.6027374"><ele>345.8</ele><time>2026-05-02T09:27:04.316Z</time></trkpt><trkpt lat="43.6264471" lon="12.6026381"><ele>346.0</ele><time>2026-05-02T09:27:05.315Z</time></trkpt><trkpt lat="43.6263815" lon="12.6025365"><ele>347.8</ele><time>2026-05-02T09:27:06.315Z</time></trkpt><trkpt lat="43.6263052" lon="12.6024468"><ele>349.6</ele><time>2026-05-02T09:27:07.315Z</time></trkpt><trkpt lat="43.62622" lon="12.6023715"><ele>351.4</ele><time>2026-05-02T09:27:08.315Z</time></trkpt><trkpt lat="43.6261348" lon="12.6023076"><ele>353.2</ele><time>2026-05-02T09:27:09.317Z</time></trkpt><trkpt lat="43.6260547" lon="12.6022504"><ele>355.0</ele><time>2026-05-02T09:27:10.313Z</time></trkpt><trkpt lat="43.6259845" lon="12.6022052"><ele>355.16666666666663</ele><time>2026-05-02T09:27:11.315Z</time></trkpt><trkpt lat="43.6259201" lon="12.6021615"><ele>355.3333333333333</ele><time>2026-05-02T09:27:12.316Z</time></trkpt><trkpt lat="43.6258214" lon="12.6020695"><ele>355.5</ele><time>2026-05-02T09:27:14.315Z</time></trkpt><trkpt lat="43.6257643" lon="12.6020042"><ele>355.6666666666667</ele><time>2026-05-02T09:27:15.312Z</time></trkpt><trkpt lat="43.6257052" lon="12.6019195"><ele>355.83333333333337</ele><time>2026-05-02T09:27:16.316Z</time></trkpt><trkpt lat="43.6256384" lon="12.6018535"><ele>356.0</ele><time>2026-05-02T09:27:17.321Z</time></trkpt><trkpt lat="43.6255838" lon="12.6017963"><ele>356.8</ele><time>2026-05-02T09:27:18.317Z</time></trkpt><trkpt lat="43.625543" lon="12.6016903"><ele>357.6</ele><time>2026-05-02T09:27:19.314Z</time></trkpt><trkpt lat="43.6255181" lon="12.6015321"><ele>358.4</ele><time>2026-05-02T09:27:20.311Z</time></trkpt><trkpt lat="43.6254798" lon="12.6014265"><ele>359.2</ele><time>2026-05-02T09:27:21.315Z</time></trkpt><trkpt lat="43.6254344" lon="12.6013187"><ele>360.0</ele><time>2026-05-02T09:27:22.314Z</time></trkpt><trkpt lat="43.6254052" lon="12.6011921"><ele>360.3333333333333</ele><time>2026-05-02T09:27:24.316Z</time></trkpt><trkpt lat="43.6253078" lon="12.6011314"><ele>360.6666666666667</ele><time>2026-05-02T09:27:26.315Z</time></trkpt><trkpt lat="43.625243" lon="12.6011249"><ele>361.0</ele><time>2026-05-02T09:27:27.317Z</time></trkpt><trkpt lat="43.6251621" lon="12.6011241"><ele>361.33333333333337</ele><time>2026-05-02T09:27:28.32Z</time></trkpt><trkpt lat="43.625084" lon="12.601123"><ele>361.6666666666667</ele><time>2026-05-02T09:27:29.316Z</time></trkpt><trkpt lat="43.6250132" lon="12.6011043"><ele>362.0</ele><time>2026-05-02T09:27:30.315Z</time></trkpt><trkpt lat="43.6249523" lon="12.6010651"><ele>362.0</ele><time>2026-05-02T09:27:31.315Z</time></trkpt><trkpt lat="43.6248737" lon="12.6009342"><ele>362.0</ele><time>2026-05-02T09:27:33.315Z</time></trkpt><trkpt lat="43.6248523" lon="12.600837"><ele>362.0</ele><time>2026-05-02T09:27:34.316Z</time></trkpt><trkpt lat="43.6248422" lon="12.6007091"><ele>362.0</ele><time>2026-05-02T09:27:35.316Z</time></trkpt><trkpt lat="43.6248368" lon="12.6005632"><ele>362.0</ele><time>2026-05-02T09:27:36.315Z</time></trkpt><trkpt lat="43.6248219" lon="12.6004117"><ele>361.40000000000003</ele><time>2026-05-02T09:27:37.315Z</time></trkpt><trkpt lat="43.6248009" lon="12.6002584"><ele>360.8</ele><time>2026-05-02T09:27:38.316Z</time></trkpt><trkpt lat="43.6247807" lon="12.6001045"><ele>360.2</ele><time>2026-05-02T09:27:39.313Z</time></trkpt><trkpt lat="43.6247563" lon="12.5999676"><ele>359.6</ele><time>2026-05-02T09:27:40.314Z</time></trkpt><trkpt lat="43.6247247" lon="12.5998379"><ele>359.0</ele><time>2026-05-02T09:27:41.312Z</time></trkpt><trkpt lat="43.6246804" lon="12.5996981"><ele>359.0</ele><time>2026-05-02T09:27:42.317Z</time></trkpt><trkpt lat="43.6246217" lon="12.5995592"><ele>359.0</ele><time>2026-05-02T09:27:43.316Z</time></trkpt><trkpt lat="43.6245584" lon="12.5994135"><ele>359.0</ele><time>2026-05-02T09:27:44.315Z</time></trkpt><trkpt lat="43.6244903" lon="12.5992643"><ele>359.0</ele><time>2026-05-02T09:27:45.315Z</time></trkpt><trkpt lat="43.6244203" lon="12.5991083"><ele>361.2</ele><time>2026-05-02T09:27:46.317Z</time></trkpt><trkpt lat="43.6243511" lon="12.598963"><ele>363.4</ele><time>2026-05-02T09:27:47.315Z</time></trkpt><trkpt lat="43.6242791" lon="12.598838"><ele>365.6</ele><time>2026-05-02T09:27:48.315Z</time></trkpt><trkpt lat="43.6242097" lon="12.5987259"><ele>367.8</ele><time>2026-05-02T09:27:49.318Z</time></trkpt><trkpt lat="43.6241517" lon="12.5986249"><ele>370.0</ele><time>2026-05-02T09:27:50.316Z</time></trkpt><trkpt lat="43.6241011" lon="12.5985272"><ele>370.0</ele><time>2026-05-02T09:27:51.319Z</time></trkpt><trkpt lat="43.6240666" lon="12.5984295"><ele>370.0</ele><time>2026-05-02T09:27:52.317Z</time></trkpt><trkpt lat="43.6240354" lon="12.5983211"><ele>370.0</ele><time>2026-05-02T09:27:53.317Z</time></trkpt><trkpt lat="43.6240282" lon="12.5981769"><ele>370.0</ele><time>2026-05-02T09:27:54.318Z</time></trkpt><trkpt lat="43.6240321" lon="12.5980476"><ele>370.0</ele><time>2026-05-02T09:27:55.316Z</time></trkpt><trkpt lat="43.6240444" lon="12.5979196"><ele>368.66666666666663</ele><time>2026-05-02T09:27:56.318Z</time></trkpt><trkpt lat="43.6240633" lon="12.5977999"><ele>367.3333333333333</ele><time>2026-05-02T09:27:57.318Z</time></trkpt><trkpt lat="43.6240866" lon="12.5976856"><ele>366.0</ele><time>2026-05-02T09:27:58.315Z</time></trkpt><trkpt lat="43.6241103" lon="12.5975815"><ele>364.6666666666667</ele><time>2026-05-02T09:27:59.316Z</time></trkpt><trkpt lat="43.6241238" lon="12.5974846"><ele>363.33333333333337</ele><time>2026-05-02T09:28:00.319Z</time></trkpt><trkpt lat="43.6241241" lon="12.5973248"><ele>362.0</ele><time>2026-05-02T09:28:02.318Z</time></trkpt><trkpt lat="43.6240605" lon="12.5971899"><ele>362.0</ele><time>2026-05-02T09:28:04.319Z</time></trkpt><trkpt lat="43.6239557" lon="12.597129"><ele>362.0</ele><time>2026-05-02T09:28:06.318Z</time></trkpt><trkpt lat="43.6238344" lon="12.5971515"><ele>362.0</ele><time>2026-05-02T09:28:08.317Z</time></trkpt><trkpt lat="43.6237743" lon="12.5972017"><ele>362.0</ele><time>2026-05-02T09:28:09.317Z</time></trkpt><trkpt lat="43.6237038" lon="12.5972607"><ele>362.0</ele><time>2026-05-02T09:28:10.316Z</time></trkpt><trkpt lat="43.6236403" lon="12.5973732"><ele>363.75</ele><time>2026-05-02T09:28:11.316Z</time></trkpt><trkpt lat="43.6235608" lon="12.597485"><ele>365.5</ele><time>2026-05-02T09:28:12.317Z</time></trkpt><trkpt lat="43.6234729" lon="12.5976025"><ele>367.25</ele><time>2026-05-02T09:28:13.317Z</time></trkpt><trkpt lat="43.6233702" lon="12.5977236"><ele>369.0</ele><time>2026-05-02T09:28:14.315Z</time></trkpt><trkpt lat="43.6232662" lon="12.5978454"><ele>372.75</ele><time>2026-05-02T09:28:15.314Z</time></trkpt><trkpt lat="43.6231704" lon="12.5979469"><ele>376.5</ele><time>2026-05-02T09:28:16.316Z</time></trkpt><trkpt lat="43.6230707" lon="12.5980326"><ele>380.25</ele><time>2026-05-02T09:28:17.313Z</time></trkpt><trkpt lat="43.6229617" lon="12.5980942"><ele>384.0</ele><time>2026-05-02T09:28:18.314Z</time></trkpt><trkpt lat="43.6228398" lon="12.5981415"><ele>384.2</ele><time>2026-05-02T09:28:19.31Z</time></trkpt><trkpt lat="43.6227201" lon="12.5981878"><ele>384.4</ele><time>2026-05-02T09:28:20.313Z</time></trkpt><trkpt lat="43.6226169" lon="12.5982339"><ele>384.6</ele><time>2026-05-02T09:28:21.314Z</time></trkpt><trkpt lat="43.6225228" lon="12.5982667"><ele>384.8</ele><time>2026-05-02T09:28:22.314Z</time></trkpt><trkpt lat="43.6224377" lon="12.598275"><ele>385.0</ele><time>2026-05-02T09:28:23.314Z</time></trkpt><trkpt lat="43.6223565" lon="12.598248"><ele>385.0</ele><time>2026-05-02T09:28:24.313Z</time></trkpt><trkpt lat="43.6222794" lon="12.5981954"><ele>385.0</ele><time>2026-05-02T09:28:25.315Z</time></trkpt><trkpt lat="43.622205" lon="12.5981065"><ele>385.0</ele><time>2026-05-02T09:28:26.313Z</time></trkpt><trkpt lat="43.6221287" lon="12.5979876"><ele>385.0</ele><time>2026-05-02T09:28:27.315Z</time></trkpt><trkpt lat="43.6220528" lon="12.5978535"><ele>385.0</ele><time>2026-05-02T09:28:28.314Z</time></trkpt><trkpt lat="43.6219819" lon="12.5977082"><ele>385.0</ele><time>2026-05-02T09:28:29.315Z</time></trkpt><trkpt lat="43.6219142" lon="12.5975513"><ele>385.0</ele><time>2026-05-02T09:28:30.316Z</time></trkpt><trkpt lat="43.6218504" lon="12.5973946"><ele>385.0</ele><time>2026-05-02T09:28:31.316Z</time></trkpt><trkpt lat="43.6217884" lon="12.5972624"><ele>385.0</ele><time>2026-05-02T09:28:32.316Z</time></trkpt><trkpt lat="43.6217307" lon="12.597152"><ele>385.0</ele><time>2026-05-02T09:28:33.318Z</time></trkpt><trkpt lat="43.6216639" lon="12.5970491"><ele>385.0</ele><time>2026-05-02T09:28:34.321Z</time></trkpt><trkpt lat="43.621588" lon="12.5969544"><ele>385.0</ele><time>2026-05-02T09:28:35.316Z</time></trkpt><trkpt lat="43.6215056" lon="12.5968608"><ele>385.0</ele><time>2026-05-02T09:28:36.321Z</time></trkpt><trkpt lat="43.621412" lon="12.5967625"><ele>385.0</ele><time>2026-05-02T09:28:37.318Z</time></trkpt><trkpt lat="43.6213266" lon="12.5966628"><ele>384.8</ele><time>2026-05-02T09:28:38.317Z</time></trkpt><trkpt lat="43.6212496" lon="12.5965732"><ele>384.6</ele><time>2026-05-02T09:28:39.318Z</time></trkpt><trkpt lat="43.6211827" lon="12.5964727"><ele>384.4</ele><time>2026-05-02T09:28:40.317Z</time></trkpt><trkpt lat="43.621111" lon="12.5963714"><ele>384.2</ele><time>2026-05-02T09:28:41.317Z</time></trkpt><trkpt lat="43.6210482" lon="12.59627"><ele>384.0</ele><time>2026-05-02T09:28:42.318Z</time></trkpt><trkpt lat="43.6209823" lon="12.5961841"><ele>384.0</ele><time>2026-05-02T09:28:43.316Z</time></trkpt><trkpt lat="43.6209141" lon="12.5961065"><ele>384.0</ele><time>2026-05-02T09:28:44.317Z</time></trkpt><trkpt lat="43.6208384" lon="12.5960417"><ele>384.0</ele><time>2026-05-02T09:28:45.318Z</time></trkpt><trkpt lat="43.620759" lon="12.5959967"><ele>384.0</ele><time>2026-05-02T09:28:46.318Z</time></trkpt><trkpt lat="43.6206734" lon="12.5959735"><ele>384.0</ele><time>2026-05-02T09:28:47.316Z</time></trkpt><trkpt lat="43.6205726" lon="12.595969"><ele>384.0</ele><time>2026-05-02T09:28:48.321Z</time></trkpt><trkpt lat="43.6204655" lon="12.5959764"><ele>384.0</ele><time>2026-05-02T09:28:49.317Z</time></trkpt><trkpt lat="43.6203597" lon="12.5959733"><ele>384.0</ele><time>2026-05-02T09:28:50.318Z</time></trkpt><trkpt lat="43.6202588" lon="12.5959626"><ele>384.0</ele><time>2026-05-02T09:28:51.317Z</time></trkpt><trkpt lat="43.6201657" lon="12.5959403"><ele>384.0</ele><time>2026-05-02T09:28:52.318Z</time></trkpt><trkpt lat="43.6200723" lon="12.5959202"><ele>384.6</ele><time>2026-05-02T09:28:53.319Z</time></trkpt><trkpt lat="43.6199941" lon="12.5958961"><ele>385.2</ele><time>2026-05-02T09:28:54.316Z</time></trkpt><trkpt lat="43.619888" lon="12.5958006"><ele>385.8</ele><time>2026-05-02T09:28:56.314Z</time></trkpt><trkpt lat="43.6198442" lon="12.595696"><ele>386.40000000000003</ele><time>2026-05-02T09:28:57.318Z</time></trkpt><trkpt lat="43.6198125" lon="12.5955651"><ele>387.0</ele><time>2026-05-02T09:28:58.318Z</time></trkpt><trkpt lat="43.6197699" lon="12.5954224"><ele>388.0</ele><time>2026-05-02T09:28:59.317Z</time></trkpt><trkpt lat="43.6197237" lon="12.595276"><ele>389.0</ele><time>2026-05-02T09:29:00.318Z</time></trkpt><trkpt lat="43.6196799" lon="12.5951269"><ele>390.0</ele><time>2026-05-02T09:29:01.32Z</time></trkpt><trkpt lat="43.6196393" lon="12.5949792"><ele>391.0</ele><time>2026-05-02T09:29:02.318Z</time></trkpt><trkpt lat="43.6196028" lon="12.5948336"><ele>391.0</ele><time>2026-05-02T09:29:03.346Z</time></trkpt><trkpt lat="43.6195671" lon="12.5947017"><ele>391.0</ele><time>2026-05-02T09:29:04.317Z</time></trkpt><trkpt lat="43.6195548" lon="12.5945526"><ele>391.0</ele><time>2026-05-02T09:29:05.317Z</time></trkpt><trkpt lat="43.6195305" lon="12.5944075"><ele>391.0</ele><time>2026-05-02T09:29:06.313Z</time></trkpt><trkpt lat="43.6195651" lon="12.5942819"><ele>391.0</ele><time>2026-05-02T09:29:07.319Z</time></trkpt><trkpt lat="43.6195727" lon="12.5941117"><ele>391.0</ele><time>2026-05-02T09:29:08.318Z</time></trkpt><trkpt lat="43.6195874" lon="12.5939524"><ele>391.0</ele><time>2026-05-02T09:29:09.32Z</time></trkpt><trkpt lat="43.6195949" lon="12.5938017"><ele>391.0</ele><time>2026-05-02T09:29:10.318Z</time></trkpt><trkpt lat="43.6196175" lon="12.5936447"><ele>391.0</ele><time>2026-05-02T09:29:11.316Z</time></trkpt><trkpt lat="43.6196341" lon="12.5935174"><ele>391.0</ele><time>2026-05-02T09:29:12.319Z</time></trkpt><trkpt lat="43.6196402" lon="12.5934008"><ele>391.5</ele><time>2026-05-02T09:29:13.43Z</time></trkpt><trkpt lat="43.6195929" lon="12.5931387"><ele>392.0</ele><time>2026-05-02T09:29:15.316Z</time></trkpt><trkpt lat="43.6195224" lon="12.5930059"><ele>392.5</ele><time>2026-05-02T09:29:16.316Z</time></trkpt><trkpt lat="43.6194888" lon="12.5928598"><ele>393.0</ele><time>2026-05-02T09:29:17.314Z</time></trkpt><trkpt lat="43.6194396" lon="12.5927105"><ele>392.6666666666667</ele><time>2026-05-02T09:29:18.305Z</time></trkpt><trkpt lat="43.6194185" lon="12.5925917"><ele>392.33333333333337</ele><time>2026-05-02T09:29:19.312Z</time></trkpt><trkpt lat="43.6194072" lon="12.5924754"><ele>392.0</ele><time>2026-05-02T09:29:20.312Z</time></trkpt><trkpt lat="43.6194071" lon="12.5923749"><ele>391.6666666666667</ele><time>2026-05-02T09:29:21.313Z</time></trkpt><trkpt lat="43.6194394" lon="12.5922763"><ele>391.33333333333337</ele><time>2026-05-02T09:29:22.314Z</time></trkpt><trkpt lat="43.6194962" lon="12.5921645"><ele>391.0</ele><time>2026-05-02T09:29:23.307Z</time></trkpt><trkpt lat="43.6195665" lon="12.5920406"><ele>391.0</ele><time>2026-05-02T09:29:24.316Z</time></trkpt><trkpt lat="43.6196321" lon="12.591929"><ele>391.0</ele><time>2026-05-02T09:29:25.318Z</time></trkpt><trkpt lat="43.6196986" lon="12.5918254"><ele>391.0</ele><time>2026-05-02T09:29:26.315Z</time></trkpt><trkpt lat="43.6197599" lon="12.5917421"><ele>391.0</ele><time>2026-05-02T09:29:27.317Z</time></trkpt><trkpt lat="43.6198153" lon="12.5916764"><ele>391.0</ele><time>2026-05-02T09:29:28.32Z</time></trkpt><trkpt lat="43.6198706" lon="12.5915205"><ele>391.00000000000006</ele><time>2026-05-02T09:29:30.314Z</time></trkpt><trkpt lat="43.6198012" lon="12.5913991"><ele>391.0</ele><time>2026-05-02T09:29:32.317Z</time></trkpt><trkpt lat="43.6197359" lon="12.5913856"><ele>391.0</ele><time>2026-05-02T09:29:33.32Z</time></trkpt><trkpt lat="43.6196478" lon="12.5913891"><ele>391.0</ele><time>2026-05-02T09:29:34.316Z</time></trkpt><trkpt lat="43.6195588" lon="12.5914118"><ele>391.00000000000006</ele><time>2026-05-02T09:29:35.318Z</time></trkpt><trkpt lat="43.6194747" lon="12.5914326"><ele>391.0</ele><time>2026-05-02T09:29:36.318Z</time></trkpt><trkpt lat="43.6193908" lon="12.5914549"><ele>391.0</ele><time>2026-05-02T09:29:37.319Z</time></trkpt><trkpt lat="43.6193214" lon="12.5914649"><ele>391.0</ele><time>2026-05-02T09:29:38.316Z</time></trkpt><trkpt lat="43.61923" lon="12.5913326"><ele>391.0</ele><time>2026-05-02T09:29:39.318Z</time></trkpt><trkpt lat="43.6191663" lon="12.5912484"><ele>391.0</ele><time>2026-05-02T09:29:40.316Z</time></trkpt><trkpt lat="43.6191166" lon="12.5911558"><ele>391.0</ele><time>2026-05-02T09:29:41.316Z</time></trkpt><trkpt lat="43.6190763" lon="12.5910555"><ele>389.83333333333337</ele><time>2026-05-02T09:29:42.316Z</time></trkpt><trkpt lat="43.6190434" lon="12.5909594"><ele>388.6666666666667</ele><time>2026-05-02T09:29:43.317Z</time></trkpt><trkpt lat="43.6190068" lon="12.5908666"><ele>387.5</ele><time>2026-05-02T09:29:44.318Z</time></trkpt><trkpt lat="43.618969" lon="12.5907827"><ele>386.33333333333337</ele><time>2026-05-02T09:29:45.318Z</time></trkpt><trkpt lat="43.6189307" lon="12.5907035"><ele>385.1666666666667</ele><time>2026-05-02T09:29:46.316Z</time></trkpt><trkpt lat="43.6188957" lon="12.59059"><ele>384.0</ele><time>2026-05-02T09:29:48.317Z</time></trkpt><trkpt lat="43.6189014" lon="12.5904906"><ele>384.0</ele><time>2026-05-02T09:32:18.319Z</time></trkpt><trkpt lat="43.61894" lon="12.5903709"><ele>384.0</ele><time>2026-05-02T09:33:07.327Z</time></trkpt><trkpt lat="43.618969" lon="12.5902745"><ele>384.0</ele><time>2026-05-02T09:33:08.32Z</time></trkpt><trkpt lat="43.6190058" lon="12.5901698"><ele>384.0</ele><time>2026-05-02T09:33:09.318Z</time></trkpt><trkpt lat="43.6190401" lon="12.5900696"><ele>384.0</ele><time>2026-05-02T09:33:10.317Z</time></trkpt><trkpt lat="43.6190873" lon="12.589963"><ele>384.0</ele><time>2026-05-02T09:33:11.314Z</time></trkpt><trkpt lat="43.6191435" lon="12.589846"><ele>385.6</ele><time>2026-05-02T09:33:12.315Z</time></trkpt><trkpt lat="43.6191915" lon="12.5897351"><ele>387.2</ele><time>2026-05-02T09:33:13.436Z</time></trkpt><trkpt lat="43.6192722" lon="12.5895472"><ele>388.8</ele><time>2026-05-02T09:33:15.319Z</time></trkpt><trkpt lat="43.6193082" lon="12.5894521"><ele>390.40000000000003</ele><time>2026-05-02T09:33:16.326Z</time></trkpt><trkpt lat="43.619366" lon="12.589344"><ele>392.0</ele><time>2026-05-02T09:33:17.317Z</time></trkpt><trkpt lat="43.6194321" lon="12.5892589"><ele>394.5</ele><time>2026-05-02T09:33:18.319Z</time></trkpt><trkpt lat="43.6195252" lon="12.5891948"><ele>397.0</ele><time>2026-05-02T09:33:19.316Z</time></trkpt><trkpt lat="43.6196495" lon="12.589121"><ele>399.5</ele><time>2026-05-02T09:33:20.316Z</time></trkpt><trkpt lat="43.6198022" lon="12.589066"><ele>402.0</ele><time>2026-05-02T09:33:21.318Z</time></trkpt><trkpt lat="43.6199424" lon="12.589016"><ele>402.0</ele><time>2026-05-02T09:33:22.32Z</time></trkpt><trkpt lat="43.6201179" lon="12.5889813"><ele>402.0</ele><time>2026-05-02T09:33:23.318Z</time></trkpt><trkpt lat="43.6202682" lon="12.5889601"><ele>402.0</ele><time>2026-05-02T09:33:24.318Z</time></trkpt><trkpt lat="43.6204095" lon="12.5889457"><ele>402.8</ele><time>2026-05-02T09:33:25.317Z</time></trkpt><trkpt lat="43.6205554" lon="12.5889451"><ele>403.6</ele><time>2026-05-02T09:33:26.325Z</time></trkpt><trkpt lat="43.6206227" lon="12.5889468"><ele>404.40000000000003</ele><time>2026-05-02T09:33:27.318Z</time></trkpt><trkpt lat="43.6206985" lon="12.5889044"><ele>405.20000000000005</ele><time>2026-05-02T09:33:28.316Z</time></trkpt><trkpt lat="43.6207248" lon="12.5887749"><ele>406.0</ele><time>2026-05-02T09:33:30.32Z</time></trkpt><trkpt lat="43.6206793" lon="12.5886819"><ele>407.75</ele><time>2026-05-02T09:33:31.319Z</time></trkpt><trkpt lat="43.6206542" lon="12.5885979"><ele>409.5</ele><time>2026-05-02T09:33:32.319Z</time></trkpt><trkpt lat="43.6205612" lon="12.5884626"><ele>411.25</ele><time>2026-05-02T09:33:33.319Z</time></trkpt><trkpt lat="43.6204949" lon="12.5883131"><ele>413.0</ele><time>2026-05-02T09:33:34.31Z</time></trkpt><trkpt lat="43.62041" lon="12.5881764"><ele>413.75</ele><time>2026-05-02T09:33:35.318Z</time></trkpt><trkpt lat="43.6203033" lon="12.5880375"><ele>414.5</ele><time>2026-05-02T09:33:36.32Z</time></trkpt><trkpt lat="43.6201943" lon="12.5878949"><ele>415.25</ele><time>2026-05-02T09:33:37.317Z</time></trkpt><trkpt lat="43.6200839" lon="12.5877581"><ele>416.0</ele><time>2026-05-02T09:33:38.317Z</time></trkpt><trkpt lat="43.6199837" lon="12.5876198"><ele>417.0</ele><time>2026-05-02T09:33:39.319Z</time></trkpt><trkpt lat="43.6198869" lon="12.5874753"><ele>418.0</ele><time>2026-05-02T09:33:40.319Z</time></trkpt><trkpt lat="43.6197952" lon="12.5873453"><ele>419.0</ele><time>2026-05-02T09:33:41.317Z</time></trkpt><trkpt lat="43.6197332" lon="12.5872234"><ele>420.0</ele><time>2026-05-02T09:33:42.319Z</time></trkpt><trkpt lat="43.6196595" lon="12.5870963"><ele>418.2</ele><time>2026-05-02T09:33:43.317Z</time></trkpt><trkpt lat="43.6195904" lon="12.5869653"><ele>416.4</ele><time>2026-05-02T09:33:44.322Z</time></trkpt><trkpt lat="43.6195429" lon="12.58683"><ele>414.6</ele><time>2026-05-02T09:33:45.317Z</time></trkpt><trkpt lat="43.6194903" lon="12.5867006"><ele>412.8</ele><time>2026-05-02T09:33:46.317Z</time></trkpt><trkpt lat="43.61945" lon="12.5865891"><ele>411.0</ele><time>2026-05-02T09:33:47.316Z</time></trkpt><trkpt lat="43.6194011" lon="12.5864629"><ele>413.20000000000005</ele><time>2026-05-02T09:33:48.319Z</time></trkpt><trkpt lat="43.6193486" lon="12.5863321"><ele>415.40000000000003</ele><time>2026-05-02T09:33:49.315Z</time></trkpt><trkpt lat="43.6192998" lon="12.5862068"><ele>417.6</ele><time>2026-05-02T09:33:50.315Z</time></trkpt><trkpt lat="43.6192461" lon="12.5860791"><ele>419.8</ele><time>2026-05-02T09:33:51.317Z</time></trkpt><trkpt lat="43.6192078" lon="12.585937"><ele>422.0</ele><time>2026-05-02T09:33:52.307Z</time></trkpt><trkpt lat="43.6191719" lon="12.5858061"><ele>422.0</ele><time>2026-05-02T09:33:53.319Z</time></trkpt><trkpt lat="43.6191372" lon="12.5856607"><ele>422.0</ele><time>2026-05-02T09:33:54.317Z</time></trkpt><trkpt lat="43.6190839" lon="12.5855123"><ele>422.0</ele><time>2026-05-02T09:33:56.321Z</time></trkpt><trkpt lat="43.6190803" lon="12.5854056"><ele>422.0</ele><time>2026-05-02T09:33:57.313Z</time></trkpt><trkpt lat="43.6191269" lon="12.585295"><ele>422.0</ele><time>2026-05-02T09:33:58.315Z</time></trkpt><trkpt lat="43.6191839" lon="12.5851726"><ele>419.6</ele><time>2026-05-02T09:33:59.314Z</time></trkpt><trkpt lat="43.6192545" lon="12.5850522"><ele>417.20000000000005</ele><time>2026-05-02T09:34:00.313Z</time></trkpt><trkpt lat="43.6193381" lon="12.5849358"><ele>414.8</ele><time>2026-05-02T09:34:01.317Z</time></trkpt><trkpt lat="43.619417" lon="12.5848309"><ele>412.4</ele><time>2026-05-02T09:34:02.311Z</time></trkpt><trkpt lat="43.619491" lon="12.5847215"><ele>410.0</ele><time>2026-05-02T09:34:03.315Z</time></trkpt><trkpt lat="43.6195561" lon="12.5846209"><ele>409.6</ele><time>2026-05-02T09:34:04.315Z</time></trkpt><trkpt lat="43.6196115" lon="12.5845198"><ele>409.2</ele><time>2026-05-02T09:34:05.314Z</time></trkpt><trkpt lat="43.6196522" lon="12.5844086"><ele>408.79999999999995</ele><time>2026-05-02T09:34:06.32Z</time></trkpt><trkpt lat="43.6196741" lon="12.5842895"><ele>408.4</ele><time>2026-05-02T09:34:07.31Z</time></trkpt><trkpt lat="43.6196753" lon="12.5841699"><ele>408.0</ele><time>2026-05-02T09:34:08.316Z</time></trkpt><trkpt lat="43.6196572" lon="12.5840433"><ele>408.2</ele><time>2026-05-02T09:34:09.318Z</time></trkpt><trkpt lat="43.6196326" lon="12.5839079"><ele>408.4</ele><time>2026-05-02T09:34:10.319Z</time></trkpt><trkpt lat="43.6195983" lon="12.583782"><ele>408.59999999999997</ele><time>2026-05-02T09:34:11.318Z</time></trkpt><trkpt lat="43.6195588" lon="12.5836558"><ele>408.79999999999995</ele><time>2026-05-02T09:34:12.318Z</time></trkpt><trkpt lat="43.6195231" lon="12.5835383"><ele>409.0</ele><time>2026-05-02T09:34:13.318Z</time></trkpt><trkpt lat="43.619479" lon="12.583425"><ele>406.6</ele><time>2026-05-02T09:34:14.316Z</time></trkpt><trkpt lat="43.6194505" lon="12.5833111"><ele>404.2</ele><time>2026-05-02T09:34:15.305Z</time></trkpt><trkpt lat="43.619423" lon="12.5831838"><ele>401.8</ele><time>2026-05-02T09:34:16.321Z</time></trkpt><trkpt lat="43.6194003" lon="12.5830441"><ele>399.40000000000003</ele><time>2026-05-02T09:34:17.316Z</time></trkpt><trkpt lat="43.6193942" lon="12.5828776"><ele>397.0</ele><time>2026-05-02T09:34:18.318Z</time></trkpt><trkpt lat="43.6193916" lon="12.5827384"><ele>395.6</ele><time>2026-05-02T09:34:19.319Z</time></trkpt><trkpt lat="43.6193851" lon="12.5825905"><ele>394.20000000000005</ele><time>2026-05-02T09:34:20.316Z</time></trkpt><trkpt lat="43.6193732" lon="12.5824415"><ele>392.8</ele><time>2026-05-02T09:34:21.317Z</time></trkpt><trkpt lat="43.6193618" lon="12.5823033"><ele>391.4</ele><time>2026-05-02T09:34:22.318Z</time></trkpt><trkpt lat="43.619368" lon="12.5821926"><ele>390.0</ele><time>2026-05-02T09:34:23.315Z</time></trkpt><trkpt lat="43.6193664" lon="12.5820585"><ele>387.4</ele><time>2026-05-02T09:34:24.317Z</time></trkpt><trkpt lat="43.6193597" lon="12.5819623"><ele>384.8</ele><time>2026-05-02T09:34:25.318Z</time></trkpt><trkpt lat="43.6193367" lon="12.5817923"><ele>382.20000000000005</ele><time>2026-05-02T09:34:27.318Z</time></trkpt><trkpt lat="43.6191858" lon="12.5818138"><ele>379.6</ele><time>2026-05-02T09:34:29.316Z</time></trkpt><trkpt lat="43.6191137" lon="12.5818037"><ele>377.0</ele><time>2026-05-02T09:34:30.316Z</time></trkpt><trkpt lat="43.6190484" lon="12.5818368"><ele>377.0</ele><time>2026-05-02T09:34:31.319Z</time></trkpt><trkpt lat="43.6190131" lon="12.5819824"><ele>377.0</ele><time>2026-05-02T09:34:32.316Z</time></trkpt><trkpt lat="43.6189663" lon="12.5820541"><ele>377.0</ele><time>2026-05-02T09:34:33.317Z</time></trkpt><trkpt lat="43.6189042" lon="12.5821645"><ele>377.0</ele><time>2026-05-02T09:34:35.316Z</time></trkpt><trkpt lat="43.6188225" lon="12.5820658"><ele>377.0</ele><time>2026-05-02T09:34:37.316Z</time></trkpt><trkpt lat="43.6187935" lon="12.5819552"><ele>377.0</ele><time>2026-05-02T09:34:38.314Z</time></trkpt><trkpt lat="43.6187909" lon="12.5818442"><ele>377.0</ele><time>2026-05-02T09:34:39.318Z</time></trkpt><trkpt lat="43.6188155" lon="12.5817351"><ele>377.0</ele><time>2026-05-02T09:34:40.318Z</time></trkpt><trkpt lat="43.6188544" lon="12.5816391"><ele>377.0</ele><time>2026-05-02T09:34:41.315Z</time></trkpt><trkpt lat="43.6188916" lon="12.5815634"><ele>377.0</ele><time>2026-05-02T09:34:42.318Z</time></trkpt><trkpt lat="43.6189274" lon="12.5814252"><ele>377.0</ele><time>2026-05-02T09:34:44.316Z</time></trkpt><trkpt lat="43.6188788" lon="12.5813244"><ele>377.0</ele><time>2026-05-02T09:34:46.322Z</time></trkpt><trkpt lat="43.6188123" lon="12.5813351"><ele>377.0</ele><time>2026-05-02T09:34:47.322Z</time></trkpt><trkpt lat="43.6187316" lon="12.5813406"><ele>377.0</ele><time>2026-05-02T09:34:48.318Z</time></trkpt><trkpt lat="43.6186326" lon="12.5813373"><ele>377.0</ele><time>2026-05-02T09:34:49.318Z</time></trkpt><trkpt lat="43.6185277" lon="12.5813317"><ele>377.0</ele><time>2026-05-02T09:34:50.316Z</time></trkpt><trkpt lat="43.6184208" lon="12.5813291"><ele>373.0</ele><time>2026-05-02T09:34:51.317Z</time></trkpt><trkpt lat="43.6183021" lon="12.5813218"><ele>369.0</ele><time>2026-05-02T09:34:52.318Z</time></trkpt><trkpt lat="43.6181795" lon="12.581313"><ele>365.0</ele><time>2026-05-02T09:34:53.315Z</time></trkpt><trkpt lat="43.6180618" lon="12.5813053"><ele>361.0</ele><time>2026-05-02T09:34:54.317Z</time></trkpt><trkpt lat="43.6179451" lon="12.5812913"><ele>361.0</ele><time>2026-05-02T09:34:55.316Z</time></trkpt><trkpt lat="43.6178345" lon="12.5812779"><ele>361.0</ele><time>2026-05-02T09:34:56.323Z</time></trkpt><trkpt lat="43.617725" lon="12.5812778"><ele>361.0</ele><time>2026-05-02T09:34:57.32Z</time></trkpt><trkpt lat="43.6176187" lon="12.5812825"><ele>361.0</ele><time>2026-05-02T09:34:58.317Z</time></trkpt><trkpt lat="43.6175182" lon="12.5812956"><ele>361.0</ele><time>2026-05-02T09:34:59.318Z</time></trkpt><trkpt lat="43.6174198" lon="12.5813261"><ele>358.6</ele><time>2026-05-02T09:35:00.318Z</time></trkpt><trkpt lat="43.6173168" lon="12.5813454"><ele>356.20000000000005</ele><time>2026-05-02T09:35:01.312Z</time></trkpt><trkpt lat="43.6172068" lon="12.581381"><ele>353.79999999999995</ele><time>2026-05-02T09:35:02.316Z</time></trkpt><trkpt lat="43.6170993" lon="12.5814195"><ele>351.4</ele><time>2026-05-02T09:35:03.317Z</time></trkpt><trkpt lat="43.6169949" lon="12.5814633"><ele>349.0</ele><time>2026-05-02T09:35:04.315Z</time></trkpt><trkpt lat="43.6168882" lon="12.5815079"><ele>347.0</ele><time>2026-05-02T09:35:05.317Z</time></trkpt><trkpt lat="43.6167843" lon="12.5815484"><ele>345.0</ele><time>2026-05-02T09:35:06.319Z</time></trkpt><trkpt lat="43.6166925" lon="12.5815955"><ele>343.0</ele><time>2026-05-02T09:35:07.315Z</time></trkpt><trkpt lat="43.6166063" lon="12.5816444"><ele>341.0</ele><time>2026-05-02T09:35:08.318Z</time></trkpt><trkpt lat="43.6165254" lon="12.5816911"><ele>339.0</ele><time>2026-05-02T09:35:09.319Z</time></trkpt><trkpt lat="43.616439" lon="12.5817173"><ele>339.0</ele><time>2026-05-02T09:35:10.316Z</time></trkpt><trkpt lat="43.6163531" lon="12.5816692"><ele>339.0</ele><time>2026-05-02T09:35:11.315Z</time></trkpt><trkpt lat="43.616264" lon="12.5816209"><ele>339.0</ele><time>2026-05-02T09:35:12.32Z</time></trkpt><trkpt lat="43.6161879" lon="12.5815662"><ele>339.0</ele><time>2026-05-02T09:35:13.317Z</time></trkpt><trkpt lat="43.6161143" lon="12.5815153"><ele>339.0</ele><time>2026-05-02T09:35:14.318Z</time></trkpt><trkpt lat="43.6160386" lon="12.5814824"><ele>339.0</ele><time>2026-05-02T09:35:15.319Z</time></trkpt><trkpt lat="43.6159542" lon="12.5814722"><ele>336.4</ele><time>2026-05-02T09:35:16.317Z</time></trkpt><trkpt lat="43.615873" lon="12.581468"><ele>333.79999999999995</ele><time>2026-05-02T09:35:17.318Z</time></trkpt><trkpt lat="43.6157729" lon="12.5814546"><ele>331.20000000000005</ele><time>2026-05-02T09:35:18.318Z</time></trkpt><trkpt lat="43.6156748" lon="12.5814146"><ele>328.6</ele><time>2026-05-02T09:35:19.316Z</time></trkpt><trkpt lat="43.6155812" lon="12.581355"><ele>326.0</ele><time>2026-05-02T09:35:20.319Z</time></trkpt><trkpt lat="43.6155135" lon="12.5812405"><ele>324.8</ele><time>2026-05-02T09:35:21.319Z</time></trkpt><trkpt lat="43.6154522" lon="12.5811498"><ele>323.6</ele><time>2026-05-02T09:35:22.318Z</time></trkpt><trkpt lat="43.6153623" lon="12.5810203"><ele>322.4</ele><time>2026-05-02T09:35:23.319Z</time></trkpt><trkpt lat="43.6152847" lon="12.5808958"><ele>321.2</ele><time>2026-05-02T09:35:24.316Z</time></trkpt><trkpt lat="43.6152408" lon="12.5807585"><ele>320.0</ele><time>2026-05-02T09:35:25.315Z</time></trkpt><trkpt lat="43.615187" lon="12.5806226"><ele>318.6666666666667</ele><time>2026-05-02T09:35:26.325Z</time></trkpt><trkpt lat="43.6151365" lon="12.5805017"><ele>317.33333333333337</ele><time>2026-05-02T09:35:27.318Z</time></trkpt><trkpt lat="43.6150944" lon="12.5803796"><ele>316.0</ele><time>2026-05-02T09:35:28.316Z</time></trkpt><trkpt lat="43.6150426" lon="12.5803047"><ele>314.6666666666667</ele><time>2026-05-02T09:35:29.318Z</time></trkpt><trkpt lat="43.6149955" lon="12.5802327"><ele>313.3333333333333</ele><time>2026-05-02T09:35:30.318Z</time></trkpt><trkpt lat="43.6149115" lon="12.5802082"><ele>312.0</ele><time>2026-05-02T09:35:31.318Z</time></trkpt><trkpt lat="43.6148307" lon="12.5801666"><ele>310.8</ele><time>2026-05-02T09:35:32.319Z</time></trkpt><trkpt lat="43.6147366" lon="12.5801469"><ele>309.6</ele><time>2026-05-02T09:35:33.319Z</time></trkpt><trkpt lat="43.614647" lon="12.5800783"><ele>308.40000000000003</ele><time>2026-05-02T09:35:34.315Z</time></trkpt><trkpt lat="43.6145787" lon="12.579987"><ele>307.2</ele><time>2026-05-02T09:35:35.318Z</time></trkpt><trkpt lat="43.6145206" lon="12.5798833"><ele>306.0</ele><time>2026-05-02T09:35:36.32Z</time></trkpt><trkpt lat="43.6144868" lon="12.5797813"><ele>305.0</ele><time>2026-05-02T09:35:37.316Z</time></trkpt><trkpt lat="43.6144259" lon="12.5796769"><ele>304.0</ele><time>2026-05-02T09:35:38.314Z</time></trkpt><trkpt lat="43.6143592" lon="12.5795906"><ele>303.0</ele><time>2026-05-02T09:35:39.313Z</time></trkpt><trkpt lat="43.6142999" lon="12.5795077"><ele>302.0</ele><time>2026-05-02T09:35:40.312Z</time></trkpt><trkpt lat="43.6142159" lon="12.5794909"><ele>301.0</ele><time>2026-05-02T09:35:41.314Z</time></trkpt><trkpt lat="43.6141357" lon="12.579472"><ele>300.0</ele><time>2026-05-02T09:35:42.307Z</time></trkpt><trkpt lat="43.6140555" lon="12.5794598"><ele>300.0</ele><time>2026-05-02T09:35:43.312Z</time></trkpt><trkpt lat="43.613971" lon="12.5794658"><ele>300.0</ele><time>2026-05-02T09:35:44.315Z</time></trkpt><trkpt lat="43.6138835" lon="12.5794731"><ele>300.0</ele><time>2026-05-02T09:35:45.313Z</time></trkpt><trkpt lat="43.6137927" lon="12.5795006"><ele>300.0</ele><time>2026-05-02T09:35:46.318Z</time></trkpt><trkpt lat="43.6137133" lon="12.5795376"><ele>300.0</ele><time>2026-05-02T09:35:47.314Z</time></trkpt><trkpt lat="43.6136394" lon="12.5795896"><ele>300.0</ele><time>2026-05-02T09:35:48.313Z</time></trkpt><trkpt lat="43.6135716" lon="12.5796366"><ele>299.5</ele><time>2026-05-02T09:35:49.312Z</time></trkpt><trkpt lat="43.6135047" lon="12.5796943"><ele>299.0</ele><time>2026-05-02T09:35:50.3Z</time></trkpt><trkpt lat="43.6134393" lon="12.5797545"><ele>298.5</ele><time>2026-05-02T09:35:51.312Z</time></trkpt><trkpt lat="43.6133717" lon="12.5797935"><ele>298.0</ele><time>2026-05-02T09:35:52.315Z</time></trkpt><trkpt lat="43.6132924" lon="12.5798168"><ele>297.5</ele><time>2026-05-02T09:35:53.314Z</time></trkpt><trkpt lat="43.6131994" lon="12.5798232"><ele>297.0</ele><time>2026-05-02T09:35:54.314Z</time></trkpt><trkpt lat="43.6131022" lon="12.5798292"><ele>297.0</ele><time>2026-05-02T09:35:55.335Z</time></trkpt><trkpt lat="43.613005" lon="12.5798411"><ele>297.0</ele><time>2026-05-02T09:35:56.317Z</time></trkpt><trkpt lat="43.6129059" lon="12.5798381"><ele>297.0</ele><time>2026-05-02T09:35:57.318Z</time></trkpt><trkpt lat="43.6128012" lon="12.5798218"><ele>297.0</ele><time>2026-05-02T09:35:58.32Z</time></trkpt><trkpt lat="43.6126896" lon="12.5797902"><ele>297.0</ele><time>2026-05-02T09:35:59.318Z</time></trkpt><trkpt lat="43.6125657" lon="12.5797466"><ele>294.5</ele><time>2026-05-02T09:36:00.32Z</time></trkpt><trkpt lat="43.6124451" lon="12.5796954"><ele>292.0</ele><time>2026-05-02T09:36:01.316Z</time></trkpt><trkpt lat="43.6123137" lon="12.5796359"><ele>289.5</ele><time>2026-05-02T09:36:02.317Z</time></trkpt><trkpt lat="43.6121921" lon="12.5795805"><ele>287.0</ele><time>2026-05-02T09:36:03.32Z</time></trkpt><trkpt lat="43.6120695" lon="12.5795348"><ele>284.5</ele><time>2026-05-02T09:36:04.319Z</time></trkpt><trkpt lat="43.611952" lon="12.5794923"><ele>282.0</ele><time>2026-05-02T09:36:05.318Z</time></trkpt><trkpt lat="43.6118309" lon="12.5794393"><ele>279.5</ele><time>2026-05-02T09:36:06.322Z</time></trkpt><trkpt lat="43.6117301" lon="12.5793542"><ele>277.0</ele><time>2026-05-02T09:36:07.32Z</time></trkpt><trkpt lat="43.6116111" lon="12.5793016"><ele>277.0</ele><time>2026-05-02T09:36:08.326Z</time></trkpt><trkpt lat="43.6114891" lon="12.5792624"><ele>277.0</ele><time>2026-05-02T09:36:09.321Z</time></trkpt><trkpt lat="43.6113966" lon="12.5792259"><ele>277.0</ele><time>2026-05-02T09:36:10.317Z</time></trkpt><trkpt lat="43.6113072" lon="12.5792417"><ele>277.0</ele><time>2026-05-02T09:36:12.316Z</time></trkpt><trkpt lat="43.611204" lon="12.5792602"><ele>277.0</ele><time>2026-05-02T09:36:14.313Z</time></trkpt><trkpt lat="43.6112475" lon="12.5791601"><ele>277.0</ele><time>2026-05-02T09:36:15.316Z</time></trkpt><trkpt lat="43.6113179" lon="12.579118"><ele>277.0</ele><time>2026-05-02T09:36:58.319Z</time></trkpt><trkpt lat="43.611427" lon="12.5791224"><ele>277.0</ele><time>2026-05-02T09:37:01.319Z</time></trkpt><trkpt lat="43.6115688" lon="12.5791302"><ele>277.0</ele><time>2026-05-02T09:37:03.317Z</time></trkpt><trkpt lat="43.6116363" lon="12.5791251"><ele>277.0</ele><time>2026-05-02T09:37:04.32Z</time></trkpt><trkpt lat="43.6116989" lon="12.5791042"><ele>277.0</ele><time>2026-05-02T09:37:05.32Z</time></trkpt><trkpt lat="43.611793" lon="12.5790761"><ele>277.0</ele><time>2026-05-02T09:37:07.32Z</time></trkpt><trkpt lat="43.611862" lon="12.5790491"><ele>277.0</ele><time>2026-05-02T09:37:09.317Z</time></trkpt><trkpt lat="43.6119314" lon="12.5790112"><ele>277.0</ele><time>2026-05-02T09:37:11.316Z</time></trkpt><trkpt lat="43.6120371" lon="12.5789596"><ele>277.0</ele><time>2026-05-02T09:37:13.319Z</time></trkpt><trkpt lat="43.6121234" lon="12.5788377"><ele>278.8333333333333</ele><time>2026-05-02T09:37:15.32Z</time></trkpt><trkpt lat="43.6121377" lon="12.5787432"><ele>280.66666666666663</ele><time>2026-05-02T09:37:16.323Z</time></trkpt><trkpt lat="43.612147" lon="12.5786362"><ele>282.5</ele><time>2026-05-02T09:37:17.317Z</time></trkpt><trkpt lat="43.6121495" lon="12.5785097"><ele>284.3333333333333</ele><time>2026-05-02T09:37:18.32Z</time></trkpt><trkpt lat="43.6121546" lon="12.5783713"><ele>286.1666666666667</ele><time>2026-05-02T09:37:19.322Z</time></trkpt><trkpt lat="43.6121621" lon="12.5782438"><ele>288.0</ele><time>2026-05-02T09:37:20.319Z</time></trkpt><trkpt lat="43.6121506" lon="12.5781172"><ele>289.8333333333333</ele><time>2026-05-02T09:37:21.324Z</time></trkpt><trkpt lat="43.6121702" lon="12.5780058"><ele>291.6666666666667</ele><time>2026-05-02T09:37:22.32Z</time></trkpt><trkpt lat="43.612158" lon="12.577894"><ele>293.5</ele><time>2026-05-02T09:37:23.32Z</time></trkpt><trkpt lat="43.6121508" lon="12.5777751"><ele>295.33333333333337</ele><time>2026-05-02T09:37:24.322Z</time></trkpt><trkpt lat="43.6121353" lon="12.5776349"><ele>297.1666666666667</ele><time>2026-05-02T09:37:25.32Z</time></trkpt><trkpt lat="43.6121227" lon="12.5775061"><ele>299.0</ele><time>2026-05-02T09:37:26.321Z</time></trkpt><trkpt lat="43.6120971" lon="12.5773588"><ele>300.5</ele><time>2026-05-02T09:37:27.323Z</time></trkpt><trkpt lat="43.6120803" lon="12.5772137"><ele>302.0</ele><time>2026-05-02T09:37:28.32Z</time></trkpt><trkpt lat="43.61207" lon="12.5770866"><ele>303.5</ele><time>2026-05-02T09:37:29.317Z</time></trkpt><trkpt lat="43.6120522" lon="12.5769686"><ele>305.0</ele><time>2026-05-02T09:37:30.319Z</time></trkpt><trkpt lat="43.6120429" lon="12.5768619"><ele>306.5</ele><time>2026-05-02T09:37:31.319Z</time></trkpt><trkpt lat="43.6120401" lon="12.5767455"><ele>308.0</ele><time>2026-05-02T09:37:32.321Z</time></trkpt><trkpt lat="43.6120349" lon="12.5766224"><ele>308.6</ele><time>2026-05-02T09:37:33.32Z</time></trkpt><trkpt lat="43.6120167" lon="12.5764748"><ele>309.20000000000005</ele><time>2026-05-02T09:37:35.318Z</time></trkpt><trkpt lat="43.6120132" lon="12.5763862"><ele>309.8</ele><time>2026-05-02T09:37:36.323Z</time></trkpt><trkpt lat="43.6119182" lon="12.5762299"><ele>310.40000000000003</ele><time>2026-05-02T09:37:37.325Z</time></trkpt><trkpt lat="43.6118817" lon="12.5761071"><ele>311.0</ele><time>2026-05-02T09:37:38.318Z</time></trkpt><trkpt lat="43.6118446" lon="12.5759813"><ele>305.40000000000003</ele><time>2026-05-02T09:37:39.321Z</time></trkpt><trkpt lat="43.6118077" lon="12.5758243"><ele>299.8</ele><time>2026-05-02T09:37:40.32Z</time></trkpt><trkpt lat="43.6117652" lon="12.5757199"><ele>294.20000000000005</ele><time>2026-05-02T09:37:41.321Z</time></trkpt><trkpt lat="43.6117315" lon="12.5755836"><ele>288.6</ele><time>2026-05-02T09:37:42.323Z</time></trkpt><trkpt lat="43.6116919" lon="12.575408"><ele>283.0</ele><time>2026-05-02T09:37:44.324Z</time></trkpt><trkpt lat="43.611667" lon="12.5753096"><ele>283.0</ele><time>2026-05-02T09:37:45.32Z</time></trkpt><trkpt lat="43.6116912" lon="12.5751336"><ele>283.0</ele><time>2026-05-02T09:37:47.319Z</time></trkpt><trkpt lat="43.6116946" lon="12.5750389"><ele>283.0</ele><time>2026-05-02T09:37:48.31Z</time></trkpt><trkpt lat="43.6117185" lon="12.5749305"><ele>283.0</ele><time>2026-05-02T09:37:49.316Z</time></trkpt><trkpt lat="43.6117117" lon="12.5748033"><ele>283.0</ele><time>2026-05-02T09:37:50.317Z</time></trkpt><trkpt lat="43.6117098" lon="12.5746859"><ele>283.0</ele><time>2026-05-02T09:37:51.316Z</time></trkpt><trkpt lat="43.6116725" lon="12.574593"><ele>283.0</ele><time>2026-05-02T09:37:52.318Z</time></trkpt><trkpt lat="43.6115677" lon="12.5745495"><ele>283.0</ele><time>2026-05-02T09:37:53.317Z</time></trkpt><trkpt lat="43.6114989" lon="12.5744347"><ele>283.0</ele><time>2026-05-02T09:37:54.315Z</time></trkpt><trkpt lat="43.6114314" lon="12.5743316"><ele>283.0</ele><time>2026-05-02T09:37:55.316Z</time></trkpt><trkpt lat="43.611371" lon="12.5742243"><ele>281.0</ele><time>2026-05-02T09:37:56.32Z</time></trkpt><trkpt lat="43.6113172" lon="12.574117"><ele>279.0</ele><time>2026-05-02T09:37:57.317Z</time></trkpt><trkpt lat="43.6112573" lon="12.5740194"><ele>277.0</ele><time>2026-05-02T09:37:58.318Z</time></trkpt><trkpt lat="43.611192" lon="12.5739215"><ele>275.0</ele><time>2026-05-02T09:37:59.317Z</time></trkpt><trkpt lat="43.6111294" lon="12.5738266"><ele>273.0</ele><time>2026-05-02T09:38:00.317Z</time></trkpt><trkpt lat="43.6110569" lon="12.5737184"><ele>274.6</ele><time>2026-05-02T09:38:01.315Z</time></trkpt><trkpt lat="43.6110119" lon="12.5736296"><ele>276.20000000000005</ele><time>2026-05-02T09:38:02.314Z</time></trkpt><trkpt lat="43.6109888" lon="12.5735032"><ele>277.8</ele><time>2026-05-02T09:38:03.313Z</time></trkpt><trkpt lat="43.6109563" lon="12.5733645"><ele>279.40000000000003</ele><time>2026-05-02T09:38:04.308Z</time></trkpt><trkpt lat="43.6109249" lon="12.573215"><ele>281.0</ele><time>2026-05-02T09:38:05.314Z</time></trkpt><trkpt lat="43.6108818" lon="12.5731117"><ele>281.0</ele><time>2026-05-02T09:38:06.314Z</time></trkpt><trkpt lat="43.610835" lon="12.5730141"><ele>281.0</ele><time>2026-05-02T09:38:07.313Z</time></trkpt><trkpt lat="43.610819" lon="12.5729009"><ele>281.0</ele><time>2026-05-02T09:38:08.313Z</time></trkpt><trkpt lat="43.6108082" lon="12.5727963"><ele>281.0</ele><time>2026-05-02T09:38:09.311Z</time></trkpt><trkpt lat="43.6108152" lon="12.5726821"><ele>281.0</ele><time>2026-05-02T09:38:10.31Z</time></trkpt><trkpt lat="43.6108241" lon="12.5725561"><ele>281.0</ele><time>2026-05-02T09:38:11.312Z</time></trkpt><trkpt lat="43.6108333" lon="12.5724242"><ele>282.0</ele><time>2026-05-02T09:38:12.312Z</time></trkpt><trkpt lat="43.6108541" lon="12.5722905"><ele>283.0</ele><time>2026-05-02T09:38:13.312Z</time></trkpt><trkpt lat="43.6108722" lon="12.5721475"><ele>284.0</ele><time>2026-05-02T09:38:14.31Z</time></trkpt><trkpt lat="43.6108927" lon="12.572008"><ele>285.0</ele><time>2026-05-02T09:38:15.315Z</time></trkpt><trkpt lat="43.6109207" lon="12.5718664"><ele>286.0</ele><time>2026-05-02T09:38:16.317Z</time></trkpt><trkpt lat="43.6109448" lon="12.5717304"><ele>286.2</ele><time>2026-05-02T09:38:17.316Z</time></trkpt><trkpt lat="43.6109564" lon="12.5716173"><ele>286.40000000000003</ele><time>2026-05-02T09:38:18.315Z</time></trkpt><trkpt lat="43.6109698" lon="12.5715222"><ele>286.6</ele><time>2026-05-02T09:38:19.316Z</time></trkpt><trkpt lat="43.6109811" lon="12.5714178"><ele>286.8</ele><time>2026-05-02T09:38:20.31Z</time></trkpt><trkpt lat="43.6109883" lon="12.5713069"><ele>287.0</ele><time>2026-05-02T09:38:21.431Z</time></trkpt><trkpt lat="43.6110003" lon="12.5710571"><ele>288.2</ele><time>2026-05-02T09:38:23.316Z</time></trkpt><trkpt lat="43.611002" lon="12.5709147"><ele>289.4</ele><time>2026-05-02T09:38:24.315Z</time></trkpt><trkpt lat="43.6110066" lon="12.5707688"><ele>290.6</ele><time>2026-05-02T09:38:25.315Z</time></trkpt><trkpt lat="43.6110115" lon="12.5706242"><ele>291.8</ele><time>2026-05-02T09:38:26.317Z</time></trkpt><trkpt lat="43.6110176" lon="12.5704818"><ele>293.0</ele><time>2026-05-02T09:38:27.315Z</time></trkpt><trkpt lat="43.6110275" lon="12.5703598"><ele>292.5</ele><time>2026-05-02T09:38:28.315Z</time></trkpt><trkpt lat="43.6110401" lon="12.5702342"><ele>292.0</ele><time>2026-05-02T09:38:29.315Z</time></trkpt><trkpt lat="43.6110533" lon="12.5701089"><ele>291.5</ele><time>2026-05-02T09:38:30.315Z</time></trkpt><trkpt lat="43.6110772" lon="12.5699849"><ele>291.0</ele><time>2026-05-02T09:38:31.314Z</time></trkpt><trkpt lat="43.611099" lon="12.5698693"><ele>290.5</ele><time>2026-05-02T09:38:32.314Z</time></trkpt><trkpt lat="43.6111201" lon="12.5697565"><ele>290.0</ele><time>2026-05-02T09:38:33.316Z</time></trkpt><trkpt lat="43.6111383" lon="12.5696607"><ele>290.0</ele><time>2026-05-02T09:38:34.313Z</time></trkpt><trkpt lat="43.6111512" lon="12.5695697"><ele>290.0</ele><time>2026-05-02T09:38:35.316Z</time></trkpt><trkpt lat="43.6111632" lon="12.5694778"><ele>290.0</ele><time>2026-05-02T09:38:36.313Z</time></trkpt><trkpt lat="43.6111801" lon="12.5693734"><ele>290.0</ele><time>2026-05-02T09:38:37.315Z</time></trkpt><trkpt lat="43.6111974" lon="12.5692665"><ele>290.0</ele><time>2026-05-02T09:38:38.315Z</time></trkpt><trkpt lat="43.6112087" lon="12.5691634"><ele>290.0</ele><time>2026-05-02T09:38:39.315Z</time></trkpt><trkpt lat="43.6112276" lon="12.5690584"><ele>290.0</ele><time>2026-05-02T09:38:40.317Z</time></trkpt><trkpt lat="43.6112524" lon="12.5689354"><ele>292.6</ele><time>2026-05-02T09:38:41.314Z</time></trkpt><trkpt lat="43.6113011" lon="12.5688118"><ele>295.2</ele><time>2026-05-02T09:38:42.315Z</time></trkpt><trkpt lat="43.6113551" lon="12.5686862"><ele>297.8</ele><time>2026-05-02T09:38:43.316Z</time></trkpt><trkpt lat="43.6114144" lon="12.5685704"><ele>300.4</ele><time>2026-05-02T09:38:44.314Z</time></trkpt><trkpt lat="43.611476" lon="12.5684776"><ele>303.0</ele><time>2026-05-02T09:38:45.313Z</time></trkpt><trkpt lat="43.6115392" lon="12.5684"><ele>303.0</ele><time>2026-05-02T09:38:46.316Z</time></trkpt><trkpt lat="43.6116072" lon="12.5683157"><ele>303.0</ele><time>2026-05-02T09:38:47.314Z</time></trkpt><trkpt lat="43.6116958" lon="12.5682323"><ele>303.0</ele><time>2026-05-02T09:38:48.314Z</time></trkpt><trkpt lat="43.6117823" lon="12.5681424"><ele>303.0</ele><time>2026-05-02T09:38:49.315Z</time></trkpt><trkpt lat="43.6118796" lon="12.5680894"><ele>303.0</ele><time>2026-05-02T09:38:50.316Z</time></trkpt><trkpt lat="43.6119438" lon="12.5679988"><ele>303.6666666666667</ele><time>2026-05-02T09:38:51.309Z</time></trkpt><trkpt lat="43.6120152" lon="12.5679162"><ele>304.3333333333333</ele><time>2026-05-02T09:38:52.314Z</time></trkpt><trkpt lat="43.612083" lon="12.567821"><ele>305.0</ele><time>2026-05-02T09:38:53.314Z</time></trkpt><trkpt lat="43.6121531" lon="12.5677499"><ele>305.66666666666663</ele><time>2026-05-02T09:38:54.314Z</time></trkpt><trkpt lat="43.6122168" lon="12.5676593"><ele>306.3333333333333</ele><time>2026-05-02T09:38:55.312Z</time></trkpt><trkpt lat="43.6122644" lon="12.5675985"><ele>307.0</ele><time>2026-05-02T09:38:56.306Z</time></trkpt><trkpt lat="43.6122969" lon="12.5674642"><ele>307.0</ele><time>2026-05-02T09:38:57.31Z</time></trkpt><trkpt lat="43.6123254" lon="12.5673162"><ele>307.0</ele><time>2026-05-02T09:38:58.315Z</time></trkpt><trkpt lat="43.6123666" lon="12.567186"><ele>307.0</ele><time>2026-05-02T09:38:59.308Z</time></trkpt><trkpt lat="43.6124153" lon="12.5670442"><ele>307.0</ele><time>2026-05-02T09:39:00.311Z</time></trkpt><trkpt lat="43.6124799" lon="12.5669293"><ele>307.0</ele><time>2026-05-02T09:39:01.312Z</time></trkpt><trkpt lat="43.6125459" lon="12.5668215"><ele>305.2</ele><time>2026-05-02T09:39:02.311Z</time></trkpt><trkpt lat="43.6126104" lon="12.5667118"><ele>303.4</ele><time>2026-05-02T09:39:03.311Z</time></trkpt><trkpt lat="43.6126608" lon="12.5665834"><ele>301.6</ele><time>2026-05-02T09:39:04.31Z</time></trkpt><trkpt lat="43.6127015" lon="12.5664512"><ele>299.8</ele><time>2026-05-02T09:39:05.313Z</time></trkpt><trkpt lat="43.6127307" lon="12.5663063"><ele>298.0</ele><time>2026-05-02T09:39:06.312Z</time></trkpt><trkpt lat="43.6127467" lon="12.5661504"><ele>298.0</ele><time>2026-05-02T09:39:07.312Z</time></trkpt><trkpt lat="43.6127528" lon="12.5659973"><ele>298.0</ele><time>2026-05-02T09:39:08.31Z</time></trkpt><trkpt lat="43.6127497" lon="12.5658556"><ele>298.0</ele><time>2026-05-02T09:39:09.311Z</time></trkpt><trkpt lat="43.6127534" lon="12.5657117"><ele>298.0</ele><time>2026-05-02T09:39:10.31Z</time></trkpt><trkpt lat="43.6127587" lon="12.5655631"><ele>298.0</ele><time>2026-05-02T09:39:11.312Z</time></trkpt><trkpt lat="43.6127754" lon="12.5654189"><ele>297.4</ele><time>2026-05-02T09:39:12.315Z</time></trkpt><trkpt lat="43.6128" lon="12.5652828"><ele>296.8</ele><time>2026-05-02T09:39:13.312Z</time></trkpt><trkpt lat="43.6128311" lon="12.565139"><ele>296.2</ele><time>2026-05-02T09:39:14.31Z</time></trkpt><trkpt lat="43.6128565" lon="12.5650122"><ele>295.6</ele><time>2026-05-02T09:39:15.314Z</time></trkpt><trkpt lat="43.6128828" lon="12.5648952"><ele>295.0</ele><time>2026-05-02T09:39:16.316Z</time></trkpt><trkpt lat="43.6129195" lon="12.5647778"><ele>297.6</ele><time>2026-05-02T09:39:17.311Z</time></trkpt><trkpt lat="43.6129644" lon="12.5646457"><ele>300.2</ele><time>2026-05-02T09:39:18.314Z</time></trkpt><trkpt lat="43.6130138" lon="12.5645147"><ele>302.8</ele><time>2026-05-02T09:39:19.315Z</time></trkpt><trkpt lat="43.6130919" lon="12.5643806"><ele>305.4</ele><time>2026-05-02T09:39:20.313Z</time></trkpt><trkpt lat="43.613151" lon="12.5642557"><ele>308.0</ele><time>2026-05-02T09:39:21.315Z</time></trkpt><trkpt lat="43.6132139" lon="12.5641438"><ele>308.0</ele><time>2026-05-02T09:39:22.315Z</time></trkpt><trkpt lat="43.6132833" lon="12.5640576"><ele>308.0</ele><time>2026-05-02T09:39:23.314Z</time></trkpt><trkpt lat="43.6133548" lon="12.5639953"><ele>308.0</ele><time>2026-05-02T09:39:24.314Z</time></trkpt><trkpt lat="43.6134231" lon="12.5639376"><ele>308.0</ele><time>2026-05-02T09:39:25.315Z</time></trkpt><trkpt lat="43.6134868" lon="12.5638766"><ele>308.0</ele><time>2026-05-02T09:39:26.317Z</time></trkpt><trkpt lat="43.6135716" lon="12.5637866"><ele>308.0</ele><time>2026-05-02T09:39:28.314Z</time></trkpt><trkpt lat="43.6135848" lon="12.5636658"><ele>306.4</ele><time>2026-05-02T09:39:30.31Z</time></trkpt><trkpt lat="43.613563" lon="12.5635266"><ele>304.8</ele><time>2026-05-02T09:39:32.312Z</time></trkpt><trkpt lat="43.6135294" lon="12.56345"><ele>303.2</ele><time>2026-05-02T09:39:33.314Z</time></trkpt><trkpt lat="43.6134434" lon="12.5633731"><ele>301.6</ele><time>2026-05-02T09:39:35.3Z</time></trkpt><trkpt lat="43.6133484" lon="12.5634112"><ele>300.0</ele><time>2026-05-02T09:39:37.31Z</time></trkpt><trkpt lat="43.6132605" lon="12.563431"><ele>300.0</ele><time>2026-05-02T09:39:39.317Z</time></trkpt><trkpt lat="43.6131655" lon="12.5634417"><ele>300.0</ele><time>2026-05-02T09:39:41.329Z</time></trkpt><trkpt lat="43.6130286" lon="12.5634694"><ele>300.0</ele><time>2026-05-02T09:39:43.315Z</time></trkpt><trkpt lat="43.6129472" lon="12.563494"><ele>300.0</ele><time>2026-05-02T09:39:44.315Z</time></trkpt><trkpt lat="43.6128564" lon="12.5635328"><ele>300.0</ele><time>2026-05-02T09:39:45.315Z</time></trkpt><trkpt lat="43.6127562" lon="12.5635666"><ele>298.6</ele><time>2026-05-02T09:39:46.316Z</time></trkpt><trkpt lat="43.6126506" lon="12.5636099"><ele>297.2</ele><time>2026-05-02T09:39:47.314Z</time></trkpt><trkpt lat="43.6125534" lon="12.5636394"><ele>295.8</ele><time>2026-05-02T09:39:48.314Z</time></trkpt><trkpt lat="43.6124564" lon="12.5636512"><ele>294.4</ele><time>2026-05-02T09:39:49.316Z</time></trkpt><trkpt lat="43.612353" lon="12.5636503"><ele>293.0</ele><time>2026-05-02T09:39:50.316Z</time></trkpt><trkpt lat="43.6122414" lon="12.5636273"><ele>293.0</ele><time>2026-05-02T09:39:51.316Z</time></trkpt><trkpt lat="43.6121221" lon="12.5635949"><ele>293.0</ele><time>2026-05-02T09:39:52.315Z</time></trkpt><trkpt lat="43.612008" lon="12.5635692"><ele>293.0</ele><time>2026-05-02T09:39:53.315Z</time></trkpt><trkpt lat="43.6119043" lon="12.563524"><ele>293.0</ele><time>2026-05-02T09:39:54.316Z</time></trkpt><trkpt lat="43.6117944" lon="12.5634611"><ele>292.25</ele><time>2026-05-02T09:39:55.317Z</time></trkpt><trkpt lat="43.6116811" lon="12.5634046"><ele>291.5</ele><time>2026-05-02T09:39:56.318Z</time></trkpt><trkpt lat="43.6115694" lon="12.5632782"><ele>290.75</ele><time>2026-05-02T09:39:57.315Z</time></trkpt><trkpt lat="43.6114444" lon="12.5631622"><ele>290.0</ele><time>2026-05-02T09:39:58.313Z</time></trkpt><trkpt lat="43.6113326" lon="12.5630501"><ele>290.0</ele><time>2026-05-02T09:39:59.313Z</time></trkpt><trkpt lat="43.6112216" lon="12.5629293"><ele>290.0</ele><time>2026-05-02T09:40:00.313Z</time></trkpt><trkpt lat="43.6111309" lon="12.5628504"><ele>290.0</ele><time>2026-05-02T09:40:01.312Z</time></trkpt><trkpt lat="43.6110469" lon="12.5627455"><ele>290.0</ele><time>2026-05-02T09:40:02.312Z</time></trkpt><trkpt lat="43.6109639" lon="12.5626465"><ele>288.6</ele><time>2026-05-02T09:40:03.313Z</time></trkpt><trkpt lat="43.6108846" lon="12.5625441"><ele>287.2</ele><time>2026-05-02T09:40:04.313Z</time></trkpt><trkpt lat="43.6108119" lon="12.5624426"><ele>285.8</ele><time>2026-05-02T09:40:05.31Z</time></trkpt><trkpt lat="43.6107473" lon="12.5623359"><ele>284.4</ele><time>2026-05-02T09:40:06.315Z</time></trkpt><trkpt lat="43.6106982" lon="12.5622258"><ele>283.0</ele><time>2026-05-02T09:40:07.312Z</time></trkpt><trkpt lat="43.6106566" lon="12.5621104"><ele>283.0</ele><time>2026-05-02T09:40:08.313Z</time></trkpt><trkpt lat="43.6106258" lon="12.5619756"><ele>283.0</ele><time>2026-05-02T09:40:09.312Z</time></trkpt><trkpt lat="43.6106085" lon="12.5618233"><ele>283.0</ele><time>2026-05-02T09:40:10.313Z</time></trkpt><trkpt lat="43.6106052" lon="12.5616541"><ele>283.0</ele><time>2026-05-02T09:40:11.312Z</time></trkpt><trkpt lat="43.6106014" lon="12.5614655"><ele>283.0</ele><time>2026-05-02T09:40:12.312Z</time></trkpt><trkpt lat="43.6106012" lon="12.5612563"><ele>283.0</ele><time>2026-05-02T09:40:13.313Z</time></trkpt><trkpt lat="43.6105973" lon="12.561032"><ele>283.0</ele><time>2026-05-02T09:40:14.314Z</time></trkpt><trkpt lat="43.6105947" lon="12.5608058"><ele>283.5</ele><time>2026-05-02T09:40:15.313Z</time></trkpt><trkpt lat="43.6105895" lon="12.560598"><ele>284.0</ele><time>2026-05-02T09:40:16.315Z</time></trkpt><trkpt lat="43.6105865" lon="12.5604054"><ele>284.5</ele><time>2026-05-02T09:40:17.314Z</time></trkpt><trkpt lat="43.610584" lon="12.5602367"><ele>285.0</ele><time>2026-05-02T09:40:18.312Z</time></trkpt><trkpt lat="43.6105898" lon="12.5600801"><ele>286.5</ele><time>2026-05-02T09:40:19.313Z</time></trkpt><trkpt lat="43.6106136" lon="12.5599346"><ele>288.0</ele><time>2026-05-02T09:40:20.31Z</time></trkpt><trkpt lat="43.6106555" lon="12.5597684"><ele>289.5</ele><time>2026-05-02T09:40:21.311Z</time></trkpt><trkpt lat="43.6107147" lon="12.5595985"><ele>291.0</ele><time>2026-05-02T09:40:22.313Z</time></trkpt><trkpt lat="43.6107663" lon="12.559436"><ele>291.0</ele><time>2026-05-02T09:40:23.311Z</time></trkpt><trkpt lat="43.6108109" lon="12.5592932"><ele>291.0</ele><time>2026-05-02T09:40:24.31Z</time></trkpt><trkpt lat="43.6108469" lon="12.5591646"><ele>291.0</ele><time>2026-05-02T09:40:25.313Z</time></trkpt><trkpt lat="43.6108652" lon="12.5590558"><ele>291.0</ele><time>2026-05-02T09:40:26.314Z</time></trkpt><trkpt lat="43.6108531" lon="12.5589696"><ele>291.0</ele><time>2026-05-02T09:40:27.315Z</time></trkpt><trkpt lat="43.6107566" lon="12.5589125"><ele>291.0</ele><time>2026-05-02T09:40:29.315Z</time></trkpt><trkpt lat="43.6106868" lon="12.5589759"><ele>291.0</ele><time>2026-05-02T09:40:30.317Z</time></trkpt><trkpt lat="43.6106177" lon="12.5590612"><ele>291.0</ele><time>2026-05-02T09:40:31.315Z</time></trkpt><trkpt lat="43.6105349" lon="12.5591668"><ele>291.0</ele><time>2026-05-02T09:40:32.314Z</time></trkpt><trkpt lat="43.6104357" lon="12.5593071"><ele>291.0</ele><time>2026-05-02T09:40:33.314Z</time></trkpt><trkpt lat="43.6103546" lon="12.5594654"><ele>290.0</ele><time>2026-05-02T09:40:34.316Z</time></trkpt><trkpt lat="43.6102702" lon="12.5595584"><ele>289.0</ele><time>2026-05-02T09:40:35.316Z</time></trkpt><trkpt lat="43.6101831" lon="12.5596246"><ele>288.0</ele><time>2026-05-02T09:40:36.318Z</time></trkpt><trkpt lat="43.6100883" lon="12.5596294"><ele>287.0</ele><time>2026-05-02T09:40:37.315Z</time></trkpt><trkpt lat="43.6099944" lon="12.5595869"><ele>286.0</ele><time>2026-05-02T09:40:38.314Z</time></trkpt><trkpt lat="43.6099096" lon="12.5595052"><ele>286.0</ele><time>2026-05-02T09:40:39.316Z</time></trkpt><trkpt lat="43.6098218" lon="12.5593978"><ele>286.0</ele><time>2026-05-02T09:40:40.317Z</time></trkpt><trkpt lat="43.6097404" lon="12.559272"><ele>286.0</ele><time>2026-05-02T09:40:41.315Z</time></trkpt><trkpt lat="43.6096431" lon="12.5591599"><ele>286.0</ele><time>2026-05-02T09:40:42.317Z</time></trkpt><trkpt lat="43.6095392" lon="12.5590583"><ele>284.0</ele><time>2026-05-02T09:40:43.316Z</time></trkpt><trkpt lat="43.6094402" lon="12.5589614"><ele>282.0</ele><time>2026-05-02T09:40:44.314Z</time></trkpt><trkpt lat="43.6093428" lon="12.5588731"><ele>280.0</ele><time>2026-05-02T09:40:45.315Z</time></trkpt><trkpt lat="43.6092482" lon="12.5588024"><ele>278.0</ele><time>2026-05-02T09:40:46.316Z</time></trkpt><trkpt lat="43.6091279" lon="12.5587242"><ele>279.25</ele><time>2026-05-02T09:40:47.314Z</time></trkpt><trkpt lat="43.6090131" lon="12.5586681"><ele>280.5</ele><time>2026-05-02T09:40:48.315Z</time></trkpt><trkpt lat="43.6088954" lon="12.5586159"><ele>281.75</ele><time>2026-05-02T09:40:49.315Z</time></trkpt><trkpt lat="43.6087608" lon="12.5585556"><ele>283.0</ele><time>2026-05-02T09:40:50.314Z</time></trkpt><trkpt lat="43.6086567" lon="12.5585136"><ele>283.0</ele><time>2026-05-02T09:40:51.315Z</time></trkpt><trkpt lat="43.608536" lon="12.5584677"><ele>283.0</ele><time>2026-05-02T09:40:52.314Z</time></trkpt><trkpt lat="43.6084206" lon="12.5584436"><ele>283.0</ele><time>2026-05-02T09:40:53.314Z</time></trkpt><trkpt lat="43.6083164" lon="12.5584122"><ele>283.0</ele><time>2026-05-02T09:40:54.316Z</time></trkpt><trkpt lat="43.6081879" lon="12.5583681"><ele>283.0</ele><time>2026-05-02T09:40:55.314Z</time></trkpt><trkpt lat="43.6080374" lon="12.5583248"><ele>283.0</ele><time>2026-05-02T09:40:56.317Z</time></trkpt><trkpt lat="43.607885" lon="12.5582794"><ele>283.0</ele><time>2026-05-02T09:40:57.316Z</time></trkpt><trkpt lat="43.6077102" lon="12.5582353"><ele>282.66666666666663</ele><time>2026-05-02T09:40:58.315Z</time></trkpt><trkpt lat="43.6075301" lon="12.55818"><ele>282.3333333333333</ele><time>2026-05-02T09:40:59.316Z</time></trkpt><trkpt lat="43.6073476" lon="12.5581208"><ele>282.0</ele><time>2026-05-02T09:41:00.314Z</time></trkpt><trkpt lat="43.6071812" lon="12.5580856"><ele>282.0</ele><time>2026-05-02T09:41:01.314Z</time></trkpt><trkpt lat="43.6070149" lon="12.5580162"><ele>282.0</ele><time>2026-05-02T09:41:02.313Z</time></trkpt><trkpt lat="43.6068755" lon="12.557964"><ele>282.0</ele><time>2026-05-02T09:41:03.314Z</time></trkpt><trkpt lat="43.6067565" lon="12.5579034"><ele>282.0</ele><time>2026-05-02T09:41:04.314Z</time></trkpt><trkpt lat="43.6066096" lon="12.5579351"><ele>281.75</ele><time>2026-05-02T09:41:05.314Z</time></trkpt><trkpt lat="43.6064602" lon="12.5578939"><ele>281.5</ele><time>2026-05-02T09:41:06.318Z</time></trkpt><trkpt lat="43.606318" lon="12.5579065"><ele>281.25</ele><time>2026-05-02T09:41:07.316Z</time></trkpt><trkpt lat="43.6061985" lon="12.5578988"><ele>281.0</ele><time>2026-05-02T09:41:08.314Z</time></trkpt><trkpt lat="43.6060721" lon="12.5578708"><ele>281.0</ele><time>2026-05-02T09:41:09.316Z</time></trkpt><trkpt lat="43.6059666" lon="12.5578254"><ele>281.0</ele><time>2026-05-02T09:41:10.315Z</time></trkpt><trkpt lat="43.6058694" lon="12.5578074"><ele>281.0</ele><time>2026-05-02T09:41:11.314Z</time></trkpt><trkpt lat="43.6057793" lon="12.5578108"><ele>281.0</ele><time>2026-05-02T09:41:12.313Z</time></trkpt><trkpt lat="43.6056835" lon="12.5578307"><ele>281.0</ele><time>2026-05-02T09:41:13.315Z</time></trkpt><trkpt lat="43.6055905" lon="12.557895"><ele>281.0</ele><time>2026-05-02T09:41:14.318Z</time></trkpt><trkpt lat="43.6054697" lon="12.5579634"><ele>281.0</ele><time>2026-05-02T09:41:15.315Z</time></trkpt><trkpt lat="43.6053593" lon="12.5579928"><ele>281.0</ele><time>2026-05-02T09:41:16.317Z</time></trkpt><trkpt lat="43.6052494" lon="12.558029"><ele>281.0</ele><time>2026-05-02T09:41:17.314Z</time></trkpt><trkpt lat="43.6051372" lon="12.5580617"><ele>280.6666666666667</ele><time>2026-05-02T09:41:18.317Z</time></trkpt><trkpt lat="43.6050677" lon="12.5580322"><ele>280.33333333333337</ele><time>2026-05-02T09:41:19.316Z</time></trkpt><trkpt lat="43.6049855" lon="12.5580394"><ele>280.0</ele><time>2026-05-02T09:41:20.315Z</time></trkpt><trkpt lat="43.604902" lon="12.5580434"><ele>279.6666666666667</ele><time>2026-05-02T09:41:21.314Z</time></trkpt><trkpt lat="43.6049558" lon="12.557995"><ele>279.3333333333333</ele><time>2026-05-02T09:41:25.317Z</time></trkpt><trkpt lat="43.6049535" lon="12.5579052"><ele>279.0</ele><time>2026-05-02T09:42:16.318Z</time></trkpt><trkpt lat="43.6048709" lon="12.5578592"><ele>282.0</ele><time>2026-05-02T09:42:18.316Z</time></trkpt><trkpt lat="43.6046851" lon="12.557641"><ele>285.0</ele><time>2026-05-02T09:42:19.327Z</time></trkpt><trkpt lat="43.6045446" lon="12.557528"><ele>288.0</ele><time>2026-05-02T09:42:20.316Z</time></trkpt><trkpt lat="43.6043868" lon="12.5574066"><ele>288.0</ele><time>2026-05-02T09:42:21.316Z</time></trkpt><trkpt lat="43.604212" lon="12.5572698"><ele>288.0</ele><time>2026-05-02T09:42:22.316Z</time></trkpt><trkpt lat="43.6039986" lon="12.5571406"><ele>288.0</ele><time>2026-05-02T09:42:23.315Z</time></trkpt><trkpt lat="43.6036988" lon="12.5570125"><ele>289.0</ele><time>2026-05-02T09:42:24.317Z</time></trkpt><trkpt lat="43.6034526" lon="12.5568759"><ele>290.0</ele><time>2026-05-02T09:42:25.316Z</time></trkpt><trkpt lat="43.6032016" lon="12.556721"><ele>290.0</ele><time>2026-05-02T09:42:26.318Z</time></trkpt><trkpt lat="43.6029856" lon="12.5565167"><ele>290.0</ele><time>2026-05-02T09:42:27.317Z</time></trkpt><trkpt lat="43.6027876" lon="12.5563157"><ele>289.6666666666667</ele><time>2026-05-02T09:42:28.316Z</time></trkpt><trkpt lat="43.6025789" lon="12.5561216"><ele>289.3333333333333</ele><time>2026-05-02T09:42:29.319Z</time></trkpt><trkpt lat="43.6024942" lon="12.55594"><ele>289.0</ele><time>2026-05-02T09:42:30.318Z</time></trkpt><trkpt lat="43.6023291" lon="12.555771"><ele>289.0</ele><time>2026-05-02T09:42:31.318Z</time></trkpt><trkpt lat="43.602168" lon="12.5555994"><ele>289.0</ele><time>2026-05-02T09:42:32.317Z</time></trkpt><trkpt lat="43.6020228" lon="12.5554145"><ele>289.0</ele><time>2026-05-02T09:42:33.315Z</time></trkpt><trkpt lat="43.6018659" lon="12.55523"><ele>288.3333333333333</ele><time>2026-05-02T09:42:34.316Z</time></trkpt><trkpt lat="43.6017094" lon="12.5550453"><ele>287.6666666666667</ele><time>2026-05-02T09:42:35.317Z</time></trkpt><trkpt lat="43.6015497" lon="12.5548673"><ele>287.0</ele><time>2026-05-02T09:42:36.318Z</time></trkpt><trkpt lat="43.601387" lon="12.5546803"><ele>288.0</ele><time>2026-05-02T09:42:37.316Z</time></trkpt><trkpt lat="43.6012121" lon="12.554504"><ele>289.0</ele><time>2026-05-02T09:42:38.316Z</time></trkpt><trkpt lat="43.6010514" lon="12.5543371"><ele>290.0</ele><time>2026-05-02T09:42:39.318Z</time></trkpt><trkpt lat="43.6008836" lon="12.5541934"><ele>290.0</ele><time>2026-05-02T09:42:40.318Z</time></trkpt><trkpt lat="43.6007301" lon="12.5540501"><ele>290.0</ele><time>2026-05-02T09:42:41.316Z</time></trkpt><trkpt lat="43.6005847" lon="12.5539138"><ele>290.0</ele><time>2026-05-02T09:42:42.315Z</time></trkpt><trkpt lat="43.6004493" lon="12.5537921"><ele>293.33333333333337</ele><time>2026-05-02T09:42:43.316Z</time></trkpt><trkpt lat="43.600311" lon="12.5536596"><ele>296.6666666666667</ele><time>2026-05-02T09:42:44.317Z</time></trkpt><trkpt lat="43.600188" lon="12.5535203"><ele>300.0</ele><time>2026-05-02T09:42:45.317Z</time></trkpt><trkpt lat="43.6000682" lon="12.5533842"><ele>300.0</ele><time>2026-05-02T09:42:46.319Z</time></trkpt><trkpt lat="43.5999513" lon="12.5532334"><ele>300.0</ele><time>2026-05-02T09:42:47.307Z</time></trkpt><trkpt lat="43.5998302" lon="12.5530819"><ele>300.0</ele><time>2026-05-02T09:42:48.318Z</time></trkpt><trkpt lat="43.5996909" lon="12.5528562"><ele>300.5</ele><time>2026-05-02T09:42:49.316Z</time></trkpt><trkpt lat="43.599562" lon="12.5525539"><ele>301.0</ele><time>2026-05-02T09:42:50.316Z</time></trkpt><trkpt lat="43.599443" lon="12.5522499"><ele>306.0</ele><time>2026-05-02T09:42:51.318Z</time></trkpt><trkpt lat="43.5993095" lon="12.5519096"><ele>311.0</ele><time>2026-05-02T09:42:52.314Z</time></trkpt><trkpt lat="43.5991954" lon="12.5516013"><ele>311.0</ele><time>2026-05-02T09:42:53.316Z</time></trkpt><trkpt lat="43.5990713" lon="12.5513027"><ele>311.0</ele><time>2026-05-02T09:42:54.316Z</time></trkpt><trkpt lat="43.5989381" lon="12.5510396"><ele>307.33333333333337</ele><time>2026-05-02T09:42:55.315Z</time></trkpt><trkpt lat="43.5987883" lon="12.5508043"><ele>303.6666666666667</ele><time>2026-05-02T09:42:56.318Z</time></trkpt><trkpt lat="43.5986582" lon="12.5506106"><ele>300.0</ele><time>2026-05-02T09:42:57.318Z</time></trkpt><trkpt lat="43.5984889" lon="12.550438"><ele>314.0</ele><time>2026-05-02T09:42:58.316Z</time></trkpt><trkpt lat="43.5982258" lon="12.5503739"><ele>328.0</ele><time>2026-05-02T09:42:59.317Z</time></trkpt><trkpt lat="43.5979739" lon="12.5502924"><ele>322.5</ele><time>2026-05-02T09:43:00.315Z</time></trkpt><trkpt lat="43.5977322" lon="12.5501814"><ele>317.0</ele><time>2026-05-02T09:43:01.315Z</time></trkpt><trkpt lat="43.5974894" lon="12.5502482"><ele>317.0</ele><time>2026-05-02T09:43:02.316Z</time></trkpt><trkpt lat="43.5972532" lon="12.5502167"><ele>317.0</ele><time>2026-05-02T09:43:03.318Z</time></trkpt><trkpt lat="43.5970648" lon="12.5502565"><ele>317.0</ele><time>2026-05-02T09:43:04.316Z</time></trkpt><trkpt lat="43.596867" lon="12.5502646"><ele>315.0</ele><time>2026-05-02T09:43:05.315Z</time></trkpt><trkpt lat="43.5966733" lon="12.550243"><ele>313.0</ele><time>2026-05-02T09:43:06.316Z</time></trkpt><trkpt lat="43.596482" lon="12.5502378"><ele>311.0</ele><time>2026-05-02T09:43:07.316Z</time></trkpt><trkpt lat="43.5962826" lon="12.5500597"><ele>306.0</ele><time>2026-05-02T09:43:08.304Z</time></trkpt><trkpt lat="43.5960679" lon="12.5499067"><ele>301.0</ele><time>2026-05-02T09:43:09.306Z</time></trkpt><trkpt lat="43.5959043" lon="12.5495743"><ele>312.0</ele><time>2026-05-02T09:43:10.304Z</time></trkpt><trkpt lat="43.5957518" lon="12.5491466"><ele>323.0</ele><time>2026-05-02T09:43:11.305Z</time></trkpt><trkpt lat="43.595586" lon="12.5488403"><ele>315.5</ele><time>2026-05-02T09:43:12.307Z</time></trkpt><trkpt lat="43.5954202" lon="12.5485466"><ele>308.0</ele><time>2026-05-02T09:43:13.306Z</time></trkpt><trkpt lat="43.5952956" lon="12.5482348"><ele>308.0</ele><time>2026-05-02T09:43:14.305Z</time></trkpt><trkpt lat="43.5951808" lon="12.5479101"><ele>308.0</ele><time>2026-05-02T09:43:15.306Z</time></trkpt><trkpt lat="43.5950793" lon="12.5476025"><ele>313.5</ele><time>2026-05-02T09:43:16.312Z</time></trkpt><trkpt lat="43.5949782" lon="12.5472899"><ele>319.0</ele><time>2026-05-02T09:43:17.315Z</time></trkpt><trkpt lat="43.5948868" lon="12.5470182"><ele>322.3333333333333</ele><time>2026-05-02T09:43:18.316Z</time></trkpt><trkpt lat="43.5947845" lon="12.5467437"><ele>325.6666666666667</ele><time>2026-05-02T09:43:19.314Z</time></trkpt><trkpt lat="43.5946799" lon="12.5464821"><ele>329.0</ele><time>2026-05-02T09:43:20.317Z</time></trkpt><trkpt lat="43.5945607" lon="12.5462456"><ele>322.6666666666667</ele><time>2026-05-02T09:43:21.316Z</time></trkpt><trkpt lat="43.5944311" lon="12.5460218"><ele>316.3333333333333</ele><time>2026-05-02T09:43:22.314Z</time></trkpt><trkpt lat="43.594298" lon="12.5458076"><ele>310.0</ele><time>2026-05-02T09:43:23.32Z</time></trkpt><trkpt lat="43.5941646" lon="12.5456115"><ele>310.0</ele><time>2026-05-02T09:43:24.314Z</time></trkpt><trkpt lat="43.5940229" lon="12.545412"><ele>310.0</ele><time>2026-05-02T09:43:25.317Z</time></trkpt><trkpt lat="43.5938761" lon="12.5452027"><ele>310.0</ele><time>2026-05-02T09:43:26.315Z</time></trkpt><trkpt lat="43.5937273" lon="12.5449848"><ele>309.5</ele><time>2026-05-02T09:43:27.306Z</time></trkpt><trkpt lat="43.5935665" lon="12.5447453"><ele>309.0</ele><time>2026-05-02T09:43:28.307Z</time></trkpt><trkpt lat="43.5934005" lon="12.5444998"><ele>309.0</ele><time>2026-05-02T09:43:29.315Z</time></trkpt><trkpt lat="43.5932375" lon="12.5442431"><ele>309.0</ele><time>2026-05-02T09:43:30.317Z</time></trkpt><trkpt lat="43.5930869" lon="12.5439955"><ele>309.0</ele><time>2026-05-02T09:43:31.316Z</time></trkpt><trkpt lat="43.5929462" lon="12.5437645"><ele>309.0</ele><time>2026-05-02T09:43:32.315Z</time></trkpt><trkpt lat="43.5928111" lon="12.5435403"><ele>309.0</ele><time>2026-05-02T09:43:33.317Z</time></trkpt><trkpt lat="43.5926772" lon="12.5433131"><ele>309.0</ele><time>2026-05-02T09:43:34.318Z</time></trkpt><trkpt lat="43.5925621" lon="12.5430642"><ele>309.0</ele><time>2026-05-02T09:43:35.322Z</time></trkpt><trkpt lat="43.5924635" lon="12.5428044"><ele>309.0</ele><time>2026-05-02T09:43:36.301Z</time></trkpt><trkpt lat="43.5923853" lon="12.5425356"><ele>309.3333333333333</ele><time>2026-05-02T09:43:37.315Z</time></trkpt><trkpt lat="43.5923368" lon="12.5422647"><ele>309.66666666666663</ele><time>2026-05-02T09:43:38.317Z</time></trkpt><trkpt lat="43.5923043" lon="12.5419939"><ele>310.0</ele><time>2026-05-02T09:43:39.315Z</time></trkpt><trkpt lat="43.5922679" lon="12.5417277"><ele>310.0</ele><time>2026-05-02T09:43:40.316Z</time></trkpt><trkpt lat="43.5922255" lon="12.5414214"><ele>310.0</ele><time>2026-05-02T09:43:41.317Z</time></trkpt><trkpt lat="43.592179" lon="12.5411312"><ele>310.0</ele><time>2026-05-02T09:43:42.316Z</time></trkpt><trkpt lat="43.5921581" lon="12.540832"><ele>313.0</ele><time>2026-05-02T09:43:43.316Z</time></trkpt><trkpt lat="43.5921562" lon="12.5405692"><ele>316.0</ele><time>2026-05-02T09:43:44.323Z</time></trkpt><trkpt lat="43.5922691" lon="12.5402403"><ele>318.0</ele><time>2026-05-02T09:43:45.314Z</time></trkpt><trkpt lat="43.5923097" lon="12.5399243"><ele>320.0</ele><time>2026-05-02T09:43:46.318Z</time></trkpt><trkpt lat="43.5923512" lon="12.5396246"><ele>315.5</ele><time>2026-05-02T09:43:47.313Z</time></trkpt><trkpt lat="43.5923872" lon="12.5392635"><ele>311.0</ele><time>2026-05-02T09:43:48.316Z</time></trkpt><trkpt lat="43.5923891" lon="12.5389395"><ele>312.0</ele><time>2026-05-02T09:43:49.315Z</time></trkpt><trkpt lat="43.5924116" lon="12.5385974"><ele>313.0</ele><time>2026-05-02T09:43:50.314Z</time></trkpt><trkpt lat="43.5924255" lon="12.5382624"><ele>313.0</ele><time>2026-05-02T09:43:51.316Z</time></trkpt><trkpt lat="43.5924416" lon="12.5379362"><ele>313.0</ele><time>2026-05-02T09:43:52.316Z</time></trkpt><trkpt lat="43.5924493" lon="12.5376072"><ele>316.5</ele><time>2026-05-02T09:43:53.315Z</time></trkpt><trkpt lat="43.5924158" lon="12.5372624"><ele>320.0</ele><time>2026-05-02T09:43:54.316Z</time></trkpt><trkpt lat="43.5923988" lon="12.5369348"><ele>322.0</ele><time>2026-05-02T09:43:55.314Z</time></trkpt><trkpt lat="43.5923828" lon="12.5366199"><ele>324.0</ele><time>2026-05-02T09:43:56.316Z</time></trkpt><trkpt lat="43.5923672" lon="12.5363054"><ele>322.0</ele><time>2026-05-02T09:43:57.316Z</time></trkpt><trkpt lat="43.5923343" lon="12.5359936"><ele>320.0</ele><time>2026-05-02T09:43:58.317Z</time></trkpt><trkpt lat="43.5922879" lon="12.5356941"><ele>320.0</ele><time>2026-05-02T09:43:59.315Z</time></trkpt><trkpt lat="43.5922097" lon="12.5354312"><ele>320.0</ele><time>2026-05-02T09:44:00.316Z</time></trkpt><trkpt lat="43.5920943" lon="12.5351814"><ele>320.0</ele><time>2026-05-02T09:44:01.318Z</time></trkpt><trkpt lat="43.5919513" lon="12.534961"><ele>320.6666666666667</ele><time>2026-05-02T09:44:02.316Z</time></trkpt><trkpt lat="43.5917931" lon="12.534769"><ele>321.3333333333333</ele><time>2026-05-02T09:44:03.317Z</time></trkpt><trkpt lat="43.591618" lon="12.5346186"><ele>322.0</ele><time>2026-05-02T09:44:04.316Z</time></trkpt><trkpt lat="43.5914475" lon="12.5344618"><ele>322.0</ele><time>2026-05-02T09:44:05.316Z</time></trkpt><trkpt lat="43.5912362" lon="12.5344037"><ele>322.0</ele><time>2026-05-02T09:44:06.319Z</time></trkpt><trkpt lat="43.5910457" lon="12.5343132"><ele>322.0</ele><time>2026-05-02T09:44:07.317Z</time></trkpt><trkpt lat="43.5908608" lon="12.5342178"><ele>323.66666666666663</ele><time>2026-05-02T09:44:08.316Z</time></trkpt><trkpt lat="43.5907" lon="12.5341033"><ele>325.3333333333333</ele><time>2026-05-02T09:44:09.314Z</time></trkpt><trkpt lat="43.5905641" lon="12.533965"><ele>327.0</ele><time>2026-05-02T09:44:10.317Z</time></trkpt><trkpt lat="43.5904472" lon="12.5337984"><ele>326.6666666666667</ele><time>2026-05-02T09:44:11.317Z</time></trkpt><trkpt lat="43.5903456" lon="12.5336029"><ele>326.33333333333337</ele><time>2026-05-02T09:44:12.316Z</time></trkpt><trkpt lat="43.5902571" lon="12.5333938"><ele>326.0</ele><time>2026-05-02T09:44:13.318Z</time></trkpt><trkpt lat="43.5901792" lon="12.5331805"><ele>324.0</ele><time>2026-05-02T09:44:14.313Z</time></trkpt><trkpt lat="43.5900959" lon="12.532966"><ele>322.0</ele><time>2026-05-02T09:44:15.316Z</time></trkpt><trkpt lat="43.5900061" lon="12.5327481"><ele>320.0</ele><time>2026-05-02T09:44:16.316Z</time></trkpt><trkpt lat="43.5899115" lon="12.5325602"><ele>320.0</ele><time>2026-05-02T09:44:17.316Z</time></trkpt><trkpt lat="43.5897918" lon="12.5323666"><ele>320.0</ele><time>2026-05-02T09:44:18.316Z</time></trkpt><trkpt lat="43.5896808" lon="12.5321945"><ele>320.0</ele><time>2026-05-02T09:44:19.314Z</time></trkpt><trkpt lat="43.5895241" lon="12.5320071"><ele>325.33333333333337</ele><time>2026-05-02T09:44:20.315Z</time></trkpt><trkpt lat="43.5893144" lon="12.5320183"><ele>330.6666666666667</ele><time>2026-05-02T09:44:21.314Z</time></trkpt><trkpt lat="43.5891064" lon="12.5319428"><ele>336.0</ele><time>2026-05-02T09:44:22.315Z</time></trkpt><trkpt lat="43.5889086" lon="12.5318553"><ele>336.0</ele><time>2026-05-02T09:44:23.313Z</time></trkpt><trkpt lat="43.5886916" lon="12.5317732"><ele>336.0</ele><time>2026-05-02T09:44:24.311Z</time></trkpt><trkpt lat="43.5885033" lon="12.5316797"><ele>336.0</ele><time>2026-05-02T09:44:25.313Z</time></trkpt><trkpt lat="43.5883323" lon="12.5315598"><ele>335.3333333333333</ele><time>2026-05-02T09:44:26.313Z</time></trkpt><trkpt lat="43.5881995" lon="12.5314067"><ele>334.66666666666663</ele><time>2026-05-02T09:44:27.313Z</time></trkpt><trkpt lat="43.5880781" lon="12.5312449"><ele>334.0</ele><time>2026-05-02T09:44:28.312Z</time></trkpt><trkpt lat="43.5879722" lon="12.531062"><ele>332.3333333333333</ele><time>2026-05-02T09:44:29.313Z</time></trkpt><trkpt lat="43.5878669" lon="12.5308902"><ele>330.6666666666667</ele><time>2026-05-02T09:44:30.313Z</time></trkpt><trkpt lat="43.5877494" lon="12.5307154"><ele>329.0</ele><time>2026-05-02T09:44:31.313Z</time></trkpt><trkpt lat="43.5876213" lon="12.5305652"><ele>330.33333333333337</ele><time>2026-05-02T09:44:32.311Z</time></trkpt><trkpt lat="43.587477" lon="12.5304205"><ele>331.6666666666667</ele><time>2026-05-02T09:44:33.311Z</time></trkpt><trkpt lat="43.5873236" lon="12.530296"><ele>333.0</ele><time>2026-05-02T09:44:34.312Z</time></trkpt><trkpt lat="43.5871614" lon="12.5301795"><ele>330.0</ele><time>2026-05-02T09:44:35.313Z</time></trkpt><trkpt lat="43.58698" lon="12.5300726"><ele>327.0</ele><time>2026-05-02T09:44:36.313Z</time></trkpt><trkpt lat="43.5867822" lon="12.5299492"><ele>324.0</ele><time>2026-05-02T09:44:37.306Z</time></trkpt><trkpt lat="43.5865862" lon="12.5298192"><ele>324.0</ele><time>2026-05-02T09:44:38.312Z</time></trkpt><trkpt lat="43.5864057" lon="12.5296797"><ele>324.0</ele><time>2026-05-02T09:44:39.312Z</time></trkpt><trkpt lat="43.5862393" lon="12.5295189"><ele>324.0</ele><time>2026-05-02T09:44:40.316Z</time></trkpt><trkpt lat="43.5860735" lon="12.5293649"><ele>324.6666666666667</ele><time>2026-05-02T09:44:41.315Z</time></trkpt><trkpt lat="43.5859264" lon="12.5291774"><ele>325.33333333333337</ele><time>2026-05-02T09:44:42.315Z</time></trkpt><trkpt lat="43.5858644" lon="12.5289089"><ele>326.0</ele><time>2026-05-02T09:44:43.315Z</time></trkpt><trkpt lat="43.5857619" lon="12.5286804"><ele>326.33333333333337</ele><time>2026-05-02T09:44:44.344Z</time></trkpt><trkpt lat="43.5856755" lon="12.5284098"><ele>326.6666666666667</ele><time>2026-05-02T09:44:45.318Z</time></trkpt><trkpt lat="43.5856279" lon="12.5281155"><ele>327.0</ele><time>2026-05-02T09:44:46.317Z</time></trkpt><trkpt lat="43.5856187" lon="12.5278203"><ele>328.0</ele><time>2026-05-02T09:44:47.314Z</time></trkpt><trkpt lat="43.5855822" lon="12.5275019"><ele>329.0</ele><time>2026-05-02T09:44:48.317Z</time></trkpt><trkpt lat="43.5855593" lon="12.5271124"><ele>329.5</ele><time>2026-05-02T09:44:49.316Z</time></trkpt><trkpt lat="43.5855368" lon="12.5267952"><ele>330.0</ele><time>2026-05-02T09:44:50.315Z</time></trkpt><trkpt lat="43.5855114" lon="12.5264886"><ele>329.3333333333333</ele><time>2026-05-02T09:44:51.316Z</time></trkpt><trkpt lat="43.5854833" lon="12.5261665"><ele>328.66666666666663</ele><time>2026-05-02T09:44:52.315Z</time></trkpt><trkpt lat="43.585448" lon="12.525923"><ele>328.0</ele><time>2026-05-02T09:44:53.316Z</time></trkpt><trkpt lat="43.5854046" lon="12.5256383"><ele>333.3333333333333</ele><time>2026-05-02T09:44:54.318Z</time></trkpt><trkpt lat="43.5853444" lon="12.5254059"><ele>338.6666666666667</ele><time>2026-05-02T09:44:55.315Z</time></trkpt><trkpt lat="43.5852667" lon="12.5252036"><ele>344.0</ele><time>2026-05-02T09:44:56.316Z</time></trkpt><trkpt lat="43.5851837" lon="12.5249784"><ele>344.0</ele><time>2026-05-02T09:44:57.316Z</time></trkpt><trkpt lat="43.5850669" lon="12.5247881"><ele>344.0</ele><time>2026-05-02T09:44:58.315Z</time></trkpt><trkpt lat="43.5849417" lon="12.5246126"><ele>344.0</ele><time>2026-05-02T09:44:59.315Z</time></trkpt><trkpt lat="43.5847388" lon="12.5244147"><ele>340.33333333333337</ele><time>2026-05-02T09:45:00.316Z</time></trkpt><trkpt lat="43.5845821" lon="12.5242174"><ele>336.6666666666667</ele><time>2026-05-02T09:45:01.317Z</time></trkpt><trkpt lat="43.5844523" lon="12.524013"><ele>333.0</ele><time>2026-05-02T09:45:02.315Z</time></trkpt><trkpt lat="43.5843123" lon="12.523783"><ele>339.0</ele><time>2026-05-02T09:45:03.314Z</time></trkpt><trkpt lat="43.5842498" lon="12.5235567"><ele>345.0</ele><time>2026-05-02T09:45:04.315Z</time></trkpt><trkpt lat="43.5841707" lon="12.5233719"><ele>351.0</ele><time>2026-05-02T09:45:05.315Z</time></trkpt><trkpt lat="43.584089" lon="12.5231988"><ele>351.0</ele><time>2026-05-02T09:45:06.317Z</time></trkpt><trkpt lat="43.5840774" lon="12.5229524"><ele>351.0</ele><time>2026-05-02T09:45:07.315Z</time></trkpt><trkpt lat="43.5840322" lon="12.5227182"><ele>351.0</ele><time>2026-05-02T09:45:08.316Z</time></trkpt><trkpt lat="43.5839722" lon="12.5225137"><ele>349.25</ele><time>2026-05-02T09:45:09.314Z</time></trkpt><trkpt lat="43.5839495" lon="12.5222538"><ele>347.5</ele><time>2026-05-02T09:45:10.315Z</time></trkpt><trkpt lat="43.5839192" lon="12.5220641"><ele>345.75</ele><time>2026-05-02T09:45:11.315Z</time></trkpt><trkpt lat="43.5839083" lon="12.5219286"><ele>344.0</ele><time>2026-05-02T09:45:12.315Z</time></trkpt><trkpt lat="43.5838962" lon="12.5218125"><ele>343.6</ele><time>2026-05-02T09:45:13.316Z</time></trkpt><trkpt lat="43.5838723" lon="12.5217213"><ele>343.2</ele><time>2026-05-02T09:45:14.315Z</time></trkpt><trkpt lat="43.5837801" lon="12.5217163"><ele>342.8</ele><time>2026-05-02T09:45:15.314Z</time></trkpt><trkpt lat="43.5836502" lon="12.5217774"><ele>342.40000000000003</ele><time>2026-05-02T09:45:16.314Z</time></trkpt><trkpt lat="43.5835412" lon="12.5217975"><ele>342.0</ele><time>2026-05-02T09:45:17.317Z</time></trkpt><trkpt lat="43.5834249" lon="12.5218243"><ele>344.75</ele><time>2026-05-02T09:45:18.314Z</time></trkpt><trkpt lat="43.5833022" lon="12.5218547"><ele>347.5</ele><time>2026-05-02T09:45:19.316Z</time></trkpt><trkpt lat="43.5831863" lon="12.5218891"><ele>350.25</ele><time>2026-05-02T09:45:20.316Z</time></trkpt><trkpt lat="43.5830562" lon="12.5219194"><ele>353.0</ele><time>2026-05-02T09:45:21.315Z</time></trkpt><trkpt lat="43.582955" lon="12.5219373"><ele>355.2</ele><time>2026-05-02T09:45:22.316Z</time></trkpt><trkpt lat="43.5828346" lon="12.5219227"><ele>357.4</ele><time>2026-05-02T09:45:23.31Z</time></trkpt><trkpt lat="43.5827446" lon="12.5219574"><ele>359.59999999999997</ele><time>2026-05-02T09:45:24.311Z</time></trkpt><trkpt lat="43.5826474" lon="12.5219813"><ele>361.79999999999995</ele><time>2026-05-02T09:45:25.312Z</time></trkpt><trkpt lat="43.5825739" lon="12.5220081"><ele>364.0</ele><time>2026-05-02T09:45:26.313Z</time></trkpt><trkpt lat="43.5825001" lon="12.522076"><ele>364.16666666666663</ele><time>2026-05-02T09:45:28.312Z</time></trkpt><trkpt lat="43.5824411" lon="12.5221334"><ele>364.3333333333333</ele><time>2026-05-02T09:48:14.317Z</time></trkpt><trkpt lat="43.5823903" lon="12.5222885"><ele>364.5</ele><time>2026-05-02T09:48:16.322Z</time></trkpt><trkpt lat="43.582365" lon="12.522387"><ele>364.6666666666667</ele><time>2026-05-02T09:48:17.316Z</time></trkpt><trkpt lat="43.5823455" lon="12.5225006"><ele>364.83333333333337</ele><time>2026-05-02T09:48:18.319Z</time></trkpt><trkpt lat="43.58233" lon="12.5226218"><ele>365.0</ele><time>2026-05-02T09:48:19.316Z</time></trkpt><trkpt lat="43.5823097" lon="12.5227666"><ele>365.0</ele><time>2026-05-02T09:48:20.317Z</time></trkpt><trkpt lat="43.5822898" lon="12.5228929"><ele>365.0</ele><time>2026-05-02T09:48:21.319Z</time></trkpt><trkpt lat="43.58227" lon="12.5230387"><ele>365.0</ele><time>2026-05-02T09:48:22.317Z</time></trkpt><trkpt lat="43.5822478" lon="12.5231926"><ele>365.0</ele><time>2026-05-02T09:48:23.318Z</time></trkpt><trkpt lat="43.5822417" lon="12.5233438"><ele>365.0</ele><time>2026-05-02T09:48:24.319Z</time></trkpt><trkpt lat="43.5822568" lon="12.5234858"><ele>366.0</ele><time>2026-05-02T09:48:25.318Z</time></trkpt><trkpt lat="43.5822984" lon="12.5236201"><ele>367.0</ele><time>2026-05-02T09:48:26.319Z</time></trkpt><trkpt lat="43.5823626" lon="12.5237306"><ele>368.0</ele><time>2026-05-02T09:48:27.317Z</time></trkpt><trkpt lat="43.5824583" lon="12.5238191"><ele>369.0</ele><time>2026-05-02T09:48:28.32Z</time></trkpt><trkpt lat="43.5825601" lon="12.5238949"><ele>370.0</ele><time>2026-05-02T09:48:29.318Z</time></trkpt><trkpt lat="43.582694" lon="12.5239257"><ele>372.25</ele><time>2026-05-02T09:48:30.316Z</time></trkpt><trkpt lat="43.5828239" lon="12.5239602"><ele>374.5</ele><time>2026-05-02T09:48:31.319Z</time></trkpt><trkpt lat="43.582941" lon="12.5239918"><ele>376.75</ele><time>2026-05-02T09:48:32.319Z</time></trkpt><trkpt lat="43.583053" lon="12.5240228"><ele>379.0</ele><time>2026-05-02T09:48:33.319Z</time></trkpt><trkpt lat="43.5831346" lon="12.52417"><ele>379.0</ele><time>2026-05-02T09:48:34.317Z</time></trkpt><trkpt lat="43.5832275" lon="12.5243127"><ele>379.0</ele><time>2026-05-02T09:48:35.319Z</time></trkpt><trkpt lat="43.5833165" lon="12.524462"><ele>379.0</ele><time>2026-05-02T09:48:36.32Z</time></trkpt><trkpt lat="43.58339" lon="12.5245918"><ele>379.0</ele><time>2026-05-02T09:48:37.318Z</time></trkpt><trkpt lat="43.5834087" lon="12.5248765"><ele>382.0</ele><time>2026-05-02T09:48:38.317Z</time></trkpt><trkpt lat="43.5834058" lon="12.5251143"><ele>385.0</ele><time>2026-05-02T09:48:39.317Z</time></trkpt><trkpt lat="43.5834227" lon="12.52528"><ele>388.0</ele><time>2026-05-02T09:48:40.317Z</time></trkpt><trkpt lat="43.5833958" lon="12.5254533"><ele>391.0</ele><time>2026-05-02T09:48:41.316Z</time></trkpt><trkpt lat="43.5833545" lon="12.5255816"><ele>391.0</ele><time>2026-05-02T09:48:42.317Z</time></trkpt><trkpt lat="43.5832699" lon="12.5257167"><ele>391.0</ele><time>2026-05-02T09:48:43.315Z</time></trkpt><trkpt lat="43.583181" lon="12.5257687"><ele>391.0</ele><time>2026-05-02T09:48:44.316Z</time></trkpt><trkpt lat="43.5830933" lon="12.5258093"><ele>391.0</ele><time>2026-05-02T09:48:45.316Z</time></trkpt><trkpt lat="43.5829652" lon="12.5258392"><ele>391.0</ele><time>2026-05-02T09:48:46.318Z</time></trkpt><trkpt lat="43.5827237" lon="12.5258018"><ele>394.75</ele><time>2026-05-02T09:48:47.316Z</time></trkpt><trkpt lat="43.582584" lon="12.5258349"><ele>398.5</ele><time>2026-05-02T09:48:48.316Z</time></trkpt><trkpt lat="43.5824598" lon="12.5258783"><ele>402.25</ele><time>2026-05-02T09:48:49.314Z</time></trkpt><trkpt lat="43.5823355" lon="12.5257833"><ele>406.0</ele><time>2026-05-02T09:48:50.317Z</time></trkpt><trkpt lat="43.5821839" lon="12.5257496"><ele>406.0</ele><time>2026-05-02T09:48:51.317Z</time></trkpt><trkpt lat="43.5820887" lon="12.5256326"><ele>406.0</ele><time>2026-05-02T09:48:52.314Z</time></trkpt><trkpt lat="43.5819863" lon="12.5255688"><ele>406.0</ele><time>2026-05-02T09:48:53.314Z</time></trkpt><trkpt lat="43.5818961" lon="12.5255171"><ele>406.0</ele><time>2026-05-02T09:48:54.316Z</time></trkpt><trkpt lat="43.5818231" lon="12.5254849"><ele>406.0</ele><time>2026-05-02T09:48:55.317Z</time></trkpt><trkpt lat="43.5817411" lon="12.5254908"><ele>407.0</ele><time>2026-05-02T09:48:56.318Z</time></trkpt><trkpt lat="43.5816626" lon="12.5255017"><ele>408.0</ele><time>2026-05-02T09:48:57.316Z</time></trkpt><trkpt lat="43.5815322" lon="12.5255467"><ele>409.0</ele><time>2026-05-02T09:48:58.315Z</time></trkpt><trkpt lat="43.5814292" lon="12.5256051"><ele>410.0</ele><time>2026-05-02T09:48:59.315Z</time></trkpt><trkpt lat="43.5812809" lon="12.5256819"><ele>421.5</ele><time>2026-05-02T09:49:00.319Z</time></trkpt><trkpt lat="43.581135" lon="12.5257963"><ele>433.0</ele><time>2026-05-02T09:49:01.315Z</time></trkpt><trkpt lat="43.5808512" lon="12.5259947"><ele>433.0</ele><time>2026-05-02T09:49:02.316Z</time></trkpt><trkpt lat="43.5806327" lon="12.5261167"><ele>433.0</ele><time>2026-05-02T09:49:03.315Z</time></trkpt><trkpt lat="43.5804104" lon="12.5262363"><ele>436.0</ele><time>2026-05-02T09:49:04.317Z</time></trkpt><trkpt lat="43.5801837" lon="12.526338"><ele>439.0</ele><time>2026-05-02T09:49:05.319Z</time></trkpt><trkpt lat="43.5799847" lon="12.5264433"><ele>439.0</ele><time>2026-05-02T09:49:06.32Z</time></trkpt><trkpt lat="43.5797859" lon="12.5265303"><ele>439.0</ele><time>2026-05-02T09:49:07.318Z</time></trkpt><trkpt lat="43.5795675" lon="12.526621"><ele>439.0</ele><time>2026-05-02T09:49:08.318Z</time></trkpt><trkpt lat="43.5793876" lon="12.5266883"><ele>444.6666666666667</ele><time>2026-05-02T09:49:09.319Z</time></trkpt><trkpt lat="43.5792154" lon="12.5266837"><ele>450.33333333333337</ele><time>2026-05-02T09:49:10.318Z</time></trkpt><trkpt lat="43.5790374" lon="12.5267632"><ele>456.0</ele><time>2026-05-02T09:49:11.317Z</time></trkpt><trkpt lat="43.5788545" lon="12.5268345"><ele>456.66666666666663</ele><time>2026-05-02T09:49:12.317Z</time></trkpt><trkpt lat="43.5786796" lon="12.5269056"><ele>457.3333333333333</ele><time>2026-05-02T09:49:13.316Z</time></trkpt><trkpt lat="43.5785627" lon="12.5270339"><ele>458.0</ele><time>2026-05-02T09:49:14.316Z</time></trkpt><trkpt lat="43.5784426" lon="12.5272442"><ele>458.0</ele><time>2026-05-02T09:49:15.315Z</time></trkpt><trkpt lat="43.5783343" lon="12.5274267"><ele>458.0</ele><time>2026-05-02T09:49:16.316Z</time></trkpt><trkpt lat="43.5781758" lon="12.5275642"><ele>458.0</ele><time>2026-05-02T09:49:17.312Z</time></trkpt><trkpt lat="43.5780069" lon="12.5276898"><ele>458.0</ele><time>2026-05-02T09:49:18.311Z</time></trkpt><trkpt lat="43.5778669" lon="12.5278206"><ele>458.0</ele><time>2026-05-02T09:49:19.314Z</time></trkpt><trkpt lat="43.5777388" lon="12.5279534"><ele>458.0</ele><time>2026-05-02T09:49:20.314Z</time></trkpt><trkpt lat="43.5776426" lon="12.5281045"><ele>460.0</ele><time>2026-05-02T09:49:21.308Z</time></trkpt><trkpt lat="43.5775621" lon="12.5282874"><ele>462.0</ele><time>2026-05-02T09:49:22.311Z</time></trkpt><trkpt lat="43.577489" lon="12.5284691"><ele>464.0</ele><time>2026-05-02T09:49:23.312Z</time></trkpt><trkpt lat="43.5774921" lon="12.5286415"><ele>466.0</ele><time>2026-05-02T09:49:24.312Z</time></trkpt><trkpt lat="43.5774827" lon="12.5287915"><ele>466.0</ele><time>2026-05-02T09:49:25.313Z</time></trkpt><trkpt lat="43.5774646" lon="12.5289042"><ele>466.0</ele><time>2026-05-02T09:49:26.313Z</time></trkpt><trkpt lat="43.5774162" lon="12.5289693"><ele>466.0</ele><time>2026-05-02T09:49:27.314Z</time></trkpt><trkpt lat="43.5773181" lon="12.5289882"><ele>466.0</ele><time>2026-05-02T09:49:29.319Z</time></trkpt><trkpt lat="43.577269" lon="12.5289212"><ele>466.0</ele><time>2026-05-02T09:49:30.316Z</time></trkpt><trkpt lat="43.577305" lon="12.52863"><ele>466.0</ele><time>2026-05-02T09:49:31.318Z</time></trkpt><trkpt lat="43.5772671" lon="12.5284851"><ele>466.0</ele><time>2026-05-02T09:49:32.316Z</time></trkpt><trkpt lat="43.5772021" lon="12.5284991"><ele>466.0</ele><time>2026-05-02T09:49:33.315Z</time></trkpt><trkpt lat="43.5771041" lon="12.5284397"><ele>466.0</ele><time>2026-05-02T09:49:35.317Z</time></trkpt><trkpt lat="43.5770621" lon="12.5285413"><ele>466.0</ele><time>2026-05-02T09:49:36.318Z</time></trkpt><trkpt lat="43.5770976" lon="12.5287176"><ele>466.6666666666667</ele><time>2026-05-02T09:49:37.323Z</time></trkpt><trkpt lat="43.5771561" lon="12.5290583"><ele>467.33333333333337</ele><time>2026-05-02T09:49:38.315Z</time></trkpt><trkpt lat="43.5771819" lon="12.5292957"><ele>468.0</ele><time>2026-05-02T09:49:39.315Z</time></trkpt><trkpt lat="43.5772267" lon="12.5295819"><ele>473.66666666666663</ele><time>2026-05-02T09:49:40.315Z</time></trkpt><trkpt lat="43.577299" lon="12.5297728"><ele>479.3333333333333</ele><time>2026-05-02T09:49:41.313Z</time></trkpt><trkpt lat="43.5773529" lon="12.5299991"><ele>485.0</ele><time>2026-05-02T09:49:42.312Z</time></trkpt><trkpt lat="43.5775088" lon="12.5300524"><ele>485.0</ele><time>2026-05-02T09:49:43.311Z</time></trkpt><trkpt lat="43.577628" lon="12.5301716"><ele>485.0</ele><time>2026-05-02T09:49:44.313Z</time></trkpt><trkpt lat="43.5777332" lon="12.5303144"><ele>485.0</ele><time>2026-05-02T09:49:45.313Z</time></trkpt><trkpt lat="43.577774" lon="12.5304574"><ele>485.0</ele><time>2026-05-02T09:49:46.315Z</time></trkpt><trkpt lat="43.5777928" lon="12.5306326"><ele>492.0</ele><time>2026-05-02T09:49:47.313Z</time></trkpt><trkpt lat="43.5777839" lon="12.5308747"><ele>499.0</ele><time>2026-05-02T09:49:48.317Z</time></trkpt><trkpt lat="43.5777802" lon="12.5311135"><ele>506.0</ele><time>2026-05-02T09:49:49.311Z</time></trkpt><trkpt lat="43.5777894" lon="12.5313244"><ele>508.0</ele><time>2026-05-02T09:49:50.316Z</time></trkpt><trkpt lat="43.5778176" lon="12.5315087"><ele>510.0</ele><time>2026-05-02T09:49:51.315Z</time></trkpt><trkpt lat="43.5778686" lon="12.531681"><ele>512.0</ele><time>2026-05-02T09:49:52.317Z</time></trkpt><trkpt lat="43.5779322" lon="12.5318429"><ele>514.0</ele><time>2026-05-02T09:49:53.316Z</time></trkpt><trkpt lat="43.5780003" lon="12.5319968"><ele>508.2</ele><time>2026-05-02T09:49:54.317Z</time></trkpt><trkpt lat="43.5780521" lon="12.5321418"><ele>502.4</ele><time>2026-05-02T09:49:55.316Z</time></trkpt><trkpt lat="43.578129" lon="12.5322877"><ele>496.6</ele><time>2026-05-02T09:49:56.319Z</time></trkpt><trkpt lat="43.5781402" lon="12.532387"><ele>490.8</ele><time>2026-05-02T09:49:57.317Z</time></trkpt><trkpt lat="43.5781135" lon="12.5325306"><ele>485.0</ele><time>2026-05-02T09:49:58.317Z</time></trkpt><trkpt lat="43.5780619" lon="12.5326877"><ele>485.0</ele><time>2026-05-02T09:49:59.316Z</time></trkpt><trkpt lat="43.5780352" lon="12.5328437"><ele>485.0</ele><time>2026-05-02T09:50:00.317Z</time></trkpt><trkpt lat="43.5779696" lon="12.5330684"><ele>485.0</ele><time>2026-05-02T09:50:01.317Z</time></trkpt><trkpt lat="43.5779198" lon="12.5332658"><ele>485.0</ele><time>2026-05-02T09:50:02.316Z</time></trkpt><trkpt lat="43.5778513" lon="12.5335"><ele>497.66666666666663</ele><time>2026-05-02T09:50:03.317Z</time></trkpt><trkpt lat="43.5777711" lon="12.5336927"><ele>510.33333333333337</ele><time>2026-05-02T09:50:04.316Z</time></trkpt><trkpt lat="43.577694" lon="12.5339142"><ele>523.0</ele><time>2026-05-02T09:50:05.318Z</time></trkpt><trkpt lat="43.5777573" lon="12.5340816"><ele>525.0</ele><time>2026-05-02T09:50:07.317Z</time></trkpt><trkpt lat="43.5777895" lon="12.5341955"><ele>527.0</ele><time>2026-05-02T09:50:08.32Z</time></trkpt><trkpt lat="43.5778419" lon="12.5342872"><ele>529.0</ele><time>2026-05-02T09:50:09.317Z</time></trkpt><trkpt lat="43.5778743" lon="12.5343821"><ele>531.0</ele><time>2026-05-02T09:50:13.312Z</time></trkpt><trkpt lat="43.5779344" lon="12.5344262"><ele>533.0</ele><time>2026-05-02T09:50:41.34Z</time></trkpt><trkpt lat="43.577904" lon="12.5343149"><ele>535.0</ele><time>2026-05-02T09:50:48.34Z</time></trkpt><trkpt lat="43.5778275" lon="12.5341617"><ele>535.0</ele><time>2026-05-02T09:50:50.314Z</time></trkpt><trkpt lat="43.5777871" lon="12.5340708"><ele>535.0</ele><time>2026-05-02T09:50:51.313Z</time></trkpt><trkpt lat="43.5777651" lon="12.5339696"><ele>535.0</ele><time>2026-05-02T09:50:52.314Z</time></trkpt><trkpt lat="43.5777752" lon="12.533853"><ele>535.0</ele><time>2026-05-02T09:50:53.314Z</time></trkpt><trkpt lat="43.5778128" lon="12.533733"><ele>535.0</ele><time>2026-05-02T09:50:54.338Z</time></trkpt><trkpt lat="43.5778591" lon="12.5335889"><ele>535.0</ele><time>2026-05-02T09:50:55.338Z</time></trkpt><trkpt lat="43.5779161" lon="12.5334252"><ele>522.5</ele><time>2026-05-02T09:50:56.316Z</time></trkpt><trkpt lat="43.5779543" lon="12.5332245"><ele>510.0</ele><time>2026-05-02T09:50:57.314Z</time></trkpt><trkpt lat="43.5779902" lon="12.5330334"><ele>497.5</ele><time>2026-05-02T09:50:58.342Z</time></trkpt><trkpt lat="43.5780465" lon="12.5328483"><ele>485.0</ele><time>2026-05-02T09:50:59.315Z</time></trkpt><trkpt lat="43.5781099" lon="12.5326866"><ele>485.0</ele><time>2026-05-02T09:51:00.312Z</time></trkpt><trkpt lat="43.5781429" lon="12.5325534"><ele>485.0</ele><time>2026-05-02T09:51:01.312Z</time></trkpt><trkpt lat="43.5781599" lon="12.5324186"><ele>485.0</ele><time>2026-05-02T09:51:02.337Z</time></trkpt><trkpt lat="43.5781323" lon="12.5322821"><ele>485.0</ele><time>2026-05-02T09:51:03.336Z</time></trkpt><trkpt lat="43.5780687" lon="12.5321118"><ele>485.0</ele><time>2026-05-02T09:51:04.313Z</time></trkpt><trkpt lat="43.577993" lon="12.5319309"><ele>484.75</ele><time>2026-05-02T09:51:05.339Z</time></trkpt><trkpt lat="43.5779175" lon="12.531762"><ele>484.5</ele><time>2026-05-02T09:51:06.342Z</time></trkpt><trkpt lat="43.5778587" lon="12.5315892"><ele>484.25</ele><time>2026-05-02T09:51:07.34Z</time></trkpt><trkpt lat="43.5778201" lon="12.5314025"><ele>484.0</ele><time>2026-05-02T09:51:08.34Z</time></trkpt><trkpt lat="43.5777911" lon="12.5312202"><ele>489.5</ele><time>2026-05-02T09:51:09.311Z</time></trkpt><trkpt lat="43.577804" lon="12.5310366"><ele>495.0</ele><time>2026-05-02T09:51:10.312Z</time></trkpt><trkpt lat="43.5778082" lon="12.5308572"><ele>500.5</ele><time>2026-05-02T09:51:11.311Z</time></trkpt><trkpt lat="43.5778115" lon="12.5306879"><ele>506.0</ele><time>2026-05-02T09:51:12.311Z</time></trkpt><trkpt lat="43.5778011" lon="12.5305306"><ele>506.0</ele><time>2026-05-02T09:51:13.311Z</time></trkpt><trkpt lat="43.5777684" lon="12.5304103"><ele>506.0</ele><time>2026-05-02T09:51:14.312Z</time></trkpt><trkpt lat="43.5776988" lon="12.5303148"><ele>506.0</ele><time>2026-05-02T09:51:15.31Z</time></trkpt><trkpt lat="43.5775955" lon="12.530251"><ele>506.0</ele><time>2026-05-02T09:51:16.347Z</time></trkpt><trkpt lat="43.5774964" lon="12.5301672"><ele>506.0</ele><time>2026-05-02T09:51:17.316Z</time></trkpt><trkpt lat="43.5774038" lon="12.5300348"><ele>499.0</ele><time>2026-05-02T09:51:18.342Z</time></trkpt><trkpt lat="43.5773382" lon="12.5298405"><ele>492.0</ele><time>2026-05-02T09:51:19.314Z</time></trkpt><trkpt lat="43.5772728" lon="12.5296574"><ele>485.0</ele><time>2026-05-02T09:51:20.317Z</time></trkpt><trkpt lat="43.5772223" lon="12.5294341"><ele>479.3333333333333</ele><time>2026-05-02T09:51:21.342Z</time></trkpt><trkpt lat="43.5772133" lon="12.5291742"><ele>473.66666666666663</ele><time>2026-05-02T09:51:22.315Z</time></trkpt><trkpt lat="43.5771823" lon="12.5289492"><ele>468.0</ele><time>2026-05-02T09:51:23.318Z</time></trkpt><trkpt lat="43.577153" lon="12.5287305"><ele>467.5</ele><time>2026-05-02T09:51:24.342Z</time></trkpt><trkpt lat="43.5771052" lon="12.528522"><ele>467.0</ele><time>2026-05-02T09:51:25.317Z</time></trkpt><trkpt lat="43.5771791" lon="12.5285815"><ele>466.5</ele><time>2026-05-02T09:51:26.351Z</time></trkpt><trkpt lat="43.5772392" lon="12.5285241"><ele>466.0</ele><time>2026-05-02T09:51:28.317Z</time></trkpt><trkpt lat="43.5773828" lon="12.5285375"><ele>466.4</ele><time>2026-05-02T09:51:30.326Z</time></trkpt><trkpt lat="43.577343" lon="12.5288159"><ele>466.8</ele><time>2026-05-02T09:51:31.316Z</time></trkpt><trkpt lat="43.5773556" lon="12.528922"><ele>467.19999999999993</ele><time>2026-05-02T09:51:32.319Z</time></trkpt><trkpt lat="43.5774088" lon="12.5290028"><ele>467.59999999999997</ele><time>2026-05-02T09:51:33.345Z</time></trkpt><trkpt lat="43.5774848" lon="12.5290351"><ele>468.0</ele><time>2026-05-02T09:51:35.312Z</time></trkpt><trkpt lat="43.5775753" lon="12.52896"><ele>467.33333333333337</ele><time>2026-05-02T09:51:37.314Z</time></trkpt><trkpt lat="43.5775351" lon="12.5285903"><ele>466.6666666666667</ele><time>2026-05-02T09:51:38.314Z</time></trkpt><trkpt lat="43.5775882" lon="12.5284271"><ele>466.0</ele><time>2026-05-02T09:51:39.313Z</time></trkpt><trkpt lat="43.5776586" lon="12.5282302"><ele>466.0</ele><time>2026-05-02T09:51:40.313Z</time></trkpt><trkpt lat="43.5778151" lon="12.5280664"><ele>466.0</ele><time>2026-05-02T09:51:41.314Z</time></trkpt><trkpt lat="43.5779739" lon="12.5279137"><ele>466.0</ele><time>2026-05-02T09:51:42.332Z</time></trkpt><trkpt lat="43.5781195" lon="12.5277959"><ele>463.33333333333337</ele><time>2026-05-02T09:51:43.312Z</time></trkpt><trkpt lat="43.5782767" lon="12.5277013"><ele>460.66666666666663</ele><time>2026-05-02T09:51:44.338Z</time></trkpt><trkpt lat="43.5784161" lon="12.5275522"><ele>458.0</ele><time>2026-05-02T09:51:45.312Z</time></trkpt><trkpt lat="43.5785309" lon="12.5273816"><ele>458.0</ele><time>2026-05-02T09:51:46.31Z</time></trkpt><trkpt lat="43.5786409" lon="12.5272118"><ele>458.0</ele><time>2026-05-02T09:51:47.334Z</time></trkpt><trkpt lat="43.5787708" lon="12.5270588"><ele>458.0</ele><time>2026-05-02T09:51:48.311Z</time></trkpt><trkpt lat="43.5789186" lon="12.5269336"><ele>457.3333333333333</ele><time>2026-05-02T09:51:49.311Z</time></trkpt><trkpt lat="43.579071" lon="12.5268469"><ele>456.66666666666663</ele><time>2026-05-02T09:51:50.312Z</time></trkpt><trkpt lat="43.579239" lon="12.5268367"><ele>456.0</ele><time>2026-05-02T09:51:51.312Z</time></trkpt><trkpt lat="43.5794109" lon="12.5268127"><ele>450.33333333333337</ele><time>2026-05-02T09:51:52.311Z</time></trkpt><trkpt lat="43.5796099" lon="12.5267521"><ele>444.6666666666667</ele><time>2026-05-02T09:51:53.336Z</time></trkpt><trkpt lat="43.5797927" lon="12.5266819"><ele>439.0</ele><time>2026-05-02T09:51:54.337Z</time></trkpt><trkpt lat="43.5799672" lon="12.5266102"><ele>439.0</ele><time>2026-05-02T09:51:55.31Z</time></trkpt><trkpt lat="43.5801436" lon="12.5265391"><ele>439.0</ele><time>2026-05-02T09:51:56.314Z</time></trkpt><trkpt lat="43.5803264" lon="12.526436"><ele>439.0</ele><time>2026-05-02T09:51:57.411Z</time></trkpt><trkpt lat="43.5805145" lon="12.5263219"><ele>437.0</ele><time>2026-05-02T09:51:58.312Z</time></trkpt><trkpt lat="43.5807057" lon="12.5262241"><ele>435.0</ele><time>2026-05-02T09:51:59.31Z</time></trkpt><trkpt lat="43.5808784" lon="12.5261018"><ele>433.0</ele><time>2026-05-02T09:52:00.335Z</time></trkpt><trkpt lat="43.5810501" lon="12.5259945"><ele>425.33333333333337</ele><time>2026-05-02T09:52:01.312Z</time></trkpt><trkpt lat="43.5812154" lon="12.5258846"><ele>417.66666666666663</ele><time>2026-05-02T09:52:02.313Z</time></trkpt><trkpt lat="43.5813606" lon="12.5257909"><ele>410.0</ele><time>2026-05-02T09:52:03.312Z</time></trkpt><trkpt lat="43.5814978" lon="12.5256981"><ele>410.0</ele><time>2026-05-02T09:52:04.336Z</time></trkpt><trkpt lat="43.5816287" lon="12.5256153"><ele>410.0</ele><time>2026-05-02T09:52:05.303Z</time></trkpt><trkpt lat="43.5817559" lon="12.5255745"><ele>410.0</ele><time>2026-05-02T09:52:06.313Z</time></trkpt><trkpt lat="43.5818778" lon="12.5255831"><ele>410.0</ele><time>2026-05-02T09:52:07.337Z</time></trkpt><trkpt lat="43.581992" lon="12.52565"><ele>409.0</ele><time>2026-05-02T09:52:08.312Z</time></trkpt><trkpt lat="43.5821068" lon="12.5257228"><ele>408.0</ele><time>2026-05-02T09:52:09.312Z</time></trkpt><trkpt lat="43.5821877" lon="12.5258223"><ele>407.0</ele><time>2026-05-02T09:52:10.312Z</time></trkpt><trkpt lat="43.582293" lon="12.5258693"><ele>406.0</ele><time>2026-05-02T09:52:11.313Z</time></trkpt><trkpt lat="43.5824384" lon="12.5258354"><ele>406.0</ele><time>2026-05-02T09:52:12.314Z</time></trkpt><trkpt lat="43.582596" lon="12.5257832"><ele>406.0</ele><time>2026-05-02T09:52:13.314Z</time></trkpt><trkpt lat="43.5827483" lon="12.5257323"><ele>406.0</ele><time>2026-05-02T09:52:14.312Z</time></trkpt><trkpt lat="43.5829003" lon="12.5256637"><ele>402.25</ele><time>2026-05-02T09:52:15.313Z</time></trkpt><trkpt lat="43.5830538" lon="12.5256266"><ele>398.5</ele><time>2026-05-02T09:52:16.311Z</time></trkpt><trkpt lat="43.5831784" lon="12.5255776"><ele>394.75</ele><time>2026-05-02T09:52:17.311Z</time></trkpt><trkpt lat="43.5832874" lon="12.5255328"><ele>391.0</ele><time>2026-05-02T09:52:18.337Z</time></trkpt><trkpt lat="43.583378" lon="12.5254644"><ele>391.5</ele><time>2026-05-02T09:52:19.338Z</time></trkpt><trkpt lat="43.5834369" lon="12.5253512"><ele>392.0</ele><time>2026-05-02T09:52:20.312Z</time></trkpt><trkpt lat="43.583485" lon="12.5252311"><ele>392.5</ele><time>2026-05-02T09:52:21.31Z</time></trkpt><trkpt lat="43.5834644" lon="12.5250103"><ele>393.0</ele><time>2026-05-02T09:52:22.315Z</time></trkpt><trkpt lat="43.5834008" lon="12.5247775"><ele>388.3333333333333</ele><time>2026-05-02T09:52:23.343Z</time></trkpt><trkpt lat="43.5833428" lon="12.5245584"><ele>383.66666666666663</ele><time>2026-05-02T09:52:24.34Z</time></trkpt><trkpt lat="43.5832754" lon="12.5243637"><ele>379.0</ele><time>2026-05-02T09:52:25.316Z</time></trkpt><trkpt lat="43.583195" lon="12.5241698"><ele>379.0</ele><time>2026-05-02T09:52:26.338Z</time></trkpt><trkpt lat="43.5831046" lon="12.5239893"><ele>379.0</ele><time>2026-05-02T09:52:27.315Z</time></trkpt><trkpt lat="43.5829959" lon="12.5239848"><ele>379.0</ele><time>2026-05-02T09:52:28.315Z</time></trkpt><trkpt lat="43.5828905" lon="12.5238897"><ele>379.0</ele><time>2026-05-02T09:52:29.315Z</time></trkpt><trkpt lat="43.5827338" lon="12.5239023"><ele>376.75</ele><time>2026-05-02T09:52:30.339Z</time></trkpt><trkpt lat="43.5825998" lon="12.5238598"><ele>374.5</ele><time>2026-05-02T09:52:31.339Z</time></trkpt><trkpt lat="43.5824803" lon="12.5238116"><ele>372.25</ele><time>2026-05-02T09:52:32.316Z</time></trkpt><trkpt lat="43.5823769" lon="12.5237173"><ele>370.0</ele><time>2026-05-02T09:52:33.317Z</time></trkpt><trkpt lat="43.5823014" lon="12.5235873"><ele>370.0</ele><time>2026-05-02T09:52:34.342Z</time></trkpt><trkpt lat="43.5822596" lon="12.5234327"><ele>370.0</ele><time>2026-05-02T09:52:35.34Z</time></trkpt><trkpt lat="43.5822464" lon="12.5232538"><ele>370.0</ele><time>2026-05-02T09:52:36.339Z</time></trkpt><trkpt lat="43.5822764" lon="12.523062"><ele>370.0</ele><time>2026-05-02T09:52:37.315Z</time></trkpt><trkpt lat="43.5823071" lon="12.5228678"><ele>368.75</ele><time>2026-05-02T09:52:38.338Z</time></trkpt><trkpt lat="43.5823319" lon="12.5226821"><ele>367.5</ele><time>2026-05-02T09:52:39.338Z</time></trkpt><trkpt lat="43.5823621" lon="12.5225116"><ele>366.25</ele><time>2026-05-02T09:52:40.342Z</time></trkpt><trkpt lat="43.5823934" lon="12.5223594"><ele>365.0</ele><time>2026-05-02T09:52:41.315Z</time></trkpt><trkpt lat="43.5824513" lon="12.522228"><ele>365.0</ele><time>2026-05-02T09:52:42.316Z</time></trkpt><trkpt lat="43.5825074" lon="12.5220962"><ele>365.0</ele><time>2026-05-02T09:52:43.341Z</time></trkpt><trkpt lat="43.5826018" lon="12.5220038"><ele>365.0</ele><time>2026-05-02T09:52:44.315Z</time></trkpt><trkpt lat="43.5827216" lon="12.5219544"><ele>365.0</ele><time>2026-05-02T09:52:45.315Z</time></trkpt><trkpt lat="43.5828935" lon="12.5219569"><ele>362.0</ele><time>2026-05-02T09:52:46.313Z</time></trkpt><trkpt lat="43.5830291" lon="12.5219205"><ele>359.0</ele><time>2026-05-02T09:52:47.315Z</time></trkpt><trkpt lat="43.5831652" lon="12.5218938"><ele>356.0</ele><time>2026-05-02T09:52:48.341Z</time></trkpt><trkpt lat="43.5832925" lon="12.5218673"><ele>353.0</ele><time>2026-05-02T09:52:49.341Z</time></trkpt><trkpt lat="43.5834144" lon="12.5218599"><ele>353.0</ele><time>2026-05-02T09:52:50.339Z</time></trkpt><trkpt lat="43.5835285" lon="12.521874"><ele>353.0</ele><time>2026-05-02T09:52:51.316Z</time></trkpt><trkpt lat="43.5836312" lon="12.5218981"><ele>353.0</ele><time>2026-05-02T09:52:52.319Z</time></trkpt><trkpt lat="43.5837161" lon="12.5219138"><ele>353.0</ele><time>2026-05-02T09:52:53.319Z</time></trkpt><trkpt lat="43.5837839" lon="12.5219152"><ele>353.0</ele><time>2026-05-02T09:52:54.34Z</time></trkpt><trkpt lat="43.5838708" lon="12.5219059"><ele>351.0</ele><time>2026-05-02T09:52:56.315Z</time></trkpt><trkpt lat="43.5839337" lon="12.5218294"><ele>349.0</ele><time>2026-05-02T09:52:58.322Z</time></trkpt><trkpt lat="43.5839667" lon="12.5217453"><ele>347.0</ele><time>2026-05-02T09:52:59.317Z</time></trkpt><trkpt lat="43.5840077" lon="12.5216429"><ele>345.0</ele><time>2026-05-02T09:53:00.315Z</time></trkpt><trkpt lat="43.5840592" lon="12.521484"><ele>343.0</ele><time>2026-05-02T09:53:01.317Z</time></trkpt><trkpt lat="43.5840138" lon="12.5212104"><ele>343.0</ele><time>2026-05-02T09:53:02.317Z</time></trkpt><trkpt lat="43.5840182" lon="12.5209166"><ele>343.0</ele><time>2026-05-02T09:53:03.342Z</time></trkpt><trkpt lat="43.5840254" lon="12.5206199"><ele>343.0</ele><time>2026-05-02T09:53:04.344Z</time></trkpt><trkpt lat="43.5840413" lon="12.5203739"><ele>343.66666666666663</ele><time>2026-05-02T09:53:05.343Z</time></trkpt><trkpt lat="43.5840679" lon="12.5201379"><ele>344.3333333333333</ele><time>2026-05-02T09:53:06.342Z</time></trkpt><trkpt lat="43.5841501" lon="12.5199692"><ele>345.0</ele><time>2026-05-02T09:53:07.315Z</time></trkpt><trkpt lat="43.5841967" lon="12.5197608"><ele>349.0</ele><time>2026-05-02T09:53:08.342Z</time></trkpt><trkpt lat="43.5842672" lon="12.5195461"><ele>353.0</ele><time>2026-05-02T09:53:09.339Z</time></trkpt><trkpt lat="43.5843248" lon="12.5193221"><ele>357.0</ele><time>2026-05-02T09:53:10.342Z</time></trkpt><trkpt lat="43.5843814" lon="12.5191124"><ele>357.0</ele><time>2026-05-02T09:53:11.341Z</time></trkpt><trkpt lat="43.5844606" lon="12.5189195"><ele>357.0</ele><time>2026-05-02T09:53:12.315Z</time></trkpt><trkpt lat="43.5845296" lon="12.5187252"><ele>357.0</ele><time>2026-05-02T09:53:13.342Z</time></trkpt><trkpt lat="43.5845977" lon="12.5185246"><ele>350.6666666666667</ele><time>2026-05-02T09:53:14.341Z</time></trkpt><trkpt lat="43.584665" lon="12.5183317"><ele>344.33333333333337</ele><time>2026-05-02T09:53:15.341Z</time></trkpt><trkpt lat="43.5847388" lon="12.5181405"><ele>338.0</ele><time>2026-05-02T09:53:16.344Z</time></trkpt><trkpt lat="43.5848079" lon="12.5179435"><ele>341.0</ele><time>2026-05-02T09:53:17.316Z</time></trkpt><trkpt lat="43.5848788" lon="12.517733"><ele>344.0</ele><time>2026-05-02T09:53:18.315Z</time></trkpt><trkpt lat="43.5849455" lon="12.517514"><ele>347.0</ele><time>2026-05-02T09:53:19.315Z</time></trkpt><trkpt lat="43.5849903" lon="12.5172991"><ele>346.33333333333337</ele><time>2026-05-02T09:53:20.315Z</time></trkpt><trkpt lat="43.5849948" lon="12.5170615"><ele>345.6666666666667</ele><time>2026-05-02T09:53:21.316Z</time></trkpt><trkpt lat="43.5850077" lon="12.5168255"><ele>345.0</ele><time>2026-05-02T09:53:22.317Z</time></trkpt><trkpt lat="43.5850032" lon="12.5165846"><ele>345.0</ele><time>2026-05-02T09:53:23.317Z</time></trkpt><trkpt lat="43.5850013" lon="12.5163517"><ele>345.0</ele><time>2026-05-02T09:53:24.344Z</time></trkpt><trkpt lat="43.5850047" lon="12.5161197"><ele>345.0</ele><time>2026-05-02T09:53:25.317Z</time></trkpt><trkpt lat="43.5850074" lon="12.5158961"><ele>343.6666666666667</ele><time>2026-05-02T09:53:26.317Z</time></trkpt><trkpt lat="43.5850147" lon="12.51567"><ele>342.33333333333337</ele><time>2026-05-02T09:53:27.343Z</time></trkpt><trkpt lat="43.5850341" lon="12.5154408"><ele>341.0</ele><time>2026-05-02T09:53:28.316Z</time></trkpt><trkpt lat="43.5850631" lon="12.5152233"><ele>343.6666666666667</ele><time>2026-05-02T09:53:29.316Z</time></trkpt><trkpt lat="43.5851051" lon="12.5150031"><ele>346.3333333333333</ele><time>2026-05-02T09:53:30.343Z</time></trkpt><trkpt lat="43.5851792" lon="12.5148259"><ele>349.0</ele><time>2026-05-02T09:53:31.317Z</time></trkpt><trkpt lat="43.5852506" lon="12.5146386"><ele>348.0</ele><time>2026-05-02T09:53:32.315Z</time></trkpt><trkpt lat="43.5853288" lon="12.5144613"><ele>347.0</ele><time>2026-05-02T09:53:33.316Z</time></trkpt><trkpt lat="43.5854081" lon="12.5143454"><ele>346.0</ele><time>2026-05-02T09:53:34.316Z</time></trkpt><trkpt lat="43.585485" lon="12.5142219"><ele>345.0</ele><time>2026-05-02T09:53:35.342Z</time></trkpt><trkpt lat="43.5855649" lon="12.514126"><ele>345.0</ele><time>2026-05-02T09:53:36.316Z</time></trkpt><trkpt lat="43.5856444" lon="12.5140349"><ele>345.0</ele><time>2026-05-02T09:53:37.316Z</time></trkpt><trkpt lat="43.5857423" lon="12.513966"><ele>345.0</ele><time>2026-05-02T09:53:38.317Z</time></trkpt><trkpt lat="43.5858304" lon="12.5138777"><ele>345.0</ele><time>2026-05-02T09:53:39.317Z</time></trkpt><trkpt lat="43.5858938" lon="12.5138134"><ele>345.0</ele><time>2026-05-02T09:53:40.342Z</time></trkpt><trkpt lat="43.5859671" lon="12.5137333"><ele>344.2</ele><time>2026-05-02T09:53:41.316Z</time></trkpt><trkpt lat="43.5860457" lon="12.5136488"><ele>343.4</ele><time>2026-05-02T09:53:42.316Z</time></trkpt><trkpt lat="43.5861297" lon="12.5135633"><ele>342.6</ele><time>2026-05-02T09:53:43.316Z</time></trkpt><trkpt lat="43.5862081" lon="12.5134833"><ele>341.8</ele><time>2026-05-02T09:53:44.316Z</time></trkpt><trkpt lat="43.5862896" lon="12.5134027"><ele>341.0</ele><time>2026-05-02T09:53:45.343Z</time></trkpt><trkpt lat="43.5863633" lon="12.5133228"><ele>341.0</ele><time>2026-05-02T09:53:46.343Z</time></trkpt><trkpt lat="43.5864458" lon="12.5132585"><ele>341.0</ele><time>2026-05-02T09:53:47.317Z</time></trkpt><trkpt lat="43.5865315" lon="12.5131794"><ele>341.0</ele><time>2026-05-02T09:53:48.342Z</time></trkpt><trkpt lat="43.586619" lon="12.5130905"><ele>341.0</ele><time>2026-05-02T09:53:49.345Z</time></trkpt><trkpt lat="43.5868043" lon="12.512915"><ele>341.5</ele><time>2026-05-02T09:53:51.315Z</time></trkpt><trkpt lat="43.5868931" lon="12.512837"><ele>342.0</ele><time>2026-05-02T09:53:52.316Z</time></trkpt><trkpt lat="43.5869854" lon="12.5127454"><ele>342.5</ele><time>2026-05-02T09:53:53.316Z</time></trkpt><trkpt lat="43.5870784" lon="12.5126567"><ele>343.0</ele><time>2026-05-02T09:53:54.341Z</time></trkpt><trkpt lat="43.5871697" lon="12.5125518"><ele>343.0</ele><time>2026-05-02T09:53:55.312Z</time></trkpt><trkpt lat="43.587265" lon="12.5124521"><ele>343.0</ele><time>2026-05-02T09:53:56.319Z</time></trkpt><trkpt lat="43.587368" lon="12.5123515"><ele>343.0</ele><time>2026-05-02T09:53:57.317Z</time></trkpt><trkpt lat="43.5874698" lon="12.5122502"><ele>343.0</ele><time>2026-05-02T09:53:58.316Z</time></trkpt><trkpt lat="43.5875684" lon="12.5121552"><ele>342.75</ele><time>2026-05-02T09:53:59.317Z</time></trkpt><trkpt lat="43.5876662" lon="12.5120554"><ele>342.5</ele><time>2026-05-02T09:54:00.34Z</time></trkpt><trkpt lat="43.5877623" lon="12.5119595"><ele>342.25</ele><time>2026-05-02T09:54:01.34Z</time></trkpt><trkpt lat="43.5878538" lon="12.5118516"><ele>342.0</ele><time>2026-05-02T09:54:02.317Z</time></trkpt><trkpt lat="43.5879672" lon="12.511738"><ele>341.75</ele><time>2026-05-02T09:54:03.315Z</time></trkpt><trkpt lat="43.5880749" lon="12.5116371"><ele>341.5</ele><time>2026-05-02T09:54:04.341Z</time></trkpt><trkpt lat="43.5881707" lon="12.5115447"><ele>341.25</ele><time>2026-05-02T09:54:05.316Z</time></trkpt><trkpt lat="43.5882595" lon="12.5114618"><ele>341.0</ele><time>2026-05-02T09:54:06.318Z</time></trkpt><trkpt lat="43.5883443" lon="12.5113791"><ele>341.0</ele><time>2026-05-02T09:54:07.317Z</time></trkpt><trkpt lat="43.5884284" lon="12.5112969"><ele>341.0</ele><time>2026-05-02T09:54:08.34Z</time></trkpt><trkpt lat="43.5885039" lon="12.5112287"><ele>341.0</ele><time>2026-05-02T09:54:09.339Z</time></trkpt><trkpt lat="43.588591" lon="12.5111436"><ele>341.0</ele><time>2026-05-02T09:54:10.341Z</time></trkpt><trkpt lat="43.5886969" lon="12.5110306"><ele>341.0</ele><time>2026-05-02T09:54:11.34Z</time></trkpt><trkpt lat="43.5887931" lon="12.510918"><ele>340.0</ele><time>2026-05-02T09:54:12.318Z</time></trkpt><trkpt lat="43.5888884" lon="12.5108041"><ele>339.0</ele><time>2026-05-02T09:54:13.313Z</time></trkpt><trkpt lat="43.58895" lon="12.5106797"><ele>338.0</ele><time>2026-05-02T09:54:14.315Z</time></trkpt><trkpt lat="43.5890155" lon="12.5105567"><ele>337.0</ele><time>2026-05-02T09:54:15.34Z</time></trkpt><trkpt lat="43.5890631" lon="12.5104501"><ele>336.0</ele><time>2026-05-02T09:54:16.344Z</time></trkpt><trkpt lat="43.5891111" lon="12.5103496"><ele>335.8333333333333</ele><time>2026-05-02T09:54:17.317Z</time></trkpt><trkpt lat="43.5891515" lon="12.510258"><ele>335.6666666666667</ele><time>2026-05-02T09:54:18.342Z</time></trkpt><trkpt lat="43.5891948" lon="12.510153"><ele>335.5</ele><time>2026-05-02T09:54:19.318Z</time></trkpt><trkpt lat="43.5892679" lon="12.5100028"><ele>335.33333333333337</ele><time>2026-05-02T09:54:21.341Z</time></trkpt><trkpt lat="43.5893045" lon="12.5099219"><ele>335.1666666666667</ele><time>2026-05-02T09:54:22.318Z</time></trkpt><trkpt lat="43.5893413" lon="12.5098398"><ele>335.0</ele><time>2026-05-02T09:54:23.342Z</time></trkpt><trkpt lat="43.5893659" lon="12.5097591"><ele>335.0</ele><time>2026-05-02T09:54:24.341Z</time></trkpt><trkpt lat="43.5893897" lon="12.5095859"><ele>335.0</ele><time>2026-05-02T09:54:26.318Z</time></trkpt><trkpt lat="43.5893504" lon="12.5095173"><ele>335.0</ele><time>2026-05-02T09:54:27.317Z</time></trkpt><trkpt lat="43.5892914" lon="12.5094435"><ele>335.0</ele><time>2026-05-02T09:54:29.317Z</time></trkpt><trkpt lat="43.5892343" lon="12.5093911"><ele>335.0</ele><time>2026-05-02T09:54:33.317Z</time></trkpt><trkpt lat="43.5891797" lon="12.5093331"><ele>335.0</ele><time>2026-05-02T09:54:38.311Z</time></trkpt><trkpt lat="43.5890864" lon="12.5093074"><ele>335.75</ele><time>2026-05-02T09:55:01.313Z</time></trkpt><trkpt lat="43.5889776" lon="12.5092773"><ele>336.5</ele><time>2026-05-02T09:55:02.322Z</time></trkpt><trkpt lat="43.5888823" lon="12.509231"><ele>337.25</ele><time>2026-05-02T09:55:03.313Z</time></trkpt><trkpt lat="43.5887715" lon="12.5091672"><ele>338.0</ele><time>2026-05-02T09:55:04.338Z</time></trkpt><trkpt lat="43.5886473" lon="12.5090973"><ele>338.0</ele><time>2026-05-02T09:55:05.338Z</time></trkpt><trkpt lat="43.588522" lon="12.5090268"><ele>338.0</ele><time>2026-05-02T09:55:06.349Z</time></trkpt><trkpt lat="43.5883994" lon="12.5089592"><ele>338.0</ele><time>2026-05-02T09:55:07.312Z</time></trkpt><trkpt lat="43.5882813" lon="12.5088894"><ele>338.0</ele><time>2026-05-02T09:55:08.317Z</time></trkpt><trkpt lat="43.5881711" lon="12.5088177"><ele>338.0</ele><time>2026-05-02T09:55:09.316Z</time></trkpt><trkpt lat="43.5880563" lon="12.5087481"><ele>338.0</ele><time>2026-05-02T09:55:10.316Z</time></trkpt><trkpt lat="43.5879436" lon="12.5086654"><ele>338.0</ele><time>2026-05-02T09:55:11.316Z</time></trkpt><trkpt lat="43.5878275" lon="12.5085754"><ele>338.0</ele><time>2026-05-02T09:55:12.317Z</time></trkpt><trkpt lat="43.5877042" lon="12.5084961"><ele>338.59999999999997</ele><time>2026-05-02T09:55:13.317Z</time></trkpt><trkpt lat="43.5875902" lon="12.5084206"><ele>339.2</ele><time>2026-05-02T09:55:14.34Z</time></trkpt><trkpt lat="43.5874876" lon="12.5083587"><ele>339.8</ele><time>2026-05-02T09:55:15.341Z</time></trkpt><trkpt lat="43.5873946" lon="12.5082978"><ele>340.4</ele><time>2026-05-02T09:55:16.318Z</time></trkpt><trkpt lat="43.587308" lon="12.5082361"><ele>341.0</ele><time>2026-05-02T09:55:17.339Z</time></trkpt><trkpt lat="43.587186" lon="12.5081683"><ele>341.0</ele><time>2026-05-02T09:55:18.316Z</time></trkpt><trkpt lat="43.5870515" lon="12.5080908"><ele>341.0</ele><time>2026-05-02T09:55:19.317Z</time></trkpt><trkpt lat="43.5869153" lon="12.5080154"><ele>341.0</ele><time>2026-05-02T09:55:20.317Z</time></trkpt><trkpt lat="43.5867809" lon="12.5079425"><ele>341.0</ele><time>2026-05-02T09:55:21.316Z</time></trkpt><trkpt lat="43.5866395" lon="12.5078672"><ele>342.6666666666667</ele><time>2026-05-02T09:55:22.315Z</time></trkpt><trkpt lat="43.5864974" lon="12.5077889"><ele>344.3333333333333</ele><time>2026-05-02T09:55:23.316Z</time></trkpt><trkpt lat="43.586352" lon="12.507687"><ele>346.0</ele><time>2026-05-02T09:55:24.318Z</time></trkpt><trkpt lat="43.5862121" lon="12.5076042"><ele>346.0</ele><time>2026-05-02T09:55:25.319Z</time></trkpt><trkpt lat="43.5860849" lon="12.5075281"><ele>346.0</ele><time>2026-05-02T09:55:26.348Z</time></trkpt><trkpt lat="43.5859623" lon="12.5074444"><ele>346.0</ele><time>2026-05-02T09:55:27.317Z</time></trkpt><trkpt lat="43.585845" lon="12.5073364"><ele>346.0</ele><time>2026-05-02T09:55:28.316Z</time></trkpt><trkpt lat="43.5857429" lon="12.5072071"><ele>347.25</ele><time>2026-05-02T09:55:29.316Z</time></trkpt><trkpt lat="43.5856538" lon="12.5070588"><ele>348.5</ele><time>2026-05-02T09:55:30.316Z</time></trkpt><trkpt lat="43.5855805" lon="12.5069069"><ele>349.75</ele><time>2026-05-02T09:55:31.318Z</time></trkpt><trkpt lat="43.58552" lon="12.5067545"><ele>351.0</ele><time>2026-05-02T09:55:32.316Z</time></trkpt><trkpt lat="43.5854732" lon="12.5066023"><ele>351.0</ele><time>2026-05-02T09:55:33.316Z</time></trkpt><trkpt lat="43.5854407" lon="12.5064423"><ele>351.0</ele><time>2026-05-02T09:55:34.317Z</time></trkpt><trkpt lat="43.5854145" lon="12.5062763"><ele>351.0</ele><time>2026-05-02T09:55:35.343Z</time></trkpt><trkpt lat="43.5854219" lon="12.5060772"><ele>351.0</ele><time>2026-05-02T09:55:36.32Z</time></trkpt><trkpt lat="43.585433" lon="12.505896"><ele>351.3333333333333</ele><time>2026-05-02T09:55:37.318Z</time></trkpt><trkpt lat="43.5854616" lon="12.5057079"><ele>351.66666666666663</ele><time>2026-05-02T09:55:38.343Z</time></trkpt><trkpt lat="43.5855117" lon="12.5055003"><ele>352.0</ele><time>2026-05-02T09:55:39.316Z</time></trkpt><trkpt lat="43.5855595" lon="12.5052995"><ele>352.0</ele><time>2026-05-02T09:55:40.315Z</time></trkpt><trkpt lat="43.5856107" lon="12.5050201"><ele>352.0</ele><time>2026-05-02T09:55:41.315Z</time></trkpt><trkpt lat="43.5856785" lon="12.5047136"><ele>352.0</ele><time>2026-05-02T09:55:42.316Z</time></trkpt><trkpt lat="43.5857151" lon="12.5043843"><ele>351.5</ele><time>2026-05-02T09:55:43.341Z</time></trkpt><trkpt lat="43.5857568" lon="12.5040262"><ele>351.0</ele><time>2026-05-02T09:55:44.336Z</time></trkpt><trkpt lat="43.5858113" lon="12.5036522"><ele>350.5</ele><time>2026-05-02T09:55:45.337Z</time></trkpt><trkpt lat="43.5858588" lon="12.5032502"><ele>350.0</ele><time>2026-05-02T09:55:46.344Z</time></trkpt><trkpt lat="43.585901" lon="12.5028485"><ele>350.5</ele><time>2026-05-02T09:55:47.338Z</time></trkpt><trkpt lat="43.5859461" lon="12.5024451"><ele>351.0</ele><time>2026-05-02T09:55:48.339Z</time></trkpt><trkpt lat="43.5859932" lon="12.5020347"><ele>351.0</ele><time>2026-05-02T09:55:49.338Z</time></trkpt><trkpt lat="43.5860369" lon="12.5016357"><ele>351.0</ele><time>2026-05-02T09:55:50.337Z</time></trkpt><trkpt lat="43.5860777" lon="12.5012581"><ele>351.0</ele><time>2026-05-02T09:55:51.335Z</time></trkpt><trkpt lat="43.5861172" lon="12.5009054"><ele>351.0</ele><time>2026-05-02T09:55:52.341Z</time></trkpt><trkpt lat="43.5861525" lon="12.5005748"><ele>351.0</ele><time>2026-05-02T09:55:53.335Z</time></trkpt><trkpt lat="43.5861803" lon="12.5002762"><ele>351.0</ele><time>2026-05-02T09:55:54.335Z</time></trkpt><trkpt lat="43.5861898" lon="12.5000087"><ele>351.0</ele><time>2026-05-02T09:55:55.338Z</time></trkpt><trkpt lat="43.5861693" lon="12.4997614"><ele>354.0</ele><time>2026-05-02T09:55:56.343Z</time></trkpt><trkpt lat="43.5861174" lon="12.4995316"><ele>357.0</ele><time>2026-05-02T09:55:57.343Z</time></trkpt><trkpt lat="43.5860254" lon="12.4993251"><ele>360.0</ele><time>2026-05-02T09:55:58.337Z</time></trkpt><trkpt lat="43.5859081" lon="12.4991408"><ele>360.0</ele><time>2026-05-02T09:55:59.338Z</time></trkpt><trkpt lat="43.5857372" lon="12.4989924"><ele>360.0</ele><time>2026-05-02T09:56:00.339Z</time></trkpt><trkpt lat="43.5855729" lon="12.4988509"><ele>360.0</ele><time>2026-05-02T09:56:01.335Z</time></trkpt><trkpt lat="43.5853085" lon="12.4987662"><ele>360.5</ele><time>2026-05-02T09:56:02.335Z</time></trkpt><trkpt lat="43.5850567" lon="12.4986652"><ele>361.0</ele><time>2026-05-02T09:56:03.334Z</time></trkpt><trkpt lat="43.5848016" lon="12.4985793"><ele>361.0</ele><time>2026-05-02T09:56:04.333Z</time></trkpt><trkpt lat="43.584533" lon="12.4984993"><ele>361.0</ele><time>2026-05-02T09:56:05.334Z</time></trkpt><trkpt lat="43.5842649" lon="12.4984376"><ele>357.0</ele><time>2026-05-02T09:56:06.344Z</time></trkpt><trkpt lat="43.5839961" lon="12.4983909"><ele>353.0</ele><time>2026-05-02T09:56:07.338Z</time></trkpt><trkpt lat="43.5837265" lon="12.4983654"><ele>353.5</ele><time>2026-05-02T09:56:08.335Z</time></trkpt><trkpt lat="43.5834522" lon="12.4983476"><ele>354.0</ele><time>2026-05-02T09:56:09.312Z</time></trkpt><trkpt lat="43.5831784" lon="12.4983419"><ele>354.0</ele><time>2026-05-02T09:56:10.338Z</time></trkpt><trkpt lat="43.5829033" lon="12.4983508"><ele>354.0</ele><time>2026-05-02T09:56:11.337Z</time></trkpt><trkpt lat="43.5826391" lon="12.4983545"><ele>355.0</ele><time>2026-05-02T09:56:12.333Z</time></trkpt><trkpt lat="43.5823904" lon="12.4983546"><ele>356.0</ele><time>2026-05-02T09:56:13.404Z</time></trkpt><trkpt lat="43.5821458" lon="12.4983471"><ele>356.5</ele><time>2026-05-02T09:56:14.337Z</time></trkpt><trkpt lat="43.5819005" lon="12.4983237"><ele>357.0</ele><time>2026-05-02T09:56:15.336Z</time></trkpt><trkpt lat="43.5816536" lon="12.4982844"><ele>357.0</ele><time>2026-05-02T09:56:16.313Z</time></trkpt><trkpt lat="43.581404" lon="12.4982086"><ele>357.0</ele><time>2026-05-02T09:56:17.337Z</time></trkpt><trkpt lat="43.5811537" lon="12.4981293"><ele>357.5</ele><time>2026-05-02T09:56:18.339Z</time></trkpt><trkpt lat="43.5809154" lon="12.4980529"><ele>358.0</ele><time>2026-05-02T09:56:19.338Z</time></trkpt><trkpt lat="43.5806782" lon="12.4979706"><ele>360.66666666666663</ele><time>2026-05-02T09:56:20.332Z</time></trkpt><trkpt lat="43.5804697" lon="12.4979027"><ele>363.3333333333333</ele><time>2026-05-02T09:56:21.33Z</time></trkpt><trkpt lat="43.5802735" lon="12.4978061"><ele>366.0</ele><time>2026-05-02T09:56:22.341Z</time></trkpt><trkpt lat="43.5800969" lon="12.49767"><ele>366.0</ele><time>2026-05-02T09:56:23.338Z</time></trkpt><trkpt lat="43.5799266" lon="12.4975099"><ele>366.0</ele><time>2026-05-02T09:56:24.333Z</time></trkpt><trkpt lat="43.5797848" lon="12.4973029"><ele>366.0</ele><time>2026-05-02T09:56:25.339Z</time></trkpt><trkpt lat="43.5796772" lon="12.4970741"><ele>373.66666666666663</ele><time>2026-05-02T09:56:26.337Z</time></trkpt><trkpt lat="43.5796084" lon="12.4968285"><ele>381.3333333333333</ele><time>2026-05-02T09:56:27.339Z</time></trkpt><trkpt lat="43.5795864" lon="12.4965513"><ele>389.0</ele><time>2026-05-02T09:56:28.33Z</time></trkpt><trkpt lat="43.5795884" lon="12.4962897"><ele>388.66666666666663</ele><time>2026-05-02T09:56:29.334Z</time></trkpt><trkpt lat="43.5796317" lon="12.4960301"><ele>388.33333333333337</ele><time>2026-05-02T09:56:30.341Z</time></trkpt><trkpt lat="43.5797108" lon="12.4957637"><ele>388.0</ele><time>2026-05-02T09:56:31.341Z</time></trkpt><trkpt lat="43.5798162" lon="12.495502"><ele>380.6666666666667</ele><time>2026-05-02T09:56:32.333Z</time></trkpt><trkpt lat="43.5799293" lon="12.4952361"><ele>373.33333333333337</ele><time>2026-05-02T09:56:33.335Z</time></trkpt><trkpt lat="43.5800436" lon="12.4949879"><ele>366.0</ele><time>2026-05-02T09:56:34.339Z</time></trkpt><trkpt lat="43.5801682" lon="12.4947809"><ele>366.0</ele><time>2026-05-02T09:56:35.339Z</time></trkpt><trkpt lat="43.5803174" lon="12.4946018"><ele>366.0</ele><time>2026-05-02T09:56:36.332Z</time></trkpt><trkpt lat="43.5804933" lon="12.4944597"><ele>366.0</ele><time>2026-05-02T09:56:37.34Z</time></trkpt><trkpt lat="43.5806754" lon="12.4943297"><ele>362.0</ele><time>2026-05-02T09:56:38.338Z</time></trkpt><trkpt lat="43.5809142" lon="12.4942595"><ele>358.0</ele><time>2026-05-02T09:56:39.331Z</time></trkpt><trkpt lat="43.5811293" lon="12.4941639"><ele>360.0</ele><time>2026-05-02T09:56:40.334Z</time></trkpt><trkpt lat="43.5813417" lon="12.4940633"><ele>362.0</ele><time>2026-05-02T09:56:41.34Z</time></trkpt><trkpt lat="43.5815553" lon="12.4939545"><ele>362.0</ele><time>2026-05-02T09:56:42.336Z</time></trkpt><trkpt lat="43.5817645" lon="12.4938096"><ele>362.0</ele><time>2026-05-02T09:56:43.337Z</time></trkpt><trkpt lat="43.5819465" lon="12.4936124"><ele>359.0</ele><time>2026-05-02T09:56:44.339Z</time></trkpt><trkpt lat="43.5821137" lon="12.493393"><ele>356.0</ele><time>2026-05-02T09:56:45.341Z</time></trkpt><trkpt lat="43.5822767" lon="12.4931698"><ele>356.0</ele><time>2026-05-02T09:56:46.346Z</time></trkpt><trkpt lat="43.5824313" lon="12.4929602"><ele>356.0</ele><time>2026-05-02T09:56:47.333Z</time></trkpt><trkpt lat="43.5825806" lon="12.4927366"><ele>356.0</ele><time>2026-05-02T09:56:48.337Z</time></trkpt><trkpt lat="43.5827247" lon="12.492527"><ele>355.6666666666667</ele><time>2026-05-02T09:56:49.336Z</time></trkpt><trkpt lat="43.5828054" lon="12.4922526"><ele>355.3333333333333</ele><time>2026-05-02T09:56:50.338Z</time></trkpt><trkpt lat="43.5828778" lon="12.4919991"><ele>355.0</ele><time>2026-05-02T09:56:51.313Z</time></trkpt><trkpt lat="43.5829331" lon="12.4917496"><ele>355.0</ele><time>2026-05-02T09:56:52.338Z</time></trkpt><trkpt lat="43.5829586" lon="12.4914788"><ele>355.0</ele><time>2026-05-02T09:56:53.339Z</time></trkpt><trkpt lat="43.5829796" lon="12.4912138"><ele>355.0</ele><time>2026-05-02T09:56:54.338Z</time></trkpt><trkpt lat="43.582996" lon="12.490947"><ele>355.0</ele><time>2026-05-02T09:56:55.331Z</time></trkpt><trkpt lat="43.5830095" lon="12.4906789"><ele>355.0</ele><time>2026-05-02T09:56:56.338Z</time></trkpt><trkpt lat="43.5830232" lon="12.4904203"><ele>355.0</ele><time>2026-05-02T09:56:57.34Z</time></trkpt><trkpt lat="43.5830342" lon="12.4901631"><ele>355.0</ele><time>2026-05-02T09:56:58.342Z</time></trkpt><trkpt lat="43.5830395" lon="12.4899032"><ele>355.0</ele><time>2026-05-02T09:56:59.333Z</time></trkpt><trkpt lat="43.5830421" lon="12.489639"><ele>355.0</ele><time>2026-05-02T09:57:00.341Z</time></trkpt><trkpt lat="43.5830519" lon="12.48937"><ele>356.3333333333333</ele><time>2026-05-02T09:57:01.344Z</time></trkpt><trkpt lat="43.5830627" lon="12.4891072"><ele>357.6666666666667</ele><time>2026-05-02T09:57:02.309Z</time></trkpt><trkpt lat="43.583071" lon="12.4888584"><ele>359.0</ele><time>2026-05-02T09:57:03.314Z</time></trkpt><trkpt lat="43.5830836" lon="12.4886228"><ele>359.33333333333337</ele><time>2026-05-02T09:57:04.335Z</time></trkpt><trkpt lat="43.5830984" lon="12.4883961"><ele>359.6666666666667</ele><time>2026-05-02T09:57:05.337Z</time></trkpt><trkpt lat="43.5831085" lon="12.4881774"><ele>360.0</ele><time>2026-05-02T09:57:06.34Z</time></trkpt><trkpt lat="43.5831131" lon="12.4879605"><ele>361.0</ele><time>2026-05-02T09:57:07.332Z</time></trkpt><trkpt lat="43.5830984" lon="12.4877467"><ele>362.0</ele><time>2026-05-02T09:57:08.338Z</time></trkpt><trkpt lat="43.5830551" lon="12.4875375"><ele>363.0</ele><time>2026-05-02T09:57:09.338Z</time></trkpt><trkpt lat="43.5829887" lon="12.4873348"><ele>363.0</ele><time>2026-05-02T09:57:10.341Z</time></trkpt><trkpt lat="43.5829065" lon="12.4871488"><ele>363.0</ele><time>2026-05-02T09:57:11.332Z</time></trkpt><trkpt lat="43.5828013" lon="12.4869846"><ele>363.0</ele><time>2026-05-02T09:57:12.316Z</time></trkpt><trkpt lat="43.5826826" lon="12.4868594"><ele>365.0</ele><time>2026-05-02T09:57:13.339Z</time></trkpt><trkpt lat="43.5825632" lon="12.4867509"><ele>367.0</ele><time>2026-05-02T09:57:14.338Z</time></trkpt><trkpt lat="43.5824216" lon="12.4866668"><ele>369.0</ele><time>2026-05-02T09:57:15.331Z</time></trkpt><trkpt lat="43.582266" lon="12.4866157"><ele>369.0</ele><time>2026-05-02T09:57:16.337Z</time></trkpt><trkpt lat="43.5821126" lon="12.486559"><ele>369.0</ele><time>2026-05-02T09:57:17.342Z</time></trkpt><trkpt lat="43.581943" lon="12.4866264"><ele>369.0</ele><time>2026-05-02T09:57:18.342Z</time></trkpt><trkpt lat="43.5817745" lon="12.4866614"><ele>373.3333333333333</ele><time>2026-05-02T09:57:19.335Z</time></trkpt><trkpt lat="43.5816151" lon="12.4867197"><ele>377.66666666666663</ele><time>2026-05-02T09:57:20.339Z</time></trkpt><trkpt lat="43.5814646" lon="12.4867751"><ele>382.0</ele><time>2026-05-02T09:57:21.339Z</time></trkpt><trkpt lat="43.5813087" lon="12.4868254"><ele>384.0</ele><time>2026-05-02T09:57:22.343Z</time></trkpt><trkpt lat="43.5811485" lon="12.4868411"><ele>386.0</ele><time>2026-05-02T09:57:23.331Z</time></trkpt><trkpt lat="43.5809848" lon="12.4868417"><ele>388.0</ele><time>2026-05-02T09:57:24.336Z</time></trkpt><trkpt lat="43.5808102" lon="12.4868006"><ele>388.0</ele><time>2026-05-02T09:57:25.336Z</time></trkpt><trkpt lat="43.5806104" lon="12.4867356"><ele>388.0</ele><time>2026-05-02T09:57:26.339Z</time></trkpt><trkpt lat="43.5804022" lon="12.4866431"><ele>388.0</ele><time>2026-05-02T09:57:27.332Z</time></trkpt><trkpt lat="43.5801961" lon="12.4865548"><ele>385.0</ele><time>2026-05-02T09:57:28.34Z</time></trkpt><trkpt lat="43.5799992" lon="12.486466"><ele>382.0</ele><time>2026-05-02T09:57:29.342Z</time></trkpt><trkpt lat="43.5798053" lon="12.4863687"><ele>379.0</ele><time>2026-05-02T09:57:30.308Z</time></trkpt><trkpt lat="43.5796118" lon="12.4862484"><ele>381.3333333333333</ele><time>2026-05-02T09:57:31.335Z</time></trkpt><trkpt lat="43.5794242" lon="12.4861174"><ele>383.66666666666663</ele><time>2026-05-02T09:57:32.338Z</time></trkpt><trkpt lat="43.5792356" lon="12.4859754"><ele>386.0</ele><time>2026-05-02T09:57:33.337Z</time></trkpt><trkpt lat="43.5790338" lon="12.4857689"><ele>386.0</ele><time>2026-05-02T09:57:34.337Z</time></trkpt><trkpt lat="43.5788341" lon="12.4855441"><ele>386.0</ele><time>2026-05-02T09:57:35.337Z</time></trkpt><trkpt lat="43.5786322" lon="12.4853238"><ele>383.0</ele><time>2026-05-02T09:57:36.341Z</time></trkpt><trkpt lat="43.5784538" lon="12.4850614"><ele>380.0</ele><time>2026-05-02T09:57:37.335Z</time></trkpt><trkpt lat="43.5782768" lon="12.4848158"><ele>390.5</ele><time>2026-05-02T09:57:38.313Z</time></trkpt><trkpt lat="43.5781058" lon="12.4845737"><ele>401.0</ele><time>2026-05-02T09:57:39.338Z</time></trkpt><trkpt lat="43.5779748" lon="12.4843045"><ele>401.0</ele><time>2026-05-02T09:57:40.337Z</time></trkpt><trkpt lat="43.5778645" lon="12.4840423"><ele>401.0</ele><time>2026-05-02T09:57:41.339Z</time></trkpt><trkpt lat="43.5777723" lon="12.4838105"><ele>401.0</ele><time>2026-05-02T09:57:42.315Z</time></trkpt><trkpt lat="43.5776932" lon="12.4836076"><ele>400.5</ele><time>2026-05-02T09:57:43.354Z</time></trkpt><trkpt lat="43.5776851" lon="12.4834267"><ele>400.0</ele><time>2026-05-02T09:57:44.339Z</time></trkpt><trkpt lat="43.5777168" lon="12.4832432"><ele>399.5</ele><time>2026-05-02T09:57:45.341Z</time></trkpt><trkpt lat="43.5777967" lon="12.4830682"><ele>399.0</ele><time>2026-05-02T09:57:46.331Z</time></trkpt><trkpt lat="43.5779091" lon="12.4829372"><ele>393.0</ele><time>2026-05-02T09:57:47.339Z</time></trkpt><trkpt lat="43.578042" lon="12.4828161"><ele>387.0</ele><time>2026-05-02T09:57:48.334Z</time></trkpt><trkpt lat="43.5782121" lon="12.4828505"><ele>381.0</ele><time>2026-05-02T09:57:49.338Z</time></trkpt><trkpt lat="43.5783761" lon="12.482816"><ele>381.0</ele><time>2026-05-02T09:57:50.313Z</time></trkpt><trkpt lat="43.5785506" lon="12.4827549"><ele>381.0</ele><time>2026-05-02T09:57:51.336Z</time></trkpt><trkpt lat="43.5786885" lon="12.482619"><ele>381.0</ele><time>2026-05-02T09:57:52.339Z</time></trkpt><trkpt lat="43.5787947" lon="12.4824404"><ele>381.6666666666667</ele><time>2026-05-02T09:57:53.34Z</time></trkpt><trkpt lat="43.5788704" lon="12.4822531"><ele>382.33333333333337</ele><time>2026-05-02T09:57:54.313Z</time></trkpt><trkpt lat="43.5789301" lon="12.4820685"><ele>383.0</ele><time>2026-05-02T09:57:55.339Z</time></trkpt><trkpt lat="43.5788973" lon="12.481808"><ele>383.0</ele><time>2026-05-02T09:57:56.339Z</time></trkpt><trkpt lat="43.5788608" lon="12.4815763"><ele>383.0</ele><time>2026-05-02T09:57:57.334Z</time></trkpt><trkpt lat="43.5788228" lon="12.4813584"><ele>383.0</ele><time>2026-05-02T09:57:58.338Z</time></trkpt><trkpt lat="43.5788057" lon="12.4811504"><ele>382.0</ele><time>2026-05-02T09:57:59.342Z</time></trkpt><trkpt lat="43.5788196" lon="12.4809455"><ele>381.0</ele><time>2026-05-02T09:58:00.316Z</time></trkpt><trkpt lat="43.5788604" lon="12.4807504"><ele>380.0</ele><time>2026-05-02T09:58:01.335Z</time></trkpt><trkpt lat="43.5789154" lon="12.4805548"><ele>379.0</ele><time>2026-05-02T09:58:02.337Z</time></trkpt><trkpt lat="43.5789724" lon="12.4803662"><ele>379.0</ele><time>2026-05-02T09:58:03.339Z</time></trkpt><trkpt lat="43.5790156" lon="12.4801807"><ele>379.0</ele><time>2026-05-02T09:58:04.339Z</time></trkpt><trkpt lat="43.5790456" lon="12.4799848"><ele>379.0</ele><time>2026-05-02T09:58:05.334Z</time></trkpt><trkpt lat="43.5790607" lon="12.479777"><ele>379.0</ele><time>2026-05-02T09:58:06.337Z</time></trkpt><trkpt lat="43.5790595" lon="12.4795567"><ele>382.3333333333333</ele><time>2026-05-02T09:58:07.337Z</time></trkpt><trkpt lat="43.5790392" lon="12.4793336"><ele>385.66666666666663</ele><time>2026-05-02T09:58:08.339Z</time></trkpt><trkpt lat="43.5790004" lon="12.4790998"><ele>389.0</ele><time>2026-05-02T09:58:09.314Z</time></trkpt><trkpt lat="43.5789319" lon="12.4788699"><ele>393.66666666666663</ele><time>2026-05-02T09:58:10.338Z</time></trkpt><trkpt lat="43.5788657" lon="12.4786524"><ele>398.33333333333337</ele><time>2026-05-02T09:58:11.336Z</time></trkpt><trkpt lat="43.5787948" lon="12.478436"><ele>403.0</ele><time>2026-05-02T09:58:12.34Z</time></trkpt><trkpt lat="43.5787989" lon="12.4782069"><ele>403.0</ele><time>2026-05-02T09:58:13.334Z</time></trkpt><trkpt lat="43.5788486" lon="12.477994"><ele>403.0</ele><time>2026-05-02T09:58:14.337Z</time></trkpt><trkpt lat="43.5788942" lon="12.4777987"><ele>403.0</ele><time>2026-05-02T09:58:15.34Z</time></trkpt><trkpt lat="43.578963" lon="12.4776058"><ele>402.75</ele><time>2026-05-02T09:58:16.34Z</time></trkpt><trkpt lat="43.5790313" lon="12.4774146"><ele>402.5</ele><time>2026-05-02T09:58:17.335Z</time></trkpt><trkpt lat="43.5790776" lon="12.477233"><ele>402.25</ele><time>2026-05-02T09:58:18.337Z</time></trkpt><trkpt lat="43.579113" lon="12.4770474"><ele>402.0</ele><time>2026-05-02T09:58:19.339Z</time></trkpt><trkpt lat="43.5791246" lon="12.4768602"><ele>400.25</ele><time>2026-05-02T09:58:20.339Z</time></trkpt><trkpt lat="43.579116" lon="12.4766698"><ele>398.5</ele><time>2026-05-02T09:58:21.332Z</time></trkpt><trkpt lat="43.5790786" lon="12.4764888"><ele>396.75</ele><time>2026-05-02T09:58:22.314Z</time></trkpt><trkpt lat="43.5790222" lon="12.476296"><ele>395.0</ele><time>2026-05-02T09:58:23.336Z</time></trkpt><trkpt lat="43.5789492" lon="12.4760998"><ele>395.0</ele><time>2026-05-02T09:58:24.339Z</time></trkpt><trkpt lat="43.5788628" lon="12.4759039"><ele>395.0</ele><time>2026-05-02T09:58:25.445Z</time></trkpt><trkpt lat="43.5786761" lon="12.4754824"><ele>391.0</ele><time>2026-05-02T09:58:27.338Z</time></trkpt><trkpt lat="43.5784915" lon="12.4750212"><ele>387.0</ele><time>2026-05-02T09:58:29.33Z</time></trkpt><trkpt lat="43.5784002" lon="12.4747948"><ele>387.33333333333337</ele><time>2026-05-02T09:58:30.336Z</time></trkpt><trkpt lat="43.5783102" lon="12.4745711"><ele>387.6666666666667</ele><time>2026-05-02T09:58:31.338Z</time></trkpt><trkpt lat="43.5782158" lon="12.4743576"><ele>388.0</ele><time>2026-05-02T09:58:32.341Z</time></trkpt><trkpt lat="43.5781248" lon="12.4741378"><ele>388.0</ele><time>2026-05-02T09:58:33.332Z</time></trkpt><trkpt lat="43.578053" lon="12.473916"><ele>388.0</ele><time>2026-05-02T09:58:34.335Z</time></trkpt><trkpt lat="43.5779978" lon="12.4736869"><ele>388.0</ele><time>2026-05-02T09:58:35.338Z</time></trkpt><trkpt lat="43.5779581" lon="12.4734461"><ele>387.6666666666667</ele><time>2026-05-02T09:58:36.336Z</time></trkpt><trkpt lat="43.5779411" lon="12.4732168"><ele>387.33333333333337</ele><time>2026-05-02T09:58:37.332Z</time></trkpt><trkpt lat="43.5779359" lon="12.4729928"><ele>387.0</ele><time>2026-05-02T09:58:38.334Z</time></trkpt><trkpt lat="43.5779447" lon="12.4727663"><ele>386.66666666666663</ele><time>2026-05-02T09:58:39.342Z</time></trkpt><trkpt lat="43.577965" lon="12.4725286"><ele>386.3333333333333</ele><time>2026-05-02T09:58:40.336Z</time></trkpt><trkpt lat="43.5779988" lon="12.4722734"><ele>386.0</ele><time>2026-05-02T09:58:41.314Z</time></trkpt><trkpt lat="43.5780332" lon="12.4719889"><ele>386.0</ele><time>2026-05-02T09:58:42.338Z</time></trkpt><trkpt lat="43.578074" lon="12.4716693"><ele>386.0</ele><time>2026-05-02T09:58:43.335Z</time></trkpt><trkpt lat="43.5781327" lon="12.4713139"><ele>390.0</ele><time>2026-05-02T09:58:44.314Z</time></trkpt><trkpt lat="43.5781947" lon="12.4709974"><ele>394.0</ele><time>2026-05-02T09:58:45.313Z</time></trkpt><trkpt lat="43.5782504" lon="12.4706953"><ele>399.6666666666667</ele><time>2026-05-02T09:58:46.339Z</time></trkpt><trkpt lat="43.5783273" lon="12.4704129"><ele>405.33333333333337</ele><time>2026-05-02T09:58:47.342Z</time></trkpt><trkpt lat="43.5784289" lon="12.4701608"><ele>411.0</ele><time>2026-05-02T09:58:48.342Z</time></trkpt><trkpt lat="43.5785222" lon="12.4699163"><ele>411.0</ele><time>2026-05-02T09:58:49.332Z</time></trkpt><trkpt lat="43.5786196" lon="12.4697056"><ele>411.0</ele><time>2026-05-02T09:58:50.337Z</time></trkpt><trkpt lat="43.5786733" lon="12.4694636"><ele>411.0</ele><time>2026-05-02T09:58:51.315Z</time></trkpt><trkpt lat="43.5786865" lon="12.4692296"><ele>411.66666666666663</ele><time>2026-05-02T09:58:52.339Z</time></trkpt><trkpt lat="43.5786333" lon="12.4690265"><ele>412.3333333333333</ele><time>2026-05-02T09:58:53.332Z</time></trkpt><trkpt lat="43.5785935" lon="12.4688145"><ele>413.0</ele><time>2026-05-02T09:58:54.334Z</time></trkpt><trkpt lat="43.5784007" lon="12.4686208"><ele>407.5</ele><time>2026-05-02T09:58:55.346Z</time></trkpt><trkpt lat="43.5782276" lon="12.4683951"><ele>402.0</ele><time>2026-05-02T09:58:56.315Z</time></trkpt><trkpt lat="43.578026" lon="12.468126"><ele>404.5</ele><time>2026-05-02T09:58:57.317Z</time></trkpt><trkpt lat="43.5778386" lon="12.4678784"><ele>407.0</ele><time>2026-05-02T09:58:58.34Z</time></trkpt><trkpt lat="43.5776672" lon="12.46764"><ele>407.0</ele><time>2026-05-02T09:58:59.343Z</time></trkpt><trkpt lat="43.5774939" lon="12.4674158"><ele>407.0</ele><time>2026-05-02T09:59:00.334Z</time></trkpt><trkpt lat="43.5773328" lon="12.4672021"><ele>405.3333333333333</ele><time>2026-05-02T09:59:01.34Z</time></trkpt><trkpt lat="43.5772202" lon="12.4670285"><ele>403.66666666666663</ele><time>2026-05-02T09:59:02.345Z</time></trkpt><trkpt lat="43.5771128" lon="12.4668139"><ele>402.0</ele><time>2026-05-02T09:59:03.346Z</time></trkpt><trkpt lat="43.5770424" lon="12.4665763"><ele>399.66666666666663</ele><time>2026-05-02T09:59:04.315Z</time></trkpt><trkpt lat="43.5770048" lon="12.4663215"><ele>397.3333333333333</ele><time>2026-05-02T09:59:05.339Z</time></trkpt><trkpt lat="43.5769897" lon="12.4660391"><ele>395.0</ele><time>2026-05-02T09:59:06.338Z</time></trkpt><trkpt lat="43.5769966" lon="12.4657636"><ele>400.66666666666663</ele><time>2026-05-02T09:59:07.339Z</time></trkpt><trkpt lat="43.5770372" lon="12.4655135"><ele>406.33333333333337</ele><time>2026-05-02T09:59:08.332Z</time></trkpt><trkpt lat="43.5770997" lon="12.4652745"><ele>412.0</ele><time>2026-05-02T09:59:09.337Z</time></trkpt><trkpt lat="43.5771952" lon="12.465054"><ele>412.0</ele><time>2026-05-02T09:59:10.333Z</time></trkpt><trkpt lat="43.5773278" lon="12.4648527"><ele>412.0</ele><time>2026-05-02T09:59:11.337Z</time></trkpt><trkpt lat="43.5774766" lon="12.4646686"><ele>412.0</ele><time>2026-05-02T09:59:12.331Z</time></trkpt><trkpt lat="43.5776345" lon="12.4644845"><ele>414.6666666666667</ele><time>2026-05-02T09:59:13.337Z</time></trkpt><trkpt lat="43.5778077" lon="12.4643015"><ele>417.33333333333337</ele><time>2026-05-02T09:59:14.338Z</time></trkpt><trkpt lat="43.5779895" lon="12.4641043"><ele>420.0</ele><time>2026-05-02T09:59:15.338Z</time></trkpt><trkpt lat="43.5781845" lon="12.4639025"><ele>411.5</ele><time>2026-05-02T09:59:16.334Z</time></trkpt><trkpt lat="43.5783865" lon="12.4636919"><ele>403.0</ele><time>2026-05-02T09:59:17.318Z</time></trkpt><trkpt lat="43.5785866" lon="12.4634805"><ele>412.5</ele><time>2026-05-02T09:59:18.342Z</time></trkpt><trkpt lat="43.5787778" lon="12.4632715"><ele>422.0</ele><time>2026-05-02T09:59:19.345Z</time></trkpt><trkpt lat="43.5789302" lon="12.4630586"><ele>420.0</ele><time>2026-05-02T09:59:20.339Z</time></trkpt><trkpt lat="43.5790696" lon="12.4628243"><ele>418.0</ele><time>2026-05-02T09:59:21.346Z</time></trkpt><trkpt lat="43.5791849" lon="12.4625753"><ele>416.0</ele><time>2026-05-02T09:59:22.345Z</time></trkpt><trkpt lat="43.5792583" lon="12.462278"><ele>415.5</ele><time>2026-05-02T09:59:23.343Z</time></trkpt><trkpt lat="43.5792956" lon="12.4619658"><ele>415.0</ele><time>2026-05-02T09:59:24.337Z</time></trkpt><trkpt lat="43.5793025" lon="12.4616453"><ele>415.0</ele><time>2026-05-02T09:59:25.341Z</time></trkpt><trkpt lat="43.5792963" lon="12.4613174"><ele>415.0</ele><time>2026-05-02T09:59:26.342Z</time></trkpt><trkpt lat="43.5793161" lon="12.4609854"><ele>414.0</ele><time>2026-05-02T09:59:27.344Z</time></trkpt><trkpt lat="43.5793558" lon="12.4606637"><ele>413.0</ele><time>2026-05-02T09:59:28.333Z</time></trkpt><trkpt lat="43.5793982" lon="12.4603341"><ele>412.5</ele><time>2026-05-02T09:59:29.335Z</time></trkpt><trkpt lat="43.5794931" lon="12.4599989"><ele>412.0</ele><time>2026-05-02T09:59:30.34Z</time></trkpt><trkpt lat="43.5796008" lon="12.4596859"><ele>422.5</ele><time>2026-05-02T09:59:31.339Z</time></trkpt><trkpt lat="43.5796963" lon="12.4593781"><ele>433.0</ele><time>2026-05-02T09:59:32.313Z</time></trkpt><trkpt lat="43.5797867" lon="12.4590697"><ele>427.0</ele><time>2026-05-02T09:59:33.332Z</time></trkpt><trkpt lat="43.5798835" lon="12.4587636"><ele>421.0</ele><time>2026-05-02T09:59:34.34Z</time></trkpt><trkpt lat="43.5799763" lon="12.4584826"><ele>421.0</ele><time>2026-05-02T09:59:35.312Z</time></trkpt><trkpt lat="43.5800497" lon="12.4582088"><ele>421.0</ele><time>2026-05-02T09:59:36.328Z</time></trkpt><trkpt lat="43.5801382" lon="12.4579232"><ele>421.0</ele><time>2026-05-02T09:59:37.338Z</time></trkpt><trkpt lat="43.5802232" lon="12.457638"><ele>419.0</ele><time>2026-05-02T09:59:38.346Z</time></trkpt><trkpt lat="43.5803067" lon="12.457354"><ele>417.0</ele><time>2026-05-02T09:59:39.336Z</time></trkpt><trkpt lat="43.5803942" lon="12.4570631"><ele>416.66666666666663</ele><time>2026-05-02T09:59:40.344Z</time></trkpt><trkpt lat="43.5804692" lon="12.4567808"><ele>416.3333333333333</ele><time>2026-05-02T09:59:41.348Z</time></trkpt><trkpt lat="43.5805194" lon="12.4564763"><ele>416.0</ele><time>2026-05-02T09:59:42.345Z</time></trkpt><trkpt lat="43.5805524" lon="12.4561973"><ele>415.66666666666663</ele><time>2026-05-02T09:59:43.337Z</time></trkpt><trkpt lat="43.5805808" lon="12.4559241"><ele>415.33333333333337</ele><time>2026-05-02T09:59:44.343Z</time></trkpt><trkpt lat="43.5805962" lon="12.4556675"><ele>415.0</ele><time>2026-05-02T09:59:45.343Z</time></trkpt><trkpt lat="43.5806173" lon="12.4554387"><ele>416.6666666666667</ele><time>2026-05-02T09:59:46.323Z</time></trkpt><trkpt lat="43.5806252" lon="12.4552124"><ele>418.33333333333337</ele><time>2026-05-02T09:59:47.317Z</time></trkpt><trkpt lat="43.5806414" lon="12.4549985"><ele>420.0</ele><time>2026-05-02T09:59:48.338Z</time></trkpt><trkpt lat="43.5806629" lon="12.454813"><ele>420.0</ele><time>2026-05-02T09:59:49.344Z</time></trkpt><trkpt lat="43.5806736" lon="12.4546419"><ele>420.0</ele><time>2026-05-02T09:59:50.335Z</time></trkpt><trkpt lat="43.5806535" lon="12.4544975"><ele>420.0</ele><time>2026-05-02T09:59:51.336Z</time></trkpt><trkpt lat="43.5805975" lon="12.4543945"><ele>420.0</ele><time>2026-05-02T09:59:52.34Z</time></trkpt><trkpt lat="43.580511" lon="12.4543349"><ele>420.0</ele><time>2026-05-02T09:59:53.333Z</time></trkpt><trkpt lat="43.580396" lon="12.4543104"><ele>420.0</ele><time>2026-05-02T09:59:54.344Z</time></trkpt><trkpt lat="43.5802845" lon="12.4542808"><ele>420.0</ele><time>2026-05-02T09:59:55.342Z</time></trkpt><trkpt lat="43.5801496" lon="12.4542706"><ele>420.0</ele><time>2026-05-02T09:59:56.314Z</time></trkpt><trkpt lat="43.5799671" lon="12.4542556"><ele>420.0</ele><time>2026-05-02T09:59:57.317Z</time></trkpt><trkpt lat="43.5798241" lon="12.4542413"><ele>420.0</ele><time>2026-05-02T09:59:58.34Z</time></trkpt><trkpt lat="43.5796405" lon="12.4542126"><ele>420.0</ele><time>2026-05-02T09:59:59.342Z</time></trkpt><trkpt lat="43.5794763" lon="12.4541869"><ele>420.0</ele><time>2026-05-02T10:00:00.335Z</time></trkpt><trkpt lat="43.5793143" lon="12.4541733"><ele>420.33333333333337</ele><time>2026-05-02T10:00:01.341Z</time></trkpt><trkpt lat="43.5791303" lon="12.4541855"><ele>420.6666666666667</ele><time>2026-05-02T10:00:02.343Z</time></trkpt><trkpt lat="43.5789665" lon="12.4542758"><ele>421.0</ele><time>2026-05-02T10:00:03.318Z</time></trkpt><trkpt lat="43.578785" lon="12.4543792"><ele>423.0</ele><time>2026-05-02T10:00:04.337Z</time></trkpt><trkpt lat="43.578601" lon="12.4545172"><ele>425.0</ele><time>2026-05-02T10:00:05.318Z</time></trkpt><trkpt lat="43.5783973" lon="12.454731"><ele>425.0</ele><time>2026-05-02T10:00:06.34Z</time></trkpt><trkpt lat="43.5781864" lon="12.454954"><ele>425.0</ele><time>2026-05-02T10:00:07.344Z</time></trkpt><trkpt lat="43.5779725" lon="12.455155"><ele>429.5</ele><time>2026-05-02T10:00:08.335Z</time></trkpt><trkpt lat="43.577747" lon="12.4553398"><ele>434.0</ele><time>2026-05-02T10:00:09.337Z</time></trkpt><trkpt lat="43.5775399" lon="12.455493"><ele>434.0</ele><time>2026-05-02T10:00:10.341Z</time></trkpt><trkpt lat="43.5773598" lon="12.4556948"><ele>434.0</ele><time>2026-05-02T10:00:11.344Z</time></trkpt><trkpt lat="43.5772268" lon="12.4558022"><ele>434.0</ele><time>2026-05-02T10:00:12.316Z</time></trkpt><trkpt lat="43.57716" lon="12.455917"><ele>434.0</ele><time>2026-05-02T10:00:13.339Z</time></trkpt><trkpt lat="43.5770524" lon="12.456046"><ele>434.0</ele><time>2026-05-02T10:00:14.339Z</time></trkpt><trkpt lat="43.5770648" lon="12.4561906"><ele>434.0</ele><time>2026-05-02T10:00:15.339Z</time></trkpt><trkpt lat="43.5770272" lon="12.4563595"><ele>434.0</ele><time>2026-05-02T10:00:16.331Z</time></trkpt><trkpt lat="43.5770302" lon="12.4565763"><ele>434.0</ele><time>2026-05-02T10:00:17.336Z</time></trkpt><trkpt lat="43.5771219" lon="12.4568333"><ele>434.0</ele><time>2026-05-02T10:00:18.335Z</time></trkpt><trkpt lat="43.5772471" lon="12.4569851"><ele>434.0</ele><time>2026-05-02T10:00:19.344Z</time></trkpt><trkpt lat="43.5774476" lon="12.4571457"><ele>442.5</ele><time>2026-05-02T10:00:20.331Z</time></trkpt><trkpt lat="43.5776029" lon="12.4573579"><ele>451.0</ele><time>2026-05-02T10:00:21.317Z</time></trkpt><trkpt lat="43.5778494" lon="12.457508"><ele>446.0</ele><time>2026-05-02T10:00:22.339Z</time></trkpt><trkpt lat="43.578027" lon="12.4576652"><ele>441.0</ele><time>2026-05-02T10:00:23.342Z</time></trkpt><trkpt lat="43.5782138" lon="12.4577663"><ele>436.0</ele><time>2026-05-02T10:00:24.338Z</time></trkpt><trkpt lat="43.5783753" lon="12.4578587"><ele>436.0</ele><time>2026-05-02T10:00:25.341Z</time></trkpt><trkpt lat="43.5785142" lon="12.4579217"><ele>436.0</ele><time>2026-05-02T10:00:26.342Z</time></trkpt><trkpt lat="43.5786244" lon="12.4579934"><ele>436.0</ele><time>2026-05-02T10:00:27.319Z</time></trkpt><trkpt lat="43.5787395" lon="12.4580779"><ele>436.0</ele><time>2026-05-02T10:00:28.335Z</time></trkpt><trkpt lat="43.5787734" lon="12.4581993"><ele>432.75</ele><time>2026-05-02T10:00:29.339Z</time></trkpt><trkpt lat="43.5787816" lon="12.458324"><ele>429.5</ele><time>2026-05-02T10:00:30.341Z</time></trkpt><trkpt lat="43.5787605" lon="12.458452"><ele>426.25</ele><time>2026-05-02T10:00:31.342Z</time></trkpt><trkpt lat="43.5786939" lon="12.4585364"><ele>423.0</ele><time>2026-05-02T10:00:32.317Z</time></trkpt><trkpt lat="43.5785031" lon="12.4585236"><ele>434.33333333333337</ele><time>2026-05-02T10:00:33.339Z</time></trkpt><trkpt lat="43.5783328" lon="12.4584453"><ele>445.6666666666667</ele><time>2026-05-02T10:00:34.342Z</time></trkpt><trkpt lat="43.5781107" lon="12.4583171"><ele>457.0</ele><time>2026-05-02T10:00:35.317Z</time></trkpt><trkpt lat="43.5778658" lon="12.4581511"><ele>455.0</ele><time>2026-05-02T10:00:36.316Z</time></trkpt><trkpt lat="43.5776616" lon="12.458025"><ele>453.0</ele><time>2026-05-02T10:00:37.316Z</time></trkpt><trkpt lat="43.5775105" lon="12.4578969"><ele>451.0</ele><time>2026-05-02T10:00:38.316Z</time></trkpt><trkpt lat="43.5773616" lon="12.4578099"><ele>451.0</ele><time>2026-05-02T10:00:39.317Z</time></trkpt><trkpt lat="43.577236" lon="12.4577733"><ele>451.0</ele><time>2026-05-02T10:00:40.316Z</time></trkpt><trkpt lat="43.5771267" lon="12.4577862"><ele>451.0</ele><time>2026-05-02T10:00:41.341Z</time></trkpt><trkpt lat="43.5770552" lon="12.4578642"><ele>451.0</ele><time>2026-05-02T10:00:42.319Z</time></trkpt><trkpt lat="43.5769699" lon="12.4579338"><ele>451.0</ele><time>2026-05-02T10:00:43.319Z</time></trkpt><trkpt lat="43.5769559" lon="12.4580553"><ele>456.33333333333337</ele><time>2026-05-02T10:00:44.315Z</time></trkpt><trkpt lat="43.5770046" lon="12.4581873"><ele>461.66666666666663</ele><time>2026-05-02T10:00:45.318Z</time></trkpt><trkpt lat="43.5772933" lon="12.4582721"><ele>467.0</ele><time>2026-05-02T10:00:46.32Z</time></trkpt><trkpt lat="43.5774794" lon="12.4583866"><ele>467.0</ele><time>2026-05-02T10:00:47.347Z</time></trkpt><trkpt lat="43.577678" lon="12.458519"><ele>467.0</ele><time>2026-05-02T10:00:48.315Z</time></trkpt><trkpt lat="43.5778697" lon="12.4586376"><ele>467.0</ele><time>2026-05-02T10:00:49.317Z</time></trkpt><trkpt lat="43.5780221" lon="12.4587266"><ele>464.75</ele><time>2026-05-02T10:00:50.318Z</time></trkpt><trkpt lat="43.5781645" lon="12.4588253"><ele>462.5</ele><time>2026-05-02T10:00:51.318Z</time></trkpt><trkpt lat="43.5782342" lon="12.4589197"><ele>460.25</ele><time>2026-05-02T10:00:52.315Z</time></trkpt><trkpt lat="43.5783021" lon="12.4590215"><ele>458.0</ele><time>2026-05-02T10:00:53.316Z</time></trkpt><trkpt lat="43.5782422" lon="12.4591544"><ele>458.0</ele><time>2026-05-02T10:00:54.317Z</time></trkpt><trkpt lat="43.5782305" lon="12.4592657"><ele>458.0</ele><time>2026-05-02T10:00:55.337Z</time></trkpt><trkpt lat="43.5781315" lon="12.4593232"><ele>458.0</ele><time>2026-05-02T10:00:56.318Z</time></trkpt><trkpt lat="43.5779975" lon="12.4592918"><ele>458.0</ele><time>2026-05-02T10:00:57.317Z</time></trkpt><trkpt lat="43.5778678" lon="12.4592373"><ele>469.5</ele><time>2026-05-02T10:00:58.343Z</time></trkpt><trkpt lat="43.5775705" lon="12.4589531"><ele>481.0</ele><time>2026-05-02T10:00:59.316Z</time></trkpt><trkpt lat="43.5774054" lon="12.458849"><ele>479.0</ele><time>2026-05-02T10:01:00.345Z</time></trkpt><trkpt lat="43.5772554" lon="12.4587452"><ele>477.0</ele><time>2026-05-02T10:01:01.318Z</time></trkpt><trkpt lat="43.5771039" lon="12.4586882"><ele>475.0</ele><time>2026-05-02T10:01:02.316Z</time></trkpt><trkpt lat="43.5769596" lon="12.458694"><ele>477.6666666666667</ele><time>2026-05-02T10:01:03.316Z</time></trkpt><trkpt lat="43.5768242" lon="12.4587873"><ele>480.33333333333337</ele><time>2026-05-02T10:01:04.341Z</time></trkpt><trkpt lat="43.5766885" lon="12.4588732"><ele>483.0</ele><time>2026-05-02T10:01:05.318Z</time></trkpt><trkpt lat="43.5765307" lon="12.4590405"><ele>483.0</ele><time>2026-05-02T10:01:06.317Z</time></trkpt><trkpt lat="43.5763542" lon="12.4593001"><ele>483.0</ele><time>2026-05-02T10:01:07.316Z</time></trkpt><trkpt lat="43.576198" lon="12.4595157"><ele>487.66666666666663</ele><time>2026-05-02T10:01:08.318Z</time></trkpt><trkpt lat="43.5760338" lon="12.4597266"><ele>492.3333333333333</ele><time>2026-05-02T10:01:09.316Z</time></trkpt><trkpt lat="43.5758843" lon="12.4598866"><ele>497.0</ele><time>2026-05-02T10:01:10.316Z</time></trkpt><trkpt lat="43.5756946" lon="12.4600017"><ele>497.0</ele><time>2026-05-02T10:01:11.316Z</time></trkpt><trkpt lat="43.5755179" lon="12.4601071"><ele>497.0</ele><time>2026-05-02T10:01:12.316Z</time></trkpt><trkpt lat="43.5752994" lon="12.4601822"><ele>497.0</ele><time>2026-05-02T10:01:13.316Z</time></trkpt><trkpt lat="43.5750722" lon="12.4600958"><ele>498.3333333333333</ele><time>2026-05-02T10:01:14.316Z</time></trkpt><trkpt lat="43.5748706" lon="12.460112"><ele>499.66666666666663</ele><time>2026-05-02T10:01:15.314Z</time></trkpt><trkpt lat="43.5746608" lon="12.4600811"><ele>501.0</ele><time>2026-05-02T10:01:16.342Z</time></trkpt><trkpt lat="43.5744802" lon="12.4600375"><ele>505.66666666666663</ele><time>2026-05-02T10:01:17.316Z</time></trkpt><trkpt lat="43.5743147" lon="12.4599553"><ele>510.3333333333333</ele><time>2026-05-02T10:01:18.314Z</time></trkpt><trkpt lat="43.5741407" lon="12.459883"><ele>515.0</ele><time>2026-05-02T10:01:19.314Z</time></trkpt><trkpt lat="43.5739833" lon="12.4597936"><ele>515.0</ele><time>2026-05-02T10:01:20.316Z</time></trkpt><trkpt lat="43.5738154" lon="12.459709"><ele>515.0</ele><time>2026-05-02T10:01:21.317Z</time></trkpt><trkpt lat="43.5736523" lon="12.459631"><ele>515.0</ele><time>2026-05-02T10:01:22.316Z</time></trkpt><trkpt lat="43.5735061" lon="12.4595552"><ele>515.75</ele><time>2026-05-02T10:01:23.315Z</time></trkpt><trkpt lat="43.5733696" lon="12.4595075"><ele>516.5</ele><time>2026-05-02T10:01:24.319Z</time></trkpt><trkpt lat="43.5732325" lon="12.4594568"><ele>517.25</ele><time>2026-05-02T10:01:25.315Z</time></trkpt><trkpt lat="43.5730895" lon="12.4594485"><ele>518.0</ele><time>2026-05-02T10:01:26.317Z</time></trkpt><trkpt lat="43.5729491" lon="12.4595689"><ele>519.3333333333333</ele><time>2026-05-02T10:01:27.315Z</time></trkpt><trkpt lat="43.5727918" lon="12.4596884"><ele>520.6666666666666</ele><time>2026-05-02T10:01:28.315Z</time></trkpt><trkpt lat="43.5726458" lon="12.4598499"><ele>522.0</ele><time>2026-05-02T10:01:29.31Z</time></trkpt><trkpt lat="43.5725231" lon="12.4600134"><ele>522.0</ele><time>2026-05-02T10:01:30.343Z</time></trkpt><trkpt lat="43.5724188" lon="12.4601786"><ele>522.0</ele><time>2026-05-02T10:01:31.316Z</time></trkpt><trkpt lat="43.572313" lon="12.4603402"><ele>522.0</ele><time>2026-05-02T10:01:32.315Z</time></trkpt><trkpt lat="43.572221" lon="12.4604764"><ele>520.0</ele><time>2026-05-02T10:01:33.318Z</time></trkpt><trkpt lat="43.5721264" lon="12.460578"><ele>518.0</ele><time>2026-05-02T10:01:34.317Z</time></trkpt><trkpt lat="43.5720117" lon="12.4606174"><ele>516.0</ele><time>2026-05-02T10:01:35.315Z</time></trkpt><trkpt lat="43.5719055" lon="12.4606238"><ele>514.0</ele><time>2026-05-02T10:01:36.317Z</time></trkpt><trkpt lat="43.571773" lon="12.4604905"><ele>518.3333333333334</ele><time>2026-05-02T10:01:37.319Z</time></trkpt><trkpt lat="43.5716249" lon="12.4603774"><ele>522.6666666666666</ele><time>2026-05-02T10:01:38.318Z</time></trkpt><trkpt lat="43.5714531" lon="12.4602994"><ele>527.0</ele><time>2026-05-02T10:01:39.315Z</time></trkpt><trkpt lat="43.5712697" lon="12.4602712"><ele>529.3333333333333</ele><time>2026-05-02T10:01:40.318Z</time></trkpt><trkpt lat="43.571068" lon="12.460284"><ele>531.6666666666666</ele><time>2026-05-02T10:01:41.315Z</time></trkpt><trkpt lat="43.5708668" lon="12.4603063"><ele>534.0</ele><time>2026-05-02T10:01:42.316Z</time></trkpt><trkpt lat="43.570687" lon="12.4603771"><ele>531.3333333333334</ele><time>2026-05-02T10:01:43.314Z</time></trkpt><trkpt lat="43.5705235" lon="12.4604801"><ele>528.6666666666667</ele><time>2026-05-02T10:01:44.34Z</time></trkpt><trkpt lat="43.5703395" lon="12.4606236"><ele>526.0</ele><time>2026-05-02T10:01:45.314Z</time></trkpt><trkpt lat="43.5701689" lon="12.4607654"><ele>526.0</ele><time>2026-05-02T10:01:46.317Z</time></trkpt><trkpt lat="43.5700091" lon="12.4606507"><ele>526.0</ele><time>2026-05-02T10:01:47.313Z</time></trkpt><trkpt lat="43.5698347" lon="12.4606455"><ele>526.0</ele><time>2026-05-02T10:01:48.317Z</time></trkpt><trkpt lat="43.5696446" lon="12.4606523"><ele>528.6666666666667</ele><time>2026-05-02T10:01:49.317Z</time></trkpt><trkpt lat="43.5694399" lon="12.4607166"><ele>531.3333333333334</ele><time>2026-05-02T10:01:50.316Z</time></trkpt><trkpt lat="43.5692358" lon="12.4608462"><ele>534.0</ele><time>2026-05-02T10:01:51.315Z</time></trkpt><trkpt lat="43.5690444" lon="12.4609774"><ele>534.0</ele><time>2026-05-02T10:01:52.318Z</time></trkpt><trkpt lat="43.5688621" lon="12.461102"><ele>534.0</ele><time>2026-05-02T10:01:53.316Z</time></trkpt><trkpt lat="43.5686985" lon="12.4612014"><ele>534.0</ele><time>2026-05-02T10:01:54.317Z</time></trkpt><trkpt lat="43.5685459" lon="12.4612695"><ele>538.5</ele><time>2026-05-02T10:01:55.316Z</time></trkpt><trkpt lat="43.5684046" lon="12.4612801"><ele>543.0</ele><time>2026-05-02T10:01:56.318Z</time></trkpt><trkpt lat="43.5682646" lon="12.4612487"><ele>547.5</ele><time>2026-05-02T10:01:57.316Z</time></trkpt><trkpt lat="43.5681234" lon="12.4612361"><ele>552.0</ele><time>2026-05-02T10:01:58.317Z</time></trkpt><trkpt lat="43.5679805" lon="12.4612868"><ele>542.6666666666666</ele><time>2026-05-02T10:01:59.313Z</time></trkpt><trkpt lat="43.5678444" lon="12.4614164"><ele>533.3333333333333</ele><time>2026-05-02T10:02:00.313Z</time></trkpt><trkpt lat="43.567725" lon="12.4615562"><ele>524.0</ele><time>2026-05-02T10:02:01.314Z</time></trkpt><trkpt lat="43.5676053" lon="12.4616601"><ele>524.0</ele><time>2026-05-02T10:02:02.339Z</time></trkpt><trkpt lat="43.5674831" lon="12.4616986"><ele>524.0</ele><time>2026-05-02T10:02:03.313Z</time></trkpt><trkpt lat="43.5673666" lon="12.4616732"><ele>524.0</ele><time>2026-05-02T10:02:04.316Z</time></trkpt><trkpt lat="43.567233" lon="12.4616417"><ele>524.0</ele><time>2026-05-02T10:02:05.317Z</time></trkpt><trkpt lat="43.5670989" lon="12.4616599"><ele>525.5</ele><time>2026-05-02T10:02:06.316Z</time></trkpt><trkpt lat="43.5669753" lon="12.4617246"><ele>527.0</ele><time>2026-05-02T10:02:07.312Z</time></trkpt><trkpt lat="43.5668988" lon="12.461876"><ele>528.5</ele><time>2026-05-02T10:02:08.315Z</time></trkpt><trkpt lat="43.5668005" lon="12.4620065"><ele>530.0</ele><time>2026-05-02T10:02:09.314Z</time></trkpt><trkpt lat="43.5667009" lon="12.4621925"><ele>530.0</ele><time>2026-05-02T10:02:10.315Z</time></trkpt><trkpt lat="43.56672" lon="12.4624479"><ele>530.0</ele><time>2026-05-02T10:02:11.311Z</time></trkpt><trkpt lat="43.56667" lon="12.4626509"><ele>530.0</ele><time>2026-05-02T10:02:12.315Z</time></trkpt><trkpt lat="43.5665767" lon="12.4627858"><ele>530.0</ele><time>2026-05-02T10:02:13.314Z</time></trkpt><trkpt lat="43.5664702" lon="12.4628982"><ele>530.0</ele><time>2026-05-02T10:02:14.314Z</time></trkpt><trkpt lat="43.5663314" lon="12.4629675"><ele>530.0</ele><time>2026-05-02T10:02:15.311Z</time></trkpt><trkpt lat="43.5661776" lon="12.4630037"><ele>530.0</ele><time>2026-05-02T10:02:16.312Z</time></trkpt><trkpt lat="43.5660134" lon="12.4630164"><ele>532.5</ele><time>2026-05-02T10:02:17.315Z</time></trkpt><trkpt lat="43.5658582" lon="12.4630002"><ele>535.0</ele><time>2026-05-02T10:02:18.315Z</time></trkpt><trkpt lat="43.565721" lon="12.462945"><ele>537.5</ele><time>2026-05-02T10:02:19.313Z</time></trkpt><trkpt lat="43.5656173" lon="12.4628368"><ele>540.0</ele><time>2026-05-02T10:02:20.314Z</time></trkpt><trkpt lat="43.5655442" lon="12.4626732"><ele>540.0</ele><time>2026-05-02T10:02:21.313Z</time></trkpt><trkpt lat="43.5654898" lon="12.4624726"><ele>540.0</ele><time>2026-05-02T10:02:22.307Z</time></trkpt><trkpt lat="43.5653984" lon="12.4622896"><ele>540.0</ele><time>2026-05-02T10:02:23.311Z</time></trkpt><trkpt lat="43.5652709" lon="12.4621171"><ele>541.3333333333334</ele><time>2026-05-02T10:02:24.314Z</time></trkpt><trkpt lat="43.5651105" lon="12.4619734"><ele>542.6666666666667</ele><time>2026-05-02T10:02:25.314Z</time></trkpt><trkpt lat="43.5649238" lon="12.4618878"><ele>544.0</ele><time>2026-05-02T10:02:26.312Z</time></trkpt><trkpt lat="43.5647016" lon="12.4618113"><ele>543.0</ele><time>2026-05-02T10:02:27.311Z</time></trkpt><trkpt lat="43.5644587" lon="12.4617231"><ele>542.0</ele><time>2026-05-02T10:02:28.315Z</time></trkpt><trkpt lat="43.564204" lon="12.4616318"><ele>542.0</ele><time>2026-05-02T10:02:29.315Z</time></trkpt><trkpt lat="43.5639564" lon="12.4615372"><ele>542.0</ele><time>2026-05-02T10:02:30.314Z</time></trkpt><trkpt lat="43.5637219" lon="12.4614548"><ele>542.3333333333333</ele><time>2026-05-02T10:02:31.312Z</time></trkpt><trkpt lat="43.5635054" lon="12.4613788"><ele>542.6666666666666</ele><time>2026-05-02T10:02:32.338Z</time></trkpt><trkpt lat="43.5633096" lon="12.4612978"><ele>543.0</ele><time>2026-05-02T10:02:33.314Z</time></trkpt><trkpt lat="43.5631276" lon="12.4612376"><ele>547.3333333333334</ele><time>2026-05-02T10:02:34.313Z</time></trkpt><trkpt lat="43.5629573" lon="12.4611672"><ele>551.6666666666667</ele><time>2026-05-02T10:02:35.312Z</time></trkpt><trkpt lat="43.5627979" lon="12.4610569"><ele>556.0</ele><time>2026-05-02T10:02:36.314Z</time></trkpt><trkpt lat="43.5626522" lon="12.46091"><ele>556.0</ele><time>2026-05-02T10:02:37.315Z</time></trkpt><trkpt lat="43.5625001" lon="12.4607485"><ele>556.0</ele><time>2026-05-02T10:02:38.315Z</time></trkpt><trkpt lat="43.5623355" lon="12.4605893"><ele>556.0</ele><time>2026-05-02T10:02:39.313Z</time></trkpt><trkpt lat="43.5621838" lon="12.46043"><ele>560.0</ele><time>2026-05-02T10:02:40.313Z</time></trkpt><trkpt lat="43.5620401" lon="12.460291"><ele>564.0</ele><time>2026-05-02T10:02:41.314Z</time></trkpt><trkpt lat="43.5619105" lon="12.4601638"><ele>568.0</ele><time>2026-05-02T10:02:42.315Z</time></trkpt><trkpt lat="43.5617715" lon="12.4600607"><ele>568.0</ele><time>2026-05-02T10:02:43.313Z</time></trkpt><trkpt lat="43.5616138" lon="12.4600035"><ele>568.0</ele><time>2026-05-02T10:02:44.316Z</time></trkpt><trkpt lat="43.5614413" lon="12.4599888"><ele>568.0</ele><time>2026-05-02T10:02:45.314Z</time></trkpt><trkpt lat="43.5612589" lon="12.4599929"><ele>569.0</ele><time>2026-05-02T10:02:46.314Z</time></trkpt><trkpt lat="43.5610576" lon="12.4599828"><ele>570.0</ele><time>2026-05-02T10:02:47.314Z</time></trkpt><trkpt lat="43.5608621" lon="12.4599614"><ele>571.0</ele><time>2026-05-02T10:02:48.312Z</time></trkpt><trkpt lat="43.5606732" lon="12.4599548"><ele>571.0</ele><time>2026-05-02T10:02:49.313Z</time></trkpt><trkpt lat="43.5604978" lon="12.4599638"><ele>571.0</ele><time>2026-05-02T10:02:50.312Z</time></trkpt><trkpt lat="43.5603361" lon="12.4599839"><ele>571.0</ele><time>2026-05-02T10:02:51.314Z</time></trkpt><trkpt lat="43.5601923" lon="12.4600072"><ele>573.25</ele><time>2026-05-02T10:02:52.315Z</time></trkpt><trkpt lat="43.5600577" lon="12.4600209"><ele>575.5</ele><time>2026-05-02T10:02:53.316Z</time></trkpt><trkpt lat="43.5599347" lon="12.4600363"><ele>577.75</ele><time>2026-05-02T10:02:54.313Z</time></trkpt><trkpt lat="43.5598172" lon="12.4600424"><ele>580.0</ele><time>2026-05-02T10:02:55.314Z</time></trkpt><trkpt lat="43.5597022" lon="12.460054"><ele>580.0</ele><time>2026-05-02T10:02:56.314Z</time></trkpt><trkpt lat="43.5595882" lon="12.4600569"><ele>580.0</ele><time>2026-05-02T10:02:57.313Z</time></trkpt><trkpt lat="43.5594714" lon="12.4600428"><ele>580.0</ele><time>2026-05-02T10:02:58.315Z</time></trkpt><trkpt lat="43.559357" lon="12.4600184"><ele>580.0</ele><time>2026-05-02T10:02:59.314Z</time></trkpt><trkpt lat="43.5592459" lon="12.4599898"><ele>580.6666666666667</ele><time>2026-05-02T10:03:00.315Z</time></trkpt><trkpt lat="43.5591489" lon="12.4599545"><ele>581.3333333333334</ele><time>2026-05-02T10:03:01.313Z</time></trkpt><trkpt lat="43.5590611" lon="12.4599199"><ele>582.0</ele><time>2026-05-02T10:03:02.315Z</time></trkpt><trkpt lat="43.5589785" lon="12.4599116"><ele>582.6666666666666</ele><time>2026-05-02T10:03:03.315Z</time></trkpt><trkpt lat="43.558901" lon="12.4599498"><ele>583.3333333333333</ele><time>2026-05-02T10:03:04.314Z</time></trkpt><trkpt lat="43.5588241" lon="12.4600186"><ele>584.0</ele><time>2026-05-02T10:03:05.313Z</time></trkpt><trkpt lat="43.558755" lon="12.4600721"><ele>584.0</ele><time>2026-05-02T10:03:06.389Z</time></trkpt><trkpt lat="43.5587019" lon="12.4601819"><ele>584.0</ele><time>2026-05-02T10:03:07.314Z</time></trkpt><trkpt lat="43.5586512" lon="12.4602802"><ele>584.0</ele><time>2026-05-02T10:03:08.311Z</time></trkpt><trkpt lat="43.5586332" lon="12.460396"><ele>584.0</ele><time>2026-05-02T10:03:09.312Z</time></trkpt><trkpt lat="43.558659" lon="12.4604988"><ele>584.0</ele><time>2026-05-02T10:03:10.313Z</time></trkpt><trkpt lat="43.5586967" lon="12.4606064"><ele>584.0</ele><time>2026-05-02T10:03:11.311Z</time></trkpt><trkpt lat="43.5587367" lon="12.4607266"><ele>583.4</ele><time>2026-05-02T10:03:12.313Z</time></trkpt><trkpt lat="43.5587816" lon="12.4608516"><ele>582.8</ele><time>2026-05-02T10:03:13.312Z</time></trkpt><trkpt lat="43.5588208" lon="12.460991"><ele>582.2</ele><time>2026-05-02T10:03:14.314Z</time></trkpt><trkpt lat="43.5588651" lon="12.4611415"><ele>581.6</ele><time>2026-05-02T10:03:15.314Z</time></trkpt><trkpt lat="43.5589092" lon="12.4612931"><ele>581.0</ele><time>2026-05-02T10:03:16.316Z</time></trkpt><trkpt lat="43.5589543" lon="12.4614437"><ele>582.5</ele><time>2026-05-02T10:03:17.311Z</time></trkpt><trkpt lat="43.5590022" lon="12.4615928"><ele>584.0</ele><time>2026-05-02T10:03:18.314Z</time></trkpt><trkpt lat="43.5590491" lon="12.4617319"><ele>585.5</ele><time>2026-05-02T10:03:19.314Z</time></trkpt><trkpt lat="43.5590947" lon="12.4618749"><ele>587.0</ele><time>2026-05-02T10:03:20.314Z</time></trkpt><trkpt lat="43.5591339" lon="12.4620221"><ele>588.5</ele><time>2026-05-02T10:03:21.313Z</time></trkpt><trkpt lat="43.5591601" lon="12.4621645"><ele>590.0</ele><time>2026-05-02T10:03:22.314Z</time></trkpt><trkpt lat="43.55918" lon="12.4623262"><ele>591.5</ele><time>2026-05-02T10:03:23.315Z</time></trkpt><trkpt lat="43.5591963" lon="12.4624919"><ele>593.0</ele><time>2026-05-02T10:03:24.313Z</time></trkpt><trkpt lat="43.5592078" lon="12.4626582"><ele>593.0</ele><time>2026-05-02T10:03:25.312Z</time></trkpt><trkpt lat="43.5592184" lon="12.4628264"><ele>593.0</ele><time>2026-05-02T10:03:26.311Z</time></trkpt><trkpt lat="43.5592259" lon="12.4629926"><ele>593.0</ele><time>2026-05-02T10:03:27.315Z</time></trkpt><trkpt lat="43.5592358" lon="12.4631571"><ele>593.0</ele><time>2026-05-02T10:03:28.316Z</time></trkpt><trkpt lat="43.5592464" lon="12.4633152"><ele>594.4</ele><time>2026-05-02T10:03:29.316Z</time></trkpt><trkpt lat="43.5592541" lon="12.4634703"><ele>595.8</ele><time>2026-05-02T10:03:30.317Z</time></trkpt><trkpt lat="43.5592565" lon="12.4636214"><ele>597.2</ele><time>2026-05-02T10:03:31.316Z</time></trkpt><trkpt lat="43.559249" lon="12.4637653"><ele>598.6</ele><time>2026-05-02T10:03:32.317Z</time></trkpt><trkpt lat="43.55924" lon="12.4639206"><ele>600.0</ele><time>2026-05-02T10:03:33.302Z</time></trkpt><trkpt lat="43.5592157" lon="12.4641178"><ele>601.3333333333334</ele><time>2026-05-02T10:03:34.317Z</time></trkpt><trkpt lat="43.5591792" lon="12.4643303"><ele>602.6666666666667</ele><time>2026-05-02T10:03:35.317Z</time></trkpt><trkpt lat="43.5591075" lon="12.4645774"><ele>604.0</ele><time>2026-05-02T10:03:36.317Z</time></trkpt><trkpt lat="43.5590239" lon="12.4648508"><ele>604.0</ele><time>2026-05-02T10:03:37.314Z</time></trkpt><trkpt lat="43.5589406" lon="12.4651459"><ele>604.0</ele><time>2026-05-02T10:03:38.316Z</time></trkpt><trkpt lat="43.5588498" lon="12.4654615"><ele>600.5</ele><time>2026-05-02T10:03:39.315Z</time></trkpt><trkpt lat="43.5587447" lon="12.4657766"><ele>597.0</ele><time>2026-05-02T10:03:40.317Z</time></trkpt><trkpt lat="43.558635" lon="12.4660416"><ele>602.3333333333334</ele><time>2026-05-02T10:03:41.314Z</time></trkpt><trkpt lat="43.5585107" lon="12.4662802"><ele>607.6666666666667</ele><time>2026-05-02T10:03:42.316Z</time></trkpt><trkpt lat="43.5583678" lon="12.4665184"><ele>613.0</ele><time>2026-05-02T10:03:43.319Z</time></trkpt><trkpt lat="43.558231" lon="12.4667651"><ele>613.0</ele><time>2026-05-02T10:03:44.318Z</time></trkpt><trkpt lat="43.5580818" lon="12.4670123"><ele>613.0</ele><time>2026-05-02T10:03:45.313Z</time></trkpt><trkpt lat="43.5579265" lon="12.4672395"><ele>617.5</ele><time>2026-05-02T10:03:46.315Z</time></trkpt><trkpt lat="43.5577736" lon="12.4675165"><ele>622.0</ele><time>2026-05-02T10:03:47.317Z</time></trkpt><trkpt lat="43.557626" lon="12.4677876"><ele>621.5</ele><time>2026-05-02T10:03:48.343Z</time></trkpt><trkpt lat="43.5574831" lon="12.4680717"><ele>621.0</ele><time>2026-05-02T10:03:49.313Z</time></trkpt><trkpt lat="43.5573466" lon="12.4683927"><ele>621.0</ele><time>2026-05-02T10:03:50.316Z</time></trkpt><trkpt lat="43.5572219" lon="12.4687288"><ele>621.0</ele><time>2026-05-02T10:03:51.316Z</time></trkpt><trkpt lat="43.5571141" lon="12.4690677"><ele>629.5</ele><time>2026-05-02T10:03:52.318Z</time></trkpt><trkpt lat="43.5570274" lon="12.46942"><ele>638.0</ele><time>2026-05-02T10:03:53.314Z</time></trkpt><trkpt lat="43.5569553" lon="12.469757"><ele>638.0</ele><time>2026-05-02T10:03:54.318Z</time></trkpt><trkpt lat="43.5568847" lon="12.4700861"><ele>638.0</ele><time>2026-05-02T10:03:55.442Z</time></trkpt><trkpt lat="43.5567601" lon="12.4706724"><ele>637.6666666666666</ele><time>2026-05-02T10:03:57.317Z</time></trkpt><trkpt lat="43.5567305" lon="12.4709406"><ele>637.3333333333334</ele><time>2026-05-02T10:03:58.317Z</time></trkpt><trkpt lat="43.5567148" lon="12.4712271"><ele>637.0</ele><time>2026-05-02T10:03:59.316Z</time></trkpt><trkpt lat="43.5567304" lon="12.4715178"><ele>638.0</ele><time>2026-05-02T10:04:00.322Z</time></trkpt><trkpt lat="43.556773" lon="12.4718105"><ele>639.0</ele><time>2026-05-02T10:04:01.315Z</time></trkpt><trkpt lat="43.5568356" lon="12.4720778"><ele>640.0</ele><time>2026-05-02T10:04:02.315Z</time></trkpt><trkpt lat="43.5569142" lon="12.4723278"><ele>644.0</ele><time>2026-05-02T10:04:03.316Z</time></trkpt><trkpt lat="43.5569625" lon="12.4725567"><ele>648.0</ele><time>2026-05-02T10:04:04.314Z</time></trkpt><trkpt lat="43.5569909" lon="12.4727909"><ele>652.0</ele><time>2026-05-02T10:04:05.317Z</time></trkpt><trkpt lat="43.5569632" lon="12.4730481"><ele>654.3333333333334</ele><time>2026-05-02T10:04:06.316Z</time></trkpt><trkpt lat="43.5569483" lon="12.4733426"><ele>656.6666666666666</ele><time>2026-05-02T10:04:07.318Z</time></trkpt><trkpt lat="43.5569053" lon="12.4736467"><ele>659.0</ele><time>2026-05-02T10:04:08.313Z</time></trkpt><trkpt lat="43.5568506" lon="12.4739389"><ele>661.3333333333333</ele><time>2026-05-02T10:04:09.317Z</time></trkpt><trkpt lat="43.5568115" lon="12.4742206"><ele>663.6666666666666</ele><time>2026-05-02T10:04:10.316Z</time></trkpt><trkpt lat="43.5567749" lon="12.4744778"><ele>666.0</ele><time>2026-05-02T10:04:11.325Z</time></trkpt><trkpt lat="43.5567433" lon="12.4747015"><ele>666.0</ele><time>2026-05-02T10:04:12.316Z</time></trkpt><trkpt lat="43.556706" lon="12.4749057"><ele>666.0</ele><time>2026-05-02T10:04:13.315Z</time></trkpt><trkpt lat="43.5566328" lon="12.4750724"><ele>666.0</ele><time>2026-05-02T10:04:14.316Z</time></trkpt><trkpt lat="43.5565558" lon="12.4752193"><ele>666.0</ele><time>2026-05-02T10:04:15.316Z</time></trkpt><trkpt lat="43.5564365" lon="12.4752654"><ele>666.0</ele><time>2026-05-02T10:04:16.313Z</time></trkpt><trkpt lat="43.5563226" lon="12.475327"><ele>666.0</ele><time>2026-05-02T10:04:17.318Z</time></trkpt><trkpt lat="43.5561885" lon="12.4753821"><ele>666.0</ele><time>2026-05-02T10:04:18.315Z</time></trkpt><trkpt lat="43.5560379" lon="12.4754298"><ele>666.0</ele><time>2026-05-02T10:04:19.315Z</time></trkpt><trkpt lat="43.5558328" lon="12.4755517"><ele>666.5</ele><time>2026-05-02T10:04:20.32Z</time></trkpt><trkpt lat="43.5556156" lon="12.4756523"><ele>667.0</ele><time>2026-05-02T10:04:21.317Z</time></trkpt><trkpt lat="43.5553827" lon="12.4757702"><ele>676.5</ele><time>2026-05-02T10:04:22.319Z</time></trkpt><trkpt lat="43.5551401" lon="12.4758989"><ele>686.0</ele><time>2026-05-02T10:04:23.315Z</time></trkpt><trkpt lat="43.5549097" lon="12.4759952"><ele>686.0</ele><time>2026-05-02T10:04:24.315Z</time></trkpt><trkpt lat="43.5546742" lon="12.4760749"><ele>686.0</ele><time>2026-05-02T10:04:25.316Z</time></trkpt><trkpt lat="43.5544406" lon="12.4761032"><ele>684.0</ele><time>2026-05-02T10:04:26.316Z</time></trkpt><trkpt lat="43.5542028" lon="12.4761505"><ele>682.0</ele><time>2026-05-02T10:04:27.316Z</time></trkpt><trkpt lat="43.5540188" lon="12.4762061"><ele>680.0</ele><time>2026-05-02T10:04:28.317Z</time></trkpt><trkpt lat="43.5538301" lon="12.4763226"><ele>686.5</ele><time>2026-05-02T10:04:29.316Z</time></trkpt><trkpt lat="43.5536425" lon="12.4764755"><ele>693.0</ele><time>2026-05-02T10:04:30.311Z</time></trkpt><trkpt lat="43.5534413" lon="12.4766402"><ele>693.0</ele><time>2026-05-02T10:04:31.314Z</time></trkpt><trkpt lat="43.5532222" lon="12.4769"><ele>693.0</ele><time>2026-05-02T10:04:32.318Z</time></trkpt><trkpt lat="43.5529917" lon="12.4771288"><ele>698.0</ele><time>2026-05-02T10:04:33.316Z</time></trkpt><trkpt lat="43.5527624" lon="12.4773661"><ele>703.0</ele><time>2026-05-02T10:04:34.315Z</time></trkpt><trkpt lat="43.5525495" lon="12.4775721"><ele>703.0</ele><time>2026-05-02T10:04:35.315Z</time></trkpt><trkpt lat="43.552431" lon="12.477774"><ele>703.0</ele><time>2026-05-02T10:04:36.318Z</time></trkpt><trkpt lat="43.5523178" lon="12.4779967"><ele>703.0</ele><time>2026-05-02T10:04:37.316Z</time></trkpt><trkpt lat="43.5522326" lon="12.4782691"><ele>700.0</ele><time>2026-05-02T10:04:38.317Z</time></trkpt><trkpt lat="43.5521495" lon="12.478576"><ele>697.0</ele><time>2026-05-02T10:04:39.315Z</time></trkpt><trkpt lat="43.5520563" lon="12.4788891"><ele>705.5</ele><time>2026-05-02T10:04:40.317Z</time></trkpt><trkpt lat="43.551916" lon="12.4792354"><ele>714.0</ele><time>2026-05-02T10:04:41.316Z</time></trkpt><trkpt lat="43.5517603" lon="12.4795606"><ele>712.5</ele><time>2026-05-02T10:04:42.315Z</time></trkpt><trkpt lat="43.5516149" lon="12.4798843"><ele>711.0</ele><time>2026-05-02T10:04:43.314Z</time></trkpt><trkpt lat="43.5514882" lon="12.4800968"><ele>711.0</ele><time>2026-05-02T10:04:44.316Z</time></trkpt><trkpt lat="43.5513692" lon="12.4803255"><ele>711.0</ele><time>2026-05-02T10:04:45.315Z</time></trkpt><trkpt lat="43.5512499" lon="12.480554"><ele>711.0</ele><time>2026-05-02T10:04:46.314Z</time></trkpt><trkpt lat="43.5511585" lon="12.4807578"><ele>711.0</ele><time>2026-05-02T10:04:47.318Z</time></trkpt><trkpt lat="43.5511898" lon="12.481006"><ele>711.0</ele><time>2026-05-02T10:04:48.317Z</time></trkpt><trkpt lat="43.5512064" lon="12.4812546"><ele>711.0</ele><time>2026-05-02T10:04:49.318Z</time></trkpt><trkpt lat="43.5512578" lon="12.481506"><ele>711.0</ele><time>2026-05-02T10:04:50.318Z</time></trkpt><trkpt lat="43.5512986" lon="12.4817372"><ele>711.0</ele><time>2026-05-02T10:04:51.316Z</time></trkpt><trkpt lat="43.551276" lon="12.4819647"><ele>711.0</ele><time>2026-05-02T10:04:52.316Z</time></trkpt><trkpt lat="43.5512652" lon="12.4821901"><ele>716.3333333333334</ele><time>2026-05-02T10:04:53.315Z</time></trkpt><trkpt lat="43.5512768" lon="12.4824089"><ele>721.6666666666667</ele><time>2026-05-02T10:04:54.314Z</time></trkpt><trkpt lat="43.5513544" lon="12.4825772"><ele>727.0</ele><time>2026-05-02T10:04:55.317Z</time></trkpt><trkpt lat="43.551528" lon="12.4827111"><ele>727.0</ele><time>2026-05-02T10:04:56.315Z</time></trkpt><trkpt lat="43.551683" lon="12.4828684"><ele>727.0</ele><time>2026-05-02T10:04:57.316Z</time></trkpt><trkpt lat="43.5518086" lon="12.4829957"><ele>727.0</ele><time>2026-05-02T10:04:58.313Z</time></trkpt><trkpt lat="43.5519019" lon="12.483161"><ele>725.6666666666667</ele><time>2026-05-02T10:04:59.343Z</time></trkpt><trkpt lat="43.5519615" lon="12.4833728"><ele>724.3333333333334</ele><time>2026-05-02T10:05:00.314Z</time></trkpt><trkpt lat="43.5520222" lon="12.4836281"><ele>723.0</ele><time>2026-05-02T10:05:01.318Z</time></trkpt><trkpt lat="43.5520931" lon="12.4839143"><ele>723.0</ele><time>2026-05-02T10:05:02.319Z</time></trkpt><trkpt lat="43.5521433" lon="12.4841775"><ele>723.0</ele><time>2026-05-02T10:05:03.319Z</time></trkpt><trkpt lat="43.5521922" lon="12.4844024"><ele>723.0</ele><time>2026-05-02T10:05:04.318Z</time></trkpt><trkpt lat="43.5522149" lon="12.4845993"><ele>728.75</ele><time>2026-05-02T10:05:05.318Z</time></trkpt><trkpt lat="43.552223" lon="12.4847873"><ele>734.5</ele><time>2026-05-02T10:05:06.339Z</time></trkpt><trkpt lat="43.5521669" lon="12.4849633"><ele>740.25</ele><time>2026-05-02T10:05:07.315Z</time></trkpt><trkpt lat="43.5520629" lon="12.4850957"><ele>746.0</ele><time>2026-05-02T10:05:08.313Z</time></trkpt><trkpt lat="43.551967" lon="12.4852251"><ele>747.0</ele><time>2026-05-02T10:05:09.337Z</time></trkpt><trkpt lat="43.5518145" lon="12.4853475"><ele>748.0</ele><time>2026-05-02T10:05:10.341Z</time></trkpt><trkpt lat="43.5514939" lon="12.4854544"><ele>748.0</ele><time>2026-05-02T10:05:11.316Z</time></trkpt><trkpt lat="43.5512581" lon="12.4855923"><ele>748.0</ele><time>2026-05-02T10:05:12.312Z</time></trkpt><trkpt lat="43.5510114" lon="12.4857249"><ele>748.5</ele><time>2026-05-02T10:05:13.315Z</time></trkpt><trkpt lat="43.5507589" lon="12.4858722"><ele>749.0</ele><time>2026-05-02T10:05:14.316Z</time></trkpt><trkpt lat="43.5505203" lon="12.486007"><ele>750.0</ele><time>2026-05-02T10:05:15.317Z</time></trkpt><trkpt lat="43.5502876" lon="12.4861351"><ele>751.0</ele><time>2026-05-02T10:05:16.315Z</time></trkpt><trkpt lat="43.5500489" lon="12.4862613"><ele>753.5</ele><time>2026-05-02T10:05:17.319Z</time></trkpt><trkpt lat="43.5498103" lon="12.4863869"><ele>756.0</ele><time>2026-05-02T10:05:18.344Z</time></trkpt><trkpt lat="43.5495783" lon="12.4865113"><ele>754.5</ele><time>2026-05-02T10:05:19.316Z</time></trkpt><trkpt lat="43.5493382" lon="12.4866438"><ele>753.0</ele><time>2026-05-02T10:05:20.315Z</time></trkpt><trkpt lat="43.5491008" lon="12.4867709"><ele>753.0</ele><time>2026-05-02T10:05:21.317Z</time></trkpt><trkpt lat="43.5488673" lon="12.4869069"><ele>753.0</ele><time>2026-05-02T10:05:22.316Z</time></trkpt><trkpt lat="43.548632" lon="12.4870363"><ele>754.5</ele><time>2026-05-02T10:05:23.317Z</time></trkpt><trkpt lat="43.5483987" lon="12.4871567"><ele>756.0</ele><time>2026-05-02T10:05:24.311Z</time></trkpt><trkpt lat="43.5481592" lon="12.4872833"><ele>756.0</ele><time>2026-05-02T10:05:25.312Z</time></trkpt><trkpt lat="43.5479229" lon="12.4874083"><ele>756.0</ele><time>2026-05-02T10:05:26.316Z</time></trkpt><trkpt lat="43.547703" lon="12.4875299"><ele>756.0</ele><time>2026-05-02T10:05:27.315Z</time></trkpt><trkpt lat="43.5474914" lon="12.4876462"><ele>756.0</ele><time>2026-05-02T10:05:28.314Z</time></trkpt><trkpt lat="43.5472697" lon="12.4877745"><ele>755.6666666666666</ele><time>2026-05-02T10:05:29.316Z</time></trkpt><trkpt lat="43.5470766" lon="12.4879327"><ele>755.3333333333333</ele><time>2026-05-02T10:05:30.315Z</time></trkpt><trkpt lat="43.5468922" lon="12.4880882"><ele>755.0</ele><time>2026-05-02T10:05:31.315Z</time></trkpt><trkpt lat="43.546723" lon="12.4882539"><ele>756.0</ele><time>2026-05-02T10:05:32.316Z</time></trkpt><trkpt lat="43.5465625" lon="12.4884142"><ele>757.0</ele><time>2026-05-02T10:05:33.316Z</time></trkpt><trkpt lat="43.5464112" lon="12.4885769"><ele>758.0</ele><time>2026-05-02T10:05:34.315Z</time></trkpt><trkpt lat="43.546271" lon="12.4887316"><ele>761.0</ele><time>2026-05-02T10:05:35.316Z</time></trkpt><trkpt lat="43.5461437" lon="12.4888735"><ele>764.0</ele><time>2026-05-02T10:05:36.316Z</time></trkpt><trkpt lat="43.5460077" lon="12.4890031"><ele>767.0</ele><time>2026-05-02T10:05:37.316Z</time></trkpt><trkpt lat="43.545873" lon="12.4891328"><ele>767.0</ele><time>2026-05-02T10:05:38.316Z</time></trkpt><trkpt lat="43.5457359" lon="12.4892436"><ele>767.0</ele><time>2026-05-02T10:05:39.314Z</time></trkpt><trkpt lat="43.5455982" lon="12.4893242"><ele>767.0</ele><time>2026-05-02T10:05:40.316Z</time></trkpt><trkpt lat="43.5454736" lon="12.4894105"><ele>767.0</ele><time>2026-05-02T10:05:41.342Z</time></trkpt><trkpt lat="43.5453541" lon="12.4894805"><ele>767.75</ele><time>2026-05-02T10:05:42.313Z</time></trkpt><trkpt lat="43.5452525" lon="12.4895637"><ele>768.5</ele><time>2026-05-02T10:05:43.318Z</time></trkpt><trkpt lat="43.5451479" lon="12.4896345"><ele>769.25</ele><time>2026-05-02T10:05:44.313Z</time></trkpt><trkpt lat="43.5450441" lon="12.4896943"><ele>770.0</ele><time>2026-05-02T10:05:45.346Z</time></trkpt><trkpt lat="43.5449398" lon="12.489761"><ele>770.0</ele><time>2026-05-02T10:05:46.315Z</time></trkpt><trkpt lat="43.5448317" lon="12.4898344"><ele>770.0</ele><time>2026-05-02T10:05:47.314Z</time></trkpt><trkpt lat="43.5447415" lon="12.4898708"><ele>770.0</ele><time>2026-05-02T10:05:48.342Z</time></trkpt><trkpt lat="43.54463" lon="12.4899287"><ele>770.0</ele><time>2026-05-02T10:05:49.316Z</time></trkpt><trkpt lat="43.5445156" lon="12.4900308"><ele>770.0</ele><time>2026-05-02T10:05:50.316Z</time></trkpt><trkpt lat="43.5444253" lon="12.4900776"><ele>770.0</ele><time>2026-05-02T10:05:51.32Z</time></trkpt><trkpt lat="43.544343" lon="12.4901204"><ele>770.0</ele><time>2026-05-02T10:05:52.317Z</time></trkpt><trkpt lat="43.5442385" lon="12.4901646"><ele>770.0</ele><time>2026-05-02T10:05:53.316Z</time></trkpt><trkpt lat="43.5441356" lon="12.4902239"><ele>770.0</ele><time>2026-05-02T10:05:54.315Z</time></trkpt><trkpt lat="43.5440635" lon="12.4902752"><ele>770.0000000000001</ele><time>2026-05-02T10:05:56.318Z</time></trkpt><trkpt lat="43.544015" lon="12.4903436"><ele>770.0</ele><time>2026-05-02T10:05:57.315Z</time></trkpt><trkpt lat="43.5440643" lon="12.4904844"><ele>770.0</ele><time>2026-05-02T10:05:59.317Z</time></trkpt><trkpt lat="43.5440893" lon="12.4905726"><ele>770.0</ele><time>2026-05-02T10:06:00.314Z</time></trkpt><trkpt lat="43.5441333" lon="12.490643"><ele>770.0000000000001</ele><time>2026-05-02T10:06:01.316Z</time></trkpt><trkpt lat="43.5441952" lon="12.4907289"><ele>770.0</ele><time>2026-05-02T10:06:02.318Z</time></trkpt><trkpt lat="43.5442336" lon="12.4908357"><ele>770.8</ele><time>2026-05-02T10:06:03.316Z</time></trkpt><trkpt lat="43.5442828" lon="12.490964"><ele>771.6</ele><time>2026-05-02T10:06:04.318Z</time></trkpt><trkpt lat="43.5443423" lon="12.4910926"><ele>772.4000000000001</ele><time>2026-05-02T10:06:05.315Z</time></trkpt><trkpt lat="43.5443717" lon="12.4912189"><ele>773.2</ele><time>2026-05-02T10:06:06.317Z</time></trkpt><trkpt lat="43.5444274" lon="12.4913194"><ele>774.0</ele><time>2026-05-02T10:06:07.316Z</time></trkpt><trkpt lat="43.5444903" lon="12.4913943"><ele>776.6</ele><time>2026-05-02T10:06:08.316Z</time></trkpt><trkpt lat="43.5445544" lon="12.4914661"><ele>779.2</ele><time>2026-05-02T10:06:09.312Z</time></trkpt><trkpt lat="43.5446145" lon="12.4915268"><ele>781.8000000000001</ele><time>2026-05-02T10:06:10.318Z</time></trkpt><trkpt lat="43.5446787" lon="12.4915849"><ele>784.4000000000001</ele><time>2026-05-02T10:06:11.317Z</time></trkpt><trkpt lat="43.5448052" lon="12.4916124"><ele>787.0</ele><time>2026-05-02T10:06:12.316Z</time></trkpt><trkpt lat="43.5449652" lon="12.491609"><ele>787.0</ele><time>2026-05-02T10:06:13.315Z</time></trkpt><trkpt lat="43.5451477" lon="12.4915218"><ele>787.0</ele><time>2026-05-02T10:06:14.316Z</time></trkpt><trkpt lat="43.545325" lon="12.4913859"><ele>787.0</ele><time>2026-05-02T10:06:15.318Z</time></trkpt><trkpt lat="43.5455018" lon="12.4914244"><ele>792.3333333333333</ele><time>2026-05-02T10:06:16.318Z</time></trkpt><trkpt lat="43.5456678" lon="12.4914542"><ele>797.6666666666667</ele><time>2026-05-02T10:06:17.314Z</time></trkpt><trkpt lat="43.5458504" lon="12.4914743"><ele>803.0</ele><time>2026-05-02T10:06:18.316Z</time></trkpt><trkpt lat="43.5460314" lon="12.4914953"><ele>803.0</ele><time>2026-05-02T10:06:19.317Z</time></trkpt><trkpt lat="43.5462046" lon="12.4915219"><ele>803.0</ele><time>2026-05-02T10:06:20.317Z</time></trkpt><trkpt lat="43.5463719" lon="12.4915437"><ele>803.0</ele><time>2026-05-02T10:06:21.315Z</time></trkpt><trkpt lat="43.5465454" lon="12.4915694"><ele>804.6666666666667</ele><time>2026-05-02T10:06:22.317Z</time></trkpt><trkpt lat="43.5467232" lon="12.491575"><ele>806.3333333333333</ele><time>2026-05-02T10:06:23.317Z</time></trkpt><trkpt lat="43.5469263" lon="12.4915671"><ele>808.0</ele><time>2026-05-02T10:06:24.317Z</time></trkpt><trkpt lat="43.5471373" lon="12.4915191"><ele>803.0</ele><time>2026-05-02T10:06:25.423Z</time></trkpt><trkpt lat="43.5475229" lon="12.491316"><ele>798.0</ele><time>2026-05-02T10:06:27.318Z</time></trkpt><trkpt lat="43.5477176" lon="12.4911679"><ele>808.0</ele><time>2026-05-02T10:06:28.322Z</time></trkpt><trkpt lat="43.5479139" lon="12.4909553"><ele>818.0</ele><time>2026-05-02T10:06:29.315Z</time></trkpt><trkpt lat="43.5481165" lon="12.490779"><ele>818.0</ele><time>2026-05-02T10:06:30.318Z</time></trkpt><trkpt lat="43.548316" lon="12.4906265"><ele>818.0</ele><time>2026-05-02T10:06:31.314Z</time></trkpt><trkpt lat="43.5485029" lon="12.4905104"><ele>818.0</ele><time>2026-05-02T10:06:32.314Z</time></trkpt><trkpt lat="43.5486932" lon="12.4903346"><ele>817.5</ele><time>2026-05-02T10:06:33.314Z</time></trkpt><trkpt lat="43.5488768" lon="12.4901567"><ele>817.0</ele><time>2026-05-02T10:06:34.312Z</time></trkpt><trkpt lat="43.5490824" lon="12.4899555"><ele>817.0</ele><time>2026-05-02T10:06:35.313Z</time></trkpt><trkpt lat="43.549279" lon="12.4898092"><ele>817.0</ele><time>2026-05-02T10:06:36.312Z</time></trkpt><trkpt lat="43.5494426" lon="12.4896867"><ele>817.0</ele><time>2026-05-02T10:06:37.314Z</time></trkpt><trkpt lat="43.5495849" lon="12.4895956"><ele>817.6</ele><time>2026-05-02T10:06:38.313Z</time></trkpt><trkpt lat="43.5497208" lon="12.4895465"><ele>818.2</ele><time>2026-05-02T10:06:39.312Z</time></trkpt><trkpt lat="43.5497884" lon="12.4896322"><ele>818.8</ele><time>2026-05-02T10:06:40.312Z</time></trkpt><trkpt lat="43.5498443" lon="12.4897204"><ele>819.4</ele><time>2026-05-02T10:06:41.314Z</time></trkpt><trkpt lat="43.5498541" lon="12.489849"><ele>820.0</ele><time>2026-05-02T10:06:42.314Z</time></trkpt><trkpt lat="43.5498519" lon="12.4899827"><ele>820.0</ele><time>2026-05-02T10:06:43.316Z</time></trkpt><trkpt lat="43.5497149" lon="12.4899673"><ele>820.0</ele><time>2026-05-02T10:06:44.318Z</time></trkpt><trkpt lat="43.5496316" lon="12.48994"><ele>820.0</ele><time>2026-05-02T10:06:45.315Z</time></trkpt><trkpt lat="43.5495256" lon="12.4899008"><ele>820.0</ele><time>2026-05-02T10:06:46.316Z</time></trkpt><trkpt lat="43.5494224" lon="12.4899297"><ele>820.0</ele><time>2026-05-02T10:06:47.311Z</time></trkpt><trkpt lat="43.5493465" lon="12.4900256"><ele>819.25</ele><time>2026-05-02T10:06:48.336Z</time></trkpt><trkpt lat="43.5492753" lon="12.4901238"><ele>818.5</ele><time>2026-05-02T10:06:49.311Z</time></trkpt><trkpt lat="43.5492676" lon="12.4902595"><ele>817.75</ele><time>2026-05-02T10:06:50.316Z</time></trkpt><trkpt lat="43.549305" lon="12.4904064"><ele>817.0</ele><time>2026-05-02T10:06:51.317Z</time></trkpt><trkpt lat="43.5495283" lon="12.4903654"><ele>822.0</ele><time>2026-05-02T10:06:52.318Z</time></trkpt><trkpt lat="43.5496243" lon="12.4904366"><ele>827.0</ele><time>2026-05-02T10:06:53.317Z</time></trkpt><trkpt lat="43.549721" lon="12.4904889"><ele>832.0</ele><time>2026-05-02T10:06:54.342Z</time></trkpt><trkpt lat="43.5497914" lon="12.4905714"><ele>837.0</ele><time>2026-05-02T10:06:55.316Z</time></trkpt><trkpt lat="43.5497977" lon="12.4907403"><ele>842.0</ele><time>2026-05-02T10:06:56.314Z</time></trkpt><trkpt lat="43.5497952" lon="12.490847"><ele>842.0</ele><time>2026-05-02T10:06:57.315Z</time></trkpt><trkpt lat="43.549511" lon="12.4906614"><ele>842.0</ele><time>2026-05-02T10:06:59.319Z</time></trkpt><trkpt lat="43.5493896" lon="12.4905965"><ele>842.0</ele><time>2026-05-02T10:07:00.313Z</time></trkpt><trkpt lat="43.5492708" lon="12.4905246"><ele>842.0</ele><time>2026-05-02T10:07:01.318Z</time></trkpt><trkpt lat="43.5491742" lon="12.4906472"><ele>842.0</ele><time>2026-05-02T10:07:02.317Z</time></trkpt><trkpt lat="43.5491133" lon="12.490756"><ele>842.0</ele><time>2026-05-02T10:07:03.315Z</time></trkpt><trkpt lat="43.5490482" lon="12.4908521"><ele>842.0</ele><time>2026-05-02T10:07:04.315Z</time></trkpt><trkpt lat="43.5490897" lon="12.4909952"><ele>842.0</ele><time>2026-05-02T10:07:05.317Z</time></trkpt><trkpt lat="43.5491383" lon="12.491114"><ele>842.0</ele><time>2026-05-02T10:07:06.318Z</time></trkpt><trkpt lat="43.5492114" lon="12.4911929"><ele>842.0</ele><time>2026-05-02T10:07:07.32Z</time></trkpt><trkpt lat="43.549348" lon="12.4912397"><ele>842.0</ele><time>2026-05-02T10:07:08.314Z</time></trkpt><trkpt lat="43.5497329" lon="12.4912026"><ele>858.0</ele><time>2026-05-02T10:07:09.317Z</time></trkpt><trkpt lat="43.5499833" lon="12.4912813"><ele>874.0</ele><time>2026-05-02T10:07:10.316Z</time></trkpt><trkpt lat="43.5502401" lon="12.4914039"><ele>867.5</ele><time>2026-05-02T10:07:11.317Z</time></trkpt><trkpt lat="43.5504924" lon="12.4915631"><ele>861.0</ele><time>2026-05-02T10:07:12.315Z</time></trkpt><trkpt lat="43.5507141" lon="12.491731"><ele>861.0</ele><time>2026-05-02T10:07:13.317Z</time></trkpt><trkpt lat="43.5509339" lon="12.4918822"><ele>861.0</ele><time>2026-05-02T10:07:14.315Z</time></trkpt><trkpt lat="43.5511603" lon="12.4919884"><ele>860.0</ele><time>2026-05-02T10:07:15.317Z</time></trkpt><trkpt lat="43.5513881" lon="12.4920422"><ele>859.0</ele><time>2026-05-02T10:07:16.316Z</time></trkpt><trkpt lat="43.5516322" lon="12.4920547"><ele>859.0</ele><time>2026-05-02T10:07:17.317Z</time></trkpt><trkpt lat="43.5518798" lon="12.4920857"><ele>859.0</ele><time>2026-05-02T10:07:18.316Z</time></trkpt><trkpt lat="43.5520906" lon="12.4920651"><ele>863.6666666666666</ele><time>2026-05-02T10:07:19.313Z</time></trkpt><trkpt lat="43.5522653" lon="12.4920502"><ele>868.3333333333333</ele><time>2026-05-02T10:07:20.316Z</time></trkpt><trkpt lat="43.5524786" lon="12.4920275"><ele>873.0</ele><time>2026-05-02T10:07:21.342Z</time></trkpt><trkpt lat="43.552678" lon="12.4920041"><ele>878.6666666666667</ele><time>2026-05-02T10:07:22.315Z</time></trkpt><trkpt lat="43.5528824" lon="12.4919401"><ele>884.3333333333334</ele><time>2026-05-02T10:07:23.314Z</time></trkpt><trkpt lat="43.5530756" lon="12.4918456"><ele>890.0</ele><time>2026-05-02T10:07:24.31Z</time></trkpt><trkpt lat="43.5532578" lon="12.491599"><ele>890.0</ele><time>2026-05-02T10:07:25.313Z</time></trkpt><trkpt lat="43.5534205" lon="12.491466"><ele>890.0</ele><time>2026-05-02T10:07:26.313Z</time></trkpt><trkpt lat="43.553586" lon="12.4913233"><ele>890.0</ele><time>2026-05-02T10:07:27.313Z</time></trkpt><trkpt lat="43.5537365" lon="12.4912242"><ele>886.6666666666667</ele><time>2026-05-02T10:07:28.312Z</time></trkpt><trkpt lat="43.5538912" lon="12.4911761"><ele>883.3333333333333</ele><time>2026-05-02T10:07:29.314Z</time></trkpt><trkpt lat="43.5540534" lon="12.4911729"><ele>880.0</ele><time>2026-05-02T10:07:30.317Z</time></trkpt><trkpt lat="43.554204" lon="12.4912248"><ele>883.3333333333333</ele><time>2026-05-02T10:07:31.318Z</time></trkpt><trkpt lat="43.5543548" lon="12.4913353"><ele>886.6666666666667</ele><time>2026-05-02T10:07:32.316Z</time></trkpt><trkpt lat="43.5544938" lon="12.491483"><ele>890.0</ele><time>2026-05-02T10:07:33.317Z</time></trkpt><trkpt lat="43.5545933" lon="12.4916496"><ele>890.0</ele><time>2026-05-02T10:07:34.318Z</time></trkpt><trkpt lat="43.5546561" lon="12.4918287"><ele>890.0</ele><time>2026-05-02T10:07:35.317Z</time></trkpt><trkpt lat="43.5546848" lon="12.4920322"><ele>890.0</ele><time>2026-05-02T10:07:36.317Z</time></trkpt><trkpt lat="43.5546688" lon="12.492253"><ele>894.25</ele><time>2026-05-02T10:07:37.32Z</time></trkpt><trkpt lat="43.554633" lon="12.4924526"><ele>898.5</ele><time>2026-05-02T10:07:38.315Z</time></trkpt><trkpt lat="43.5545867" lon="12.4926225"><ele>902.75</ele><time>2026-05-02T10:07:39.318Z</time></trkpt><trkpt lat="43.5545355" lon="12.492778"><ele>907.0</ele><time>2026-05-02T10:07:40.315Z</time></trkpt><trkpt lat="43.5545116" lon="12.4929217"><ele>910.4000000000001</ele><time>2026-05-02T10:07:41.316Z</time></trkpt><trkpt lat="43.5545448" lon="12.4930431"><ele>913.8000000000001</ele><time>2026-05-02T10:07:42.317Z</time></trkpt><trkpt lat="43.5546072" lon="12.4931293"><ele>917.2</ele><time>2026-05-02T10:07:43.318Z</time></trkpt><trkpt lat="43.5546972" lon="12.4931627"><ele>920.6</ele><time>2026-05-02T10:07:44.317Z</time></trkpt><trkpt lat="43.5547881" lon="12.4931202"><ele>924.0</ele><time>2026-05-02T10:07:45.316Z</time></trkpt><trkpt lat="43.5548778" lon="12.4930452"><ele>924.0</ele><time>2026-05-02T10:07:46.317Z</time></trkpt><trkpt lat="43.5549651" lon="12.4929395"><ele>924.0000000000001</ele><time>2026-05-02T10:07:47.318Z</time></trkpt><trkpt lat="43.5549968" lon="12.4927326"><ele>924.0000000000001</ele><time>2026-05-02T10:07:48.314Z</time></trkpt><trkpt lat="43.5550775" lon="12.4926529"><ele>924.0</ele><time>2026-05-02T10:07:49.314Z</time></trkpt><trkpt lat="43.5551549" lon="12.4926232"><ele>924.0</ele><time>2026-05-02T10:07:50.317Z</time></trkpt><trkpt lat="43.555239" lon="12.4926634"><ele>924.0</ele><time>2026-05-02T10:07:51.314Z</time></trkpt><trkpt lat="43.5552893" lon="12.4927584"><ele>924.0000000000001</ele><time>2026-05-02T10:07:52.311Z</time></trkpt><trkpt lat="43.5552909" lon="12.4928771"><ele>924.0000000000001</ele><time>2026-05-02T10:07:53.308Z</time></trkpt><trkpt lat="43.5552402" lon="12.4929843"><ele>924.0</ele><time>2026-05-02T10:07:54.312Z</time></trkpt><trkpt lat="43.5551321" lon="12.4930626"><ele>924.0</ele><time>2026-05-02T10:07:55.309Z</time></trkpt><trkpt lat="43.5549873" lon="12.4931827"><ele>924.0</ele><time>2026-05-02T10:07:56.311Z</time></trkpt><trkpt lat="43.5548475" lon="12.4933413"><ele>924.0</ele><time>2026-05-02T10:07:57.312Z</time></trkpt><trkpt lat="43.5547" lon="12.4935034"><ele>924.0</ele><time>2026-05-02T10:07:58.313Z</time></trkpt><trkpt lat="43.5545684" lon="12.4936231"><ele>925.75</ele><time>2026-05-02T10:07:59.311Z</time></trkpt><trkpt lat="43.5544449" lon="12.4936859"><ele>927.5</ele><time>2026-05-02T10:08:00.312Z</time></trkpt><trkpt lat="43.5543213" lon="12.4936719"><ele>929.25</ele><time>2026-05-02T10:08:01.315Z</time></trkpt><trkpt lat="43.554212" lon="12.4936003"><ele>931.0</ele><time>2026-05-02T10:08:02.312Z</time></trkpt><trkpt lat="43.5541289" lon="12.4934829"><ele>931.0</ele><time>2026-05-02T10:08:03.313Z</time></trkpt><trkpt lat="43.5540929" lon="12.4933165"><ele>931.0</ele><time>2026-05-02T10:08:04.312Z</time></trkpt><trkpt lat="43.5540907" lon="12.4931454"><ele>931.0</ele><time>2026-05-02T10:08:05.312Z</time></trkpt><trkpt lat="43.5541117" lon="12.4929658"><ele>931.0</ele><time>2026-05-02T10:08:06.312Z</time></trkpt><trkpt lat="43.5541206" lon="12.4928004"><ele>929.0</ele><time>2026-05-02T10:08:07.308Z</time></trkpt><trkpt lat="43.5540982" lon="12.4926622"><ele>926.9999999999999</ele><time>2026-05-02T10:08:08.311Z</time></trkpt><trkpt lat="43.5540318" lon="12.49257"><ele>924.9999999999999</ele><time>2026-05-02T10:08:09.311Z</time></trkpt><trkpt lat="43.553937" lon="12.49254"><ele>923.0</ele><time>2026-05-02T10:08:10.312Z</time></trkpt><trkpt lat="43.5538457" lon="12.4925794"><ele>921.0</ele><time>2026-05-02T10:08:11.312Z</time></trkpt><trkpt lat="43.5537801" lon="12.4926689"><ele>921.0</ele><time>2026-05-02T10:08:12.312Z</time></trkpt><trkpt lat="43.5537667" lon="12.4927864"><ele>920.9999999999999</ele><time>2026-05-02T10:08:13.308Z</time></trkpt><trkpt lat="43.5538025" lon="12.4929244"><ele>920.9999999999999</ele><time>2026-05-02T10:08:14.311Z</time></trkpt><trkpt lat="43.5538494" lon="12.4930843"><ele>921.0</ele><time>2026-05-02T10:08:15.312Z</time></trkpt><trkpt lat="43.5538459" lon="12.4932352"><ele>921.0</ele><time>2026-05-02T10:08:16.313Z</time></trkpt><trkpt lat="43.5538425" lon="12.4933994"><ele>924.3333333333333</ele><time>2026-05-02T10:08:17.314Z</time></trkpt><trkpt lat="43.5537328" lon="12.4936218"><ele>927.6666666666666</ele><time>2026-05-02T10:08:18.314Z</time></trkpt><trkpt lat="43.5536718" lon="12.4937905"><ele>931.0</ele><time>2026-05-02T10:08:19.313Z</time></trkpt><trkpt lat="43.5536216" lon="12.4939589"><ele>936.25</ele><time>2026-05-02T10:08:20.313Z</time></trkpt><trkpt lat="43.5536359" lon="12.4940964"><ele>941.5</ele><time>2026-05-02T10:08:21.314Z</time></trkpt><trkpt lat="43.5536968" lon="12.4942104"><ele>946.75</ele><time>2026-05-02T10:08:22.313Z</time></trkpt><trkpt lat="43.5537927" lon="12.4942715"><ele>952.0</ele><time>2026-05-02T10:08:23.312Z</time></trkpt><trkpt lat="43.5539352" lon="12.4942723"><ele>952.0</ele><time>2026-05-02T10:08:24.311Z</time></trkpt><trkpt lat="43.5540875" lon="12.4942854"><ele>952.0</ele><time>2026-05-02T10:08:25.312Z</time></trkpt><trkpt lat="43.5542503" lon="12.4942714"><ele>952.0</ele><time>2026-05-02T10:08:26.311Z</time></trkpt><trkpt lat="43.5543905" lon="12.4942693"><ele>952.0</ele><time>2026-05-02T10:08:27.312Z</time></trkpt><trkpt lat="43.5545242" lon="12.4943019"><ele>952.0</ele><time>2026-05-02T10:08:28.313Z</time></trkpt><trkpt lat="43.5546582" lon="12.4943571"><ele>952.0</ele><time>2026-05-02T10:08:29.315Z</time></trkpt><trkpt lat="43.5547742" lon="12.4944845"><ele>952.0</ele><time>2026-05-02T10:08:30.312Z</time></trkpt><trkpt lat="43.5549078" lon="12.4946058"><ele>957.3333333333333</ele><time>2026-05-02T10:08:31.311Z</time></trkpt><trkpt lat="43.5550767" lon="12.4947704"><ele>962.6666666666667</ele><time>2026-05-02T10:08:32.315Z</time></trkpt><trkpt lat="43.5552383" lon="12.4949673"><ele>968.0</ele><time>2026-05-02T10:08:33.315Z</time></trkpt><trkpt lat="43.5553682" lon="12.4951724"><ele>967.3333333333334</ele><time>2026-05-02T10:08:34.317Z</time></trkpt><trkpt lat="43.5554797" lon="12.4953732"><ele>966.6666666666667</ele><time>2026-05-02T10:08:35.312Z</time></trkpt><trkpt lat="43.5555742" lon="12.4955663"><ele>966.0</ele><time>2026-05-02T10:08:36.314Z</time></trkpt><trkpt lat="43.555627" lon="12.4957486"><ele>967.5999999999999</ele><time>2026-05-02T10:08:37.313Z</time></trkpt><trkpt lat="43.5556436" lon="12.4959197"><ele>969.1999999999999</ele><time>2026-05-02T10:08:38.314Z</time></trkpt><trkpt lat="43.5556561" lon="12.4960781"><ele>970.8000000000001</ele><time>2026-05-02T10:08:39.314Z</time></trkpt><trkpt lat="43.5557019" lon="12.4962093"><ele>972.4000000000001</ele><time>2026-05-02T10:08:40.307Z</time></trkpt><trkpt lat="43.5557417" lon="12.4963338"><ele>974.0</ele><time>2026-05-02T10:08:41.314Z</time></trkpt><trkpt lat="43.5558004" lon="12.4964175"><ele>978.6666666666667</ele><time>2026-05-02T10:08:42.313Z</time></trkpt><trkpt lat="43.5559048" lon="12.4964348"><ele>983.3333333333333</ele><time>2026-05-02T10:08:43.312Z</time></trkpt><trkpt lat="43.5560462" lon="12.4964443"><ele>988.0</ele><time>2026-05-02T10:08:44.313Z</time></trkpt><trkpt lat="43.5562598" lon="12.4963652"><ele>988.0</ele><time>2026-05-02T10:08:45.312Z</time></trkpt><trkpt lat="43.5563877" lon="12.4964296"><ele>988.0</ele><time>2026-05-02T10:08:46.311Z</time></trkpt><trkpt lat="43.5565047" lon="12.4965379"><ele>988.0</ele><time>2026-05-02T10:08:47.311Z</time></trkpt><trkpt lat="43.5566048" lon="12.496703"><ele>988.0</ele><time>2026-05-02T10:08:48.313Z</time></trkpt><trkpt lat="43.5566871" lon="12.4968534"><ele>988.0</ele><time>2026-05-02T10:08:49.313Z</time></trkpt><trkpt lat="43.5567499" lon="12.4969933"><ele>988.0</ele><time>2026-05-02T10:08:50.314Z</time></trkpt><trkpt lat="43.556747" lon="12.4971281"><ele>988.0</ele><time>2026-05-02T10:08:51.311Z</time></trkpt><trkpt lat="43.5567054" lon="12.4972333"><ele>988.0</ele><time>2026-05-02T10:08:52.314Z</time></trkpt><trkpt lat="43.5566313" lon="12.4972773"><ele>988.0</ele><time>2026-05-02T10:08:53.309Z</time></trkpt><trkpt lat="43.5565434" lon="12.4972539"><ele>988.0</ele><time>2026-05-02T10:08:54.314Z</time></trkpt><trkpt lat="43.556478" lon="12.4971554"><ele>988.0</ele><time>2026-05-02T10:08:55.306Z</time></trkpt><trkpt lat="43.5564465" lon="12.4970144"><ele>988.0</ele><time>2026-05-02T10:08:56.313Z</time></trkpt><trkpt lat="43.5564398" lon="12.4968744"><ele>988.0</ele><time>2026-05-02T10:08:57.313Z</time></trkpt><trkpt lat="43.5563968" lon="12.4967286"><ele>988.0</ele><time>2026-05-02T10:08:58.312Z</time></trkpt><trkpt lat="43.5563189" lon="12.4966144"><ele>988.0</ele><time>2026-05-02T10:08:59.312Z</time></trkpt><trkpt lat="43.5562131" lon="12.4965536"><ele>988.0</ele><time>2026-05-02T10:09:00.31Z</time></trkpt><trkpt lat="43.5560922" lon="12.4965729"><ele>988.0</ele><time>2026-05-02T10:09:01.313Z</time></trkpt><trkpt lat="43.5559564" lon="12.496653"><ele>988.0</ele><time>2026-05-02T10:09:02.313Z</time></trkpt><trkpt lat="43.5558129" lon="12.4967574"><ele>989.0</ele><time>2026-05-02T10:09:03.312Z</time></trkpt><trkpt lat="43.5556498" lon="12.4968348"><ele>990.0</ele><time>2026-05-02T10:09:04.312Z</time></trkpt><trkpt lat="43.5554777" lon="12.496878"><ele>991.0</ele><time>2026-05-02T10:09:05.31Z</time></trkpt><trkpt lat="43.5553173" lon="12.4969034"><ele>995.25</ele><time>2026-05-02T10:09:06.312Z</time></trkpt><trkpt lat="43.5551797" lon="12.4969034"><ele>999.5</ele><time>2026-05-02T10:09:07.306Z</time></trkpt><trkpt lat="43.5550767" lon="12.4968589"><ele>1003.75</ele><time>2026-05-02T10:09:08.313Z</time></trkpt><trkpt lat="43.5550063" lon="12.4967605"><ele>1008.0</ele><time>2026-05-02T10:09:09.312Z</time></trkpt><trkpt lat="43.5549605" lon="12.4966293"><ele>1008.0</ele><time>2026-05-02T10:09:10.315Z</time></trkpt><trkpt lat="43.5549115" lon="12.4964844"><ele>1008.0</ele><time>2026-05-02T10:09:11.307Z</time></trkpt><trkpt lat="43.5548468" lon="12.4962767"><ele>1008.0</ele><time>2026-05-02T10:09:12.306Z</time></trkpt><trkpt lat="43.554761" lon="12.4961167"><ele>1008.0</ele><time>2026-05-02T10:09:13.312Z</time></trkpt><trkpt lat="43.5546653" lon="12.4959807"><ele>1010.0</ele><time>2026-05-02T10:09:14.311Z</time></trkpt><trkpt lat="43.55454" lon="12.4958807"><ele>1012.0</ele><time>2026-05-02T10:09:15.312Z</time></trkpt><trkpt lat="43.5543933" lon="12.4958265"><ele>1014.0</ele><time>2026-05-02T10:09:16.314Z</time></trkpt><trkpt lat="43.5542145" lon="12.4958067"><ele>1014.0</ele><time>2026-05-02T10:09:17.313Z</time></trkpt><trkpt lat="43.5540131" lon="12.495781"><ele>1014.0</ele><time>2026-05-02T10:09:18.312Z</time></trkpt><trkpt lat="43.5538066" lon="12.4957075"><ele>1014.0</ele><time>2026-05-02T10:09:19.313Z</time></trkpt><trkpt lat="43.5536349" lon="12.4955997"><ele>1010.6666666666667</ele><time>2026-05-02T10:09:20.313Z</time></trkpt><trkpt lat="43.5534649" lon="12.4954838"><ele>1007.3333333333334</ele><time>2026-05-02T10:09:21.314Z</time></trkpt><trkpt lat="43.5533013" lon="12.4954093"><ele>1004.0</ele><time>2026-05-02T10:09:22.311Z</time></trkpt><trkpt lat="43.5531238" lon="12.4953699"><ele>1004.0</ele><time>2026-05-02T10:09:23.312Z</time></trkpt><trkpt lat="43.5529312" lon="12.4953542"><ele>1004.0</ele><time>2026-05-02T10:09:24.311Z</time></trkpt><trkpt lat="43.552722" lon="12.4953514"><ele>1004.0</ele><time>2026-05-02T10:09:25.312Z</time></trkpt><trkpt lat="43.5525047" lon="12.4953618"><ele>1006.5</ele><time>2026-05-02T10:09:26.312Z</time></trkpt><trkpt lat="43.5522736" lon="12.4953805"><ele>1009.0</ele><time>2026-05-02T10:09:27.314Z</time></trkpt><trkpt lat="43.5520351" lon="12.495408"><ele>1027.5</ele><time>2026-05-02T10:09:28.311Z</time></trkpt><trkpt lat="43.5517914" lon="12.4954461"><ele>1046.0</ele><time>2026-05-02T10:09:29.312Z</time></trkpt><trkpt lat="43.5515406" lon="12.4955055"><ele>1046.0</ele><time>2026-05-02T10:09:30.311Z</time></trkpt><trkpt lat="43.5512998" lon="12.495588"><ele>1046.0</ele><time>2026-05-02T10:09:31.31Z</time></trkpt><trkpt lat="43.55106" lon="12.4956761"><ele>1044.5</ele><time>2026-05-02T10:09:32.308Z</time></trkpt><trkpt lat="43.5508237" lon="12.4957567"><ele>1043.0</ele><time>2026-05-02T10:09:33.312Z</time></trkpt><trkpt lat="43.5505955" lon="12.4958203"><ele>1044.5</ele><time>2026-05-02T10:09:34.312Z</time></trkpt><trkpt lat="43.5503701" lon="12.4958599"><ele>1046.0</ele><time>2026-05-02T10:09:35.312Z</time></trkpt><trkpt lat="43.550144" lon="12.4958916"><ele>1046.0</ele><time>2026-05-02T10:09:36.313Z</time></trkpt><trkpt lat="43.5499379" lon="12.4959333"><ele>1046.0</ele><time>2026-05-02T10:09:37.31Z</time></trkpt><trkpt lat="43.5497487" lon="12.49599"><ele>1046.0</ele><time>2026-05-02T10:09:38.311Z</time></trkpt><trkpt lat="43.5495703" lon="12.4960852"><ele>1042.3333333333335</ele><time>2026-05-02T10:09:39.312Z</time></trkpt><trkpt lat="43.5493959" lon="12.4962443"><ele>1038.6666666666667</ele><time>2026-05-02T10:09:40.311Z</time></trkpt><trkpt lat="43.549222" lon="12.4964486"><ele>1035.0</ele><time>2026-05-02T10:09:41.312Z</time></trkpt><trkpt lat="43.5490494" lon="12.4966936"><ele>1050.0</ele><time>2026-05-02T10:09:42.309Z</time></trkpt><trkpt lat="43.5488762" lon="12.4969695"><ele>1065.0</ele><time>2026-05-02T10:09:43.306Z</time></trkpt><trkpt lat="43.5486858" lon="12.4972711"><ele>1065.5</ele><time>2026-05-02T10:09:44.312Z</time></trkpt><trkpt lat="43.5484765" lon="12.4975788"><ele>1066.0</ele><time>2026-05-02T10:09:45.31Z</time></trkpt><trkpt lat="43.5482597" lon="12.4978879"><ele>1065.5</ele><time>2026-05-02T10:09:46.314Z</time></trkpt><trkpt lat="43.5480485" lon="12.4981801"><ele>1065.0</ele><time>2026-05-02T10:09:47.314Z</time></trkpt><trkpt lat="43.5478337" lon="12.4984684"><ele>1065.0</ele><time>2026-05-02T10:09:48.314Z</time></trkpt><trkpt lat="43.5476339" lon="12.4987451"><ele>1065.0</ele><time>2026-05-02T10:09:49.315Z</time></trkpt><trkpt lat="43.5474434" lon="12.4990083"><ele>1079.0</ele><time>2026-05-02T10:09:50.314Z</time></trkpt><trkpt lat="43.5472536" lon="12.4992316"><ele>1093.0</ele><time>2026-05-02T10:09:51.312Z</time></trkpt><trkpt lat="43.5470575" lon="12.4994452"><ele>1096.5</ele><time>2026-05-02T10:09:52.312Z</time></trkpt><trkpt lat="43.5468741" lon="12.4996596"><ele>1100.0</ele><time>2026-05-02T10:09:53.31Z</time></trkpt><trkpt lat="43.5466957" lon="12.4998602"><ele>1100.0</ele><time>2026-05-02T10:09:54.309Z</time></trkpt><trkpt lat="43.546522" lon="12.5000787"><ele>1100.0</ele><time>2026-05-02T10:09:55.309Z</time></trkpt><trkpt lat="43.5463718" lon="12.5003063"><ele>1097.0</ele><time>2026-05-02T10:09:56.312Z</time></trkpt><trkpt lat="43.5462337" lon="12.5005462"><ele>1094.0</ele><time>2026-05-02T10:09:57.31Z</time></trkpt><trkpt lat="43.5461077" lon="12.5008056"><ele>1091.0</ele><time>2026-05-02T10:09:58.305Z</time></trkpt><trkpt lat="43.5459812" lon="12.50108"><ele>1102.0</ele><time>2026-05-02T10:09:59.316Z</time></trkpt><trkpt lat="43.5458706" lon="12.5013876"><ele>1113.0</ele><time>2026-05-02T10:10:00.312Z</time></trkpt><trkpt lat="43.5457626" lon="12.5017128"><ele>1113.0</ele><time>2026-05-02T10:10:01.311Z</time></trkpt><trkpt lat="43.5456597" lon="12.5020562"><ele>1113.0</ele><time>2026-05-02T10:10:02.31Z</time></trkpt><trkpt lat="43.5455607" lon="12.502421"><ele>1122.0</ele><time>2026-05-02T10:10:03.311Z</time></trkpt><trkpt lat="43.5454682" lon="12.5027627"><ele>1131.0</ele><time>2026-05-02T10:10:04.31Z</time></trkpt><trkpt lat="43.5453889" lon="12.5030923"><ele>1117.0</ele><time>2026-05-02T10:10:05.307Z</time></trkpt><trkpt lat="43.5453268" lon="12.5034018"><ele>1103.0</ele><time>2026-05-02T10:10:06.308Z</time></trkpt><trkpt lat="43.5452856" lon="12.5037156"><ele>1108.0</ele><time>2026-05-02T10:10:07.307Z</time></trkpt><trkpt lat="43.545257" lon="12.5040109"><ele>1113.0</ele><time>2026-05-02T10:10:08.313Z</time></trkpt><trkpt lat="43.5452418" lon="12.5042683"><ele>1118.0</ele><time>2026-05-02T10:10:09.314Z</time></trkpt><trkpt lat="43.545209" lon="12.5045065"><ele>1123.3333333333335</ele><time>2026-05-02T10:10:10.315Z</time></trkpt><trkpt lat="43.5451343" lon="12.5047098"><ele>1128.6666666666667</ele><time>2026-05-02T10:10:11.316Z</time></trkpt><trkpt lat="43.5450514" lon="12.5048986"><ele>1134.0</ele><time>2026-05-02T10:10:12.316Z</time></trkpt><trkpt lat="43.5449506" lon="12.5050685"><ele>1134.0</ele><time>2026-05-02T10:10:13.314Z</time></trkpt><trkpt lat="43.5448892" lon="12.5052065"><ele>1134.0</ele><time>2026-05-02T10:10:14.315Z</time></trkpt><trkpt lat="43.5448659" lon="12.505356"><ele>1134.0</ele><time>2026-05-02T10:10:15.316Z</time></trkpt><trkpt lat="43.5448471" lon="12.505519"><ele>1134.0</ele><time>2026-05-02T10:10:16.316Z</time></trkpt><trkpt lat="43.5449186" lon="12.5056702"><ele>1133.6000000000001</ele><time>2026-05-02T10:10:17.317Z</time></trkpt><trkpt lat="43.5449666" lon="12.5057796"><ele>1133.2</ele><time>2026-05-02T10:10:18.314Z</time></trkpt><trkpt lat="43.545054" lon="12.5058361"><ele>1132.8000000000002</ele><time>2026-05-02T10:10:19.313Z</time></trkpt><trkpt lat="43.5451479" lon="12.5058324"><ele>1132.4</ele><time>2026-05-02T10:10:20.314Z</time></trkpt><trkpt lat="43.5452621" lon="12.5058103"><ele>1132.0</ele><time>2026-05-02T10:10:21.315Z</time></trkpt><trkpt lat="43.5453703" lon="12.5057087"><ele>1137.6666666666665</ele><time>2026-05-02T10:10:22.323Z</time></trkpt><trkpt lat="43.5455125" lon="12.505641"><ele>1143.3333333333333</ele><time>2026-05-02T10:10:23.312Z</time></trkpt><trkpt lat="43.5456522" lon="12.5056343"><ele>1149.0</ele><time>2026-05-02T10:10:24.313Z</time></trkpt><trkpt lat="43.5458276" lon="12.5055763"><ele>1149.0</ele><time>2026-05-02T10:10:25.431Z</time></trkpt><trkpt lat="43.5461243" lon="12.5055835"><ele>1149.0</ele><time>2026-05-02T10:10:27.313Z</time></trkpt><trkpt lat="43.546291" lon="12.505587"><ele>1149.0</ele><time>2026-05-02T10:10:28.313Z</time></trkpt><trkpt lat="43.5464619" lon="12.5055837"><ele>1149.0</ele><time>2026-05-02T10:10:29.314Z</time></trkpt><trkpt lat="43.5465827" lon="12.5055572"><ele>1149.0</ele><time>2026-05-02T10:10:30.312Z</time></trkpt><trkpt lat="43.5467093" lon="12.5056053"><ele>1149.0</ele><time>2026-05-02T10:10:31.313Z</time></trkpt><trkpt lat="43.546839" lon="12.5056216"><ele>1149.0</ele><time>2026-05-02T10:10:32.313Z</time></trkpt><trkpt lat="43.546967" lon="12.5056141"><ele>1149.0</ele><time>2026-05-02T10:10:33.314Z</time></trkpt><trkpt lat="43.5470824" lon="12.5056602"><ele>1149.0</ele><time>2026-05-02T10:10:34.312Z</time></trkpt><trkpt lat="43.5472143" lon="12.5057035"><ele>1149.0</ele><time>2026-05-02T10:10:35.314Z</time></trkpt><trkpt lat="43.5473408" lon="12.5057206"><ele>1156.0</ele><time>2026-05-02T10:10:36.312Z</time></trkpt><trkpt lat="43.547453" lon="12.5057696"><ele>1163.0</ele><time>2026-05-02T10:10:37.31Z</time></trkpt><trkpt lat="43.5475601" lon="12.5058418"><ele>1170.0</ele><time>2026-05-02T10:10:38.311Z</time></trkpt><trkpt lat="43.5476398" lon="12.5059862"><ele>1177.0</ele><time>2026-05-02T10:10:39.308Z</time></trkpt><trkpt lat="43.5477649" lon="12.5060792"><ele>1173.6666666666665</ele><time>2026-05-02T10:10:40.311Z</time></trkpt><trkpt lat="43.5479071" lon="12.5061437"><ele>1170.3333333333333</ele><time>2026-05-02T10:10:41.31Z</time></trkpt><trkpt lat="43.5480679" lon="12.5062128"><ele>1167.0</ele><time>2026-05-02T10:10:42.311Z</time></trkpt><trkpt lat="43.5482341" lon="12.5063141"><ele>1167.0</ele><time>2026-05-02T10:10:43.31Z</time></trkpt><trkpt lat="43.5483811" lon="12.5064239"><ele>1167.0</ele><time>2026-05-02T10:10:44.311Z</time></trkpt><trkpt lat="43.5485213" lon="12.5065099"><ele>1167.0</ele><time>2026-05-02T10:10:45.311Z</time></trkpt><trkpt lat="43.548651" lon="12.5065568"><ele>1174.75</ele><time>2026-05-02T10:10:46.312Z</time></trkpt><trkpt lat="43.5487789" lon="12.5065572"><ele>1182.5</ele><time>2026-05-02T10:10:47.309Z</time></trkpt><trkpt lat="43.5489094" lon="12.5066038"><ele>1190.25</ele><time>2026-05-02T10:10:48.31Z</time></trkpt><trkpt lat="43.5490623" lon="12.5067087"><ele>1198.0</ele><time>2026-05-02T10:10:49.308Z</time></trkpt><trkpt lat="43.54924" lon="12.5068453"><ele>1198.0</ele><time>2026-05-02T10:10:50.311Z</time></trkpt><trkpt lat="43.5494417" lon="12.5069961"><ele>1198.0</ele><time>2026-05-02T10:10:51.308Z</time></trkpt><trkpt lat="43.5496522" lon="12.5071523"><ele>1196.0</ele><time>2026-05-02T10:10:52.313Z</time></trkpt><trkpt lat="43.5498691" lon="12.5073024"><ele>1194.0</ele><time>2026-05-02T10:10:53.311Z</time></trkpt><trkpt lat="43.5500808" lon="12.5074397"><ele>1194.0</ele><time>2026-05-02T10:10:54.312Z</time></trkpt><trkpt lat="43.5502727" lon="12.5075665"><ele>1194.0</ele><time>2026-05-02T10:10:55.31Z</time></trkpt><trkpt lat="43.5504542" lon="12.5077324"><ele>1194.0</ele><time>2026-05-02T10:10:56.313Z</time></trkpt><trkpt lat="43.5506376" lon="12.5079183"><ele>1197.3333333333333</ele><time>2026-05-02T10:10:57.31Z</time></trkpt><trkpt lat="43.5508057" lon="12.508125"><ele>1200.6666666666665</ele><time>2026-05-02T10:10:58.313Z</time></trkpt><trkpt lat="43.5509415" lon="12.5083488"><ele>1204.0</ele><time>2026-05-02T10:10:59.313Z</time></trkpt><trkpt lat="43.5510568" lon="12.5085915"><ele>1200.0</ele><time>2026-05-02T10:11:00.313Z</time></trkpt><trkpt lat="43.5511485" lon="12.5088643"><ele>1196.0</ele><time>2026-05-02T10:11:01.311Z</time></trkpt><trkpt lat="43.5512304" lon="12.5091501"><ele>1192.0</ele><time>2026-05-02T10:11:02.315Z</time></trkpt><trkpt lat="43.5513086" lon="12.5094403"><ele>1201.3333333333333</ele><time>2026-05-02T10:11:03.314Z</time></trkpt><trkpt lat="43.5513792" lon="12.5097001"><ele>1210.6666666666667</ele><time>2026-05-02T10:11:04.31Z</time></trkpt><trkpt lat="43.5514468" lon="12.5099345"><ele>1220.0</ele><time>2026-05-02T10:11:05.307Z</time></trkpt><trkpt lat="43.5515033" lon="12.5101689"><ele>1220.6666666666667</ele><time>2026-05-02T10:11:06.314Z</time></trkpt><trkpt lat="43.551534" lon="12.5104119"><ele>1221.3333333333333</ele><time>2026-05-02T10:11:07.308Z</time></trkpt><trkpt lat="43.5515272" lon="12.5106678"><ele>1222.0</ele><time>2026-05-02T10:11:08.313Z</time></trkpt><trkpt lat="43.5514826" lon="12.5109184"><ele>1222.0</ele><time>2026-05-02T10:11:09.314Z</time></trkpt><trkpt lat="43.5514072" lon="12.5111512"><ele>1222.0</ele><time>2026-05-02T10:11:10.308Z</time></trkpt><trkpt lat="43.5513276" lon="12.5113518"><ele>1222.0</ele><time>2026-05-02T10:11:11.312Z</time></trkpt><trkpt lat="43.5512741" lon="12.5115279"><ele>1225.25</ele><time>2026-05-02T10:11:12.307Z</time></trkpt><trkpt lat="43.5512544" lon="12.511674"><ele>1228.5</ele><time>2026-05-02T10:11:13.313Z</time></trkpt><trkpt lat="43.5512796" lon="12.5118292"><ele>1231.75</ele><time>2026-05-02T10:11:14.311Z</time></trkpt><trkpt lat="43.5513222" lon="12.5119973"><ele>1235.0</ele><time>2026-05-02T10:11:15.314Z</time></trkpt><trkpt lat="43.5513306" lon="12.5121631"><ele>1237.0</ele><time>2026-05-02T10:11:16.311Z</time></trkpt><trkpt lat="43.5513022" lon="12.5123118"><ele>1239.0</ele><time>2026-05-02T10:11:17.311Z</time></trkpt><trkpt lat="43.5512316" lon="12.5124631"><ele>1241.0</ele><time>2026-05-02T10:11:18.312Z</time></trkpt><trkpt lat="43.5511268" lon="12.5126425"><ele>1243.0</ele><time>2026-05-02T10:11:19.313Z</time></trkpt><trkpt lat="43.5510186" lon="12.512843"><ele>1241.5</ele><time>2026-05-02T10:11:20.311Z</time></trkpt><trkpt lat="43.550905" lon="12.5130316"><ele>1240.0</ele><time>2026-05-02T10:11:21.303Z</time></trkpt><trkpt lat="43.5508104" lon="12.5131924"><ele>1238.5</ele><time>2026-05-02T10:11:22.31Z</time></trkpt><trkpt lat="43.550746" lon="12.5133299"><ele>1237.0</ele><time>2026-05-02T10:11:23.31Z</time></trkpt><trkpt lat="43.5507212" lon="12.5134582"><ele>1237.0</ele><time>2026-05-02T10:11:24.314Z</time></trkpt><trkpt lat="43.5507404" lon="12.5135878"><ele>1237.0</ele><time>2026-05-02T10:11:25.309Z</time></trkpt><trkpt lat="43.5508045" lon="12.5136845"><ele>1237.0</ele><time>2026-05-02T10:11:26.313Z</time></trkpt><trkpt lat="43.550888" lon="12.5137257"><ele>1237.0</ele><time>2026-05-02T10:11:27.31Z</time></trkpt><trkpt lat="43.5509722" lon="12.5137056"><ele>1237.0</ele><time>2026-05-02T10:11:28.304Z</time></trkpt><trkpt lat="43.5510568" lon="12.5136756"><ele>1237.0</ele><time>2026-05-02T10:11:29.311Z</time></trkpt><trkpt lat="43.551098" lon="12.5135126"><ele>1237.0</ele><time>2026-05-02T10:11:30.309Z</time></trkpt><trkpt lat="43.5511596" lon="12.5133945"><ele>1237.0</ele><time>2026-05-02T10:11:31.31Z</time></trkpt><trkpt lat="43.5512358" lon="12.5133139"><ele>1237.0</ele><time>2026-05-02T10:11:32.311Z</time></trkpt><trkpt lat="43.5513257" lon="12.5132844"><ele>1237.0</ele><time>2026-05-02T10:11:33.313Z</time></trkpt><trkpt lat="43.5514164" lon="12.5133273"><ele>1239.6</ele><time>2026-05-02T10:11:34.312Z</time></trkpt><trkpt lat="43.551487" lon="12.5134112"><ele>1242.2</ele><time>2026-05-02T10:11:35.315Z</time></trkpt><trkpt lat="43.551548" lon="12.5134998"><ele>1244.8</ele><time>2026-05-02T10:11:36.316Z</time></trkpt><trkpt lat="43.55158" lon="12.5136139"><ele>1247.4</ele><time>2026-05-02T10:11:37.311Z</time></trkpt><trkpt lat="43.5515068" lon="12.5137848"><ele>1250.0</ele><time>2026-05-02T10:11:38.316Z</time></trkpt><trkpt lat="43.5514382" lon="12.5140755"><ele>1255.0</ele><time>2026-05-02T10:11:39.307Z</time></trkpt><trkpt lat="43.5513403" lon="12.5144007"><ele>1260.0</ele><time>2026-05-02T10:11:40.314Z</time></trkpt><trkpt lat="43.5512549" lon="12.5147045"><ele>1259.0</ele><time>2026-05-02T10:11:41.314Z</time></trkpt><trkpt lat="43.5511553" lon="12.5150044"><ele>1258.0</ele><time>2026-05-02T10:11:42.314Z</time></trkpt><trkpt lat="43.5510348" lon="12.5152892"><ele>1262.6666666666665</ele><time>2026-05-02T10:11:43.314Z</time></trkpt><trkpt lat="43.5509126" lon="12.5155221"><ele>1267.3333333333333</ele><time>2026-05-02T10:11:44.314Z</time></trkpt><trkpt lat="43.5507924" lon="12.5157311"><ele>1272.0</ele><time>2026-05-02T10:11:45.314Z</time></trkpt><trkpt lat="43.5506972" lon="12.5159139"><ele>1272.0</ele><time>2026-05-02T10:11:46.314Z</time></trkpt><trkpt lat="43.5506249" lon="12.5160765"><ele>1272.0</ele><time>2026-05-02T10:11:47.312Z</time></trkpt><trkpt lat="43.5505868" lon="12.5162389"><ele>1272.0</ele><time>2026-05-02T10:11:48.312Z</time></trkpt><trkpt lat="43.5505587" lon="12.5163802"><ele>1272.0</ele><time>2026-05-02T10:11:49.316Z</time></trkpt><trkpt lat="43.5505205" lon="12.5165379"><ele>1274.6666666666667</ele><time>2026-05-02T10:11:50.315Z</time></trkpt><trkpt lat="43.5504844" lon="12.5167016"><ele>1277.3333333333335</ele><time>2026-05-02T10:11:51.313Z</time></trkpt><trkpt lat="43.5504425" lon="12.5169003"><ele>1280.0</ele><time>2026-05-02T10:11:52.317Z</time></trkpt><trkpt lat="43.5503913" lon="12.5171557"><ele>1275.0</ele><time>2026-05-02T10:11:53.31Z</time></trkpt><trkpt lat="43.5503379" lon="12.5174429"><ele>1270.0</ele><time>2026-05-02T10:11:54.312Z</time></trkpt><trkpt lat="43.5502822" lon="12.5177686"><ele>1274.5</ele><time>2026-05-02T10:11:55.311Z</time></trkpt><trkpt lat="43.5502354" lon="12.5181053"><ele>1279.0</ele><time>2026-05-02T10:11:56.317Z</time></trkpt><trkpt lat="43.550198" lon="12.5184449"><ele>1281.3333333333333</ele><time>2026-05-02T10:11:57.318Z</time></trkpt><trkpt lat="43.5501604" lon="12.5187402"><ele>1283.6666666666667</ele><time>2026-05-02T10:11:58.314Z</time></trkpt><trkpt lat="43.550127" lon="12.519014"><ele>1286.0</ele><time>2026-05-02T10:11:59.314Z</time></trkpt><trkpt lat="43.5500964" lon="12.5192348"><ele>1286.0</ele><time>2026-05-02T10:12:00.314Z</time></trkpt><trkpt lat="43.5500805" lon="12.5194266"><ele>1286.0</ele><time>2026-05-02T10:12:01.314Z</time></trkpt><trkpt lat="43.5500853" lon="12.5196057"><ele>1286.0</ele><time>2026-05-02T10:12:02.313Z</time></trkpt><trkpt lat="43.5501202" lon="12.5197571"><ele>1286.0</ele><time>2026-05-02T10:12:03.314Z</time></trkpt><trkpt lat="43.5501839" lon="12.5198847"><ele>1286.1999999999998</ele><time>2026-05-02T10:12:04.315Z</time></trkpt><trkpt lat="43.5502779" lon="12.5199751"><ele>1286.3999999999999</ele><time>2026-05-02T10:12:05.313Z</time></trkpt><trkpt lat="43.55038" lon="12.5200189"><ele>1286.6</ele><time>2026-05-02T10:12:06.312Z</time></trkpt><trkpt lat="43.5504815" lon="12.5200169"><ele>1286.8</ele><time>2026-05-02T10:12:07.313Z</time></trkpt><trkpt lat="43.5505995" lon="12.5199634"><ele>1287.0</ele><time>2026-05-02T10:12:08.313Z</time></trkpt><trkpt lat="43.5507134" lon="12.5198971"><ele>1291.0</ele><time>2026-05-02T10:12:09.313Z</time></trkpt><trkpt lat="43.5508048" lon="12.519718"><ele>1295.0</ele><time>2026-05-02T10:12:10.315Z</time></trkpt><trkpt lat="43.5508972" lon="12.5195554"><ele>1299.0</ele><time>2026-05-02T10:12:11.314Z</time></trkpt><trkpt lat="43.550988" lon="12.519371"><ele>1299.0</ele><time>2026-05-02T10:12:12.314Z</time></trkpt><trkpt lat="43.5510824" lon="12.5191715"><ele>1299.0</ele><time>2026-05-02T10:12:13.314Z</time></trkpt><trkpt lat="43.55119" lon="12.5189799"><ele>1299.0</ele><time>2026-05-02T10:12:14.313Z</time></trkpt><trkpt lat="43.5512994" lon="12.5187911"><ele>1304.0</ele><time>2026-05-02T10:12:15.314Z</time></trkpt><trkpt lat="43.5514016" lon="12.5185942"><ele>1309.0</ele><time>2026-05-02T10:12:16.314Z</time></trkpt><trkpt lat="43.551504" lon="12.5183977"><ele>1314.0</ele><time>2026-05-02T10:12:17.314Z</time></trkpt><trkpt lat="43.5516087" lon="12.5181869"><ele>1314.0</ele><time>2026-05-02T10:12:18.315Z</time></trkpt><trkpt lat="43.5517127" lon="12.5179854"><ele>1314.0</ele><time>2026-05-02T10:12:19.314Z</time></trkpt><trkpt lat="43.5518171" lon="12.5177629"><ele>1314.0</ele><time>2026-05-02T10:12:20.314Z</time></trkpt><trkpt lat="43.5519185" lon="12.5175675"><ele>1312.3333333333333</ele><time>2026-05-02T10:12:21.314Z</time></trkpt><trkpt lat="43.5520202" lon="12.5173704"><ele>1310.6666666666665</ele><time>2026-05-02T10:12:22.313Z</time></trkpt><trkpt lat="43.5521174" lon="12.5171735"><ele>1309.0</ele><time>2026-05-02T10:12:23.315Z</time></trkpt><trkpt lat="43.552234" lon="12.5170436"><ele>1316.0</ele><time>2026-05-02T10:12:24.316Z</time></trkpt><trkpt lat="43.5523675" lon="12.5168949"><ele>1323.0</ele><time>2026-05-02T10:12:25.313Z</time></trkpt><trkpt lat="43.5525251" lon="12.5167607"><ele>1330.0</ele><time>2026-05-02T10:12:26.313Z</time></trkpt><trkpt lat="43.5527006" lon="12.5165975"><ele>1330.0</ele><time>2026-05-02T10:12:27.318Z</time></trkpt><trkpt lat="43.5528686" lon="12.5164008"><ele>1330.0</ele><time>2026-05-02T10:12:28.313Z</time></trkpt><trkpt lat="43.5530396" lon="12.5161831"><ele>1338.0</ele><time>2026-05-02T10:12:29.311Z</time></trkpt><trkpt lat="43.553214" lon="12.5159588"><ele>1346.0</ele><time>2026-05-02T10:12:30.314Z</time></trkpt><trkpt lat="43.5533909" lon="12.5157199"><ele>1346.0</ele><time>2026-05-02T10:12:31.313Z</time></trkpt><trkpt lat="43.5535745" lon="12.5154931"><ele>1346.0</ele><time>2026-05-02T10:12:32.312Z</time></trkpt><trkpt lat="43.5537489" lon="12.5152944"><ele>1351.0</ele><time>2026-05-02T10:12:33.314Z</time></trkpt><trkpt lat="43.5539114" lon="12.5151135"><ele>1356.0</ele><time>2026-05-02T10:12:34.314Z</time></trkpt><trkpt lat="43.5540613" lon="12.5149271"><ele>1361.0</ele><time>2026-05-02T10:12:35.314Z</time></trkpt><trkpt lat="43.5541881" lon="12.5147328"><ele>1355.0</ele><time>2026-05-02T10:12:36.315Z</time></trkpt><trkpt lat="43.5542866" lon="12.5145466"><ele>1349.0</ele><time>2026-05-02T10:12:37.314Z</time></trkpt><trkpt lat="43.5543706" lon="12.5143621"><ele>1343.0</ele><time>2026-05-02T10:12:38.315Z</time></trkpt><trkpt lat="43.554446" lon="12.5142141"><ele>1343.0</ele><time>2026-05-02T10:12:39.313Z</time></trkpt><trkpt lat="43.5545315" lon="12.5140956"><ele>1343.0</ele><time>2026-05-02T10:12:40.31Z</time></trkpt><trkpt lat="43.5546138" lon="12.5139896"><ele>1343.0</ele><time>2026-05-02T10:12:41.312Z</time></trkpt><trkpt lat="43.5547141" lon="12.5138997"><ele>1343.0</ele><time>2026-05-02T10:12:42.312Z</time></trkpt><trkpt lat="43.5548357" lon="12.5138935"><ele>1352.0</ele><time>2026-05-02T10:12:43.314Z</time></trkpt><trkpt lat="43.5549499" lon="12.5139251"><ele>1361.0</ele><time>2026-05-02T10:12:44.319Z</time></trkpt><trkpt lat="43.5550464" lon="12.5140619"><ele>1370.0</ele><time>2026-05-02T10:12:45.312Z</time></trkpt><trkpt lat="43.5551335" lon="12.5141794"><ele>1379.0</ele><time>2026-05-02T10:12:46.324Z</time></trkpt><trkpt lat="43.5551903" lon="12.5144188"><ele>1380.0</ele><time>2026-05-02T10:12:47.315Z</time></trkpt><trkpt lat="43.5552184" lon="12.5146497"><ele>1381.0</ele><time>2026-05-02T10:12:48.319Z</time></trkpt><trkpt lat="43.5552267" lon="12.5149444"><ele>1382.0</ele><time>2026-05-02T10:12:49.317Z</time></trkpt><trkpt lat="43.5552384" lon="12.5152415"><ele>1383.75</ele><time>2026-05-02T10:12:50.313Z</time></trkpt><trkpt lat="43.5552482" lon="12.515477"><ele>1385.5</ele><time>2026-05-02T10:12:51.314Z</time></trkpt><trkpt lat="43.5552599" lon="12.5156721"><ele>1387.25</ele><time>2026-05-02T10:12:52.316Z</time></trkpt><trkpt lat="43.5551732" lon="12.5157597"><ele>1389.0</ele><time>2026-05-02T10:12:53.315Z</time></trkpt><trkpt lat="43.5550933" lon="12.5158301"><ele>1389.0</ele><time>2026-05-02T10:12:54.31Z</time></trkpt><trkpt lat="43.5550132" lon="12.5158319"><ele>1389.0</ele><time>2026-05-02T10:12:55.425Z</time></trkpt><trkpt lat="43.5548763" lon="12.5156524"><ele>1389.0</ele><time>2026-05-02T10:12:57.314Z</time></trkpt><trkpt lat="43.5548017" lon="12.5155505"><ele>1389.0</ele><time>2026-05-02T10:12:58.317Z</time></trkpt><trkpt lat="43.554719" lon="12.5155085"><ele>1389.0</ele><time>2026-05-02T10:12:59.313Z</time></trkpt><trkpt lat="43.5546229" lon="12.5155131"><ele>1389.0</ele><time>2026-05-02T10:13:00.313Z</time></trkpt><trkpt lat="43.5545403" lon="12.5155437"><ele>1389.0</ele><time>2026-05-02T10:13:01.311Z</time></trkpt><trkpt lat="43.554514" lon="12.5157064"><ele>1389.0</ele><time>2026-05-02T10:13:02.314Z</time></trkpt><trkpt lat="43.5545155" lon="12.5158277"><ele>1389.0</ele><time>2026-05-02T10:13:03.313Z</time></trkpt><trkpt lat="43.554554" lon="12.5159555"><ele>1389.0</ele><time>2026-05-02T10:13:04.315Z</time></trkpt><trkpt lat="43.5546206" lon="12.5161196"><ele>1389.0</ele><time>2026-05-02T10:13:05.312Z</time></trkpt><trkpt lat="43.5546875" lon="12.5163064"><ele>1389.0</ele><time>2026-05-02T10:13:06.315Z</time></trkpt><trkpt lat="43.5547513" lon="12.5164894"><ele>1389.0</ele><time>2026-05-02T10:13:07.313Z</time></trkpt><trkpt lat="43.5548182" lon="12.5166731"><ele>1392.0</ele><time>2026-05-02T10:13:08.314Z</time></trkpt><trkpt lat="43.5548919" lon="12.5168674"><ele>1395.0</ele><time>2026-05-02T10:13:09.314Z</time></trkpt><trkpt lat="43.5549612" lon="12.5170786"><ele>1398.0</ele><time>2026-05-02T10:13:10.314Z</time></trkpt><trkpt lat="43.5550381" lon="12.5172978"><ele>1398.3333333333333</ele><time>2026-05-02T10:13:11.316Z</time></trkpt><trkpt lat="43.5551135" lon="12.517517"><ele>1398.6666666666665</ele><time>2026-05-02T10:13:12.314Z</time></trkpt><trkpt lat="43.5551822" lon="12.5177149"><ele>1399.0</ele><time>2026-05-02T10:13:13.316Z</time></trkpt><trkpt lat="43.5552451" lon="12.5178794"><ele>1398.6666666666665</ele><time>2026-05-02T10:13:14.312Z</time></trkpt><trkpt lat="43.5553095" lon="12.5179955"><ele>1398.3333333333333</ele><time>2026-05-02T10:13:15.315Z</time></trkpt><trkpt lat="43.5553824" lon="12.5180605"><ele>1398.0</ele><time>2026-05-02T10:13:16.311Z</time></trkpt><trkpt lat="43.5554657" lon="12.5180836"><ele>1397.6666666666667</ele><time>2026-05-02T10:13:17.314Z</time></trkpt><trkpt lat="43.5555429" lon="12.5180606"><ele>1397.3333333333335</ele><time>2026-05-02T10:13:18.313Z</time></trkpt><trkpt lat="43.5556197" lon="12.5180461"><ele>1397.0</ele><time>2026-05-02T10:13:19.313Z</time></trkpt><trkpt lat="43.5556725" lon="12.5179978"><ele>1402.5</ele><time>2026-05-02T10:13:20.314Z</time></trkpt><trkpt lat="43.5557238" lon="12.5179319"><ele>1408.0</ele><time>2026-05-02T10:13:21.314Z</time></trkpt><trkpt lat="43.5556398" lon="12.5176383"><ele>1413.5</ele><time>2026-05-02T10:13:22.316Z</time></trkpt><trkpt lat="43.5556491" lon="12.5175132"><ele>1419.0</ele><time>2026-05-02T10:13:23.314Z</time></trkpt><trkpt lat="43.5557203" lon="12.5174334"><ele>1419.0</ele><time>2026-05-02T10:13:24.314Z</time></trkpt><trkpt lat="43.555796" lon="12.5174285"><ele>1419.0</ele><time>2026-05-02T10:13:25.314Z</time></trkpt><trkpt lat="43.5558627" lon="12.5174787"><ele>1419.0</ele><time>2026-05-02T10:13:26.314Z</time></trkpt><trkpt lat="43.5559256" lon="12.5175267"><ele>1419.0</ele><time>2026-05-02T10:13:27.314Z</time></trkpt><trkpt lat="43.5559701" lon="12.5176295"><ele>1419.0</ele><time>2026-05-02T10:13:28.313Z</time></trkpt><trkpt lat="43.5560068" lon="12.5177433"><ele>1419.0</ele><time>2026-05-02T10:13:29.315Z</time></trkpt><trkpt lat="43.55602" lon="12.5179145"><ele>1419.0</ele><time>2026-05-02T10:13:30.311Z</time></trkpt><trkpt lat="43.5560147" lon="12.5181239"><ele>1419.0</ele><time>2026-05-02T10:13:31.33Z</time></trkpt><trkpt lat="43.5559797" lon="12.5184748"><ele>1419.0</ele><time>2026-05-02T10:13:32.311Z</time></trkpt><trkpt lat="43.5560222" lon="12.5188106"><ele>1419.3333333333333</ele><time>2026-05-02T10:13:33.314Z</time></trkpt><trkpt lat="43.5560075" lon="12.5190953"><ele>1419.6666666666665</ele><time>2026-05-02T10:13:34.314Z</time></trkpt><trkpt lat="43.5559873" lon="12.5193262"><ele>1420.0</ele><time>2026-05-02T10:13:35.311Z</time></trkpt><trkpt lat="43.5559321" lon="12.5195034"><ele>1421.0</ele><time>2026-05-02T10:13:36.313Z</time></trkpt><trkpt lat="43.555931" lon="12.519677"><ele>1422.0</ele><time>2026-05-02T10:13:37.313Z</time></trkpt><trkpt lat="43.5559273" lon="12.5198526"><ele>1423.0</ele><time>2026-05-02T10:13:38.314Z</time></trkpt><trkpt lat="43.5559723" lon="12.5199932"><ele>1424.0</ele><time>2026-05-02T10:13:39.312Z</time></trkpt><trkpt lat="43.5560429" lon="12.5200915"><ele>1424.0</ele><time>2026-05-02T10:13:40.313Z</time></trkpt><trkpt lat="43.5561234" lon="12.5200661"><ele>1424.0</ele><time>2026-05-02T10:13:41.314Z</time></trkpt><trkpt lat="43.5562526" lon="12.5199754"><ele>1424.0</ele><time>2026-05-02T10:13:42.315Z</time></trkpt><trkpt lat="43.5563522" lon="12.5198779"><ele>1424.0</ele><time>2026-05-02T10:13:43.316Z</time></trkpt><trkpt lat="43.5564347" lon="12.5196908"><ele>1443.0</ele><time>2026-05-02T10:13:44.316Z</time></trkpt><trkpt lat="43.5564345" lon="12.5194332"><ele>1462.0</ele><time>2026-05-02T10:13:45.34Z</time></trkpt><trkpt lat="43.5564245" lon="12.51887"><ele>1462.0</ele><time>2026-05-02T10:13:46.307Z</time></trkpt><trkpt lat="43.556454" lon="12.5185635"><ele>1462.0</ele><time>2026-05-02T10:13:47.336Z</time></trkpt><trkpt lat="43.5564298" lon="12.5182751"><ele>1462.0</ele><time>2026-05-02T10:13:48.312Z</time></trkpt><trkpt lat="43.5564392" lon="12.5180223"><ele>1460.6666666666665</ele><time>2026-05-02T10:13:49.314Z</time></trkpt><trkpt lat="43.5565134" lon="12.5178437"><ele>1459.3333333333333</ele><time>2026-05-02T10:13:50.309Z</time></trkpt><trkpt lat="43.5565628" lon="12.5176293"><ele>1458.0</ele><time>2026-05-02T10:13:51.336Z</time></trkpt><trkpt lat="43.5566215" lon="12.5174069"><ele>1458.0</ele><time>2026-05-02T10:13:52.339Z</time></trkpt><trkpt lat="43.5566757" lon="12.5171771"><ele>1458.0</ele><time>2026-05-02T10:13:53.31Z</time></trkpt><trkpt lat="43.5566933" lon="12.5168352"><ele>1458.0</ele><time>2026-05-02T10:13:54.335Z</time></trkpt><trkpt lat="43.5567444" lon="12.5165299"><ele>1455.6666666666667</ele><time>2026-05-02T10:13:55.332Z</time></trkpt><trkpt lat="43.5568074" lon="12.516264"><ele>1453.3333333333335</ele><time>2026-05-02T10:13:56.333Z</time></trkpt><trkpt lat="43.5568602" lon="12.5159906"><ele>1451.0</ele><time>2026-05-02T10:13:57.337Z</time></trkpt><trkpt lat="43.5568833" lon="12.5157082"><ele>1451.0</ele><time>2026-05-02T10:13:58.338Z</time></trkpt><trkpt lat="43.5568834" lon="12.5154048"><ele>1451.0</ele><time>2026-05-02T10:13:59.337Z</time></trkpt><trkpt lat="43.5568701" lon="12.5151311"><ele>1451.0</ele><time>2026-05-02T10:14:00.336Z</time></trkpt><trkpt lat="43.5568624" lon="12.5148948"><ele>1451.0</ele><time>2026-05-02T10:14:01.336Z</time></trkpt><trkpt lat="43.5568486" lon="12.5147052"><ele>1451.0</ele><time>2026-05-02T10:14:02.313Z</time></trkpt><trkpt lat="43.5568629" lon="12.5145748"><ele>1451.0</ele><time>2026-05-02T10:14:03.341Z</time></trkpt><trkpt lat="43.5568989" lon="12.5144739"><ele>1451.0</ele><time>2026-05-02T10:14:04.313Z</time></trkpt><trkpt lat="43.5569373" lon="12.5143539"><ele>1451.0</ele><time>2026-05-02T10:14:05.314Z</time></trkpt><trkpt lat="43.5570058" lon="12.5143114"><ele>1451.6</ele><time>2026-05-02T10:14:06.315Z</time></trkpt><trkpt lat="43.5570944" lon="12.5143006"><ele>1452.1999999999998</ele><time>2026-05-02T10:14:07.311Z</time></trkpt><trkpt lat="43.5571513" lon="12.5144755"><ele>1452.8000000000002</ele><time>2026-05-02T10:14:08.311Z</time></trkpt><trkpt lat="43.5572237" lon="12.5145412"><ele>1453.4</ele><time>2026-05-02T10:14:09.313Z</time></trkpt><trkpt lat="43.5572809" lon="12.5146437"><ele>1454.0</ele><time>2026-05-02T10:14:10.314Z</time></trkpt><trkpt lat="43.557241" lon="12.5147509"><ele>1454.0</ele><time>2026-05-02T10:14:11.314Z</time></trkpt><trkpt lat="43.5572351" lon="12.5148392"><ele>1454.0</ele><time>2026-05-02T10:14:12.315Z</time></trkpt><trkpt lat="43.5572314" lon="12.5149569"><ele>1454.0</ele><time>2026-05-02T10:14:13.314Z</time></trkpt><trkpt lat="43.5572415" lon="12.515112"><ele>1454.0</ele><time>2026-05-02T10:14:14.314Z</time></trkpt><trkpt lat="43.5572532" lon="12.5153202"><ele>1454.0</ele><time>2026-05-02T10:14:15.312Z</time></trkpt><trkpt lat="43.557264" lon="12.51553"><ele>1457.3333333333335</ele><time>2026-05-02T10:14:16.314Z</time></trkpt><trkpt lat="43.557274" lon="12.5157553"><ele>1460.6666666666667</ele><time>2026-05-02T10:14:17.316Z</time></trkpt><trkpt lat="43.5573103" lon="12.5160188"><ele>1464.0</ele><time>2026-05-02T10:14:18.309Z</time></trkpt><trkpt lat="43.5573496" lon="12.5162785"><ele>1467.3333333333333</ele><time>2026-05-02T10:14:19.339Z</time></trkpt><trkpt lat="43.5573455" lon="12.516577"><ele>1470.6666666666665</ele><time>2026-05-02T10:14:20.312Z</time></trkpt><trkpt lat="43.55736" lon="12.5168529"><ele>1474.0</ele><time>2026-05-02T10:14:21.314Z</time></trkpt><trkpt lat="43.5573512" lon="12.5171318"><ele>1481.0</ele><time>2026-05-02T10:14:22.34Z</time></trkpt><trkpt lat="43.5573576" lon="12.5174185"><ele>1488.0</ele><time>2026-05-02T10:14:23.314Z</time></trkpt><trkpt lat="43.5573562" lon="12.5176732"><ele>1495.0</ele><time>2026-05-02T10:14:24.341Z</time></trkpt><trkpt lat="43.5573667" lon="12.5178323"><ele>1497.2</ele><time>2026-05-02T10:14:25.314Z</time></trkpt><trkpt lat="43.5573854" lon="12.5180236"><ele>1499.4</ele><time>2026-05-02T10:14:26.313Z</time></trkpt><trkpt lat="43.557393" lon="12.518194"><ele>1501.6</ele><time>2026-05-02T10:14:27.313Z</time></trkpt><trkpt lat="43.5574388" lon="12.5182889"><ele>1503.8</ele><time>2026-05-02T10:14:28.316Z</time></trkpt><trkpt lat="43.5574385" lon="12.5181813"><ele>1506.0</ele><time>2026-05-02T10:14:46.314Z</time></trkpt><trkpt lat="43.5573966" lon="12.5180479"><ele>1506.0</ele><time>2026-05-02T10:14:48.312Z</time></trkpt><trkpt lat="43.5573746" lon="12.5179643"><ele>1506.0</ele><time>2026-05-02T10:14:49.312Z</time></trkpt><trkpt lat="43.5573572" lon="12.5178089"><ele>1506.0</ele><time>2026-05-02T10:14:51.314Z</time></trkpt><trkpt lat="43.5573525" lon="12.5176468"><ele>1506.0</ele><time>2026-05-02T10:14:53.312Z</time></trkpt><trkpt lat="43.5573539" lon="12.517559"><ele>1506.0</ele><time>2026-05-02T10:14:54.337Z</time></trkpt><trkpt lat="43.5573678" lon="12.5173896"><ele>1504.1666666666667</ele><time>2026-05-02T10:14:56.315Z</time></trkpt><trkpt lat="43.5573691" lon="12.5172993"><ele>1502.3333333333333</ele><time>2026-05-02T10:14:57.315Z</time></trkpt><trkpt lat="43.5573675" lon="12.5172115"><ele>1500.5</ele><time>2026-05-02T10:14:58.315Z</time></trkpt><trkpt lat="43.5573634" lon="12.5171187"><ele>1498.6666666666665</ele><time>2026-05-02T10:14:59.316Z</time></trkpt><trkpt lat="43.5573477" lon="12.5170289"><ele>1496.8333333333333</ele><time>2026-05-02T10:15:00.313Z</time></trkpt><trkpt lat="43.5573337" lon="12.5168424"><ele>1495.0</ele><time>2026-05-02T10:15:02.314Z</time></trkpt><trkpt lat="43.557334" lon="12.5167461"><ele>1492.0000000000002</ele><time>2026-05-02T10:15:03.314Z</time></trkpt><trkpt lat="43.5573356" lon="12.5166433"><ele>1489.0</ele><time>2026-05-02T10:15:04.313Z</time></trkpt><trkpt lat="43.5573338" lon="12.5165408"><ele>1486.0</ele><time>2026-05-02T10:15:05.337Z</time></trkpt><trkpt lat="43.5573279" lon="12.5164378"><ele>1483.0</ele><time>2026-05-02T10:15:06.312Z</time></trkpt><trkpt lat="43.5573224" lon="12.5163396"><ele>1480.0</ele><time>2026-05-02T10:15:07.314Z</time></trkpt><trkpt lat="43.5573209" lon="12.5162502"><ele>1477.0000000000002</ele><time>2026-05-02T10:15:08.336Z</time></trkpt><trkpt lat="43.5573126" lon="12.5161579"><ele>1474.0</ele><time>2026-05-02T10:15:09.338Z</time></trkpt><trkpt lat="43.5573048" lon="12.5160666"><ele>1472.3333333333333</ele><time>2026-05-02T10:15:10.303Z</time></trkpt><trkpt lat="43.5572974" lon="12.5159766"><ele>1470.6666666666665</ele><time>2026-05-02T10:15:11.325Z</time></trkpt><trkpt lat="43.5572991" lon="12.515806"><ele>1469.0</ele><time>2026-05-02T10:15:13.33Z</time></trkpt><trkpt lat="43.5572849" lon="12.5156425"><ele>1467.3333333333333</ele><time>2026-05-02T10:15:15.336Z</time></trkpt><trkpt lat="43.5572719" lon="12.5155459"><ele>1465.6666666666667</ele><time>2026-05-02T10:15:16.336Z</time></trkpt><trkpt lat="43.5572624" lon="12.5154515"><ele>1464.0</ele><time>2026-05-02T10:15:17.335Z</time></trkpt><trkpt lat="43.557249" lon="12.5153485"><ele>1462.5714285714287</ele><time>2026-05-02T10:15:18.334Z</time></trkpt><trkpt lat="43.5572375" lon="12.5152514"><ele>1461.1428571428573</ele><time>2026-05-02T10:15:19.335Z</time></trkpt><trkpt lat="43.5572264" lon="12.5151552"><ele>1459.7142857142858</ele><time>2026-05-02T10:15:20.338Z</time></trkpt><trkpt lat="43.5572058" lon="12.5150552"><ele>1458.2857142857142</ele><time>2026-05-02T10:15:21.337Z</time></trkpt><trkpt lat="43.5571722" lon="12.5149644"><ele>1456.857142857143</ele><time>2026-05-02T10:15:22.311Z</time></trkpt><trkpt lat="43.5571368" lon="12.5148778"><ele>1455.4285714285713</ele><time>2026-05-02T10:15:23.337Z</time></trkpt><trkpt lat="43.5571005" lon="12.5148014"><ele>1454.0</ele><time>2026-05-02T10:15:24.338Z</time></trkpt><trkpt lat="43.5570708" lon="12.5146546"><ele>1454.0</ele><time>2026-05-02T10:15:26.337Z</time></trkpt><trkpt lat="43.5570155" lon="12.514538"><ele>1455.0</ele><time>2026-05-02T10:15:28.318Z</time></trkpt><trkpt lat="43.556964" lon="12.5144668"><ele>1455.0</ele><time>2026-05-02T10:15:30.315Z</time></trkpt><trkpt lat="43.5569187" lon="12.5145697"><ele>1455.0</ele><time>2026-05-02T10:15:33.315Z</time></trkpt></trkseg><trkseg><trkpt lat="43.5569961" lon="12.5146384"><ele>1451.4285714285716</ele><time>2026-05-02T10:38:54.316Z</time></trkpt><trkpt lat="43.5570638" lon="12.5146876"><ele>1451.8571428571427</ele><time>2026-05-02T10:38:56.316Z</time></trkpt><trkpt lat="43.5571013" lon="12.5147793"><ele>1452.2857142857142</ele><time>2026-05-02T10:38:58.317Z</time></trkpt><trkpt lat="43.5571404" lon="12.5148663"><ele>1452.7142857142858</ele><time>2026-05-02T10:39:00.313Z</time></trkpt><trkpt lat="43.5572059" lon="12.5148503"><ele>1453.1428571428573</ele><time>2026-05-02T10:39:03.316Z</time></trkpt><trkpt lat="43.5572199" lon="12.514748"><ele>1453.5714285714284</ele><time>2026-05-02T10:39:08.316Z</time></trkpt><trkpt lat="43.5572215" lon="12.5146402"><ele>1454.0</ele><time>2026-05-02T10:39:12.315Z</time></trkpt><trkpt lat="43.5572291" lon="12.5145509"><ele>1454.1666666666667</ele><time>2026-05-02T10:39:15.317Z</time></trkpt><trkpt lat="43.5572055" lon="12.5144573"><ele>1454.3333333333335</ele><time>2026-05-02T10:39:19.317Z</time></trkpt><trkpt lat="43.5571528" lon="12.5143851"><ele>1454.5</ele><time>2026-05-02T10:39:22.316Z</time></trkpt><trkpt lat="43.5570684" lon="12.5143398"><ele>1454.6666666666667</ele><time>2026-05-02T10:39:25.318Z</time></trkpt><trkpt lat="43.5569838" lon="12.5143377"><ele>1454.8333333333333</ele><time>2026-05-02T10:39:28.317Z</time></trkpt><trkpt lat="43.5569258" lon="12.5143821"><ele>1455.0</ele><time>2026-05-02T10:39:30.316Z</time></trkpt><trkpt lat="43.5568674" lon="12.5144532"><ele>1455.0</ele><time>2026-05-02T10:39:32.311Z</time></trkpt><trkpt lat="43.5568383" lon="12.5145595"><ele>1455.0</ele><time>2026-05-02T10:39:34.31Z</time></trkpt><trkpt lat="43.5568394" lon="12.5146795"><ele>1455.0</ele><time>2026-05-02T10:39:36.314Z</time></trkpt><trkpt lat="43.5568506" lon="12.5148195"><ele>1455.0</ele><time>2026-05-02T10:39:38.316Z</time></trkpt><trkpt lat="43.5568606" lon="12.5150934"><ele>1454.4285714285713</ele><time>2026-05-02T10:39:41.315Z</time></trkpt><trkpt lat="43.5568633" lon="12.5151867"><ele>1453.8571428571427</ele><time>2026-05-02T10:39:42.32Z</time></trkpt><trkpt lat="43.5568663" lon="12.5152833"><ele>1453.2857142857142</ele><time>2026-05-02T10:39:43.318Z</time></trkpt><trkpt lat="43.5568715" lon="12.5153745"><ele>1452.7142857142858</ele><time>2026-05-02T10:39:44.315Z</time></trkpt><trkpt lat="43.5568715" lon="12.5154806"><ele>1452.142857142857</ele><time>2026-05-02T10:39:45.317Z</time></trkpt><trkpt lat="43.5568745" lon="12.5155781"><ele>1451.5714285714287</ele><time>2026-05-02T10:39:46.317Z</time></trkpt><trkpt lat="43.556874" lon="12.5156765"><ele>1451.0</ele><time>2026-05-02T10:39:47.316Z</time></trkpt><trkpt lat="43.5568587" lon="12.5158574"><ele>1451.0</ele><time>2026-05-02T10:39:49.313Z</time></trkpt><trkpt lat="43.5568456" lon="12.5159461"><ele>1451.0</ele><time>2026-05-02T10:39:50.317Z</time></trkpt><trkpt lat="43.5568163" lon="12.5161104"><ele>1451.0</ele><time>2026-05-02T10:39:52.318Z</time></trkpt><trkpt lat="43.5567839" lon="12.5162753"><ele>1451.0</ele><time>2026-05-02T10:39:54.317Z</time></trkpt><trkpt lat="43.5567604" lon="12.5164305"><ele>1451.0</ele><time>2026-05-02T10:39:56.316Z</time></trkpt><trkpt lat="43.5567449" lon="12.5165238"><ele>1451.0</ele><time>2026-05-02T10:39:57.318Z</time></trkpt><trkpt lat="43.5567267" lon="12.5166397"><ele>1451.0</ele><time>2026-05-02T10:39:58.318Z</time></trkpt><trkpt lat="43.5567087" lon="12.5167704"><ele>1451.0</ele><time>2026-05-02T10:39:59.317Z</time></trkpt><trkpt lat="43.5566927" lon="12.5169099"><ele>1451.0</ele><time>2026-05-02T10:40:00.317Z</time></trkpt><trkpt lat="43.556677" lon="12.517032"><ele>1451.0</ele><time>2026-05-02T10:40:01.328Z</time></trkpt><trkpt lat="43.5566644" lon="12.5171593"><ele>1452.75</ele><time>2026-05-02T10:40:02.316Z</time></trkpt><trkpt lat="43.5566462" lon="12.5172799"><ele>1454.5</ele><time>2026-05-02T10:40:03.316Z</time></trkpt><trkpt lat="43.5566146" lon="12.5174269"><ele>1456.25</ele><time>2026-05-02T10:40:04.307Z</time></trkpt><trkpt lat="43.5565689" lon="12.5175919"><ele>1458.0</ele><time>2026-05-02T10:40:05.31Z</time></trkpt><trkpt lat="43.5565189" lon="12.5177518"><ele>1459.0</ele><time>2026-05-02T10:40:06.313Z</time></trkpt><trkpt lat="43.5564498" lon="12.5179164"><ele>1460.0</ele><time>2026-05-02T10:40:07.315Z</time></trkpt><trkpt lat="43.556407" lon="12.5180877"><ele>1461.0</ele><time>2026-05-02T10:40:08.311Z</time></trkpt><trkpt lat="43.556397" lon="12.5183014"><ele>1462.0</ele><time>2026-05-02T10:40:09.311Z</time></trkpt><trkpt lat="43.5564012" lon="12.5185575"><ele>1462.0</ele><time>2026-05-02T10:40:10.314Z</time></trkpt><trkpt lat="43.5563813" lon="12.5188059"><ele>1462.0</ele><time>2026-05-02T10:40:11.323Z</time></trkpt><trkpt lat="43.5563444" lon="12.5190434"><ele>1462.0</ele><time>2026-05-02T10:40:12.312Z</time></trkpt><trkpt lat="43.5563131" lon="12.5192606"><ele>1462.0</ele><time>2026-05-02T10:40:13.315Z</time></trkpt><trkpt lat="43.5562913" lon="12.5194439"><ele>1462.0</ele><time>2026-05-02T10:40:14.314Z</time></trkpt><trkpt lat="43.5562747" lon="12.5195963"><ele>1462.0</ele><time>2026-05-02T10:40:15.314Z</time></trkpt><trkpt lat="43.5562481" lon="12.5197362"><ele>1462.0</ele><time>2026-05-02T10:40:16.315Z</time></trkpt><trkpt lat="43.5561985" lon="12.5198392"><ele>1462.0</ele><time>2026-05-02T10:40:17.318Z</time></trkpt><trkpt lat="43.5561309" lon="12.5199157"><ele>1454.3999999999999</ele><time>2026-05-02T10:40:18.318Z</time></trkpt><trkpt lat="43.556067" lon="12.5199865"><ele>1446.8</ele><time>2026-05-02T10:40:19.319Z</time></trkpt><trkpt lat="43.5559773" lon="12.5200075"><ele>1439.2</ele><time>2026-05-02T10:40:20.315Z</time></trkpt><trkpt lat="43.5559221" lon="12.5199653"><ele>1431.6</ele><time>2026-05-02T10:40:21.318Z</time></trkpt><trkpt lat="43.5558766" lon="12.519736"><ele>1424.0</ele><time>2026-05-02T10:40:22.308Z</time></trkpt><trkpt lat="43.5559078" lon="12.5195607"><ele>1422.6666666666667</ele><time>2026-05-02T10:40:23.317Z</time></trkpt><trkpt lat="43.5559855" lon="12.5193324"><ele>1421.3333333333333</ele><time>2026-05-02T10:40:24.315Z</time></trkpt><trkpt lat="43.5559968" lon="12.5191216"><ele>1420.0</ele><time>2026-05-02T10:40:25.315Z</time></trkpt><trkpt lat="43.5559607" lon="12.5188751"><ele>1419.6666666666665</ele><time>2026-05-02T10:40:26.317Z</time></trkpt><trkpt lat="43.5559481" lon="12.5186411"><ele>1419.3333333333333</ele><time>2026-05-02T10:40:27.316Z</time></trkpt><trkpt lat="43.555897" lon="12.5183715"><ele>1419.0</ele><time>2026-05-02T10:40:28.317Z</time></trkpt><trkpt lat="43.5558919" lon="12.5181526"><ele>1419.0</ele><time>2026-05-02T10:40:29.316Z</time></trkpt><trkpt lat="43.5559148" lon="12.5179468"><ele>1419.0</ele><time>2026-05-02T10:40:30.316Z</time></trkpt><trkpt lat="43.5559338" lon="12.5177614"><ele>1419.0</ele><time>2026-05-02T10:40:31.32Z</time></trkpt><trkpt lat="43.5559321" lon="12.5175948"><ele>1419.0</ele><time>2026-05-02T10:40:32.316Z</time></trkpt><trkpt lat="43.5559251" lon="12.5174211"><ele>1419.2</ele><time>2026-05-02T10:40:33.317Z</time></trkpt><trkpt lat="43.5558887" lon="12.5172997"><ele>1419.4</ele><time>2026-05-02T10:40:34.318Z</time></trkpt><trkpt lat="43.5557413" lon="12.5173352"><ele>1419.6</ele><time>2026-05-02T10:40:35.315Z</time></trkpt><trkpt lat="43.5556577" lon="12.5173655"><ele>1419.8</ele><time>2026-05-02T10:40:36.314Z</time></trkpt><trkpt lat="43.5555745" lon="12.5173934"><ele>1420.0</ele><time>2026-05-02T10:40:37.317Z</time></trkpt><trkpt lat="43.555565" lon="12.5175593"><ele>1420.0</ele><time>2026-05-02T10:40:38.317Z</time></trkpt><trkpt lat="43.5555633" lon="12.5177254"><ele>1420.0</ele><time>2026-05-02T10:40:39.318Z</time></trkpt><trkpt lat="43.555571" lon="12.5178833"><ele>1420.0</ele><time>2026-05-02T10:40:40.317Z</time></trkpt><trkpt lat="43.5555409" lon="12.5179868"><ele>1420.0</ele><time>2026-05-02T10:40:41.318Z</time></trkpt><trkpt lat="43.5555015" lon="12.5180985"><ele>1420.0</ele><time>2026-05-02T10:40:42.32Z</time></trkpt><trkpt lat="43.5553929" lon="12.5181172"><ele>1413.0</ele><time>2026-05-02T10:40:44.316Z</time></trkpt><trkpt lat="43.5553103" lon="12.5180222"><ele>1406.0</ele><time>2026-05-02T10:40:45.317Z</time></trkpt><trkpt lat="43.5552326" lon="12.5177435"><ele>1399.0</ele><time>2026-05-02T10:40:46.315Z</time></trkpt><trkpt lat="43.5551614" lon="12.5175454"><ele>1399.0</ele><time>2026-05-02T10:40:47.318Z</time></trkpt><trkpt lat="43.5550868" lon="12.5173462"><ele>1399.0</ele><time>2026-05-02T10:40:48.315Z</time></trkpt><trkpt lat="43.5550178" lon="12.517149"><ele>1399.0</ele><time>2026-05-02T10:40:49.315Z</time></trkpt><trkpt lat="43.5549508" lon="12.5169592"><ele>1398.75</ele><time>2026-05-02T10:40:50.317Z</time></trkpt><trkpt lat="43.5548886" lon="12.5167772"><ele>1398.5</ele><time>2026-05-02T10:40:51.324Z</time></trkpt><trkpt lat="43.5548358" lon="12.5166141"><ele>1398.25</ele><time>2026-05-02T10:40:52.315Z</time></trkpt><trkpt lat="43.5547684" lon="12.5164509"><ele>1398.0</ele><time>2026-05-02T10:40:53.316Z</time></trkpt><trkpt lat="43.5547065" lon="12.5162851"><ele>1395.75</ele><time>2026-05-02T10:40:54.31Z</time></trkpt><trkpt lat="43.5546381" lon="12.5161323"><ele>1393.5</ele><time>2026-05-02T10:40:55.32Z</time></trkpt><trkpt lat="43.5545695" lon="12.5159931"><ele>1391.25</ele><time>2026-05-02T10:40:56.318Z</time></trkpt><trkpt lat="43.5545339" lon="12.5158506"><ele>1389.0</ele><time>2026-05-02T10:40:57.316Z</time></trkpt><trkpt lat="43.5545287" lon="12.5157107"><ele>1389.0</ele><time>2026-05-02T10:40:58.318Z</time></trkpt><trkpt lat="43.5545231" lon="12.5155871"><ele>1389.0</ele><time>2026-05-02T10:40:59.315Z</time></trkpt><trkpt lat="43.5545863" lon="12.5155265"><ele>1389.0</ele><time>2026-05-02T10:41:00.317Z</time></trkpt><trkpt lat="43.5547045" lon="12.5155429"><ele>1389.0</ele><time>2026-05-02T10:41:01.314Z</time></trkpt><trkpt lat="43.5547644" lon="12.5156227"><ele>1389.0</ele><time>2026-05-02T10:41:02.315Z</time></trkpt><trkpt lat="43.5548351" lon="12.5156869"><ele>1389.0</ele><time>2026-05-02T10:41:03.317Z</time></trkpt><trkpt lat="43.5548802" lon="12.515812"><ele>1389.0</ele><time>2026-05-02T10:41:04.317Z</time></trkpt><trkpt lat="43.5549383" lon="12.5159049"><ele>1389.0</ele><time>2026-05-02T10:41:05.316Z</time></trkpt><trkpt lat="43.555004" lon="12.5159479"><ele>1389.0</ele><time>2026-05-02T10:41:06.32Z</time></trkpt><trkpt lat="43.5550675" lon="12.5159884"><ele>1389.0</ele><time>2026-05-02T10:41:07.315Z</time></trkpt><trkpt lat="43.5551519" lon="12.5159452"><ele>1389.0</ele><time>2026-05-02T10:41:08.317Z</time></trkpt><trkpt lat="43.5552233" lon="12.5158483"><ele>1389.0</ele><time>2026-05-02T10:41:09.316Z</time></trkpt><trkpt lat="43.5552676" lon="12.5157415"><ele>1389.0</ele><time>2026-05-02T10:41:10.313Z</time></trkpt><trkpt lat="43.5553508" lon="12.5156444"><ele>1389.0</ele><time>2026-05-02T10:41:11.32Z</time></trkpt><trkpt lat="43.5553809" lon="12.5155141"><ele>1389.0</ele><time>2026-05-02T10:41:12.317Z</time></trkpt><trkpt lat="43.5553909" lon="12.5153886"><ele>1389.0</ele><time>2026-05-02T10:41:13.317Z</time></trkpt><trkpt lat="43.5552374" lon="12.5150614"><ele>1386.6666666666667</ele><time>2026-05-02T10:41:14.315Z</time></trkpt><trkpt lat="43.5552032" lon="12.5148338"><ele>1384.3333333333335</ele><time>2026-05-02T10:41:15.317Z</time></trkpt><trkpt lat="43.5551633" lon="12.5146098"><ele>1382.0</ele><time>2026-05-02T10:41:16.315Z</time></trkpt><trkpt lat="43.5551208" lon="12.5144266"><ele>1381.25</ele><time>2026-05-02T10:41:17.315Z</time></trkpt><trkpt lat="43.5550884" lon="12.514273"><ele>1380.5</ele><time>2026-05-02T10:41:18.318Z</time></trkpt><trkpt lat="43.5550537" lon="12.5141083"><ele>1379.75</ele><time>2026-05-02T10:41:19.315Z</time></trkpt><trkpt lat="43.5548843" lon="12.5140666"><ele>1379.0</ele><time>2026-05-02T10:41:20.316Z</time></trkpt><trkpt lat="43.5547716" lon="12.5140185"><ele>1379.0</ele><time>2026-05-02T10:41:21.317Z</time></trkpt><trkpt lat="43.5546795" lon="12.5140134"><ele>1379.0</ele><time>2026-05-02T10:41:22.317Z</time></trkpt><trkpt lat="43.5545889" lon="12.5140579"><ele>1379.0</ele><time>2026-05-02T10:41:23.315Z</time></trkpt><trkpt lat="43.5545114" lon="12.5141134"><ele>1379.0</ele><time>2026-05-02T10:41:24.315Z</time></trkpt><trkpt lat="43.5544407" lon="12.5142727"><ele>1379.0</ele><time>2026-05-02T10:41:25.312Z</time></trkpt><trkpt lat="43.5543637" lon="12.5144048"><ele>1374.5</ele><time>2026-05-02T10:41:26.315Z</time></trkpt><trkpt lat="43.554293" lon="12.5145391"><ele>1370.0</ele><time>2026-05-02T10:41:27.315Z</time></trkpt><trkpt lat="43.5542052" lon="12.5147005"><ele>1365.5</ele><time>2026-05-02T10:41:28.319Z</time></trkpt><trkpt lat="43.5541008" lon="12.5148611"><ele>1361.0</ele><time>2026-05-02T10:41:29.317Z</time></trkpt><trkpt lat="43.5539769" lon="12.5150215"><ele>1361.0</ele><time>2026-05-02T10:41:30.321Z</time></trkpt><trkpt lat="43.5538129" lon="12.5151716"><ele>1361.0</ele><time>2026-05-02T10:41:31.319Z</time></trkpt><trkpt lat="43.5536763" lon="12.515346"><ele>1361.0</ele><time>2026-05-02T10:41:32.318Z</time></trkpt><trkpt lat="43.5535169" lon="12.5154907"><ele>1353.5</ele><time>2026-05-02T10:41:33.339Z</time></trkpt><trkpt lat="43.5533108" lon="12.5156599"><ele>1346.0</ele><time>2026-05-02T10:41:34.318Z</time></trkpt><trkpt lat="43.5531648" lon="12.5159608"><ele>1346.0</ele><time>2026-05-02T10:41:35.321Z</time></trkpt><trkpt lat="43.5530211" lon="12.5161664"><ele>1346.0</ele><time>2026-05-02T10:41:36.318Z</time></trkpt><trkpt lat="43.5528708" lon="12.5163643"><ele>1346.0</ele><time>2026-05-02T10:41:37.319Z</time></trkpt><trkpt lat="43.5526989" lon="12.5165091"><ele>1340.6666666666667</ele><time>2026-05-02T10:41:38.319Z</time></trkpt><trkpt lat="43.5525441" lon="12.5166664"><ele>1335.3333333333333</ele><time>2026-05-02T10:41:39.318Z</time></trkpt><trkpt lat="43.552358" lon="12.5168214"><ele>1330.0</ele><time>2026-05-02T10:41:40.318Z</time></trkpt><trkpt lat="43.5522358" lon="12.5170006"><ele>1332.3333333333333</ele><time>2026-05-02T10:41:41.318Z</time></trkpt><trkpt lat="43.5521035" lon="12.5171191"><ele>1334.6666666666667</ele><time>2026-05-02T10:41:42.316Z</time></trkpt><trkpt lat="43.5519615" lon="12.5172799"><ele>1337.0</ele><time>2026-05-02T10:41:43.316Z</time></trkpt><trkpt lat="43.5518644" lon="12.5175288"><ele>1329.3333333333335</ele><time>2026-05-02T10:41:44.316Z</time></trkpt><trkpt lat="43.5517624" lon="12.5177616"><ele>1321.6666666666667</ele><time>2026-05-02T10:41:45.318Z</time></trkpt><trkpt lat="43.5516572" lon="12.5179907"><ele>1314.0</ele><time>2026-05-02T10:41:46.318Z</time></trkpt><trkpt lat="43.5515611" lon="12.518213"><ele>1314.0</ele><time>2026-05-02T10:41:47.315Z</time></trkpt><trkpt lat="43.5514535" lon="12.5184448"><ele>1314.0</ele><time>2026-05-02T10:41:48.316Z</time></trkpt><trkpt lat="43.5513454" lon="12.5186479"><ele>1314.0</ele><time>2026-05-02T10:41:49.314Z</time></trkpt><trkpt lat="43.5512625" lon="12.5188347"><ele>1309.0</ele><time>2026-05-02T10:41:50.315Z</time></trkpt><trkpt lat="43.5511458" lon="12.5190415"><ele>1304.0</ele><time>2026-05-02T10:41:51.314Z</time></trkpt><trkpt lat="43.5510439" lon="12.5192171"><ele>1299.0</ele><time>2026-05-02T10:41:52.317Z</time></trkpt><trkpt lat="43.550951" lon="12.5194037"><ele>1300.25</ele><time>2026-05-02T10:41:53.317Z</time></trkpt><trkpt lat="43.5508449" lon="12.5196023"><ele>1301.5</ele><time>2026-05-02T10:41:54.315Z</time></trkpt><trkpt lat="43.5507852" lon="12.5197782"><ele>1302.75</ele><time>2026-05-02T10:41:55.316Z</time></trkpt><trkpt lat="43.5506932" lon="12.5199025"><ele>1304.0</ele><time>2026-05-02T10:41:56.316Z</time></trkpt><trkpt lat="43.5506002" lon="12.5200339"><ele>1304.0</ele><time>2026-05-02T10:41:57.311Z</time></trkpt><trkpt lat="43.550492" lon="12.5200797"><ele>1304.0</ele><time>2026-05-02T10:41:58.314Z</time></trkpt><trkpt lat="43.5503641" lon="12.5200135"><ele>1304.0</ele><time>2026-05-02T10:41:59.316Z</time></trkpt><trkpt lat="43.55026" lon="12.5199633"><ele>1304.0</ele><time>2026-05-02T10:42:00.319Z</time></trkpt><trkpt lat="43.5501677" lon="12.5198645"><ele>1299.75</ele><time>2026-05-02T10:42:01.323Z</time></trkpt><trkpt lat="43.550117" lon="12.5197282"><ele>1295.5</ele><time>2026-05-02T10:42:02.317Z</time></trkpt><trkpt lat="43.5500559" lon="12.5195963"><ele>1291.25</ele><time>2026-05-02T10:42:03.316Z</time></trkpt><trkpt lat="43.550123" lon="12.5193604"><ele>1287.0</ele><time>2026-05-02T10:42:04.316Z</time></trkpt><trkpt lat="43.5501249" lon="12.5191596"><ele>1286.6666666666667</ele><time>2026-05-02T10:42:05.321Z</time></trkpt><trkpt lat="43.5501503" lon="12.5189038"><ele>1286.3333333333335</ele><time>2026-05-02T10:42:06.316Z</time></trkpt><trkpt lat="43.5501828" lon="12.5186249"><ele>1286.0</ele><time>2026-05-02T10:42:07.316Z</time></trkpt><trkpt lat="43.5502281" lon="12.5183398"><ele>1283.6666666666667</ele><time>2026-05-02T10:42:08.315Z</time></trkpt><trkpt lat="43.5502711" lon="12.5180392"><ele>1281.3333333333333</ele><time>2026-05-02T10:42:09.316Z</time></trkpt><trkpt lat="43.5503115" lon="12.5177538"><ele>1279.0</ele><time>2026-05-02T10:42:10.316Z</time></trkpt><trkpt lat="43.5503593" lon="12.5174722"><ele>1279.3333333333333</ele><time>2026-05-02T10:42:11.314Z</time></trkpt><trkpt lat="43.5504015" lon="12.5171847"><ele>1279.6666666666667</ele><time>2026-05-02T10:42:12.314Z</time></trkpt><trkpt lat="43.5504571" lon="12.5169568"><ele>1280.0</ele><time>2026-05-02T10:42:13.313Z</time></trkpt><trkpt lat="43.550506" lon="12.5167074"><ele>1280.0</ele><time>2026-05-02T10:42:14.316Z</time></trkpt><trkpt lat="43.5505474" lon="12.5164871"><ele>1280.0</ele><time>2026-05-02T10:42:15.316Z</time></trkpt><trkpt lat="43.5505905" lon="12.5162763"><ele>1280.0</ele><time>2026-05-02T10:42:16.316Z</time></trkpt><trkpt lat="43.5506537" lon="12.5160888"><ele>1277.3333333333335</ele><time>2026-05-02T10:42:17.316Z</time></trkpt><trkpt lat="43.550727" lon="12.5158996"><ele>1274.6666666666667</ele><time>2026-05-02T10:42:18.313Z</time></trkpt><trkpt lat="43.5508191" lon="12.5157453"><ele>1272.0</ele><time>2026-05-02T10:42:19.316Z</time></trkpt><trkpt lat="43.5509423" lon="12.5155155"><ele>1273.6666666666667</ele><time>2026-05-02T10:42:20.317Z</time></trkpt><trkpt lat="43.5510579" lon="12.5152768"><ele>1275.3333333333335</ele><time>2026-05-02T10:42:21.316Z</time></trkpt><trkpt lat="43.5511645" lon="12.515008"><ele>1277.0</ele><time>2026-05-02T10:42:22.317Z</time></trkpt><trkpt lat="43.5512463" lon="12.5147329"><ele>1271.3333333333335</ele><time>2026-05-02T10:42:23.316Z</time></trkpt><trkpt lat="43.551317" lon="12.5144621"><ele>1265.6666666666667</ele><time>2026-05-02T10:42:24.317Z</time></trkpt><trkpt lat="43.5513878" lon="12.5142004"><ele>1260.0</ele><time>2026-05-02T10:42:25.316Z</time></trkpt><trkpt lat="43.5514512" lon="12.5139795"><ele>1260.0</ele><time>2026-05-02T10:42:26.317Z</time></trkpt><trkpt lat="43.5515092" lon="12.513782"><ele>1260.0</ele><time>2026-05-02T10:42:27.315Z</time></trkpt><trkpt lat="43.5515579" lon="12.5135895"><ele>1260.0</ele><time>2026-05-02T10:42:28.317Z</time></trkpt><trkpt lat="43.5515422" lon="12.5134871"><ele>1260.0</ele><time>2026-05-02T10:42:29.313Z</time></trkpt><trkpt lat="43.5515067" lon="12.5133749"><ele>1258.0</ele><time>2026-05-02T10:42:30.316Z</time></trkpt><trkpt lat="43.5514395" lon="12.5132913"><ele>1256.0</ele><time>2026-05-02T10:42:31.31Z</time></trkpt><trkpt lat="43.551344" lon="12.5132491"><ele>1254.0</ele><time>2026-05-02T10:42:32.316Z</time></trkpt><trkpt lat="43.5512495" lon="12.513267"><ele>1252.0</ele><time>2026-05-02T10:42:33.315Z</time></trkpt><trkpt lat="43.5511724" lon="12.5133364"><ele>1250.0</ele><time>2026-05-02T10:42:34.315Z</time></trkpt><trkpt lat="43.5511128" lon="12.5134494"><ele>1247.4</ele><time>2026-05-02T10:42:35.317Z</time></trkpt><trkpt lat="43.5510559" lon="12.513579"><ele>1244.8</ele><time>2026-05-02T10:42:36.318Z</time></trkpt><trkpt lat="43.5509877" lon="12.5136663"><ele>1242.2</ele><time>2026-05-02T10:42:37.316Z</time></trkpt><trkpt lat="43.5509069" lon="12.5137048"><ele>1239.6</ele><time>2026-05-02T10:42:38.316Z</time></trkpt><trkpt lat="43.5508273" lon="12.5136766"><ele>1237.0</ele><time>2026-05-02T10:42:39.317Z</time></trkpt><trkpt lat="43.5507627" lon="12.513599"><ele>1237.0</ele><time>2026-05-02T10:42:40.318Z</time></trkpt><trkpt lat="43.5507375" lon="12.5134875"><ele>1237.0</ele><time>2026-05-02T10:42:41.314Z</time></trkpt><trkpt lat="43.5507612" lon="12.5133665"><ele>1237.0</ele><time>2026-05-02T10:42:42.315Z</time></trkpt><trkpt lat="43.5508164" lon="12.5132416"><ele>1237.0</ele><time>2026-05-02T10:42:43.314Z</time></trkpt><trkpt lat="43.5509047" lon="12.5130907"><ele>1237.0</ele><time>2026-05-02T10:42:44.317Z</time></trkpt><trkpt lat="43.5510001" lon="12.5129374"><ele>1238.5</ele><time>2026-05-02T10:42:45.316Z</time></trkpt><trkpt lat="43.5510939" lon="12.5127787"><ele>1240.0</ele><time>2026-05-02T10:42:46.317Z</time></trkpt><trkpt lat="43.5511851" lon="12.5126266"><ele>1241.5</ele><time>2026-05-02T10:42:47.307Z</time></trkpt><trkpt lat="43.5512654" lon="12.5124891"><ele>1243.0</ele><time>2026-05-02T10:42:48.317Z</time></trkpt><trkpt lat="43.55132" lon="12.512336"><ele>1243.0</ele><time>2026-05-02T10:42:49.315Z</time></trkpt><trkpt lat="43.5513404" lon="12.512162"><ele>1243.0</ele><time>2026-05-02T10:42:50.315Z</time></trkpt><trkpt lat="43.551313" lon="12.5119888"><ele>1243.0</ele><time>2026-05-02T10:42:51.317Z</time></trkpt><trkpt lat="43.5512723" lon="12.5118337"><ele>1243.0</ele><time>2026-05-02T10:42:52.316Z</time></trkpt><trkpt lat="43.551243" lon="12.5116829"><ele>1241.0</ele><time>2026-05-02T10:42:53.316Z</time></trkpt><trkpt lat="43.5512898" lon="12.5115338"><ele>1239.0</ele><time>2026-05-02T10:42:54.316Z</time></trkpt><trkpt lat="43.5513433" lon="12.5113835"><ele>1237.0</ele><time>2026-05-02T10:42:55.316Z</time></trkpt><trkpt lat="43.5514159" lon="12.5112133"><ele>1235.0</ele><time>2026-05-02T10:42:56.317Z</time></trkpt><trkpt lat="43.551475" lon="12.5110268"><ele>1230.6666666666667</ele><time>2026-05-02T10:42:57.315Z</time></trkpt><trkpt lat="43.5515196" lon="12.5108323"><ele>1226.3333333333333</ele><time>2026-05-02T10:42:58.314Z</time></trkpt><trkpt lat="43.5515354" lon="12.5106056"><ele>1222.0</ele><time>2026-05-02T10:42:59.317Z</time></trkpt><trkpt lat="43.5515301" lon="12.510364"><ele>1221.3333333333333</ele><time>2026-05-02T10:43:00.316Z</time></trkpt><trkpt lat="43.5514967" lon="12.5101325"><ele>1220.6666666666667</ele><time>2026-05-02T10:43:01.314Z</time></trkpt><trkpt lat="43.5514193" lon="12.509853"><ele>1220.0</ele><time>2026-05-02T10:43:02.317Z</time></trkpt><trkpt lat="43.5513562" lon="12.5095879"><ele>1221.3333333333335</ele><time>2026-05-02T10:43:03.317Z</time></trkpt><trkpt lat="43.5512792" lon="12.5093281"><ele>1222.6666666666667</ele><time>2026-05-02T10:43:04.316Z</time></trkpt><trkpt lat="43.5512154" lon="12.509079"><ele>1224.0</ele><time>2026-05-02T10:43:05.317Z</time></trkpt><trkpt lat="43.5511471" lon="12.5088304"><ele>1217.3333333333333</ele><time>2026-05-02T10:43:06.316Z</time></trkpt><trkpt lat="43.5510898" lon="12.5085783"><ele>1210.6666666666665</ele><time>2026-05-02T10:43:07.316Z</time></trkpt><trkpt lat="43.5510643" lon="12.5083507"><ele>1204.0</ele><time>2026-05-02T10:43:08.316Z</time></trkpt><trkpt lat="43.5509229" lon="12.5082131"><ele>1204.0</ele><time>2026-05-02T10:43:09.314Z</time></trkpt><trkpt lat="43.5508129" lon="12.5080777"><ele>1204.0</ele><time>2026-05-02T10:43:10.314Z</time></trkpt><trkpt lat="43.5506717" lon="12.5079259"><ele>1204.0</ele><time>2026-05-02T10:43:11.316Z</time></trkpt><trkpt lat="43.5505305" lon="12.5077744"><ele>1200.6666666666665</ele><time>2026-05-02T10:43:12.315Z</time></trkpt><trkpt lat="43.5503744" lon="12.5076253"><ele>1197.3333333333333</ele><time>2026-05-02T10:43:13.313Z</time></trkpt><trkpt lat="43.5501942" lon="12.5074945"><ele>1194.0</ele><time>2026-05-02T10:43:14.314Z</time></trkpt><trkpt lat="43.5499968" lon="12.5073744"><ele>1194.0</ele><time>2026-05-02T10:43:15.316Z</time></trkpt><trkpt lat="43.5497855" lon="12.5072395"><ele>1194.0</ele><time>2026-05-02T10:43:16.317Z</time></trkpt><trkpt lat="43.549588" lon="12.5070989"><ele>1195.3333333333333</ele><time>2026-05-02T10:43:17.311Z</time></trkpt><trkpt lat="43.5494013" lon="12.5069457"><ele>1196.6666666666665</ele><time>2026-05-02T10:43:18.313Z</time></trkpt><trkpt lat="43.5492278" lon="12.5067991"><ele>1198.0</ele><time>2026-05-02T10:43:19.312Z</time></trkpt><trkpt lat="43.549072" lon="12.5066751"><ele>1198.0</ele><time>2026-05-02T10:43:20.313Z</time></trkpt><trkpt lat="43.5489475" lon="12.5065831"><ele>1198.0</ele><time>2026-05-02T10:43:21.314Z</time></trkpt><trkpt lat="43.5488274" lon="12.5065353"><ele>1198.0</ele><time>2026-05-02T10:43:22.311Z</time></trkpt><trkpt lat="43.5487004" lon="12.5065306"><ele>1198.0</ele><time>2026-05-02T10:43:23.314Z</time></trkpt><trkpt lat="43.5485587" lon="12.5064946"><ele>1202.0</ele><time>2026-05-02T10:43:24.311Z</time></trkpt><trkpt lat="43.548413" lon="12.5063934"><ele>1206.0</ele><time>2026-05-02T10:43:25.312Z</time></trkpt><trkpt lat="43.5482465" lon="12.506284"><ele>1210.0</ele><time>2026-05-02T10:43:26.313Z</time></trkpt><trkpt lat="43.5480696" lon="12.5062005"><ele>1210.0</ele><time>2026-05-02T10:43:27.313Z</time></trkpt><trkpt lat="43.5479058" lon="12.5061388"><ele>1210.0</ele><time>2026-05-02T10:43:28.312Z</time></trkpt><trkpt lat="43.5477701" lon="12.5060731"><ele>1210.0</ele><time>2026-05-02T10:43:29.314Z</time></trkpt><trkpt lat="43.5476673" lon="12.5059865"><ele>1210.0</ele><time>2026-05-02T10:43:30.314Z</time></trkpt><trkpt lat="43.5475891" lon="12.505846"><ele>1201.75</ele><time>2026-05-02T10:43:31.312Z</time></trkpt><trkpt lat="43.5474708" lon="12.5057543"><ele>1193.5</ele><time>2026-05-02T10:43:32.314Z</time></trkpt><trkpt lat="43.5473445" lon="12.5057197"><ele>1185.25</ele><time>2026-05-02T10:43:33.313Z</time></trkpt><trkpt lat="43.5472013" lon="12.5056815"><ele>1177.0</ele><time>2026-05-02T10:43:34.315Z</time></trkpt><trkpt lat="43.5470657" lon="12.5056125"><ele>1170.0</ele><time>2026-05-02T10:43:35.315Z</time></trkpt><trkpt lat="43.5469247" lon="12.5056018"><ele>1163.0</ele><time>2026-05-02T10:43:36.316Z</time></trkpt><trkpt lat="43.546785" lon="12.5055848"><ele>1156.0</ele><time>2026-05-02T10:43:37.314Z</time></trkpt><trkpt lat="43.5466402" lon="12.5055603"><ele>1149.0</ele><time>2026-05-02T10:43:38.316Z</time></trkpt><trkpt lat="43.5465005" lon="12.5055409"><ele>1149.0</ele><time>2026-05-02T10:43:39.315Z</time></trkpt><trkpt lat="43.5463503" lon="12.5056049"><ele>1149.0</ele><time>2026-05-02T10:43:40.315Z</time></trkpt><trkpt lat="43.5462002" lon="12.505582"><ele>1149.0</ele><time>2026-05-02T10:43:41.315Z</time></trkpt><trkpt lat="43.5460455" lon="12.5055425"><ele>1149.0</ele><time>2026-05-02T10:43:42.314Z</time></trkpt><trkpt lat="43.5458881" lon="12.5055752"><ele>1149.0</ele><time>2026-05-02T10:43:43.315Z</time></trkpt><trkpt lat="43.5457468" lon="12.5056148"><ele>1149.0</ele><time>2026-05-02T10:43:44.315Z</time></trkpt><trkpt lat="43.5455984" lon="12.5056272"><ele>1149.0</ele><time>2026-05-02T10:43:45.315Z</time></trkpt><trkpt lat="43.5454604" lon="12.5056206"><ele>1149.0</ele><time>2026-05-02T10:43:46.316Z</time></trkpt><trkpt lat="43.5453458" lon="12.5056644"><ele>1149.0</ele><time>2026-05-02T10:43:47.315Z</time></trkpt><trkpt lat="43.5452479" lon="12.5057294"><ele>1149.0</ele><time>2026-05-02T10:43:48.316Z</time></trkpt><trkpt lat="43.545152" lon="12.5058009"><ele>1146.0</ele><time>2026-05-02T10:43:49.31Z</time></trkpt><trkpt lat="43.5450568" lon="12.5058398"><ele>1143.0</ele><time>2026-05-02T10:43:50.31Z</time></trkpt><trkpt lat="43.5449943" lon="12.5057425"><ele>1140.0</ele><time>2026-05-02T10:43:51.312Z</time></trkpt><trkpt lat="43.5449298" lon="12.5056257"><ele>1137.0</ele><time>2026-05-02T10:43:52.313Z</time></trkpt><trkpt lat="43.5448886" lon="12.5054716"><ele>1134.0</ele><time>2026-05-02T10:43:53.312Z</time></trkpt><trkpt lat="43.5448736" lon="12.5053158"><ele>1134.0</ele><time>2026-05-02T10:43:54.315Z</time></trkpt><trkpt lat="43.5449068" lon="12.5051666"><ele>1134.0</ele><time>2026-05-02T10:43:55.312Z</time></trkpt><trkpt lat="43.5449819" lon="12.5050156"><ele>1134.0</ele><time>2026-05-02T10:43:56.304Z</time></trkpt><trkpt lat="43.5450888" lon="12.5048514"><ele>1134.0</ele><time>2026-05-02T10:43:57.307Z</time></trkpt><trkpt lat="43.5451687" lon="12.5046611"><ele>1128.6666666666667</ele><time>2026-05-02T10:43:58.312Z</time></trkpt><trkpt lat="43.5452173" lon="12.5044398"><ele>1123.3333333333335</ele><time>2026-05-02T10:43:59.313Z</time></trkpt><trkpt lat="43.5452465" lon="12.5041922"><ele>1118.0</ele><time>2026-05-02T10:44:00.315Z</time></trkpt><trkpt lat="43.5452683" lon="12.5039378"><ele>1113.0</ele><time>2026-05-02T10:44:01.313Z</time></trkpt><trkpt lat="43.5452991" lon="12.5036796"><ele>1108.0</ele><time>2026-05-02T10:44:02.313Z</time></trkpt><trkpt lat="43.5453386" lon="12.5034268"><ele>1103.0</ele><time>2026-05-02T10:44:03.314Z</time></trkpt><trkpt lat="43.5453854" lon="12.5031829"><ele>1112.3333333333335</ele><time>2026-05-02T10:44:04.31Z</time></trkpt><trkpt lat="43.5454401" lon="12.5029507"><ele>1121.6666666666667</ele><time>2026-05-02T10:44:05.314Z</time></trkpt><trkpt lat="43.5454991" lon="12.502725"><ele>1131.0</ele><time>2026-05-02T10:44:06.308Z</time></trkpt><trkpt lat="43.5455558" lon="12.5025077"><ele>1131.0</ele><time>2026-05-02T10:44:07.315Z</time></trkpt><trkpt lat="43.5456159" lon="12.5022993"><ele>1131.0</ele><time>2026-05-02T10:44:08.315Z</time></trkpt><trkpt lat="43.5456779" lon="12.5020961"><ele>1131.0</ele><time>2026-05-02T10:44:09.317Z</time></trkpt><trkpt lat="43.5457397" lon="12.5018944"><ele>1125.0</ele><time>2026-05-02T10:44:10.319Z</time></trkpt><trkpt lat="43.5458018" lon="12.5016946"><ele>1119.0</ele><time>2026-05-02T10:44:11.317Z</time></trkpt><trkpt lat="43.5458617" lon="12.5014971"><ele>1113.0</ele><time>2026-05-02T10:44:12.316Z</time></trkpt><trkpt lat="43.5459317" lon="12.5013141"><ele>1105.6666666666667</ele><time>2026-05-02T10:44:13.316Z</time></trkpt><trkpt lat="43.5460092" lon="12.5011245"><ele>1098.3333333333335</ele><time>2026-05-02T10:44:14.315Z</time></trkpt><trkpt lat="43.5460909" lon="12.5009433"><ele>1091.0</ele><time>2026-05-02T10:44:15.316Z</time></trkpt><trkpt lat="43.5461849" lon="12.5007658"><ele>1094.0</ele><time>2026-05-02T10:44:16.317Z</time></trkpt><trkpt lat="43.5462782" lon="12.5005833"><ele>1097.0</ele><time>2026-05-02T10:44:17.316Z</time></trkpt><trkpt lat="43.5463739" lon="12.5004001"><ele>1100.0</ele><time>2026-05-02T10:44:18.317Z</time></trkpt><trkpt lat="43.5464846" lon="12.5002282"><ele>1100.0</ele><time>2026-05-02T10:44:19.316Z</time></trkpt><trkpt lat="43.5465999" lon="12.5000681"><ele>1100.0</ele><time>2026-05-02T10:44:20.314Z</time></trkpt><trkpt lat="43.5467231" lon="12.4999207"><ele>1100.0</ele><time>2026-05-02T10:44:21.315Z</time></trkpt><trkpt lat="43.5468433" lon="12.4997705"><ele>1100.0</ele><time>2026-05-02T10:44:22.311Z</time></trkpt><trkpt lat="43.5469601" lon="12.4996262"><ele>1100.0</ele><time>2026-05-02T10:44:23.316Z</time></trkpt><trkpt lat="43.5470764" lon="12.4994813"><ele>1100.0</ele><time>2026-05-02T10:44:24.316Z</time></trkpt><trkpt lat="43.5471945" lon="12.4993434"><ele>1097.6666666666667</ele><time>2026-05-02T10:44:25.315Z</time></trkpt><trkpt lat="43.5473178" lon="12.4992051"><ele>1095.3333333333333</ele><time>2026-05-02T10:44:26.316Z</time></trkpt><trkpt lat="43.5474373" lon="12.4990589"><ele>1093.0</ele><time>2026-05-02T10:44:27.314Z</time></trkpt><trkpt lat="43.5475524" lon="12.4988992"><ele>1092.3333333333333</ele><time>2026-05-02T10:44:28.313Z</time></trkpt><trkpt lat="43.5476648" lon="12.4987424"><ele>1091.6666666666667</ele><time>2026-05-02T10:44:29.311Z</time></trkpt><trkpt lat="43.5477737" lon="12.4985858"><ele>1091.0</ele><time>2026-05-02T10:44:30.315Z</time></trkpt><trkpt lat="43.5478858" lon="12.4984326"><ele>1091.0</ele><time>2026-05-02T10:44:31.316Z</time></trkpt><trkpt lat="43.5480204" lon="12.4982564"><ele>1091.0</ele><time>2026-05-02T10:44:32.316Z</time></trkpt><trkpt lat="43.5481576" lon="12.4980855"><ele>1091.0</ele><time>2026-05-02T10:44:33.314Z</time></trkpt><trkpt lat="43.5483086" lon="12.4978634"><ele>1091.0</ele><time>2026-05-02T10:44:34.315Z</time></trkpt><trkpt lat="43.5484664" lon="12.4976498"><ele>1091.0</ele><time>2026-05-02T10:44:35.318Z</time></trkpt><trkpt lat="43.5486135" lon="12.4974178"><ele>1091.0</ele><time>2026-05-02T10:44:36.317Z</time></trkpt><trkpt lat="43.5487554" lon="12.4972019"><ele>1082.3333333333335</ele><time>2026-05-02T10:44:37.316Z</time></trkpt><trkpt lat="43.548894" lon="12.4969848"><ele>1073.6666666666667</ele><time>2026-05-02T10:44:38.317Z</time></trkpt><trkpt lat="43.5490284" lon="12.4967796"><ele>1065.0</ele><time>2026-05-02T10:44:39.317Z</time></trkpt><trkpt lat="43.5491525" lon="12.4965798"><ele>1065.0</ele><time>2026-05-02T10:44:40.316Z</time></trkpt><trkpt lat="43.5492838" lon="12.4963985"><ele>1065.0</ele><time>2026-05-02T10:44:41.318Z</time></trkpt><trkpt lat="43.5494273" lon="12.4962326"><ele>1065.0</ele><time>2026-05-02T10:44:42.317Z</time></trkpt><trkpt lat="43.5495714" lon="12.4960914"><ele>1058.6666666666667</ele><time>2026-05-02T10:44:43.311Z</time></trkpt><trkpt lat="43.5497382" lon="12.4959798"><ele>1052.3333333333335</ele><time>2026-05-02T10:44:44.314Z</time></trkpt><trkpt lat="43.549934" lon="12.4959765"><ele>1046.0</ele><time>2026-05-02T10:44:45.318Z</time></trkpt><trkpt lat="43.5501322" lon="12.4959361"><ele>1046.0</ele><time>2026-05-02T10:44:46.319Z</time></trkpt><trkpt lat="43.5503318" lon="12.4958987"><ele>1046.0</ele><time>2026-05-02T10:44:47.315Z</time></trkpt><trkpt lat="43.5505389" lon="12.495864"><ele>1046.0</ele><time>2026-05-02T10:44:48.317Z</time></trkpt><trkpt lat="43.5507573" lon="12.4958051"><ele>1046.0</ele><time>2026-05-02T10:44:49.317Z</time></trkpt><trkpt lat="43.5509718" lon="12.495735"><ele>1046.0</ele><time>2026-05-02T10:44:50.316Z</time></trkpt><trkpt lat="43.551185" lon="12.4956597"><ele>1046.0</ele><time>2026-05-02T10:44:51.315Z</time></trkpt><trkpt lat="43.5513956" lon="12.4955823"><ele>1046.0</ele><time>2026-05-02T10:44:52.315Z</time></trkpt><trkpt lat="43.5516054" lon="12.4955174"><ele>1046.0</ele><time>2026-05-02T10:44:53.315Z</time></trkpt><trkpt lat="43.5518237" lon="12.4954635"><ele>1046.0</ele><time>2026-05-02T10:44:54.315Z</time></trkpt><trkpt lat="43.5520398" lon="12.495438"><ele>1033.6666666666667</ele><time>2026-05-02T10:44:55.316Z</time></trkpt><trkpt lat="43.5522573" lon="12.4954104"><ele>1021.3333333333333</ele><time>2026-05-02T10:44:56.317Z</time></trkpt><trkpt lat="43.5524676" lon="12.4953818"><ele>1009.0</ele><time>2026-05-02T10:44:57.316Z</time></trkpt><trkpt lat="43.5526758" lon="12.4953727"><ele>1007.3333333333333</ele><time>2026-05-02T10:44:58.316Z</time></trkpt><trkpt lat="43.5528757" lon="12.4953716"><ele>1005.6666666666667</ele><time>2026-05-02T10:44:59.31Z</time></trkpt><trkpt lat="43.5530594" lon="12.4953793"><ele>1004.0</ele><time>2026-05-02T10:45:00.314Z</time></trkpt><trkpt lat="43.5532291" lon="12.4954156"><ele>1007.3333333333334</ele><time>2026-05-02T10:45:01.314Z</time></trkpt><trkpt lat="43.5533942" lon="12.4954643"><ele>1010.6666666666667</ele><time>2026-05-02T10:45:02.314Z</time></trkpt><trkpt lat="43.5535403" lon="12.4955917"><ele>1014.0</ele><time>2026-05-02T10:45:03.312Z</time></trkpt><trkpt lat="43.5537085" lon="12.4956939"><ele>1014.0</ele><time>2026-05-02T10:45:04.312Z</time></trkpt><trkpt lat="43.5538975" lon="12.4957611"><ele>1014.0</ele><time>2026-05-02T10:45:05.316Z</time></trkpt><trkpt lat="43.5540826" lon="12.4957928"><ele>1014.0</ele><time>2026-05-02T10:45:06.314Z</time></trkpt><trkpt lat="43.5542501" lon="12.4958067"><ele>1014.0</ele><time>2026-05-02T10:45:07.313Z</time></trkpt><trkpt lat="43.5544049" lon="12.4958351"><ele>1014.0</ele><time>2026-05-02T10:45:08.314Z</time></trkpt><trkpt lat="43.5545416" lon="12.4958969"><ele>1014.0</ele><time>2026-05-02T10:45:09.311Z</time></trkpt><trkpt lat="43.5546652" lon="12.496"><ele>1014.0</ele><time>2026-05-02T10:45:10.314Z</time></trkpt><trkpt lat="43.5547744" lon="12.4961355"><ele>1012.5</ele><time>2026-05-02T10:45:11.316Z</time></trkpt><trkpt lat="43.5548769" lon="12.4962942"><ele>1011.0</ele><time>2026-05-02T10:45:12.315Z</time></trkpt><trkpt lat="43.5549051" lon="12.4964832"><ele>1009.5</ele><time>2026-05-02T10:45:13.315Z</time></trkpt><trkpt lat="43.5549486" lon="12.4966517"><ele>1008.0</ele><time>2026-05-02T10:45:14.316Z</time></trkpt><trkpt lat="43.555007" lon="12.4967908"><ele>1008.0</ele><time>2026-05-02T10:45:15.316Z</time></trkpt><trkpt lat="43.5550829" lon="12.4968859"><ele>1008.0</ele><time>2026-05-02T10:45:16.316Z</time></trkpt><trkpt lat="43.5551733" lon="12.4969549"><ele>1008.0</ele><time>2026-05-02T10:45:17.316Z</time></trkpt><trkpt lat="43.555255" lon="12.4970196"><ele>1008.0</ele><time>2026-05-02T10:45:18.316Z</time></trkpt><trkpt lat="43.555437" lon="12.4969415"><ele>1002.3333333333333</ele><time>2026-05-02T10:45:19.315Z</time></trkpt><trkpt lat="43.5555739" lon="12.4969492"><ele>996.6666666666666</ele><time>2026-05-02T10:45:20.317Z</time></trkpt><trkpt lat="43.5557327" lon="12.4968329"><ele>991.0</ele><time>2026-05-02T10:45:21.342Z</time></trkpt><trkpt lat="43.5558941" lon="12.4967586"><ele>991.0</ele><time>2026-05-02T10:45:22.317Z</time></trkpt><trkpt lat="43.5559922" lon="12.4966548"><ele>991.0</ele><time>2026-05-02T10:45:23.317Z</time></trkpt><trkpt lat="43.5561161" lon="12.496571"><ele>991.0</ele><time>2026-05-02T10:45:24.317Z</time></trkpt><trkpt lat="43.5562294" lon="12.496615"><ele>991.0</ele><time>2026-05-02T10:45:25.316Z</time></trkpt><trkpt lat="43.5563318" lon="12.4966699"><ele>990.4</ele><time>2026-05-02T10:45:26.318Z</time></trkpt><trkpt lat="43.5563871" lon="12.4967961"><ele>989.8</ele><time>2026-05-02T10:45:27.317Z</time></trkpt><trkpt lat="43.5564196" lon="12.4969313"><ele>989.1999999999999</ele><time>2026-05-02T10:45:28.316Z</time></trkpt><trkpt lat="43.5564345" lon="12.4970827"><ele>988.5999999999999</ele><time>2026-05-02T10:45:29.317Z</time></trkpt><trkpt lat="43.5564815" lon="12.497198"><ele>988.0</ele><time>2026-05-02T10:45:30.317Z</time></trkpt><trkpt lat="43.5565542" lon="12.4972803"><ele>988.0</ele><time>2026-05-02T10:45:31.317Z</time></trkpt><trkpt lat="43.5566444" lon="12.4972979"><ele>988.0</ele><time>2026-05-02T10:45:32.318Z</time></trkpt><trkpt lat="43.5567278" lon="12.4972524"><ele>988.0</ele><time>2026-05-02T10:45:33.317Z</time></trkpt><trkpt lat="43.556785" lon="12.4971511"><ele>988.0</ele><time>2026-05-02T10:45:34.316Z</time></trkpt><trkpt lat="43.5567984" lon="12.4970105"><ele>988.0</ele><time>2026-05-02T10:45:35.313Z</time></trkpt><trkpt lat="43.5567577" lon="12.496851"><ele>988.0</ele><time>2026-05-02T10:45:36.316Z</time></trkpt><trkpt lat="43.5566827" lon="12.4966799"><ele>988.0</ele><time>2026-05-02T10:45:37.318Z</time></trkpt><trkpt lat="43.5565944" lon="12.4965128"><ele>988.0</ele><time>2026-05-02T10:45:38.315Z</time></trkpt><trkpt lat="43.5564903" lon="12.4963702"><ele>988.0</ele><time>2026-05-02T10:45:39.316Z</time></trkpt><trkpt lat="43.556367" lon="12.4962831"><ele>988.75</ele><time>2026-05-02T10:45:40.316Z</time></trkpt><trkpt lat="43.5562344" lon="12.4962436"><ele>989.5</ele><time>2026-05-02T10:45:41.317Z</time></trkpt><trkpt lat="43.5561095" lon="12.496249"><ele>990.25</ele><time>2026-05-02T10:45:42.317Z</time></trkpt><trkpt lat="43.5560031" lon="12.4962702"><ele>991.0</ele><time>2026-05-02T10:45:43.318Z</time></trkpt><trkpt lat="43.555902" lon="12.4962903"><ele>991.0</ele><time>2026-05-02T10:45:44.316Z</time></trkpt><trkpt lat="43.5558075" lon="12.4963"><ele>990.9999999999999</ele><time>2026-05-02T10:45:45.317Z</time></trkpt><trkpt lat="43.5557289" lon="12.4962139"><ele>990.9999999999999</ele><time>2026-05-02T10:45:46.317Z</time></trkpt><trkpt lat="43.5556864" lon="12.4961206"><ele>991.0</ele><time>2026-05-02T10:45:47.318Z</time></trkpt><trkpt lat="43.5556599" lon="12.4960194"><ele>991.0</ele><time>2026-05-02T10:45:48.318Z</time></trkpt><trkpt lat="43.5556773" lon="12.4958689"><ele>986.75</ele><time>2026-05-02T10:45:49.316Z</time></trkpt><trkpt lat="43.5556506" lon="12.4957382"><ele>982.5</ele><time>2026-05-02T10:45:50.318Z</time></trkpt><trkpt lat="43.5556014" lon="12.4956025"><ele>978.25</ele><time>2026-05-02T10:45:51.316Z</time></trkpt><trkpt lat="43.5555285" lon="12.4954594"><ele>974.0</ele><time>2026-05-02T10:45:52.318Z</time></trkpt><trkpt lat="43.5554441" lon="12.4952958"><ele>972.0</ele><time>2026-05-02T10:45:53.317Z</time></trkpt><trkpt lat="43.5553479" lon="12.4951232"><ele>970.0</ele><time>2026-05-02T10:45:54.314Z</time></trkpt><trkpt lat="43.5552278" lon="12.4949679"><ele>968.0</ele><time>2026-05-02T10:45:55.315Z</time></trkpt><trkpt lat="43.5550901" lon="12.4948143"><ele>968.0</ele><time>2026-05-02T10:45:56.314Z</time></trkpt><trkpt lat="43.5549635" lon="12.4946589"><ele>968.0</ele><time>2026-05-02T10:45:57.317Z</time></trkpt><trkpt lat="43.554834" lon="12.4945153"><ele>968.0</ele><time>2026-05-02T10:45:58.317Z</time></trkpt><trkpt lat="43.5547089" lon="12.4943874"><ele>964.0</ele><time>2026-05-02T10:45:59.317Z</time></trkpt><trkpt lat="43.5545845" lon="12.4942946"><ele>960.0</ele><time>2026-05-02T10:46:00.317Z</time></trkpt><trkpt lat="43.5544437" lon="12.4942483"><ele>956.0</ele><time>2026-05-02T10:46:01.314Z</time></trkpt><trkpt lat="43.5542835" lon="12.4942405"><ele>952.0</ele><time>2026-05-02T10:46:02.317Z</time></trkpt><trkpt lat="43.554115" lon="12.4942563"><ele>952.0</ele><time>2026-05-02T10:46:03.319Z</time></trkpt><trkpt lat="43.5539745" lon="12.4942653"><ele>952.0</ele><time>2026-05-02T10:46:04.317Z</time></trkpt><trkpt lat="43.5538521" lon="12.4942675"><ele>952.0</ele><time>2026-05-02T10:46:05.318Z</time></trkpt><trkpt lat="43.553746" lon="12.4942338"><ele>952.0</ele><time>2026-05-02T10:46:06.317Z</time></trkpt><trkpt lat="43.5536338" lon="12.4942014"><ele>949.3333333333333</ele><time>2026-05-02T10:46:07.318Z</time></trkpt><trkpt lat="43.5536802" lon="12.4938851"><ele>946.6666666666667</ele><time>2026-05-02T10:46:09.318Z</time></trkpt><trkpt lat="43.5537043" lon="12.4937255"><ele>944.0</ele><time>2026-05-02T10:46:10.317Z</time></trkpt><trkpt lat="43.5537901" lon="12.4935341"><ele>940.75</ele><time>2026-05-02T10:46:11.317Z</time></trkpt><trkpt lat="43.5538428" lon="12.4933656"><ele>937.5</ele><time>2026-05-02T10:46:12.311Z</time></trkpt><trkpt lat="43.5538621" lon="12.4932086"><ele>934.25</ele><time>2026-05-02T10:46:13.317Z</time></trkpt><trkpt lat="43.5538377" lon="12.493058"><ele>931.0</ele><time>2026-05-02T10:46:14.316Z</time></trkpt><trkpt lat="43.5537893" lon="12.4929164"><ele>929.0</ele><time>2026-05-02T10:46:15.317Z</time></trkpt><trkpt lat="43.5537731" lon="12.4927936"><ele>926.9999999999999</ele><time>2026-05-02T10:46:16.315Z</time></trkpt><trkpt lat="43.5537961" lon="12.4926765"><ele>924.9999999999999</ele><time>2026-05-02T10:46:17.316Z</time></trkpt><trkpt lat="43.5538735" lon="12.4925905"><ele>923.0</ele><time>2026-05-02T10:46:18.315Z</time></trkpt><trkpt lat="43.5539623" lon="12.4925801"><ele>921.0</ele><time>2026-05-02T10:46:19.316Z</time></trkpt><trkpt lat="43.5540406" lon="12.4926489"><ele>921.0</ele><time>2026-05-02T10:46:20.315Z</time></trkpt><trkpt lat="43.5540809" lon="12.492773"><ele>921.0</ele><time>2026-05-02T10:46:21.315Z</time></trkpt><trkpt lat="43.5540742" lon="12.4929383"><ele>921.0</ele><time>2026-05-02T10:46:22.318Z</time></trkpt><trkpt lat="43.5540584" lon="12.4931288"><ele>921.0</ele><time>2026-05-02T10:46:23.316Z</time></trkpt><trkpt lat="43.554061" lon="12.4933005"><ele>923.5</ele><time>2026-05-02T10:46:24.317Z</time></trkpt><trkpt lat="43.5540813" lon="12.4934662"><ele>926.0</ele><time>2026-05-02T10:46:25.315Z</time></trkpt><trkpt lat="43.5541761" lon="12.4936033"><ele>928.5</ele><time>2026-05-02T10:46:26.316Z</time></trkpt><trkpt lat="43.5542777" lon="12.4936967"><ele>931.0</ele><time>2026-05-02T10:46:27.316Z</time></trkpt><trkpt lat="43.5544069" lon="12.4937528"><ele>928.6666666666666</ele><time>2026-05-02T10:46:28.313Z</time></trkpt><trkpt lat="43.5545452" lon="12.4936663"><ele>926.3333333333333</ele><time>2026-05-02T10:46:29.318Z</time></trkpt><trkpt lat="43.5546795" lon="12.4935489"><ele>924.0</ele><time>2026-05-02T10:46:30.313Z</time></trkpt><trkpt lat="43.5548041" lon="12.4934123"><ele>924.0</ele><time>2026-05-02T10:46:31.313Z</time></trkpt><trkpt lat="43.5549233" lon="12.493264"><ele>924.0</ele><time>2026-05-02T10:46:32.317Z</time></trkpt><trkpt lat="43.5550554" lon="12.4931349"><ele>924.0</ele><time>2026-05-02T10:46:33.321Z</time></trkpt><trkpt lat="43.5551594" lon="12.4930894"><ele>924.0</ele><time>2026-05-02T10:46:34.315Z</time></trkpt><trkpt lat="43.5552473" lon="12.4930037"><ele>920.6</ele><time>2026-05-02T10:46:35.317Z</time></trkpt><trkpt lat="43.5552938" lon="12.4928737"><ele>917.2</ele><time>2026-05-02T10:46:36.319Z</time></trkpt><trkpt lat="43.5553429" lon="12.4927523"><ele>913.8000000000001</ele><time>2026-05-02T10:46:37.316Z</time></trkpt><trkpt lat="43.5553589" lon="12.4926475"><ele>910.4000000000001</ele><time>2026-05-02T10:46:38.318Z</time></trkpt><trkpt lat="43.5553455" lon="12.4925367"><ele>907.0</ele><time>2026-05-02T10:46:39.321Z</time></trkpt><trkpt lat="43.5550905" lon="12.4926132"><ele>907.0</ele><time>2026-05-02T10:46:40.315Z</time></trkpt><trkpt lat="43.5550095" lon="12.4926984"><ele>907.0</ele><time>2026-05-02T10:46:41.315Z</time></trkpt><trkpt lat="43.5549434" lon="12.4928468"><ele>907.0</ele><time>2026-05-02T10:46:42.315Z</time></trkpt><trkpt lat="43.5548843" lon="12.4929869"><ele>907.0</ele><time>2026-05-02T10:46:43.315Z</time></trkpt><trkpt lat="43.5548079" lon="12.4931026"><ele>909.8</ele><time>2026-05-02T10:46:44.319Z</time></trkpt><trkpt lat="43.5547302" lon="12.4931864"><ele>912.6</ele><time>2026-05-02T10:46:45.324Z</time></trkpt><trkpt lat="43.5546494" lon="12.4932572"><ele>915.3999999999999</ele><time>2026-05-02T10:46:46.317Z</time></trkpt><trkpt lat="43.5545829" lon="12.4931555"><ele>918.1999999999999</ele><time>2026-05-02T10:46:47.316Z</time></trkpt><trkpt lat="43.5545408" lon="12.4929644"><ele>921.0</ele><time>2026-05-02T10:46:48.316Z</time></trkpt><trkpt lat="43.554508" lon="12.4927894"><ele>921.0</ele><time>2026-05-02T10:46:49.314Z</time></trkpt><trkpt lat="43.5545217" lon="12.4925894"><ele>921.0</ele><time>2026-05-02T10:46:50.316Z</time></trkpt><trkpt lat="43.5545916" lon="12.4923752"><ele>921.0</ele><time>2026-05-02T10:46:51.318Z</time></trkpt><trkpt lat="43.5546482" lon="12.4921081"><ele>915.5</ele><time>2026-05-02T10:46:52.316Z</time></trkpt><trkpt lat="43.5546427" lon="12.4918864"><ele>910.0</ele><time>2026-05-02T10:46:53.313Z</time></trkpt><trkpt lat="43.5545959" lon="12.4917066"><ele>904.5</ele><time>2026-05-02T10:46:54.318Z</time></trkpt><trkpt lat="43.5545201" lon="12.4915371"><ele>899.0</ele><time>2026-05-02T10:46:55.317Z</time></trkpt><trkpt lat="43.5544157" lon="12.4913904"><ele>899.0</ele><time>2026-05-02T10:46:56.318Z</time></trkpt><trkpt lat="43.5542828" lon="12.4912682"><ele>899.0</ele><time>2026-05-02T10:46:57.315Z</time></trkpt><trkpt lat="43.554139" lon="12.4911738"><ele>899.0</ele><time>2026-05-02T10:46:58.315Z</time></trkpt><trkpt lat="43.5539833" lon="12.4911373"><ele>896.0</ele><time>2026-05-02T10:46:59.316Z</time></trkpt><trkpt lat="43.5538146" lon="12.4911593"><ele>893.0</ele><time>2026-05-02T10:47:00.315Z</time></trkpt><trkpt lat="43.5536438" lon="12.4912409"><ele>890.0</ele><time>2026-05-02T10:47:01.316Z</time></trkpt><trkpt lat="43.5534775" lon="12.4913262"><ele>890.0</ele><time>2026-05-02T10:47:02.315Z</time></trkpt><trkpt lat="43.553282" lon="12.4915185"><ele>890.0</ele><time>2026-05-02T10:47:03.315Z</time></trkpt><trkpt lat="43.5531029" lon="12.4916596"><ele>890.0</ele><time>2026-05-02T10:47:04.315Z</time></trkpt><trkpt lat="43.5529068" lon="12.4917955"><ele>884.3333333333334</ele><time>2026-05-02T10:47:05.315Z</time></trkpt><trkpt lat="43.5527103" lon="12.4918927"><ele>878.6666666666667</ele><time>2026-05-02T10:47:06.315Z</time></trkpt><trkpt lat="43.5525065" lon="12.4919394"><ele>873.0</ele><time>2026-05-02T10:47:07.314Z</time></trkpt><trkpt lat="43.552294" lon="12.4919536"><ele>873.0</ele><time>2026-05-02T10:47:08.315Z</time></trkpt><trkpt lat="43.5520869" lon="12.4919506"><ele>873.0</ele><time>2026-05-02T10:47:09.315Z</time></trkpt><trkpt lat="43.5518878" lon="12.4919752"><ele>873.0</ele><time>2026-05-02T10:47:10.315Z</time></trkpt><trkpt lat="43.5516853" lon="12.4920167"><ele>869.0</ele><time>2026-05-02T10:47:11.315Z</time></trkpt><trkpt lat="43.5514824" lon="12.4920189"><ele>865.0</ele><time>2026-05-02T10:47:12.313Z</time></trkpt><trkpt lat="43.5512669" lon="12.4919766"><ele>861.0</ele><time>2026-05-02T10:47:13.316Z</time></trkpt><trkpt lat="43.5510667" lon="12.4918973"><ele>861.0</ele><time>2026-05-02T10:47:14.315Z</time></trkpt><trkpt lat="43.550872" lon="12.4917752"><ele>861.0</ele><time>2026-05-02T10:47:15.316Z</time></trkpt><trkpt lat="43.5506779" lon="12.4916297"><ele>861.0</ele><time>2026-05-02T10:47:16.315Z</time></trkpt><trkpt lat="43.5504899" lon="12.4914832"><ele>865.3333333333333</ele><time>2026-05-02T10:47:17.316Z</time></trkpt><trkpt lat="43.550299" lon="12.4913624"><ele>869.6666666666666</ele><time>2026-05-02T10:47:18.315Z</time></trkpt><trkpt lat="43.5501116" lon="12.4912634"><ele>874.0</ele><time>2026-05-02T10:47:19.317Z</time></trkpt><trkpt lat="43.5499213" lon="12.49118"><ele>863.3333333333333</ele><time>2026-05-02T10:47:20.315Z</time></trkpt><trkpt lat="43.5497359" lon="12.4911172"><ele>852.6666666666667</ele><time>2026-05-02T10:47:21.316Z</time></trkpt><trkpt lat="43.5495656" lon="12.4910817"><ele>842.0</ele><time>2026-05-02T10:47:22.317Z</time></trkpt><trkpt lat="43.5494137" lon="12.4910717"><ele>842.0</ele><time>2026-05-02T10:47:23.315Z</time></trkpt><trkpt lat="43.5492829" lon="12.4910791"><ele>842.0</ele><time>2026-05-02T10:47:24.315Z</time></trkpt><trkpt lat="43.5491681" lon="12.491061"><ele>842.0</ele><time>2026-05-02T10:47:25.315Z</time></trkpt><trkpt lat="43.5491023" lon="12.4909595"><ele>842.0</ele><time>2026-05-02T10:47:26.317Z</time></trkpt><trkpt lat="43.5490234" lon="12.4908949"><ele>842.0</ele><time>2026-05-02T10:47:27.318Z</time></trkpt><trkpt lat="43.549103" lon="12.4907412"><ele>842.0</ele><time>2026-05-02T10:47:28.317Z</time></trkpt><trkpt lat="43.5491851" lon="12.4906716"><ele>842.0</ele><time>2026-05-02T10:47:29.316Z</time></trkpt><trkpt lat="43.5492912" lon="12.4906802"><ele>842.0</ele><time>2026-05-02T10:47:30.317Z</time></trkpt><trkpt lat="43.5493785" lon="12.4907502"><ele>842.0</ele><time>2026-05-02T10:47:31.315Z</time></trkpt><trkpt lat="43.5494531" lon="12.4908368"><ele>842.0</ele><time>2026-05-02T10:47:32.315Z</time></trkpt><trkpt lat="43.5495497" lon="12.4908682"><ele>842.0</ele><time>2026-05-02T10:47:33.317Z</time></trkpt><trkpt lat="43.5496397" lon="12.490855"><ele>842.0</ele><time>2026-05-02T10:47:34.318Z</time></trkpt><trkpt lat="43.5497066" lon="12.4907556"><ele>842.0</ele><time>2026-05-02T10:47:35.316Z</time></trkpt><trkpt lat="43.5497232" lon="12.4906241"><ele>842.0</ele><time>2026-05-02T10:47:36.316Z</time></trkpt><trkpt lat="43.549695" lon="12.4905015"><ele>842.0</ele><time>2026-05-02T10:47:37.314Z</time></trkpt><trkpt lat="43.5496263" lon="12.4904138"><ele>837.6</ele><time>2026-05-02T10:47:38.316Z</time></trkpt><trkpt lat="43.5495539" lon="12.490342"><ele>833.2</ele><time>2026-05-02T10:47:39.316Z</time></trkpt><trkpt lat="43.5494468" lon="12.4903461"><ele>828.8</ele><time>2026-05-02T10:47:40.317Z</time></trkpt><trkpt lat="43.5493772" lon="12.4902717"><ele>824.4</ele><time>2026-05-02T10:47:41.315Z</time></trkpt><trkpt lat="43.5492878" lon="12.4902231"><ele>820.0</ele><time>2026-05-02T10:47:42.316Z</time></trkpt><trkpt lat="43.5492526" lon="12.4901291"><ele>820.0</ele><time>2026-05-02T10:47:43.317Z</time></trkpt><trkpt lat="43.5492653" lon="12.4900238"><ele>820.0</ele><time>2026-05-02T10:47:44.316Z</time></trkpt><trkpt lat="43.549439" lon="12.4900089"><ele>820.0</ele><time>2026-05-02T10:47:45.318Z</time></trkpt><trkpt lat="43.5495209" lon="12.4899723"><ele>820.0</ele><time>2026-05-02T10:47:46.315Z</time></trkpt><trkpt lat="43.5496687" lon="12.4900492"><ele>820.0</ele><time>2026-05-02T10:47:47.316Z</time></trkpt><trkpt lat="43.54978" lon="12.4900419"><ele>820.0</ele><time>2026-05-02T10:47:48.316Z</time></trkpt><trkpt lat="43.5498855" lon="12.489996"><ele>820.0</ele><time>2026-05-02T10:47:49.314Z</time></trkpt><trkpt lat="43.549857" lon="12.4898147"><ele>820.0</ele><time>2026-05-02T10:47:50.316Z</time></trkpt><trkpt lat="43.5498229" lon="12.4896715"><ele>820.0</ele><time>2026-05-02T10:47:51.317Z</time></trkpt><trkpt lat="43.5497335" lon="12.4896063"><ele>820.0</ele><time>2026-05-02T10:47:52.316Z</time></trkpt><trkpt lat="43.5496354" lon="12.489599"><ele>820.0</ele><time>2026-05-02T10:47:53.316Z</time></trkpt><trkpt lat="43.5495204" lon="12.4896519"><ele>820.0</ele><time>2026-05-02T10:47:54.318Z</time></trkpt><trkpt lat="43.5493821" lon="12.4897427"><ele>819.0</ele><time>2026-05-02T10:47:55.312Z</time></trkpt><trkpt lat="43.5492319" lon="12.4898448"><ele>818.0</ele><time>2026-05-02T10:47:56.327Z</time></trkpt><trkpt lat="43.5490721" lon="12.48995"><ele>817.0</ele><time>2026-05-02T10:47:57.316Z</time></trkpt><trkpt lat="43.5489072" lon="12.4901028"><ele>817.0</ele><time>2026-05-02T10:47:58.317Z</time></trkpt><trkpt lat="43.54875" lon="12.4902422"><ele>817.0</ele><time>2026-05-02T10:47:59.316Z</time></trkpt><trkpt lat="43.5485935" lon="12.4904104"><ele>817.0</ele><time>2026-05-02T10:48:00.313Z</time></trkpt><trkpt lat="43.5484256" lon="12.490523"><ele>817.3333333333333</ele><time>2026-05-02T10:48:01.315Z</time></trkpt><trkpt lat="43.548265" lon="12.4906263"><ele>817.6666666666667</ele><time>2026-05-02T10:48:02.309Z</time></trkpt><trkpt lat="43.5481116" lon="12.4907398"><ele>818.0</ele><time>2026-05-02T10:48:03.317Z</time></trkpt><trkpt lat="43.5479573" lon="12.4908829"><ele>823.0</ele><time>2026-05-02T10:48:04.314Z</time></trkpt><trkpt lat="43.5478071" lon="12.4910492"><ele>828.0</ele><time>2026-05-02T10:48:05.314Z</time></trkpt><trkpt lat="43.5476408" lon="12.4911697"><ele>833.0</ele><time>2026-05-02T10:48:06.317Z</time></trkpt><trkpt lat="43.5474509" lon="12.4912796"><ele>833.0</ele><time>2026-05-02T10:48:07.313Z</time></trkpt><trkpt lat="43.5472621" lon="12.4913853"><ele>833.0</ele><time>2026-05-02T10:48:08.315Z</time></trkpt><trkpt lat="43.5470849" lon="12.4914583"><ele>833.0</ele><time>2026-05-02T10:48:09.315Z</time></trkpt><trkpt lat="43.5469009" lon="12.4915522"><ele>824.6666666666667</ele><time>2026-05-02T10:48:10.316Z</time></trkpt><trkpt lat="43.5467148" lon="12.4915907"><ele>816.3333333333333</ele><time>2026-05-02T10:48:11.316Z</time></trkpt><trkpt lat="43.5464958" lon="12.4915348"><ele>808.0</ele><time>2026-05-02T10:48:12.318Z</time></trkpt><trkpt lat="43.5462948" lon="12.4914972"><ele>806.3333333333333</ele><time>2026-05-02T10:48:13.316Z</time></trkpt><trkpt lat="43.5461002" lon="12.4914714"><ele>804.6666666666667</ele><time>2026-05-02T10:48:14.314Z</time></trkpt><trkpt lat="43.5458921" lon="12.4914369"><ele>803.0</ele><time>2026-05-02T10:48:15.316Z</time></trkpt><trkpt lat="43.545693" lon="12.4914204"><ele>803.0</ele><time>2026-05-02T10:48:16.316Z</time></trkpt><trkpt lat="43.5455188" lon="12.491391"><ele>803.0</ele><time>2026-05-02T10:48:17.317Z</time></trkpt><trkpt lat="43.5453298" lon="12.4913832"><ele>803.0</ele><time>2026-05-02T10:48:18.318Z</time></trkpt><trkpt lat="43.5451624" lon="12.4913899"><ele>799.0</ele><time>2026-05-02T10:48:19.319Z</time></trkpt><trkpt lat="43.5450097" lon="12.4914161"><ele>795.0</ele><time>2026-05-02T10:48:20.317Z</time></trkpt><trkpt lat="43.5448597" lon="12.4914627"><ele>791.0</ele><time>2026-05-02T10:48:21.317Z</time></trkpt><trkpt lat="43.5447251" lon="12.4914672"><ele>787.0</ele><time>2026-05-02T10:48:22.317Z</time></trkpt><trkpt lat="43.5445875" lon="12.4914875"><ele>785.0</ele><time>2026-05-02T10:48:23.318Z</time></trkpt><trkpt lat="43.5444656" lon="12.4914334"><ele>783.0</ele><time>2026-05-02T10:48:24.318Z</time></trkpt><trkpt lat="43.5443424" lon="12.4913338"><ele>781.0</ele><time>2026-05-02T10:48:25.317Z</time></trkpt><trkpt lat="43.5443421" lon="12.4910399"><ele>779.5999999999999</ele><time>2026-05-02T10:48:26.317Z</time></trkpt><trkpt lat="43.5442758" lon="12.4908942"><ele>778.2</ele><time>2026-05-02T10:48:27.317Z</time></trkpt><trkpt lat="43.5442507" lon="12.4907514"><ele>776.8</ele><time>2026-05-02T10:48:28.32Z</time></trkpt><trkpt lat="43.5442149" lon="12.4906149"><ele>775.4000000000001</ele><time>2026-05-02T10:48:29.318Z</time></trkpt><trkpt lat="43.5442254" lon="12.4904807"><ele>774.0</ele><time>2026-05-02T10:48:30.316Z</time></trkpt><trkpt lat="43.5442401" lon="12.4903837"><ele>773.3333333333334</ele><time>2026-05-02T10:48:31.317Z</time></trkpt><trkpt lat="43.5442668" lon="12.4902981"><ele>772.6666666666667</ele><time>2026-05-02T10:48:32.317Z</time></trkpt><trkpt lat="43.5443018" lon="12.4902122"><ele>772.0</ele><time>2026-05-02T10:48:33.316Z</time></trkpt><trkpt lat="43.5443547" lon="12.4901462"><ele>771.3333333333334</ele><time>2026-05-02T10:48:34.317Z</time></trkpt><trkpt lat="43.5444136" lon="12.49009"><ele>770.6666666666667</ele><time>2026-05-02T10:48:35.318Z</time></trkpt><trkpt lat="43.5444804" lon="12.4900351"><ele>770.0</ele><time>2026-05-02T10:48:36.318Z</time></trkpt><trkpt lat="43.5445968" lon="12.4899733"><ele>770.0</ele><time>2026-05-02T10:48:37.318Z</time></trkpt><trkpt lat="43.5447219" lon="12.4899088"><ele>770.0</ele><time>2026-05-02T10:48:38.317Z</time></trkpt><trkpt lat="43.5448141" lon="12.4898614"><ele>770.0</ele><time>2026-05-02T10:48:39.315Z</time></trkpt><trkpt lat="43.5449181" lon="12.4897704"><ele>770.0</ele><time>2026-05-02T10:48:40.317Z</time></trkpt><trkpt lat="43.5451147" lon="12.4896785"><ele>770.0</ele><time>2026-05-02T10:48:41.317Z</time></trkpt><trkpt lat="43.5452552" lon="12.4895789"><ele>770.0</ele><time>2026-05-02T10:48:42.317Z</time></trkpt><trkpt lat="43.5454082" lon="12.4894731"><ele>770.0</ele><time>2026-05-02T10:48:43.316Z</time></trkpt><trkpt lat="43.5455606" lon="12.4893533"><ele>769.0</ele><time>2026-05-02T10:48:44.316Z</time></trkpt><trkpt lat="43.5457535" lon="12.4892278"><ele>768.0</ele><time>2026-05-02T10:48:45.318Z</time></trkpt><trkpt lat="43.5459366" lon="12.4890854"><ele>767.0</ele><time>2026-05-02T10:48:46.318Z</time></trkpt><trkpt lat="43.5461163" lon="12.4889189"><ele>762.5</ele><time>2026-05-02T10:48:47.315Z</time></trkpt><trkpt lat="43.5462926" lon="12.4887368"><ele>758.0</ele><time>2026-05-02T10:48:48.317Z</time></trkpt><trkpt lat="43.5464766" lon="12.488541"><ele>758.0</ele><time>2026-05-02T10:48:49.313Z</time></trkpt><trkpt lat="43.5466554" lon="12.4883404"><ele>758.0</ele><time>2026-05-02T10:48:50.315Z</time></trkpt><trkpt lat="43.5468454" lon="12.4881349"><ele>758.0</ele><time>2026-05-02T10:48:51.314Z</time></trkpt><trkpt lat="43.5470273" lon="12.4879349"><ele>758.0</ele><time>2026-05-02T10:48:52.316Z</time></trkpt><trkpt lat="43.5472554" lon="12.4878189"><ele>757.0</ele><time>2026-05-02T10:48:53.317Z</time></trkpt><trkpt lat="43.5474688" lon="12.4876641"><ele>756.0</ele><time>2026-05-02T10:48:54.314Z</time></trkpt><trkpt lat="43.5476899" lon="12.4875216"><ele>756.0</ele><time>2026-05-02T10:48:55.314Z</time></trkpt><trkpt lat="43.5479231" lon="12.487388"><ele>756.0</ele><time>2026-05-02T10:48:56.316Z</time></trkpt><trkpt lat="43.5481636" lon="12.487274"><ele>756.0</ele><time>2026-05-02T10:48:57.31Z</time></trkpt><trkpt lat="43.5484264" lon="12.4871365"><ele>756.0</ele><time>2026-05-02T10:48:58.316Z</time></trkpt><trkpt lat="43.5486717" lon="12.4870041"><ele>754.5</ele><time>2026-05-02T10:48:59.316Z</time></trkpt><trkpt lat="43.548928" lon="12.4868753"><ele>753.0</ele><time>2026-05-02T10:49:00.315Z</time></trkpt><trkpt lat="43.5491845" lon="12.4867349"><ele>753.0</ele><time>2026-05-02T10:49:01.315Z</time></trkpt><trkpt lat="43.5494372" lon="12.4865957"><ele>753.0</ele><time>2026-05-02T10:49:02.315Z</time></trkpt><trkpt lat="43.5496714" lon="12.4864641"><ele>752.0</ele><time>2026-05-02T10:49:03.316Z</time></trkpt><trkpt lat="43.549898" lon="12.4863397"><ele>751.0</ele><time>2026-05-02T10:49:04.316Z</time></trkpt><trkpt lat="43.5501297" lon="12.4862192"><ele>751.0</ele><time>2026-05-02T10:49:05.316Z</time></trkpt><trkpt lat="43.5503425" lon="12.4861056"><ele>751.0</ele><time>2026-05-02T10:49:06.313Z</time></trkpt><trkpt lat="43.5505613" lon="12.4859893"><ele>750.0</ele><time>2026-05-02T10:49:07.315Z</time></trkpt><trkpt lat="43.5507838" lon="12.4858748"><ele>749.0</ele><time>2026-05-02T10:49:08.316Z</time></trkpt><trkpt lat="43.5510049" lon="12.4857597"><ele>748.5</ele><time>2026-05-02T10:49:09.316Z</time></trkpt><trkpt lat="43.5512242" lon="12.4856354"><ele>748.0</ele><time>2026-05-02T10:49:10.316Z</time></trkpt><trkpt lat="43.5514445" lon="12.4855111"><ele>749.6666666666667</ele><time>2026-05-02T10:49:11.315Z</time></trkpt><trkpt lat="43.5516583" lon="12.4853929"><ele>751.3333333333334</ele><time>2026-05-02T10:49:12.313Z</time></trkpt><trkpt lat="43.5518468" lon="12.4852896"><ele>753.0</ele><time>2026-05-02T10:49:13.312Z</time></trkpt><trkpt lat="43.5520087" lon="12.4852036"><ele>751.25</ele><time>2026-05-02T10:49:14.315Z</time></trkpt><trkpt lat="43.5521432" lon="12.4850994"><ele>749.5</ele><time>2026-05-02T10:49:15.315Z</time></trkpt><trkpt lat="43.5522554" lon="12.4849951"><ele>747.75</ele><time>2026-05-02T10:49:16.316Z</time></trkpt><trkpt lat="43.5522707" lon="12.4847979"><ele>746.0</ele><time>2026-05-02T10:49:17.317Z</time></trkpt><trkpt lat="43.5523303" lon="12.4846311"><ele>738.3333333333333</ele><time>2026-05-02T10:49:18.316Z</time></trkpt><trkpt lat="43.5522229" lon="12.4843668"><ele>730.6666666666666</ele><time>2026-05-02T10:49:19.317Z</time></trkpt><trkpt lat="43.5521973" lon="12.4841198"><ele>723.0</ele><time>2026-05-02T10:49:20.319Z</time></trkpt><trkpt lat="43.5521285" lon="12.4838605"><ele>720.3333333333334</ele><time>2026-05-02T10:49:21.316Z</time></trkpt><trkpt lat="43.5520792" lon="12.4836038"><ele>717.6666666666667</ele><time>2026-05-02T10:49:22.318Z</time></trkpt><trkpt lat="43.5520285" lon="12.4833609"><ele>715.0</ele><time>2026-05-02T10:49:23.317Z</time></trkpt><trkpt lat="43.5519616" lon="12.4831453"><ele>719.0</ele><time>2026-05-02T10:49:24.317Z</time></trkpt><trkpt lat="43.5519078" lon="12.4829417"><ele>723.0</ele><time>2026-05-02T10:49:25.314Z</time></trkpt><trkpt lat="43.5518463" lon="12.482751"><ele>727.0</ele><time>2026-05-02T10:49:26.317Z</time></trkpt><trkpt lat="43.5516228" lon="12.4827283"><ele>727.0</ele><time>2026-05-02T10:49:27.316Z</time></trkpt><trkpt lat="43.5515136" lon="12.4826057"><ele>727.0</ele><time>2026-05-02T10:49:28.316Z</time></trkpt><trkpt lat="43.5514208" lon="12.4824562"><ele>727.0</ele><time>2026-05-02T10:49:29.316Z</time></trkpt><trkpt lat="43.5513309" lon="12.4823114"><ele>727.0</ele><time>2026-05-02T10:49:30.316Z</time></trkpt><trkpt lat="43.551367" lon="12.4820866"><ele>723.0</ele><time>2026-05-02T10:49:31.317Z</time></trkpt><trkpt lat="43.5513776" lon="12.4819086"><ele>719.0</ele><time>2026-05-02T10:49:32.318Z</time></trkpt><trkpt lat="43.5513681" lon="12.4817358"><ele>715.0</ele><time>2026-05-02T10:49:33.318Z</time></trkpt><trkpt lat="43.5513616" lon="12.4815617"><ele>711.0</ele><time>2026-05-02T10:49:34.318Z</time></trkpt><trkpt lat="43.5513013" lon="12.4814076"><ele>709.5</ele><time>2026-05-02T10:49:35.318Z</time></trkpt><trkpt lat="43.5512271" lon="12.4812146"><ele>708.0</ele><time>2026-05-02T10:49:36.314Z</time></trkpt><trkpt lat="43.5512057" lon="12.4810141"><ele>706.5</ele><time>2026-05-02T10:49:37.317Z</time></trkpt><trkpt lat="43.5512237" lon="12.4808215"><ele>705.0</ele><time>2026-05-02T10:49:38.311Z</time></trkpt><trkpt lat="43.5512844" lon="12.480617"><ele>707.0</ele><time>2026-05-02T10:49:39.317Z</time></trkpt><trkpt lat="43.551388" lon="12.4803959"><ele>709.0</ele><time>2026-05-02T10:49:40.315Z</time></trkpt><trkpt lat="43.5515116" lon="12.4801614"><ele>711.0</ele><time>2026-05-02T10:49:41.316Z</time></trkpt><trkpt lat="43.5516435" lon="12.4799071"><ele>711.0</ele><time>2026-05-02T10:49:42.316Z</time></trkpt><trkpt lat="43.5517834" lon="12.479628"><ele>711.0</ele><time>2026-05-02T10:49:43.317Z</time></trkpt><trkpt lat="43.5519153" lon="12.4793447"><ele>712.5</ele><time>2026-05-02T10:49:44.317Z</time></trkpt><trkpt lat="43.5520258" lon="12.4790634"><ele>714.0</ele><time>2026-05-02T10:49:45.314Z</time></trkpt><trkpt lat="43.5521176" lon="12.4787892"><ele>708.3333333333334</ele><time>2026-05-02T10:49:46.316Z</time></trkpt><trkpt lat="43.5521956" lon="12.4785208"><ele>702.6666666666667</ele><time>2026-05-02T10:49:47.317Z</time></trkpt><trkpt lat="43.5522608" lon="12.4782643"><ele>697.0</ele><time>2026-05-02T10:49:48.316Z</time></trkpt><trkpt lat="43.5523357" lon="12.4780366"><ele>699.0</ele><time>2026-05-02T10:49:49.318Z</time></trkpt><trkpt lat="43.5524504" lon="12.4778326"><ele>701.0</ele><time>2026-05-02T10:49:50.318Z</time></trkpt><trkpt lat="43.5526125" lon="12.4776525"><ele>703.0</ele><time>2026-05-02T10:49:51.316Z</time></trkpt><trkpt lat="43.5527845" lon="12.4774519"><ele>698.0</ele><time>2026-05-02T10:49:52.314Z</time></trkpt><trkpt lat="43.5529643" lon="12.4772406"><ele>693.0</ele><time>2026-05-02T10:49:53.315Z</time></trkpt><trkpt lat="43.5531416" lon="12.4770437"><ele>693.0</ele><time>2026-05-02T10:49:54.313Z</time></trkpt><trkpt lat="43.5533166" lon="12.4768507"><ele>693.0</ele><time>2026-05-02T10:49:55.318Z</time></trkpt><trkpt lat="43.553483" lon="12.4766632"><ele>693.0</ele><time>2026-05-02T10:49:56.319Z</time></trkpt><trkpt lat="43.5536478" lon="12.4764915"><ele>694.6666666666666</ele><time>2026-05-02T10:49:57.317Z</time></trkpt><trkpt lat="43.553823" lon="12.4763449"><ele>696.3333333333333</ele><time>2026-05-02T10:49:58.316Z</time></trkpt><trkpt lat="43.5540058" lon="12.4762181"><ele>698.0</ele><time>2026-05-02T10:49:59.318Z</time></trkpt><trkpt lat="43.5541987" lon="12.4761119"><ele>698.0</ele><time>2026-05-02T10:50:00.317Z</time></trkpt><trkpt lat="43.5544474" lon="12.4761265"><ele>698.0</ele><time>2026-05-02T10:50:01.317Z</time></trkpt><trkpt lat="43.5546867" lon="12.476069"><ele>692.0</ele><time>2026-05-02T10:50:02.318Z</time></trkpt><trkpt lat="43.5549219" lon="12.4760304"><ele>686.0</ele><time>2026-05-02T10:50:03.317Z</time></trkpt><trkpt lat="43.5551281" lon="12.4759027"><ele>686.0</ele><time>2026-05-02T10:50:04.317Z</time></trkpt><trkpt lat="43.5553342" lon="12.4757928"><ele>686.0</ele><time>2026-05-02T10:50:05.316Z</time></trkpt><trkpt lat="43.5555385" lon="12.4757008"><ele>686.0</ele><time>2026-05-02T10:50:06.316Z</time></trkpt><trkpt lat="43.555737" lon="12.4756051"><ele>685.3333333333333</ele><time>2026-05-02T10:50:07.316Z</time></trkpt><trkpt lat="43.5559379" lon="12.4755086"><ele>684.6666666666666</ele><time>2026-05-02T10:50:08.317Z</time></trkpt><trkpt lat="43.5561238" lon="12.4754136"><ele>684.0</ele><time>2026-05-02T10:50:09.318Z</time></trkpt><trkpt lat="43.5562965" lon="12.4753334"><ele>679.5</ele><time>2026-05-02T10:50:10.317Z</time></trkpt><trkpt lat="43.5564608" lon="12.475255"><ele>675.0</ele><time>2026-05-02T10:50:11.317Z</time></trkpt><trkpt lat="43.5565788" lon="12.4751661"><ele>670.5</ele><time>2026-05-02T10:50:12.315Z</time></trkpt><trkpt lat="43.5566805" lon="12.4750364"><ele>666.0</ele><time>2026-05-02T10:50:13.317Z</time></trkpt><trkpt lat="43.5567532" lon="12.4748752"><ele>666.0</ele><time>2026-05-02T10:50:14.317Z</time></trkpt><trkpt lat="43.556801" lon="12.474673"><ele>666.0</ele><time>2026-05-02T10:50:15.316Z</time></trkpt><trkpt lat="43.5568594" lon="12.4744274"><ele>666.0</ele><time>2026-05-02T10:50:16.316Z</time></trkpt><trkpt lat="43.5568835" lon="12.4741066"><ele>666.6666666666666</ele><time>2026-05-02T10:50:17.317Z</time></trkpt><trkpt lat="43.5569253" lon="12.4738124"><ele>667.3333333333333</ele><time>2026-05-02T10:50:18.317Z</time></trkpt><trkpt lat="43.55696" lon="12.4735233"><ele>668.0</ele><time>2026-05-02T10:50:19.317Z</time></trkpt><trkpt lat="43.556986" lon="12.473236"><ele>665.0</ele><time>2026-05-02T10:50:20.318Z</time></trkpt><trkpt lat="43.557028" lon="12.4729923"><ele>662.0</ele><time>2026-05-02T10:50:21.316Z</time></trkpt><trkpt lat="43.5570324" lon="12.4727362"><ele>659.0</ele><time>2026-05-02T10:50:22.319Z</time></trkpt><trkpt lat="43.5569966" lon="12.4724794"><ele>656.6666666666666</ele><time>2026-05-02T10:50:23.317Z</time></trkpt><trkpt lat="43.556963" lon="12.4722217"><ele>654.3333333333334</ele><time>2026-05-02T10:50:24.318Z</time></trkpt><trkpt lat="43.556856" lon="12.4719589"><ele>652.0</ele><time>2026-05-02T10:50:25.316Z</time></trkpt><trkpt lat="43.5567972" lon="12.4716914"><ele>648.0</ele><time>2026-05-02T10:50:26.317Z</time></trkpt><trkpt lat="43.5567665" lon="12.4714229"><ele>644.0</ele><time>2026-05-02T10:50:27.316Z</time></trkpt><trkpt lat="43.556764" lon="12.4711337"><ele>640.0</ele><time>2026-05-02T10:50:28.319Z</time></trkpt><trkpt lat="43.5567956" lon="12.4708365"><ele>639.0</ele><time>2026-05-02T10:50:29.319Z</time></trkpt><trkpt lat="43.5568396" lon="12.4705296"><ele>638.0</ele><time>2026-05-02T10:50:30.319Z</time></trkpt><trkpt lat="43.5568927" lon="12.4702147"><ele>638.0</ele><time>2026-05-02T10:50:31.317Z</time></trkpt><trkpt lat="43.5569599" lon="12.4699172"><ele>638.0</ele><time>2026-05-02T10:50:32.317Z</time></trkpt><trkpt lat="43.55702" lon="12.4696222"><ele>638.0</ele><time>2026-05-02T10:50:33.317Z</time></trkpt><trkpt lat="43.5570807" lon="12.4693204"><ele>632.3333333333333</ele><time>2026-05-02T10:50:34.319Z</time></trkpt><trkpt lat="43.5571534" lon="12.4690391"><ele>626.6666666666666</ele><time>2026-05-02T10:50:35.318Z</time></trkpt><trkpt lat="43.5572367" lon="12.4687594"><ele>621.0</ele><time>2026-05-02T10:50:36.318Z</time></trkpt><trkpt lat="43.5573335" lon="12.4684945"><ele>621.0</ele><time>2026-05-02T10:50:37.317Z</time></trkpt><trkpt lat="43.5574394" lon="12.4682394"><ele>621.0</ele><time>2026-05-02T10:50:38.319Z</time></trkpt><trkpt lat="43.5575523" lon="12.4679945"><ele>621.0</ele><time>2026-05-02T10:50:39.317Z</time></trkpt><trkpt lat="43.5576709" lon="12.4677575"><ele>621.3333333333334</ele><time>2026-05-02T10:50:40.316Z</time></trkpt><trkpt lat="43.5578001" lon="12.4675312"><ele>621.6666666666667</ele><time>2026-05-02T10:50:41.311Z</time></trkpt><trkpt lat="43.5579232" lon="12.4673203"><ele>622.0</ele><time>2026-05-02T10:50:42.316Z</time></trkpt><trkpt lat="43.5580354" lon="12.4671284"><ele>619.75</ele><time>2026-05-02T10:50:43.316Z</time></trkpt><trkpt lat="43.5581379" lon="12.466958"><ele>617.5</ele><time>2026-05-02T10:50:44.318Z</time></trkpt><trkpt lat="43.5582271" lon="12.4668048"><ele>615.25</ele><time>2026-05-02T10:50:45.317Z</time></trkpt><trkpt lat="43.5583086" lon="12.4666697"><ele>613.0</ele><time>2026-05-02T10:50:46.318Z</time></trkpt><trkpt lat="43.5583859" lon="12.4665478"><ele>613.0</ele><time>2026-05-02T10:50:47.317Z</time></trkpt><trkpt lat="43.5584683" lon="12.4663842"><ele>613.0</ele><time>2026-05-02T10:50:48.317Z</time></trkpt><trkpt lat="43.5585806" lon="12.4661925"><ele>613.0</ele><time>2026-05-02T10:50:49.318Z</time></trkpt><trkpt lat="43.5586955" lon="12.4659721"><ele>610.0</ele><time>2026-05-02T10:50:50.317Z</time></trkpt><trkpt lat="43.5587977" lon="12.4657043"><ele>607.0</ele><time>2026-05-02T10:50:51.318Z</time></trkpt><trkpt lat="43.558879" lon="12.4654088"><ele>604.0</ele><time>2026-05-02T10:50:52.318Z</time></trkpt><trkpt lat="43.5589631" lon="12.4651179"><ele>604.0</ele><time>2026-05-02T10:50:53.318Z</time></trkpt><trkpt lat="43.5590361" lon="12.4648514"><ele>604.0</ele><time>2026-05-02T10:50:54.317Z</time></trkpt><trkpt lat="43.5591113" lon="12.464588"><ele>604.0</ele><time>2026-05-02T10:50:55.319Z</time></trkpt><trkpt lat="43.5591833" lon="12.4643441"><ele>604.6666666666667</ele><time>2026-05-02T10:50:56.317Z</time></trkpt><trkpt lat="43.5592512" lon="12.4641053"><ele>605.3333333333334</ele><time>2026-05-02T10:50:57.31Z</time></trkpt><trkpt lat="43.5592967" lon="12.46386"><ele>606.0</ele><time>2026-05-02T10:50:58.314Z</time></trkpt><trkpt lat="43.5593105" lon="12.4635742"><ele>604.0</ele><time>2026-05-02T10:50:59.314Z</time></trkpt><trkpt lat="43.5592964" lon="12.4632641"><ele>602.0</ele><time>2026-05-02T10:51:00.315Z</time></trkpt><trkpt lat="43.5592771" lon="12.4629704"><ele>600.0</ele><time>2026-05-02T10:51:01.313Z</time></trkpt><trkpt lat="43.5592545" lon="12.4626834"><ele>597.6666666666666</ele><time>2026-05-02T10:51:02.314Z</time></trkpt><trkpt lat="43.5592331" lon="12.4624064"><ele>595.3333333333333</ele><time>2026-05-02T10:51:03.313Z</time></trkpt><trkpt lat="43.5591998" lon="12.4621333"><ele>593.0</ele><time>2026-05-02T10:51:04.313Z</time></trkpt><trkpt lat="43.5591399" lon="12.4618628"><ele>591.0</ele><time>2026-05-02T10:51:05.314Z</time></trkpt><trkpt lat="43.5590667" lon="12.4616098"><ele>589.0</ele><time>2026-05-02T10:51:06.311Z</time></trkpt><trkpt lat="43.5589897" lon="12.4613692"><ele>587.0</ele><time>2026-05-02T10:51:07.318Z</time></trkpt><trkpt lat="43.5589125" lon="12.4611387"><ele>585.0</ele><time>2026-05-02T10:51:08.319Z</time></trkpt><trkpt lat="43.558843" lon="12.4609237"><ele>583.0</ele><time>2026-05-02T10:51:09.316Z</time></trkpt><trkpt lat="43.558774" lon="12.4607411"><ele>581.0</ele><time>2026-05-02T10:51:10.317Z</time></trkpt><trkpt lat="43.5587129" lon="12.4605758"><ele>581.75</ele><time>2026-05-02T10:51:11.316Z</time></trkpt><trkpt lat="43.5586611" lon="12.4604245"><ele>582.5</ele><time>2026-05-02T10:51:12.317Z</time></trkpt><trkpt lat="43.5587115" lon="12.4602823"><ele>583.25</ele><time>2026-05-02T10:51:13.317Z</time></trkpt><trkpt lat="43.558751" lon="12.460136"><ele>584.0</ele><time>2026-05-02T10:51:14.317Z</time></trkpt><trkpt lat="43.558838" lon="12.4600308"><ele>584.0</ele><time>2026-05-02T10:51:15.317Z</time></trkpt><trkpt lat="43.5589031" lon="12.4599026"><ele>584.0</ele><time>2026-05-02T10:51:16.317Z</time></trkpt><trkpt lat="43.5590048" lon="12.459824"><ele>584.0</ele><time>2026-05-02T10:51:17.32Z</time></trkpt><trkpt lat="43.559169" lon="12.4599388"><ele>584.0</ele><time>2026-05-02T10:51:18.317Z</time></trkpt><trkpt lat="43.5593495" lon="12.4600116"><ele>582.6666666666666</ele><time>2026-05-02T10:51:19.317Z</time></trkpt><trkpt lat="43.5595441" lon="12.4600359"><ele>581.3333333333334</ele><time>2026-05-02T10:51:20.317Z</time></trkpt><trkpt lat="43.5597568" lon="12.4600505"><ele>580.0</ele><time>2026-05-02T10:51:21.317Z</time></trkpt><trkpt lat="43.5599854" lon="12.46004"><ele>580.0</ele><time>2026-05-02T10:51:22.314Z</time></trkpt><trkpt lat="43.5602073" lon="12.4600255"><ele>580.0</ele><time>2026-05-02T10:51:23.318Z</time></trkpt><trkpt lat="43.5604239" lon="12.4600037"><ele>580.0</ele><time>2026-05-02T10:51:24.318Z</time></trkpt><trkpt lat="43.5606427" lon="12.4599972"><ele>577.0</ele><time>2026-05-02T10:51:25.319Z</time></trkpt><trkpt lat="43.560853" lon="12.4600041"><ele>574.0</ele><time>2026-05-02T10:51:26.316Z</time></trkpt><trkpt lat="43.5610667" lon="12.4600079"><ele>571.0</ele><time>2026-05-02T10:51:27.317Z</time></trkpt><trkpt lat="43.5612763" lon="12.4600068"><ele>570.0</ele><time>2026-05-02T10:51:28.315Z</time></trkpt><trkpt lat="43.5614761" lon="12.4600102"><ele>569.0</ele><time>2026-05-02T10:51:29.315Z</time></trkpt><trkpt lat="43.5616775" lon="12.4600091"><ele>568.0</ele><time>2026-05-02T10:51:30.313Z</time></trkpt><trkpt lat="43.5618271" lon="12.4601367"><ele>568.0</ele><time>2026-05-02T10:51:31.312Z</time></trkpt><trkpt lat="43.5619896" lon="12.4602613"><ele>568.0</ele><time>2026-05-02T10:51:32.313Z</time></trkpt><trkpt lat="43.5621616" lon="12.4604202"><ele>568.0</ele><time>2026-05-02T10:51:33.313Z</time></trkpt><trkpt lat="43.5623425" lon="12.4605981"><ele>564.0</ele><time>2026-05-02T10:51:34.309Z</time></trkpt><trkpt lat="43.5624993" lon="12.4607751"><ele>560.0</ele><time>2026-05-02T10:51:35.314Z</time></trkpt><trkpt lat="43.5626606" lon="12.4609491"><ele>556.0</ele><time>2026-05-02T10:51:36.312Z</time></trkpt><trkpt lat="43.5628349" lon="12.4610953"><ele>558.3333333333334</ele><time>2026-05-02T10:51:37.31Z</time></trkpt><trkpt lat="43.5630261" lon="12.4612068"><ele>560.6666666666666</ele><time>2026-05-02T10:51:38.313Z</time></trkpt><trkpt lat="43.5632338" lon="12.4612976"><ele>563.0</ele><time>2026-05-02T10:51:39.314Z</time></trkpt><trkpt lat="43.5634547" lon="12.4613709"><ele>553.0</ele><time>2026-05-02T10:51:40.313Z</time></trkpt><trkpt lat="43.5636839" lon="12.4614536"><ele>543.0</ele><time>2026-05-02T10:51:41.314Z</time></trkpt><trkpt lat="43.5639229" lon="12.4615301"><ele>542.5</ele><time>2026-05-02T10:51:42.314Z</time></trkpt><trkpt lat="43.5641558" lon="12.4616123"><ele>542.0</ele><time>2026-05-02T10:51:43.314Z</time></trkpt><trkpt lat="43.5643824" lon="12.4616892"><ele>542.6666666666666</ele><time>2026-05-02T10:51:44.314Z</time></trkpt><trkpt lat="43.5645974" lon="12.4617697"><ele>543.3333333333334</ele><time>2026-05-02T10:51:45.316Z</time></trkpt><trkpt lat="43.5647981" lon="12.4618409"><ele>544.0</ele><time>2026-05-02T10:51:46.317Z</time></trkpt><trkpt lat="43.5649827" lon="12.461908"><ele>544.0</ele><time>2026-05-02T10:51:47.314Z</time></trkpt><trkpt lat="43.5651452" lon="12.4620057"><ele>544.0</ele><time>2026-05-02T10:51:48.316Z</time></trkpt><trkpt lat="43.5652922" lon="12.4621581"><ele>544.0</ele><time>2026-05-02T10:51:49.313Z</time></trkpt><trkpt lat="43.565411" lon="12.4623417"><ele>543.0</ele><time>2026-05-02T10:51:50.314Z</time></trkpt><trkpt lat="43.5654846" lon="12.4625456"><ele>542.0</ele><time>2026-05-02T10:51:51.313Z</time></trkpt><trkpt lat="43.5655459" lon="12.4627286"><ele>541.0</ele><time>2026-05-02T10:51:52.315Z</time></trkpt><trkpt lat="43.5656255" lon="12.4628795"><ele>540.0</ele><time>2026-05-02T10:51:53.314Z</time></trkpt><trkpt lat="43.5657422" lon="12.4629829"><ele>531.3333333333334</ele><time>2026-05-02T10:51:54.316Z</time></trkpt><trkpt lat="43.5658987" lon="12.4630358"><ele>522.6666666666667</ele><time>2026-05-02T10:51:55.314Z</time></trkpt><trkpt lat="43.5660509" lon="12.46309"><ele>514.0</ele><time>2026-05-02T10:51:56.314Z</time></trkpt><trkpt lat="43.5662585" lon="12.4630453"><ele>509.33333333333337</ele><time>2026-05-02T10:51:57.315Z</time></trkpt><trkpt lat="43.5664191" lon="12.46301"><ele>504.66666666666663</ele><time>2026-05-02T10:51:58.315Z</time></trkpt><trkpt lat="43.5665612" lon="12.4629465"><ele>500.0</ele><time>2026-05-02T10:51:59.314Z</time></trkpt><trkpt lat="43.5666844" lon="12.4628354"><ele>507.5</ele><time>2026-05-02T10:52:00.314Z</time></trkpt><trkpt lat="43.5667942" lon="12.4627185"><ele>515.0</ele><time>2026-05-02T10:52:01.31Z</time></trkpt><trkpt lat="43.5668276" lon="12.4625158"><ele>522.5</ele><time>2026-05-02T10:52:02.315Z</time></trkpt><trkpt lat="43.5668547" lon="12.4623143"><ele>530.0</ele><time>2026-05-02T10:52:03.314Z</time></trkpt><trkpt lat="43.5668766" lon="12.4621116"><ele>528.5</ele><time>2026-05-02T10:52:04.313Z</time></trkpt><trkpt lat="43.5669132" lon="12.4619407"><ele>527.0</ele><time>2026-05-02T10:52:05.318Z</time></trkpt><trkpt lat="43.5669742" lon="12.4617999"><ele>525.5</ele><time>2026-05-02T10:52:06.318Z</time></trkpt><trkpt lat="43.5670721" lon="12.4617209"><ele>524.0</ele><time>2026-05-02T10:52:07.319Z</time></trkpt><trkpt lat="43.5671866" lon="12.4616812"><ele>524.0</ele><time>2026-05-02T10:52:08.318Z</time></trkpt><trkpt lat="43.5673145" lon="12.4617091"><ele>524.0</ele><time>2026-05-02T10:52:09.316Z</time></trkpt><trkpt lat="43.5674446" lon="12.4617373"><ele>524.0</ele><time>2026-05-02T10:52:10.318Z</time></trkpt><trkpt lat="43.5675812" lon="12.4616988"><ele>524.0</ele><time>2026-05-02T10:52:11.318Z</time></trkpt><trkpt lat="43.5677104" lon="12.4616074"><ele>524.0</ele><time>2026-05-02T10:52:12.317Z</time></trkpt><trkpt lat="43.567825" lon="12.4614672"><ele>524.0</ele><time>2026-05-02T10:52:13.318Z</time></trkpt><trkpt lat="43.5679355" lon="12.4613539"><ele>524.0</ele><time>2026-05-02T10:52:14.317Z</time></trkpt><trkpt lat="43.5680509" lon="12.4612833"><ele>524.0</ele><time>2026-05-02T10:52:15.318Z</time></trkpt><trkpt lat="43.5681738" lon="12.4612764"><ele>521.5</ele><time>2026-05-02T10:52:16.317Z</time></trkpt><trkpt lat="43.5683023" lon="12.4613282"><ele>519.0</ele><time>2026-05-02T10:52:17.316Z</time></trkpt><trkpt lat="43.5684521" lon="12.4613476"><ele>516.5</ele><time>2026-05-02T10:52:18.318Z</time></trkpt><trkpt lat="43.5686015" lon="12.4613046"><ele>514.0</ele><time>2026-05-02T10:52:19.317Z</time></trkpt><trkpt lat="43.5687785" lon="12.4611987"><ele>520.6666666666667</ele><time>2026-05-02T10:52:20.317Z</time></trkpt><trkpt lat="43.5689824" lon="12.4610703"><ele>527.3333333333334</ele><time>2026-05-02T10:52:21.318Z</time></trkpt><trkpt lat="43.5691775" lon="12.460941"><ele>534.0</ele><time>2026-05-02T10:52:22.318Z</time></trkpt><trkpt lat="43.5693547" lon="12.4608314"><ele>531.3333333333334</ele><time>2026-05-02T10:52:23.317Z</time></trkpt><trkpt lat="43.5695264" lon="12.4607445"><ele>528.6666666666667</ele><time>2026-05-02T10:52:24.318Z</time></trkpt><trkpt lat="43.5696968" lon="12.4607203"><ele>526.0</ele><time>2026-05-02T10:52:25.318Z</time></trkpt><trkpt lat="43.5698787" lon="12.4607387"><ele>526.0</ele><time>2026-05-02T10:52:26.318Z</time></trkpt><trkpt lat="43.5700615" lon="12.4607782"><ele>526.0</ele><time>2026-05-02T10:52:27.318Z</time></trkpt><trkpt lat="43.57022" lon="12.4607798"><ele>526.0</ele><time>2026-05-02T10:52:28.322Z</time></trkpt><trkpt lat="43.570381" lon="12.4607301"><ele>528.6666666666667</ele><time>2026-05-02T10:52:29.318Z</time></trkpt><trkpt lat="43.5705397" lon="12.460623"><ele>531.3333333333334</ele><time>2026-05-02T10:52:30.32Z</time></trkpt><trkpt lat="43.5706954" lon="12.4605076"><ele>534.0</ele><time>2026-05-02T10:52:31.318Z</time></trkpt><trkpt lat="43.5708762" lon="12.4603944"><ele>534.0</ele><time>2026-05-02T10:52:32.316Z</time></trkpt><trkpt lat="43.5710532" lon="12.4603227"><ele>534.0</ele><time>2026-05-02T10:52:33.319Z</time></trkpt><trkpt lat="43.5712288" lon="12.4603051"><ele>534.0</ele><time>2026-05-02T10:52:34.318Z</time></trkpt><trkpt lat="43.5714017" lon="12.4603279"><ele>531.6666666666666</ele><time>2026-05-02T10:52:35.319Z</time></trkpt><trkpt lat="43.5715636" lon="12.4603998"><ele>529.3333333333333</ele><time>2026-05-02T10:52:36.319Z</time></trkpt><trkpt lat="43.571712" lon="12.4605004"><ele>527.0</ele><time>2026-05-02T10:52:37.318Z</time></trkpt><trkpt lat="43.5718448" lon="12.4605978"><ele>523.75</ele><time>2026-05-02T10:52:38.317Z</time></trkpt><trkpt lat="43.5719663" lon="12.4606592"><ele>520.5</ele><time>2026-05-02T10:52:39.318Z</time></trkpt><trkpt lat="43.5720861" lon="12.4606519"><ele>517.25</ele><time>2026-05-02T10:52:40.324Z</time></trkpt><trkpt lat="43.572205" lon="12.4606138"><ele>514.0</ele><time>2026-05-02T10:52:41.318Z</time></trkpt><trkpt lat="43.5722871" lon="12.4604518"><ele>516.6666666666667</ele><time>2026-05-02T10:52:42.318Z</time></trkpt><trkpt lat="43.5723794" lon="12.4602946"><ele>519.3333333333334</ele><time>2026-05-02T10:52:43.318Z</time></trkpt><trkpt lat="43.5724886" lon="12.4601253"><ele>522.0</ele><time>2026-05-02T10:52:44.318Z</time></trkpt><trkpt lat="43.572608" lon="12.4599633"><ele>522.0</ele><time>2026-05-02T10:52:45.318Z</time></trkpt><trkpt lat="43.5727248" lon="12.4598189"><ele>522.0</ele><time>2026-05-02T10:52:46.318Z</time></trkpt><trkpt lat="43.5728483" lon="12.4597003"><ele>522.0</ele><time>2026-05-02T10:52:47.319Z</time></trkpt><trkpt lat="43.5729717" lon="12.4596031"><ele>522.0</ele><time>2026-05-02T10:52:48.317Z</time></trkpt><trkpt lat="43.5730992" lon="12.4595255"><ele>521.0</ele><time>2026-05-02T10:52:49.314Z</time></trkpt><trkpt lat="43.5732296" lon="12.4594979"><ele>520.0</ele><time>2026-05-02T10:52:50.316Z</time></trkpt><trkpt lat="43.5733754" lon="12.4594851"><ele>519.0</ele><time>2026-05-02T10:52:51.316Z</time></trkpt><trkpt lat="43.5735012" lon="12.4595134"><ele>518.0</ele><time>2026-05-02T10:52:52.314Z</time></trkpt><trkpt lat="43.5736365" lon="12.4596023"><ele>517.0</ele><time>2026-05-02T10:52:53.317Z</time></trkpt><trkpt lat="43.5738071" lon="12.4596963"><ele>516.0</ele><time>2026-05-02T10:52:54.317Z</time></trkpt><trkpt lat="43.5739741" lon="12.4597784"><ele>515.0</ele><time>2026-05-02T10:52:55.315Z</time></trkpt><trkpt lat="43.574144" lon="12.459872"><ele>515.0</ele><time>2026-05-02T10:52:56.318Z</time></trkpt><trkpt lat="43.57433" lon="12.4599463"><ele>515.0</ele><time>2026-05-02T10:52:57.318Z</time></trkpt><trkpt lat="43.5745219" lon="12.4600011"><ele>515.0</ele><time>2026-05-02T10:52:58.318Z</time></trkpt><trkpt lat="43.5747276" lon="12.4600374"><ele>510.3333333333333</ele><time>2026-05-02T10:52:59.318Z</time></trkpt><trkpt lat="43.5749457" lon="12.4600343"><ele>505.66666666666663</ele><time>2026-05-02T10:53:00.32Z</time></trkpt><trkpt lat="43.5751634" lon="12.4600165"><ele>501.0</ele><time>2026-05-02T10:53:01.32Z</time></trkpt><trkpt lat="43.5753749" lon="12.4599966"><ele>499.66666666666663</ele><time>2026-05-02T10:53:02.318Z</time></trkpt><trkpt lat="43.5755848" lon="12.459967"><ele>498.3333333333333</ele><time>2026-05-02T10:53:03.317Z</time></trkpt><trkpt lat="43.5757722" lon="12.4599048"><ele>497.0</ele><time>2026-05-02T10:53:04.317Z</time></trkpt><trkpt lat="43.5759668" lon="12.4598516"><ele>497.0</ele><time>2026-05-02T10:53:05.316Z</time></trkpt><trkpt lat="43.5761225" lon="12.4596413"><ele>497.0</ele><time>2026-05-02T10:53:06.317Z</time></trkpt><trkpt lat="43.5762758" lon="12.4594765"><ele>497.0</ele><time>2026-05-02T10:53:07.317Z</time></trkpt><trkpt lat="43.5764138" lon="12.4592969"><ele>492.3333333333333</ele><time>2026-05-02T10:53:08.318Z</time></trkpt><trkpt lat="43.5765495" lon="12.4591247"><ele>487.66666666666663</ele><time>2026-05-02T10:53:09.318Z</time></trkpt><trkpt lat="43.5766684" lon="12.4589636"><ele>483.0</ele><time>2026-05-02T10:53:10.318Z</time></trkpt><trkpt lat="43.576786" lon="12.4588297"><ele>482.5</ele><time>2026-05-02T10:53:11.318Z</time></trkpt><trkpt lat="43.5769135" lon="12.458739"><ele>482.0</ele><time>2026-05-02T10:53:12.318Z</time></trkpt><trkpt lat="43.5770476" lon="12.4587068"><ele>481.5</ele><time>2026-05-02T10:53:13.319Z</time></trkpt><trkpt lat="43.5772001" lon="12.4587474"><ele>481.0</ele><time>2026-05-02T10:53:14.317Z</time></trkpt><trkpt lat="43.5773593" lon="12.4588412"><ele>481.0</ele><time>2026-05-02T10:53:15.318Z</time></trkpt><trkpt lat="43.5775313" lon="12.4589466"><ele>481.0</ele><time>2026-05-02T10:53:16.318Z</time></trkpt><trkpt lat="43.5776903" lon="12.4590504"><ele>481.0</ele><time>2026-05-02T10:53:17.316Z</time></trkpt><trkpt lat="43.577833" lon="12.4591471"><ele>476.4</ele><time>2026-05-02T10:53:18.318Z</time></trkpt><trkpt lat="43.5779573" lon="12.4592287"><ele>471.8</ele><time>2026-05-02T10:53:19.319Z</time></trkpt><trkpt lat="43.5780686" lon="12.4592746"><ele>467.19999999999993</ele><time>2026-05-02T10:53:20.318Z</time></trkpt><trkpt lat="43.5781703" lon="12.4592673"><ele>462.59999999999997</ele><time>2026-05-02T10:53:21.319Z</time></trkpt><trkpt lat="43.5782468" lon="12.4592019"><ele>458.0</ele><time>2026-05-02T10:53:22.314Z</time></trkpt><trkpt lat="43.5782904" lon="12.4591016"><ele>458.0</ele><time>2026-05-02T10:53:23.318Z</time></trkpt><trkpt lat="43.578296" lon="12.4589872"><ele>457.99999999999994</ele><time>2026-05-02T10:53:24.318Z</time></trkpt><trkpt lat="43.5782538" lon="12.4588817"><ele>457.99999999999994</ele><time>2026-05-02T10:53:25.318Z</time></trkpt><trkpt lat="43.5781587" lon="12.458775"><ele>458.0</ele><time>2026-05-02T10:53:26.318Z</time></trkpt><trkpt lat="43.5780182" lon="12.4586872"><ele>458.0</ele><time>2026-05-02T10:53:27.315Z</time></trkpt><trkpt lat="43.5778495" lon="12.4585851"><ele>461.0</ele><time>2026-05-02T10:53:28.318Z</time></trkpt><trkpt lat="43.5776618" lon="12.4584615"><ele>464.0</ele><time>2026-05-02T10:53:29.318Z</time></trkpt><trkpt lat="43.5774919" lon="12.4583562"><ele>467.0</ele><time>2026-05-02T10:53:30.318Z</time></trkpt><trkpt lat="43.5773401" lon="12.4582741"><ele>467.0</ele><time>2026-05-02T10:53:31.317Z</time></trkpt><trkpt lat="43.5772155" lon="12.4582139"><ele>467.00000000000006</ele><time>2026-05-02T10:53:32.318Z</time></trkpt><trkpt lat="43.5771159" lon="12.4581376"><ele>467.00000000000006</ele><time>2026-05-02T10:53:33.317Z</time></trkpt><trkpt lat="43.5770576" lon="12.4580341"><ele>467.0</ele><time>2026-05-02T10:53:34.318Z</time></trkpt><trkpt lat="43.5770541" lon="12.4579207"><ele>467.0</ele><time>2026-05-02T10:53:35.318Z</time></trkpt><trkpt lat="43.5771025" lon="12.4578305"><ele>467.0</ele><time>2026-05-02T10:53:36.32Z</time></trkpt><trkpt lat="43.5771849" lon="12.4577904"><ele>467.0</ele><time>2026-05-02T10:53:37.318Z</time></trkpt><trkpt lat="43.5772945" lon="12.4578197"><ele>467.0</ele><time>2026-05-02T10:53:38.312Z</time></trkpt><trkpt lat="43.5774287" lon="12.4578918"><ele>467.0</ele><time>2026-05-02T10:53:39.318Z</time></trkpt><trkpt lat="43.5775839" lon="12.458006"><ele>467.0</ele><time>2026-05-02T10:53:40.317Z</time></trkpt><trkpt lat="43.5777652" lon="12.4581319"><ele>467.0</ele><time>2026-05-02T10:53:41.316Z</time></trkpt><trkpt lat="43.5779362" lon="12.4582638"><ele>467.0</ele><time>2026-05-02T10:53:42.316Z</time></trkpt><trkpt lat="43.5781127" lon="12.4582967"><ele>463.66666666666663</ele><time>2026-05-02T10:53:43.317Z</time></trkpt><trkpt lat="43.5782757" lon="12.4583689"><ele>460.33333333333337</ele><time>2026-05-02T10:53:44.317Z</time></trkpt><trkpt lat="43.5784209" lon="12.4584303"><ele>457.0</ele><time>2026-05-02T10:53:45.318Z</time></trkpt><trkpt lat="43.5785501" lon="12.4584809"><ele>457.0</ele><time>2026-05-02T10:53:46.318Z</time></trkpt><trkpt lat="43.5786632" lon="12.4584654"><ele>457.00000000000006</ele><time>2026-05-02T10:53:47.317Z</time></trkpt><trkpt lat="43.578735" lon="12.4583794"><ele>457.00000000000006</ele><time>2026-05-02T10:53:48.319Z</time></trkpt><trkpt lat="43.5787763" lon="12.4582586"><ele>457.0</ele><time>2026-05-02T10:53:49.317Z</time></trkpt><trkpt lat="43.5787679" lon="12.4581365"><ele>457.0</ele><time>2026-05-02T10:53:50.316Z</time></trkpt><trkpt lat="43.5787045" lon="12.4580159"><ele>450.0</ele><time>2026-05-02T10:53:51.318Z</time></trkpt><trkpt lat="43.5785876" lon="12.4579244"><ele>443.0</ele><time>2026-05-02T10:53:52.317Z</time></trkpt><trkpt lat="43.5784367" lon="12.4578468"><ele>436.0</ele><time>2026-05-02T10:53:53.317Z</time></trkpt><trkpt lat="43.5782662" lon="12.4577614"><ele>436.0</ele><time>2026-05-02T10:53:54.315Z</time></trkpt><trkpt lat="43.5780935" lon="12.4576313"><ele>436.0</ele><time>2026-05-02T10:53:55.318Z</time></trkpt><trkpt lat="43.5779163" lon="12.4574761"><ele>436.0</ele><time>2026-05-02T10:53:56.312Z</time></trkpt><trkpt lat="43.5777407" lon="12.45732"><ele>435.33333333333337</ele><time>2026-05-02T10:53:57.317Z</time></trkpt><trkpt lat="43.5775626" lon="12.4571535"><ele>434.66666666666663</ele><time>2026-05-02T10:53:58.318Z</time></trkpt><trkpt lat="43.5774096" lon="12.4570004"><ele>434.0</ele><time>2026-05-02T10:53:59.319Z</time></trkpt><trkpt lat="43.5772685" lon="12.456863"><ele>434.0</ele><time>2026-05-02T10:54:00.318Z</time></trkpt><trkpt lat="43.5771431" lon="12.4567245"><ele>434.0</ele><time>2026-05-02T10:54:01.318Z</time></trkpt><trkpt lat="43.5771019" lon="12.4565632"><ele>434.0</ele><time>2026-05-02T10:54:02.318Z</time></trkpt><trkpt lat="43.5770763" lon="12.4563933"><ele>434.0</ele><time>2026-05-02T10:54:03.319Z</time></trkpt><trkpt lat="43.5770813" lon="12.4562181"><ele>434.0</ele><time>2026-05-02T10:54:04.319Z</time></trkpt><trkpt lat="43.5770919" lon="12.4560368"><ele>434.0</ele><time>2026-05-02T10:54:05.319Z</time></trkpt><trkpt lat="43.577223" lon="12.4558893"><ele>434.0</ele><time>2026-05-02T10:54:06.319Z</time></trkpt><trkpt lat="43.5773295" lon="12.455725"><ele>434.0</ele><time>2026-05-02T10:54:07.32Z</time></trkpt><trkpt lat="43.5775516" lon="12.4555571"><ele>434.0</ele><time>2026-05-02T10:54:08.32Z</time></trkpt><trkpt lat="43.5777317" lon="12.4553835"><ele>431.0</ele><time>2026-05-02T10:54:09.319Z</time></trkpt><trkpt lat="43.5779219" lon="12.4552001"><ele>428.0</ele><time>2026-05-02T10:54:10.317Z</time></trkpt><trkpt lat="43.5780982" lon="12.4550304"><ele>425.0</ele><time>2026-05-02T10:54:11.32Z</time></trkpt><trkpt lat="43.5782645" lon="12.4548622"><ele>425.0</ele><time>2026-05-02T10:54:12.319Z</time></trkpt><trkpt lat="43.5784239" lon="12.454698"><ele>425.0</ele><time>2026-05-02T10:54:13.319Z</time></trkpt><trkpt lat="43.5785791" lon="12.4545481"><ele>425.0</ele><time>2026-05-02T10:54:14.318Z</time></trkpt><trkpt lat="43.5787329" lon="12.454406"><ele>423.66666666666663</ele><time>2026-05-02T10:54:15.316Z</time></trkpt><trkpt lat="43.5789" lon="12.4542782"><ele>422.33333333333337</ele><time>2026-05-02T10:54:16.316Z</time></trkpt><trkpt lat="43.5790653" lon="12.4541852"><ele>421.0</ele><time>2026-05-02T10:54:17.317Z</time></trkpt><trkpt lat="43.5792547" lon="12.4541912"><ele>421.0</ele><time>2026-05-02T10:54:18.317Z</time></trkpt><trkpt lat="43.5794497" lon="12.4542042"><ele>421.0</ele><time>2026-05-02T10:54:19.319Z</time></trkpt><trkpt lat="43.5796305" lon="12.454232"><ele>421.0</ele><time>2026-05-02T10:54:20.319Z</time></trkpt><trkpt lat="43.5798023" lon="12.454259"><ele>420.6666666666667</ele><time>2026-05-02T10:54:21.318Z</time></trkpt><trkpt lat="43.5799602" lon="12.4542762"><ele>420.33333333333337</ele><time>2026-05-02T10:54:22.32Z</time></trkpt><trkpt lat="43.5801211" lon="12.4542959"><ele>420.0</ele><time>2026-05-02T10:54:23.319Z</time></trkpt><trkpt lat="43.5802552" lon="12.4543293"><ele>420.0</ele><time>2026-05-02T10:54:24.32Z</time></trkpt><trkpt lat="43.5803406" lon="12.4543968"><ele>420.0</ele><time>2026-05-02T10:54:25.319Z</time></trkpt><trkpt lat="43.5804352" lon="12.4544401"><ele>420.0</ele><time>2026-05-02T10:54:26.317Z</time></trkpt><trkpt lat="43.5805083" lon="12.4544672"><ele>420.0</ele><time>2026-05-02T10:54:27.32Z</time></trkpt><trkpt lat="43.5805838" lon="12.4544607"><ele>420.0</ele><time>2026-05-02T10:54:29.319Z</time></trkpt><trkpt lat="43.5806539" lon="12.4543577"><ele>420.5</ele><time>2026-05-02T10:54:36.322Z</time></trkpt><trkpt lat="43.5806827" lon="12.4542523"><ele>421.0</ele><time>2026-05-02T10:54:37.319Z</time></trkpt><trkpt lat="43.5806993" lon="12.454046"><ele>421.5</ele><time>2026-05-02T10:54:38.318Z</time></trkpt><trkpt lat="43.5807098" lon="12.4537678"><ele>422.0</ele><time>2026-05-02T10:54:39.316Z</time></trkpt><trkpt lat="43.5806994" lon="12.4534919"><ele>424.66666666666663</ele><time>2026-05-02T10:54:40.319Z</time></trkpt><trkpt lat="43.5806414" lon="12.4532046"><ele>427.33333333333337</ele><time>2026-05-02T10:54:41.317Z</time></trkpt><trkpt lat="43.580551" lon="12.4529564"><ele>430.0</ele><time>2026-05-02T10:54:42.316Z</time></trkpt><trkpt lat="43.5804296" lon="12.452731"><ele>428.33333333333337</ele><time>2026-05-02T10:54:43.317Z</time></trkpt><trkpt lat="43.580294" lon="12.4525288"><ele>426.66666666666663</ele><time>2026-05-02T10:54:44.316Z</time></trkpt><trkpt lat="43.5801598" lon="12.4523232"><ele>425.0</ele><time>2026-05-02T10:54:45.315Z</time></trkpt><trkpt lat="43.580032" lon="12.4521084"><ele>428.0</ele><time>2026-05-02T10:54:46.317Z</time></trkpt><trkpt lat="43.5800509" lon="12.4517801"><ele>431.0</ele><time>2026-05-02T10:54:47.314Z</time></trkpt><trkpt lat="43.5800392" lon="12.4515043"><ele>434.0</ele><time>2026-05-02T10:54:48.317Z</time></trkpt><trkpt lat="43.5800754" lon="12.4512025"><ele>434.0</ele><time>2026-05-02T10:54:49.317Z</time></trkpt><trkpt lat="43.5801238" lon="12.4509157"><ele>434.0</ele><time>2026-05-02T10:54:50.31Z</time></trkpt><trkpt lat="43.5801672" lon="12.4506238"><ele>434.0</ele><time>2026-05-02T10:54:51.315Z</time></trkpt><trkpt lat="43.5802039" lon="12.4503418"><ele>433.3333333333333</ele><time>2026-05-02T10:54:52.309Z</time></trkpt><trkpt lat="43.5800574" lon="12.4501209"><ele>432.66666666666663</ele><time>2026-05-02T10:54:53.319Z</time></trkpt><trkpt lat="43.5800181" lon="12.4498617"><ele>432.0</ele><time>2026-05-02T10:54:54.314Z</time></trkpt><trkpt lat="43.5799187" lon="12.4496102"><ele>434.5</ele><time>2026-05-02T10:54:55.316Z</time></trkpt><trkpt lat="43.5796447" lon="12.4493333"><ele>437.0</ele><time>2026-05-02T10:54:56.315Z</time></trkpt><trkpt lat="43.5794682" lon="12.4490517"><ele>440.5</ele><time>2026-05-02T10:54:57.317Z</time></trkpt><trkpt lat="43.5792823" lon="12.4487796"><ele>444.0</ele><time>2026-05-02T10:54:58.317Z</time></trkpt><trkpt lat="43.5791008" lon="12.4485069"><ele>444.0</ele><time>2026-05-02T10:54:59.316Z</time></trkpt><trkpt lat="43.5789178" lon="12.4482363"><ele>444.0</ele><time>2026-05-02T10:55:00.318Z</time></trkpt><trkpt lat="43.5787356" lon="12.4479668"><ele>442.0</ele><time>2026-05-02T10:55:01.318Z</time></trkpt><trkpt lat="43.5785783" lon="12.4477072"><ele>440.0</ele><time>2026-05-02T10:55:02.316Z</time></trkpt><trkpt lat="43.578456" lon="12.4474219"><ele>440.0</ele><time>2026-05-02T10:55:03.32Z</time></trkpt><trkpt lat="43.5783689" lon="12.4471296"><ele>440.0</ele><time>2026-05-02T10:55:04.315Z</time></trkpt><trkpt lat="43.5782755" lon="12.4468316"><ele>443.5</ele><time>2026-05-02T10:55:05.317Z</time></trkpt><trkpt lat="43.5781581" lon="12.4465601"><ele>447.0</ele><time>2026-05-02T10:55:06.313Z</time></trkpt><trkpt lat="43.5780035" lon="12.4463211"><ele>447.0</ele><time>2026-05-02T10:55:07.316Z</time></trkpt><trkpt lat="43.5778164" lon="12.4460958"><ele>447.0</ele><time>2026-05-02T10:55:08.317Z</time></trkpt><trkpt lat="43.5776204" lon="12.445876"><ele>447.0</ele><time>2026-05-02T10:55:09.319Z</time></trkpt><trkpt lat="43.5774223" lon="12.4456551"><ele>447.0</ele><time>2026-05-02T10:55:10.317Z</time></trkpt><trkpt lat="43.5772388" lon="12.4454446"><ele>446.66666666666663</ele><time>2026-05-02T10:55:11.317Z</time></trkpt><trkpt lat="43.5770893" lon="12.4452202"><ele>446.3333333333333</ele><time>2026-05-02T10:55:12.318Z</time></trkpt><trkpt lat="43.5769794" lon="12.4449652"><ele>446.0</ele><time>2026-05-02T10:55:13.318Z</time></trkpt><trkpt lat="43.5768874" lon="12.4446858"><ele>450.0</ele><time>2026-05-02T10:55:14.317Z</time></trkpt><trkpt lat="43.5767853" lon="12.4444337"><ele>454.0</ele><time>2026-05-02T10:55:15.317Z</time></trkpt><trkpt lat="43.5766559" lon="12.4442068"><ele>458.0</ele><time>2026-05-02T10:55:16.316Z</time></trkpt><trkpt lat="43.5765012" lon="12.4440238"><ele>458.0</ele><time>2026-05-02T10:55:17.315Z</time></trkpt><trkpt lat="43.5763351" lon="12.443873"><ele>458.0</ele><time>2026-05-02T10:55:18.315Z</time></trkpt><trkpt lat="43.5761634" lon="12.4437897"><ele>458.0</ele><time>2026-05-02T10:55:19.316Z</time></trkpt><trkpt lat="43.575999" lon="12.4437149"><ele>457.3333333333333</ele><time>2026-05-02T10:55:20.317Z</time></trkpt><trkpt lat="43.5758388" lon="12.4436549"><ele>456.66666666666663</ele><time>2026-05-02T10:55:21.316Z</time></trkpt><trkpt lat="43.5755644" lon="12.4435822"><ele>456.0</ele><time>2026-05-02T10:55:22.318Z</time></trkpt><trkpt lat="43.5753141" lon="12.443478"><ele>456.0</ele><time>2026-05-02T10:55:23.317Z</time></trkpt><trkpt lat="43.575063" lon="12.4433852"><ele>456.0</ele><time>2026-05-02T10:55:24.316Z</time></trkpt><trkpt lat="43.5747993" lon="12.4432626"><ele>456.0</ele><time>2026-05-02T10:55:25.315Z</time></trkpt><trkpt lat="43.5745219" lon="12.4431091"><ele>456.0</ele><time>2026-05-02T10:55:26.317Z</time></trkpt><trkpt lat="43.5742842" lon="12.4429155"><ele>459.5</ele><time>2026-05-02T10:55:27.311Z</time></trkpt><trkpt lat="43.5740371" lon="12.4427403"><ele>463.0</ele><time>2026-05-02T10:55:28.315Z</time></trkpt><trkpt lat="43.5737858" lon="12.4425764"><ele>458.0</ele><time>2026-05-02T10:55:29.307Z</time></trkpt><trkpt lat="43.573536" lon="12.4424159"><ele>453.0</ele><time>2026-05-02T10:55:30.312Z</time></trkpt><trkpt lat="43.5732933" lon="12.4422599"><ele>456.0</ele><time>2026-05-02T10:55:31.313Z</time></trkpt><trkpt lat="43.5730466" lon="12.4421015"><ele>459.0</ele><time>2026-05-02T10:55:32.313Z</time></trkpt><trkpt lat="43.5728054" lon="12.441923"><ele>459.0</ele><time>2026-05-02T10:55:33.312Z</time></trkpt><trkpt lat="43.5725744" lon="12.4417191"><ele>459.0</ele><time>2026-05-02T10:55:34.313Z</time></trkpt><trkpt lat="43.5723543" lon="12.4414888"><ele>461.5</ele><time>2026-05-02T10:55:35.314Z</time></trkpt><trkpt lat="43.5721279" lon="12.4412733"><ele>464.0</ele><time>2026-05-02T10:55:36.308Z</time></trkpt><trkpt lat="43.5718998" lon="12.441054"><ele>464.0</ele><time>2026-05-02T10:55:37.316Z</time></trkpt><trkpt lat="43.5716771" lon="12.4408583"><ele>464.0</ele><time>2026-05-02T10:55:38.317Z</time></trkpt><trkpt lat="43.5714552" lon="12.4406827"><ele>464.0</ele><time>2026-05-02T10:55:39.317Z</time></trkpt><trkpt lat="43.5712293" lon="12.4405163"><ele>464.0</ele><time>2026-05-02T10:55:40.318Z</time></trkpt><trkpt lat="43.571011" lon="12.4403345"><ele>463.5</ele><time>2026-05-02T10:55:41.318Z</time></trkpt><trkpt lat="43.5708217" lon="12.4401208"><ele>463.0</ele><time>2026-05-02T10:55:42.319Z</time></trkpt><trkpt lat="43.5706444" lon="12.4398749"><ele>460.5</ele><time>2026-05-02T10:55:43.316Z</time></trkpt><trkpt lat="43.5704835" lon="12.4395967"><ele>458.0</ele><time>2026-05-02T10:55:44.317Z</time></trkpt><trkpt lat="43.5703485" lon="12.4392842"><ele>458.0</ele><time>2026-05-02T10:55:45.308Z</time></trkpt><trkpt lat="43.5702206" lon="12.438952"><ele>458.0</ele><time>2026-05-02T10:55:46.314Z</time></trkpt><trkpt lat="43.5700898" lon="12.4386312"><ele>458.0</ele><time>2026-05-02T10:55:47.313Z</time></trkpt><trkpt lat="43.569961" lon="12.4382856"><ele>458.0</ele><time>2026-05-02T10:55:48.309Z</time></trkpt><trkpt lat="43.5698328" lon="12.4379471"><ele>458.0</ele><time>2026-05-02T10:55:49.313Z</time></trkpt><trkpt lat="43.5697119" lon="12.4376024"><ele>458.0</ele><time>2026-05-02T10:55:50.314Z</time></trkpt><trkpt lat="43.5696009" lon="12.4372511"><ele>458.0</ele><time>2026-05-02T10:55:51.313Z</time></trkpt><trkpt lat="43.5695057" lon="12.4369042"><ele>458.0</ele><time>2026-05-02T10:55:52.314Z</time></trkpt><trkpt lat="43.5694138" lon="12.4365673"><ele>459.5</ele><time>2026-05-02T10:55:53.315Z</time></trkpt><trkpt lat="43.5693257" lon="12.4362469"><ele>461.0</ele><time>2026-05-02T10:55:54.311Z</time></trkpt><trkpt lat="43.5692328" lon="12.4359476"><ele>461.0</ele><time>2026-05-02T10:55:55.318Z</time></trkpt><trkpt lat="43.569112" lon="12.4356854"><ele>461.0</ele><time>2026-05-02T10:55:56.317Z</time></trkpt><trkpt lat="43.5689669" lon="12.4354692"><ele>461.0</ele><time>2026-05-02T10:55:57.318Z</time></trkpt><trkpt lat="43.5687765" lon="12.4352964"><ele>460.0</ele><time>2026-05-02T10:55:58.318Z</time></trkpt><trkpt lat="43.568558" lon="12.4351431"><ele>459.0</ele><time>2026-05-02T10:55:59.315Z</time></trkpt><trkpt lat="43.568315" lon="12.4349834"><ele>459.0</ele><time>2026-05-02T10:56:00.317Z</time></trkpt><trkpt lat="43.5680592" lon="12.4348086"><ele>459.0</ele><time>2026-05-02T10:56:01.316Z</time></trkpt><trkpt lat="43.5677898" lon="12.4346375"><ele>458.5</ele><time>2026-05-02T10:56:02.316Z</time></trkpt><trkpt lat="43.5675294" lon="12.4344791"><ele>458.0</ele><time>2026-05-02T10:56:03.319Z</time></trkpt><trkpt lat="43.5672858" lon="12.4343227"><ele>458.0</ele><time>2026-05-02T10:56:04.317Z</time></trkpt><trkpt lat="43.5670338" lon="12.4341602"><ele>458.0</ele><time>2026-05-02T10:56:05.319Z</time></trkpt><trkpt lat="43.5668208" lon="12.4339249"><ele>459.5</ele><time>2026-05-02T10:56:06.319Z</time></trkpt><trkpt lat="43.5665964" lon="12.4336842"><ele>461.0</ele><time>2026-05-02T10:56:07.317Z</time></trkpt><trkpt lat="43.5663804" lon="12.4334436"><ele>462.5</ele><time>2026-05-02T10:56:08.317Z</time></trkpt><trkpt lat="43.5661684" lon="12.4331733"><ele>464.0</ele><time>2026-05-02T10:56:09.319Z</time></trkpt><trkpt lat="43.5659699" lon="12.4328173"><ele>464.0</ele><time>2026-05-02T10:56:10.318Z</time></trkpt><trkpt lat="43.5657672" lon="12.4325093"><ele>464.0</ele><time>2026-05-02T10:56:11.319Z</time></trkpt><trkpt lat="43.5655665" lon="12.4321924"><ele>464.5</ele><time>2026-05-02T10:56:12.317Z</time></trkpt><trkpt lat="43.5653647" lon="12.4319008"><ele>465.0</ele><time>2026-05-02T10:56:13.318Z</time></trkpt><trkpt lat="43.5651889" lon="12.4316309"><ele>465.0</ele><time>2026-05-02T10:56:14.318Z</time></trkpt><trkpt lat="43.5650254" lon="12.4313751"><ele>465.0</ele><time>2026-05-02T10:56:15.316Z</time></trkpt><trkpt lat="43.5648984" lon="12.4311111"><ele>469.0</ele><time>2026-05-02T10:56:16.318Z</time></trkpt><trkpt lat="43.5648077" lon="12.4308337"><ele>473.0</ele><time>2026-05-02T10:56:17.317Z</time></trkpt><trkpt lat="43.5647494" lon="12.4305191"><ele>479.5</ele><time>2026-05-02T10:56:18.318Z</time></trkpt><trkpt lat="43.5646682" lon="12.4302203"><ele>486.0</ele><time>2026-05-02T10:56:19.318Z</time></trkpt><trkpt lat="43.564551" lon="12.4299195"><ele>483.5</ele><time>2026-05-02T10:56:20.318Z</time></trkpt><trkpt lat="43.5644106" lon="12.4296171"><ele>481.0</ele><time>2026-05-02T10:56:21.318Z</time></trkpt><trkpt lat="43.5642594" lon="12.4293382"><ele>481.0</ele><time>2026-05-02T10:56:22.317Z</time></trkpt><trkpt lat="43.564097" lon="12.4290916"><ele>481.0</ele><time>2026-05-02T10:56:23.319Z</time></trkpt><trkpt lat="43.563921" lon="12.428886"><ele>486.0</ele><time>2026-05-02T10:56:24.317Z</time></trkpt><trkpt lat="43.5637124" lon="12.4287228"><ele>491.0</ele><time>2026-05-02T10:56:25.319Z</time></trkpt><trkpt lat="43.5634717" lon="12.4285808"><ele>491.0</ele><time>2026-05-02T10:56:26.318Z</time></trkpt><trkpt lat="43.5632079" lon="12.4284569"><ele>491.0</ele><time>2026-05-02T10:56:27.319Z</time></trkpt><trkpt lat="43.5629291" lon="12.4283598"><ele>483.5</ele><time>2026-05-02T10:56:28.318Z</time></trkpt><trkpt lat="43.5626555" lon="12.4282573"><ele>476.0</ele><time>2026-05-02T10:56:29.319Z</time></trkpt><trkpt lat="43.5623759" lon="12.4281716"><ele>476.0</ele><time>2026-05-02T10:56:30.315Z</time></trkpt><trkpt lat="43.5620967" lon="12.4280962"><ele>476.0</ele><time>2026-05-02T10:56:31.311Z</time></trkpt><trkpt lat="43.5618214" lon="12.4280319"><ele>474.0</ele><time>2026-05-02T10:56:32.315Z</time></trkpt><trkpt lat="43.5615904" lon="12.4279818"><ele>472.0</ele><time>2026-05-02T10:56:33.309Z</time></trkpt><trkpt lat="43.5613999" lon="12.4279345"><ele>470.0</ele><time>2026-05-02T10:56:34.314Z</time></trkpt><trkpt lat="43.5612431" lon="12.427896"><ele>473.25</ele><time>2026-05-02T10:56:35.315Z</time></trkpt><trkpt lat="43.5611035" lon="12.4278701"><ele>476.5</ele><time>2026-05-02T10:56:36.314Z</time></trkpt><trkpt lat="43.56097" lon="12.4278385"><ele>479.75</ele><time>2026-05-02T10:56:37.315Z</time></trkpt><trkpt lat="43.5608436" lon="12.4278063"><ele>483.0</ele><time>2026-05-02T10:56:38.314Z</time></trkpt><trkpt lat="43.5607169" lon="12.4277601"><ele>483.0</ele><time>2026-05-02T10:56:39.31Z</time></trkpt><trkpt lat="43.5605933" lon="12.4276948"><ele>483.0</ele><time>2026-05-02T10:56:40.314Z</time></trkpt><trkpt lat="43.5604773" lon="12.4276115"><ele>483.0</ele><time>2026-05-02T10:56:41.311Z</time></trkpt><trkpt lat="43.5603681" lon="12.4275197"><ele>483.0</ele><time>2026-05-02T10:56:42.316Z</time></trkpt><trkpt lat="43.5602541" lon="12.4274173"><ele>484.33333333333337</ele><time>2026-05-02T10:56:43.317Z</time></trkpt><trkpt lat="43.5601348" lon="12.4272958"><ele>485.6666666666667</ele><time>2026-05-02T10:56:44.318Z</time></trkpt><trkpt lat="43.5600096" lon="12.4271583"><ele>487.0</ele><time>2026-05-02T10:56:45.317Z</time></trkpt><trkpt lat="43.5598846" lon="12.4269993"><ele>487.0</ele><time>2026-05-02T10:56:46.317Z</time></trkpt><trkpt lat="43.5597714" lon="12.4268"><ele>487.0</ele><time>2026-05-02T10:56:47.318Z</time></trkpt><trkpt lat="43.5596781" lon="12.4266208"><ele>487.0</ele><time>2026-05-02T10:56:48.32Z</time></trkpt><trkpt lat="43.5595912" lon="12.4264475"><ele>489.33333333333337</ele><time>2026-05-02T10:56:49.317Z</time></trkpt><trkpt lat="43.5595754" lon="12.4262108"><ele>491.66666666666663</ele><time>2026-05-02T10:56:50.318Z</time></trkpt><trkpt lat="43.5595333" lon="12.4259968"><ele>494.0</ele><time>2026-05-02T10:56:51.326Z</time></trkpt><trkpt lat="43.5594955" lon="12.4257858"><ele>489.5</ele><time>2026-05-02T10:56:52.317Z</time></trkpt><trkpt lat="43.559463" lon="12.4255846"><ele>485.0</ele><time>2026-05-02T10:56:53.317Z</time></trkpt><trkpt lat="43.5594341" lon="12.4253811"><ele>480.5</ele><time>2026-05-02T10:56:54.317Z</time></trkpt><trkpt lat="43.5594057" lon="12.425189"><ele>476.0</ele><time>2026-05-02T10:56:55.317Z</time></trkpt><trkpt lat="43.5593707" lon="12.4250138"><ele>476.0</ele><time>2026-05-02T10:56:56.318Z</time></trkpt><trkpt lat="43.5593457" lon="12.4248403"><ele>476.0</ele><time>2026-05-02T10:56:57.317Z</time></trkpt><trkpt lat="43.5593274" lon="12.4246761"><ele>476.0</ele><time>2026-05-02T10:56:58.319Z</time></trkpt><trkpt lat="43.559295" lon="12.4245312"><ele>476.0</ele><time>2026-05-02T10:56:59.317Z</time></trkpt><trkpt lat="43.5592695" lon="12.4243832"><ele>477.75</ele><time>2026-05-02T10:57:00.316Z</time></trkpt><trkpt lat="43.5592384" lon="12.4242319"><ele>479.5</ele><time>2026-05-02T10:57:01.317Z</time></trkpt><trkpt lat="43.559216" lon="12.424084"><ele>481.25</ele><time>2026-05-02T10:57:02.318Z</time></trkpt><trkpt lat="43.559214" lon="12.4239237"><ele>483.0</ele><time>2026-05-02T10:57:03.319Z</time></trkpt><trkpt lat="43.5592039" lon="12.4237613"><ele>483.25</ele><time>2026-05-02T10:57:04.318Z</time></trkpt><trkpt lat="43.55921" lon="12.4235961"><ele>483.5</ele><time>2026-05-02T10:57:05.314Z</time></trkpt><trkpt lat="43.5592266" lon="12.4234194"><ele>483.75</ele><time>2026-05-02T10:57:06.315Z</time></trkpt><trkpt lat="43.5592385" lon="12.4232404"><ele>484.0</ele><time>2026-05-02T10:57:07.315Z</time></trkpt><trkpt lat="43.5592524" lon="12.4230529"><ele>483.25</ele><time>2026-05-02T10:57:08.316Z</time></trkpt><trkpt lat="43.5592695" lon="12.4228614"><ele>482.5</ele><time>2026-05-02T10:57:09.316Z</time></trkpt><trkpt lat="43.5592798" lon="12.4226655"><ele>481.75</ele><time>2026-05-02T10:57:10.318Z</time></trkpt><trkpt lat="43.5592992" lon="12.4224777"><ele>481.0</ele><time>2026-05-02T10:57:11.317Z</time></trkpt><trkpt lat="43.5593196" lon="12.4223033"><ele>480.25</ele><time>2026-05-02T10:57:12.314Z</time></trkpt><trkpt lat="43.5593115" lon="12.4221384"><ele>479.5</ele><time>2026-05-02T10:57:13.315Z</time></trkpt><trkpt lat="43.559303" lon="12.4219722"><ele>478.75</ele><time>2026-05-02T10:57:14.318Z</time></trkpt><trkpt lat="43.5592863" lon="12.4218078"><ele>478.0</ele><time>2026-05-02T10:57:15.319Z</time></trkpt><trkpt lat="43.5592723" lon="12.4216616"><ele>478.0</ele><time>2026-05-02T10:57:16.322Z</time></trkpt><trkpt lat="43.5592562" lon="12.4215178"><ele>477.99999999999994</ele><time>2026-05-02T10:57:17.319Z</time></trkpt><trkpt lat="43.5592405" lon="12.4213774"><ele>477.99999999999994</ele><time>2026-05-02T10:57:18.323Z</time></trkpt><trkpt lat="43.5592319" lon="12.4212442"><ele>478.0</ele><time>2026-05-02T10:57:19.321Z</time></trkpt><trkpt lat="43.5592176" lon="12.4211191"><ele>478.0</ele><time>2026-05-02T10:57:20.318Z</time></trkpt><trkpt lat="43.5592041" lon="12.4209898"><ele>478.00000000000006</ele><time>2026-05-02T10:57:21.318Z</time></trkpt><trkpt lat="43.5591851" lon="12.4208649"><ele>478.0</ele><time>2026-05-02T10:57:22.319Z</time></trkpt><trkpt lat="43.5591698" lon="12.4207374"><ele>478.0</ele><time>2026-05-02T10:57:23.316Z</time></trkpt><trkpt lat="43.5591537" lon="12.4206218"><ele>478.0</ele><time>2026-05-02T10:57:24.319Z</time></trkpt><trkpt lat="43.5591463" lon="12.4205184"><ele>478.00000000000006</ele><time>2026-05-02T10:57:25.316Z</time></trkpt><trkpt lat="43.5591378" lon="12.4204171"><ele>478.0</ele><time>2026-05-02T10:57:26.316Z</time></trkpt><trkpt lat="43.5591237" lon="12.4203289"><ele>478.0</ele><time>2026-05-02T10:57:27.316Z</time></trkpt><trkpt lat="43.55911" lon="12.4202367"><ele>477.99999999999994</ele><time>2026-05-02T10:57:28.317Z</time></trkpt><trkpt lat="43.5590773" lon="12.4200773"><ele>477.99999999999994</ele><time>2026-05-02T10:57:30.316Z</time></trkpt><trkpt lat="43.5590616" lon="12.4199641"><ele>478.0</ele><time>2026-05-02T10:57:31.319Z</time></trkpt><trkpt lat="43.5590481" lon="12.4197893"><ele>478.0</ele><time>2026-05-02T10:57:32.315Z</time></trkpt><trkpt lat="43.5590414" lon="12.4196349"><ele>478.5</ele><time>2026-05-02T10:57:33.317Z</time></trkpt><trkpt lat="43.5590266" lon="12.4194842"><ele>479.0</ele><time>2026-05-02T10:57:34.319Z</time></trkpt><trkpt lat="43.5590164" lon="12.4193181"><ele>479.5</ele><time>2026-05-02T10:57:35.317Z</time></trkpt><trkpt lat="43.5590192" lon="12.4191636"><ele>480.0</ele><time>2026-05-02T10:57:36.309Z</time></trkpt><trkpt lat="43.5590257" lon="12.4190086"><ele>480.0</ele><time>2026-05-02T10:57:37.316Z</time></trkpt><trkpt lat="43.5590195" lon="12.4188512"><ele>480.0</ele><time>2026-05-02T10:57:38.319Z</time></trkpt><trkpt lat="43.5590294" lon="12.4186978"><ele>480.0</ele><time>2026-05-02T10:57:39.316Z</time></trkpt><trkpt lat="43.5590338" lon="12.4185415"><ele>480.0</ele><time>2026-05-02T10:57:40.317Z</time></trkpt><trkpt lat="43.5590537" lon="12.4183936"><ele>480.0</ele><time>2026-05-02T10:57:41.317Z</time></trkpt><trkpt lat="43.5590703" lon="12.4182511"><ele>480.4</ele><time>2026-05-02T10:57:42.318Z</time></trkpt><trkpt lat="43.5590928" lon="12.4181091"><ele>480.8</ele><time>2026-05-02T10:57:43.316Z</time></trkpt><trkpt lat="43.559131" lon="12.4179722"><ele>481.20000000000005</ele><time>2026-05-02T10:57:44.318Z</time></trkpt><trkpt lat="43.5591747" lon="12.417843"><ele>481.6</ele><time>2026-05-02T10:57:45.316Z</time></trkpt><trkpt lat="43.5592264" lon="12.4177227"><ele>482.0</ele><time>2026-05-02T10:57:46.316Z</time></trkpt><trkpt lat="43.5593074" lon="12.4176227"><ele>482.20000000000005</ele><time>2026-05-02T10:57:47.317Z</time></trkpt><trkpt lat="43.5593931" lon="12.417536"><ele>482.40000000000003</ele><time>2026-05-02T10:57:48.317Z</time></trkpt><trkpt lat="43.5594774" lon="12.4174426"><ele>482.59999999999997</ele><time>2026-05-02T10:57:49.314Z</time></trkpt><trkpt lat="43.5595715" lon="12.4173484"><ele>482.79999999999995</ele><time>2026-05-02T10:57:50.316Z</time></trkpt><trkpt lat="43.5596593" lon="12.4172469"><ele>483.0</ele><time>2026-05-02T10:57:51.316Z</time></trkpt><trkpt lat="43.5597407" lon="12.4171443"><ele>484.75</ele><time>2026-05-02T10:57:52.311Z</time></trkpt><trkpt lat="43.5598185" lon="12.4170408"><ele>486.5</ele><time>2026-05-02T10:57:53.317Z</time></trkpt><trkpt lat="43.5598865" lon="12.416918"><ele>488.25</ele><time>2026-05-02T10:57:54.317Z</time></trkpt><trkpt lat="43.5599467" lon="12.4167737"><ele>490.0</ele><time>2026-05-02T10:57:55.316Z</time></trkpt><trkpt lat="43.5599874" lon="12.4166204"><ele>490.0</ele><time>2026-05-02T10:57:56.316Z</time></trkpt><trkpt lat="43.5599742" lon="12.4164393"><ele>490.0</ele><time>2026-05-02T10:57:57.316Z</time></trkpt><trkpt lat="43.5599258" lon="12.4162434"><ele>490.0</ele><time>2026-05-02T10:57:58.317Z</time></trkpt><trkpt lat="43.5598539" lon="12.4160477"><ele>490.0</ele><time>2026-05-02T10:57:59.319Z</time></trkpt><trkpt lat="43.5597982" lon="12.4158545"><ele>491.25</ele><time>2026-05-02T10:58:00.314Z</time></trkpt><trkpt lat="43.5597101" lon="12.4156759"><ele>492.5</ele><time>2026-05-02T10:58:01.317Z</time></trkpt><trkpt lat="43.5596435" lon="12.4155044"><ele>493.75</ele><time>2026-05-02T10:58:02.325Z</time></trkpt><trkpt lat="43.5595839" lon="12.4153252"><ele>495.0</ele><time>2026-05-02T10:58:03.315Z</time></trkpt><trkpt lat="43.559593" lon="12.4151202"><ele>496.0</ele><time>2026-05-02T10:58:04.315Z</time></trkpt><trkpt lat="43.5595922" lon="12.4149068"><ele>497.0</ele><time>2026-05-02T10:58:05.316Z</time></trkpt><trkpt lat="43.5595985" lon="12.4146927"><ele>498.0</ele><time>2026-05-02T10:58:06.316Z</time></trkpt><trkpt lat="43.559605" lon="12.4144825"><ele>500.66666666666663</ele><time>2026-05-02T10:58:07.318Z</time></trkpt><trkpt lat="43.5596038" lon="12.4142644"><ele>503.3333333333333</ele><time>2026-05-02T10:58:08.312Z</time></trkpt><trkpt lat="43.5595841" lon="12.4140507"><ele>506.0</ele><time>2026-05-02T10:58:09.317Z</time></trkpt><trkpt lat="43.5595448" lon="12.4138439"><ele>501.0</ele><time>2026-05-02T10:58:10.318Z</time></trkpt><trkpt lat="43.5595058" lon="12.4136662"><ele>496.0</ele><time>2026-05-02T10:58:11.318Z</time></trkpt><trkpt lat="43.5594614" lon="12.4134909"><ele>491.0</ele><time>2026-05-02T10:58:12.316Z</time></trkpt><trkpt lat="43.5594157" lon="12.4133312"><ele>486.0</ele><time>2026-05-02T10:58:13.318Z</time></trkpt><trkpt lat="43.5593791" lon="12.413181"><ele>486.0</ele><time>2026-05-02T10:58:14.316Z</time></trkpt><trkpt lat="43.5593399" lon="12.4130485"><ele>486.0</ele><time>2026-05-02T10:58:15.317Z</time></trkpt><trkpt lat="43.559298" lon="12.4129158"><ele>486.0</ele><time>2026-05-02T10:58:16.318Z</time></trkpt><trkpt lat="43.5592567" lon="12.4127727"><ele>486.0</ele><time>2026-05-02T10:58:17.316Z</time></trkpt><trkpt lat="43.5592194" lon="12.4126313"><ele>486.0</ele><time>2026-05-02T10:58:18.316Z</time></trkpt><trkpt lat="43.5591756" lon="12.412466"><ele>487.4</ele><time>2026-05-02T10:58:19.315Z</time></trkpt><trkpt lat="43.559133" lon="12.4123007"><ele>488.8</ele><time>2026-05-02T10:58:20.315Z</time></trkpt><trkpt lat="43.5591048" lon="12.4121693"><ele>490.19999999999993</ele><time>2026-05-02T10:58:21.313Z</time></trkpt><trkpt lat="43.5590866" lon="12.4120806"><ele>491.59999999999997</ele><time>2026-05-02T10:58:22.316Z</time></trkpt><trkpt lat="43.5590343" lon="12.4119881"><ele>493.0</ele><time>2026-05-02T10:58:24.308Z</time></trkpt><trkpt lat="43.559057" lon="12.4121208"><ele>493.0</ele><time>2026-05-02T10:58:27.321Z</time></trkpt><trkpt lat="43.5590999" lon="12.412266"><ele>493.0</ele><time>2026-05-02T10:58:28.312Z</time></trkpt><trkpt lat="43.559151" lon="12.4124494"><ele>493.0</ele><time>2026-05-02T10:58:29.314Z</time></trkpt><trkpt lat="43.5591923" lon="12.4126105"><ele>493.0</ele><time>2026-05-02T10:58:30.314Z</time></trkpt><trkpt lat="43.5592301" lon="12.4127559"><ele>493.00000000000006</ele><time>2026-05-02T10:58:31.314Z</time></trkpt><trkpt lat="43.5592605" lon="12.4128838"><ele>493.0</ele><time>2026-05-02T10:58:32.314Z</time></trkpt><trkpt lat="43.5592776" lon="12.4129975"><ele>493.0</ele><time>2026-05-02T10:58:33.314Z</time></trkpt><trkpt lat="43.5592777" lon="12.4130916"><ele>493.0</ele><time>2026-05-02T10:58:34.314Z</time></trkpt><trkpt lat="43.5592617" lon="12.4132307"><ele>493.00000000000006</ele><time>2026-05-02T10:58:36.315Z</time></trkpt><trkpt lat="43.5592457" lon="12.4133298"><ele>493.0</ele><time>2026-05-02T10:58:38.314Z</time></trkpt><trkpt lat="43.5592395" lon="12.4134236"><ele>491.83333333333337</ele><time>2026-05-02T10:58:40.311Z</time></trkpt><trkpt lat="43.5593068" lon="12.413477"><ele>490.6666666666667</ele><time>2026-05-02T10:58:43.315Z</time></trkpt><trkpt lat="43.559237" lon="12.4134237"><ele>489.5</ele><time>2026-05-02T11:03:05.316Z</time></trkpt><trkpt lat="43.5592084" lon="12.4133356"><ele>488.33333333333337</ele><time>2026-05-02T11:03:08.313Z</time></trkpt><trkpt lat="43.5592499" lon="12.4132508"><ele>487.1666666666667</ele><time>2026-05-02T11:03:11.317Z</time></trkpt><trkpt lat="43.5592777" lon="12.4131685"><ele>486.0</ele><time>2026-05-02T11:03:16.306Z</time></trkpt><trkpt lat="43.5592938" lon="12.413056"><ele>487.75</ele><time>2026-05-02T11:03:22.318Z</time></trkpt><trkpt lat="43.5593075" lon="12.4128827"><ele>489.5</ele><time>2026-05-02T11:03:24.317Z</time></trkpt><trkpt lat="43.559226" lon="12.4127062"><ele>491.25</ele><time>2026-05-02T11:03:25.316Z</time></trkpt><trkpt lat="43.5591941" lon="12.4125684"><ele>493.0</ele><time>2026-05-02T11:03:26.314Z</time></trkpt><trkpt lat="43.559144" lon="12.4123696"><ele>493.0</ele><time>2026-05-02T11:03:27.315Z</time></trkpt><trkpt lat="43.5590929" lon="12.4121783"><ele>493.0</ele><time>2026-05-02T11:03:28.315Z</time></trkpt><trkpt lat="43.5590427" lon="12.4120091"><ele>493.0</ele><time>2026-05-02T11:03:29.315Z</time></trkpt><trkpt lat="43.5589982" lon="12.4118366"><ele>493.0</ele><time>2026-05-02T11:03:30.312Z</time></trkpt><trkpt lat="43.558955" lon="12.411658"><ele>491.75</ele><time>2026-05-02T11:03:31.316Z</time></trkpt><trkpt lat="43.5589117" lon="12.4114739"><ele>490.5</ele><time>2026-05-02T11:03:32.315Z</time></trkpt><trkpt lat="43.558853" lon="12.4112758"><ele>489.25</ele><time>2026-05-02T11:03:33.315Z</time></trkpt><trkpt lat="43.5587754" lon="12.4110963"><ele>488.0</ele><time>2026-05-02T11:03:34.317Z</time></trkpt><trkpt lat="43.5586715" lon="12.4108621"><ele>488.0</ele><time>2026-05-02T11:03:35.314Z</time></trkpt><trkpt lat="43.5585417" lon="12.4106664"><ele>488.0</ele><time>2026-05-02T11:03:36.316Z</time></trkpt><trkpt lat="43.5583877" lon="12.4104754"><ele>488.0</ele><time>2026-05-02T11:03:37.316Z</time></trkpt><trkpt lat="43.5582215" lon="12.4102882"><ele>488.0</ele><time>2026-05-02T11:03:38.314Z</time></trkpt><trkpt lat="43.5580568" lon="12.4101073"><ele>488.0</ele><time>2026-05-02T11:03:39.316Z</time></trkpt><trkpt lat="43.5578835" lon="12.4099313"><ele>488.0</ele><time>2026-05-02T11:03:40.314Z</time></trkpt><trkpt lat="43.5577077" lon="12.4097593"><ele>489.66666666666663</ele><time>2026-05-02T11:03:41.316Z</time></trkpt><trkpt lat="43.5575446" lon="12.409604"><ele>491.33333333333337</ele><time>2026-05-02T11:03:42.316Z</time></trkpt><trkpt lat="43.5573811" lon="12.4094466"><ele>493.0</ele><time>2026-05-02T11:03:43.315Z</time></trkpt><trkpt lat="43.5572226" lon="12.4093016"><ele>493.0</ele><time>2026-05-02T11:03:44.315Z</time></trkpt><trkpt lat="43.5570956" lon="12.4091981"><ele>493.0</ele><time>2026-05-02T11:03:45.315Z</time></trkpt><trkpt lat="43.556958" lon="12.4090702"><ele>493.0</ele><time>2026-05-02T11:03:46.312Z</time></trkpt><trkpt lat="43.5568265" lon="12.4089436"><ele>493.0</ele><time>2026-05-02T11:03:47.315Z</time></trkpt><trkpt lat="43.5566897" lon="12.4088191"><ele>493.0</ele><time>2026-05-02T11:03:48.317Z</time></trkpt><trkpt lat="43.5565532" lon="12.4086803"><ele>493.0</ele><time>2026-05-02T11:03:49.312Z</time></trkpt><trkpt lat="43.5564166" lon="12.4085406"><ele>493.0</ele><time>2026-05-02T11:03:50.314Z</time></trkpt><trkpt lat="43.5562907" lon="12.4083891"><ele>493.0</ele><time>2026-05-02T11:03:51.317Z</time></trkpt><trkpt lat="43.5561715" lon="12.408238"><ele>493.0</ele><time>2026-05-02T11:03:52.315Z</time></trkpt><trkpt lat="43.5560495" lon="12.4080815"><ele>494.33333333333337</ele><time>2026-05-02T11:03:53.315Z</time></trkpt><trkpt lat="43.5559217" lon="12.4079105"><ele>495.66666666666663</ele><time>2026-05-02T11:03:54.314Z</time></trkpt><trkpt lat="43.5557779" lon="12.4077332"><ele>497.0</ele><time>2026-05-02T11:03:55.316Z</time></trkpt><trkpt lat="43.5556328" lon="12.4075178"><ele>497.0</ele><time>2026-05-02T11:03:56.314Z</time></trkpt><trkpt lat="43.5554865" lon="12.4072538"><ele>497.0</ele><time>2026-05-02T11:03:57.447Z</time></trkpt><trkpt lat="43.5552305" lon="12.4067974"><ele>496.66666666666663</ele><time>2026-05-02T11:03:59.314Z</time></trkpt><trkpt lat="43.5551342" lon="12.4065515"><ele>496.33333333333337</ele><time>2026-05-02T11:04:00.313Z</time></trkpt><trkpt lat="43.5550371" lon="12.4063064"><ele>496.0</ele><time>2026-05-02T11:04:01.32Z</time></trkpt><trkpt lat="43.5549348" lon="12.4060345"><ele>497.6666666666667</ele><time>2026-05-02T11:04:02.313Z</time></trkpt><trkpt lat="43.5547919" lon="12.4057889"><ele>499.33333333333337</ele><time>2026-05-02T11:04:03.314Z</time></trkpt><trkpt lat="43.5546573" lon="12.4055475"><ele>501.0</ele><time>2026-05-02T11:04:04.315Z</time></trkpt><trkpt lat="43.554464" lon="12.4053363"><ele>501.0</ele><time>2026-05-02T11:04:05.313Z</time></trkpt><trkpt lat="43.5543088" lon="12.4051407"><ele>501.0</ele><time>2026-05-02T11:04:06.315Z</time></trkpt><trkpt lat="43.5541624" lon="12.4049427"><ele>501.0</ele><time>2026-05-02T11:04:07.316Z</time></trkpt><trkpt lat="43.5540278" lon="12.4047573"><ele>505.66666666666663</ele><time>2026-05-02T11:04:08.311Z</time></trkpt><trkpt lat="43.5538998" lon="12.4045675"><ele>510.3333333333333</ele><time>2026-05-02T11:04:09.313Z</time></trkpt><trkpt lat="43.5537995" lon="12.4043559"><ele>515.0</ele><time>2026-05-02T11:04:10.314Z</time></trkpt><trkpt lat="43.553719" lon="12.4041202"><ele>511.0</ele><time>2026-05-02T11:04:11.32Z</time></trkpt><trkpt lat="43.5536518" lon="12.403857"><ele>507.0</ele><time>2026-05-02T11:04:12.312Z</time></trkpt><trkpt lat="43.5535846" lon="12.4035907"><ele>503.0</ele><time>2026-05-02T11:04:13.314Z</time></trkpt><trkpt lat="43.5535237" lon="12.4033377"><ele>503.0</ele><time>2026-05-02T11:04:14.314Z</time></trkpt><trkpt lat="43.5534633" lon="12.4030918"><ele>503.0</ele><time>2026-05-02T11:04:15.313Z</time></trkpt><trkpt lat="43.5533951" lon="12.4028521"><ele>503.0</ele><time>2026-05-02T11:04:16.312Z</time></trkpt><trkpt lat="43.553301" lon="12.4026233"><ele>507.3333333333333</ele><time>2026-05-02T11:04:17.314Z</time></trkpt><trkpt lat="43.5531796" lon="12.4024231"><ele>511.66666666666663</ele><time>2026-05-02T11:04:18.314Z</time></trkpt><trkpt lat="43.5530164" lon="12.4022532"><ele>516.0</ele><time>2026-05-02T11:04:19.314Z</time></trkpt><trkpt lat="43.5528392" lon="12.4020968"><ele>516.0</ele><time>2026-05-02T11:04:20.309Z</time></trkpt><trkpt lat="43.5526459" lon="12.4019578"><ele>516.0</ele><time>2026-05-02T11:04:21.32Z</time></trkpt><trkpt lat="43.552455" lon="12.4018225"><ele>516.0</ele><time>2026-05-02T11:04:22.313Z</time></trkpt><trkpt lat="43.5522819" lon="12.4016589"><ele>516.0</ele><time>2026-05-02T11:04:23.311Z</time></trkpt><trkpt lat="43.5521237" lon="12.4014834"><ele>516.0</ele><time>2026-05-02T11:04:24.314Z</time></trkpt><trkpt lat="43.5519798" lon="12.4012807"><ele>516.0</ele><time>2026-05-02T11:04:25.313Z</time></trkpt><trkpt lat="43.551842" lon="12.4010551"><ele>516.6666666666666</ele><time>2026-05-02T11:04:26.311Z</time></trkpt><trkpt lat="43.5517099" lon="12.4008103"><ele>517.3333333333333</ele><time>2026-05-02T11:04:27.313Z</time></trkpt><trkpt lat="43.5515792" lon="12.4005588"><ele>518.0</ele><time>2026-05-02T11:04:28.313Z</time></trkpt><trkpt lat="43.5514639" lon="12.4003208"><ele>518.0</ele><time>2026-05-02T11:04:29.312Z</time></trkpt><trkpt lat="43.5513695" lon="12.4000795"><ele>518.0</ele><time>2026-05-02T11:04:30.313Z</time></trkpt><trkpt lat="43.5512946" lon="12.3998362"><ele>518.0</ele><time>2026-05-02T11:04:31.322Z</time></trkpt><trkpt lat="43.551234" lon="12.3995942"><ele>517.3333333333333</ele><time>2026-05-02T11:04:32.314Z</time></trkpt><trkpt lat="43.5512289" lon="12.3993038"><ele>516.6666666666666</ele><time>2026-05-02T11:04:33.313Z</time></trkpt><trkpt lat="43.5512158" lon="12.399003"><ele>516.0</ele><time>2026-05-02T11:04:34.315Z</time></trkpt><trkpt lat="43.5512048" lon="12.3986845"><ele>509.5</ele><time>2026-05-02T11:04:35.314Z</time></trkpt><trkpt lat="43.5511818" lon="12.3983619"><ele>503.0</ele><time>2026-05-02T11:04:36.31Z</time></trkpt><trkpt lat="43.5511425" lon="12.3980464"><ele>507.5</ele><time>2026-05-02T11:04:37.309Z</time></trkpt><trkpt lat="43.5510728" lon="12.3977275"><ele>512.0</ele><time>2026-05-02T11:04:38.313Z</time></trkpt><trkpt lat="43.5509865" lon="12.3974088"><ele>518.0</ele><time>2026-05-02T11:04:39.313Z</time></trkpt><trkpt lat="43.5508997" lon="12.3970937"><ele>524.0</ele><time>2026-05-02T11:04:40.312Z</time></trkpt><trkpt lat="43.5508143" lon="12.3967758"><ele>524.0</ele><time>2026-05-02T11:04:41.318Z</time></trkpt><trkpt lat="43.5507402" lon="12.3964523"><ele>524.0</ele><time>2026-05-02T11:04:42.314Z</time></trkpt><trkpt lat="43.5506898" lon="12.3961306"><ele>529.0</ele><time>2026-05-02T11:04:43.314Z</time></trkpt><trkpt lat="43.5506386" lon="12.3958003"><ele>534.0</ele><time>2026-05-02T11:04:44.312Z</time></trkpt><trkpt lat="43.5505667" lon="12.3954639"><ele>543.0</ele><time>2026-05-02T11:04:45.314Z</time></trkpt><trkpt lat="43.5504752" lon="12.3951292"><ele>552.0</ele><time>2026-05-02T11:04:46.317Z</time></trkpt><trkpt lat="43.5503826" lon="12.3948179"><ele>539.5</ele><time>2026-05-02T11:04:47.316Z</time></trkpt><trkpt lat="43.5502917" lon="12.3945253"><ele>527.0</ele><time>2026-05-02T11:04:48.315Z</time></trkpt><trkpt lat="43.550202" lon="12.394245"><ele>527.0</ele><time>2026-05-02T11:04:49.317Z</time></trkpt><trkpt lat="43.550156" lon="12.393973"><ele>527.0</ele><time>2026-05-02T11:04:50.316Z</time></trkpt><trkpt lat="43.5501398" lon="12.3937014"><ele>527.0</ele><time>2026-05-02T11:04:51.314Z</time></trkpt><trkpt lat="43.5501536" lon="12.3934214"><ele>526.0</ele><time>2026-05-02T11:04:52.315Z</time></trkpt><trkpt lat="43.5502061" lon="12.3931401"><ele>525.0</ele><time>2026-05-02T11:04:53.313Z</time></trkpt><trkpt lat="43.5502988" lon="12.3928679"><ele>524.0</ele><time>2026-05-02T11:04:54.314Z</time></trkpt><trkpt lat="43.5504305" lon="12.392601"><ele>525.0</ele><time>2026-05-02T11:04:55.319Z</time></trkpt><trkpt lat="43.5505912" lon="12.3923326"><ele>526.0</ele><time>2026-05-02T11:04:56.316Z</time></trkpt><trkpt lat="43.5507722" lon="12.3920601"><ele>526.0</ele><time>2026-05-02T11:04:57.314Z</time></trkpt><trkpt lat="43.5509532" lon="12.391795"><ele>526.0</ele><time>2026-05-02T11:04:58.314Z</time></trkpt><trkpt lat="43.5511325" lon="12.3915365"><ele>531.5</ele><time>2026-05-02T11:04:59.314Z</time></trkpt><trkpt lat="43.5513275" lon="12.391296"><ele>537.0</ele><time>2026-05-02T11:05:00.313Z</time></trkpt><trkpt lat="43.5515181" lon="12.391083"><ele>537.0</ele><time>2026-05-02T11:05:01.311Z</time></trkpt><trkpt lat="43.5517025" lon="12.3908485"><ele>537.0</ele><time>2026-05-02T11:05:02.31Z</time></trkpt><trkpt lat="43.551874" lon="12.3905798"><ele>534.5</ele><time>2026-05-02T11:05:03.313Z</time></trkpt><trkpt lat="43.5520299" lon="12.3902911"><ele>532.0</ele><time>2026-05-02T11:05:04.314Z</time></trkpt><trkpt lat="43.5521655" lon="12.3900051"><ele>542.0</ele><time>2026-05-02T11:05:05.312Z</time></trkpt><trkpt lat="43.5522778" lon="12.3897263"><ele>552.0</ele><time>2026-05-02T11:05:06.313Z</time></trkpt><trkpt lat="43.5523518" lon="12.3894324"><ele>552.0</ele><time>2026-05-02T11:05:07.312Z</time></trkpt><trkpt lat="43.5523924" lon="12.3891325"><ele>552.0</ele><time>2026-05-02T11:05:08.315Z</time></trkpt><trkpt lat="43.5523888" lon="12.3888242"><ele>552.0</ele><time>2026-05-02T11:05:09.315Z</time></trkpt><trkpt lat="43.5523693" lon="12.3885"><ele>552.0</ele><time>2026-05-02T11:05:10.313Z</time></trkpt><trkpt lat="43.5523619" lon="12.3881902"><ele>552.0</ele><time>2026-05-02T11:05:11.313Z</time></trkpt><trkpt lat="43.5524434" lon="12.3879071"><ele>552.0</ele><time>2026-05-02T11:05:12.313Z</time></trkpt><trkpt lat="43.5525236" lon="12.3876269"><ele>548.5</ele><time>2026-05-02T11:05:13.316Z</time></trkpt><trkpt lat="43.5526433" lon="12.3873281"><ele>545.0</ele><time>2026-05-02T11:05:14.315Z</time></trkpt><trkpt lat="43.5527143" lon="12.3869872"><ele>539.5</ele><time>2026-05-02T11:05:15.315Z</time></trkpt><trkpt lat="43.5527866" lon="12.3866334"><ele>534.0</ele><time>2026-05-02T11:05:16.315Z</time></trkpt><trkpt lat="43.5528617" lon="12.386275"><ele>551.5</ele><time>2026-05-02T11:05:17.316Z</time></trkpt><trkpt lat="43.5528812" lon="12.3858908"><ele>569.0</ele><time>2026-05-02T11:05:18.311Z</time></trkpt><trkpt lat="43.5528948" lon="12.3855129"><ele>568.5</ele><time>2026-05-02T11:05:19.314Z</time></trkpt><trkpt lat="43.5528885" lon="12.3851282"><ele>568.0</ele><time>2026-05-02T11:05:20.315Z</time></trkpt><trkpt lat="43.5528791" lon="12.3847652"><ele>550.0</ele><time>2026-05-02T11:05:21.316Z</time></trkpt><trkpt lat="43.5528713" lon="12.3844178"><ele>532.0</ele><time>2026-05-02T11:05:22.314Z</time></trkpt><trkpt lat="43.5528574" lon="12.3840895"><ele>533.0</ele><time>2026-05-02T11:05:23.311Z</time></trkpt><trkpt lat="43.5528357" lon="12.3837735"><ele>534.0</ele><time>2026-05-02T11:05:24.322Z</time></trkpt><trkpt lat="43.5528502" lon="12.3835582"><ele>535.0</ele><time>2026-05-02T11:05:25.316Z</time></trkpt><trkpt lat="43.55289" lon="12.3833277"><ele>536.3333333333334</ele><time>2026-05-02T11:05:26.315Z</time></trkpt><trkpt lat="43.5529599" lon="12.3831215"><ele>537.6666666666666</ele><time>2026-05-02T11:05:27.315Z</time></trkpt><trkpt lat="43.5530454" lon="12.3829246"><ele>539.0</ele><time>2026-05-02T11:05:28.314Z</time></trkpt><trkpt lat="43.5531481" lon="12.3827295"><ele>539.0</ele><time>2026-05-02T11:05:29.315Z</time></trkpt><trkpt lat="43.5532584" lon="12.382543"><ele>539.0</ele><time>2026-05-02T11:05:30.315Z</time></trkpt><trkpt lat="43.5533475" lon="12.3823303"><ele>539.0</ele><time>2026-05-02T11:05:31.315Z</time></trkpt><trkpt lat="43.5534267" lon="12.3821003"><ele>536.0</ele><time>2026-05-02T11:05:32.316Z</time></trkpt><trkpt lat="43.5534801" lon="12.3818867"><ele>533.0</ele><time>2026-05-02T11:05:33.314Z</time></trkpt><trkpt lat="43.5534629" lon="12.38167"><ele>530.0</ele><time>2026-05-02T11:05:34.315Z</time></trkpt><trkpt lat="43.5534223" lon="12.381439"><ele>530.6666666666666</ele><time>2026-05-02T11:05:35.315Z</time></trkpt><trkpt lat="43.553348" lon="12.3811854"><ele>531.3333333333334</ele><time>2026-05-02T11:05:36.314Z</time></trkpt><trkpt lat="43.5532691" lon="12.3809149"><ele>532.0</ele><time>2026-05-02T11:05:37.315Z</time></trkpt><trkpt lat="43.5531829" lon="12.3806352"><ele>535.0</ele><time>2026-05-02T11:05:38.324Z</time></trkpt><trkpt lat="43.553035" lon="12.380346"><ele>538.0</ele><time>2026-05-02T11:05:39.313Z</time></trkpt><trkpt lat="43.5528579" lon="12.3800877"><ele>538.0</ele><time>2026-05-02T11:05:40.315Z</time></trkpt><trkpt lat="43.5526505" lon="12.3798394"><ele>538.0</ele><time>2026-05-02T11:05:41.308Z</time></trkpt><trkpt lat="43.5524271" lon="12.3795749"><ele>538.5</ele><time>2026-05-02T11:05:42.315Z</time></trkpt><trkpt lat="43.5521947" lon="12.379293"><ele>539.0</ele><time>2026-05-02T11:05:43.316Z</time></trkpt><trkpt lat="43.5519685" lon="12.3790048"><ele>543.5</ele><time>2026-05-02T11:05:44.315Z</time></trkpt><trkpt lat="43.5517563" lon="12.3787295"><ele>548.0</ele><time>2026-05-02T11:05:45.315Z</time></trkpt><trkpt lat="43.5515627" lon="12.3784709"><ele>548.0</ele><time>2026-05-02T11:05:46.313Z</time></trkpt><trkpt lat="43.5513738" lon="12.3782265"><ele>548.0</ele><time>2026-05-02T11:05:47.313Z</time></trkpt><trkpt lat="43.5511894" lon="12.3779887"><ele>548.3333333333333</ele><time>2026-05-02T11:05:48.314Z</time></trkpt><trkpt lat="43.5510247" lon="12.3777872"><ele>548.6666666666666</ele><time>2026-05-02T11:05:49.312Z</time></trkpt><trkpt lat="43.5508857" lon="12.3775798"><ele>549.0</ele><time>2026-05-02T11:05:50.311Z</time></trkpt><trkpt lat="43.5507365" lon="12.3773721"><ele>548.0</ele><time>2026-05-02T11:05:51.313Z</time></trkpt><trkpt lat="43.5505803" lon="12.3771714"><ele>547.0</ele><time>2026-05-02T11:05:52.31Z</time></trkpt><trkpt lat="43.5504121" lon="12.3769634"><ele>546.0</ele><time>2026-05-02T11:05:53.312Z</time></trkpt><trkpt lat="43.5502401" lon="12.3767371"><ele>546.0</ele><time>2026-05-02T11:05:54.313Z</time></trkpt><trkpt lat="43.5500585" lon="12.3764865"><ele>546.0</ele><time>2026-05-02T11:05:55.313Z</time></trkpt><trkpt lat="43.5498751" lon="12.3762268"><ele>547.0</ele><time>2026-05-02T11:05:56.314Z</time></trkpt><trkpt lat="43.5496973" lon="12.3759729"><ele>548.0</ele><time>2026-05-02T11:05:57.315Z</time></trkpt><trkpt lat="43.5495057" lon="12.3757145"><ele>552.0</ele><time>2026-05-02T11:05:58.313Z</time></trkpt><trkpt lat="43.5493155" lon="12.3754536"><ele>556.0</ele><time>2026-05-02T11:05:59.311Z</time></trkpt><trkpt lat="43.5491352" lon="12.3751755"><ele>556.0</ele><time>2026-05-02T11:06:00.313Z</time></trkpt><trkpt lat="43.5489483" lon="12.3749061"><ele>556.0</ele><time>2026-05-02T11:06:01.314Z</time></trkpt><trkpt lat="43.54877" lon="12.374651"><ele>553.5</ele><time>2026-05-02T11:06:02.31Z</time></trkpt><trkpt lat="43.5485935" lon="12.3743959"><ele>551.0</ele><time>2026-05-02T11:06:03.314Z</time></trkpt><trkpt lat="43.5484308" lon="12.3741608"><ele>551.0</ele><time>2026-05-02T11:06:04.314Z</time></trkpt><trkpt lat="43.5482903" lon="12.3739432"><ele>551.0</ele><time>2026-05-02T11:06:05.313Z</time></trkpt><trkpt lat="43.5481506" lon="12.3737433"><ele>551.0</ele><time>2026-05-02T11:06:06.313Z</time></trkpt><trkpt lat="43.5480122" lon="12.3735477"><ele>550.3333333333333</ele><time>2026-05-02T11:06:07.314Z</time></trkpt><trkpt lat="43.5478697" lon="12.3733489"><ele>549.6666666666666</ele><time>2026-05-02T11:06:08.313Z</time></trkpt><trkpt lat="43.5477327" lon="12.3731479"><ele>549.0</ele><time>2026-05-02T11:06:09.314Z</time></trkpt><trkpt lat="43.5475966" lon="12.3729373"><ele>552.0</ele><time>2026-05-02T11:06:10.314Z</time></trkpt><trkpt lat="43.5474553" lon="12.3727238"><ele>555.0</ele><time>2026-05-02T11:06:11.314Z</time></trkpt><trkpt lat="43.5473074" lon="12.3725092"><ele>558.0</ele><time>2026-05-02T11:06:12.314Z</time></trkpt><trkpt lat="43.5471518" lon="12.3722862"><ele>556.0</ele><time>2026-05-02T11:06:13.317Z</time></trkpt><trkpt lat="43.547" lon="12.3720582"><ele>554.0</ele><time>2026-05-02T11:06:14.314Z</time></trkpt><trkpt lat="43.5468517" lon="12.371847"><ele>552.0</ele><time>2026-05-02T11:06:15.315Z</time></trkpt><trkpt lat="43.5467151" lon="12.3716492"><ele>552.0</ele><time>2026-05-02T11:06:16.316Z</time></trkpt><trkpt lat="43.5465741" lon="12.37144"><ele>552.0</ele><time>2026-05-02T11:06:17.315Z</time></trkpt><trkpt lat="43.5464244" lon="12.3712308"><ele>552.0</ele><time>2026-05-02T11:06:18.315Z</time></trkpt><trkpt lat="43.5462538" lon="12.3710607"><ele>554.5</ele><time>2026-05-02T11:06:19.314Z</time></trkpt><trkpt lat="43.5460483" lon="12.370928"><ele>557.0</ele><time>2026-05-02T11:06:20.313Z</time></trkpt><trkpt lat="43.5458334" lon="12.3708026"><ele>557.0</ele><time>2026-05-02T11:06:21.315Z</time></trkpt><trkpt lat="43.5455864" lon="12.370705"><ele>557.0</ele><time>2026-05-02T11:06:22.315Z</time></trkpt><trkpt lat="43.5453439" lon="12.3705887"><ele>567.0</ele><time>2026-05-02T11:06:23.314Z</time></trkpt><trkpt lat="43.5450972" lon="12.3704834"><ele>577.0</ele><time>2026-05-02T11:06:24.315Z</time></trkpt><trkpt lat="43.544853" lon="12.3703739"><ele>577.0</ele><time>2026-05-02T11:06:25.315Z</time></trkpt><trkpt lat="43.5446107" lon="12.370265"><ele>577.0</ele><time>2026-05-02T11:06:26.313Z</time></trkpt><trkpt lat="43.5443677" lon="12.3701505"><ele>576.5</ele><time>2026-05-02T11:06:27.317Z</time></trkpt><trkpt lat="43.5441326" lon="12.3700502"><ele>576.0</ele><time>2026-05-02T11:06:28.314Z</time></trkpt><trkpt lat="43.5439071" lon="12.3699536"><ele>574.5</ele><time>2026-05-02T11:06:29.314Z</time></trkpt><trkpt lat="43.5436867" lon="12.369845"><ele>573.0</ele><time>2026-05-02T11:06:30.313Z</time></trkpt><trkpt lat="43.5434764" lon="12.3697114"><ele>580.5</ele><time>2026-05-02T11:06:31.314Z</time></trkpt><trkpt lat="43.5432828" lon="12.3695353"><ele>588.0</ele><time>2026-05-02T11:06:32.313Z</time></trkpt><trkpt lat="43.543091" lon="12.3693435"><ele>588.0</ele><time>2026-05-02T11:06:33.312Z</time></trkpt><trkpt lat="43.5429218" lon="12.3691288"><ele>588.0</ele><time>2026-05-02T11:06:34.315Z</time></trkpt><trkpt lat="43.5427733" lon="12.3688991"><ele>587.3333333333334</ele><time>2026-05-02T11:06:35.312Z</time></trkpt><trkpt lat="43.5426356" lon="12.3686916"><ele>586.6666666666667</ele><time>2026-05-02T11:06:36.313Z</time></trkpt><trkpt lat="43.5425115" lon="12.3685105"><ele>586.0</ele><time>2026-05-02T11:06:37.312Z</time></trkpt><trkpt lat="43.5423871" lon="12.3683693"><ele>586.0</ele><time>2026-05-02T11:06:38.309Z</time></trkpt><trkpt lat="43.5422543" lon="12.3682762"><ele>586.0</ele><time>2026-05-02T11:06:39.314Z</time></trkpt><trkpt lat="43.5421252" lon="12.3682558"><ele>586.0</ele><time>2026-05-02T11:06:40.311Z</time></trkpt><trkpt lat="43.5420024" lon="12.3682924"><ele>586.0</ele><time>2026-05-02T11:06:41.311Z</time></trkpt><trkpt lat="43.541898" lon="12.3683896"><ele>584.6666666666667</ele><time>2026-05-02T11:06:42.311Z</time></trkpt><trkpt lat="43.5418184" lon="12.3685386"><ele>583.3333333333334</ele><time>2026-05-02T11:06:43.311Z</time></trkpt><trkpt lat="43.5417621" lon="12.3687471"><ele>582.0</ele><time>2026-05-02T11:06:44.315Z</time></trkpt><trkpt lat="43.5417045" lon="12.3689584"><ele>582.0</ele><time>2026-05-02T11:06:45.316Z</time></trkpt><trkpt lat="43.5416109" lon="12.3691528"><ele>582.0</ele><time>2026-05-02T11:06:46.316Z</time></trkpt><trkpt lat="43.5414907" lon="12.3693225"><ele>582.0</ele><time>2026-05-02T11:06:47.318Z</time></trkpt><trkpt lat="43.541325" lon="12.3694536"><ele>588.6666666666666</ele><time>2026-05-02T11:06:48.314Z</time></trkpt><trkpt lat="43.5411752" lon="12.3696007"><ele>595.3333333333333</ele><time>2026-05-02T11:06:49.313Z</time></trkpt><trkpt lat="43.5410072" lon="12.3697355"><ele>602.0</ele><time>2026-05-02T11:06:50.313Z</time></trkpt><trkpt lat="43.5408497" lon="12.369895"><ele>602.0</ele><time>2026-05-02T11:06:51.316Z</time></trkpt><trkpt lat="43.5408549" lon="12.3702268"><ele>602.0</ele><time>2026-05-02T11:06:52.318Z</time></trkpt><trkpt lat="43.5407475" lon="12.370459"><ele>602.0</ele><time>2026-05-02T11:06:53.315Z</time></trkpt><trkpt lat="43.5408095" lon="12.3707587"><ele>600.0</ele><time>2026-05-02T11:06:54.314Z</time></trkpt><trkpt lat="43.5408046" lon="12.3709737"><ele>598.0</ele><time>2026-05-02T11:06:55.313Z</time></trkpt><trkpt lat="43.5408093" lon="12.3711889"><ele>596.0</ele><time>2026-05-02T11:06:56.318Z</time></trkpt><trkpt lat="43.5407452" lon="12.3713232"><ele>594.0</ele><time>2026-05-02T11:06:57.316Z</time></trkpt><trkpt lat="43.5406447" lon="12.371403"><ele>593.6666666666666</ele><time>2026-05-02T11:06:58.315Z</time></trkpt><trkpt lat="43.5404455" lon="12.3714596"><ele>593.3333333333333</ele><time>2026-05-02T11:06:59.315Z</time></trkpt><trkpt lat="43.5402694" lon="12.371491"><ele>593.0</ele><time>2026-05-02T11:07:00.314Z</time></trkpt><trkpt lat="43.5399822" lon="12.3713865"><ele>593.0</ele><time>2026-05-02T11:07:01.315Z</time></trkpt><trkpt lat="43.5396605" lon="12.3713957"><ele>593.0</ele><time>2026-05-02T11:07:02.316Z</time></trkpt><trkpt lat="43.5392746" lon="12.3714097"><ele>597.0</ele><time>2026-05-02T11:07:03.315Z</time></trkpt><trkpt lat="43.5389771" lon="12.3713913"><ele>601.0</ele><time>2026-05-02T11:07:04.314Z</time></trkpt><trkpt lat="43.538707" lon="12.3713755"><ele>602.0</ele><time>2026-05-02T11:07:05.315Z</time></trkpt><trkpt lat="43.5384322" lon="12.3713668"><ele>603.0</ele><time>2026-05-02T11:07:06.315Z</time></trkpt><trkpt lat="43.5381903" lon="12.3713333"><ele>608.0</ele><time>2026-05-02T11:07:07.311Z</time></trkpt><trkpt lat="43.5379373" lon="12.3713049"><ele>613.0</ele><time>2026-05-02T11:07:08.314Z</time></trkpt><trkpt lat="43.5376661" lon="12.3712679"><ele>616.5</ele><time>2026-05-02T11:07:09.314Z</time></trkpt><trkpt lat="43.5374028" lon="12.3712373"><ele>620.0</ele><time>2026-05-02T11:07:10.315Z</time></trkpt><trkpt lat="43.5371252" lon="12.3712302"><ele>622.5</ele><time>2026-05-02T11:07:11.316Z</time></trkpt><trkpt lat="43.5368656" lon="12.3712057"><ele>625.0</ele><time>2026-05-02T11:07:12.311Z</time></trkpt><trkpt lat="43.5366663" lon="12.3711351"><ele>625.0</ele><time>2026-05-02T11:07:13.314Z</time></trkpt><trkpt lat="43.5364507" lon="12.3710482"><ele>625.0</ele><time>2026-05-02T11:07:14.315Z</time></trkpt><trkpt lat="43.5362529" lon="12.3709131"><ele>625.0</ele><time>2026-05-02T11:07:15.313Z</time></trkpt><trkpt lat="43.5360596" lon="12.3707263"><ele>621.0</ele><time>2026-05-02T11:07:16.315Z</time></trkpt><trkpt lat="43.5358441" lon="12.370531"><ele>617.0</ele><time>2026-05-02T11:07:17.314Z</time></trkpt><trkpt lat="43.5356059" lon="12.3703781"><ele>627.5</ele><time>2026-05-02T11:07:18.316Z</time></trkpt><trkpt lat="43.5353607" lon="12.3702188"><ele>638.0</ele><time>2026-05-02T11:07:19.316Z</time></trkpt><trkpt lat="43.5351075" lon="12.3700961"><ele>638.0</ele><time>2026-05-02T11:07:20.315Z</time></trkpt><trkpt lat="43.5348221" lon="12.3700808"><ele>638.0</ele><time>2026-05-02T11:07:21.314Z</time></trkpt><trkpt lat="43.5345454" lon="12.3700874"><ele>639.0</ele><time>2026-05-02T11:07:22.314Z</time></trkpt><trkpt lat="43.5342918" lon="12.3700648"><ele>640.0</ele><time>2026-05-02T11:07:23.316Z</time></trkpt><trkpt lat="43.5340724" lon="12.3700462"><ele>640.0</ele><time>2026-05-02T11:07:24.314Z</time></trkpt><trkpt lat="43.5338444" lon="12.3700374"><ele>640.0</ele><time>2026-05-02T11:07:25.319Z</time></trkpt><trkpt lat="43.53364" lon="12.3700068"><ele>640.0</ele><time>2026-05-02T11:07:26.315Z</time></trkpt><trkpt lat="43.5334793" lon="12.3697636"><ele>647.0</ele><time>2026-05-02T11:07:27.317Z</time></trkpt><trkpt lat="43.5332995" lon="12.3696329"><ele>654.0</ele><time>2026-05-02T11:07:28.316Z</time></trkpt><trkpt lat="43.5331248" lon="12.3695412"><ele>661.0</ele><time>2026-05-02T11:07:29.315Z</time></trkpt><trkpt lat="43.5329214" lon="12.3694611"><ele>658.0</ele><time>2026-05-02T11:07:30.314Z</time></trkpt><trkpt lat="43.5327378" lon="12.3693998"><ele>655.0</ele><time>2026-05-02T11:07:31.316Z</time></trkpt><trkpt lat="43.5325524" lon="12.3694022"><ele>652.0</ele><time>2026-05-02T11:07:32.313Z</time></trkpt><trkpt lat="43.5323726" lon="12.3694248"><ele>652.0</ele><time>2026-05-02T11:07:33.312Z</time></trkpt><trkpt lat="43.5322751" lon="12.369365"><ele>652.0</ele><time>2026-05-02T11:07:34.314Z</time></trkpt><trkpt lat="43.5321679" lon="12.3692571"><ele>652.0</ele><time>2026-05-02T11:07:35.312Z</time></trkpt><trkpt lat="43.5320965" lon="12.3691666"><ele>652.0</ele><time>2026-05-02T11:07:36.314Z</time></trkpt><trkpt lat="43.532072" lon="12.3690458"><ele>652.0</ele><time>2026-05-02T11:07:37.314Z</time></trkpt><trkpt lat="43.5320872" lon="12.3689223"><ele>652.0</ele><time>2026-05-02T11:07:38.307Z</time></trkpt><trkpt lat="43.5321194" lon="12.3688153"><ele>652.0</ele><time>2026-05-02T11:07:39.315Z</time></trkpt><trkpt lat="43.5321464" lon="12.3686834"><ele>652.0</ele><time>2026-05-02T11:07:40.312Z</time></trkpt><trkpt lat="43.5321582" lon="12.3685616"><ele>652.0</ele><time>2026-05-02T11:07:41.311Z</time></trkpt><trkpt lat="43.5321347" lon="12.3684491"><ele>652.0</ele><time>2026-05-02T11:07:42.316Z</time></trkpt><trkpt lat="43.5321124" lon="12.3683369"><ele>652.0</ele><time>2026-05-02T11:07:43.316Z</time></trkpt><trkpt lat="43.5320292" lon="12.3683363"><ele>652.0</ele><time>2026-05-02T11:07:44.316Z</time></trkpt><trkpt lat="43.5319554" lon="12.3683292"><ele>652.0</ele><time>2026-05-02T11:07:45.315Z</time></trkpt><trkpt lat="43.5318826" lon="12.3683659"><ele>652.0</ele><time>2026-05-02T11:07:46.316Z</time></trkpt><trkpt lat="43.5318028" lon="12.3684008"><ele>652.0</ele><time>2026-05-02T11:07:47.317Z</time></trkpt><trkpt lat="43.5317138" lon="12.3684996"><ele>652.0</ele><time>2026-05-02T11:07:48.315Z</time></trkpt><trkpt lat="43.5316186" lon="12.3685387"><ele>652.0</ele><time>2026-05-02T11:07:49.316Z</time></trkpt><trkpt lat="43.5315086" lon="12.3685062"><ele>652.0</ele><time>2026-05-02T11:07:50.314Z</time></trkpt><trkpt lat="43.5314023" lon="12.3685036"><ele>652.0</ele><time>2026-05-02T11:07:51.312Z</time></trkpt><trkpt lat="43.5312315" lon="12.3683284"><ele>652.0</ele><time>2026-05-02T11:07:52.311Z</time></trkpt><trkpt lat="43.5310831" lon="12.3681882"><ele>652.6666666666667</ele><time>2026-05-02T11:07:53.311Z</time></trkpt><trkpt lat="43.5309334" lon="12.3680157"><ele>653.3333333333334</ele><time>2026-05-02T11:07:54.308Z</time></trkpt><trkpt lat="43.5308056" lon="12.3678225"><ele>654.0</ele><time>2026-05-02T11:07:55.313Z</time></trkpt><trkpt lat="43.5307041" lon="12.3676064"><ele>654.0</ele><time>2026-05-02T11:07:56.313Z</time></trkpt><trkpt lat="43.5306356" lon="12.3673844"><ele>654.0</ele><time>2026-05-02T11:07:57.314Z</time></trkpt><trkpt lat="43.5305584" lon="12.3671866"><ele>654.0</ele><time>2026-05-02T11:07:58.311Z</time></trkpt><trkpt lat="43.5304473" lon="12.3670327"><ele>654.6666666666666</ele><time>2026-05-02T11:07:59.314Z</time></trkpt><trkpt lat="43.530301" lon="12.3669288"><ele>655.3333333333333</ele><time>2026-05-02T11:08:00.314Z</time></trkpt><trkpt lat="43.5301193" lon="12.366898"><ele>656.0</ele><time>2026-05-02T11:08:01.311Z</time></trkpt><trkpt lat="43.5299003" lon="12.3668754"><ele>656.0</ele><time>2026-05-02T11:08:02.319Z</time></trkpt><trkpt lat="43.529695" lon="12.3668305"><ele>656.0</ele><time>2026-05-02T11:08:03.316Z</time></trkpt><trkpt lat="43.529515" lon="12.366791"><ele>656.0</ele><time>2026-05-02T11:08:04.316Z</time></trkpt><trkpt lat="43.5293678" lon="12.3667399"><ele>657.0</ele><time>2026-05-02T11:08:05.317Z</time></trkpt><trkpt lat="43.5292505" lon="12.3666533"><ele>658.0</ele><time>2026-05-02T11:08:06.316Z</time></trkpt><trkpt lat="43.5291463" lon="12.366558"><ele>659.0</ele><time>2026-05-02T11:08:07.315Z</time></trkpt><trkpt lat="43.5291353" lon="12.3663091"><ele>660.0</ele><time>2026-05-02T11:08:08.316Z</time></trkpt><trkpt lat="43.5290797" lon="12.3661255"><ele>660.0</ele><time>2026-05-02T11:08:09.316Z</time></trkpt><trkpt lat="43.5289872" lon="12.3659693"><ele>660.0</ele><time>2026-05-02T11:08:10.313Z</time></trkpt><trkpt lat="43.5288752" lon="12.3658064"><ele>660.0</ele><time>2026-05-02T11:08:11.317Z</time></trkpt><trkpt lat="43.5286792" lon="12.3657688"><ele>657.6666666666666</ele><time>2026-05-02T11:08:12.315Z</time></trkpt><trkpt lat="43.5285064" lon="12.3656755"><ele>655.3333333333333</ele><time>2026-05-02T11:08:13.315Z</time></trkpt><trkpt lat="43.5283053" lon="12.3655943"><ele>653.0</ele><time>2026-05-02T11:08:14.316Z</time></trkpt><trkpt lat="43.528138" lon="12.3654902"><ele>657.0</ele><time>2026-05-02T11:08:15.316Z</time></trkpt><trkpt lat="43.5278901" lon="12.3654336"><ele>661.0</ele><time>2026-05-02T11:08:16.315Z</time></trkpt><trkpt lat="43.5276836" lon="12.3652789"><ele>661.0</ele><time>2026-05-02T11:08:17.317Z</time></trkpt><trkpt lat="43.5274685" lon="12.3651613"><ele>661.0</ele><time>2026-05-02T11:08:18.315Z</time></trkpt><trkpt lat="43.5272477" lon="12.3650042"><ele>661.0</ele><time>2026-05-02T11:08:19.317Z</time></trkpt><trkpt lat="43.526942" lon="12.3648865"><ele>661.0</ele><time>2026-05-02T11:08:20.315Z</time></trkpt><trkpt lat="43.5266755" lon="12.36478"><ele>661.0</ele><time>2026-05-02T11:08:21.316Z</time></trkpt><trkpt lat="43.5264366" lon="12.3646977"><ele>661.0</ele><time>2026-05-02T11:08:22.317Z</time></trkpt><trkpt lat="43.5262199" lon="12.3646333"><ele>665.3333333333334</ele><time>2026-05-02T11:08:23.316Z</time></trkpt><trkpt lat="43.5260216" lon="12.3645499"><ele>669.6666666666666</ele><time>2026-05-02T11:08:24.317Z</time></trkpt><trkpt lat="43.5258357" lon="12.3644144"><ele>674.0</ele><time>2026-05-02T11:08:25.316Z</time></trkpt><trkpt lat="43.5256557" lon="12.3642182"><ele>674.0</ele><time>2026-05-02T11:08:26.312Z</time></trkpt><trkpt lat="43.525482" lon="12.363984"><ele>674.0</ele><time>2026-05-02T11:08:27.316Z</time></trkpt><trkpt lat="43.5253129" lon="12.3637526"><ele>675.5</ele><time>2026-05-02T11:08:28.316Z</time></trkpt><trkpt lat="43.5251301" lon="12.3635739"><ele>677.0</ele><time>2026-05-02T11:08:29.315Z</time></trkpt><trkpt lat="43.5249228" lon="12.3634381"><ele>677.0</ele><time>2026-05-02T11:08:30.315Z</time></trkpt><trkpt lat="43.5247215" lon="12.3633457"><ele>677.0</ele><time>2026-05-02T11:08:31.316Z</time></trkpt><trkpt lat="43.5245182" lon="12.3633058"><ele>677.0</ele><time>2026-05-02T11:08:32.317Z</time></trkpt><trkpt lat="43.5243201" lon="12.3632875"><ele>675.3333333333333</ele><time>2026-05-02T11:08:33.315Z</time></trkpt><trkpt lat="43.524121" lon="12.3632209"><ele>673.6666666666666</ele><time>2026-05-02T11:08:34.313Z</time></trkpt><trkpt lat="43.5239373" lon="12.3631184"><ele>672.0</ele><time>2026-05-02T11:08:35.312Z</time></trkpt><trkpt lat="43.5237758" lon="12.3630053"><ele>673.3333333333334</ele><time>2026-05-02T11:08:36.312Z</time></trkpt><trkpt lat="43.5236318" lon="12.3628441"><ele>674.6666666666667</ele><time>2026-05-02T11:08:37.312Z</time></trkpt><trkpt lat="43.5235075" lon="12.3626553"><ele>676.0</ele><time>2026-05-02T11:08:38.313Z</time></trkpt><trkpt lat="43.523395" lon="12.3624591"><ele>676.0</ele><time>2026-05-02T11:08:39.312Z</time></trkpt><trkpt lat="43.5232832" lon="12.3622828"><ele>676.0</ele><time>2026-05-02T11:08:40.31Z</time></trkpt><trkpt lat="43.5231538" lon="12.3621354"><ele>676.0</ele><time>2026-05-02T11:08:41.309Z</time></trkpt><trkpt lat="43.5230139" lon="12.3620206"><ele>677.5</ele><time>2026-05-02T11:08:42.311Z</time></trkpt><trkpt lat="43.5228808" lon="12.3619357"><ele>679.0</ele><time>2026-05-02T11:08:43.316Z</time></trkpt><trkpt lat="43.5227616" lon="12.3618428"><ele>680.5</ele><time>2026-05-02T11:08:44.31Z</time></trkpt><trkpt lat="43.5226655" lon="12.3617252"><ele>682.0</ele><time>2026-05-02T11:08:45.315Z</time></trkpt><trkpt lat="43.5225826" lon="12.3615928"><ele>682.0</ele><time>2026-05-02T11:08:46.316Z</time></trkpt><trkpt lat="43.5225528" lon="12.3614275"><ele>682.0</ele><time>2026-05-02T11:08:47.315Z</time></trkpt><trkpt lat="43.5224967" lon="12.3612688"><ele>682.0</ele><time>2026-05-02T11:08:48.315Z</time></trkpt><trkpt lat="43.5224236" lon="12.3611125"><ele>682.0</ele><time>2026-05-02T11:08:49.316Z</time></trkpt><trkpt lat="43.5223221" lon="12.3609826"><ele>683.75</ele><time>2026-05-02T11:08:50.315Z</time></trkpt><trkpt lat="43.5222135" lon="12.3608544"><ele>685.5</ele><time>2026-05-02T11:08:51.315Z</time></trkpt><trkpt lat="43.5220709" lon="12.3608127"><ele>687.25</ele><time>2026-05-02T11:08:52.318Z</time></trkpt><trkpt lat="43.5219448" lon="12.3607042"><ele>689.0</ele><time>2026-05-02T11:08:53.315Z</time></trkpt><trkpt lat="43.5218199" lon="12.3605693"><ele>693.0</ele><time>2026-05-02T11:08:54.316Z</time></trkpt><trkpt lat="43.5216978" lon="12.3604029"><ele>697.0</ele><time>2026-05-02T11:08:55.315Z</time></trkpt><trkpt lat="43.5215787" lon="12.3602401"><ele>701.0</ele><time>2026-05-02T11:08:56.316Z</time></trkpt><trkpt lat="43.5214587" lon="12.3600636"><ele>701.0</ele><time>2026-05-02T11:08:57.315Z</time></trkpt><trkpt lat="43.5213452" lon="12.3598954"><ele>701.0</ele><time>2026-05-02T11:08:58.315Z</time></trkpt><trkpt lat="43.5212229" lon="12.3597171"><ele>701.0</ele><time>2026-05-02T11:08:59.312Z</time></trkpt><trkpt lat="43.5210094" lon="12.3596049"><ele>704.5</ele><time>2026-05-02T11:09:00.31Z</time></trkpt><trkpt lat="43.5207884" lon="12.3594424"><ele>708.0</ele><time>2026-05-02T11:09:01.318Z</time></trkpt><trkpt lat="43.5205435" lon="12.359271"><ele>706.5</ele><time>2026-05-02T11:09:02.316Z</time></trkpt><trkpt lat="43.5203016" lon="12.3591007"><ele>705.0</ele><time>2026-05-02T11:09:03.313Z</time></trkpt><trkpt lat="43.5200873" lon="12.3589743"><ele>710.0</ele><time>2026-05-02T11:09:04.318Z</time></trkpt><trkpt lat="43.5198828" lon="12.3588613"><ele>715.0</ele><time>2026-05-02T11:09:05.314Z</time></trkpt><trkpt lat="43.5197342" lon="12.3587296"><ele>720.0</ele><time>2026-05-02T11:09:06.315Z</time></trkpt><trkpt lat="43.5196047" lon="12.3585506"><ele>720.0</ele><time>2026-05-02T11:09:07.318Z</time></trkpt><trkpt lat="43.5195163" lon="12.3583676"><ele>720.0</ele><time>2026-05-02T11:09:08.316Z</time></trkpt><trkpt lat="43.5194921" lon="12.3581665"><ele>720.0</ele><time>2026-05-02T11:09:09.314Z</time></trkpt><trkpt lat="43.5195153" lon="12.3579751"><ele>720.0</ele><time>2026-05-02T11:09:10.316Z</time></trkpt><trkpt lat="43.5195393" lon="12.3577748"><ele>720.0</ele><time>2026-05-02T11:09:11.312Z</time></trkpt><trkpt lat="43.5195083" lon="12.3576104"><ele>720.0</ele><time>2026-05-02T11:09:12.311Z</time></trkpt><trkpt lat="43.5195037" lon="12.3574523"><ele>720.0</ele><time>2026-05-02T11:09:13.314Z</time></trkpt><trkpt lat="43.5194722" lon="12.3573149"><ele>720.0</ele><time>2026-05-02T11:09:14.315Z</time></trkpt><trkpt lat="43.5193812" lon="12.3573062"><ele>720.0</ele><time>2026-05-02T11:09:15.318Z</time></trkpt><trkpt lat="43.5192485" lon="12.3573376"><ele>720.0</ele><time>2026-05-02T11:09:16.316Z</time></trkpt><trkpt lat="43.5191667" lon="12.3574014"><ele>720.0</ele><time>2026-05-02T11:09:17.314Z</time></trkpt><trkpt lat="43.5190708" lon="12.3575332"><ele>720.0</ele><time>2026-05-02T11:09:18.317Z</time></trkpt><trkpt lat="43.5190738" lon="12.3580149"><ele>720.6666666666666</ele><time>2026-05-02T11:09:19.316Z</time></trkpt><trkpt lat="43.518993" lon="12.35819"><ele>721.3333333333333</ele><time>2026-05-02T11:09:20.316Z</time></trkpt><trkpt lat="43.5188706" lon="12.3582907"><ele>722.0</ele><time>2026-05-02T11:09:21.316Z</time></trkpt><trkpt lat="43.5186977" lon="12.3583199"><ele>722.0</ele><time>2026-05-02T11:09:22.318Z</time></trkpt><trkpt lat="43.5184973" lon="12.3583087"><ele>722.0</ele><time>2026-05-02T11:09:23.316Z</time></trkpt><trkpt lat="43.5183035" lon="12.3582682"><ele>722.0</ele><time>2026-05-02T11:09:24.315Z</time></trkpt><trkpt lat="43.5180965" lon="12.3582123"><ele>722.0</ele><time>2026-05-02T11:09:25.317Z</time></trkpt><trkpt lat="43.5179132" lon="12.3580387"><ele>722.0</ele><time>2026-05-02T11:09:26.316Z</time></trkpt><trkpt lat="43.5177228" lon="12.3579384"><ele>722.0</ele><time>2026-05-02T11:09:27.318Z</time></trkpt><trkpt lat="43.5175434" lon="12.3578602"><ele>725.6666666666666</ele><time>2026-05-02T11:09:28.316Z</time></trkpt><trkpt lat="43.517377" lon="12.3577678"><ele>729.3333333333334</ele><time>2026-05-02T11:09:29.317Z</time></trkpt><trkpt lat="43.5172582" lon="12.3576323"><ele>733.0</ele><time>2026-05-02T11:09:30.315Z</time></trkpt><trkpt lat="43.5171553" lon="12.3574807"><ele>733.0</ele><time>2026-05-02T11:09:31.317Z</time></trkpt><trkpt lat="43.5170727" lon="12.3572558"><ele>733.0</ele><time>2026-05-02T11:09:32.312Z</time></trkpt><trkpt lat="43.5169793" lon="12.3570326"><ele>733.0</ele><time>2026-05-02T11:09:33.314Z</time></trkpt><trkpt lat="43.5168963" lon="12.3568035"><ele>734.75</ele><time>2026-05-02T11:09:34.317Z</time></trkpt><trkpt lat="43.5168236" lon="12.3566639"><ele>736.5</ele><time>2026-05-02T11:09:35.315Z</time></trkpt><trkpt lat="43.5167433" lon="12.3565033"><ele>738.25</ele><time>2026-05-02T11:09:36.315Z</time></trkpt><trkpt lat="43.5166759" lon="12.3563963"><ele>740.0</ele><time>2026-05-02T11:09:37.318Z</time></trkpt><trkpt lat="43.5165941" lon="12.3563913"><ele>740.0</ele><time>2026-05-02T11:09:38.318Z</time></trkpt><trkpt lat="43.5164356" lon="12.3565561"><ele>740.0</ele><time>2026-05-02T11:09:39.314Z</time></trkpt><trkpt lat="43.5163061" lon="12.3567215"><ele>740.0</ele><time>2026-05-02T11:09:40.316Z</time></trkpt><trkpt lat="43.5161957" lon="12.3569088"><ele>738.8</ele><time>2026-05-02T11:09:41.316Z</time></trkpt><trkpt lat="43.5160796" lon="12.3570261"><ele>737.6</ele><time>2026-05-02T11:09:42.315Z</time></trkpt><trkpt lat="43.5159738" lon="12.357062"><ele>736.4000000000001</ele><time>2026-05-02T11:09:43.317Z</time></trkpt><trkpt lat="43.5158839" lon="12.357054"><ele>735.2</ele><time>2026-05-02T11:09:44.318Z</time></trkpt><trkpt lat="43.515819" lon="12.3570112"><ele>734.0</ele><time>2026-05-02T11:09:45.315Z</time></trkpt><trkpt lat="43.515768" lon="12.356943"><ele>734.0</ele><time>2026-05-02T11:09:46.316Z</time></trkpt><trkpt lat="43.5157152" lon="12.3568821"><ele>734.0</ele><time>2026-05-02T11:09:47.314Z</time></trkpt><trkpt lat="43.5156964" lon="12.3567246"><ele>734.0</ele><time>2026-05-02T11:09:48.314Z</time></trkpt><trkpt lat="43.51567" lon="12.3566074"><ele>734.0</ele><time>2026-05-02T11:09:49.309Z</time></trkpt><trkpt lat="43.5156446" lon="12.3564848"><ele>734.0</ele><time>2026-05-02T11:09:50.313Z</time></trkpt><trkpt lat="43.5156381" lon="12.3563602"><ele>733.3333333333333</ele><time>2026-05-02T11:09:51.311Z</time></trkpt><trkpt lat="43.5156467" lon="12.3562513"><ele>732.6666666666666</ele><time>2026-05-02T11:09:52.311Z</time></trkpt><trkpt lat="43.5156643" lon="12.3561567"><ele>732.0</ele><time>2026-05-02T11:09:53.307Z</time></trkpt><trkpt lat="43.5156852" lon="12.3560748"><ele>731.3333333333334</ele><time>2026-05-02T11:09:54.31Z</time></trkpt><trkpt lat="43.5157413" lon="12.3559459"><ele>730.6666666666667</ele><time>2026-05-02T11:09:56.313Z</time></trkpt><trkpt lat="43.515781" lon="12.3558417"><ele>730.0</ele><time>2026-05-02T11:09:58.314Z</time></trkpt><trkpt lat="43.5158579" lon="12.355746"><ele>730.0</ele><time>2026-05-02T11:10:00.314Z</time></trkpt><trkpt lat="43.5158859" lon="12.3556596"><ele>730.0</ele><time>2026-05-02T11:10:02.318Z</time></trkpt><trkpt lat="43.5158099" lon="12.3556636"><ele>730.0</ele><time>2026-05-02T11:10:06.317Z</time></trkpt></trkseg><trkseg><trkpt lat="43.5159127" lon="12.3556293"><ele>729.0</ele><time>2026-05-02T11:58:59.325Z</time></trkpt><trkpt lat="43.515961" lon="12.3555032"><ele>728.0</ele><time>2026-05-02T11:59:00.324Z</time></trkpt><trkpt lat="43.5159893" lon="12.3553773"><ele>727.0</ele><time>2026-05-02T11:59:01.324Z</time></trkpt><trkpt lat="43.5160087" lon="12.3552521"><ele>726.0</ele><time>2026-05-02T11:59:02.324Z</time></trkpt><trkpt lat="43.5160375" lon="12.3550602"><ele>725.0</ele><time>2026-05-02T11:59:03.325Z</time></trkpt><trkpt lat="43.5160588" lon="12.3548739"><ele>727.0</ele><time>2026-05-02T11:59:04.325Z</time></trkpt><trkpt lat="43.5160215" lon="12.3546495"><ele>729.0</ele><time>2026-05-02T11:59:05.326Z</time></trkpt><trkpt lat="43.516024" lon="12.3544545"><ele>731.0</ele><time>2026-05-02T11:59:06.324Z</time></trkpt><trkpt lat="43.5160653" lon="12.3542527"><ele>731.0</ele><time>2026-05-02T11:59:07.325Z</time></trkpt><trkpt lat="43.5161102" lon="12.3540309"><ele>731.0</ele><time>2026-05-02T11:59:08.324Z</time></trkpt><trkpt lat="43.516146" lon="12.3538125"><ele>731.0</ele><time>2026-05-02T11:59:09.327Z</time></trkpt><trkpt lat="43.5161021" lon="12.3536085"><ele>734.5</ele><time>2026-05-02T11:59:10.321Z</time></trkpt><trkpt lat="43.5160798" lon="12.3534312"><ele>738.0</ele><time>2026-05-02T11:59:11.325Z</time></trkpt><trkpt lat="43.5159852" lon="12.353284"><ele>741.5</ele><time>2026-05-02T11:59:12.325Z</time></trkpt><trkpt lat="43.515873" lon="12.3531792"><ele>745.0</ele><time>2026-05-02T11:59:13.324Z</time></trkpt><trkpt lat="43.5157354" lon="12.353129"><ele>745.0</ele><time>2026-05-02T11:59:14.325Z</time></trkpt><trkpt lat="43.5155779" lon="12.3531328"><ele>745.0</ele><time>2026-05-02T11:59:15.327Z</time></trkpt><trkpt lat="43.51541" lon="12.3531722"><ele>745.0</ele><time>2026-05-02T11:59:16.321Z</time></trkpt><trkpt lat="43.5152243" lon="12.3532667"><ele>745.3333333333334</ele><time>2026-05-02T11:59:17.326Z</time></trkpt><trkpt lat="43.5150604" lon="12.3533665"><ele>745.6666666666666</ele><time>2026-05-02T11:59:18.326Z</time></trkpt><trkpt lat="43.5149081" lon="12.3534633"><ele>746.0</ele><time>2026-05-02T11:59:19.324Z</time></trkpt><trkpt lat="43.5147545" lon="12.3535454"><ele>746.0</ele><time>2026-05-02T11:59:20.326Z</time></trkpt><trkpt lat="43.5145782" lon="12.3535823"><ele>746.0</ele><time>2026-05-02T11:59:21.326Z</time></trkpt><trkpt lat="43.514401" lon="12.353641"><ele>746.0</ele><time>2026-05-02T11:59:22.325Z</time></trkpt><trkpt lat="43.5141926" lon="12.3536391"><ele>747.3333333333333</ele><time>2026-05-02T11:59:23.323Z</time></trkpt><trkpt lat="43.5140108" lon="12.3536224"><ele>748.6666666666666</ele><time>2026-05-02T11:59:24.324Z</time></trkpt><trkpt lat="43.5138187" lon="12.3536015"><ele>750.0</ele><time>2026-05-02T11:59:25.319Z</time></trkpt><trkpt lat="43.5136215" lon="12.3535592"><ele>745.0</ele><time>2026-05-02T11:59:26.321Z</time></trkpt><trkpt lat="43.513422" lon="12.3534934"><ele>740.0</ele><time>2026-05-02T11:59:27.322Z</time></trkpt><trkpt lat="43.513283" lon="12.3533256"><ele>735.0</ele><time>2026-05-02T11:59:28.32Z</time></trkpt><trkpt lat="43.5131424" lon="12.3532199"><ele>735.0</ele><time>2026-05-02T11:59:29.322Z</time></trkpt><trkpt lat="43.5130281" lon="12.3530711"><ele>735.0</ele><time>2026-05-02T11:59:30.312Z</time></trkpt><trkpt lat="43.5129412" lon="12.3528944"><ele>735.0</ele><time>2026-05-02T11:59:31.323Z</time></trkpt><trkpt lat="43.5128693" lon="12.3526897"><ele>735.6666666666666</ele><time>2026-05-02T11:59:32.317Z</time></trkpt><trkpt lat="43.5127944" lon="12.3524691"><ele>736.3333333333333</ele><time>2026-05-02T11:59:33.322Z</time></trkpt><trkpt lat="43.5126901" lon="12.3522889"><ele>737.0</ele><time>2026-05-02T11:59:34.321Z</time></trkpt><trkpt lat="43.5125726" lon="12.352124"><ele>737.0</ele><time>2026-05-02T11:59:35.322Z</time></trkpt><trkpt lat="43.5124573" lon="12.3519862"><ele>737.0</ele><time>2026-05-02T11:59:36.323Z</time></trkpt><trkpt lat="43.5123502" lon="12.3518666"><ele>737.0</ele><time>2026-05-02T11:59:37.322Z</time></trkpt><trkpt lat="43.5122574" lon="12.3517211"><ele>737.0</ele><time>2026-05-02T11:59:38.32Z</time></trkpt><trkpt lat="43.512205" lon="12.3515528"><ele>737.6666666666666</ele><time>2026-05-02T11:59:39.321Z</time></trkpt><trkpt lat="43.5121858" lon="12.3513637"><ele>738.3333333333334</ele><time>2026-05-02T11:59:40.321Z</time></trkpt><trkpt lat="43.5121934" lon="12.3511523"><ele>739.0</ele><time>2026-05-02T11:59:41.322Z</time></trkpt><trkpt lat="43.5122024" lon="12.3509336"><ele>739.0</ele><time>2026-05-02T11:59:42.32Z</time></trkpt><trkpt lat="43.5122027" lon="12.3507132"><ele>739.0</ele><time>2026-05-02T11:59:43.322Z</time></trkpt><trkpt lat="43.5122023" lon="12.3505099"><ele>739.0</ele><time>2026-05-02T11:59:44.321Z</time></trkpt><trkpt lat="43.5121371" lon="12.3503072"><ele>731.0</ele><time>2026-05-02T11:59:45.32Z</time></trkpt><trkpt lat="43.512066" lon="12.3501135"><ele>723.0</ele><time>2026-05-02T11:59:46.316Z</time></trkpt><trkpt lat="43.5119713" lon="12.3499396"><ele>715.0</ele><time>2026-05-02T11:59:47.319Z</time></trkpt><trkpt lat="43.5118697" lon="12.3497785"><ele>716.6666666666667</ele><time>2026-05-02T11:59:48.321Z</time></trkpt><trkpt lat="43.5117736" lon="12.3496001"><ele>718.3333333333334</ele><time>2026-05-02T11:59:49.318Z</time></trkpt><trkpt lat="43.5116989" lon="12.3494193"><ele>720.0</ele><time>2026-05-02T11:59:50.324Z</time></trkpt><trkpt lat="43.5116473" lon="12.3492416"><ele>720.0</ele><time>2026-05-02T11:59:51.323Z</time></trkpt><trkpt lat="43.5116321" lon="12.3490839"><ele>720.0</ele><time>2026-05-02T11:59:52.326Z</time></trkpt><trkpt lat="43.5116507" lon="12.3489565"><ele>720.0</ele><time>2026-05-02T11:59:53.325Z</time></trkpt><trkpt lat="43.5116793" lon="12.3488566"><ele>720.0</ele><time>2026-05-02T11:59:54.324Z</time></trkpt><trkpt lat="43.5117616" lon="12.3488749"><ele>720.0</ele><time>2026-05-02T11:59:55.324Z</time></trkpt><trkpt lat="43.5118231" lon="12.3489017"><ele>720.0</ele><time>2026-05-02T11:59:56.323Z</time></trkpt><trkpt lat="43.5118991" lon="12.3489618"><ele>720.0</ele><time>2026-05-02T11:59:57.324Z</time></trkpt><trkpt lat="43.5119891" lon="12.3490379"><ele>720.0</ele><time>2026-05-02T11:59:58.323Z</time></trkpt><trkpt lat="43.5120878" lon="12.3491258"><ele>720.0</ele><time>2026-05-02T11:59:59.323Z</time></trkpt><trkpt lat="43.5121922" lon="12.349218"><ele>720.0</ele><time>2026-05-02T12:00:00.324Z</time></trkpt><trkpt lat="43.5122887" lon="12.3493216"><ele>721.75</ele><time>2026-05-02T12:00:01.327Z</time></trkpt><trkpt lat="43.5123813" lon="12.3494275"><ele>723.5</ele><time>2026-05-02T12:00:02.318Z</time></trkpt><trkpt lat="43.5124648" lon="12.3495528"><ele>725.25</ele><time>2026-05-02T12:00:03.32Z</time></trkpt><trkpt lat="43.5125427" lon="12.3496788"><ele>727.0</ele><time>2026-05-02T12:00:04.324Z</time></trkpt><trkpt lat="43.5126272" lon="12.3497981"><ele>727.0</ele><time>2026-05-02T12:00:05.326Z</time></trkpt><trkpt lat="43.5127176" lon="12.3498983"><ele>727.0</ele><time>2026-05-02T12:00:06.322Z</time></trkpt><trkpt lat="43.5128122" lon="12.3499797"><ele>727.0</ele><time>2026-05-02T12:00:07.323Z</time></trkpt><trkpt lat="43.512908" lon="12.3500483"><ele>727.0</ele><time>2026-05-02T12:00:08.324Z</time></trkpt><trkpt lat="43.5130152" lon="12.3501045"><ele>726.0</ele><time>2026-05-02T12:00:09.323Z</time></trkpt><trkpt lat="43.5131299" lon="12.3501482"><ele>725.0</ele><time>2026-05-02T12:00:10.323Z</time></trkpt><trkpt lat="43.5132517" lon="12.3501633"><ele>724.0</ele><time>2026-05-02T12:00:11.323Z</time></trkpt><trkpt lat="43.5133834" lon="12.3501786"><ele>723.0</ele><time>2026-05-02T12:00:12.324Z</time></trkpt><trkpt lat="43.5135137" lon="12.3502033"><ele>723.0</ele><time>2026-05-02T12:00:13.321Z</time></trkpt><trkpt lat="43.5136458" lon="12.3502434"><ele>723.0</ele><time>2026-05-02T12:00:14.323Z</time></trkpt><trkpt lat="43.5137621" lon="12.3502204"><ele>723.0</ele><time>2026-05-02T12:00:15.325Z</time></trkpt><trkpt lat="43.513881" lon="12.3501894"><ele>723.0</ele><time>2026-05-02T12:00:16.325Z</time></trkpt><trkpt lat="43.5139856" lon="12.3501352"><ele>723.5</ele><time>2026-05-02T12:00:17.326Z</time></trkpt><trkpt lat="43.5140741" lon="12.3500273"><ele>724.0</ele><time>2026-05-02T12:00:18.325Z</time></trkpt><trkpt lat="43.5141333" lon="12.3498794"><ele>724.5</ele><time>2026-05-02T12:00:19.327Z</time></trkpt><trkpt lat="43.5141584" lon="12.3497272"><ele>725.0</ele><time>2026-05-02T12:00:20.324Z</time></trkpt><trkpt lat="43.5141499" lon="12.349547"><ele>725.0</ele><time>2026-05-02T12:00:21.328Z</time></trkpt><trkpt lat="43.5141363" lon="12.3493497"><ele>725.0</ele><time>2026-05-02T12:00:22.327Z</time></trkpt><trkpt lat="43.5141323" lon="12.3491272"><ele>725.0</ele><time>2026-05-02T12:00:23.326Z</time></trkpt><trkpt lat="43.5141545" lon="12.3488693"><ele>724.3333333333333</ele><time>2026-05-02T12:00:24.328Z</time></trkpt><trkpt lat="43.5141719" lon="12.3485946"><ele>723.6666666666666</ele><time>2026-05-02T12:00:25.326Z</time></trkpt><trkpt lat="43.5141533" lon="12.34835"><ele>723.0</ele><time>2026-05-02T12:00:26.325Z</time></trkpt><trkpt lat="43.5141076" lon="12.3481333"><ele>721.75</ele><time>2026-05-02T12:00:27.324Z</time></trkpt><trkpt lat="43.5140864" lon="12.3479492"><ele>720.5</ele><time>2026-05-02T12:00:28.324Z</time></trkpt><trkpt lat="43.514077" lon="12.3477843"><ele>719.25</ele><time>2026-05-02T12:00:29.324Z</time></trkpt><trkpt lat="43.5141087" lon="12.3476259"><ele>718.0</ele><time>2026-05-02T12:00:30.323Z</time></trkpt><trkpt lat="43.5142122" lon="12.3475235"><ele>718.0</ele><time>2026-05-02T12:00:31.323Z</time></trkpt><trkpt lat="43.5142846" lon="12.3474303"><ele>718.0</ele><time>2026-05-02T12:00:32.321Z</time></trkpt><trkpt lat="43.5144041" lon="12.3474202"><ele>718.0</ele><time>2026-05-02T12:00:33.324Z</time></trkpt><trkpt lat="43.514598" lon="12.347474"><ele>718.0</ele><time>2026-05-02T12:00:34.323Z</time></trkpt><trkpt lat="43.5147943" lon="12.3474741"><ele>719.0</ele><time>2026-05-02T12:00:35.323Z</time></trkpt><trkpt lat="43.5150053" lon="12.3474764"><ele>720.0</ele><time>2026-05-02T12:00:36.327Z</time></trkpt><trkpt lat="43.5151353" lon="12.3475081"><ele>721.0</ele><time>2026-05-02T12:00:37.327Z</time></trkpt><trkpt lat="43.5153265" lon="12.3475689"><ele>719.3333333333334</ele><time>2026-05-02T12:00:38.323Z</time></trkpt><trkpt lat="43.5154863" lon="12.3476126"><ele>717.6666666666666</ele><time>2026-05-02T12:00:39.325Z</time></trkpt><trkpt lat="43.5156673" lon="12.3476576"><ele>716.0</ele><time>2026-05-02T12:00:40.325Z</time></trkpt><trkpt lat="43.5157734" lon="12.3476454"><ele>716.0</ele><time>2026-05-02T12:00:41.324Z</time></trkpt><trkpt lat="43.5159003" lon="12.3476691"><ele>716.0</ele><time>2026-05-02T12:00:42.326Z</time></trkpt><trkpt lat="43.5160384" lon="12.3476947"><ele>716.0</ele><time>2026-05-02T12:00:43.325Z</time></trkpt><trkpt lat="43.5161505" lon="12.3477027"><ele>716.0</ele><time>2026-05-02T12:00:44.325Z</time></trkpt><trkpt lat="43.5162502" lon="12.3477186"><ele>713.8</ele><time>2026-05-02T12:00:45.325Z</time></trkpt><trkpt lat="43.5163478" lon="12.3477395"><ele>711.5999999999999</ele><time>2026-05-02T12:00:46.326Z</time></trkpt><trkpt lat="43.5164258" lon="12.3477567"><ele>709.4</ele><time>2026-05-02T12:00:47.323Z</time></trkpt><trkpt lat="43.5165286" lon="12.3478194"><ele>707.2</ele><time>2026-05-02T12:00:48.328Z</time></trkpt><trkpt lat="43.5166164" lon="12.3479404"><ele>705.0</ele><time>2026-05-02T12:00:49.323Z</time></trkpt><trkpt lat="43.5166867" lon="12.3480905"><ele>710.5</ele><time>2026-05-02T12:00:50.326Z</time></trkpt><trkpt lat="43.5167556" lon="12.3482426"><ele>716.0</ele><time>2026-05-02T12:00:51.324Z</time></trkpt><trkpt lat="43.5168481" lon="12.348398"><ele>721.5</ele><time>2026-05-02T12:00:52.324Z</time></trkpt><trkpt lat="43.5169407" lon="12.3485232"><ele>727.0</ele><time>2026-05-02T12:00:53.326Z</time></trkpt><trkpt lat="43.5170478" lon="12.3486176"><ele>724.5</ele><time>2026-05-02T12:00:54.325Z</time></trkpt><trkpt lat="43.5171622" lon="12.3486623"><ele>722.0</ele><time>2026-05-02T12:00:55.324Z</time></trkpt><trkpt lat="43.5172809" lon="12.3486738"><ele>719.5</ele><time>2026-05-02T12:00:56.326Z</time></trkpt><trkpt lat="43.5174048" lon="12.3486134"><ele>717.0</ele><time>2026-05-02T12:00:57.323Z</time></trkpt><trkpt lat="43.5175269" lon="12.3485114"><ele>717.0</ele><time>2026-05-02T12:00:58.325Z</time></trkpt><trkpt lat="43.5176406" lon="12.3484"><ele>717.0</ele><time>2026-05-02T12:00:59.327Z</time></trkpt><trkpt lat="43.5177309" lon="12.3482657"><ele>717.0</ele><time>2026-05-02T12:01:00.327Z</time></trkpt><trkpt lat="43.5177937" lon="12.3481072"><ele>717.0</ele><time>2026-05-02T12:01:01.322Z</time></trkpt><trkpt lat="43.5178363" lon="12.347946"><ele>718.0</ele><time>2026-05-02T12:01:02.323Z</time></trkpt><trkpt lat="43.5178633" lon="12.3477844"><ele>719.0</ele><time>2026-05-02T12:01:03.325Z</time></trkpt><trkpt lat="43.5178809" lon="12.3476196"><ele>720.0</ele><time>2026-05-02T12:01:04.324Z</time></trkpt><trkpt lat="43.5178988" lon="12.3474527"><ele>721.0</ele><time>2026-05-02T12:01:05.321Z</time></trkpt><trkpt lat="43.5179634" lon="12.3473073"><ele>715.0</ele><time>2026-05-02T12:01:06.324Z</time></trkpt><trkpt lat="43.5180637" lon="12.3471717"><ele>709.0</ele><time>2026-05-02T12:01:07.326Z</time></trkpt><trkpt lat="43.5182019" lon="12.3470341"><ele>703.0</ele><time>2026-05-02T12:01:08.324Z</time></trkpt><trkpt lat="43.5183291" lon="12.346872"><ele>703.0</ele><time>2026-05-02T12:01:09.324Z</time></trkpt><trkpt lat="43.5185188" lon="12.3467503"><ele>703.0</ele><time>2026-05-02T12:01:10.323Z</time></trkpt><trkpt lat="43.518684" lon="12.3466179"><ele>703.0</ele><time>2026-05-02T12:01:11.324Z</time></trkpt><trkpt lat="43.5188355" lon="12.3465006"><ele>708.5</ele><time>2026-05-02T12:01:12.324Z</time></trkpt><trkpt lat="43.518955" lon="12.3463755"><ele>714.0</ele><time>2026-05-02T12:01:13.324Z</time></trkpt><trkpt lat="43.5190292" lon="12.346227"><ele>719.5</ele><time>2026-05-02T12:01:14.323Z</time></trkpt><trkpt lat="43.5190524" lon="12.3460569"><ele>725.0</ele><time>2026-05-02T12:01:15.323Z</time></trkpt><trkpt lat="43.5190207" lon="12.3458643"><ele>725.0</ele><time>2026-05-02T12:01:16.323Z</time></trkpt><trkpt lat="43.5189935" lon="12.3456661"><ele>725.0</ele><time>2026-05-02T12:01:17.326Z</time></trkpt><trkpt lat="43.5188435" lon="12.3453773"><ele>725.0</ele><time>2026-05-02T12:01:18.326Z</time></trkpt><trkpt lat="43.5187569" lon="12.3451127"><ele>714.3333333333333</ele><time>2026-05-02T12:01:19.326Z</time></trkpt><trkpt lat="43.5186884" lon="12.3448562"><ele>703.6666666666666</ele><time>2026-05-02T12:01:20.325Z</time></trkpt><trkpt lat="43.518641" lon="12.3445999"><ele>693.0</ele><time>2026-05-02T12:01:21.325Z</time></trkpt><trkpt lat="43.5185886" lon="12.3443456"><ele>693.0</ele><time>2026-05-02T12:01:22.324Z</time></trkpt><trkpt lat="43.5185501" lon="12.3440827"><ele>693.0</ele><time>2026-05-02T12:01:23.324Z</time></trkpt><trkpt lat="43.5186896" lon="12.3438652"><ele>693.0</ele><time>2026-05-02T12:01:24.323Z</time></trkpt><trkpt lat="43.5187265" lon="12.3436344"><ele>693.6666666666666</ele><time>2026-05-02T12:01:25.322Z</time></trkpt><trkpt lat="43.5187396" lon="12.3434244"><ele>694.3333333333333</ele><time>2026-05-02T12:01:26.322Z</time></trkpt><trkpt lat="43.5187265" lon="12.3432324"><ele>695.0</ele><time>2026-05-02T12:01:27.325Z</time></trkpt><trkpt lat="43.5186126" lon="12.3430687"><ele>694.3333333333333</ele><time>2026-05-02T12:01:28.322Z</time></trkpt><trkpt lat="43.5185647" lon="12.3428383"><ele>693.6666666666666</ele><time>2026-05-02T12:01:29.325Z</time></trkpt><trkpt lat="43.5185472" lon="12.3425988"><ele>693.0</ele><time>2026-05-02T12:01:30.324Z</time></trkpt><trkpt lat="43.5185763" lon="12.3423924"><ele>691.0</ele><time>2026-05-02T12:01:31.323Z</time></trkpt><trkpt lat="43.518642" lon="12.3421963"><ele>689.0</ele><time>2026-05-02T12:01:32.324Z</time></trkpt><trkpt lat="43.5187476" lon="12.3420118"><ele>687.0</ele><time>2026-05-02T12:01:33.324Z</time></trkpt><trkpt lat="43.5188608" lon="12.3418303"><ele>693.75</ele><time>2026-05-02T12:01:34.324Z</time></trkpt><trkpt lat="43.5189558" lon="12.3416621"><ele>700.5</ele><time>2026-05-02T12:01:35.326Z</time></trkpt><trkpt lat="43.5190173" lon="12.3414836"><ele>707.25</ele><time>2026-05-02T12:01:36.327Z</time></trkpt><trkpt lat="43.5190414" lon="12.3412953"><ele>714.0</ele><time>2026-05-02T12:01:37.326Z</time></trkpt><trkpt lat="43.5190469" lon="12.3411085"><ele>715.3333333333334</ele><time>2026-05-02T12:01:38.328Z</time></trkpt><trkpt lat="43.5189388" lon="12.3409391"><ele>716.6666666666667</ele><time>2026-05-02T12:01:39.326Z</time></trkpt><trkpt lat="43.5188428" lon="12.3407903"><ele>718.0</ele><time>2026-05-02T12:01:40.328Z</time></trkpt><trkpt lat="43.5187175" lon="12.3406558"><ele>722.3333333333334</ele><time>2026-05-02T12:01:41.327Z</time></trkpt><trkpt lat="43.5185702" lon="12.3405424"><ele>726.6666666666666</ele><time>2026-05-02T12:01:42.328Z</time></trkpt><trkpt lat="43.5184038" lon="12.3404284"><ele>731.0</ele><time>2026-05-02T12:01:43.327Z</time></trkpt><trkpt lat="43.5182039" lon="12.3403335"><ele>731.0</ele><time>2026-05-02T12:01:44.326Z</time></trkpt><trkpt lat="43.5180047" lon="12.340272"><ele>731.0</ele><time>2026-05-02T12:01:45.327Z</time></trkpt><trkpt lat="43.5177459" lon="12.3402649"><ele>726.5</ele><time>2026-05-02T12:01:46.323Z</time></trkpt><trkpt lat="43.5175142" lon="12.3402868"><ele>722.0</ele><time>2026-05-02T12:01:47.327Z</time></trkpt><trkpt lat="43.5172895" lon="12.3402925"><ele>722.0</ele><time>2026-05-02T12:01:48.324Z</time></trkpt><trkpt lat="43.5170697" lon="12.340212"><ele>722.0</ele><time>2026-05-02T12:01:49.327Z</time></trkpt><trkpt lat="43.5168472" lon="12.3401011"><ele>714.5</ele><time>2026-05-02T12:01:50.325Z</time></trkpt><trkpt lat="43.5166185" lon="12.3399738"><ele>707.0</ele><time>2026-05-02T12:01:51.327Z</time></trkpt><trkpt lat="43.5164055" lon="12.339869"><ele>705.0</ele><time>2026-05-02T12:01:52.327Z</time></trkpt><trkpt lat="43.5162077" lon="12.3397561"><ele>703.0</ele><time>2026-05-02T12:01:53.327Z</time></trkpt><trkpt lat="43.516025" lon="12.3396601"><ele>701.0</ele><time>2026-05-02T12:01:54.327Z</time></trkpt><trkpt lat="43.5158659" lon="12.3395586"><ele>701.0</ele><time>2026-05-02T12:01:55.321Z</time></trkpt><trkpt lat="43.5157549" lon="12.3394176"><ele>701.0</ele><time>2026-05-02T12:01:56.321Z</time></trkpt><trkpt lat="43.5156438" lon="12.3392466"><ele>701.0</ele><time>2026-05-02T12:01:57.323Z</time></trkpt><trkpt lat="43.5156601" lon="12.3390218"><ele>698.6666666666666</ele><time>2026-05-02T12:01:58.319Z</time></trkpt><trkpt lat="43.5156887" lon="12.3388357"><ele>696.3333333333334</ele><time>2026-05-02T12:01:59.321Z</time></trkpt><trkpt lat="43.5157767" lon="12.3386608"><ele>694.0</ele><time>2026-05-02T12:02:00.318Z</time></trkpt><trkpt lat="43.5159125" lon="12.3385107"><ele>694.0</ele><time>2026-05-02T12:02:01.316Z</time></trkpt><trkpt lat="43.5161038" lon="12.3383623"><ele>694.0</ele><time>2026-05-02T12:02:02.319Z</time></trkpt><trkpt lat="43.5163319" lon="12.3381989"><ele>691.5</ele><time>2026-05-02T12:02:03.321Z</time></trkpt><trkpt lat="43.5165565" lon="12.338038"><ele>689.0</ele><time>2026-05-02T12:02:04.322Z</time></trkpt><trkpt lat="43.5167931" lon="12.3378661"><ele>689.0</ele><time>2026-05-02T12:02:05.324Z</time></trkpt><trkpt lat="43.5170202" lon="12.337678"><ele>689.0</ele><time>2026-05-02T12:02:06.32Z</time></trkpt><trkpt lat="43.5172345" lon="12.3374677"><ele>688.5</ele><time>2026-05-02T12:02:07.325Z</time></trkpt><trkpt lat="43.517428" lon="12.3372563"><ele>688.0</ele><time>2026-05-02T12:02:08.325Z</time></trkpt><trkpt lat="43.5176052" lon="12.337058"><ele>688.0</ele><time>2026-05-02T12:02:09.323Z</time></trkpt><trkpt lat="43.517772" lon="12.336865"><ele>688.0</ele><time>2026-05-02T12:02:10.324Z</time></trkpt><trkpt lat="43.5178768" lon="12.3366595"><ele>688.0</ele><time>2026-05-02T12:02:11.324Z</time></trkpt><trkpt lat="43.5179574" lon="12.3364357"><ele>693.0</ele><time>2026-05-02T12:02:12.324Z</time></trkpt><trkpt lat="43.5180101" lon="12.3361904"><ele>698.0</ele><time>2026-05-02T12:02:13.323Z</time></trkpt><trkpt lat="43.5180223" lon="12.3359254"><ele>703.0</ele><time>2026-05-02T12:02:14.325Z</time></trkpt><trkpt lat="43.5180054" lon="12.3356869"><ele>706.0</ele><time>2026-05-02T12:02:15.325Z</time></trkpt><trkpt lat="43.5179542" lon="12.3354678"><ele>709.0</ele><time>2026-05-02T12:02:16.322Z</time></trkpt><trkpt lat="43.517866" lon="12.3352817"><ele>712.0</ele><time>2026-05-02T12:02:17.321Z</time></trkpt><trkpt lat="43.5177319" lon="12.3351471"><ele>705.6666666666667</ele><time>2026-05-02T12:02:18.323Z</time></trkpt><trkpt lat="43.5175795" lon="12.3350575"><ele>699.3333333333334</ele><time>2026-05-02T12:02:19.324Z</time></trkpt><trkpt lat="43.5174095" lon="12.3349693"><ele>693.0</ele><time>2026-05-02T12:02:20.323Z</time></trkpt><trkpt lat="43.517227" lon="12.3348796"><ele>688.6666666666666</ele><time>2026-05-02T12:02:21.324Z</time></trkpt><trkpt lat="43.5170336" lon="12.3347953"><ele>684.3333333333333</ele><time>2026-05-02T12:02:22.325Z</time></trkpt><trkpt lat="43.5168483" lon="12.334727"><ele>680.0</ele><time>2026-05-02T12:02:23.323Z</time></trkpt><trkpt lat="43.5166715" lon="12.3346719"><ele>682.5</ele><time>2026-05-02T12:02:24.322Z</time></trkpt><trkpt lat="43.5165159" lon="12.3346279"><ele>685.0</ele><time>2026-05-02T12:02:25.321Z</time></trkpt><trkpt lat="43.5163924" lon="12.3345885"><ele>687.5</ele><time>2026-05-02T12:02:26.321Z</time></trkpt><trkpt lat="43.5162917" lon="12.3345599"><ele>690.0</ele><time>2026-05-02T12:02:27.312Z</time></trkpt><trkpt lat="43.5161897" lon="12.3345323"><ele>690.0</ele><time>2026-05-02T12:02:28.32Z</time></trkpt><trkpt lat="43.5160942" lon="12.334507"><ele>690.0</ele><time>2026-05-02T12:02:29.321Z</time></trkpt><trkpt lat="43.5159891" lon="12.3344789"><ele>690.0</ele><time>2026-05-02T12:02:30.321Z</time></trkpt><trkpt lat="43.5158792" lon="12.3344479"><ele>690.0</ele><time>2026-05-02T12:02:31.321Z</time></trkpt><trkpt lat="43.5157636" lon="12.3344119"><ele>690.0</ele><time>2026-05-02T12:02:32.322Z</time></trkpt><trkpt lat="43.5156544" lon="12.3343815"><ele>690.0</ele><time>2026-05-02T12:02:33.321Z</time></trkpt><trkpt lat="43.5155454" lon="12.3343299"><ele>690.0</ele><time>2026-05-02T12:02:34.322Z</time></trkpt><trkpt lat="43.5154449" lon="12.334247"><ele>690.0</ele><time>2026-05-02T12:02:35.321Z</time></trkpt><trkpt lat="43.5153784" lon="12.3341214"><ele>690.0</ele><time>2026-05-02T12:02:36.322Z</time></trkpt><trkpt lat="43.5153546" lon="12.3339652"><ele>690.25</ele><time>2026-05-02T12:02:37.323Z</time></trkpt><trkpt lat="43.5153772" lon="12.3338109"><ele>690.5</ele><time>2026-05-02T12:02:38.321Z</time></trkpt><trkpt lat="43.5154487" lon="12.3336717"><ele>690.75</ele><time>2026-05-02T12:02:39.321Z</time></trkpt><trkpt lat="43.515528" lon="12.3335348"><ele>691.0</ele><time>2026-05-02T12:02:40.322Z</time></trkpt><trkpt lat="43.5156536" lon="12.3334202"><ele>691.0</ele><time>2026-05-02T12:02:41.321Z</time></trkpt><trkpt lat="43.515748" lon="12.3332804"><ele>691.0</ele><time>2026-05-02T12:02:42.323Z</time></trkpt><trkpt lat="43.5157936" lon="12.3331178"><ele>691.0</ele><time>2026-05-02T12:02:43.317Z</time></trkpt><trkpt lat="43.5157912" lon="12.332946"><ele>691.0</ele><time>2026-05-02T12:02:44.317Z</time></trkpt><trkpt lat="43.5157265" lon="12.3327694"><ele>690.3333333333334</ele><time>2026-05-02T12:02:45.313Z</time></trkpt><trkpt lat="43.5156133" lon="12.3325705"><ele>689.6666666666666</ele><time>2026-05-02T12:02:46.322Z</time></trkpt><trkpt lat="43.5154652" lon="12.3323207"><ele>689.0</ele><time>2026-05-02T12:02:47.319Z</time></trkpt><trkpt lat="43.5153356" lon="12.3320551"><ele>689.0</ele><time>2026-05-02T12:02:48.317Z</time></trkpt><trkpt lat="43.5152178" lon="12.331828"><ele>689.0</ele><time>2026-05-02T12:02:49.312Z</time></trkpt><trkpt lat="43.5151103" lon="12.3316266"><ele>689.0</ele><time>2026-05-02T12:02:50.313Z</time></trkpt><trkpt lat="43.5150021" lon="12.3314369"><ele>684.3333333333333</ele><time>2026-05-02T12:02:51.321Z</time></trkpt><trkpt lat="43.5148594" lon="12.3313805"><ele>679.6666666666666</ele><time>2026-05-02T12:02:52.319Z</time></trkpt><trkpt lat="43.5147095" lon="12.3313672"><ele>675.0</ele><time>2026-05-02T12:02:53.32Z</time></trkpt><trkpt lat="43.5145517" lon="12.3314273"><ele>675.0</ele><time>2026-05-02T12:02:54.323Z</time></trkpt><trkpt lat="43.5143945" lon="12.3314927"><ele>675.0</ele><time>2026-05-02T12:02:55.32Z</time></trkpt><trkpt lat="43.5142169" lon="12.3316059"><ele>675.0</ele><time>2026-05-02T12:02:56.312Z</time></trkpt><trkpt lat="43.5140693" lon="12.331629"><ele>675.0</ele><time>2026-05-02T12:02:57.314Z</time></trkpt><trkpt lat="43.5139341" lon="12.3316176"><ele>675.0</ele><time>2026-05-02T12:02:58.312Z</time></trkpt><trkpt lat="43.5138324" lon="12.3315316"><ele>675.0</ele><time>2026-05-02T12:02:59.32Z</time></trkpt><trkpt lat="43.513755" lon="12.3314194"><ele>675.0</ele><time>2026-05-02T12:03:00.318Z</time></trkpt><trkpt lat="43.5137057" lon="12.3312369"><ele>673.0</ele><time>2026-05-02T12:03:01.316Z</time></trkpt><trkpt lat="43.5137246" lon="12.3309595"><ele>671.0</ele><time>2026-05-02T12:03:02.317Z</time></trkpt><trkpt lat="43.5136637" lon="12.3307731"><ele>669.0</ele><time>2026-05-02T12:03:03.32Z</time></trkpt><trkpt lat="43.5135756" lon="12.3306147"><ele>674.0</ele><time>2026-05-02T12:03:04.319Z</time></trkpt><trkpt lat="43.5134318" lon="12.330513"><ele>679.0</ele><time>2026-05-02T12:03:05.319Z</time></trkpt><trkpt lat="43.5132394" lon="12.3304665"><ele>684.0</ele><time>2026-05-02T12:03:06.318Z</time></trkpt><trkpt lat="43.5130695" lon="12.3304339"><ele>684.0</ele><time>2026-05-02T12:03:07.319Z</time></trkpt><trkpt lat="43.5129075" lon="12.3304047"><ele>684.0</ele><time>2026-05-02T12:03:08.318Z</time></trkpt><trkpt lat="43.5127618" lon="12.3303567"><ele>684.0</ele><time>2026-05-02T12:03:09.313Z</time></trkpt><trkpt lat="43.5126955" lon="12.3302176"><ele>684.0</ele><time>2026-05-02T12:03:10.32Z</time></trkpt><trkpt lat="43.5126496" lon="12.3300421"><ele>679.6666666666666</ele><time>2026-05-02T12:03:11.319Z</time></trkpt><trkpt lat="43.5126508" lon="12.3298014"><ele>675.3333333333333</ele><time>2026-05-02T12:03:12.322Z</time></trkpt><trkpt lat="43.5126551" lon="12.3295522"><ele>671.0</ele><time>2026-05-02T12:03:13.32Z</time></trkpt><trkpt lat="43.5126204" lon="12.3293284"><ele>671.0</ele><time>2026-05-02T12:03:14.319Z</time></trkpt><trkpt lat="43.512539" lon="12.3291371"><ele>671.0</ele><time>2026-05-02T12:03:15.319Z</time></trkpt><trkpt lat="43.5124085" lon="12.3289805"><ele>671.0</ele><time>2026-05-02T12:03:16.318Z</time></trkpt><trkpt lat="43.5122175" lon="12.3288749"><ele>674.0</ele><time>2026-05-02T12:03:17.322Z</time></trkpt><trkpt lat="43.5119897" lon="12.3287879"><ele>677.0</ele><time>2026-05-02T12:03:18.32Z</time></trkpt><trkpt lat="43.5117411" lon="12.3287172"><ele>677.0</ele><time>2026-05-02T12:03:19.319Z</time></trkpt><trkpt lat="43.5114994" lon="12.328645"><ele>677.0</ele><time>2026-05-02T12:03:20.321Z</time></trkpt><trkpt lat="43.5112734" lon="12.3285768"><ele>672.6666666666666</ele><time>2026-05-02T12:03:21.322Z</time></trkpt><trkpt lat="43.5110613" lon="12.32851"><ele>668.3333333333334</ele><time>2026-05-02T12:03:22.32Z</time></trkpt><trkpt lat="43.5108719" lon="12.3284534"><ele>664.0</ele><time>2026-05-02T12:03:23.315Z</time></trkpt><trkpt lat="43.5106969" lon="12.3284154"><ele>664.0</ele><time>2026-05-02T12:03:24.318Z</time></trkpt><trkpt lat="43.5105265" lon="12.3284101"><ele>664.0</ele><time>2026-05-02T12:03:25.321Z</time></trkpt><trkpt lat="43.5103568" lon="12.3285065"><ele>664.0</ele><time>2026-05-02T12:03:26.315Z</time></trkpt><trkpt lat="43.5101787" lon="12.3286271"><ele>663.6666666666667</ele><time>2026-05-02T12:03:27.32Z</time></trkpt><trkpt lat="43.5100007" lon="12.3287415"><ele>663.3333333333334</ele><time>2026-05-02T12:03:28.318Z</time></trkpt><trkpt lat="43.5098153" lon="12.3288816"><ele>663.0</ele><time>2026-05-02T12:03:29.32Z</time></trkpt><trkpt lat="43.5096806" lon="12.3290199"><ele>664.0</ele><time>2026-05-02T12:03:30.319Z</time></trkpt><trkpt lat="43.509535" lon="12.329166"><ele>665.0</ele><time>2026-05-02T12:03:31.419Z</time></trkpt><trkpt lat="43.5093856" lon="12.3292207"><ele>666.0</ele><time>2026-05-02T12:03:32.319Z</time></trkpt><trkpt lat="43.5092288" lon="12.3292252"><ele>666.0</ele><time>2026-05-02T12:03:33.321Z</time></trkpt><trkpt lat="43.5090825" lon="12.329173"><ele>666.0</ele><time>2026-05-02T12:03:34.319Z</time></trkpt><trkpt lat="43.5089599" lon="12.3290833"><ele>666.0</ele><time>2026-05-02T12:03:35.32Z</time></trkpt><trkpt lat="43.5088477" lon="12.328919"><ele>666.3333333333334</ele><time>2026-05-02T12:03:36.32Z</time></trkpt><trkpt lat="43.5087656" lon="12.3287095"><ele>666.6666666666667</ele><time>2026-05-02T12:03:37.32Z</time></trkpt><trkpt lat="43.5087157" lon="12.3284995"><ele>667.0</ele><time>2026-05-02T12:03:38.319Z</time></trkpt><trkpt lat="43.5087114" lon="12.3282855"><ele>667.0</ele><time>2026-05-02T12:03:39.32Z</time></trkpt><trkpt lat="43.5087547" lon="12.3280695"><ele>667.0</ele><time>2026-05-02T12:03:40.321Z</time></trkpt><trkpt lat="43.5088427" lon="12.3278856"><ele>667.0</ele><time>2026-05-02T12:03:41.322Z</time></trkpt><trkpt lat="43.5089209" lon="12.3276845"><ele>662.3333333333334</ele><time>2026-05-02T12:03:42.318Z</time></trkpt><trkpt lat="43.5090697" lon="12.3275311"><ele>657.6666666666666</ele><time>2026-05-02T12:03:43.315Z</time></trkpt><trkpt lat="43.5092557" lon="12.3274477"><ele>653.0</ele><time>2026-05-02T12:03:44.32Z</time></trkpt><trkpt lat="43.5094383" lon="12.3273721"><ele>655.0</ele><time>2026-05-02T12:03:45.319Z</time></trkpt><trkpt lat="43.5096667" lon="12.3273794"><ele>657.0</ele><time>2026-05-02T12:03:46.32Z</time></trkpt><trkpt lat="43.5098394" lon="12.3274386"><ele>659.0</ele><time>2026-05-02T12:03:47.321Z</time></trkpt><trkpt lat="43.5099953" lon="12.3273097"><ele>658.6666666666666</ele><time>2026-05-02T12:03:48.32Z</time></trkpt><trkpt lat="43.5101685" lon="12.3271433"><ele>658.3333333333334</ele><time>2026-05-02T12:03:49.321Z</time></trkpt><trkpt lat="43.5103114" lon="12.3269393"><ele>658.0</ele><time>2026-05-02T12:03:50.319Z</time></trkpt><trkpt lat="43.5104384" lon="12.3267381"><ele>658.0</ele><time>2026-05-02T12:03:51.321Z</time></trkpt><trkpt lat="43.5105411" lon="12.3265572"><ele>658.0</ele><time>2026-05-02T12:03:52.321Z</time></trkpt><trkpt lat="43.5106172" lon="12.3263743"><ele>658.0</ele><time>2026-05-02T12:03:53.319Z</time></trkpt><trkpt lat="43.5106438" lon="12.3261989"><ele>658.0</ele><time>2026-05-02T12:03:54.321Z</time></trkpt><trkpt lat="43.5106113" lon="12.3260315"><ele>656.6666666666667</ele><time>2026-05-02T12:03:55.313Z</time></trkpt><trkpt lat="43.5105264" lon="12.3258933"><ele>655.3333333333334</ele><time>2026-05-02T12:03:56.319Z</time></trkpt><trkpt lat="43.5103846" lon="12.3258107"><ele>654.0</ele><time>2026-05-02T12:03:57.316Z</time></trkpt><trkpt lat="43.5102025" lon="12.325775"><ele>652.6666666666666</ele><time>2026-05-02T12:03:58.319Z</time></trkpt><trkpt lat="43.5099815" lon="12.3257753"><ele>651.3333333333333</ele><time>2026-05-02T12:03:59.32Z</time></trkpt><trkpt lat="43.509768" lon="12.3257602"><ele>650.0</ele><time>2026-05-02T12:04:00.319Z</time></trkpt><trkpt lat="43.5095734" lon="12.3257078"><ele>649.3333333333333</ele><time>2026-05-02T12:04:01.319Z</time></trkpt><trkpt lat="43.5093885" lon="12.3255968"><ele>648.6666666666666</ele><time>2026-05-02T12:04:02.318Z</time></trkpt><trkpt lat="43.5092198" lon="12.3254149"><ele>648.0</ele><time>2026-05-02T12:04:03.32Z</time></trkpt><trkpt lat="43.5090675" lon="12.3251925"><ele>648.0</ele><time>2026-05-02T12:04:04.318Z</time></trkpt><trkpt lat="43.5088838" lon="12.3249624"><ele>648.0</ele><time>2026-05-02T12:04:05.32Z</time></trkpt><trkpt lat="43.5086551" lon="12.3247392"><ele>647.0</ele><time>2026-05-02T12:04:06.32Z</time></trkpt><trkpt lat="43.5084221" lon="12.3245666"><ele>646.0</ele><time>2026-05-02T12:04:07.315Z</time></trkpt><trkpt lat="43.5081962" lon="12.3244032"><ele>646.0</ele><time>2026-05-02T12:04:08.321Z</time></trkpt><trkpt lat="43.5079975" lon="12.3242614"><ele>646.0</ele><time>2026-05-02T12:04:09.319Z</time></trkpt><trkpt lat="43.5078217" lon="12.3240825"><ele>646.0</ele><time>2026-05-02T12:04:10.319Z</time></trkpt><trkpt lat="43.5076485" lon="12.3238363"><ele>641.0</ele><time>2026-05-02T12:04:11.321Z</time></trkpt><trkpt lat="43.5074616" lon="12.3235514"><ele>636.0</ele><time>2026-05-02T12:04:12.319Z</time></trkpt><trkpt lat="43.5072855" lon="12.3232751"><ele>638.0</ele><time>2026-05-02T12:04:13.316Z</time></trkpt><trkpt lat="43.5071252" lon="12.323022"><ele>640.0</ele><time>2026-05-02T12:04:14.319Z</time></trkpt><trkpt lat="43.5069578" lon="12.3227913"><ele>634.0</ele><time>2026-05-02T12:04:15.319Z</time></trkpt><trkpt lat="43.5067718" lon="12.3226024"><ele>628.0</ele><time>2026-05-02T12:04:16.32Z</time></trkpt><trkpt lat="43.5065583" lon="12.3224387"><ele>628.0</ele><time>2026-05-02T12:04:17.321Z</time></trkpt><trkpt lat="43.5063319" lon="12.3222771"><ele>628.0</ele><time>2026-05-02T12:04:18.318Z</time></trkpt><trkpt lat="43.5061128" lon="12.3221226"><ele>627.5</ele><time>2026-05-02T12:04:19.318Z</time></trkpt><trkpt lat="43.5059055" lon="12.3219771"><ele>627.0</ele><time>2026-05-02T12:04:20.319Z</time></trkpt><trkpt lat="43.5057116" lon="12.3218352"><ele>627.0</ele><time>2026-05-02T12:04:21.311Z</time></trkpt><trkpt lat="43.5055301" lon="12.3216655"><ele>627.0</ele><time>2026-05-02T12:04:22.341Z</time></trkpt><trkpt lat="43.5053806" lon="12.3214797"><ele>627.0</ele><time>2026-05-02T12:04:23.312Z</time></trkpt><trkpt lat="43.5052724" lon="12.3212936"><ele>623.3333333333334</ele><time>2026-05-02T12:04:24.32Z</time></trkpt><trkpt lat="43.5052032" lon="12.321074"><ele>619.6666666666667</ele><time>2026-05-02T12:04:25.318Z</time></trkpt><trkpt lat="43.505177" lon="12.320811"><ele>616.0</ele><time>2026-05-02T12:04:26.318Z</time></trkpt><trkpt lat="43.5051345" lon="12.3205178"><ele>615.6666666666667</ele><time>2026-05-02T12:04:27.317Z</time></trkpt><trkpt lat="43.5050594" lon="12.3202566"><ele>615.3333333333334</ele><time>2026-05-02T12:04:28.316Z</time></trkpt><trkpt lat="43.5049603" lon="12.3200199"><ele>615.0</ele><time>2026-05-02T12:04:29.318Z</time></trkpt><trkpt lat="43.5048722" lon="12.3197684"><ele>614.6666666666666</ele><time>2026-05-02T12:04:30.317Z</time></trkpt><trkpt lat="43.5048312" lon="12.3194794"><ele>614.3333333333333</ele><time>2026-05-02T12:04:31.313Z</time></trkpt><trkpt lat="43.5048213" lon="12.3191856"><ele>614.0</ele><time>2026-05-02T12:04:32.319Z</time></trkpt><trkpt lat="43.50483" lon="12.3189389"><ele>612.0</ele><time>2026-05-02T12:04:33.318Z</time></trkpt><trkpt lat="43.504847" lon="12.3187323"><ele>610.0</ele><time>2026-05-02T12:04:34.314Z</time></trkpt><trkpt lat="43.5049037" lon="12.3185495"><ele>608.0</ele><time>2026-05-02T12:04:35.319Z</time></trkpt><trkpt lat="43.5049929" lon="12.3184066"><ele>606.0</ele><time>2026-05-02T12:04:36.319Z</time></trkpt><trkpt lat="43.5051145" lon="12.3183314"><ele>606.0</ele><time>2026-05-02T12:04:37.317Z</time></trkpt><trkpt lat="43.5052703" lon="12.3183179"><ele>606.0</ele><time>2026-05-02T12:04:38.319Z</time></trkpt><trkpt lat="43.5054372" lon="12.3183228"><ele>606.0</ele><time>2026-05-02T12:04:39.317Z</time></trkpt><trkpt lat="43.5056028" lon="12.3183646"><ele>606.25</ele><time>2026-05-02T12:04:40.318Z</time></trkpt><trkpt lat="43.5057439" lon="12.3183621"><ele>606.5</ele><time>2026-05-02T12:04:41.319Z</time></trkpt><trkpt lat="43.5058619" lon="12.3182922"><ele>606.75</ele><time>2026-05-02T12:04:42.319Z</time></trkpt><trkpt lat="43.5059497" lon="12.3181514"><ele>607.0</ele><time>2026-05-02T12:04:43.319Z</time></trkpt><trkpt lat="43.5060104" lon="12.3179627"><ele>602.0</ele><time>2026-05-02T12:04:44.319Z</time></trkpt><trkpt lat="43.5061054" lon="12.3177707"><ele>597.0</ele><time>2026-05-02T12:04:45.312Z</time></trkpt><trkpt lat="43.5062374" lon="12.3176234"><ele>592.0</ele><time>2026-05-02T12:04:46.32Z</time></trkpt><trkpt lat="43.5063911" lon="12.3175327"><ele>592.0</ele><time>2026-05-02T12:04:47.319Z</time></trkpt><trkpt lat="43.5065574" lon="12.3175123"><ele>592.0</ele><time>2026-05-02T12:04:48.318Z</time></trkpt><trkpt lat="43.5067289" lon="12.3175603"><ele>592.0</ele><time>2026-05-02T12:04:49.317Z</time></trkpt><trkpt lat="43.5068854" lon="12.3176456"><ele>592.0</ele><time>2026-05-02T12:04:50.323Z</time></trkpt><trkpt lat="43.5070271" lon="12.3177081"><ele>592.0</ele><time>2026-05-02T12:04:51.317Z</time></trkpt><trkpt lat="43.507168" lon="12.3177356"><ele>592.0</ele><time>2026-05-02T12:04:52.318Z</time></trkpt><trkpt lat="43.5073143" lon="12.3177069"><ele>592.0</ele><time>2026-05-02T12:04:53.312Z</time></trkpt><trkpt lat="43.5074476" lon="12.3176096"><ele>592.0</ele><time>2026-05-02T12:04:54.314Z</time></trkpt><trkpt lat="43.5075445" lon="12.3174637"><ele>592.0</ele><time>2026-05-02T12:04:55.313Z</time></trkpt><trkpt lat="43.5075845" lon="12.3172801"><ele>592.0</ele><time>2026-05-02T12:04:56.318Z</time></trkpt><trkpt lat="43.5075716" lon="12.3170502"><ele>592.0</ele><time>2026-05-02T12:04:57.318Z</time></trkpt><trkpt lat="43.507516" lon="12.3167988"><ele>592.0</ele><time>2026-05-02T12:04:58.317Z</time></trkpt><trkpt lat="43.5074251" lon="12.3165588"><ele>592.0</ele><time>2026-05-02T12:04:59.32Z</time></trkpt><trkpt lat="43.5073202" lon="12.3163702"><ele>591.3333333333334</ele><time>2026-05-02T12:05:00.318Z</time></trkpt><trkpt lat="43.5072246" lon="12.3161853"><ele>590.6666666666666</ele><time>2026-05-02T12:05:01.312Z</time></trkpt><trkpt lat="43.5071691" lon="12.3159937"><ele>590.0</ele><time>2026-05-02T12:05:02.315Z</time></trkpt><trkpt lat="43.5071651" lon="12.3157823"><ele>589.3333333333333</ele><time>2026-05-02T12:05:03.321Z</time></trkpt><trkpt lat="43.5071873" lon="12.3155575"><ele>588.6666666666666</ele><time>2026-05-02T12:05:04.317Z</time></trkpt><trkpt lat="43.5071975" lon="12.3152897"><ele>588.0</ele><time>2026-05-02T12:05:05.317Z</time></trkpt><trkpt lat="43.5071918" lon="12.3149677"><ele>585.5</ele><time>2026-05-02T12:05:06.318Z</time></trkpt><trkpt lat="43.5071893" lon="12.3146448"><ele>583.0</ele><time>2026-05-02T12:05:07.314Z</time></trkpt><trkpt lat="43.5071933" lon="12.3143376"><ele>583.0</ele><time>2026-05-02T12:05:08.318Z</time></trkpt><trkpt lat="43.5071851" lon="12.3140445"><ele>583.0</ele><time>2026-05-02T12:05:09.319Z</time></trkpt><trkpt lat="43.5071566" lon="12.3137656"><ele>583.0</ele><time>2026-05-02T12:05:10.319Z</time></trkpt><trkpt lat="43.5070914" lon="12.3134881"><ele>579.0</ele><time>2026-05-02T12:05:11.311Z</time></trkpt><trkpt lat="43.5069792" lon="12.3132144"><ele>575.0</ele><time>2026-05-02T12:05:12.321Z</time></trkpt><trkpt lat="43.5068307" lon="12.3129424"><ele>575.0</ele><time>2026-05-02T12:05:13.32Z</time></trkpt><trkpt lat="43.5066888" lon="12.3127024"><ele>575.0</ele><time>2026-05-02T12:05:14.319Z</time></trkpt><trkpt lat="43.5065591" lon="12.312474"><ele>575.0</ele><time>2026-05-02T12:05:15.316Z</time></trkpt><trkpt lat="43.5064468" lon="12.3122509"><ele>576.3333333333333</ele><time>2026-05-02T12:05:16.319Z</time></trkpt><trkpt lat="43.5063641" lon="12.3119922"><ele>577.6666666666666</ele><time>2026-05-02T12:05:17.313Z</time></trkpt><trkpt lat="43.5062779" lon="12.3117099"><ele>579.0</ele><time>2026-05-02T12:05:18.319Z</time></trkpt><trkpt lat="43.5062089" lon="12.3114296"><ele>573.5</ele><time>2026-05-02T12:05:19.318Z</time></trkpt><trkpt lat="43.5060709" lon="12.3111412"><ele>568.0</ele><time>2026-05-02T12:05:20.319Z</time></trkpt><trkpt lat="43.5059469" lon="12.3109014"><ele>568.0</ele><time>2026-05-02T12:05:21.318Z</time></trkpt><trkpt lat="43.5058167" lon="12.3106848"><ele>568.0</ele><time>2026-05-02T12:05:22.317Z</time></trkpt><trkpt lat="43.5057066" lon="12.3104695"><ele>568.0</ele><time>2026-05-02T12:05:23.314Z</time></trkpt><trkpt lat="43.5056433" lon="12.3102439"><ele>568.6666666666667</ele><time>2026-05-02T12:05:24.318Z</time></trkpt><trkpt lat="43.5056224" lon="12.3099944"><ele>569.3333333333334</ele><time>2026-05-02T12:05:25.314Z</time></trkpt><trkpt lat="43.5056252" lon="12.3097293"><ele>570.0</ele><time>2026-05-02T12:05:26.319Z</time></trkpt><trkpt lat="43.505606" lon="12.3094643"><ele>567.0</ele><time>2026-05-02T12:05:27.313Z</time></trkpt><trkpt lat="43.5055191" lon="12.309238"><ele>564.0</ele><time>2026-05-02T12:05:28.317Z</time></trkpt><trkpt lat="43.5054621" lon="12.3090127"><ele>561.0</ele><time>2026-05-02T12:05:29.317Z</time></trkpt><trkpt lat="43.5052961" lon="12.3088725"><ele>560.3333333333334</ele><time>2026-05-02T12:05:30.317Z</time></trkpt><trkpt lat="43.5051853" lon="12.3087154"><ele>559.6666666666667</ele><time>2026-05-02T12:05:31.315Z</time></trkpt><trkpt lat="43.5050645" lon="12.3085678"><ele>559.0</ele><time>2026-05-02T12:05:32.316Z</time></trkpt><trkpt lat="43.504951" lon="12.3084125"><ele>559.0</ele><time>2026-05-02T12:05:33.315Z</time></trkpt><trkpt lat="43.5048343" lon="12.3082734"><ele>559.0</ele><time>2026-05-02T12:05:34.32Z</time></trkpt><trkpt lat="43.5047191" lon="12.308139"><ele>559.0</ele><time>2026-05-02T12:05:35.317Z</time></trkpt><trkpt lat="43.5046062" lon="12.3080024"><ele>556.6666666666667</ele><time>2026-05-02T12:05:36.317Z</time></trkpt><trkpt lat="43.5044936" lon="12.3078594"><ele>554.3333333333334</ele><time>2026-05-02T12:05:37.318Z</time></trkpt><trkpt lat="43.5043779" lon="12.3077184"><ele>552.0</ele><time>2026-05-02T12:05:38.318Z</time></trkpt><trkpt lat="43.5042638" lon="12.3075716"><ele>552.0</ele><time>2026-05-02T12:05:39.317Z</time></trkpt><trkpt lat="43.5041731" lon="12.3074089"><ele>552.0</ele><time>2026-05-02T12:05:40.318Z</time></trkpt><trkpt lat="43.5041134" lon="12.307232"><ele>552.0</ele><time>2026-05-02T12:05:41.315Z</time></trkpt><trkpt lat="43.5040774" lon="12.3070449"><ele>552.0</ele><time>2026-05-02T12:05:42.317Z</time></trkpt><trkpt lat="43.50406" lon="12.3068538"><ele>550.75</ele><time>2026-05-02T12:05:43.415Z</time></trkpt><trkpt lat="43.5040569" lon="12.3066684"><ele>549.5</ele><time>2026-05-02T12:05:44.318Z</time></trkpt><trkpt lat="43.5040444" lon="12.3064751"><ele>548.25</ele><time>2026-05-02T12:05:45.318Z</time></trkpt><trkpt lat="43.5040275" lon="12.3062901"><ele>547.0</ele><time>2026-05-02T12:05:46.32Z</time></trkpt><trkpt lat="43.5040115" lon="12.3061107"><ele>545.75</ele><time>2026-05-02T12:05:47.319Z</time></trkpt><trkpt lat="43.5039926" lon="12.3059383"><ele>544.5</ele><time>2026-05-02T12:05:48.317Z</time></trkpt><trkpt lat="43.5039746" lon="12.3057732"><ele>543.25</ele><time>2026-05-02T12:05:49.314Z</time></trkpt><trkpt lat="43.5039624" lon="12.3056198"><ele>542.0</ele><time>2026-05-02T12:05:50.318Z</time></trkpt><trkpt lat="43.5039377" lon="12.3054584"><ele>542.0</ele><time>2026-05-02T12:05:51.319Z</time></trkpt><trkpt lat="43.5039231" lon="12.3052989"><ele>542.0</ele><time>2026-05-02T12:05:52.321Z</time></trkpt><trkpt lat="43.5038981" lon="12.3051358"><ele>542.0</ele><time>2026-05-02T12:05:53.319Z</time></trkpt><trkpt lat="43.5038529" lon="12.3049657"><ele>542.0</ele><time>2026-05-02T12:05:54.32Z</time></trkpt><trkpt lat="43.5037749" lon="12.3047715"><ele>541.0</ele><time>2026-05-02T12:05:55.319Z</time></trkpt><trkpt lat="43.5036584" lon="12.3045756"><ele>540.0</ele><time>2026-05-02T12:05:56.319Z</time></trkpt><trkpt lat="43.5035081" lon="12.3043969"><ele>539.0</ele><time>2026-05-02T12:05:57.319Z</time></trkpt><trkpt lat="43.5033359" lon="12.3042609"><ele>539.0</ele><time>2026-05-02T12:05:58.311Z</time></trkpt><trkpt lat="43.5031654" lon="12.3041617"><ele>539.0</ele><time>2026-05-02T12:05:59.31Z</time></trkpt><trkpt lat="43.5029916" lon="12.3040719"><ele>539.0</ele><time>2026-05-02T12:06:00.311Z</time></trkpt><trkpt lat="43.5028289" lon="12.3039656"><ele>543.3333333333333</ele><time>2026-05-02T12:06:01.316Z</time></trkpt><trkpt lat="43.5026831" lon="12.303862"><ele>547.6666666666666</ele><time>2026-05-02T12:06:02.317Z</time></trkpt><trkpt lat="43.5025406" lon="12.3037585"><ele>552.0</ele><time>2026-05-02T12:06:03.323Z</time></trkpt><trkpt lat="43.5024055" lon="12.3036506"><ele>552.0</ele><time>2026-05-02T12:06:04.319Z</time></trkpt><trkpt lat="43.5022815" lon="12.3035505"><ele>552.0</ele><time>2026-05-02T12:06:05.317Z</time></trkpt><trkpt lat="43.5021686" lon="12.3034617"><ele>552.0</ele><time>2026-05-02T12:06:06.313Z</time></trkpt><trkpt lat="43.502062" lon="12.3033742"><ele>552.0</ele><time>2026-05-02T12:06:07.317Z</time></trkpt><trkpt lat="43.5019648" lon="12.3032879"><ele>552.2</ele><time>2026-05-02T12:06:08.318Z</time></trkpt><trkpt lat="43.5018687" lon="12.3032042"><ele>552.4000000000001</ele><time>2026-05-02T12:06:09.319Z</time></trkpt><trkpt lat="43.5017808" lon="12.303126"><ele>552.5999999999999</ele><time>2026-05-02T12:06:10.318Z</time></trkpt><trkpt lat="43.5016987" lon="12.3030468"><ele>552.8</ele><time>2026-05-02T12:06:11.318Z</time></trkpt><trkpt lat="43.501624" lon="12.3029744"><ele>553.0</ele><time>2026-05-02T12:06:12.319Z</time></trkpt><trkpt lat="43.5015581" lon="12.30291"><ele>553.0</ele><time>2026-05-02T12:06:13.319Z</time></trkpt><trkpt lat="43.5014987" lon="12.3028452"><ele>553.0</ele><time>2026-05-02T12:06:14.317Z</time></trkpt><trkpt lat="43.5014432" lon="12.3027826"><ele>553.0</ele><time>2026-05-02T12:06:15.313Z</time></trkpt><trkpt lat="43.5013916" lon="12.3027272"><ele>553.0</ele><time>2026-05-02T12:06:16.317Z</time></trkpt><trkpt lat="43.5013414" lon="12.3026736"><ele>553.0</ele><time>2026-05-02T12:06:17.317Z</time></trkpt><trkpt lat="43.501248" lon="12.3025754"><ele>553.0</ele><time>2026-05-02T12:06:19.318Z</time></trkpt><trkpt lat="43.501191" lon="12.3025261"><ele>550.8333333333334</ele><time>2026-05-02T12:06:20.311Z</time></trkpt><trkpt lat="43.5011293" lon="12.3024823"><ele>548.6666666666667</ele><time>2026-05-02T12:06:21.31Z</time></trkpt><trkpt lat="43.5010603" lon="12.3024413"><ele>546.5</ele><time>2026-05-02T12:06:22.31Z</time></trkpt><trkpt lat="43.5009791" lon="12.3024157"><ele>544.3333333333334</ele><time>2026-05-02T12:06:23.31Z</time></trkpt><trkpt lat="43.5008826" lon="12.3024068"><ele>542.1666666666666</ele><time>2026-05-02T12:06:24.311Z</time></trkpt><trkpt lat="43.5007801" lon="12.3024169"><ele>540.0</ele><time>2026-05-02T12:06:25.311Z</time></trkpt><trkpt lat="43.500662" lon="12.3024627"><ele>540.0</ele><time>2026-05-02T12:06:26.311Z</time></trkpt><trkpt lat="43.5005394" lon="12.3025372"><ele>540.0</ele><time>2026-05-02T12:06:27.312Z</time></trkpt><trkpt lat="43.5004029" lon="12.3026015"><ele>540.0</ele><time>2026-05-02T12:06:28.31Z</time></trkpt><trkpt lat="43.5002544" lon="12.3025908"><ele>540.0</ele><time>2026-05-02T12:06:29.31Z</time></trkpt><trkpt lat="43.5001026" lon="12.3025133"><ele>538.3333333333334</ele><time>2026-05-02T12:06:30.313Z</time></trkpt><trkpt lat="43.4999465" lon="12.3023885"><ele>536.6666666666667</ele><time>2026-05-02T12:06:31.311Z</time></trkpt><trkpt lat="43.4997843" lon="12.3022373"><ele>535.0</ele><time>2026-05-02T12:06:32.311Z</time></trkpt><trkpt lat="43.4996335" lon="12.3020442"><ele>534.6666666666667</ele><time>2026-05-02T12:06:33.317Z</time></trkpt><trkpt lat="43.4995165" lon="12.3018224"><ele>534.3333333333334</ele><time>2026-05-02T12:06:34.315Z</time></trkpt><trkpt lat="43.4994306" lon="12.3015676"><ele>534.0</ele><time>2026-05-02T12:06:35.317Z</time></trkpt><trkpt lat="43.4993726" lon="12.3012769"><ele>534.0</ele><time>2026-05-02T12:06:36.317Z</time></trkpt><trkpt lat="43.4992867" lon="12.3009491"><ele>534.0</ele><time>2026-05-02T12:06:37.318Z</time></trkpt><trkpt lat="43.499206" lon="12.3006334"><ele>536.6666666666666</ele><time>2026-05-02T12:06:38.318Z</time></trkpt><trkpt lat="43.4991387" lon="12.3003486"><ele>539.3333333333333</ele><time>2026-05-02T12:06:39.318Z</time></trkpt><trkpt lat="43.499092" lon="12.300076"><ele>542.0</ele><time>2026-05-02T12:06:40.314Z</time></trkpt><trkpt lat="43.4990332" lon="12.299826"><ele>544.3333333333333</ele><time>2026-05-02T12:06:41.32Z</time></trkpt><trkpt lat="43.4989534" lon="12.2996138"><ele>546.6666666666666</ele><time>2026-05-02T12:06:42.319Z</time></trkpt><trkpt lat="43.4988615" lon="12.2994451"><ele>549.0</ele><time>2026-05-02T12:06:43.318Z</time></trkpt><trkpt lat="43.4987614" lon="12.2992999"><ele>545.0</ele><time>2026-05-02T12:06:44.318Z</time></trkpt><trkpt lat="43.4986631" lon="12.2991624"><ele>541.0</ele><time>2026-05-02T12:06:45.317Z</time></trkpt><trkpt lat="43.4985875" lon="12.2990301"><ele>537.0</ele><time>2026-05-02T12:06:46.317Z</time></trkpt><trkpt lat="43.4985288" lon="12.2988977"><ele>533.0</ele><time>2026-05-02T12:06:47.321Z</time></trkpt><trkpt lat="43.4984688" lon="12.298769"><ele>533.0</ele><time>2026-05-02T12:06:48.316Z</time></trkpt><trkpt lat="43.4984091" lon="12.2986443"><ele>533.0</ele><time>2026-05-02T12:06:49.311Z</time></trkpt><trkpt lat="43.4983481" lon="12.298511"><ele>533.0</ele><time>2026-05-02T12:06:50.315Z</time></trkpt><trkpt lat="43.4982814" lon="12.2983723"><ele>533.0</ele><time>2026-05-02T12:06:51.318Z</time></trkpt><trkpt lat="43.4982156" lon="12.2982309"><ele>532.6</ele><time>2026-05-02T12:06:52.317Z</time></trkpt><trkpt lat="43.4981841" lon="12.298084"><ele>532.1999999999999</ele><time>2026-05-02T12:06:53.321Z</time></trkpt><trkpt lat="43.4982095" lon="12.2979483"><ele>531.8</ele><time>2026-05-02T12:06:54.319Z</time></trkpt><trkpt lat="43.4982853" lon="12.2978465"><ele>531.4</ele><time>2026-05-02T12:06:55.319Z</time></trkpt><trkpt lat="43.4983683" lon="12.2977484"><ele>531.0</ele><time>2026-05-02T12:06:56.319Z</time></trkpt><trkpt lat="43.4984953" lon="12.2976379"><ele>531.0</ele><time>2026-05-02T12:06:57.311Z</time></trkpt><trkpt lat="43.4985597" lon="12.2974835"><ele>531.0</ele><time>2026-05-02T12:06:58.316Z</time></trkpt><trkpt lat="43.4985827" lon="12.297326"><ele>531.0</ele><time>2026-05-02T12:06:59.317Z</time></trkpt><trkpt lat="43.4985633" lon="12.2971749"><ele>531.0</ele><time>2026-05-02T12:07:00.317Z</time></trkpt><trkpt lat="43.498475" lon="12.2970118"><ele>534.3333333333334</ele><time>2026-05-02T12:07:01.313Z</time></trkpt><trkpt lat="43.4983584" lon="12.2968799"><ele>537.6666666666667</ele><time>2026-05-02T12:07:02.32Z</time></trkpt><trkpt lat="43.4982283" lon="12.2967679"><ele>541.0</ele><time>2026-05-02T12:07:03.312Z</time></trkpt><trkpt lat="43.4980401" lon="12.29676"><ele>537.6666666666667</ele><time>2026-05-02T12:07:04.315Z</time></trkpt><trkpt lat="43.4978237" lon="12.2967529"><ele>534.3333333333334</ele><time>2026-05-02T12:07:05.317Z</time></trkpt><trkpt lat="43.4976066" lon="12.2966956"><ele>531.0</ele><time>2026-05-02T12:07:06.315Z</time></trkpt><trkpt lat="43.4973983" lon="12.2966249"><ele>531.0</ele><time>2026-05-02T12:07:07.318Z</time></trkpt><trkpt lat="43.4971805" lon="12.2965462"><ele>531.0</ele><time>2026-05-02T12:07:08.318Z</time></trkpt><trkpt lat="43.4969522" lon="12.2963503"><ele>532.0</ele><time>2026-05-02T12:07:09.319Z</time></trkpt><trkpt lat="43.4967198" lon="12.2961609"><ele>533.0</ele><time>2026-05-02T12:07:10.318Z</time></trkpt><trkpt lat="43.4965173" lon="12.2959787"><ele>533.0</ele><time>2026-05-02T12:07:11.318Z</time></trkpt><trkpt lat="43.4963415" lon="12.2958174"><ele>533.0</ele><time>2026-05-02T12:07:12.316Z</time></trkpt><trkpt lat="43.4961869" lon="12.2956912"><ele>533.0</ele><time>2026-05-02T12:07:13.319Z</time></trkpt><trkpt lat="43.4960639" lon="12.295579"><ele>530.25</ele><time>2026-05-02T12:07:14.318Z</time></trkpt><trkpt lat="43.4959817" lon="12.2954414"><ele>527.5</ele><time>2026-05-02T12:07:15.319Z</time></trkpt><trkpt lat="43.4959473" lon="12.2952781"><ele>524.75</ele><time>2026-05-02T12:07:16.318Z</time></trkpt><trkpt lat="43.4959688" lon="12.2951117"><ele>522.0</ele><time>2026-05-02T12:07:17.317Z</time></trkpt><trkpt lat="43.4960419" lon="12.2949654"><ele>522.0</ele><time>2026-05-02T12:07:18.318Z</time></trkpt><trkpt lat="43.496161" lon="12.2948421"><ele>522.0</ele><time>2026-05-02T12:07:19.317Z</time></trkpt><trkpt lat="43.4963018" lon="12.294712"><ele>522.0</ele><time>2026-05-02T12:07:20.316Z</time></trkpt><trkpt lat="43.4964087" lon="12.2945513"><ele>525.0</ele><time>2026-05-02T12:07:21.415Z</time></trkpt><trkpt lat="43.496477" lon="12.2943693"><ele>528.0</ele><time>2026-05-02T12:07:22.317Z</time></trkpt><trkpt lat="43.4964987" lon="12.2941708"><ele>531.0</ele><time>2026-05-02T12:07:23.316Z</time></trkpt><trkpt lat="43.4964553" lon="12.2939607"><ele>531.6666666666666</ele><time>2026-05-02T12:07:24.318Z</time></trkpt><trkpt lat="43.4963553" lon="12.2937462"><ele>532.3333333333333</ele><time>2026-05-02T12:07:25.317Z</time></trkpt><trkpt lat="43.4962062" lon="12.2935218"><ele>533.0</ele><time>2026-05-02T12:07:26.318Z</time></trkpt><trkpt lat="43.496013" lon="12.293309"><ele>531.0</ele><time>2026-05-02T12:07:27.319Z</time></trkpt><trkpt lat="43.49578" lon="12.2931173"><ele>529.0</ele><time>2026-05-02T12:07:28.318Z</time></trkpt><trkpt lat="43.4955216" lon="12.2929615"><ele>524.5</ele><time>2026-05-02T12:07:29.31Z</time></trkpt><trkpt lat="43.4952795" lon="12.2928332"><ele>520.0</ele><time>2026-05-02T12:07:30.318Z</time></trkpt><trkpt lat="43.4950504" lon="12.2927045"><ele>520.0</ele><time>2026-05-02T12:07:31.318Z</time></trkpt><trkpt lat="43.4948352" lon="12.2925527"><ele>520.0</ele><time>2026-05-02T12:07:32.313Z</time></trkpt><trkpt lat="43.4946328" lon="12.2923525"><ele>519.0</ele><time>2026-05-02T12:07:33.318Z</time></trkpt><trkpt lat="43.4944569" lon="12.292144"><ele>518.0</ele><time>2026-05-02T12:07:34.315Z</time></trkpt><trkpt lat="43.4942985" lon="12.2919415"><ele>517.0</ele><time>2026-05-02T12:07:35.312Z</time></trkpt><trkpt lat="43.4941553" lon="12.2917332"><ele>517.0</ele><time>2026-05-02T12:07:36.318Z</time></trkpt><trkpt lat="43.494101" lon="12.2914825"><ele>517.0</ele><time>2026-05-02T12:07:37.318Z</time></trkpt><trkpt lat="43.49404" lon="12.2912179"><ele>517.0</ele><time>2026-05-02T12:07:38.318Z</time></trkpt><trkpt lat="43.4939616" lon="12.2909729"><ele>516.3333333333334</ele><time>2026-05-02T12:07:39.317Z</time></trkpt><trkpt lat="43.4938673" lon="12.2907404"><ele>515.6666666666666</ele><time>2026-05-02T12:07:40.318Z</time></trkpt><trkpt lat="43.4936939" lon="12.2905847"><ele>515.0</ele><time>2026-05-02T12:07:41.318Z</time></trkpt><trkpt lat="43.4935397" lon="12.290414"><ele>515.0</ele><time>2026-05-02T12:07:42.318Z</time></trkpt><trkpt lat="43.4933867" lon="12.2901851"><ele>515.0</ele><time>2026-05-02T12:07:43.318Z</time></trkpt><trkpt lat="43.4932348" lon="12.2898918"><ele>517.5</ele><time>2026-05-02T12:07:44.317Z</time></trkpt><trkpt lat="43.4930667" lon="12.2895677"><ele>520.0</ele><time>2026-05-02T12:07:45.316Z</time></trkpt><trkpt lat="43.4928974" lon="12.289255"><ele>518.0</ele><time>2026-05-02T12:07:46.318Z</time></trkpt><trkpt lat="43.4927176" lon="12.2889586"><ele>516.0</ele><time>2026-05-02T12:07:47.32Z</time></trkpt><trkpt lat="43.4925163" lon="12.2887005"><ele>516.0</ele><time>2026-05-02T12:07:48.317Z</time></trkpt><trkpt lat="43.4922985" lon="12.2884484"><ele>516.0</ele><time>2026-05-02T12:07:49.318Z</time></trkpt><trkpt lat="43.4920146" lon="12.2882376"><ele>516.5</ele><time>2026-05-02T12:07:50.317Z</time></trkpt><trkpt lat="43.4917299" lon="12.2879982"><ele>517.0</ele><time>2026-05-02T12:07:51.319Z</time></trkpt><trkpt lat="43.4914536" lon="12.2877619"><ele>508.0</ele><time>2026-05-02T12:07:52.32Z</time></trkpt><trkpt lat="43.4911915" lon="12.2875404"><ele>499.0</ele><time>2026-05-02T12:07:53.319Z</time></trkpt><trkpt lat="43.4909427" lon="12.2873282"><ele>506.5</ele><time>2026-05-02T12:07:54.321Z</time></trkpt><trkpt lat="43.4907254" lon="12.2871482"><ele>514.0</ele><time>2026-05-02T12:07:55.318Z</time></trkpt><trkpt lat="43.4905431" lon="12.2869903"><ele>508.33333333333337</ele><time>2026-05-02T12:07:56.318Z</time></trkpt><trkpt lat="43.4903864" lon="12.2868432"><ele>502.66666666666663</ele><time>2026-05-02T12:07:57.32Z</time></trkpt><trkpt lat="43.4902586" lon="12.2866719"><ele>497.0</ele><time>2026-05-02T12:07:58.318Z</time></trkpt><trkpt lat="43.4901627" lon="12.2864526"><ele>498.66666666666663</ele><time>2026-05-02T12:07:59.318Z</time></trkpt><trkpt lat="43.4901089" lon="12.286175"><ele>500.33333333333337</ele><time>2026-05-02T12:08:00.318Z</time></trkpt><trkpt lat="43.4900934" lon="12.2858926"><ele>502.0</ele><time>2026-05-02T12:08:01.312Z</time></trkpt><trkpt lat="43.4900951" lon="12.2856383"><ele>503.6666666666667</ele><time>2026-05-02T12:08:02.311Z</time></trkpt><trkpt lat="43.4900682" lon="12.2854013"><ele>505.33333333333337</ele><time>2026-05-02T12:08:03.317Z</time></trkpt><trkpt lat="43.4899922" lon="12.2851983"><ele>507.0</ele><time>2026-05-02T12:08:04.318Z</time></trkpt><trkpt lat="43.4899238" lon="12.2850101"><ele>507.0</ele><time>2026-05-02T12:08:05.317Z</time></trkpt><trkpt lat="43.4896647" lon="12.2848616"><ele>507.0</ele><time>2026-05-02T12:08:06.318Z</time></trkpt><trkpt lat="43.4894429" lon="12.2846925"><ele>510.0</ele><time>2026-05-02T12:08:07.321Z</time></trkpt><trkpt lat="43.4892329" lon="12.2845406"><ele>513.0</ele><time>2026-05-02T12:08:08.31Z</time></trkpt><trkpt lat="43.489036" lon="12.2844213"><ele>513.0</ele><time>2026-05-02T12:08:09.318Z</time></trkpt><trkpt lat="43.4888458" lon="12.2843644"><ele>513.0</ele><time>2026-05-02T12:08:10.318Z</time></trkpt><trkpt lat="43.4886434" lon="12.2843764"><ele>513.0</ele><time>2026-05-02T12:08:11.317Z</time></trkpt><trkpt lat="43.4884232" lon="12.2843843"><ele>510.0</ele><time>2026-05-02T12:08:12.318Z</time></trkpt><trkpt lat="43.488208" lon="12.284332"><ele>507.0</ele><time>2026-05-02T12:08:13.319Z</time></trkpt><trkpt lat="43.488011" lon="12.2842403"><ele>504.0</ele><time>2026-05-02T12:08:14.315Z</time></trkpt><trkpt lat="43.4878365" lon="12.2841025"><ele>504.0</ele><time>2026-05-02T12:08:15.318Z</time></trkpt><trkpt lat="43.4876664" lon="12.283926"><ele>504.0</ele><time>2026-05-02T12:08:16.318Z</time></trkpt><trkpt lat="43.4874955" lon="12.2837574"><ele>504.0</ele><time>2026-05-02T12:08:17.317Z</time></trkpt><trkpt lat="43.4873301" lon="12.2836302"><ele>504.0</ele><time>2026-05-02T12:08:18.318Z</time></trkpt><trkpt lat="43.4871772" lon="12.2835236"><ele>504.0</ele><time>2026-05-02T12:08:19.317Z</time></trkpt><trkpt lat="43.4870412" lon="12.2834332"><ele>504.0</ele><time>2026-05-02T12:08:20.317Z</time></trkpt><trkpt lat="43.4869136" lon="12.2833467"><ele>501.25</ele><time>2026-05-02T12:08:21.318Z</time></trkpt><trkpt lat="43.4867989" lon="12.2832676"><ele>498.5</ele><time>2026-05-02T12:08:22.316Z</time></trkpt><trkpt lat="43.4866888" lon="12.2831981"><ele>495.75</ele><time>2026-05-02T12:08:23.318Z</time></trkpt><trkpt lat="43.4865794" lon="12.2831264"><ele>493.0</ele><time>2026-05-02T12:08:24.319Z</time></trkpt><trkpt lat="43.48647" lon="12.2830544"><ele>493.0</ele><time>2026-05-02T12:08:25.318Z</time></trkpt><trkpt lat="43.4863555" lon="12.2829788"><ele>493.0</ele><time>2026-05-02T12:08:26.317Z</time></trkpt><trkpt lat="43.486232" lon="12.2828951"><ele>493.0</ele><time>2026-05-02T12:08:27.319Z</time></trkpt><trkpt lat="43.486096" lon="12.2828037"><ele>493.0</ele><time>2026-05-02T12:08:28.315Z</time></trkpt><trkpt lat="43.4859464" lon="12.2827009"><ele>493.33333333333337</ele><time>2026-05-02T12:08:29.318Z</time></trkpt><trkpt lat="43.4857758" lon="12.2825909"><ele>493.66666666666663</ele><time>2026-05-02T12:08:30.318Z</time></trkpt><trkpt lat="43.4855915" lon="12.2824674"><ele>494.0</ele><time>2026-05-02T12:08:31.311Z</time></trkpt><trkpt lat="43.4853974" lon="12.2823231"><ele>493.0</ele><time>2026-05-02T12:08:32.318Z</time></trkpt><trkpt lat="43.4852195" lon="12.2821879"><ele>492.0</ele><time>2026-05-02T12:08:33.317Z</time></trkpt><trkpt lat="43.4850603" lon="12.2820652"><ele>491.0</ele><time>2026-05-02T12:08:34.321Z</time></trkpt><trkpt lat="43.4849324" lon="12.2819469"><ele>491.0</ele><time>2026-05-02T12:08:35.318Z</time></trkpt><trkpt lat="43.4848564" lon="12.2818094"><ele>491.0</ele><time>2026-05-02T12:08:36.318Z</time></trkpt><trkpt lat="43.4848399" lon="12.2816667"><ele>491.0</ele><time>2026-05-02T12:08:37.318Z</time></trkpt><trkpt lat="43.4848803" lon="12.2815214"><ele>491.0</ele><time>2026-05-02T12:08:38.316Z</time></trkpt><trkpt lat="43.4849432" lon="12.2813265"><ele>489.3333333333333</ele><time>2026-05-02T12:08:39.319Z</time></trkpt><trkpt lat="43.484972" lon="12.2810886"><ele>487.66666666666663</ele><time>2026-05-02T12:08:40.314Z</time></trkpt><trkpt lat="43.4849562" lon="12.2808345"><ele>486.0</ele><time>2026-05-02T12:08:41.318Z</time></trkpt><trkpt lat="43.4848738" lon="12.2805635"><ele>484.5</ele><time>2026-05-02T12:08:42.318Z</time></trkpt><trkpt lat="43.4847507" lon="12.280266"><ele>483.0</ele><time>2026-05-02T12:08:43.318Z</time></trkpt><trkpt lat="43.4846238" lon="12.2799671"><ele>479.0</ele><time>2026-05-02T12:08:44.319Z</time></trkpt><trkpt lat="43.4845063" lon="12.2796784"><ele>475.0</ele><time>2026-05-02T12:08:45.314Z</time></trkpt><trkpt lat="43.4843894" lon="12.2794062"><ele>475.0</ele><time>2026-05-02T12:08:46.316Z</time></trkpt><trkpt lat="43.4842622" lon="12.2791621"><ele>475.0</ele><time>2026-05-02T12:08:47.321Z</time></trkpt><trkpt lat="43.4840992" lon="12.2789403"><ele>475.0</ele><time>2026-05-02T12:08:48.319Z</time></trkpt><trkpt lat="43.483895" lon="12.2787317"><ele>473.0</ele><time>2026-05-02T12:08:49.317Z</time></trkpt><trkpt lat="43.4836717" lon="12.2785283"><ele>471.0</ele><time>2026-05-02T12:08:50.318Z</time></trkpt><trkpt lat="43.4834605" lon="12.2783322"><ele>471.0</ele><time>2026-05-02T12:08:51.318Z</time></trkpt><trkpt lat="43.4832559" lon="12.2781423"><ele>471.0</ele><time>2026-05-02T12:08:52.317Z</time></trkpt><trkpt lat="43.4830745" lon="12.2779738"><ele>472.0</ele><time>2026-05-02T12:08:53.319Z</time></trkpt><trkpt lat="43.4829026" lon="12.277829"><ele>473.0</ele><time>2026-05-02T12:08:54.317Z</time></trkpt><trkpt lat="43.4827264" lon="12.277733"><ele>474.0</ele><time>2026-05-02T12:08:55.317Z</time></trkpt><trkpt lat="43.4825598" lon="12.2776792"><ele>474.0</ele><time>2026-05-02T12:08:56.318Z</time></trkpt><trkpt lat="43.4824014" lon="12.277641"><ele>474.0</ele><time>2026-05-02T12:08:57.318Z</time></trkpt><trkpt lat="43.4822528" lon="12.2775454"><ele>474.0</ele><time>2026-05-02T12:08:58.32Z</time></trkpt><trkpt lat="43.4821099" lon="12.2774116"><ele>470.5</ele><time>2026-05-02T12:08:59.319Z</time></trkpt><trkpt lat="43.4820009" lon="12.277265"><ele>467.0</ele><time>2026-05-02T12:09:00.318Z</time></trkpt><trkpt lat="43.4819209" lon="12.2771033"><ele>463.5</ele><time>2026-05-02T12:09:01.316Z</time></trkpt><trkpt lat="43.481888" lon="12.276933"><ele>460.0</ele><time>2026-05-02T12:09:02.316Z</time></trkpt><trkpt lat="43.4819099" lon="12.2767703"><ele>460.0</ele><time>2026-05-02T12:09:03.317Z</time></trkpt><trkpt lat="43.4819864" lon="12.2766434"><ele>460.0</ele><time>2026-05-02T12:09:04.316Z</time></trkpt><trkpt lat="43.4821111" lon="12.2765509"><ele>460.0</ele><time>2026-05-02T12:09:05.313Z</time></trkpt><trkpt lat="43.4822403" lon="12.2764671"><ele>460.0</ele><time>2026-05-02T12:09:06.319Z</time></trkpt><trkpt lat="43.4824707" lon="12.2764996"><ele>461.33333333333337</ele><time>2026-05-02T12:09:07.318Z</time></trkpt><trkpt lat="43.482651" lon="12.2764873"><ele>462.66666666666663</ele><time>2026-05-02T12:09:08.319Z</time></trkpt><trkpt lat="43.4828336" lon="12.2764744"><ele>464.0</ele><time>2026-05-02T12:09:09.318Z</time></trkpt><trkpt lat="43.483002" lon="12.2764375"><ele>464.75</ele><time>2026-05-02T12:09:10.316Z</time></trkpt><trkpt lat="43.4831053" lon="12.2763072"><ele>465.5</ele><time>2026-05-02T12:09:11.31Z</time></trkpt><trkpt lat="43.4831701" lon="12.2761455"><ele>466.25</ele><time>2026-05-02T12:09:12.317Z</time></trkpt><trkpt lat="43.483183" lon="12.2759599"><ele>467.0</ele><time>2026-05-02T12:09:13.315Z</time></trkpt><trkpt lat="43.4831829" lon="12.2757852"><ele>468.0</ele><time>2026-05-02T12:09:14.319Z</time></trkpt><trkpt lat="43.4831475" lon="12.2755719"><ele>469.0</ele><time>2026-05-02T12:09:15.317Z</time></trkpt><trkpt lat="43.4830094" lon="12.2753125"><ele>470.0</ele><time>2026-05-02T12:09:16.317Z</time></trkpt><trkpt lat="43.4827737" lon="12.2750341"><ele>469.3333333333333</ele><time>2026-05-02T12:09:17.319Z</time></trkpt><trkpt lat="43.4826429" lon="12.274839"><ele>468.66666666666663</ele><time>2026-05-02T12:09:18.319Z</time></trkpt><trkpt lat="43.4824613" lon="12.2746862"><ele>468.0</ele><time>2026-05-02T12:09:19.314Z</time></trkpt><trkpt lat="43.482233" lon="12.2746161"><ele>465.0</ele><time>2026-05-02T12:09:20.319Z</time></trkpt><trkpt lat="43.4819825" lon="12.2745442"><ele>462.0</ele><time>2026-05-02T12:09:21.318Z</time></trkpt><trkpt lat="43.4817359" lon="12.2744565"><ele>462.0</ele><time>2026-05-02T12:09:22.319Z</time></trkpt><trkpt lat="43.4815062" lon="12.2743741"><ele>462.0</ele><time>2026-05-02T12:09:23.317Z</time></trkpt><trkpt lat="43.4812733" lon="12.2743206"><ele>461.0</ele><time>2026-05-02T12:09:24.319Z</time></trkpt><trkpt lat="43.4810496" lon="12.2743099"><ele>460.0</ele><time>2026-05-02T12:09:25.318Z</time></trkpt><trkpt lat="43.4808337" lon="12.2743293"><ele>459.0</ele><time>2026-05-02T12:09:26.318Z</time></trkpt><trkpt lat="43.4806484" lon="12.2743339"><ele>459.0</ele><time>2026-05-02T12:09:27.316Z</time></trkpt><trkpt lat="43.4804471" lon="12.2742839"><ele>459.0</ele><time>2026-05-02T12:09:28.32Z</time></trkpt><trkpt lat="43.4802417" lon="12.2741784"><ele>459.0</ele><time>2026-05-02T12:09:29.32Z</time></trkpt><trkpt lat="43.4800509" lon="12.2740511"><ele>459.0</ele><time>2026-05-02T12:09:30.322Z</time></trkpt><trkpt lat="43.4798931" lon="12.2739425"><ele>459.0</ele><time>2026-05-02T12:09:31.32Z</time></trkpt><trkpt lat="43.4797566" lon="12.2738285"><ele>459.0</ele><time>2026-05-02T12:09:32.321Z</time></trkpt><trkpt lat="43.4796567" lon="12.2736849"><ele>459.0</ele><time>2026-05-02T12:09:33.32Z</time></trkpt><trkpt lat="43.4795998" lon="12.2735187"><ele>459.0</ele><time>2026-05-02T12:09:34.325Z</time></trkpt><trkpt lat="43.4795949" lon="12.2733317"><ele>459.0</ele><time>2026-05-02T12:09:35.317Z</time></trkpt><trkpt lat="43.4796461" lon="12.2731627"><ele>459.0</ele><time>2026-05-02T12:09:36.321Z</time></trkpt><trkpt lat="43.4797392" lon="12.2730393"><ele>455.25</ele><time>2026-05-02T12:09:37.32Z</time></trkpt><trkpt lat="43.479861" lon="12.2729757"><ele>451.5</ele><time>2026-05-02T12:09:38.32Z</time></trkpt><trkpt lat="43.4799805" lon="12.2729178"><ele>447.75</ele><time>2026-05-02T12:09:39.32Z</time></trkpt><trkpt lat="43.4801568" lon="12.2729759"><ele>444.0</ele><time>2026-05-02T12:09:40.32Z</time></trkpt><trkpt lat="43.4803362" lon="12.2730603"><ele>448.66666666666663</ele><time>2026-05-02T12:09:41.321Z</time></trkpt><trkpt lat="43.4805112" lon="12.2731952"><ele>453.3333333333333</ele><time>2026-05-02T12:09:42.32Z</time></trkpt><trkpt lat="43.4806717" lon="12.273273"><ele>458.0</ele><time>2026-05-02T12:09:43.315Z</time></trkpt><trkpt lat="43.4808014" lon="12.2731984"><ele>458.0</ele><time>2026-05-02T12:09:44.321Z</time></trkpt><trkpt lat="43.4809078" lon="12.2731176"><ele>458.0</ele><time>2026-05-02T12:09:45.322Z</time></trkpt><trkpt lat="43.4809665" lon="12.2729557"><ele>458.0</ele><time>2026-05-02T12:09:46.32Z</time></trkpt><trkpt lat="43.4809707" lon="12.2727585"><ele>458.0</ele><time>2026-05-02T12:09:47.315Z</time></trkpt><trkpt lat="43.480936" lon="12.2725015"><ele>452.5</ele><time>2026-05-02T12:09:48.317Z</time></trkpt><trkpt lat="43.480871" lon="12.2722016"><ele>447.0</ele><time>2026-05-02T12:09:49.321Z</time></trkpt><trkpt lat="43.4807757" lon="12.2718743"><ele>447.0</ele><time>2026-05-02T12:09:50.32Z</time></trkpt><trkpt lat="43.4806615" lon="12.2715326"><ele>447.0</ele><time>2026-05-02T12:09:51.321Z</time></trkpt><trkpt lat="43.4805401" lon="12.2711967"><ele>438.0</ele><time>2026-05-02T12:09:52.319Z</time></trkpt><trkpt lat="43.4804176" lon="12.2708874"><ele>429.0</ele><time>2026-05-02T12:09:53.32Z</time></trkpt><trkpt lat="43.4802805" lon="12.2706093"><ele>434.0</ele><time>2026-05-02T12:09:54.322Z</time></trkpt><trkpt lat="43.48014" lon="12.2703245"><ele>439.0</ele><time>2026-05-02T12:09:55.319Z</time></trkpt><trkpt lat="43.479877" lon="12.2700857"><ele>439.0</ele><time>2026-05-02T12:09:56.32Z</time></trkpt><trkpt lat="43.4796606" lon="12.2697999"><ele>439.0</ele><time>2026-05-02T12:09:57.426Z</time></trkpt><trkpt lat="43.4792386" lon="12.2692742"><ele>434.5</ele><time>2026-05-02T12:09:59.319Z</time></trkpt><trkpt lat="43.4789857" lon="12.2691014"><ele>430.0</ele><time>2026-05-02T12:10:00.32Z</time></trkpt><trkpt lat="43.478768" lon="12.2689109"><ele>428.0</ele><time>2026-05-02T12:10:01.312Z</time></trkpt><trkpt lat="43.4785646" lon="12.268709"><ele>426.0</ele><time>2026-05-02T12:10:02.319Z</time></trkpt><trkpt lat="43.4783696" lon="12.2684636"><ele>426.0</ele><time>2026-05-02T12:10:03.321Z</time></trkpt><trkpt lat="43.4781759" lon="12.2682097"><ele>426.0</ele><time>2026-05-02T12:10:04.318Z</time></trkpt><trkpt lat="43.4779979" lon="12.2679646"><ele>420.5</ele><time>2026-05-02T12:10:05.319Z</time></trkpt><trkpt lat="43.477825" lon="12.2677249"><ele>415.0</ele><time>2026-05-02T12:10:06.322Z</time></trkpt><trkpt lat="43.4776584" lon="12.2675119"><ele>415.0</ele><time>2026-05-02T12:10:07.318Z</time></trkpt><trkpt lat="43.4775081" lon="12.2673038"><ele>415.0</ele><time>2026-05-02T12:10:08.322Z</time></trkpt><trkpt lat="43.4773706" lon="12.2670904"><ele>415.0</ele><time>2026-05-02T12:10:09.312Z</time></trkpt><trkpt lat="43.4772541" lon="12.2668453"><ele>418.0</ele><time>2026-05-02T12:10:10.321Z</time></trkpt><trkpt lat="43.4771663" lon="12.2665904"><ele>421.0</ele><time>2026-05-02T12:10:11.32Z</time></trkpt><trkpt lat="43.4770963" lon="12.2663011"><ele>424.0</ele><time>2026-05-02T12:10:12.318Z</time></trkpt><trkpt lat="43.4770407" lon="12.2660229"><ele>416.33333333333337</ele><time>2026-05-02T12:10:13.32Z</time></trkpt><trkpt lat="43.4769956" lon="12.2657724"><ele>408.66666666666663</ele><time>2026-05-02T12:10:14.319Z</time></trkpt><trkpt lat="43.4769633" lon="12.2655355"><ele>401.0</ele><time>2026-05-02T12:10:15.316Z</time></trkpt><trkpt lat="43.4769497" lon="12.2653075"><ele>401.0</ele><time>2026-05-02T12:10:16.321Z</time></trkpt><trkpt lat="43.4769704" lon="12.265106"><ele>401.0</ele><time>2026-05-02T12:10:17.319Z</time></trkpt><trkpt lat="43.4770335" lon="12.264938"><ele>401.0</ele><time>2026-05-02T12:10:18.321Z</time></trkpt><trkpt lat="43.4771194" lon="12.264822"><ele>401.0</ele><time>2026-05-02T12:10:19.32Z</time></trkpt><trkpt lat="43.4772433" lon="12.2647701"><ele>397.66666666666663</ele><time>2026-05-02T12:10:20.32Z</time></trkpt><trkpt lat="43.4773702" lon="12.2647176"><ele>394.33333333333337</ele><time>2026-05-02T12:10:21.316Z</time></trkpt><trkpt lat="43.4776289" lon="12.2648091"><ele>391.0</ele><time>2026-05-02T12:10:22.321Z</time></trkpt><trkpt lat="43.4778443" lon="12.2648582"><ele>399.0</ele><time>2026-05-02T12:10:23.317Z</time></trkpt><trkpt lat="43.4780815" lon="12.2649485"><ele>407.0</ele><time>2026-05-02T12:10:24.32Z</time></trkpt><trkpt lat="43.4782923" lon="12.2650348"><ele>407.0</ele><time>2026-05-02T12:10:25.314Z</time></trkpt><trkpt lat="43.4784895" lon="12.2651033"><ele>407.0</ele><time>2026-05-02T12:10:26.319Z</time></trkpt><trkpt lat="43.4786621" lon="12.2651767"><ele>407.0</ele><time>2026-05-02T12:10:27.319Z</time></trkpt><trkpt lat="43.4787935" lon="12.2652136"><ele>404.0</ele><time>2026-05-02T12:10:28.319Z</time></trkpt><trkpt lat="43.4789084" lon="12.2652196"><ele>401.0</ele><time>2026-05-02T12:10:29.319Z</time></trkpt><trkpt lat="43.4789911" lon="12.2651546"><ele>398.0</ele><time>2026-05-02T12:10:30.322Z</time></trkpt><trkpt lat="43.4790589" lon="12.265079"><ele>395.0</ele><time>2026-05-02T12:10:31.316Z</time></trkpt><trkpt lat="43.4790824" lon="12.2649512"><ele>392.0</ele><time>2026-05-02T12:10:32.311Z</time></trkpt><trkpt lat="43.4790858" lon="12.2648523"><ele>390.5</ele><time>2026-05-02T12:10:33.322Z</time></trkpt><trkpt lat="43.4787668" lon="12.2647092"><ele>389.0</ele><time>2026-05-02T12:10:34.32Z</time></trkpt><trkpt lat="43.4785736" lon="12.2645928"><ele>389.0</ele><time>2026-05-02T12:10:35.32Z</time></trkpt><trkpt lat="43.4783483" lon="12.2644632"><ele>389.0</ele><time>2026-05-02T12:10:36.32Z</time></trkpt><trkpt lat="43.4781058" lon="12.2643684"><ele>390.0</ele><time>2026-05-02T12:10:37.32Z</time></trkpt><trkpt lat="43.4778422" lon="12.2642972"><ele>391.0</ele><time>2026-05-02T12:10:38.32Z</time></trkpt><trkpt lat="43.4775831" lon="12.2642333"><ele>391.0</ele><time>2026-05-02T12:10:39.318Z</time></trkpt><trkpt lat="43.4773459" lon="12.26417"><ele>391.0</ele><time>2026-05-02T12:10:40.321Z</time></trkpt><trkpt lat="43.4771119" lon="12.2641111"><ele>390.33333333333337</ele><time>2026-05-02T12:10:41.322Z</time></trkpt><trkpt lat="43.4768915" lon="12.2640795"><ele>389.66666666666663</ele><time>2026-05-02T12:10:42.321Z</time></trkpt><trkpt lat="43.4766805" lon="12.2640773"><ele>389.0</ele><time>2026-05-02T12:10:43.319Z</time></trkpt><trkpt lat="43.4764826" lon="12.2640943"><ele>389.0</ele><time>2026-05-02T12:10:44.32Z</time></trkpt><trkpt lat="43.4763036" lon="12.2641217"><ele>389.0</ele><time>2026-05-02T12:10:45.319Z</time></trkpt><trkpt lat="43.4761511" lon="12.2641918"><ele>389.0</ele><time>2026-05-02T12:10:46.319Z</time></trkpt><trkpt lat="43.4760295" lon="12.2643133"><ele>384.0</ele><time>2026-05-02T12:10:47.317Z</time></trkpt><trkpt lat="43.4759489" lon="12.2644806"><ele>379.0</ele><time>2026-05-02T12:10:48.321Z</time></trkpt><trkpt lat="43.4759146" lon="12.2646843"><ele>374.0</ele><time>2026-05-02T12:10:49.32Z</time></trkpt><trkpt lat="43.4759289" lon="12.2649086"><ele>374.0</ele><time>2026-05-02T12:10:50.32Z</time></trkpt><trkpt lat="43.4759888" lon="12.2651673"><ele>374.0</ele><time>2026-05-02T12:10:51.319Z</time></trkpt><trkpt lat="43.4760494" lon="12.2654632"><ele>374.0</ele><time>2026-05-02T12:10:52.318Z</time></trkpt><trkpt lat="43.4760773" lon="12.2657438"><ele>373.33333333333337</ele><time>2026-05-02T12:10:53.319Z</time></trkpt><trkpt lat="43.4760784" lon="12.2660369"><ele>372.6666666666667</ele><time>2026-05-02T12:10:54.319Z</time></trkpt><trkpt lat="43.4760438" lon="12.2663231"><ele>372.0</ele><time>2026-05-02T12:10:55.317Z</time></trkpt><trkpt lat="43.4759778" lon="12.2665989"><ele>374.0</ele><time>2026-05-02T12:10:56.319Z</time></trkpt><trkpt lat="43.4759015" lon="12.2668629"><ele>376.0</ele><time>2026-05-02T12:10:57.318Z</time></trkpt><trkpt lat="43.4758184" lon="12.2671074"><ele>378.0</ele><time>2026-05-02T12:10:58.32Z</time></trkpt><trkpt lat="43.4757273" lon="12.2673267"><ele>380.33333333333337</ele><time>2026-05-02T12:10:59.32Z</time></trkpt><trkpt lat="43.475647" lon="12.2675339"><ele>382.6666666666667</ele><time>2026-05-02T12:11:00.319Z</time></trkpt><trkpt lat="43.4755893" lon="12.267743"><ele>385.0</ele><time>2026-05-02T12:11:01.318Z</time></trkpt><trkpt lat="43.4755805" lon="12.2679667"><ele>384.0</ele><time>2026-05-02T12:11:02.32Z</time></trkpt><trkpt lat="43.4756084" lon="12.268197"><ele>383.0</ele><time>2026-05-02T12:11:03.317Z</time></trkpt><trkpt lat="43.475663" lon="12.268432"><ele>382.0</ele><time>2026-05-02T12:11:04.317Z</time></trkpt><trkpt lat="43.4757409" lon="12.2686547"><ele>382.0</ele><time>2026-05-02T12:11:05.322Z</time></trkpt><trkpt lat="43.4758484" lon="12.2688316"><ele>382.0</ele><time>2026-05-02T12:11:06.32Z</time></trkpt><trkpt lat="43.4759891" lon="12.2689694"><ele>382.0</ele><time>2026-05-02T12:11:07.32Z</time></trkpt><trkpt lat="43.4761547" lon="12.2690532"><ele>381.0</ele><time>2026-05-02T12:11:08.322Z</time></trkpt><trkpt lat="43.4763164" lon="12.2690784"><ele>380.0</ele><time>2026-05-02T12:11:09.321Z</time></trkpt><trkpt lat="43.476464" lon="12.2691019"><ele>379.0</ele><time>2026-05-02T12:11:10.319Z</time></trkpt><trkpt lat="43.476588" lon="12.2691515"><ele>378.0</ele><time>2026-05-02T12:11:11.319Z</time></trkpt><trkpt lat="43.4766776" lon="12.2692365"><ele>378.0</ele><time>2026-05-02T12:11:12.321Z</time></trkpt><trkpt lat="43.4767074" lon="12.2693561"><ele>378.0</ele><time>2026-05-02T12:11:13.322Z</time></trkpt><trkpt lat="43.4766652" lon="12.2694778"><ele>378.0</ele><time>2026-05-02T12:11:14.321Z</time></trkpt><trkpt lat="43.47657" lon="12.269544"><ele>378.0</ele><time>2026-05-02T12:11:15.32Z</time></trkpt><trkpt lat="43.476435" lon="12.2695432"><ele>378.0</ele><time>2026-05-02T12:11:16.32Z</time></trkpt><trkpt lat="43.4762655" lon="12.2695105"><ele>376.6666666666667</ele><time>2026-05-02T12:11:17.321Z</time></trkpt><trkpt lat="43.4760935" lon="12.2694852"><ele>375.33333333333337</ele><time>2026-05-02T12:11:18.322Z</time></trkpt><trkpt lat="43.4759266" lon="12.2694448"><ele>374.0</ele><time>2026-05-02T12:11:19.321Z</time></trkpt><trkpt lat="43.4757899" lon="12.2693213"><ele>374.0</ele><time>2026-05-02T12:11:20.322Z</time></trkpt><trkpt lat="43.4756546" lon="12.2691737"><ele>374.0</ele><time>2026-05-02T12:11:21.32Z</time></trkpt><trkpt lat="43.4755454" lon="12.2689744"><ele>374.0</ele><time>2026-05-02T12:11:22.322Z</time></trkpt><trkpt lat="43.4754436" lon="12.268765"><ele>368.33333333333337</ele><time>2026-05-02T12:11:23.32Z</time></trkpt><trkpt lat="43.4753513" lon="12.2685512"><ele>362.6666666666667</ele><time>2026-05-02T12:11:24.323Z</time></trkpt><trkpt lat="43.4752691" lon="12.268336"><ele>357.0</ele><time>2026-05-02T12:11:25.322Z</time></trkpt><trkpt lat="43.4751925" lon="12.2681196"><ele>356.6666666666667</ele><time>2026-05-02T12:11:26.321Z</time></trkpt><trkpt lat="43.4751289" lon="12.267882"><ele>356.33333333333337</ele><time>2026-05-02T12:11:27.325Z</time></trkpt><trkpt lat="43.4750787" lon="12.2676274"><ele>356.0</ele><time>2026-05-02T12:11:28.32Z</time></trkpt><trkpt lat="43.4750537" lon="12.2673649"><ele>356.0</ele><time>2026-05-02T12:11:29.322Z</time></trkpt><trkpt lat="43.4750792" lon="12.2670901"><ele>356.0</ele><time>2026-05-02T12:11:30.322Z</time></trkpt><trkpt lat="43.4751132" lon="12.2668131"><ele>356.0</ele><time>2026-05-02T12:11:31.32Z</time></trkpt><trkpt lat="43.4751204" lon="12.266546"><ele>355.0</ele><time>2026-05-02T12:11:32.314Z</time></trkpt><trkpt lat="43.475093" lon="12.2662779"><ele>354.0</ele><time>2026-05-02T12:11:33.323Z</time></trkpt><trkpt lat="43.4750253" lon="12.2660248"><ele>353.0</ele><time>2026-05-02T12:11:34.322Z</time></trkpt><trkpt lat="43.4749275" lon="12.2657917"><ele>353.6666666666667</ele><time>2026-05-02T12:11:35.324Z</time></trkpt><trkpt lat="43.4748194" lon="12.2655582"><ele>354.3333333333333</ele><time>2026-05-02T12:11:36.321Z</time></trkpt><trkpt lat="43.4747356" lon="12.265328"><ele>355.0</ele><time>2026-05-02T12:11:37.321Z</time></trkpt><trkpt lat="43.4746745" lon="12.2650975"><ele>355.0</ele><time>2026-05-02T12:11:38.321Z</time></trkpt><trkpt lat="43.4746321" lon="12.2648785"><ele>355.0</ele><time>2026-05-02T12:11:39.321Z</time></trkpt><trkpt lat="43.474604" lon="12.2646582"><ele>355.0</ele><time>2026-05-02T12:11:40.322Z</time></trkpt><trkpt lat="43.474592" lon="12.2644457"><ele>354.5</ele><time>2026-05-02T12:11:41.323Z</time></trkpt><trkpt lat="43.4745911" lon="12.2642531"><ele>354.0</ele><time>2026-05-02T12:11:42.316Z</time></trkpt><trkpt lat="43.4746103" lon="12.264069"><ele>353.5</ele><time>2026-05-02T12:11:43.321Z</time></trkpt><trkpt lat="43.4746508" lon="12.2639011"><ele>353.0</ele><time>2026-05-02T12:11:44.322Z</time></trkpt><trkpt lat="43.4747055" lon="12.2637507"><ele>351.4</ele><time>2026-05-02T12:11:45.321Z</time></trkpt><trkpt lat="43.4747566" lon="12.2636138"><ele>349.79999999999995</ele><time>2026-05-02T12:11:46.321Z</time></trkpt><trkpt lat="43.4747988" lon="12.2634777"><ele>348.2</ele><time>2026-05-02T12:11:47.32Z</time></trkpt><trkpt lat="43.474822" lon="12.263342"><ele>346.6</ele><time>2026-05-02T12:11:48.32Z</time></trkpt><trkpt lat="43.4748153" lon="12.263191"><ele>345.0</ele><time>2026-05-02T12:11:49.318Z</time></trkpt><trkpt lat="43.4747722" lon="12.2630458"><ele>341.3333333333333</ele><time>2026-05-02T12:11:50.322Z</time></trkpt><trkpt lat="43.4746793" lon="12.2629009"><ele>337.66666666666663</ele><time>2026-05-02T12:11:51.32Z</time></trkpt><trkpt lat="43.4745561" lon="12.2627478"><ele>334.0</ele><time>2026-05-02T12:11:52.314Z</time></trkpt><trkpt lat="43.474415" lon="12.2625424"><ele>333.5</ele><time>2026-05-02T12:11:53.32Z</time></trkpt><trkpt lat="43.4742651" lon="12.2623155"><ele>333.0</ele><time>2026-05-02T12:11:54.318Z</time></trkpt><trkpt lat="43.474102" lon="12.2620858"><ele>331.6666666666667</ele><time>2026-05-02T12:11:55.322Z</time></trkpt><trkpt lat="43.4739459" lon="12.2618746"><ele>330.33333333333337</ele><time>2026-05-02T12:11:56.321Z</time></trkpt><trkpt lat="43.473797" lon="12.2616669"><ele>329.0</ele><time>2026-05-02T12:11:57.322Z</time></trkpt><trkpt lat="43.4736536" lon="12.261471"><ele>327.0</ele><time>2026-05-02T12:11:58.322Z</time></trkpt><trkpt lat="43.4735162" lon="12.2612844"><ele>325.0</ele><time>2026-05-02T12:11:59.321Z</time></trkpt><trkpt lat="43.4733837" lon="12.2611045"><ele>323.0</ele><time>2026-05-02T12:12:00.321Z</time></trkpt><trkpt lat="43.4732491" lon="12.2609222"><ele>323.0</ele><time>2026-05-02T12:12:01.318Z</time></trkpt><trkpt lat="43.4731191" lon="12.2607396"><ele>323.0</ele><time>2026-05-02T12:12:02.316Z</time></trkpt><trkpt lat="43.4729846" lon="12.2605497"><ele>323.0</ele><time>2026-05-02T12:12:03.321Z</time></trkpt><trkpt lat="43.4728452" lon="12.2603601"><ele>322.0</ele><time>2026-05-02T12:12:04.32Z</time></trkpt><trkpt lat="43.4727109" lon="12.2601798"><ele>321.0</ele><time>2026-05-02T12:12:05.32Z</time></trkpt><trkpt lat="43.4725819" lon="12.2600069"><ele>320.0</ele><time>2026-05-02T12:12:06.321Z</time></trkpt><trkpt lat="43.4724621" lon="12.25984"><ele>320.33333333333337</ele><time>2026-05-02T12:12:07.322Z</time></trkpt><trkpt lat="43.4723505" lon="12.2596812"><ele>320.6666666666667</ele><time>2026-05-02T12:12:08.322Z</time></trkpt><trkpt lat="43.4722411" lon="12.2595316"><ele>321.0</ele><time>2026-05-02T12:12:09.321Z</time></trkpt><trkpt lat="43.4721328" lon="12.2593817"><ele>319.0</ele><time>2026-05-02T12:12:10.32Z</time></trkpt><trkpt lat="43.4720309" lon="12.2592167"><ele>317.0</ele><time>2026-05-02T12:12:11.322Z</time></trkpt><trkpt lat="43.4719352" lon="12.2590351"><ele>315.0</ele><time>2026-05-02T12:12:12.318Z</time></trkpt><trkpt lat="43.4718438" lon="12.25884"><ele>314.0</ele><time>2026-05-02T12:12:13.322Z</time></trkpt><trkpt lat="43.4717572" lon="12.2586297"><ele>313.0</ele><time>2026-05-02T12:12:14.323Z</time></trkpt><trkpt lat="43.4716885" lon="12.2584107"><ele>312.0</ele><time>2026-05-02T12:12:15.321Z</time></trkpt><trkpt lat="43.4716305" lon="12.2581842"><ele>311.0</ele><time>2026-05-02T12:12:16.321Z</time></trkpt><trkpt lat="43.4715817" lon="12.2579562"><ele>310.0</ele><time>2026-05-02T12:12:17.322Z</time></trkpt><trkpt lat="43.4715395" lon="12.2577291"><ele>309.0</ele><time>2026-05-02T12:12:18.321Z</time></trkpt><trkpt lat="43.4715042" lon="12.2575199"><ele>309.0</ele><time>2026-05-02T12:12:19.321Z</time></trkpt><trkpt lat="43.4714641" lon="12.2573197"><ele>309.0</ele><time>2026-05-02T12:12:20.32Z</time></trkpt><trkpt lat="43.4714328" lon="12.2571343"><ele>309.0</ele><time>2026-05-02T12:12:21.321Z</time></trkpt><trkpt lat="43.4714038" lon="12.2569503"><ele>309.0</ele><time>2026-05-02T12:12:22.323Z</time></trkpt><trkpt lat="43.4713691" lon="12.2567653"><ele>308.75</ele><time>2026-05-02T12:12:23.321Z</time></trkpt><trkpt lat="43.4713348" lon="12.2565852"><ele>308.5</ele><time>2026-05-02T12:12:24.317Z</time></trkpt><trkpt lat="43.471301" lon="12.2564066"><ele>308.25</ele><time>2026-05-02T12:12:25.322Z</time></trkpt><trkpt lat="43.4712684" lon="12.2562339"><ele>308.0</ele><time>2026-05-02T12:12:26.322Z</time></trkpt><trkpt lat="43.4712388" lon="12.2560719"><ele>307.8</ele><time>2026-05-02T12:12:27.321Z</time></trkpt><trkpt lat="43.4712235" lon="12.2559206"><ele>307.6</ele><time>2026-05-02T12:12:28.319Z</time></trkpt><trkpt lat="43.4712009" lon="12.2557559"><ele>307.4</ele><time>2026-05-02T12:12:29.322Z</time></trkpt><trkpt lat="43.4712433" lon="12.2556429"><ele>307.2</ele><time>2026-05-02T12:12:30.322Z</time></trkpt><trkpt lat="43.4712421" lon="12.2555183"><ele>307.0</ele><time>2026-05-02T12:12:31.321Z</time></trkpt><trkpt lat="43.4712147" lon="12.2554116"><ele>306.66666666666663</ele><time>2026-05-02T12:12:32.319Z</time></trkpt><trkpt lat="43.4711647" lon="12.2553385"><ele>306.3333333333333</ele><time>2026-05-02T12:12:33.322Z</time></trkpt><trkpt lat="43.4710946" lon="12.2553019"><ele>306.0</ele><time>2026-05-02T12:12:34.322Z</time></trkpt><trkpt lat="43.4710201" lon="12.255319"><ele>305.6666666666667</ele><time>2026-05-02T12:12:35.324Z</time></trkpt><trkpt lat="43.470959" lon="12.25537"><ele>305.33333333333337</ele><time>2026-05-02T12:12:36.322Z</time></trkpt><trkpt lat="43.4709169" lon="12.2554552"><ele>305.0</ele><time>2026-05-02T12:12:37.322Z</time></trkpt><trkpt lat="43.4708831" lon="12.2555642"><ele>305.4</ele><time>2026-05-02T12:12:38.323Z</time></trkpt><trkpt lat="43.4708277" lon="12.2556615"><ele>305.8</ele><time>2026-05-02T12:12:39.321Z</time></trkpt><trkpt lat="43.470752" lon="12.2557459"><ele>306.2</ele><time>2026-05-02T12:12:40.318Z</time></trkpt><trkpt lat="43.4706678" lon="12.25582"><ele>306.6</ele><time>2026-05-02T12:12:41.324Z</time></trkpt><trkpt lat="43.4705613" lon="12.2558991"><ele>307.0</ele><time>2026-05-02T12:12:42.323Z</time></trkpt><trkpt lat="43.4704468" lon="12.2559843"><ele>306.5</ele><time>2026-05-02T12:12:43.323Z</time></trkpt><trkpt lat="43.4703376" lon="12.2560602"><ele>306.0</ele><time>2026-05-02T12:12:44.323Z</time></trkpt><trkpt lat="43.4702355" lon="12.2561402"><ele>305.5</ele><time>2026-05-02T12:12:45.322Z</time></trkpt><trkpt lat="43.4701412" lon="12.2562206"><ele>305.0</ele><time>2026-05-02T12:12:46.322Z</time></trkpt><trkpt lat="43.4700488" lon="12.2562837"><ele>305.0</ele><time>2026-05-02T12:12:47.321Z</time></trkpt><trkpt lat="43.4699549" lon="12.2562984"><ele>305.0</ele><time>2026-05-02T12:12:48.322Z</time></trkpt><trkpt lat="43.4698526" lon="12.2562616"><ele>305.0</ele><time>2026-05-02T12:12:49.318Z</time></trkpt><trkpt lat="43.4697459" lon="12.256181"><ele>305.0</ele><time>2026-05-02T12:12:50.322Z</time></trkpt><trkpt lat="43.4696346" lon="12.256057"><ele>304.6666666666667</ele><time>2026-05-02T12:12:51.315Z</time></trkpt><trkpt lat="43.4695194" lon="12.255904"><ele>304.3333333333333</ele><time>2026-05-02T12:12:52.323Z</time></trkpt><trkpt lat="43.4694008" lon="12.2557478"><ele>304.0</ele><time>2026-05-02T12:12:53.322Z</time></trkpt><trkpt lat="43.4692786" lon="12.2555876"><ele>303.3333333333333</ele><time>2026-05-02T12:12:54.322Z</time></trkpt><trkpt lat="43.4691511" lon="12.25542"><ele>302.6666666666667</ele><time>2026-05-02T12:12:55.328Z</time></trkpt><trkpt lat="43.4690171" lon="12.255242"><ele>302.0</ele><time>2026-05-02T12:12:56.321Z</time></trkpt><trkpt lat="43.4688823" lon="12.2550603"><ele>302.0</ele><time>2026-05-02T12:12:57.317Z</time></trkpt><trkpt lat="43.4687518" lon="12.2548829"><ele>302.0</ele><time>2026-05-02T12:12:58.323Z</time></trkpt><trkpt lat="43.468628" lon="12.2547133"><ele>302.0</ele><time>2026-05-02T12:12:59.323Z</time></trkpt><trkpt lat="43.4685137" lon="12.2545514"><ele>301.6666666666667</ele><time>2026-05-02T12:13:00.321Z</time></trkpt><trkpt lat="43.4684002" lon="12.25439"><ele>301.3333333333333</ele><time>2026-05-02T12:13:01.317Z</time></trkpt><trkpt lat="43.468286" lon="12.2542255"><ele>301.0</ele><time>2026-05-02T12:13:02.319Z</time></trkpt><trkpt lat="43.4681682" lon="12.2540562"><ele>301.3333333333333</ele><time>2026-05-02T12:13:03.322Z</time></trkpt><trkpt lat="43.4680546" lon="12.2538901"><ele>301.6666666666667</ele><time>2026-05-02T12:13:04.324Z</time></trkpt><trkpt lat="43.4679379" lon="12.2537252"><ele>302.0</ele><time>2026-05-02T12:13:05.314Z</time></trkpt><trkpt lat="43.4678235" lon="12.2535587"><ele>302.0</ele><time>2026-05-02T12:13:06.322Z</time></trkpt><trkpt lat="43.467714" lon="12.2533995"><ele>302.0</ele><time>2026-05-02T12:13:07.318Z</time></trkpt><trkpt lat="43.4676008" lon="12.2532393"><ele>302.0</ele><time>2026-05-02T12:13:08.32Z</time></trkpt><trkpt lat="43.4674887" lon="12.2530803"><ele>302.0</ele><time>2026-05-02T12:13:09.322Z</time></trkpt><trkpt lat="43.4673758" lon="12.2529265"><ele>302.0</ele><time>2026-05-02T12:13:10.321Z</time></trkpt><trkpt lat="43.4672637" lon="12.252777"><ele>302.0</ele><time>2026-05-02T12:13:11.322Z</time></trkpt><trkpt lat="43.4671513" lon="12.2526215"><ele>301.0</ele><time>2026-05-02T12:13:12.322Z</time></trkpt><trkpt lat="43.4670382" lon="12.252472"><ele>300.0</ele><time>2026-05-02T12:13:13.321Z</time></trkpt><trkpt lat="43.4669303" lon="12.2523242"><ele>299.0</ele><time>2026-05-02T12:13:14.325Z</time></trkpt><trkpt lat="43.466827" lon="12.2521896"><ele>299.0</ele><time>2026-05-02T12:13:15.319Z</time></trkpt><trkpt lat="43.4667256" lon="12.2520489"><ele>299.0</ele><time>2026-05-02T12:13:16.322Z</time></trkpt><trkpt lat="43.4666282" lon="12.2519155"><ele>299.0</ele><time>2026-05-02T12:13:17.322Z</time></trkpt><trkpt lat="43.4665311" lon="12.2517805"><ele>299.0</ele><time>2026-05-02T12:13:18.322Z</time></trkpt><trkpt lat="43.4664383" lon="12.2516571"><ele>299.0</ele><time>2026-05-02T12:13:19.321Z</time></trkpt><trkpt lat="43.4663502" lon="12.2515397"><ele>299.0</ele><time>2026-05-02T12:13:20.322Z</time></trkpt><trkpt lat="43.4662673" lon="12.2514287"><ele>299.0</ele><time>2026-05-02T12:13:21.322Z</time></trkpt><trkpt lat="43.4661885" lon="12.2513218"><ele>299.0</ele><time>2026-05-02T12:13:22.323Z</time></trkpt><trkpt lat="43.4661246" lon="12.2512124"><ele>298.4</ele><time>2026-05-02T12:13:23.316Z</time></trkpt><trkpt lat="43.4660845" lon="12.2510868"><ele>297.79999999999995</ele><time>2026-05-02T12:13:24.323Z</time></trkpt><trkpt lat="43.4660526" lon="12.2509572"><ele>297.20000000000005</ele><time>2026-05-02T12:13:25.321Z</time></trkpt><trkpt lat="43.4659988" lon="12.250842"><ele>296.6</ele><time>2026-05-02T12:13:26.323Z</time></trkpt><trkpt lat="43.4659185" lon="12.2507569"><ele>296.0</ele><time>2026-05-02T12:13:27.322Z</time></trkpt><trkpt lat="43.4658183" lon="12.2506908"><ele>296.0</ele><time>2026-05-02T12:13:28.322Z</time></trkpt><trkpt lat="43.4657191" lon="12.2506083"><ele>296.0</ele><time>2026-05-02T12:13:29.322Z</time></trkpt><trkpt lat="43.4656334" lon="12.250504"><ele>296.0</ele><time>2026-05-02T12:13:30.322Z</time></trkpt><trkpt lat="43.4655449" lon="12.2503933"><ele>296.0</ele><time>2026-05-02T12:13:31.319Z</time></trkpt><trkpt lat="43.4654563" lon="12.250278"><ele>295.25</ele><time>2026-05-02T12:13:32.321Z</time></trkpt><trkpt lat="43.4653694" lon="12.2501605"><ele>294.5</ele><time>2026-05-02T12:13:33.321Z</time></trkpt><trkpt lat="43.4652838" lon="12.2500468"><ele>293.75</ele><time>2026-05-02T12:13:34.321Z</time></trkpt><trkpt lat="43.4651986" lon="12.2499304"><ele>293.0</ele><time>2026-05-02T12:13:35.321Z</time></trkpt><trkpt lat="43.465114" lon="12.2498125"><ele>293.25</ele><time>2026-05-02T12:13:36.321Z</time></trkpt><trkpt lat="43.4650271" lon="12.2496929"><ele>293.5</ele><time>2026-05-02T12:13:37.317Z</time></trkpt><trkpt lat="43.4649418" lon="12.2495751"><ele>293.75</ele><time>2026-05-02T12:13:38.321Z</time></trkpt><trkpt lat="43.4648501" lon="12.2494499"><ele>294.0</ele><time>2026-05-02T12:13:39.319Z</time></trkpt><trkpt lat="43.4647624" lon="12.2493259"><ele>294.0</ele><time>2026-05-02T12:13:40.322Z</time></trkpt><trkpt lat="43.4646746" lon="12.2492001"><ele>294.0</ele><time>2026-05-02T12:13:41.322Z</time></trkpt><trkpt lat="43.4645855" lon="12.2490753"><ele>294.0</ele><time>2026-05-02T12:13:42.322Z</time></trkpt><trkpt lat="43.4644997" lon="12.2489523"><ele>294.0</ele><time>2026-05-02T12:13:43.321Z</time></trkpt><trkpt lat="43.4644131" lon="12.2488297"><ele>294.25</ele><time>2026-05-02T12:13:44.323Z</time></trkpt><trkpt lat="43.4643269" lon="12.248705"><ele>294.5</ele><time>2026-05-02T12:13:45.324Z</time></trkpt><trkpt lat="43.4642401" lon="12.2485734"><ele>294.75</ele><time>2026-05-02T12:13:46.325Z</time></trkpt><trkpt lat="43.4641518" lon="12.248452"><ele>295.0</ele><time>2026-05-02T12:13:47.319Z</time></trkpt><trkpt lat="43.4640695" lon="12.248333"><ele>295.0</ele><time>2026-05-02T12:13:48.322Z</time></trkpt><trkpt lat="43.4639784" lon="12.2482099"><ele>295.0</ele><time>2026-05-02T12:13:49.322Z</time></trkpt><trkpt lat="43.4638821" lon="12.2480764"><ele>295.0</ele><time>2026-05-02T12:13:50.321Z</time></trkpt><trkpt lat="43.4637947" lon="12.2479517"><ele>295.0</ele><time>2026-05-02T12:13:51.423Z</time></trkpt><trkpt lat="43.4636191" lon="12.2477019"><ele>294.0</ele><time>2026-05-02T12:13:53.322Z</time></trkpt><trkpt lat="43.4635353" lon="12.2475854"><ele>293.0</ele><time>2026-05-02T12:13:54.322Z</time></trkpt><trkpt lat="43.4634466" lon="12.2474746"><ele>292.0</ele><time>2026-05-02T12:13:55.319Z</time></trkpt><trkpt lat="43.4633607" lon="12.2473636"><ele>291.0</ele><time>2026-05-02T12:13:56.323Z</time></trkpt><trkpt lat="43.4632772" lon="12.247249"><ele>291.0</ele><time>2026-05-02T12:13:57.32Z</time></trkpt><trkpt lat="43.4631148" lon="12.2470305"><ele>291.0</ele><time>2026-05-02T12:13:59.331Z</time></trkpt><trkpt lat="43.4630315" lon="12.2469138"><ele>291.0</ele><time>2026-05-02T12:14:00.322Z</time></trkpt><trkpt lat="43.4629413" lon="12.2467948"><ele>291.25</ele><time>2026-05-02T12:14:01.322Z</time></trkpt><trkpt lat="43.4628502" lon="12.2466667"><ele>291.5</ele><time>2026-05-02T12:14:02.321Z</time></trkpt><trkpt lat="43.4627576" lon="12.2465401"><ele>291.75</ele><time>2026-05-02T12:14:03.322Z</time></trkpt><trkpt lat="43.4626631" lon="12.2464078"><ele>292.0</ele><time>2026-05-02T12:14:04.323Z</time></trkpt><trkpt lat="43.4625686" lon="12.2462799"><ele>292.0</ele><time>2026-05-02T12:14:05.322Z</time></trkpt><trkpt lat="43.4624722" lon="12.2461509"><ele>292.0</ele><time>2026-05-02T12:14:06.321Z</time></trkpt><trkpt lat="43.4623725" lon="12.2460166"><ele>292.0</ele><time>2026-05-02T12:14:07.321Z</time></trkpt><trkpt lat="43.462268" lon="12.2458789"><ele>292.0</ele><time>2026-05-02T12:14:08.323Z</time></trkpt><trkpt lat="43.462163" lon="12.2457311"><ele>291.3333333333333</ele><time>2026-05-02T12:14:09.32Z</time></trkpt><trkpt lat="43.4620515" lon="12.2455836"><ele>290.6666666666667</ele><time>2026-05-02T12:14:10.322Z</time></trkpt><trkpt lat="43.4619372" lon="12.2454335"><ele>290.0</ele><time>2026-05-02T12:14:11.32Z</time></trkpt><trkpt lat="43.4618291" lon="12.2452836"><ele>290.0</ele><time>2026-05-02T12:14:12.323Z</time></trkpt><trkpt lat="43.4617226" lon="12.2451391"><ele>290.0</ele><time>2026-05-02T12:14:13.322Z</time></trkpt><trkpt lat="43.4616176" lon="12.2449955"><ele>290.0</ele><time>2026-05-02T12:14:14.326Z</time></trkpt><trkpt lat="43.4615122" lon="12.244857"><ele>290.0</ele><time>2026-05-02T12:14:15.323Z</time></trkpt><trkpt lat="43.4613999" lon="12.2447154"><ele>289.75</ele><time>2026-05-02T12:14:16.322Z</time></trkpt><trkpt lat="43.4612962" lon="12.2445742"><ele>289.5</ele><time>2026-05-02T12:14:17.321Z</time></trkpt><trkpt lat="43.4611965" lon="12.2444304"><ele>289.25</ele><time>2026-05-02T12:14:18.322Z</time></trkpt><trkpt lat="43.4611067" lon="12.2442907"><ele>289.0</ele><time>2026-05-02T12:14:19.318Z</time></trkpt><trkpt lat="43.46101" lon="12.2441567"><ele>289.0</ele><time>2026-05-02T12:14:20.315Z</time></trkpt><trkpt lat="43.4609139" lon="12.2440262"><ele>289.0</ele><time>2026-05-02T12:14:21.315Z</time></trkpt><trkpt lat="43.4608182" lon="12.2438944"><ele>289.0</ele><time>2026-05-02T12:14:22.323Z</time></trkpt><trkpt lat="43.4607245" lon="12.2437643"><ele>289.0</ele><time>2026-05-02T12:14:23.321Z</time></trkpt><trkpt lat="43.4606283" lon="12.2436343"><ele>289.0</ele><time>2026-05-02T12:14:24.321Z</time></trkpt><trkpt lat="43.4605362" lon="12.2435048"><ele>289.0</ele><time>2026-05-02T12:14:25.322Z</time></trkpt><trkpt lat="43.4604412" lon="12.2433778"><ele>289.0</ele><time>2026-05-02T12:14:26.321Z</time></trkpt><trkpt lat="43.4603493" lon="12.2432537"><ele>289.0</ele><time>2026-05-02T12:14:27.319Z</time></trkpt><trkpt lat="43.4602613" lon="12.2431291"><ele>289.0</ele><time>2026-05-02T12:14:28.321Z</time></trkpt><trkpt lat="43.4601797" lon="12.2430041"><ele>289.0</ele><time>2026-05-02T12:14:29.323Z</time></trkpt><trkpt lat="43.4601055" lon="12.2428957"><ele>289.0</ele><time>2026-05-02T12:14:30.323Z</time></trkpt><trkpt lat="43.4600368" lon="12.2427897"><ele>289.0</ele><time>2026-05-02T12:14:31.323Z</time></trkpt><trkpt lat="43.4599858" lon="12.2426984"><ele>289.0</ele><time>2026-05-02T12:14:32.322Z</time></trkpt><trkpt lat="43.4599416" lon="12.2426097"><ele>289.0</ele><time>2026-05-02T12:14:33.322Z</time></trkpt><trkpt lat="43.4599216" lon="12.2425173"><ele>289.0</ele><time>2026-05-02T12:14:34.322Z</time></trkpt><trkpt lat="43.4599315" lon="12.2424118"><ele>289.0</ele><time>2026-05-02T12:14:35.319Z</time></trkpt><trkpt lat="43.4599678" lon="12.2423006"><ele>289.0</ele><time>2026-05-02T12:14:36.323Z</time></trkpt><trkpt lat="43.4600135" lon="12.2421853"><ele>289.0</ele><time>2026-05-02T12:14:37.321Z</time></trkpt><trkpt lat="43.4600664" lon="12.2420644"><ele>289.0</ele><time>2026-05-02T12:14:38.321Z</time></trkpt><trkpt lat="43.4601225" lon="12.2419379"><ele>289.25</ele><time>2026-05-02T12:14:39.322Z</time></trkpt><trkpt lat="43.4601773" lon="12.2418105"><ele>289.5</ele><time>2026-05-02T12:14:40.322Z</time></trkpt><trkpt lat="43.4602425" lon="12.2416857"><ele>289.75</ele><time>2026-05-02T12:14:41.321Z</time></trkpt><trkpt lat="43.460306" lon="12.2415453"><ele>290.0</ele><time>2026-05-02T12:14:42.323Z</time></trkpt><trkpt lat="43.4603751" lon="12.2414015"><ele>288.75</ele><time>2026-05-02T12:14:43.321Z</time></trkpt><trkpt lat="43.4604507" lon="12.2412606"><ele>287.5</ele><time>2026-05-02T12:14:44.323Z</time></trkpt><trkpt lat="43.4605287" lon="12.2411192"><ele>286.25</ele><time>2026-05-02T12:14:45.321Z</time></trkpt><trkpt lat="43.4606172" lon="12.2409891"><ele>285.0</ele><time>2026-05-02T12:14:46.322Z</time></trkpt><trkpt lat="43.4607033" lon="12.2408608"><ele>285.0</ele><time>2026-05-02T12:14:47.319Z</time></trkpt><trkpt lat="43.4607928" lon="12.2407381"><ele>285.0</ele><time>2026-05-02T12:14:48.322Z</time></trkpt><trkpt lat="43.4608849" lon="12.2406138"><ele>285.0</ele><time>2026-05-02T12:14:49.322Z</time></trkpt><trkpt lat="43.4609781" lon="12.2404924"><ele>285.0</ele><time>2026-05-02T12:14:50.321Z</time></trkpt><trkpt lat="43.4610794" lon="12.2403852"><ele>285.25</ele><time>2026-05-02T12:14:51.322Z</time></trkpt><trkpt lat="43.4611867" lon="12.2402849"><ele>285.5</ele><time>2026-05-02T12:14:52.323Z</time></trkpt><trkpt lat="43.4612975" lon="12.2402039"><ele>285.75</ele><time>2026-05-02T12:14:53.322Z</time></trkpt><trkpt lat="43.4614135" lon="12.2401426"><ele>286.0</ele><time>2026-05-02T12:14:54.323Z</time></trkpt><trkpt lat="43.4615328" lon="12.2401041"><ele>286.0</ele><time>2026-05-02T12:14:55.322Z</time></trkpt><trkpt lat="43.4616572" lon="12.2400771"><ele>286.0</ele><time>2026-05-02T12:14:56.323Z</time></trkpt><trkpt lat="43.461784" lon="12.2400568"><ele>286.0</ele><time>2026-05-02T12:14:57.323Z</time></trkpt><trkpt lat="43.4619214" lon="12.2400694"><ele>286.0</ele><time>2026-05-02T12:14:58.317Z</time></trkpt><trkpt lat="43.4620516" lon="12.2400756"><ele>285.8</ele><time>2026-05-02T12:14:59.322Z</time></trkpt><trkpt lat="43.4621824" lon="12.2400893"><ele>285.6</ele><time>2026-05-02T12:15:00.324Z</time></trkpt><trkpt lat="43.4623029" lon="12.2400962"><ele>285.4</ele><time>2026-05-02T12:15:01.324Z</time></trkpt><trkpt lat="43.4624098" lon="12.2400998"><ele>285.2</ele><time>2026-05-02T12:15:02.322Z</time></trkpt><trkpt lat="43.4624972" lon="12.2400796"><ele>285.0</ele><time>2026-05-02T12:15:03.323Z</time></trkpt><trkpt lat="43.4625632" lon="12.2400519"><ele>285.0</ele><time>2026-05-02T12:15:04.323Z</time></trkpt><trkpt lat="43.4626339" lon="12.2400149"><ele>285.0</ele><time>2026-05-02T12:15:06.321Z</time></trkpt><trkpt lat="43.4627099" lon="12.239928"><ele>285.0</ele><time>2026-05-02T12:15:42.328Z</time></trkpt><trkpt lat="43.4627691" lon="12.2398535"><ele>285.0</ele><time>2026-05-02T12:15:43.319Z</time></trkpt><trkpt lat="43.4628331" lon="12.239765"><ele>285.0</ele><time>2026-05-02T12:15:44.321Z</time></trkpt><trkpt lat="43.4629024" lon="12.2396537"><ele>285.25</ele><time>2026-05-02T12:15:45.319Z</time></trkpt><trkpt lat="43.4629819" lon="12.2395307"><ele>285.5</ele><time>2026-05-02T12:15:46.323Z</time></trkpt><trkpt lat="43.463064" lon="12.2393966"><ele>285.75</ele><time>2026-05-02T12:15:47.319Z</time></trkpt><trkpt lat="43.4631552" lon="12.239259"><ele>286.0</ele><time>2026-05-02T12:15:48.323Z</time></trkpt><trkpt lat="43.4632508" lon="12.2391164"><ele>285.3333333333333</ele><time>2026-05-02T12:15:49.416Z</time></trkpt><trkpt lat="43.4633542" lon="12.2389599"><ele>284.6666666666667</ele><time>2026-05-02T12:15:50.321Z</time></trkpt><trkpt lat="43.4634617" lon="12.2388068"><ele>284.0</ele><time>2026-05-02T12:15:51.321Z</time></trkpt><trkpt lat="43.4635712" lon="12.2386546"><ele>284.0</ele><time>2026-05-02T12:15:52.323Z</time></trkpt><trkpt lat="43.4636781" lon="12.2385011"><ele>284.0</ele><time>2026-05-02T12:15:53.321Z</time></trkpt><trkpt lat="43.4637841" lon="12.238351"><ele>284.0</ele><time>2026-05-02T12:15:54.321Z</time></trkpt><trkpt lat="43.4638871" lon="12.2382016"><ele>283.75</ele><time>2026-05-02T12:15:55.321Z</time></trkpt><trkpt lat="43.4639888" lon="12.2380575"><ele>283.5</ele><time>2026-05-02T12:15:56.321Z</time></trkpt><trkpt lat="43.4640834" lon="12.2379124"><ele>283.25</ele><time>2026-05-02T12:15:57.321Z</time></trkpt><trkpt lat="43.4641769" lon="12.2377739"><ele>283.0</ele><time>2026-05-02T12:15:58.322Z</time></trkpt><trkpt lat="43.4642702" lon="12.2376347"><ele>283.0</ele><time>2026-05-02T12:15:59.322Z</time></trkpt><trkpt lat="43.4643607" lon="12.2374995"><ele>283.0</ele><time>2026-05-02T12:16:00.323Z</time></trkpt><trkpt lat="43.4644439" lon="12.2373725"><ele>283.0</ele><time>2026-05-02T12:16:01.319Z</time></trkpt><trkpt lat="43.4645263" lon="12.2372544"><ele>283.0</ele><time>2026-05-02T12:16:02.322Z</time></trkpt><trkpt lat="43.4645981" lon="12.2371405"><ele>283.0</ele><time>2026-05-02T12:16:03.321Z</time></trkpt><trkpt lat="43.464675" lon="12.2370381"><ele>283.0</ele><time>2026-05-02T12:16:04.323Z</time></trkpt><trkpt lat="43.4647441" lon="12.2369364"><ele>283.0</ele><time>2026-05-02T12:16:05.321Z</time></trkpt><trkpt lat="43.4648117" lon="12.236825"><ele>283.0</ele><time>2026-05-02T12:16:06.321Z</time></trkpt><trkpt lat="43.4648789" lon="12.2367236"><ele>283.0</ele><time>2026-05-02T12:16:07.313Z</time></trkpt><trkpt lat="43.4649472" lon="12.2366233"><ele>283.0</ele><time>2026-05-02T12:16:08.322Z</time></trkpt><trkpt lat="43.4650177" lon="12.2365188"><ele>283.0</ele><time>2026-05-02T12:16:09.32Z</time></trkpt><trkpt lat="43.465089" lon="12.2364049"><ele>283.0</ele><time>2026-05-02T12:16:10.322Z</time></trkpt><trkpt lat="43.4651648" lon="12.2362859"><ele>283.0</ele><time>2026-05-02T12:16:11.322Z</time></trkpt><trkpt lat="43.4652477" lon="12.2361632"><ele>283.0</ele><time>2026-05-02T12:16:12.323Z</time></trkpt><trkpt lat="43.4653385" lon="12.2360313"><ele>283.0</ele><time>2026-05-02T12:16:13.323Z</time></trkpt><trkpt lat="43.4654322" lon="12.2358887"><ele>283.0</ele><time>2026-05-02T12:16:14.321Z</time></trkpt><trkpt lat="43.4655273" lon="12.2357495"><ele>283.0</ele><time>2026-05-02T12:16:15.32Z</time></trkpt><trkpt lat="43.4656244" lon="12.2356099"><ele>283.0</ele><time>2026-05-02T12:16:16.322Z</time></trkpt><trkpt lat="43.4657198" lon="12.2354713"><ele>282.75</ele><time>2026-05-02T12:16:17.319Z</time></trkpt><trkpt lat="43.4658159" lon="12.2353311"><ele>282.5</ele><time>2026-05-02T12:16:18.321Z</time></trkpt><trkpt lat="43.4659134" lon="12.2352017"><ele>282.25</ele><time>2026-05-02T12:16:19.323Z</time></trkpt><trkpt lat="43.4660079" lon="12.235077"><ele>282.0</ele><time>2026-05-02T12:16:20.321Z</time></trkpt><trkpt lat="43.4661037" lon="12.2349601"><ele>282.0</ele><time>2026-05-02T12:16:21.322Z</time></trkpt><trkpt lat="43.4662011" lon="12.2348471"><ele>282.0</ele><time>2026-05-02T12:16:22.323Z</time></trkpt><trkpt lat="43.466301" lon="12.2347513"><ele>282.0</ele><time>2026-05-02T12:16:23.322Z</time></trkpt><trkpt lat="43.4664026" lon="12.2346662"><ele>282.0</ele><time>2026-05-02T12:16:24.321Z</time></trkpt><trkpt lat="43.4665021" lon="12.2345863"><ele>282.25</ele><time>2026-05-02T12:16:25.321Z</time></trkpt><trkpt lat="43.4666048" lon="12.2345125"><ele>282.5</ele><time>2026-05-02T12:16:26.322Z</time></trkpt><trkpt lat="43.4667076" lon="12.2344414"><ele>282.75</ele><time>2026-05-02T12:16:27.318Z</time></trkpt><trkpt lat="43.4668082" lon="12.2343675"><ele>283.0</ele><time>2026-05-02T12:16:28.321Z</time></trkpt><trkpt lat="43.4669062" lon="12.2342986"><ele>283.0</ele><time>2026-05-02T12:16:29.324Z</time></trkpt><trkpt lat="43.467002" lon="12.2342306"><ele>283.0</ele><time>2026-05-02T12:16:30.322Z</time></trkpt><trkpt lat="43.4671" lon="12.2341601"><ele>283.0</ele><time>2026-05-02T12:16:31.323Z</time></trkpt><trkpt lat="43.4671956" lon="12.234092"><ele>283.0</ele><time>2026-05-02T12:16:32.316Z</time></trkpt><trkpt lat="43.4672927" lon="12.2340224"><ele>283.0</ele><time>2026-05-02T12:16:33.32Z</time></trkpt><trkpt lat="43.4673892" lon="12.2339526"><ele>283.25</ele><time>2026-05-02T12:16:34.315Z</time></trkpt><trkpt lat="43.4674879" lon="12.2338831"><ele>283.5</ele><time>2026-05-02T12:16:35.323Z</time></trkpt><trkpt lat="43.4675911" lon="12.2338098"><ele>283.75</ele><time>2026-05-02T12:16:36.322Z</time></trkpt><trkpt lat="43.4676943" lon="12.2337342"><ele>284.0</ele><time>2026-05-02T12:16:37.323Z</time></trkpt><trkpt lat="43.4678027" lon="12.2336612"><ele>284.0</ele><time>2026-05-02T12:16:38.32Z</time></trkpt><trkpt lat="43.4679101" lon="12.2335882"><ele>284.0</ele><time>2026-05-02T12:16:39.323Z</time></trkpt><trkpt lat="43.4680135" lon="12.2335155"><ele>284.0</ele><time>2026-05-02T12:16:40.321Z</time></trkpt><trkpt lat="43.4681121" lon="12.2334449"><ele>284.0</ele><time>2026-05-02T12:16:41.322Z</time></trkpt><trkpt lat="43.4682126" lon="12.2333685"><ele>284.25</ele><time>2026-05-02T12:16:42.323Z</time></trkpt><trkpt lat="43.4683201" lon="12.2332904"><ele>284.5</ele><time>2026-05-02T12:16:43.323Z</time></trkpt><trkpt lat="43.4684341" lon="12.2332116"><ele>284.75</ele><time>2026-05-02T12:16:44.322Z</time></trkpt><trkpt lat="43.4685487" lon="12.2331348"><ele>285.0</ele><time>2026-05-02T12:16:45.32Z</time></trkpt><trkpt lat="43.4686635" lon="12.2330555"><ele>285.25</ele><time>2026-05-02T12:16:46.32Z</time></trkpt><trkpt lat="43.468779" lon="12.2329783"><ele>285.5</ele><time>2026-05-02T12:16:47.32Z</time></trkpt><trkpt lat="43.468893" lon="12.2328989"><ele>285.75</ele><time>2026-05-02T12:16:48.32Z</time></trkpt><trkpt lat="43.4690029" lon="12.2328161"><ele>286.0</ele><time>2026-05-02T12:16:49.32Z</time></trkpt><trkpt lat="43.4691142" lon="12.2327401"><ele>286.0</ele><time>2026-05-02T12:16:50.322Z</time></trkpt><trkpt lat="43.4692245" lon="12.2326639"><ele>286.0</ele><time>2026-05-02T12:16:51.32Z</time></trkpt><trkpt lat="43.4693357" lon="12.2325851"><ele>286.0</ele><time>2026-05-02T12:16:52.317Z</time></trkpt><trkpt lat="43.4694489" lon="12.2325104"><ele>286.0</ele><time>2026-05-02T12:16:53.322Z</time></trkpt><trkpt lat="43.4695631" lon="12.2324405"><ele>286.0</ele><time>2026-05-02T12:16:54.32Z</time></trkpt><trkpt lat="43.4696755" lon="12.2323618"><ele>286.0</ele><time>2026-05-02T12:16:55.321Z</time></trkpt><trkpt lat="43.4697842" lon="12.2322809"><ele>286.0</ele><time>2026-05-02T12:16:56.32Z</time></trkpt><trkpt lat="43.4698936" lon="12.2322017"><ele>286.0</ele><time>2026-05-02T12:16:57.32Z</time></trkpt><trkpt lat="43.4700004" lon="12.2321229"><ele>285.8</ele><time>2026-05-02T12:16:58.321Z</time></trkpt><trkpt lat="43.4701008" lon="12.2320477"><ele>285.6</ele><time>2026-05-02T12:16:59.32Z</time></trkpt><trkpt lat="43.4702018" lon="12.2319741"><ele>285.4</ele><time>2026-05-02T12:17:00.321Z</time></trkpt><trkpt lat="43.4702975" lon="12.2319076"><ele>285.2</ele><time>2026-05-02T12:17:01.319Z</time></trkpt><trkpt lat="43.4703941" lon="12.2318457"><ele>285.0</ele><time>2026-05-02T12:17:02.318Z</time></trkpt><trkpt lat="43.4704877" lon="12.2317795"><ele>285.0</ele><time>2026-05-02T12:17:03.321Z</time></trkpt><trkpt lat="43.4705717" lon="12.2317228"><ele>285.0</ele><time>2026-05-02T12:17:04.314Z</time></trkpt><trkpt lat="43.4706524" lon="12.2316599"><ele>285.0</ele><time>2026-05-02T12:17:05.32Z</time></trkpt><trkpt lat="43.4707302" lon="12.2316037"><ele>285.0</ele><time>2026-05-02T12:17:06.314Z</time></trkpt><trkpt lat="43.4707961" lon="12.2315543"><ele>285.0</ele><time>2026-05-02T12:17:07.322Z</time></trkpt><trkpt lat="43.4709" lon="12.2314996"><ele>285.0</ele><time>2026-05-02T12:17:09.323Z</time></trkpt><trkpt lat="43.4710106" lon="12.2314777"><ele>285.0</ele><time>2026-05-02T12:17:11.321Z</time></trkpt><trkpt lat="43.4711231" lon="12.2313741"><ele>285.0</ele><time>2026-05-02T12:17:13.322Z</time></trkpt><trkpt lat="43.4711975" lon="12.2312791"><ele>285.0</ele><time>2026-05-02T12:17:14.318Z</time></trkpt><trkpt lat="43.4712877" lon="12.2311988"><ele>284.75</ele><time>2026-05-02T12:17:15.321Z</time></trkpt><trkpt lat="43.4714056" lon="12.2311248"><ele>284.5</ele><time>2026-05-02T12:17:16.316Z</time></trkpt><trkpt lat="43.471522" lon="12.2310397"><ele>284.25</ele><time>2026-05-02T12:17:17.321Z</time></trkpt><trkpt lat="43.4716516" lon="12.2309425"><ele>284.0</ele><time>2026-05-02T12:17:18.32Z</time></trkpt><trkpt lat="43.4717868" lon="12.2308392"><ele>284.0</ele><time>2026-05-02T12:17:19.321Z</time></trkpt><trkpt lat="43.47193" lon="12.2307306"><ele>284.0</ele><time>2026-05-02T12:17:20.321Z</time></trkpt><trkpt lat="43.4720735" lon="12.2306268"><ele>284.0</ele><time>2026-05-02T12:17:21.455Z</time></trkpt><trkpt lat="43.4722157" lon="12.2305211"><ele>284.0</ele><time>2026-05-02T12:17:22.316Z</time></trkpt><trkpt lat="43.4723637" lon="12.2304199"><ele>284.0</ele><time>2026-05-02T12:17:23.32Z</time></trkpt><trkpt lat="43.4725184" lon="12.2303111"><ele>284.0</ele><time>2026-05-02T12:17:24.32Z</time></trkpt><trkpt lat="43.4726773" lon="12.2301985"><ele>284.0</ele><time>2026-05-02T12:17:25.321Z</time></trkpt><trkpt lat="43.4728411" lon="12.2300848"><ele>284.0</ele><time>2026-05-02T12:17:26.319Z</time></trkpt><trkpt lat="43.4730047" lon="12.2299667"><ele>284.0</ele><time>2026-05-02T12:17:27.322Z</time></trkpt><trkpt lat="43.4731744" lon="12.2298537"><ele>284.6666666666667</ele><time>2026-05-02T12:17:28.321Z</time></trkpt><trkpt lat="43.4733429" lon="12.2297333"><ele>285.3333333333333</ele><time>2026-05-02T12:17:29.32Z</time></trkpt><trkpt lat="43.4735032" lon="12.2296193"><ele>286.0</ele><time>2026-05-02T12:17:30.316Z</time></trkpt><trkpt lat="43.4736594" lon="12.2295098"><ele>286.3333333333333</ele><time>2026-05-02T12:17:31.32Z</time></trkpt><trkpt lat="43.4738083" lon="12.2294055"><ele>286.6666666666667</ele><time>2026-05-02T12:17:32.321Z</time></trkpt><trkpt lat="43.4739517" lon="12.2293054"><ele>287.0</ele><time>2026-05-02T12:17:33.321Z</time></trkpt><trkpt lat="43.4740928" lon="12.2292064"><ele>287.0</ele><time>2026-05-02T12:17:34.32Z</time></trkpt><trkpt lat="43.47424" lon="12.2291084"><ele>287.0</ele><time>2026-05-02T12:17:35.322Z</time></trkpt><trkpt lat="43.474389" lon="12.2290024"><ele>287.0</ele><time>2026-05-02T12:17:36.315Z</time></trkpt><trkpt lat="43.4745409" lon="12.2288961"><ele>287.33333333333337</ele><time>2026-05-02T12:17:37.322Z</time></trkpt><trkpt lat="43.474693" lon="12.2287872"><ele>287.6666666666667</ele><time>2026-05-02T12:17:38.317Z</time></trkpt><trkpt lat="43.474848" lon="12.2286808"><ele>288.0</ele><time>2026-05-02T12:17:39.312Z</time></trkpt><trkpt lat="43.4749941" lon="12.2285788"><ele>288.0</ele><time>2026-05-02T12:17:40.321Z</time></trkpt><trkpt lat="43.4751318" lon="12.2284793"><ele>288.0</ele><time>2026-05-02T12:17:41.319Z</time></trkpt><trkpt lat="43.4752625" lon="12.2283915"><ele>288.0</ele><time>2026-05-02T12:17:42.32Z</time></trkpt><trkpt lat="43.4753863" lon="12.2283008"><ele>288.0</ele><time>2026-05-02T12:17:43.321Z</time></trkpt><trkpt lat="43.4755061" lon="12.2282186"><ele>287.5</ele><time>2026-05-02T12:17:44.32Z</time></trkpt><trkpt lat="43.4756175" lon="12.2281434"><ele>287.0</ele><time>2026-05-02T12:17:45.32Z</time></trkpt><trkpt lat="43.4757209" lon="12.2280654"><ele>286.5</ele><time>2026-05-02T12:17:46.319Z</time></trkpt><trkpt lat="43.475824" lon="12.2279924"><ele>286.0</ele><time>2026-05-02T12:17:47.319Z</time></trkpt><trkpt lat="43.4759239" lon="12.2279181"><ele>286.0</ele><time>2026-05-02T12:17:48.313Z</time></trkpt><trkpt lat="43.4760224" lon="12.2278482"><ele>286.0</ele><time>2026-05-02T12:17:49.322Z</time></trkpt><trkpt lat="43.4761199" lon="12.2277815"><ele>286.0</ele><time>2026-05-02T12:17:50.32Z</time></trkpt><trkpt lat="43.4762112" lon="12.2277273"><ele>286.0</ele><time>2026-05-02T12:17:51.321Z</time></trkpt><trkpt lat="43.4762903" lon="12.2276765"><ele>286.0</ele><time>2026-05-02T12:17:52.32Z</time></trkpt><trkpt lat="43.4763601" lon="12.2276418"><ele>286.0</ele><time>2026-05-02T12:17:53.322Z</time></trkpt><trkpt lat="43.4764771" lon="12.2275985"><ele>286.0</ele><time>2026-05-02T12:17:55.321Z</time></trkpt><trkpt lat="43.4765531" lon="12.2275297"><ele>286.0</ele><time>2026-05-02T12:17:56.321Z</time></trkpt><trkpt lat="43.476652" lon="12.2274537"><ele>286.0</ele><time>2026-05-02T12:17:57.32Z</time></trkpt><trkpt lat="43.4767623" lon="12.2273708"><ele>286.3333333333333</ele><time>2026-05-02T12:17:58.319Z</time></trkpt><trkpt lat="43.4768855" lon="12.2272784"><ele>286.6666666666667</ele><time>2026-05-02T12:17:59.321Z</time></trkpt><trkpt lat="43.4770237" lon="12.22718"><ele>287.0</ele><time>2026-05-02T12:18:00.32Z</time></trkpt><trkpt lat="43.4771666" lon="12.2270847"><ele>287.5</ele><time>2026-05-02T12:18:01.322Z</time></trkpt><trkpt lat="43.4773004" lon="12.2269937"><ele>288.0</ele><time>2026-05-02T12:18:02.317Z</time></trkpt><trkpt lat="43.4774304" lon="12.2269022"><ele>288.5</ele><time>2026-05-02T12:18:03.322Z</time></trkpt><trkpt lat="43.4775546" lon="12.2268146"><ele>289.0</ele><time>2026-05-02T12:18:04.32Z</time></trkpt><trkpt lat="43.4776765" lon="12.2267295"><ele>289.0</ele><time>2026-05-02T12:18:05.319Z</time></trkpt><trkpt lat="43.4777984" lon="12.2266525"><ele>289.0</ele><time>2026-05-02T12:18:06.319Z</time></trkpt><trkpt lat="43.4779167" lon="12.2265693"><ele>289.0</ele><time>2026-05-02T12:18:07.322Z</time></trkpt><trkpt lat="43.4780338" lon="12.2264932"><ele>289.0</ele><time>2026-05-02T12:18:08.316Z</time></trkpt><trkpt lat="43.4781583" lon="12.2264066"><ele>288.75</ele><time>2026-05-02T12:18:09.319Z</time></trkpt><trkpt lat="43.4782834" lon="12.2263172"><ele>288.5</ele><time>2026-05-02T12:18:10.316Z</time></trkpt><trkpt lat="43.4784125" lon="12.2262283"><ele>288.25</ele><time>2026-05-02T12:18:11.321Z</time></trkpt><trkpt lat="43.4785456" lon="12.2261346"><ele>288.0</ele><time>2026-05-02T12:18:12.312Z</time></trkpt><trkpt lat="43.4786794" lon="12.2260395"><ele>288.25</ele><time>2026-05-02T12:18:13.319Z</time></trkpt><trkpt lat="43.4788212" lon="12.2259462"><ele>288.5</ele><time>2026-05-02T12:18:14.323Z</time></trkpt><trkpt lat="43.4789556" lon="12.2258428"><ele>288.75</ele><time>2026-05-02T12:18:15.321Z</time></trkpt><trkpt lat="43.4790768" lon="12.2257544"><ele>289.0</ele><time>2026-05-02T12:18:16.325Z</time></trkpt><trkpt lat="43.4791955" lon="12.2256705"><ele>288.75</ele><time>2026-05-02T12:18:17.321Z</time></trkpt><trkpt lat="43.4793092" lon="12.2255874"><ele>288.5</ele><time>2026-05-02T12:18:18.319Z</time></trkpt><trkpt lat="43.4794285" lon="12.2255072"><ele>288.25</ele><time>2026-05-02T12:18:19.321Z</time></trkpt><trkpt lat="43.4795447" lon="12.2254254"><ele>288.0</ele><time>2026-05-02T12:18:20.32Z</time></trkpt><trkpt lat="43.4796564" lon="12.2253453"><ele>287.75</ele><time>2026-05-02T12:18:21.32Z</time></trkpt><trkpt lat="43.4797712" lon="12.2252642"><ele>287.5</ele><time>2026-05-02T12:18:22.319Z</time></trkpt><trkpt lat="43.4798894" lon="12.2251869"><ele>287.25</ele><time>2026-05-02T12:18:23.321Z</time></trkpt><trkpt lat="43.4800152" lon="12.2251117"><ele>287.0</ele><time>2026-05-02T12:18:24.32Z</time></trkpt><trkpt lat="43.4801396" lon="12.2250878"><ele>287.0</ele><time>2026-05-02T12:18:25.321Z</time></trkpt><trkpt lat="43.4802584" lon="12.2250777"><ele>287.0</ele><time>2026-05-02T12:18:26.316Z</time></trkpt><trkpt lat="43.4803659" lon="12.2250473"><ele>287.0</ele><time>2026-05-02T12:18:27.322Z</time></trkpt><trkpt lat="43.4804614" lon="12.2249831"><ele>287.0</ele><time>2026-05-02T12:18:28.321Z</time></trkpt><trkpt lat="43.480532" lon="12.2248696"><ele>287.0</ele><time>2026-05-02T12:18:29.323Z</time></trkpt><trkpt lat="43.480602" lon="12.2247344"><ele>287.5</ele><time>2026-05-02T12:18:30.321Z</time></trkpt><trkpt lat="43.4807024" lon="12.2246235"><ele>288.0</ele><time>2026-05-02T12:18:31.32Z</time></trkpt><trkpt lat="43.480818" lon="12.2245301"><ele>288.5</ele><time>2026-05-02T12:18:32.32Z</time></trkpt><trkpt lat="43.4809477" lon="12.2244263"><ele>289.0</ele><time>2026-05-02T12:18:33.32Z</time></trkpt><trkpt lat="43.4810811" lon="12.2243275"><ele>289.0</ele><time>2026-05-02T12:18:34.319Z</time></trkpt><trkpt lat="43.4812213" lon="12.2242319"><ele>289.0</ele><time>2026-05-02T12:18:35.32Z</time></trkpt><trkpt lat="43.4813679" lon="12.224128"><ele>289.0</ele><time>2026-05-02T12:18:36.32Z</time></trkpt><trkpt lat="43.481519" lon="12.2240155"><ele>289.0</ele><time>2026-05-02T12:18:37.319Z</time></trkpt><trkpt lat="43.481681" lon="12.2239039"><ele>289.0</ele><time>2026-05-02T12:18:38.321Z</time></trkpt><trkpt lat="43.4818454" lon="12.2237831"><ele>289.0</ele><time>2026-05-02T12:18:39.32Z</time></trkpt><trkpt lat="43.4820149" lon="12.2236623"><ele>289.3333333333333</ele><time>2026-05-02T12:18:40.319Z</time></trkpt><trkpt lat="43.4821922" lon="12.2235391"><ele>289.6666666666667</ele><time>2026-05-02T12:18:41.321Z</time></trkpt><trkpt lat="43.4823612" lon="12.2234182"><ele>290.0</ele><time>2026-05-02T12:18:42.319Z</time></trkpt><trkpt lat="43.482536" lon="12.2232924"><ele>290.0</ele><time>2026-05-02T12:18:43.321Z</time></trkpt><trkpt lat="43.4827163" lon="12.2231615"><ele>290.0</ele><time>2026-05-02T12:18:44.321Z</time></trkpt><trkpt lat="43.4829057" lon="12.2230248"><ele>290.0</ele><time>2026-05-02T12:18:45.32Z</time></trkpt><trkpt lat="43.4831024" lon="12.2228896"><ele>291.0</ele><time>2026-05-02T12:18:46.321Z</time></trkpt><trkpt lat="43.4833047" lon="12.2227466"><ele>292.0</ele><time>2026-05-02T12:18:47.317Z</time></trkpt><trkpt lat="43.483512" lon="12.2225987"><ele>292.0</ele><time>2026-05-02T12:18:48.32Z</time></trkpt><trkpt lat="43.4837231" lon="12.2224513"><ele>292.0</ele><time>2026-05-02T12:18:49.321Z</time></trkpt><trkpt lat="43.4839399" lon="12.2222978"><ele>292.0</ele><time>2026-05-02T12:18:50.319Z</time></trkpt><trkpt lat="43.48416" lon="12.2221428"><ele>292.0</ele><time>2026-05-02T12:18:51.313Z</time></trkpt><trkpt lat="43.4843732" lon="12.2219902"><ele>292.0</ele><time>2026-05-02T12:18:52.32Z</time></trkpt><trkpt lat="43.484577" lon="12.2218411"><ele>292.0</ele><time>2026-05-02T12:18:53.32Z</time></trkpt><trkpt lat="43.4847731" lon="12.2216952"><ele>292.3333333333333</ele><time>2026-05-02T12:18:54.321Z</time></trkpt><trkpt lat="43.4849641" lon="12.2215609"><ele>292.6666666666667</ele><time>2026-05-02T12:18:55.32Z</time></trkpt><trkpt lat="43.4851464" lon="12.2214328"><ele>293.0</ele><time>2026-05-02T12:18:56.32Z</time></trkpt><trkpt lat="43.4853233" lon="12.2213119"><ele>292.33333333333337</ele><time>2026-05-02T12:18:57.317Z</time></trkpt><trkpt lat="43.4854934" lon="12.2211956"><ele>291.6666666666667</ele><time>2026-05-02T12:18:58.319Z</time></trkpt><trkpt lat="43.4856566" lon="12.2210808"><ele>291.0</ele><time>2026-05-02T12:18:59.321Z</time></trkpt><trkpt lat="43.4858187" lon="12.2209726"><ele>291.0</ele><time>2026-05-02T12:19:00.321Z</time></trkpt><trkpt lat="43.4859751" lon="12.220864"><ele>291.0</ele><time>2026-05-02T12:19:01.321Z</time></trkpt><trkpt lat="43.486127" lon="12.2207571"><ele>291.0</ele><time>2026-05-02T12:19:02.321Z</time></trkpt><trkpt lat="43.4862748" lon="12.2206577"><ele>292.3333333333333</ele><time>2026-05-02T12:19:03.322Z</time></trkpt><trkpt lat="43.4864203" lon="12.2205526"><ele>293.66666666666663</ele><time>2026-05-02T12:19:04.322Z</time></trkpt><trkpt lat="43.4865695" lon="12.2204357"><ele>295.0</ele><time>2026-05-02T12:19:05.321Z</time></trkpt><trkpt lat="43.486722" lon="12.2203234"><ele>295.0</ele><time>2026-05-02T12:19:06.321Z</time></trkpt><trkpt lat="43.4868746" lon="12.2202092"><ele>295.0</ele><time>2026-05-02T12:19:07.321Z</time></trkpt><trkpt lat="43.4870327" lon="12.2200956"><ele>295.0</ele><time>2026-05-02T12:19:08.321Z</time></trkpt><trkpt lat="43.4871884" lon="12.2199847"><ele>295.3333333333333</ele><time>2026-05-02T12:19:09.319Z</time></trkpt><trkpt lat="43.4873406" lon="12.2198775"><ele>295.6666666666667</ele><time>2026-05-02T12:19:10.321Z</time></trkpt><trkpt lat="43.487489" lon="12.2197711"><ele>296.0</ele><time>2026-05-02T12:19:11.321Z</time></trkpt><trkpt lat="43.4876397" lon="12.2196626"><ele>294.5</ele><time>2026-05-02T12:19:12.321Z</time></trkpt><trkpt lat="43.4877887" lon="12.2195569"><ele>293.0</ele><time>2026-05-02T12:19:13.432Z</time></trkpt><trkpt lat="43.4880843" lon="12.2193416"><ele>292.33333333333337</ele><time>2026-05-02T12:19:15.322Z</time></trkpt><trkpt lat="43.4882325" lon="12.2192369"><ele>291.6666666666667</ele><time>2026-05-02T12:19:16.321Z</time></trkpt><trkpt lat="43.4883871" lon="12.2191326"><ele>291.0</ele><time>2026-05-02T12:19:17.316Z</time></trkpt><trkpt lat="43.4885469" lon="12.2190192"><ele>291.0</ele><time>2026-05-02T12:19:18.32Z</time></trkpt><trkpt lat="43.4887082" lon="12.2189"><ele>291.0</ele><time>2026-05-02T12:19:19.32Z</time></trkpt><trkpt lat="43.4888756" lon="12.2187825"><ele>291.0</ele><time>2026-05-02T12:19:20.321Z</time></trkpt><trkpt lat="43.4890365" lon="12.2186655"><ele>291.6666666666667</ele><time>2026-05-02T12:19:21.32Z</time></trkpt><trkpt lat="43.4891857" lon="12.2185602"><ele>292.33333333333337</ele><time>2026-05-02T12:19:22.321Z</time></trkpt><trkpt lat="43.4893351" lon="12.2184587"><ele>293.0</ele><time>2026-05-02T12:19:23.321Z</time></trkpt><trkpt lat="43.4894882" lon="12.2183545"><ele>293.33333333333337</ele><time>2026-05-02T12:19:24.322Z</time></trkpt><trkpt lat="43.4896446" lon="12.2182449"><ele>293.6666666666667</ele><time>2026-05-02T12:19:25.32Z</time></trkpt><trkpt lat="43.4898021" lon="12.2181333"><ele>294.0</ele><time>2026-05-02T12:19:26.321Z</time></trkpt><trkpt lat="43.489962" lon="12.2180156"><ele>294.0</ele><time>2026-05-02T12:19:27.32Z</time></trkpt><trkpt lat="43.4901263" lon="12.2179003"><ele>294.0</ele><time>2026-05-02T12:19:28.319Z</time></trkpt><trkpt lat="43.4902923" lon="12.217779"><ele>294.0</ele><time>2026-05-02T12:19:29.316Z</time></trkpt><trkpt lat="43.4904652" lon="12.2176562"><ele>293.0</ele><time>2026-05-02T12:19:30.321Z</time></trkpt><trkpt lat="43.49064" lon="12.2175277"><ele>292.0</ele><time>2026-05-02T12:19:31.317Z</time></trkpt><trkpt lat="43.4908173" lon="12.2173975"><ele>291.0</ele><time>2026-05-02T12:19:32.319Z</time></trkpt><trkpt lat="43.4909967" lon="12.2172708"><ele>291.0</ele><time>2026-05-02T12:19:33.319Z</time></trkpt><trkpt lat="43.4911734" lon="12.2171389"><ele>291.0</ele><time>2026-05-02T12:19:34.323Z</time></trkpt><trkpt lat="43.4913498" lon="12.2170131"><ele>291.0</ele><time>2026-05-02T12:19:35.321Z</time></trkpt><trkpt lat="43.4915264" lon="12.2168884"><ele>291.0</ele><time>2026-05-02T12:19:36.319Z</time></trkpt><trkpt lat="43.4917031" lon="12.2167698"><ele>291.0</ele><time>2026-05-02T12:19:37.32Z</time></trkpt><trkpt lat="43.4918762" lon="12.2166445"><ele>291.0</ele><time>2026-05-02T12:19:38.32Z</time></trkpt><trkpt lat="43.492048" lon="12.216525"><ele>291.3333333333333</ele><time>2026-05-02T12:19:39.316Z</time></trkpt><trkpt lat="43.4922238" lon="12.2164042"><ele>291.66666666666663</ele><time>2026-05-02T12:19:40.321Z</time></trkpt><trkpt lat="43.4924036" lon="12.2162809"><ele>292.0</ele><time>2026-05-02T12:19:41.321Z</time></trkpt><trkpt lat="43.4925859" lon="12.2161551"><ele>292.0</ele><time>2026-05-02T12:19:42.321Z</time></trkpt><trkpt lat="43.4927705" lon="12.2160258"><ele>292.0</ele><time>2026-05-02T12:19:43.322Z</time></trkpt><trkpt lat="43.4929488" lon="12.215902"><ele>292.0</ele><time>2026-05-02T12:19:44.322Z</time></trkpt><trkpt lat="43.4931208" lon="12.2157799"><ele>292.0</ele><time>2026-05-02T12:19:45.321Z</time></trkpt><trkpt lat="43.4932917" lon="12.2156594"><ele>292.0</ele><time>2026-05-02T12:19:46.321Z</time></trkpt><trkpt lat="43.4934543" lon="12.2155443"><ele>292.0</ele><time>2026-05-02T12:19:47.317Z</time></trkpt><trkpt lat="43.4936099" lon="12.2154397"><ele>292.0</ele><time>2026-05-02T12:19:48.321Z</time></trkpt><trkpt lat="43.4937513" lon="12.2153433"><ele>292.0</ele><time>2026-05-02T12:19:49.321Z</time></trkpt><trkpt lat="43.4938833" lon="12.2152505"><ele>292.0</ele><time>2026-05-02T12:19:50.347Z</time></trkpt><trkpt lat="43.4940048" lon="12.2151653"><ele>292.0</ele><time>2026-05-02T12:19:51.32Z</time></trkpt><trkpt lat="43.4941181" lon="12.2150813"><ele>291.75</ele><time>2026-05-02T12:19:52.321Z</time></trkpt><trkpt lat="43.4942264" lon="12.2149978"><ele>291.5</ele><time>2026-05-02T12:19:53.32Z</time></trkpt><trkpt lat="43.4943374" lon="12.214912"><ele>291.25</ele><time>2026-05-02T12:19:54.321Z</time></trkpt><trkpt lat="43.4944581" lon="12.214827"><ele>291.0</ele><time>2026-05-02T12:19:55.316Z</time></trkpt><trkpt lat="43.494585" lon="12.2147326"><ele>292.6666666666667</ele><time>2026-05-02T12:19:56.319Z</time></trkpt><trkpt lat="43.4947163" lon="12.214634"><ele>294.33333333333337</ele><time>2026-05-02T12:19:57.314Z</time></trkpt><trkpt lat="43.4948559" lon="12.214532"><ele>296.0</ele><time>2026-05-02T12:19:58.32Z</time></trkpt><trkpt lat="43.4950002" lon="12.2144274"><ele>296.0</ele><time>2026-05-02T12:19:59.319Z</time></trkpt><trkpt lat="43.4951483" lon="12.214317"><ele>296.0</ele><time>2026-05-02T12:20:00.32Z</time></trkpt><trkpt lat="43.4952989" lon="12.2142058"><ele>296.0</ele><time>2026-05-02T12:20:01.316Z</time></trkpt><trkpt lat="43.4954413" lon="12.2141055"><ele>295.6666666666667</ele><time>2026-05-02T12:20:02.321Z</time></trkpt><trkpt lat="43.4955861" lon="12.2140041"><ele>295.3333333333333</ele><time>2026-05-02T12:20:03.315Z</time></trkpt><trkpt lat="43.4957177" lon="12.2139002"><ele>295.0</ele><time>2026-05-02T12:20:04.32Z</time></trkpt><trkpt lat="43.4958495" lon="12.2137985"><ele>295.0</ele><time>2026-05-02T12:20:05.32Z</time></trkpt><trkpt lat="43.4959815" lon="12.2137018"><ele>295.0</ele><time>2026-05-02T12:20:06.32Z</time></trkpt><trkpt lat="43.4961042" lon="12.2136068"><ele>295.0</ele><time>2026-05-02T12:20:07.32Z</time></trkpt><trkpt lat="43.496229" lon="12.2135112"><ele>295.0</ele><time>2026-05-02T12:20:08.321Z</time></trkpt><trkpt lat="43.4963536" lon="12.2134186"><ele>295.0</ele><time>2026-05-02T12:20:09.321Z</time></trkpt><trkpt lat="43.4964763" lon="12.2133287"><ele>295.0</ele><time>2026-05-02T12:20:10.321Z</time></trkpt><trkpt lat="43.4966007" lon="12.2132367"><ele>295.0</ele><time>2026-05-02T12:20:11.316Z</time></trkpt><trkpt lat="43.4967241" lon="12.2131465"><ele>295.0</ele><time>2026-05-02T12:20:12.32Z</time></trkpt><trkpt lat="43.49685" lon="12.2130519"><ele>295.25</ele><time>2026-05-02T12:20:13.321Z</time></trkpt><trkpt lat="43.4969781" lon="12.2129616"><ele>295.5</ele><time>2026-05-02T12:20:14.32Z</time></trkpt><trkpt lat="43.4971047" lon="12.2128732"><ele>295.75</ele><time>2026-05-02T12:20:15.319Z</time></trkpt><trkpt lat="43.4972329" lon="12.2127845"><ele>296.0</ele><time>2026-05-02T12:20:16.32Z</time></trkpt><trkpt lat="43.4973583" lon="12.2126929"><ele>296.25</ele><time>2026-05-02T12:20:17.32Z</time></trkpt><trkpt lat="43.4974876" lon="12.212604"><ele>296.5</ele><time>2026-05-02T12:20:18.321Z</time></trkpt><trkpt lat="43.4976208" lon="12.2125138"><ele>296.75</ele><time>2026-05-02T12:20:19.318Z</time></trkpt><trkpt lat="43.4977552" lon="12.2124192"><ele>297.0</ele><time>2026-05-02T12:20:20.342Z</time></trkpt><trkpt lat="43.4978931" lon="12.2123194"><ele>297.3333333333333</ele><time>2026-05-02T12:20:21.319Z</time></trkpt><trkpt lat="43.4980311" lon="12.212218"><ele>297.66666666666663</ele><time>2026-05-02T12:20:22.321Z</time></trkpt><trkpt lat="43.4981719" lon="12.2121182"><ele>298.0</ele><time>2026-05-02T12:20:23.321Z</time></trkpt><trkpt lat="43.4983132" lon="12.2120176"><ele>298.0</ele><time>2026-05-02T12:20:24.32Z</time></trkpt><trkpt lat="43.4984522" lon="12.2119166"><ele>298.0</ele><time>2026-05-02T12:20:25.322Z</time></trkpt><trkpt lat="43.4985858" lon="12.2118179"><ele>298.0</ele><time>2026-05-02T12:20:26.32Z</time></trkpt><trkpt lat="43.4987171" lon="12.2117222"><ele>298.0</ele><time>2026-05-02T12:20:27.316Z</time></trkpt><trkpt lat="43.4988442" lon="12.2116286"><ele>298.0</ele><time>2026-05-02T12:20:28.322Z</time></trkpt><trkpt lat="43.4989708" lon="12.2115397"><ele>298.0</ele><time>2026-05-02T12:20:29.322Z</time></trkpt><trkpt lat="43.499096" lon="12.2114441"><ele>298.0</ele><time>2026-05-02T12:20:30.316Z</time></trkpt><trkpt lat="43.499222" lon="12.2113559"><ele>298.0</ele><time>2026-05-02T12:20:31.321Z</time></trkpt><trkpt lat="43.4993426" lon="12.2112617"><ele>298.0</ele><time>2026-05-02T12:20:32.32Z</time></trkpt><trkpt lat="43.4994688" lon="12.2111735"><ele>298.0</ele><time>2026-05-02T12:20:33.318Z</time></trkpt><trkpt lat="43.4995942" lon="12.2110846"><ele>298.0</ele><time>2026-05-02T12:20:34.322Z</time></trkpt><trkpt lat="43.4997244" lon="12.210998"><ele>298.0</ele><time>2026-05-02T12:20:35.32Z</time></trkpt><trkpt lat="43.4998554" lon="12.2109047"><ele>298.0</ele><time>2026-05-02T12:20:36.322Z</time></trkpt><trkpt lat="43.4999866" lon="12.2108117"><ele>298.0</ele><time>2026-05-02T12:20:37.32Z</time></trkpt><trkpt lat="43.5001191" lon="12.210715"><ele>298.0</ele><time>2026-05-02T12:20:38.321Z</time></trkpt><trkpt lat="43.5002547" lon="12.2106122"><ele>298.0</ele><time>2026-05-02T12:20:39.322Z</time></trkpt><trkpt lat="43.5003929" lon="12.2105137"><ele>298.0</ele><time>2026-05-02T12:20:40.321Z</time></trkpt><trkpt lat="43.5005313" lon="12.2104102"><ele>298.0</ele><time>2026-05-02T12:20:41.322Z</time></trkpt><trkpt lat="43.5006742" lon="12.2103042"><ele>298.66666666666663</ele><time>2026-05-02T12:20:42.321Z</time></trkpt><trkpt lat="43.5008148" lon="12.2101993"><ele>299.3333333333333</ele><time>2026-05-02T12:20:43.318Z</time></trkpt><trkpt lat="43.5009481" lon="12.2100995"><ele>300.0</ele><time>2026-05-02T12:20:44.323Z</time></trkpt><trkpt lat="43.5010736" lon="12.2100106"><ele>300.0</ele><time>2026-05-02T12:20:45.312Z</time></trkpt><trkpt lat="43.5011924" lon="12.2099295"><ele>300.0</ele><time>2026-05-02T12:20:46.321Z</time></trkpt><trkpt lat="43.5013059" lon="12.2098536"><ele>300.0</ele><time>2026-05-02T12:20:47.32Z</time></trkpt><trkpt lat="43.5014041" lon="12.2097861"><ele>300.0</ele><time>2026-05-02T12:20:48.321Z</time></trkpt><trkpt lat="43.5014851" lon="12.2097151"><ele>300.0</ele><time>2026-05-02T12:20:49.321Z</time></trkpt><trkpt lat="43.5015351" lon="12.2096406"><ele>300.0</ele><time>2026-05-02T12:20:50.321Z</time></trkpt><trkpt lat="43.5015458" lon="12.209508"><ele>300.0</ele><time>2026-05-02T12:20:52.321Z</time></trkpt><trkpt lat="43.5014907" lon="12.2094194"><ele>300.0</ele><time>2026-05-02T12:20:54.328Z</time></trkpt><trkpt lat="43.5014159" lon="12.2094038"><ele>300.0</ele><time>2026-05-02T12:20:56.321Z</time></trkpt><trkpt lat="43.5013837" lon="12.2094788"><ele>300.0</ele><time>2026-05-02T12:24:27.321Z</time></trkpt><trkpt lat="43.5013085" lon="12.2095438"><ele>300.0</ele><time>2026-05-02T12:24:30.321Z</time></trkpt><trkpt lat="43.5012499" lon="12.2096226"><ele>300.0</ele><time>2026-05-02T12:24:32.317Z</time></trkpt><trkpt lat="43.5012055" lon="12.2096955"><ele>300.0</ele><time>2026-05-02T12:24:34.322Z</time></trkpt><trkpt lat="43.5011747" lon="12.2097957"><ele>300.0</ele><time>2026-05-02T12:24:37.322Z</time></trkpt><trkpt lat="43.5011986" lon="12.2099006"><ele>300.0</ele><time>2026-05-02T12:25:28.322Z</time></trkpt><trkpt lat="43.5013035" lon="12.2098827"><ele>300.0</ele><time>2026-05-02T12:25:30.329Z</time></trkpt><trkpt lat="43.5013793" lon="12.2098208"><ele>300.0</ele><time>2026-05-02T12:25:31.32Z</time></trkpt><trkpt lat="43.5014584" lon="12.2097525"><ele>300.0</ele><time>2026-05-02T12:25:32.319Z</time></trkpt><trkpt lat="43.5015546" lon="12.2096801"><ele>300.0</ele><time>2026-05-02T12:25:33.318Z</time></trkpt><trkpt lat="43.5016469" lon="12.2096088"><ele>300.0</ele><time>2026-05-02T12:25:34.322Z</time></trkpt><trkpt lat="43.5017345" lon="12.2095483"><ele>300.0</ele><time>2026-05-02T12:25:35.313Z</time></trkpt><trkpt lat="43.5018182" lon="12.2094883"><ele>300.0</ele><time>2026-05-02T12:25:36.321Z</time></trkpt><trkpt lat="43.5019061" lon="12.2094255"><ele>300.0</ele><time>2026-05-02T12:25:37.321Z</time></trkpt><trkpt lat="43.5019976" lon="12.2093583"><ele>300.0</ele><time>2026-05-02T12:25:38.321Z</time></trkpt><trkpt lat="43.5020993" lon="12.2092874"><ele>300.0</ele><time>2026-05-02T12:25:39.321Z</time></trkpt><trkpt lat="43.5022089" lon="12.2092102"><ele>300.0</ele><time>2026-05-02T12:25:40.318Z</time></trkpt><trkpt lat="43.5023304" lon="12.2091268"><ele>300.0</ele><time>2026-05-02T12:25:41.322Z</time></trkpt><trkpt lat="43.5024556" lon="12.2090414"><ele>300.0</ele><time>2026-05-02T12:25:42.318Z</time></trkpt><trkpt lat="43.5025755" lon="12.2089587"><ele>300.0</ele><time>2026-05-02T12:25:43.321Z</time></trkpt><trkpt lat="43.502697" lon="12.2088755"><ele>300.0</ele><time>2026-05-02T12:25:44.32Z</time></trkpt><trkpt lat="43.5028207" lon="12.2087891"><ele>300.75</ele><time>2026-05-02T12:25:45.324Z</time></trkpt><trkpt lat="43.5029467" lon="12.2086989"><ele>301.5</ele><time>2026-05-02T12:25:46.318Z</time></trkpt><trkpt lat="43.5030749" lon="12.2086133"><ele>302.25</ele><time>2026-05-02T12:25:47.32Z</time></trkpt><trkpt lat="43.503202" lon="12.208523"><ele>303.0</ele><time>2026-05-02T12:25:48.321Z</time></trkpt><trkpt lat="43.5033269" lon="12.2084339"><ele>303.0</ele><time>2026-05-02T12:25:49.321Z</time></trkpt><trkpt lat="43.5034486" lon="12.2083438"><ele>303.0</ele><time>2026-05-02T12:25:50.318Z</time></trkpt><trkpt lat="43.5035711" lon="12.2082543"><ele>303.0</ele><time>2026-05-02T12:25:51.321Z</time></trkpt><trkpt lat="43.503696" lon="12.2081676"><ele>303.0</ele><time>2026-05-02T12:25:52.322Z</time></trkpt><trkpt lat="43.5038101" lon="12.2080836"><ele>302.2</ele><time>2026-05-02T12:25:53.322Z</time></trkpt><trkpt lat="43.5039197" lon="12.2080123"><ele>301.4</ele><time>2026-05-02T12:25:54.321Z</time></trkpt><trkpt lat="43.5040199" lon="12.2079406"><ele>300.59999999999997</ele><time>2026-05-02T12:25:55.322Z</time></trkpt><trkpt lat="43.5041137" lon="12.2078748"><ele>299.8</ele><time>2026-05-02T12:25:56.321Z</time></trkpt><trkpt lat="43.5042079" lon="12.207804"><ele>299.0</ele><time>2026-05-02T12:25:57.321Z</time></trkpt><trkpt lat="43.5042991" lon="12.2077303"><ele>299.0</ele><time>2026-05-02T12:25:58.318Z</time></trkpt><trkpt lat="43.5043902" lon="12.2076618"><ele>299.0</ele><time>2026-05-02T12:25:59.317Z</time></trkpt><trkpt lat="43.504475" lon="12.2075969"><ele>299.0</ele><time>2026-05-02T12:26:00.313Z</time></trkpt><trkpt lat="43.5045503" lon="12.2075387"><ele>299.0</ele><time>2026-05-02T12:26:01.32Z</time></trkpt><trkpt lat="43.5046228" lon="12.2074861"><ele>299.0</ele><time>2026-05-02T12:26:02.322Z</time></trkpt><trkpt lat="43.5046919" lon="12.2074408"><ele>299.0</ele><time>2026-05-02T12:26:03.32Z</time></trkpt><trkpt lat="43.5047565" lon="12.2073954"><ele>299.0</ele><time>2026-05-02T12:26:04.32Z</time></trkpt><trkpt lat="43.5048211" lon="12.207357"><ele>299.0</ele><time>2026-05-02T12:26:05.32Z</time></trkpt><trkpt lat="43.5048875" lon="12.2073253"><ele>299.0</ele><time>2026-05-02T12:26:06.319Z</time></trkpt><trkpt lat="43.5049549" lon="12.2072961"><ele>299.0</ele><time>2026-05-02T12:26:07.322Z</time></trkpt><trkpt lat="43.5050344" lon="12.2072667"><ele>299.0</ele><time>2026-05-02T12:26:08.319Z</time></trkpt><trkpt lat="43.5051253" lon="12.2072285"><ele>299.0</ele><time>2026-05-02T12:26:09.321Z</time></trkpt><trkpt lat="43.5052168" lon="12.2071596"><ele>299.0</ele><time>2026-05-02T12:26:10.323Z</time></trkpt><trkpt lat="43.5053061" lon="12.2070612"><ele>299.0</ele><time>2026-05-02T12:26:11.321Z</time></trkpt><trkpt lat="43.5054038" lon="12.206953"><ele>299.0</ele><time>2026-05-02T12:26:12.319Z</time></trkpt><trkpt lat="43.5055116" lon="12.2068413"><ele>299.0</ele><time>2026-05-02T12:26:13.321Z</time></trkpt><trkpt lat="43.5056396" lon="12.2067416"><ele>299.5</ele><time>2026-05-02T12:26:14.318Z</time></trkpt><trkpt lat="43.5057715" lon="12.2066507"><ele>300.0</ele><time>2026-05-02T12:26:15.322Z</time></trkpt><trkpt lat="43.505897" lon="12.2065611"><ele>300.5</ele><time>2026-05-02T12:26:16.321Z</time></trkpt><trkpt lat="43.5060315" lon="12.2064691"><ele>301.0</ele><time>2026-05-02T12:26:17.322Z</time></trkpt><trkpt lat="43.5061569" lon="12.2063847"><ele>301.25</ele><time>2026-05-02T12:26:18.323Z</time></trkpt><trkpt lat="43.5062807" lon="12.2062964"><ele>301.5</ele><time>2026-05-02T12:26:19.321Z</time></trkpt><trkpt lat="43.5064095" lon="12.2062046"><ele>301.75</ele><time>2026-05-02T12:26:20.321Z</time></trkpt><trkpt lat="43.5065393" lon="12.2061144"><ele>302.0</ele><time>2026-05-02T12:26:21.321Z</time></trkpt><trkpt lat="43.5066603" lon="12.206025"><ele>302.0</ele><time>2026-05-02T12:26:22.319Z</time></trkpt><trkpt lat="43.5067855" lon="12.2059351"><ele>302.0</ele><time>2026-05-02T12:26:23.321Z</time></trkpt><trkpt lat="43.5069123" lon="12.2058495"><ele>302.0</ele><time>2026-05-02T12:26:24.315Z</time></trkpt><trkpt lat="43.5070394" lon="12.2057672"><ele>302.0</ele><time>2026-05-02T12:26:25.321Z</time></trkpt><trkpt lat="43.5071695" lon="12.2056803"><ele>302.0</ele><time>2026-05-02T12:26:26.322Z</time></trkpt><trkpt lat="43.5073016" lon="12.2055897"><ele>302.0</ele><time>2026-05-02T12:26:27.319Z</time></trkpt><trkpt lat="43.5074385" lon="12.2054935"><ele>302.0</ele><time>2026-05-02T12:26:28.321Z</time></trkpt><trkpt lat="43.5075788" lon="12.2053925"><ele>302.0</ele><time>2026-05-02T12:26:29.318Z</time></trkpt><trkpt lat="43.5077179" lon="12.205293"><ele>302.0</ele><time>2026-05-02T12:26:30.319Z</time></trkpt><trkpt lat="43.5078549" lon="12.2051897"><ele>302.0</ele><time>2026-05-02T12:26:31.321Z</time></trkpt><trkpt lat="43.5079904" lon="12.2050914"><ele>302.0</ele><time>2026-05-02T12:26:32.32Z</time></trkpt><trkpt lat="43.5081266" lon="12.2049977"><ele>302.0</ele><time>2026-05-02T12:26:33.32Z</time></trkpt><trkpt lat="43.5082594" lon="12.2049033"><ele>302.0</ele><time>2026-05-02T12:26:34.321Z</time></trkpt><trkpt lat="43.508389" lon="12.2048072"><ele>302.0</ele><time>2026-05-02T12:26:35.32Z</time></trkpt><trkpt lat="43.5085161" lon="12.2047149"><ele>302.0</ele><time>2026-05-02T12:26:36.321Z</time></trkpt><trkpt lat="43.5086434" lon="12.204625"><ele>302.0</ele><time>2026-05-02T12:26:37.321Z</time></trkpt><trkpt lat="43.5087711" lon="12.2045366"><ele>302.0</ele><time>2026-05-02T12:26:38.32Z</time></trkpt><trkpt lat="43.5088991" lon="12.2044437"><ele>302.0</ele><time>2026-05-02T12:26:39.32Z</time></trkpt><trkpt lat="43.5090263" lon="12.2043545"><ele>302.0</ele><time>2026-05-02T12:26:40.321Z</time></trkpt><trkpt lat="43.509154" lon="12.2042655"><ele>302.0</ele><time>2026-05-02T12:26:41.323Z</time></trkpt><trkpt lat="43.5092767" lon="12.2041782"><ele>302.0</ele><time>2026-05-02T12:26:42.321Z</time></trkpt><trkpt lat="43.5093963" lon="12.2040936"><ele>302.0</ele><time>2026-05-02T12:26:43.32Z</time></trkpt><trkpt lat="43.5095099" lon="12.2040121"><ele>302.75</ele><time>2026-05-02T12:26:44.319Z</time></trkpt><trkpt lat="43.509617" lon="12.2039353"><ele>303.5</ele><time>2026-05-02T12:26:45.321Z</time></trkpt><trkpt lat="43.5097244" lon="12.2038564"><ele>304.25</ele><time>2026-05-02T12:26:46.32Z</time></trkpt><trkpt lat="43.5098325" lon="12.203781"><ele>305.0</ele><time>2026-05-02T12:26:47.321Z</time></trkpt><trkpt lat="43.5099425" lon="12.2037021"><ele>305.0</ele><time>2026-05-02T12:26:48.323Z</time></trkpt><trkpt lat="43.5100532" lon="12.203623"><ele>305.0</ele><time>2026-05-02T12:26:49.321Z</time></trkpt><trkpt lat="43.5101672" lon="12.2035386"><ele>305.0</ele><time>2026-05-02T12:26:50.321Z</time></trkpt><trkpt lat="43.510285" lon="12.2034459"><ele>305.0</ele><time>2026-05-02T12:26:51.455Z</time></trkpt><trkpt lat="43.5105353" lon="12.2032739"><ele>305.25</ele><time>2026-05-02T12:26:53.321Z</time></trkpt><trkpt lat="43.5106629" lon="12.2031807"><ele>305.5</ele><time>2026-05-02T12:26:54.322Z</time></trkpt><trkpt lat="43.5107965" lon="12.2031048"><ele>305.75</ele><time>2026-05-02T12:26:55.322Z</time></trkpt><trkpt lat="43.5109264" lon="12.2030071"><ele>306.0</ele><time>2026-05-02T12:26:56.32Z</time></trkpt><trkpt lat="43.5110618" lon="12.2029031"><ele>306.0</ele><time>2026-05-02T12:26:57.32Z</time></trkpt><trkpt lat="43.5111908" lon="12.2028067"><ele>306.0</ele><time>2026-05-02T12:26:58.32Z</time></trkpt><trkpt lat="43.5113116" lon="12.2027165"><ele>306.0</ele><time>2026-05-02T12:26:59.321Z</time></trkpt><trkpt lat="43.5114365" lon="12.2026276"><ele>306.0</ele><time>2026-05-02T12:27:00.319Z</time></trkpt><trkpt lat="43.511557" lon="12.2025375"><ele>306.0</ele><time>2026-05-02T12:27:01.316Z</time></trkpt><trkpt lat="43.5116769" lon="12.2024545"><ele>306.0</ele><time>2026-05-02T12:27:02.318Z</time></trkpt><trkpt lat="43.5117928" lon="12.2023672"><ele>306.0</ele><time>2026-05-02T12:27:03.317Z</time></trkpt><trkpt lat="43.5119076" lon="12.2022857"><ele>306.0</ele><time>2026-05-02T12:27:04.321Z</time></trkpt><trkpt lat="43.512018" lon="12.2022045"><ele>306.5</ele><time>2026-05-02T12:27:05.322Z</time></trkpt><trkpt lat="43.5121268" lon="12.2021244"><ele>307.0</ele><time>2026-05-02T12:27:06.322Z</time></trkpt><trkpt lat="43.5122329" lon="12.2020484"><ele>307.5</ele><time>2026-05-02T12:27:07.321Z</time></trkpt><trkpt lat="43.5123377" lon="12.201969"><ele>308.0</ele><time>2026-05-02T12:27:08.321Z</time></trkpt><trkpt lat="43.5124498" lon="12.2018893"><ele>308.0</ele><time>2026-05-02T12:27:09.321Z</time></trkpt><trkpt lat="43.5125599" lon="12.2018092"><ele>308.0</ele><time>2026-05-02T12:27:10.32Z</time></trkpt><trkpt lat="43.5126679" lon="12.2017388"><ele>308.0</ele><time>2026-05-02T12:27:11.32Z</time></trkpt><trkpt lat="43.5127749" lon="12.2016644"><ele>308.0</ele><time>2026-05-02T12:27:12.321Z</time></trkpt><trkpt lat="43.5128858" lon="12.2015896"><ele>307.75</ele><time>2026-05-02T12:27:13.32Z</time></trkpt><trkpt lat="43.5130009" lon="12.2015087"><ele>307.5</ele><time>2026-05-02T12:27:14.319Z</time></trkpt><trkpt lat="43.5131162" lon="12.2014263"><ele>307.25</ele><time>2026-05-02T12:27:15.321Z</time></trkpt><trkpt lat="43.5132233" lon="12.2013431"><ele>307.0</ele><time>2026-05-02T12:27:16.324Z</time></trkpt><trkpt lat="43.5133331" lon="12.2012621"><ele>307.0</ele><time>2026-05-02T12:27:17.321Z</time></trkpt><trkpt lat="43.513443" lon="12.2011882"><ele>307.0</ele><time>2026-05-02T12:27:18.343Z</time></trkpt><trkpt lat="43.5135477" lon="12.2011131"><ele>307.0</ele><time>2026-05-02T12:27:19.316Z</time></trkpt><trkpt lat="43.5136567" lon="12.2010395"><ele>307.0</ele><time>2026-05-02T12:27:20.343Z</time></trkpt><trkpt lat="43.5137647" lon="12.2009598"><ele>307.0</ele><time>2026-05-02T12:27:21.321Z</time></trkpt><trkpt lat="43.5138759" lon="12.2008811"><ele>307.0</ele><time>2026-05-02T12:27:22.321Z</time></trkpt><trkpt lat="43.513987" lon="12.2008008"><ele>307.0</ele><time>2026-05-02T12:27:23.32Z</time></trkpt><trkpt lat="43.5140911" lon="12.2007236"><ele>307.0</ele><time>2026-05-02T12:27:24.32Z</time></trkpt><trkpt lat="43.514193" lon="12.200657"><ele>307.0</ele><time>2026-05-02T12:27:25.319Z</time></trkpt><trkpt lat="43.5142883" lon="12.2005897"><ele>307.0</ele><time>2026-05-02T12:27:26.321Z</time></trkpt><trkpt lat="43.5143726" lon="12.200528"><ele>307.0</ele><time>2026-05-02T12:27:27.316Z</time></trkpt><trkpt lat="43.514448" lon="12.2004743"><ele>307.0</ele><time>2026-05-02T12:27:28.321Z</time></trkpt><trkpt lat="43.5145203" lon="12.2004314"><ele>307.0</ele><time>2026-05-02T12:27:29.321Z</time></trkpt><trkpt lat="43.5146173" lon="12.2003766"><ele>307.0</ele><time>2026-05-02T12:27:31.32Z</time></trkpt><trkpt lat="43.5146894" lon="12.2003603"><ele>307.0</ele><time>2026-05-02T12:27:33.314Z</time></trkpt><trkpt lat="43.5148027" lon="12.2003843"><ele>307.0</ele><time>2026-05-02T12:27:35.316Z</time></trkpt><trkpt lat="43.5148713" lon="12.2003823"><ele>307.0</ele><time>2026-05-02T12:27:36.32Z</time></trkpt><trkpt lat="43.5149322" lon="12.2003499"><ele>307.0</ele><time>2026-05-02T12:27:37.32Z</time></trkpt><trkpt lat="43.5149836" lon="12.2002767"><ele>307.0</ele><time>2026-05-02T12:27:38.321Z</time></trkpt><trkpt lat="43.5150215" lon="12.2001759"><ele>307.0</ele><time>2026-05-02T12:27:39.32Z</time></trkpt><trkpt lat="43.5150584" lon="12.2000577"><ele>307.0</ele><time>2026-05-02T12:27:40.319Z</time></trkpt><trkpt lat="43.5151079" lon="12.1999514"><ele>307.0</ele><time>2026-05-02T12:27:41.319Z</time></trkpt><trkpt lat="43.5151812" lon="12.199868"><ele>307.0</ele><time>2026-05-02T12:27:42.319Z</time></trkpt><trkpt lat="43.5152634" lon="12.1997972"><ele>307.0</ele><time>2026-05-02T12:27:43.315Z</time></trkpt><trkpt lat="43.5153408" lon="12.1997176"><ele>306.6</ele><time>2026-05-02T12:27:44.321Z</time></trkpt><trkpt lat="43.5154229" lon="12.1996389"><ele>306.2</ele><time>2026-05-02T12:27:45.32Z</time></trkpt><trkpt lat="43.5155054" lon="12.1995541"><ele>305.8</ele><time>2026-05-02T12:27:46.321Z</time></trkpt><trkpt lat="43.5155948" lon="12.199474"><ele>305.4</ele><time>2026-05-02T12:27:47.318Z</time></trkpt><trkpt lat="43.5156843" lon="12.1993972"><ele>305.0</ele><time>2026-05-02T12:27:48.319Z</time></trkpt><trkpt lat="43.5157854" lon="12.1993285"><ele>305.0</ele><time>2026-05-02T12:27:49.32Z</time></trkpt><trkpt lat="43.5158822" lon="12.1992832"><ele>305.0</ele><time>2026-05-02T12:27:50.323Z</time></trkpt><trkpt lat="43.5159846" lon="12.1992535"><ele>305.0</ele><time>2026-05-02T12:27:51.316Z</time></trkpt><trkpt lat="43.5160906" lon="12.1992416"><ele>305.0</ele><time>2026-05-02T12:27:52.321Z</time></trkpt><trkpt lat="43.5161919" lon="12.1992324"><ele>305.0</ele><time>2026-05-02T12:27:53.312Z</time></trkpt><trkpt lat="43.5162917" lon="12.1992271"><ele>305.0</ele><time>2026-05-02T12:27:54.319Z</time></trkpt><trkpt lat="43.5163931" lon="12.1992176"><ele>305.0</ele><time>2026-05-02T12:27:55.321Z</time></trkpt><trkpt lat="43.516497" lon="12.1992033"><ele>305.0</ele><time>2026-05-02T12:27:56.321Z</time></trkpt><trkpt lat="43.5166002" lon="12.1991716"><ele>305.0</ele><time>2026-05-02T12:27:57.319Z</time></trkpt><trkpt lat="43.5166996" lon="12.1991141"><ele>305.0</ele><time>2026-05-02T12:27:58.321Z</time></trkpt><trkpt lat="43.5168035" lon="12.199021"><ele>305.0</ele><time>2026-05-02T12:27:59.316Z</time></trkpt><trkpt lat="43.5169115" lon="12.1989102"><ele>305.0</ele><time>2026-05-02T12:28:00.32Z</time></trkpt><trkpt lat="43.5170258" lon="12.1987967"><ele>305.0</ele><time>2026-05-02T12:28:01.319Z</time></trkpt><trkpt lat="43.517142" lon="12.198674"><ele>305.0</ele><time>2026-05-02T12:28:02.32Z</time></trkpt><trkpt lat="43.5172645" lon="12.1985554"><ele>305.0</ele><time>2026-05-02T12:28:03.322Z</time></trkpt><trkpt lat="43.5173984" lon="12.1984319"><ele>305.0</ele><time>2026-05-02T12:28:04.32Z</time></trkpt><trkpt lat="43.5175392" lon="12.198312"><ele>305.0</ele><time>2026-05-02T12:28:05.316Z</time></trkpt><trkpt lat="43.5176864" lon="12.1981982"><ele>305.0</ele><time>2026-05-02T12:28:06.321Z</time></trkpt><trkpt lat="43.5178343" lon="12.1980864"><ele>305.0</ele><time>2026-05-02T12:28:07.319Z</time></trkpt><trkpt lat="43.5179912" lon="12.1979754"><ele>305.0</ele><time>2026-05-02T12:28:08.321Z</time></trkpt><trkpt lat="43.5181526" lon="12.1978622"><ele>304.6666666666667</ele><time>2026-05-02T12:28:09.32Z</time></trkpt><trkpt lat="43.5183188" lon="12.1977403"><ele>304.3333333333333</ele><time>2026-05-02T12:28:10.32Z</time></trkpt><trkpt lat="43.5184905" lon="12.1976157"><ele>304.0</ele><time>2026-05-02T12:28:11.321Z</time></trkpt><trkpt lat="43.5186599" lon="12.1974891"><ele>304.0</ele><time>2026-05-02T12:28:12.32Z</time></trkpt><trkpt lat="43.5188343" lon="12.1973659"><ele>304.0</ele><time>2026-05-02T12:28:13.319Z</time></trkpt><trkpt lat="43.5190094" lon="12.1972436"><ele>304.0</ele><time>2026-05-02T12:28:14.322Z</time></trkpt><trkpt lat="43.5191862" lon="12.1971161"><ele>304.0</ele><time>2026-05-02T12:28:15.315Z</time></trkpt><trkpt lat="43.5193622" lon="12.1969876"><ele>304.0</ele><time>2026-05-02T12:28:16.321Z</time></trkpt><trkpt lat="43.5195427" lon="12.1968609"><ele>304.0</ele><time>2026-05-02T12:28:17.311Z</time></trkpt><trkpt lat="43.5197187" lon="12.196735"><ele>304.3333333333333</ele><time>2026-05-02T12:28:18.32Z</time></trkpt><trkpt lat="43.5198937" lon="12.1966072"><ele>304.6666666666667</ele><time>2026-05-02T12:28:19.32Z</time></trkpt><trkpt lat="43.520061" lon="12.1964853"><ele>305.0</ele><time>2026-05-02T12:28:20.321Z</time></trkpt><trkpt lat="43.5202191" lon="12.1963712"><ele>305.0</ele><time>2026-05-02T12:28:21.321Z</time></trkpt><trkpt lat="43.5203754" lon="12.1962568"><ele>305.0</ele><time>2026-05-02T12:28:22.32Z</time></trkpt><trkpt lat="43.5205328" lon="12.1961478"><ele>305.0</ele><time>2026-05-02T12:28:23.317Z</time></trkpt><trkpt lat="43.5206902" lon="12.1960341"><ele>305.33333333333337</ele><time>2026-05-02T12:28:24.317Z</time></trkpt><trkpt lat="43.5208543" lon="12.1959186"><ele>305.6666666666667</ele><time>2026-05-02T12:28:25.321Z</time></trkpt><trkpt lat="43.5210202" lon="12.195802"><ele>306.0</ele><time>2026-05-02T12:28:26.32Z</time></trkpt><trkpt lat="43.5211901" lon="12.1956826"><ele>305.5</ele><time>2026-05-02T12:28:27.315Z</time></trkpt><trkpt lat="43.5213803" lon="12.1955505"><ele>305.0</ele><time>2026-05-02T12:28:28.317Z</time></trkpt><trkpt lat="43.5215891" lon="12.1953925"><ele>305.0</ele><time>2026-05-02T12:28:29.319Z</time></trkpt><trkpt lat="43.5218108" lon="12.1952285"><ele>305.0</ele><time>2026-05-02T12:28:30.316Z</time></trkpt><trkpt lat="43.5220211" lon="12.1950774"><ele>305.5</ele><time>2026-05-02T12:28:31.32Z</time></trkpt><trkpt lat="43.5222325" lon="12.1949268"><ele>306.0</ele><time>2026-05-02T12:28:32.314Z</time></trkpt><trkpt lat="43.5224338" lon="12.1947768"><ele>306.0</ele><time>2026-05-02T12:28:33.318Z</time></trkpt><trkpt lat="43.5226341" lon="12.1946195"><ele>306.0</ele><time>2026-05-02T12:28:34.319Z</time></trkpt><trkpt lat="43.5228385" lon="12.1944703"><ele>306.0</ele><time>2026-05-02T12:28:35.321Z</time></trkpt><trkpt lat="43.5230438" lon="12.1943281"><ele>306.0</ele><time>2026-05-02T12:28:36.318Z</time></trkpt><trkpt lat="43.5232467" lon="12.1941922"><ele>306.0</ele><time>2026-05-02T12:28:37.32Z</time></trkpt><trkpt lat="43.5234525" lon="12.1940641"><ele>306.0</ele><time>2026-05-02T12:28:38.315Z</time></trkpt><trkpt lat="43.5236505" lon="12.1939381"><ele>306.0</ele><time>2026-05-02T12:28:39.319Z</time></trkpt><trkpt lat="43.5238448" lon="12.1938155"><ele>306.6666666666667</ele><time>2026-05-02T12:28:40.321Z</time></trkpt><trkpt lat="43.5240324" lon="12.1936904"><ele>307.33333333333337</ele><time>2026-05-02T12:28:41.318Z</time></trkpt><trkpt lat="43.5242215" lon="12.1935634"><ele>308.0</ele><time>2026-05-02T12:28:42.318Z</time></trkpt><trkpt lat="43.5244155" lon="12.1934333"><ele>308.0</ele><time>2026-05-02T12:28:43.319Z</time></trkpt><trkpt lat="43.5246055" lon="12.1933031"><ele>308.0</ele><time>2026-05-02T12:28:44.319Z</time></trkpt><trkpt lat="43.5247875" lon="12.1931664"><ele>308.0</ele><time>2026-05-02T12:28:45.319Z</time></trkpt><trkpt lat="43.5249606" lon="12.1930342"><ele>307.33333333333337</ele><time>2026-05-02T12:28:46.318Z</time></trkpt><trkpt lat="43.5251252" lon="12.1929028"><ele>306.6666666666667</ele><time>2026-05-02T12:28:47.318Z</time></trkpt><trkpt lat="43.5252904" lon="12.1927747"><ele>306.0</ele><time>2026-05-02T12:28:48.319Z</time></trkpt><trkpt lat="43.5254608" lon="12.1926494"><ele>305.6666666666667</ele><time>2026-05-02T12:28:49.319Z</time></trkpt><trkpt lat="43.5256328" lon="12.1925202"><ele>305.33333333333337</ele><time>2026-05-02T12:28:50.319Z</time></trkpt><trkpt lat="43.5258053" lon="12.1923894"><ele>305.0</ele><time>2026-05-02T12:28:51.319Z</time></trkpt><trkpt lat="43.5259801" lon="12.1922637"><ele>305.0</ele><time>2026-05-02T12:28:52.318Z</time></trkpt><trkpt lat="43.526152" lon="12.1921424"><ele>305.0</ele><time>2026-05-02T12:28:53.318Z</time></trkpt><trkpt lat="43.5263158" lon="12.1920293"><ele>305.0</ele><time>2026-05-02T12:28:54.316Z</time></trkpt><trkpt lat="43.5264818" lon="12.1919163"><ele>305.0</ele><time>2026-05-02T12:28:55.315Z</time></trkpt><trkpt lat="43.5266455" lon="12.1917993"><ele>305.0</ele><time>2026-05-02T12:28:56.319Z</time></trkpt><trkpt lat="43.5268075" lon="12.1916876"><ele>305.0</ele><time>2026-05-02T12:28:57.319Z</time></trkpt><trkpt lat="43.5269704" lon="12.1915738"><ele>305.0</ele><time>2026-05-02T12:28:58.32Z</time></trkpt><trkpt lat="43.5271319" lon="12.1914654"><ele>305.0</ele><time>2026-05-02T12:28:59.319Z</time></trkpt><trkpt lat="43.5272893" lon="12.1913519"><ele>305.0</ele><time>2026-05-02T12:29:00.32Z</time></trkpt><trkpt lat="43.5274427" lon="12.1912465"><ele>305.0</ele><time>2026-05-02T12:29:01.318Z</time></trkpt><trkpt lat="43.5275964" lon="12.1911407"><ele>305.0</ele><time>2026-05-02T12:29:02.318Z</time></trkpt><trkpt lat="43.5277487" lon="12.1910368"><ele>305.0</ele><time>2026-05-02T12:29:03.321Z</time></trkpt><trkpt lat="43.5278973" lon="12.1909331"><ele>304.6666666666667</ele><time>2026-05-02T12:29:04.32Z</time></trkpt><trkpt lat="43.5280385" lon="12.1908341"><ele>304.3333333333333</ele><time>2026-05-02T12:29:05.319Z</time></trkpt><trkpt lat="43.5281739" lon="12.1907401"><ele>304.0</ele><time>2026-05-02T12:29:06.319Z</time></trkpt><trkpt lat="43.5283097" lon="12.1906451"><ele>303.66666666666663</ele><time>2026-05-02T12:29:07.32Z</time></trkpt><trkpt lat="43.5284459" lon="12.1905478"><ele>303.3333333333333</ele><time>2026-05-02T12:29:08.32Z</time></trkpt><trkpt lat="43.5285819" lon="12.1904484"><ele>303.0</ele><time>2026-05-02T12:29:09.315Z</time></trkpt><trkpt lat="43.5287243" lon="12.1903473"><ele>303.6666666666667</ele><time>2026-05-02T12:29:10.318Z</time></trkpt><trkpt lat="43.5288677" lon="12.1902407"><ele>304.33333333333337</ele><time>2026-05-02T12:29:11.321Z</time></trkpt><trkpt lat="43.5290178" lon="12.19014"><ele>305.0</ele><time>2026-05-02T12:29:12.318Z</time></trkpt><trkpt lat="43.5291721" lon="12.1900322"><ele>305.0</ele><time>2026-05-02T12:29:13.319Z</time></trkpt><trkpt lat="43.5293283" lon="12.18992"><ele>305.0</ele><time>2026-05-02T12:29:14.319Z</time></trkpt><trkpt lat="43.5294857" lon="12.1898091"><ele>305.0</ele><time>2026-05-02T12:29:15.32Z</time></trkpt><trkpt lat="43.5296458" lon="12.189697"><ele>304.33333333333337</ele><time>2026-05-02T12:29:16.319Z</time></trkpt><trkpt lat="43.5298087" lon="12.1895805"><ele>303.6666666666667</ele><time>2026-05-02T12:29:17.32Z</time></trkpt><trkpt lat="43.5299739" lon="12.1894563"><ele>303.0</ele><time>2026-05-02T12:29:18.321Z</time></trkpt><trkpt lat="43.5301438" lon="12.1893349"><ele>303.0</ele><time>2026-05-02T12:29:19.319Z</time></trkpt><trkpt lat="43.5303188" lon="12.1892171"><ele>303.0</ele><time>2026-05-02T12:29:20.319Z</time></trkpt><trkpt lat="43.5304949" lon="12.1890891"><ele>303.0</ele><time>2026-05-02T12:29:21.322Z</time></trkpt><trkpt lat="43.5306688" lon="12.1889699"><ele>302.6666666666667</ele><time>2026-05-02T12:29:22.318Z</time></trkpt><trkpt lat="43.5308432" lon="12.1888466"><ele>302.33333333333337</ele><time>2026-05-02T12:29:23.319Z</time></trkpt><trkpt lat="43.5310169" lon="12.1887265"><ele>302.0</ele><time>2026-05-02T12:29:24.32Z</time></trkpt><trkpt lat="43.5311872" lon="12.1886103"><ele>302.0</ele><time>2026-05-02T12:29:25.319Z</time></trkpt><trkpt lat="43.5313592" lon="12.1884844"><ele>302.0</ele><time>2026-05-02T12:29:26.32Z</time></trkpt><trkpt lat="43.5315366" lon="12.1883506"><ele>302.0</ele><time>2026-05-02T12:29:27.32Z</time></trkpt><trkpt lat="43.5317179" lon="12.1882193"><ele>302.0</ele><time>2026-05-02T12:29:28.319Z</time></trkpt><trkpt lat="43.5319049" lon="12.1880804"><ele>302.0</ele><time>2026-05-02T12:29:29.318Z</time></trkpt><trkpt lat="43.5320955" lon="12.1879456"><ele>302.0</ele><time>2026-05-02T12:29:30.319Z</time></trkpt><trkpt lat="43.5322864" lon="12.1878109"><ele>302.0</ele><time>2026-05-02T12:29:31.319Z</time></trkpt><trkpt lat="43.5324659" lon="12.1876825"><ele>302.0</ele><time>2026-05-02T12:29:32.315Z</time></trkpt><trkpt lat="43.5326433" lon="12.1875578"><ele>302.0</ele><time>2026-05-02T12:29:33.319Z</time></trkpt><trkpt lat="43.5328195" lon="12.1874314"><ele>303.33333333333337</ele><time>2026-05-02T12:29:34.321Z</time></trkpt><trkpt lat="43.5329928" lon="12.1873141"><ele>304.6666666666667</ele><time>2026-05-02T12:29:35.32Z</time></trkpt><trkpt lat="43.5331622" lon="12.1871979"><ele>306.0</ele><time>2026-05-02T12:29:36.319Z</time></trkpt><trkpt lat="43.533332" lon="12.1870811"><ele>306.0</ele><time>2026-05-02T12:29:37.32Z</time></trkpt><trkpt lat="43.5335018" lon="12.18696"><ele>306.0</ele><time>2026-05-02T12:29:38.32Z</time></trkpt><trkpt lat="43.5336697" lon="12.1868388"><ele>306.0</ele><time>2026-05-02T12:29:39.322Z</time></trkpt><trkpt lat="43.5338367" lon="12.1867197"><ele>306.0</ele><time>2026-05-02T12:29:40.32Z</time></trkpt><trkpt lat="43.5340097" lon="12.1865973"><ele>306.0</ele><time>2026-05-02T12:29:41.313Z</time></trkpt><trkpt lat="43.5341839" lon="12.1864759"><ele>306.0</ele><time>2026-05-02T12:29:42.32Z</time></trkpt><trkpt lat="43.5343598" lon="12.1863561"><ele>306.3333333333333</ele><time>2026-05-02T12:29:43.315Z</time></trkpt><trkpt lat="43.5345368" lon="12.186238"><ele>306.66666666666663</ele><time>2026-05-02T12:29:44.323Z</time></trkpt><trkpt lat="43.5347131" lon="12.1861136"><ele>307.0</ele><time>2026-05-02T12:29:45.32Z</time></trkpt><trkpt lat="43.5348914" lon="12.1859794"><ele>307.66666666666663</ele><time>2026-05-02T12:29:46.321Z</time></trkpt><trkpt lat="43.5350706" lon="12.1858353"><ele>308.3333333333333</ele><time>2026-05-02T12:29:47.32Z</time></trkpt><trkpt lat="43.5352372" lon="12.1856459"><ele>309.0</ele><time>2026-05-02T12:29:48.319Z</time></trkpt><trkpt lat="43.5354029" lon="12.1854618"><ele>310.0</ele><time>2026-05-02T12:29:49.32Z</time></trkpt><trkpt lat="43.5355638" lon="12.1852768"><ele>311.0</ele><time>2026-05-02T12:29:50.319Z</time></trkpt><trkpt lat="43.5357289" lon="12.185102"><ele>312.0</ele><time>2026-05-02T12:29:51.318Z</time></trkpt><trkpt lat="43.5358825" lon="12.1849115"><ele>311.0</ele><time>2026-05-02T12:29:52.319Z</time></trkpt><trkpt lat="43.5360381" lon="12.1847387"><ele>310.0</ele><time>2026-05-02T12:29:53.32Z</time></trkpt><trkpt lat="43.5361921" lon="12.1845672"><ele>309.0</ele><time>2026-05-02T12:29:54.319Z</time></trkpt><trkpt lat="43.5363591" lon="12.1844068"><ele>309.0</ele><time>2026-05-02T12:29:55.318Z</time></trkpt><trkpt lat="43.5365385" lon="12.1842746"><ele>309.0</ele><time>2026-05-02T12:29:56.32Z</time></trkpt><trkpt lat="43.5367219" lon="12.1841639"><ele>309.0</ele><time>2026-05-02T12:29:57.32Z</time></trkpt><trkpt lat="43.5369124" lon="12.1840782"><ele>309.0</ele><time>2026-05-02T12:29:58.319Z</time></trkpt><trkpt lat="43.5371096" lon="12.1840064"><ele>309.0</ele><time>2026-05-02T12:29:59.313Z</time></trkpt><trkpt lat="43.5373052" lon="12.1839478"><ele>309.0</ele><time>2026-05-02T12:30:00.344Z</time></trkpt><trkpt lat="43.5374961" lon="12.1838927"><ele>309.0</ele><time>2026-05-02T12:30:01.319Z</time></trkpt><trkpt lat="43.537683" lon="12.1838316"><ele>309.0</ele><time>2026-05-02T12:30:02.318Z</time></trkpt><trkpt lat="43.5378675" lon="12.1837617"><ele>309.0</ele><time>2026-05-02T12:30:03.319Z</time></trkpt><trkpt lat="43.5380512" lon="12.1836702"><ele>309.3333333333333</ele><time>2026-05-02T12:30:04.319Z</time></trkpt><trkpt lat="43.5382361" lon="12.183554"><ele>309.66666666666663</ele><time>2026-05-02T12:30:05.32Z</time></trkpt><trkpt lat="43.5384227" lon="12.1834257"><ele>310.0</ele><time>2026-05-02T12:30:06.322Z</time></trkpt><trkpt lat="43.5386126" lon="12.1832952"><ele>310.0</ele><time>2026-05-02T12:30:07.314Z</time></trkpt><trkpt lat="43.5388029" lon="12.183158"><ele>310.0</ele><time>2026-05-02T12:30:08.318Z</time></trkpt><trkpt lat="43.5389951" lon="12.1830205"><ele>310.0</ele><time>2026-05-02T12:30:09.319Z</time></trkpt><trkpt lat="43.5391851" lon="12.1828858"><ele>310.0</ele><time>2026-05-02T12:30:10.318Z</time></trkpt><trkpt lat="43.5393718" lon="12.1827598"><ele>310.0</ele><time>2026-05-02T12:30:11.32Z</time></trkpt><trkpt lat="43.5395429" lon="12.1826399"><ele>310.0</ele><time>2026-05-02T12:30:12.319Z</time></trkpt><trkpt lat="43.5397079" lon="12.1825257"><ele>310.3333333333333</ele><time>2026-05-02T12:30:13.311Z</time></trkpt><trkpt lat="43.5398643" lon="12.1824133"><ele>310.6666666666667</ele><time>2026-05-02T12:30:14.319Z</time></trkpt><trkpt lat="43.5400129" lon="12.1823125"><ele>311.0</ele><time>2026-05-02T12:30:15.313Z</time></trkpt><trkpt lat="43.5401542" lon="12.182214"><ele>311.0</ele><time>2026-05-02T12:30:16.345Z</time></trkpt><trkpt lat="43.5402836" lon="12.1821183"><ele>311.0</ele><time>2026-05-02T12:30:17.321Z</time></trkpt><trkpt lat="43.5404103" lon="12.1820292"><ele>311.0</ele><time>2026-05-02T12:30:18.318Z</time></trkpt><trkpt lat="43.5405361" lon="12.1819436"><ele>311.0</ele><time>2026-05-02T12:30:19.319Z</time></trkpt><trkpt lat="43.5406696" lon="12.1818464"><ele>311.6666666666667</ele><time>2026-05-02T12:30:20.32Z</time></trkpt><trkpt lat="43.5408062" lon="12.181745"><ele>312.3333333333333</ele><time>2026-05-02T12:30:21.319Z</time></trkpt><trkpt lat="43.5409513" lon="12.1816425"><ele>313.0</ele><time>2026-05-02T12:30:22.319Z</time></trkpt><trkpt lat="43.5411002" lon="12.1815331"><ele>313.0</ele><time>2026-05-02T12:30:23.315Z</time></trkpt><trkpt lat="43.5412553" lon="12.1814196"><ele>313.0</ele><time>2026-05-02T12:30:24.32Z</time></trkpt><trkpt lat="43.541415" lon="12.1813171"><ele>313.0</ele><time>2026-05-02T12:30:25.313Z</time></trkpt><trkpt lat="43.5415814" lon="12.1812117"><ele>313.0</ele><time>2026-05-02T12:30:26.321Z</time></trkpt><trkpt lat="43.5417507" lon="12.1811098"><ele>313.0</ele><time>2026-05-02T12:30:27.32Z</time></trkpt><trkpt lat="43.5419257" lon="12.1810074"><ele>313.0</ele><time>2026-05-02T12:30:28.319Z</time></trkpt><trkpt lat="43.5420996" lon="12.1809089"><ele>313.66666666666663</ele><time>2026-05-02T12:30:29.319Z</time></trkpt><trkpt lat="43.5422788" lon="12.1808082"><ele>314.3333333333333</ele><time>2026-05-02T12:30:30.32Z</time></trkpt><trkpt lat="43.54246" lon="12.1806999"><ele>315.0</ele><time>2026-05-02T12:30:31.315Z</time></trkpt><trkpt lat="43.5426397" lon="12.1805944"><ele>315.0</ele><time>2026-05-02T12:30:32.32Z</time></trkpt><trkpt lat="43.5428198" lon="12.1804925"><ele>315.0</ele><time>2026-05-02T12:30:33.32Z</time></trkpt><trkpt lat="43.5429982" lon="12.1803949"><ele>315.0</ele><time>2026-05-02T12:30:34.318Z</time></trkpt><trkpt lat="43.5431646" lon="12.1803016"><ele>316.0</ele><time>2026-05-02T12:30:35.319Z</time></trkpt><trkpt lat="43.5433123" lon="12.1802143"><ele>317.0</ele><time>2026-05-02T12:30:36.318Z</time></trkpt><trkpt lat="43.5434492" lon="12.1801315"><ele>318.0</ele><time>2026-05-02T12:30:37.319Z</time></trkpt><trkpt lat="43.5435971" lon="12.1800493"><ele>318.3333333333333</ele><time>2026-05-02T12:30:38.319Z</time></trkpt><trkpt lat="43.543752" lon="12.1799694"><ele>318.66666666666663</ele><time>2026-05-02T12:30:39.317Z</time></trkpt><trkpt lat="43.5439122" lon="12.179881"><ele>319.0</ele><time>2026-05-02T12:30:40.319Z</time></trkpt><trkpt lat="43.544068" lon="12.179791"><ele>319.3333333333333</ele><time>2026-05-02T12:30:41.32Z</time></trkpt><trkpt lat="43.544224" lon="12.1797036"><ele>319.6666666666667</ele><time>2026-05-02T12:30:42.319Z</time></trkpt><trkpt lat="43.5443764" lon="12.1796157"><ele>320.0</ele><time>2026-05-02T12:30:43.319Z</time></trkpt><trkpt lat="43.54453" lon="12.1795271"><ele>320.6666666666667</ele><time>2026-05-02T12:30:44.319Z</time></trkpt><trkpt lat="43.5446861" lon="12.1794376"><ele>321.3333333333333</ele><time>2026-05-02T12:30:45.315Z</time></trkpt><trkpt lat="43.5448336" lon="12.1793506"><ele>322.0</ele><time>2026-05-02T12:30:46.319Z</time></trkpt><trkpt lat="43.5449812" lon="12.1792645"><ele>322.0</ele><time>2026-05-02T12:30:47.315Z</time></trkpt><trkpt lat="43.5451288" lon="12.1791828"><ele>322.0</ele><time>2026-05-02T12:30:48.319Z</time></trkpt><trkpt lat="43.5452763" lon="12.1791059"><ele>322.0</ele><time>2026-05-02T12:30:49.32Z</time></trkpt><trkpt lat="43.5454256" lon="12.1790288"><ele>322.3333333333333</ele><time>2026-05-02T12:30:50.318Z</time></trkpt><trkpt lat="43.5455738" lon="12.178944"><ele>322.6666666666667</ele><time>2026-05-02T12:30:51.317Z</time></trkpt><trkpt lat="43.5457301" lon="12.1788642"><ele>323.0</ele><time>2026-05-02T12:30:52.318Z</time></trkpt><trkpt lat="43.5458835" lon="12.1787815"><ele>323.0</ele><time>2026-05-02T12:30:53.319Z</time></trkpt><trkpt lat="43.5460378" lon="12.1786919"><ele>323.0</ele><time>2026-05-02T12:30:54.32Z</time></trkpt><trkpt lat="43.5461865" lon="12.1786039"><ele>323.0</ele><time>2026-05-02T12:30:55.317Z</time></trkpt><trkpt lat="43.5463249" lon="12.1785272"><ele>323.5</ele><time>2026-05-02T12:30:56.322Z</time></trkpt><trkpt lat="43.546461" lon="12.1784537"><ele>324.0</ele><time>2026-05-02T12:30:57.321Z</time></trkpt><trkpt lat="43.5465936" lon="12.178383"><ele>324.5</ele><time>2026-05-02T12:30:58.317Z</time></trkpt><trkpt lat="43.5467321" lon="12.1783087"><ele>325.0</ele><time>2026-05-02T12:30:59.319Z</time></trkpt><trkpt lat="43.5468695" lon="12.1782267"><ele>325.0</ele><time>2026-05-02T12:31:00.319Z</time></trkpt><trkpt lat="43.5470001" lon="12.1781519"><ele>325.0</ele><time>2026-05-02T12:31:01.319Z</time></trkpt><trkpt lat="43.547119" lon="12.1780838"><ele>325.0</ele><time>2026-05-02T12:31:02.32Z</time></trkpt><trkpt lat="43.547231" lon="12.1780199"><ele>325.0</ele><time>2026-05-02T12:31:03.314Z</time></trkpt><trkpt lat="43.5473403" lon="12.1779583"><ele>325.3333333333333</ele><time>2026-05-02T12:31:04.317Z</time></trkpt><trkpt lat="43.5474387" lon="12.177894"><ele>325.66666666666663</ele><time>2026-05-02T12:31:05.318Z</time></trkpt><trkpt lat="43.5475282" lon="12.1778476"><ele>326.0</ele><time>2026-05-02T12:31:06.32Z</time></trkpt><trkpt lat="43.5476161" lon="12.1777984"><ele>326.3333333333333</ele><time>2026-05-02T12:31:07.319Z</time></trkpt><trkpt lat="43.5476881" lon="12.1777566"><ele>326.6666666666667</ele><time>2026-05-02T12:31:08.319Z</time></trkpt><trkpt lat="43.5477518" lon="12.1777179"><ele>327.0</ele><time>2026-05-02T12:31:09.318Z</time></trkpt><trkpt lat="43.5478708" lon="12.1776459"><ele>327.40000000000003</ele><time>2026-05-02T12:31:11.318Z</time></trkpt><trkpt lat="43.5479293" lon="12.1776123"><ele>327.8</ele><time>2026-05-02T12:31:12.319Z</time></trkpt><trkpt lat="43.5480688" lon="12.1775318"><ele>328.2</ele><time>2026-05-02T12:31:15.325Z</time></trkpt><trkpt lat="43.5481511" lon="12.1774671"><ele>328.6</ele><time>2026-05-02T12:31:17.32Z</time></trkpt><trkpt lat="43.548204" lon="12.1773625"><ele>329.0</ele><time>2026-05-02T12:31:19.316Z</time></trkpt><trkpt lat="43.5482861" lon="12.1772328"><ele>329.0</ele><time>2026-05-02T12:31:21.315Z</time></trkpt><trkpt lat="43.5483372" lon="12.1771646"><ele>329.0</ele><time>2026-05-02T12:31:22.319Z</time></trkpt><trkpt lat="43.5483896" lon="12.1770946"><ele>329.0</ele><time>2026-05-02T12:31:23.319Z</time></trkpt><trkpt lat="43.5484448" lon="12.1770235"><ele>329.0</ele><time>2026-05-02T12:31:24.32Z</time></trkpt><trkpt lat="43.5485019" lon="12.1769444"><ele>329.0</ele><time>2026-05-02T12:31:25.318Z</time></trkpt><trkpt lat="43.5485625" lon="12.1768611"><ele>329.0</ele><time>2026-05-02T12:31:26.318Z</time></trkpt><trkpt lat="43.5486276" lon="12.1767759"><ele>329.0</ele><time>2026-05-02T12:31:27.316Z</time></trkpt><trkpt lat="43.5486964" lon="12.1766774"><ele>329.0</ele><time>2026-05-02T12:31:28.323Z</time></trkpt><trkpt lat="43.5487744" lon="12.1765723"><ele>329.0</ele><time>2026-05-02T12:31:29.32Z</time></trkpt><trkpt lat="43.5488517" lon="12.1764568"><ele>329.0</ele><time>2026-05-02T12:31:30.319Z</time></trkpt><trkpt lat="43.548931" lon="12.1763479"><ele>329.0</ele><time>2026-05-02T12:31:31.32Z</time></trkpt><trkpt lat="43.5490123" lon="12.1762278"><ele>329.75</ele><time>2026-05-02T12:31:32.32Z</time></trkpt><trkpt lat="43.5490988" lon="12.1761078"><ele>330.5</ele><time>2026-05-02T12:31:33.32Z</time></trkpt><trkpt lat="43.5491913" lon="12.1759774"><ele>331.25</ele><time>2026-05-02T12:31:34.317Z</time></trkpt><trkpt lat="43.5492926" lon="12.1758439"><ele>332.0</ele><time>2026-05-02T12:31:35.318Z</time></trkpt><trkpt lat="43.5493885" lon="12.1757174"><ele>331.75</ele><time>2026-05-02T12:31:36.32Z</time></trkpt><trkpt lat="43.5494863" lon="12.1755945"><ele>331.5</ele><time>2026-05-02T12:31:37.319Z</time></trkpt><trkpt lat="43.5495857" lon="12.1754693"><ele>331.25</ele><time>2026-05-02T12:31:38.319Z</time></trkpt><trkpt lat="43.5496827" lon="12.1753334"><ele>331.0</ele><time>2026-05-02T12:31:39.32Z</time></trkpt><trkpt lat="43.5497837" lon="12.1751941"><ele>331.0</ele><time>2026-05-02T12:31:40.319Z</time></trkpt><trkpt lat="43.5498847" lon="12.1750555"><ele>331.0</ele><time>2026-05-02T12:31:41.319Z</time></trkpt><trkpt lat="43.549995" lon="12.174905"><ele>331.0</ele><time>2026-05-02T12:31:42.321Z</time></trkpt><trkpt lat="43.5501104" lon="12.1747535"><ele>330.66666666666663</ele><time>2026-05-02T12:31:43.317Z</time></trkpt><trkpt lat="43.5502257" lon="12.1745908"><ele>330.3333333333333</ele><time>2026-05-02T12:31:44.319Z</time></trkpt><trkpt lat="43.5503357" lon="12.1744329"><ele>330.0</ele><time>2026-05-02T12:31:45.32Z</time></trkpt><trkpt lat="43.5504498" lon="12.1742762"><ele>330.0</ele><time>2026-05-02T12:31:46.32Z</time></trkpt><trkpt lat="43.5505649" lon="12.17411"><ele>330.0</ele><time>2026-05-02T12:31:47.319Z</time></trkpt><trkpt lat="43.550684" lon="12.1739456"><ele>330.0</ele><time>2026-05-02T12:31:48.319Z</time></trkpt><trkpt lat="43.5508049" lon="12.1737699"><ele>329.3333333333333</ele><time>2026-05-02T12:31:49.319Z</time></trkpt><trkpt lat="43.5509292" lon="12.1735883"><ele>328.66666666666663</ele><time>2026-05-02T12:31:50.319Z</time></trkpt><trkpt lat="43.5510575" lon="12.1734057"><ele>328.0</ele><time>2026-05-02T12:31:51.318Z</time></trkpt><trkpt lat="43.5511816" lon="12.1732255"><ele>328.0</ele><time>2026-05-02T12:31:52.319Z</time></trkpt><trkpt lat="43.5513067" lon="12.1730554"><ele>328.0</ele><time>2026-05-02T12:31:53.32Z</time></trkpt><trkpt lat="43.5514269" lon="12.172887"><ele>328.0</ele><time>2026-05-02T12:31:54.32Z</time></trkpt><trkpt lat="43.551543" lon="12.1727251"><ele>328.0</ele><time>2026-05-02T12:31:55.32Z</time></trkpt><trkpt lat="43.5516516" lon="12.1725659"><ele>328.0</ele><time>2026-05-02T12:31:56.32Z</time></trkpt><trkpt lat="43.551762" lon="12.1724"><ele>328.0</ele><time>2026-05-02T12:31:57.318Z</time></trkpt><trkpt lat="43.551875" lon="12.1722342"><ele>327.66666666666663</ele><time>2026-05-02T12:31:58.319Z</time></trkpt><trkpt lat="43.551986" lon="12.1720669"><ele>327.3333333333333</ele><time>2026-05-02T12:31:59.318Z</time></trkpt><trkpt lat="43.5521097" lon="12.1719066"><ele>327.0</ele><time>2026-05-02T12:32:00.321Z</time></trkpt><trkpt lat="43.5522372" lon="12.1717436"><ele>327.0</ele><time>2026-05-02T12:32:01.32Z</time></trkpt><trkpt lat="43.5523584" lon="12.1715736"><ele>327.0</ele><time>2026-05-02T12:32:02.319Z</time></trkpt><trkpt lat="43.5524834" lon="12.171402"><ele>327.0</ele><time>2026-05-02T12:32:03.317Z</time></trkpt><trkpt lat="43.5526097" lon="12.1712302"><ele>327.6666666666667</ele><time>2026-05-02T12:32:04.319Z</time></trkpt><trkpt lat="43.5527358" lon="12.1710549"><ele>328.33333333333337</ele><time>2026-05-02T12:32:05.318Z</time></trkpt><trkpt lat="43.5528614" lon="12.1708771"><ele>329.0</ele><time>2026-05-02T12:32:06.314Z</time></trkpt><trkpt lat="43.552981" lon="12.170702"><ele>328.6666666666667</ele><time>2026-05-02T12:32:07.319Z</time></trkpt><trkpt lat="43.5531016" lon="12.1705211"><ele>328.3333333333333</ele><time>2026-05-02T12:32:08.312Z</time></trkpt><trkpt lat="43.553233" lon="12.1703442"><ele>328.0</ele><time>2026-05-02T12:32:09.32Z</time></trkpt><trkpt lat="43.553374" lon="12.1701726"><ele>328.0</ele><time>2026-05-02T12:32:10.32Z</time></trkpt><trkpt lat="43.5535193" lon="12.1700165"><ele>328.0</ele><time>2026-05-02T12:32:11.318Z</time></trkpt><trkpt lat="43.5536647" lon="12.1698677"><ele>328.0</ele><time>2026-05-02T12:32:12.32Z</time></trkpt><trkpt lat="43.5538165" lon="12.1697081"><ele>327.66666666666663</ele><time>2026-05-02T12:32:13.319Z</time></trkpt><trkpt lat="43.5539654" lon="12.1695499"><ele>327.3333333333333</ele><time>2026-05-02T12:32:14.319Z</time></trkpt><trkpt lat="43.55412" lon="12.1693851"><ele>327.0</ele><time>2026-05-02T12:32:15.32Z</time></trkpt><trkpt lat="43.5542746" lon="12.1692224"><ele>327.0</ele><time>2026-05-02T12:32:16.317Z</time></trkpt><trkpt lat="43.5544319" lon="12.1690525"><ele>327.0</ele><time>2026-05-02T12:32:17.319Z</time></trkpt><trkpt lat="43.5545922" lon="12.1688922"><ele>327.0</ele><time>2026-05-02T12:32:18.319Z</time></trkpt><trkpt lat="43.5547581" lon="12.1687281"><ele>328.0</ele><time>2026-05-02T12:32:19.319Z</time></trkpt><trkpt lat="43.5549233" lon="12.1685623"><ele>329.0</ele><time>2026-05-02T12:32:20.319Z</time></trkpt><trkpt lat="43.5550904" lon="12.168396"><ele>330.0</ele><time>2026-05-02T12:32:21.32Z</time></trkpt><trkpt lat="43.5552579" lon="12.1682296"><ele>330.3333333333333</ele><time>2026-05-02T12:32:22.319Z</time></trkpt><trkpt lat="43.5554224" lon="12.1680547"><ele>330.66666666666663</ele><time>2026-05-02T12:32:23.319Z</time></trkpt><trkpt lat="43.5555915" lon="12.1678759"><ele>331.0</ele><time>2026-05-02T12:32:24.314Z</time></trkpt><trkpt lat="43.5557614" lon="12.1676961"><ele>331.0</ele><time>2026-05-02T12:32:25.319Z</time></trkpt><trkpt lat="43.5559404" lon="12.1675225"><ele>331.0</ele><time>2026-05-02T12:32:26.319Z</time></trkpt><trkpt lat="43.556119" lon="12.167339"><ele>331.0</ele><time>2026-05-02T12:32:27.319Z</time></trkpt><trkpt lat="43.5562995" lon="12.1671511"><ele>330.5</ele><time>2026-05-02T12:32:28.319Z</time></trkpt><trkpt lat="43.5564792" lon="12.1669657"><ele>330.0</ele><time>2026-05-02T12:32:29.319Z</time></trkpt><trkpt lat="43.5566654" lon="12.1667812"><ele>330.0</ele><time>2026-05-02T12:32:30.32Z</time></trkpt><trkpt lat="43.5568484" lon="12.1665948"><ele>330.0</ele><time>2026-05-02T12:32:31.319Z</time></trkpt><trkpt lat="43.557037" lon="12.166412"><ele>329.5</ele><time>2026-05-02T12:32:32.319Z</time></trkpt><trkpt lat="43.5572237" lon="12.1662253"><ele>329.0</ele><time>2026-05-02T12:32:33.32Z</time></trkpt><trkpt lat="43.5574031" lon="12.1660412"><ele>329.0</ele><time>2026-05-02T12:32:34.319Z</time></trkpt><trkpt lat="43.5575791" lon="12.1658638"><ele>329.0</ele><time>2026-05-02T12:32:35.319Z</time></trkpt><trkpt lat="43.5577458" lon="12.1656897"><ele>329.0</ele><time>2026-05-02T12:32:36.32Z</time></trkpt><trkpt lat="43.5579031" lon="12.1655258"><ele>328.6666666666667</ele><time>2026-05-02T12:32:37.319Z</time></trkpt><trkpt lat="43.5580518" lon="12.1653747"><ele>328.3333333333333</ele><time>2026-05-02T12:32:38.312Z</time></trkpt><trkpt lat="43.5581951" lon="12.1652287"><ele>328.0</ele><time>2026-05-02T12:32:39.319Z</time></trkpt><trkpt lat="43.5583309" lon="12.1650876"><ele>328.0</ele><time>2026-05-02T12:32:40.314Z</time></trkpt><trkpt lat="43.5584615" lon="12.1649476"><ele>328.0</ele><time>2026-05-02T12:32:41.319Z</time></trkpt><trkpt lat="43.5585956" lon="12.1648071"><ele>328.0</ele><time>2026-05-02T12:32:42.314Z</time></trkpt><trkpt lat="43.5587289" lon="12.1646651"><ele>328.0</ele><time>2026-05-02T12:32:43.319Z</time></trkpt><trkpt lat="43.558866" lon="12.1645238"><ele>328.0</ele><time>2026-05-02T12:32:44.32Z</time></trkpt><trkpt lat="43.5590045" lon="12.1643862"><ele>328.0</ele><time>2026-05-02T12:32:45.319Z</time></trkpt><trkpt lat="43.5591447" lon="12.164252"><ele>328.0</ele><time>2026-05-02T12:32:46.321Z</time></trkpt><trkpt lat="43.559284" lon="12.1641156"><ele>328.0</ele><time>2026-05-02T12:32:47.318Z</time></trkpt><trkpt lat="43.559418" lon="12.1639828"><ele>328.0</ele><time>2026-05-02T12:32:48.313Z</time></trkpt><trkpt lat="43.5595469" lon="12.1638485"><ele>328.3333333333333</ele><time>2026-05-02T12:32:49.321Z</time></trkpt><trkpt lat="43.5596751" lon="12.1637183"><ele>328.6666666666667</ele><time>2026-05-02T12:32:50.32Z</time></trkpt><trkpt lat="43.5598023" lon="12.1635874"><ele>329.0</ele><time>2026-05-02T12:32:51.32Z</time></trkpt><trkpt lat="43.5599275" lon="12.1634594"><ele>329.0</ele><time>2026-05-02T12:32:52.319Z</time></trkpt><trkpt lat="43.5600512" lon="12.1633287"><ele>329.0</ele><time>2026-05-02T12:32:53.319Z</time></trkpt><trkpt lat="43.5601802" lon="12.1632009"><ele>329.0</ele><time>2026-05-02T12:32:54.32Z</time></trkpt><trkpt lat="43.5603082" lon="12.1630715"><ele>329.25</ele><time>2026-05-02T12:32:55.322Z</time></trkpt><trkpt lat="43.5604302" lon="12.1629442"><ele>329.5</ele><time>2026-05-02T12:32:56.313Z</time></trkpt><trkpt lat="43.5605486" lon="12.1628248"><ele>329.75</ele><time>2026-05-02T12:32:57.319Z</time></trkpt><trkpt lat="43.5606591" lon="12.1627122"><ele>330.0</ele><time>2026-05-02T12:32:58.318Z</time></trkpt><trkpt lat="43.5607626" lon="12.1626056"><ele>330.0</ele><time>2026-05-02T12:32:59.319Z</time></trkpt><trkpt lat="43.5608628" lon="12.1625074"><ele>330.0</ele><time>2026-05-02T12:33:00.32Z</time></trkpt><trkpt lat="43.5609567" lon="12.1624114"><ele>330.0</ele><time>2026-05-02T12:33:01.32Z</time></trkpt><trkpt lat="43.5610474" lon="12.1623179"><ele>330.0</ele><time>2026-05-02T12:33:02.32Z</time></trkpt><trkpt lat="43.5611415" lon="12.1622377"><ele>329.8</ele><time>2026-05-02T12:33:03.319Z</time></trkpt><trkpt lat="43.5612352" lon="12.1621787"><ele>329.6</ele><time>2026-05-02T12:33:04.315Z</time></trkpt><trkpt lat="43.5613275" lon="12.1621289"><ele>329.4</ele><time>2026-05-02T12:33:05.321Z</time></trkpt><trkpt lat="43.5614156" lon="12.162074"><ele>329.2</ele><time>2026-05-02T12:33:06.32Z</time></trkpt><trkpt lat="43.5614939" lon="12.1619826"><ele>329.0</ele><time>2026-05-02T12:33:07.319Z</time></trkpt><trkpt lat="43.561559" lon="12.1618658"><ele>329.0</ele><time>2026-05-02T12:33:08.32Z</time></trkpt><trkpt lat="43.5616401" lon="12.1617431"><ele>329.0</ele><time>2026-05-02T12:33:09.32Z</time></trkpt><trkpt lat="43.5617415" lon="12.16162"><ele>329.0</ele><time>2026-05-02T12:33:10.314Z</time></trkpt><trkpt lat="43.5618435" lon="12.1615107"><ele>329.0</ele><time>2026-05-02T12:33:11.319Z</time></trkpt><trkpt lat="43.5619486" lon="12.1614017"><ele>329.5</ele><time>2026-05-02T12:33:12.317Z</time></trkpt><trkpt lat="43.5620601" lon="12.1612884"><ele>330.0</ele><time>2026-05-02T12:33:13.32Z</time></trkpt><trkpt lat="43.5621713" lon="12.1611666"><ele>330.5</ele><time>2026-05-02T12:33:14.319Z</time></trkpt><trkpt lat="43.5622868" lon="12.1610453"><ele>331.0</ele><time>2026-05-02T12:33:15.32Z</time></trkpt><trkpt lat="43.5624072" lon="12.1609248"><ele>331.0</ele><time>2026-05-02T12:33:16.319Z</time></trkpt><trkpt lat="43.5625277" lon="12.1608029"><ele>331.0</ele><time>2026-05-02T12:33:17.319Z</time></trkpt><trkpt lat="43.5626512" lon="12.1606787"><ele>331.0</ele><time>2026-05-02T12:33:18.318Z</time></trkpt><trkpt lat="43.5627741" lon="12.1605499"><ele>331.0</ele><time>2026-05-02T12:33:19.318Z</time></trkpt><trkpt lat="43.5628956" lon="12.160423"><ele>331.0</ele><time>2026-05-02T12:33:20.315Z</time></trkpt><trkpt lat="43.5630203" lon="12.160295"><ele>331.0</ele><time>2026-05-02T12:33:21.321Z</time></trkpt><trkpt lat="43.5631463" lon="12.1601683"><ele>331.0</ele><time>2026-05-02T12:33:22.317Z</time></trkpt><trkpt lat="43.5632709" lon="12.1600456"><ele>331.0</ele><time>2026-05-02T12:33:23.318Z</time></trkpt><trkpt lat="43.5633907" lon="12.1599244"><ele>331.0</ele><time>2026-05-02T12:33:24.32Z</time></trkpt><trkpt lat="43.5635182" lon="12.1597833"><ele>330.66666666666663</ele><time>2026-05-02T12:33:25.318Z</time></trkpt><trkpt lat="43.5636462" lon="12.1596592"><ele>330.3333333333333</ele><time>2026-05-02T12:33:26.32Z</time></trkpt><trkpt lat="43.5637752" lon="12.1595215"><ele>330.0</ele><time>2026-05-02T12:33:27.318Z</time></trkpt><trkpt lat="43.5639096" lon="12.1593807"><ele>330.0</ele><time>2026-05-02T12:33:28.315Z</time></trkpt><trkpt lat="43.5640467" lon="12.1592363"><ele>330.0</ele><time>2026-05-02T12:33:29.32Z</time></trkpt><trkpt lat="43.5641849" lon="12.1590889"><ele>330.0</ele><time>2026-05-02T12:33:30.316Z</time></trkpt><trkpt lat="43.5643281" lon="12.1589416"><ele>329.3333333333333</ele><time>2026-05-02T12:33:31.318Z</time></trkpt><trkpt lat="43.5644663" lon="12.1587889"><ele>328.66666666666663</ele><time>2026-05-02T12:33:32.319Z</time></trkpt><trkpt lat="43.5645982" lon="12.1586271"><ele>328.0</ele><time>2026-05-02T12:33:33.319Z</time></trkpt><trkpt lat="43.5647084" lon="12.1584585"><ele>329.0</ele><time>2026-05-02T12:33:34.319Z</time></trkpt><trkpt lat="43.5647917" lon="12.1582724"><ele>330.0</ele><time>2026-05-02T12:33:35.317Z</time></trkpt><trkpt lat="43.5648554" lon="12.1580634"><ele>331.0</ele><time>2026-05-02T12:33:36.318Z</time></trkpt><trkpt lat="43.5649162" lon="12.157849"><ele>331.0</ele><time>2026-05-02T12:33:37.349Z</time></trkpt><trkpt lat="43.5649845" lon="12.1576243"><ele>331.0</ele><time>2026-05-02T12:33:38.319Z</time></trkpt><trkpt lat="43.5650538" lon="12.1573971"><ele>331.0</ele><time>2026-05-02T12:33:39.319Z</time></trkpt><trkpt lat="43.5651232" lon="12.1571742"><ele>331.3333333333333</ele><time>2026-05-02T12:33:40.318Z</time></trkpt><trkpt lat="43.5651963" lon="12.156949"><ele>331.6666666666667</ele><time>2026-05-02T12:33:41.318Z</time></trkpt><trkpt lat="43.5652707" lon="12.1567288"><ele>332.0</ele><time>2026-05-02T12:33:42.314Z</time></trkpt><trkpt lat="43.5653468" lon="12.1565118"><ele>333.0</ele><time>2026-05-02T12:33:43.32Z</time></trkpt><trkpt lat="43.5654196" lon="12.1562968"><ele>334.0</ele><time>2026-05-02T12:33:44.317Z</time></trkpt><trkpt lat="43.5654917" lon="12.1560904"><ele>335.0</ele><time>2026-05-02T12:33:45.319Z</time></trkpt><trkpt lat="43.5655638" lon="12.1558896"><ele>334.6666666666667</ele><time>2026-05-02T12:33:46.32Z</time></trkpt><trkpt lat="43.565638" lon="12.1556926"><ele>334.3333333333333</ele><time>2026-05-02T12:33:47.319Z</time></trkpt><trkpt lat="43.5657058" lon="12.1554989"><ele>334.0</ele><time>2026-05-02T12:33:48.319Z</time></trkpt><trkpt lat="43.5657692" lon="12.1553015"><ele>334.0</ele><time>2026-05-02T12:33:49.319Z</time></trkpt><trkpt lat="43.5658357" lon="12.1551017"><ele>334.0</ele><time>2026-05-02T12:33:50.318Z</time></trkpt><trkpt lat="43.5658979" lon="12.1549043"><ele>334.0</ele><time>2026-05-02T12:33:51.319Z</time></trkpt><trkpt lat="43.5659637" lon="12.1547087"><ele>334.0</ele><time>2026-05-02T12:33:52.316Z</time></trkpt><trkpt lat="43.5660325" lon="12.1545126"><ele>334.0</ele><time>2026-05-02T12:33:53.319Z</time></trkpt><trkpt lat="43.5661018" lon="12.1543163"><ele>334.0</ele><time>2026-05-02T12:33:54.319Z</time></trkpt><trkpt lat="43.5661726" lon="12.1541168"><ele>334.3333333333333</ele><time>2026-05-02T12:33:55.32Z</time></trkpt><trkpt lat="43.5662393" lon="12.1539158"><ele>334.6666666666667</ele><time>2026-05-02T12:33:56.318Z</time></trkpt><trkpt lat="43.566306" lon="12.1537222"><ele>335.0</ele><time>2026-05-02T12:33:57.318Z</time></trkpt><trkpt lat="43.5663715" lon="12.1535335"><ele>335.0</ele><time>2026-05-02T12:33:58.32Z</time></trkpt><trkpt lat="43.5664369" lon="12.1533501"><ele>335.0</ele><time>2026-05-02T12:33:59.318Z</time></trkpt><trkpt lat="43.566498" lon="12.1531695"><ele>335.0</ele><time>2026-05-02T12:34:00.316Z</time></trkpt><trkpt lat="43.5665633" lon="12.1529896"><ele>335.0</ele><time>2026-05-02T12:34:01.319Z</time></trkpt><trkpt lat="43.566626" lon="12.1528111"><ele>334.5</ele><time>2026-05-02T12:34:02.319Z</time></trkpt><trkpt lat="43.5666855" lon="12.1526338"><ele>334.0</ele><time>2026-05-02T12:34:03.319Z</time></trkpt><trkpt lat="43.5667451" lon="12.1524677"><ele>333.5</ele><time>2026-05-02T12:34:04.32Z</time></trkpt><trkpt lat="43.5668008" lon="12.1523084"><ele>333.0</ele><time>2026-05-02T12:34:05.319Z</time></trkpt><trkpt lat="43.5668584" lon="12.1521555"><ele>333.0</ele><time>2026-05-02T12:34:06.312Z</time></trkpt><trkpt lat="43.5669124" lon="12.1520227"><ele>333.0</ele><time>2026-05-02T12:34:07.319Z</time></trkpt><trkpt lat="43.5669711" lon="12.1519115"><ele>333.0</ele><time>2026-05-02T12:34:08.317Z</time></trkpt><trkpt lat="43.5670408" lon="12.1518322"><ele>333.0</ele><time>2026-05-02T12:34:09.319Z</time></trkpt><trkpt lat="43.5671189" lon="12.1517798"><ele>333.0</ele><time>2026-05-02T12:34:10.319Z</time></trkpt><trkpt lat="43.5671981" lon="12.1517288"><ele>333.0</ele><time>2026-05-02T12:34:11.319Z</time></trkpt><trkpt lat="43.5672702" lon="12.1516441"><ele>333.0</ele><time>2026-05-02T12:34:12.318Z</time></trkpt><trkpt lat="43.5673307" lon="12.1515348"><ele>333.0</ele><time>2026-05-02T12:34:13.32Z</time></trkpt><trkpt lat="43.5673805" lon="12.1513974"><ele>333.0</ele><time>2026-05-02T12:34:14.319Z</time></trkpt><trkpt lat="43.5674231" lon="12.1512393"><ele>333.0</ele><time>2026-05-02T12:34:15.327Z</time></trkpt><trkpt lat="43.5674803" lon="12.1510777"><ele>333.0</ele><time>2026-05-02T12:34:16.317Z</time></trkpt><trkpt lat="43.5675507" lon="12.1509194"><ele>333.0</ele><time>2026-05-02T12:34:17.319Z</time></trkpt><trkpt lat="43.5676397" lon="12.1507736"><ele>333.0</ele><time>2026-05-02T12:34:18.318Z</time></trkpt><trkpt lat="43.5677329" lon="12.1506328"><ele>333.0</ele><time>2026-05-02T12:34:19.319Z</time></trkpt><trkpt lat="43.5678314" lon="12.1504982"><ele>333.5</ele><time>2026-05-02T12:34:20.317Z</time></trkpt><trkpt lat="43.5679321" lon="12.1503632"><ele>334.0</ele><time>2026-05-02T12:34:21.319Z</time></trkpt><trkpt lat="43.5680327" lon="12.1502221"><ele>334.5</ele><time>2026-05-02T12:34:22.319Z</time></trkpt><trkpt lat="43.5681387" lon="12.1500798"><ele>335.0</ele><time>2026-05-02T12:34:23.319Z</time></trkpt><trkpt lat="43.5682444" lon="12.1499349"><ele>334.6666666666667</ele><time>2026-05-02T12:34:24.317Z</time></trkpt><trkpt lat="43.5683531" lon="12.149794"><ele>334.3333333333333</ele><time>2026-05-02T12:34:25.318Z</time></trkpt><trkpt lat="43.5684608" lon="12.1496535"><ele>334.0</ele><time>2026-05-02T12:34:26.314Z</time></trkpt><trkpt lat="43.5685724" lon="12.1495042"><ele>334.0</ele><time>2026-05-02T12:34:27.319Z</time></trkpt><trkpt lat="43.5686859" lon="12.1493518"><ele>334.0</ele><time>2026-05-02T12:34:28.317Z</time></trkpt><trkpt lat="43.5688016" lon="12.1491951"><ele>334.0</ele><time>2026-05-02T12:34:29.322Z</time></trkpt><trkpt lat="43.568919" lon="12.1490354"><ele>334.3333333333333</ele><time>2026-05-02T12:34:30.319Z</time></trkpt><trkpt lat="43.5690367" lon="12.1488748"><ele>334.6666666666667</ele><time>2026-05-02T12:34:31.313Z</time></trkpt><trkpt lat="43.5691572" lon="12.1487138"><ele>335.0</ele><time>2026-05-02T12:34:32.32Z</time></trkpt><trkpt lat="43.569278" lon="12.1485496"><ele>335.0</ele><time>2026-05-02T12:34:33.318Z</time></trkpt><trkpt lat="43.5694025" lon="12.1483855"><ele>335.0</ele><time>2026-05-02T12:34:34.319Z</time></trkpt><trkpt lat="43.5695256" lon="12.148214"><ele>335.0</ele><time>2026-05-02T12:34:35.316Z</time></trkpt><trkpt lat="43.5696455" lon="12.1480527"><ele>336.6666666666667</ele><time>2026-05-02T12:34:36.317Z</time></trkpt><trkpt lat="43.5697657" lon="12.147893"><ele>338.3333333333333</ele><time>2026-05-02T12:34:37.319Z</time></trkpt><trkpt lat="43.5698805" lon="12.147731"><ele>340.0</ele><time>2026-05-02T12:34:38.319Z</time></trkpt><trkpt lat="43.5699976" lon="12.1475737"><ele>340.0</ele><time>2026-05-02T12:34:39.319Z</time></trkpt><trkpt lat="43.5701149" lon="12.147419"><ele>340.0</ele><time>2026-05-02T12:34:40.319Z</time></trkpt><trkpt lat="43.5702119" lon="12.1472934"><ele>340.0</ele><time>2026-05-02T12:34:41.317Z</time></trkpt><trkpt lat="43.5702811" lon="12.1472083"><ele>340.0</ele><time>2026-05-02T12:34:42.319Z</time></trkpt><trkpt lat="43.5703308" lon="12.1471507"><ele>340.8</ele><time>2026-05-02T12:34:44.321Z</time></trkpt><trkpt lat="43.5703964" lon="12.1470632"><ele>341.6</ele><time>2026-05-02T12:35:14.321Z</time></trkpt><trkpt lat="43.570448" lon="12.1469823"><ele>342.4</ele><time>2026-05-02T12:35:15.319Z</time></trkpt><trkpt lat="43.5704974" lon="12.1468816"><ele>343.2</ele><time>2026-05-02T12:35:16.318Z</time></trkpt><trkpt lat="43.5705625" lon="12.1467691"><ele>344.0</ele><time>2026-05-02T12:35:17.321Z</time></trkpt><trkpt lat="43.5706361" lon="12.1466358"><ele>344.5</ele><time>2026-05-02T12:35:18.319Z</time></trkpt><trkpt lat="43.5707147" lon="12.1464879"><ele>345.0</ele><time>2026-05-02T12:35:19.32Z</time></trkpt><trkpt lat="43.5707914" lon="12.1463279"><ele>345.5</ele><time>2026-05-02T12:35:20.32Z</time></trkpt><trkpt lat="43.5708674" lon="12.1461517"><ele>346.0</ele><time>2026-05-02T12:35:21.313Z</time></trkpt><trkpt lat="43.5709416" lon="12.1459651"><ele>346.0</ele><time>2026-05-02T12:35:22.322Z</time></trkpt><trkpt lat="43.5710122" lon="12.145772"><ele>346.0</ele><time>2026-05-02T12:35:23.323Z</time></trkpt><trkpt lat="43.571076" lon="12.1455908"><ele>346.0</ele><time>2026-05-02T12:35:24.321Z</time></trkpt><trkpt lat="43.5711412" lon="12.1454117"><ele>346.0</ele><time>2026-05-02T12:35:25.319Z</time></trkpt><trkpt lat="43.5712112" lon="12.1452351"><ele>345.3333333333333</ele><time>2026-05-02T12:35:26.319Z</time></trkpt><trkpt lat="43.5712806" lon="12.1450485"><ele>344.6666666666667</ele><time>2026-05-02T12:35:27.319Z</time></trkpt><trkpt lat="43.5713477" lon="12.1448601"><ele>344.0</ele><time>2026-05-02T12:35:28.32Z</time></trkpt><trkpt lat="43.5714142" lon="12.14467"><ele>344.0</ele><time>2026-05-02T12:35:29.315Z</time></trkpt><trkpt lat="43.571483" lon="12.1444827"><ele>344.0</ele><time>2026-05-02T12:35:30.319Z</time></trkpt><trkpt lat="43.5715545" lon="12.1443079"><ele>344.0</ele><time>2026-05-02T12:35:31.323Z</time></trkpt><trkpt lat="43.5716275" lon="12.1441385"><ele>344.0</ele><time>2026-05-02T12:35:32.319Z</time></trkpt><trkpt lat="43.5717077" lon="12.1439766"><ele>343.25</ele><time>2026-05-02T12:35:33.319Z</time></trkpt><trkpt lat="43.5717867" lon="12.1438157"><ele>342.5</ele><time>2026-05-02T12:35:34.322Z</time></trkpt><trkpt lat="43.5718635" lon="12.1436553"><ele>341.75</ele><time>2026-05-02T12:35:35.315Z</time></trkpt><trkpt lat="43.5719407" lon="12.1435002"><ele>341.0</ele><time>2026-05-02T12:35:36.319Z</time></trkpt><trkpt lat="43.5720144" lon="12.1433493"><ele>341.20000000000005</ele><time>2026-05-02T12:35:37.315Z</time></trkpt><trkpt lat="43.5720854" lon="12.1432095"><ele>341.40000000000003</ele><time>2026-05-02T12:35:38.319Z</time></trkpt><trkpt lat="43.5721476" lon="12.143074"><ele>341.6</ele><time>2026-05-02T12:35:39.32Z</time></trkpt><trkpt lat="43.5722015" lon="12.1429543"><ele>341.8</ele><time>2026-05-02T12:35:40.319Z</time></trkpt><trkpt lat="43.57225" lon="12.14285"><ele>342.0</ele><time>2026-05-02T12:35:41.319Z</time></trkpt><trkpt lat="43.5722926" lon="12.1427677"><ele>342.0</ele><time>2026-05-02T12:35:42.319Z</time></trkpt><trkpt lat="43.5723755" lon="12.1426683"><ele>342.0</ele><time>2026-05-02T12:35:44.316Z</time></trkpt><trkpt lat="43.5724451" lon="12.1425257"><ele>342.0</ele><time>2026-05-02T12:35:46.311Z</time></trkpt><trkpt lat="43.5724702" lon="12.1424311"><ele>342.0</ele><time>2026-05-02T12:35:47.318Z</time></trkpt><trkpt lat="43.5725112" lon="12.1423374"><ele>342.0</ele><time>2026-05-02T12:35:48.321Z</time></trkpt><trkpt lat="43.5725584" lon="12.1422432"><ele>341.1666666666667</ele><time>2026-05-02T12:35:49.319Z</time></trkpt><trkpt lat="43.5726053" lon="12.1421418"><ele>340.3333333333333</ele><time>2026-05-02T12:35:50.319Z</time></trkpt><trkpt lat="43.5726517" lon="12.1420467"><ele>339.5</ele><time>2026-05-02T12:35:51.319Z</time></trkpt><trkpt lat="43.5726995" lon="12.1419569"><ele>338.66666666666663</ele><time>2026-05-02T12:35:52.32Z</time></trkpt><trkpt lat="43.5727418" lon="12.1418623"><ele>337.8333333333333</ele><time>2026-05-02T12:35:53.318Z</time></trkpt><trkpt lat="43.5727835" lon="12.1417681"><ele>337.0</ele><time>2026-05-02T12:35:54.319Z</time></trkpt><trkpt lat="43.5728275" lon="12.1416755"><ele>337.0</ele><time>2026-05-02T12:35:55.319Z</time></trkpt><trkpt lat="43.5728723" lon="12.1415866"><ele>337.0</ele><time>2026-05-02T12:35:56.32Z</time></trkpt><trkpt lat="43.5729176" lon="12.1414964"><ele>337.0</ele><time>2026-05-02T12:35:57.318Z</time></trkpt><trkpt lat="43.5729676" lon="12.1414078"><ele>337.0</ele><time>2026-05-02T12:35:58.318Z</time></trkpt><trkpt lat="43.573013" lon="12.1413171"><ele>337.0</ele><time>2026-05-02T12:35:59.319Z</time></trkpt><trkpt lat="43.5730556" lon="12.1412256"><ele>337.0</ele><time>2026-05-02T12:36:00.321Z</time></trkpt><trkpt lat="43.573096" lon="12.1411373"><ele>337.0</ele><time>2026-05-02T12:36:01.316Z</time></trkpt><trkpt lat="43.5731334" lon="12.1410489"><ele>337.0</ele><time>2026-05-02T12:36:02.319Z</time></trkpt><trkpt lat="43.5731771" lon="12.1409637"><ele>337.0</ele><time>2026-05-02T12:36:03.319Z</time></trkpt><trkpt lat="43.5732235" lon="12.1408755"><ele>337.0</ele><time>2026-05-02T12:36:04.312Z</time></trkpt><trkpt lat="43.5732762" lon="12.1407754"><ele>337.0</ele><time>2026-05-02T12:36:05.319Z</time></trkpt><trkpt lat="43.5733285" lon="12.140662"><ele>337.0</ele><time>2026-05-02T12:36:06.32Z</time></trkpt><trkpt lat="43.5733856" lon="12.1405398"><ele>336.5</ele><time>2026-05-02T12:36:07.316Z</time></trkpt><trkpt lat="43.5734446" lon="12.1404"><ele>336.0</ele><time>2026-05-02T12:36:08.321Z</time></trkpt><trkpt lat="43.5735057" lon="12.1402487"><ele>335.5</ele><time>2026-05-02T12:36:09.316Z</time></trkpt><trkpt lat="43.5735646" lon="12.1400901"><ele>335.0</ele><time>2026-05-02T12:36:10.318Z</time></trkpt><trkpt lat="43.5736171" lon="12.1399331"><ele>335.25</ele><time>2026-05-02T12:36:11.32Z</time></trkpt><trkpt lat="43.573667" lon="12.1397816"><ele>335.5</ele><time>2026-05-02T12:36:12.321Z</time></trkpt><trkpt lat="43.5737182" lon="12.1396297"><ele>335.75</ele><time>2026-05-02T12:36:13.32Z</time></trkpt><trkpt lat="43.5737651" lon="12.1394786"><ele>336.0</ele><time>2026-05-02T12:36:14.32Z</time></trkpt><trkpt lat="43.5738093" lon="12.1393266"><ele>336.25</ele><time>2026-05-02T12:36:15.319Z</time></trkpt><trkpt lat="43.5738488" lon="12.1391685"><ele>336.5</ele><time>2026-05-02T12:36:16.32Z</time></trkpt><trkpt lat="43.5738788" lon="12.1390131"><ele>336.75</ele><time>2026-05-02T12:36:17.317Z</time></trkpt><trkpt lat="43.5739085" lon="12.1388626"><ele>337.0</ele><time>2026-05-02T12:36:18.32Z</time></trkpt><trkpt lat="43.573934" lon="12.1387118"><ele>336.5</ele><time>2026-05-02T12:36:19.313Z</time></trkpt><trkpt lat="43.5739599" lon="12.1385623"><ele>336.0</ele><time>2026-05-02T12:36:20.319Z</time></trkpt><trkpt lat="43.573987" lon="12.1384089"><ele>335.5</ele><time>2026-05-02T12:36:21.318Z</time></trkpt><trkpt lat="43.5740109" lon="12.1382461"><ele>335.0</ele><time>2026-05-02T12:36:22.319Z</time></trkpt><trkpt lat="43.5740366" lon="12.1380765"><ele>334.0</ele><time>2026-05-02T12:36:23.319Z</time></trkpt><trkpt lat="43.5740662" lon="12.1379068"><ele>333.0</ele><time>2026-05-02T12:36:24.318Z</time></trkpt><trkpt lat="43.5740998" lon="12.1377345"><ele>332.0</ele><time>2026-05-02T12:36:25.318Z</time></trkpt><trkpt lat="43.5741317" lon="12.1375585"><ele>331.0</ele><time>2026-05-02T12:36:26.319Z</time></trkpt><trkpt lat="43.5741649" lon="12.1373781"><ele>330.75</ele><time>2026-05-02T12:36:27.319Z</time></trkpt><trkpt lat="43.574195" lon="12.1371974"><ele>330.5</ele><time>2026-05-02T12:36:28.321Z</time></trkpt><trkpt lat="43.5742243" lon="12.1370155"><ele>330.25</ele><time>2026-05-02T12:36:29.318Z</time></trkpt><trkpt lat="43.5742519" lon="12.1368342"><ele>330.0</ele><time>2026-05-02T12:36:30.319Z</time></trkpt><trkpt lat="43.5742786" lon="12.136656"><ele>329.25</ele><time>2026-05-02T12:36:31.32Z</time></trkpt><trkpt lat="43.5743124" lon="12.1364827"><ele>328.5</ele><time>2026-05-02T12:36:32.319Z</time></trkpt><trkpt lat="43.5743432" lon="12.1363138"><ele>327.75</ele><time>2026-05-02T12:36:33.317Z</time></trkpt><trkpt lat="43.5743769" lon="12.1361451"><ele>327.0</ele><time>2026-05-02T12:36:34.319Z</time></trkpt><trkpt lat="43.5744097" lon="12.1359733"><ele>327.0</ele><time>2026-05-02T12:36:35.319Z</time></trkpt><trkpt lat="43.5744476" lon="12.1357985"><ele>327.0</ele><time>2026-05-02T12:36:36.32Z</time></trkpt><trkpt lat="43.5744947" lon="12.135631"><ele>327.0</ele><time>2026-05-02T12:36:37.318Z</time></trkpt><trkpt lat="43.5745482" lon="12.1354734"><ele>327.0</ele><time>2026-05-02T12:36:38.317Z</time></trkpt><trkpt lat="43.5746128" lon="12.1353198"><ele>327.0</ele><time>2026-05-02T12:36:39.316Z</time></trkpt><trkpt lat="43.5746799" lon="12.135171"><ele>327.0</ele><time>2026-05-02T12:36:40.322Z</time></trkpt><trkpt lat="43.5747604" lon="12.1350241"><ele>327.0</ele><time>2026-05-02T12:36:41.322Z</time></trkpt><trkpt lat="43.5748449" lon="12.1348809"><ele>327.0</ele><time>2026-05-02T12:36:42.318Z</time></trkpt><trkpt lat="43.5749332" lon="12.1347358"><ele>327.0</ele><time>2026-05-02T12:36:43.319Z</time></trkpt><trkpt lat="43.5750216" lon="12.1345876"><ele>327.0</ele><time>2026-05-02T12:36:44.312Z</time></trkpt><trkpt lat="43.5751098" lon="12.1344334"><ele>327.0</ele><time>2026-05-02T12:36:45.32Z</time></trkpt><trkpt lat="43.575202" lon="12.1342762"><ele>327.0</ele><time>2026-05-02T12:36:46.321Z</time></trkpt><trkpt lat="43.5752925" lon="12.1341172"><ele>328.5</ele><time>2026-05-02T12:36:47.312Z</time></trkpt><trkpt lat="43.5753827" lon="12.1339586"><ele>330.0</ele><time>2026-05-02T12:36:48.319Z</time></trkpt><trkpt lat="43.5754707" lon="12.1338052"><ele>331.5</ele><time>2026-05-02T12:36:49.317Z</time></trkpt><trkpt lat="43.5755537" lon="12.1336573"><ele>333.0</ele><time>2026-05-02T12:36:50.319Z</time></trkpt><trkpt lat="43.5756369" lon="12.1335084"><ele>333.0</ele><time>2026-05-02T12:36:51.318Z</time></trkpt><trkpt lat="43.5757238" lon="12.1333622"><ele>333.0</ele><time>2026-05-02T12:36:52.32Z</time></trkpt><trkpt lat="43.5758112" lon="12.1332187"><ele>333.0</ele><time>2026-05-02T12:36:53.319Z</time></trkpt><trkpt lat="43.5758982" lon="12.1330775"><ele>333.0</ele><time>2026-05-02T12:36:54.319Z</time></trkpt><trkpt lat="43.5759819" lon="12.1329371"><ele>333.0</ele><time>2026-05-02T12:36:55.318Z</time></trkpt><trkpt lat="43.5760464" lon="12.1328274"><ele>333.0</ele><time>2026-05-02T12:36:56.315Z</time></trkpt><trkpt lat="43.5761" lon="12.1327374"><ele>333.0</ele><time>2026-05-02T12:36:57.319Z</time></trkpt><trkpt lat="43.5761453" lon="12.1326576"><ele>333.0</ele><time>2026-05-02T12:36:58.318Z</time></trkpt><trkpt lat="43.5761884" lon="12.1325861"><ele>333.0</ele><time>2026-05-02T12:36:59.319Z</time></trkpt><trkpt lat="43.5762315" lon="12.1325144"><ele>333.0</ele><time>2026-05-02T12:37:00.319Z</time></trkpt><trkpt lat="43.5762721" lon="12.1324392"><ele>332.3333333333333</ele><time>2026-05-02T12:37:01.317Z</time></trkpt><trkpt lat="43.5763168" lon="12.1323608"><ele>331.6666666666667</ele><time>2026-05-02T12:37:02.318Z</time></trkpt><trkpt lat="43.5763665" lon="12.1322808"><ele>331.0</ele><time>2026-05-02T12:37:03.32Z</time></trkpt><trkpt lat="43.5764181" lon="12.1321908"><ele>330.33333333333337</ele><time>2026-05-02T12:37:04.318Z</time></trkpt><trkpt lat="43.5764786" lon="12.1320878"><ele>329.6666666666667</ele><time>2026-05-02T12:37:05.317Z</time></trkpt><trkpt lat="43.5765431" lon="12.1319723"><ele>329.0</ele><time>2026-05-02T12:37:06.32Z</time></trkpt><trkpt lat="43.576615" lon="12.131845"><ele>329.0</ele><time>2026-05-02T12:37:07.319Z</time></trkpt><trkpt lat="43.5766931" lon="12.1317085"><ele>329.0</ele><time>2026-05-02T12:37:08.318Z</time></trkpt><trkpt lat="43.5767754" lon="12.1315625"><ele>329.0</ele><time>2026-05-02T12:37:09.318Z</time></trkpt><trkpt lat="43.5768549" lon="12.1314274"><ele>329.0</ele><time>2026-05-02T12:37:10.317Z</time></trkpt><trkpt lat="43.5769318" lon="12.1312945"><ele>329.0</ele><time>2026-05-02T12:37:11.319Z</time></trkpt><trkpt lat="43.5770064" lon="12.1311713"><ele>329.0</ele><time>2026-05-02T12:37:12.319Z</time></trkpt><trkpt lat="43.5770817" lon="12.1310413"><ele>329.0</ele><time>2026-05-02T12:37:13.319Z</time></trkpt><trkpt lat="43.577156" lon="12.1309174"><ele>329.0</ele><time>2026-05-02T12:37:14.316Z</time></trkpt><trkpt lat="43.5772268" lon="12.1307969"><ele>329.2</ele><time>2026-05-02T12:37:15.318Z</time></trkpt><trkpt lat="43.5772897" lon="12.1306806"><ele>329.4</ele><time>2026-05-02T12:37:16.318Z</time></trkpt><trkpt lat="43.5773487" lon="12.130577"><ele>329.6</ele><time>2026-05-02T12:37:17.318Z</time></trkpt><trkpt lat="43.5774034" lon="12.1304778"><ele>329.8</ele><time>2026-05-02T12:37:18.32Z</time></trkpt><trkpt lat="43.5774644" lon="12.1303954"><ele>330.0</ele><time>2026-05-02T12:37:19.319Z</time></trkpt><trkpt lat="43.5775397" lon="12.1303336"><ele>330.0</ele><time>2026-05-02T12:37:20.32Z</time></trkpt><trkpt lat="43.5776153" lon="12.1302738"><ele>330.0</ele><time>2026-05-02T12:37:21.318Z</time></trkpt><trkpt lat="43.5776857" lon="12.1302075"><ele>330.0</ele><time>2026-05-02T12:37:22.314Z</time></trkpt><trkpt lat="43.5777401" lon="12.1301158"><ele>330.0</ele><time>2026-05-02T12:37:23.319Z</time></trkpt><trkpt lat="43.577777" lon="12.1300053"><ele>330.0</ele><time>2026-05-02T12:37:24.318Z</time></trkpt><trkpt lat="43.5778063" lon="12.1298808"><ele>330.0</ele><time>2026-05-02T12:37:25.349Z</time></trkpt><trkpt lat="43.5778503" lon="12.1297533"><ele>330.25</ele><time>2026-05-02T12:37:26.319Z</time></trkpt><trkpt lat="43.5779163" lon="12.1296351"><ele>330.5</ele><time>2026-05-02T12:37:27.317Z</time></trkpt><trkpt lat="43.5779869" lon="12.1295166"><ele>330.75</ele><time>2026-05-02T12:37:28.312Z</time></trkpt><trkpt lat="43.5780615" lon="12.1293941"><ele>331.0</ele><time>2026-05-02T12:37:29.321Z</time></trkpt><trkpt lat="43.5781358" lon="12.1292709"><ele>331.0</ele><time>2026-05-02T12:37:30.317Z</time></trkpt><trkpt lat="43.5782109" lon="12.1291424"><ele>331.0</ele><time>2026-05-02T12:37:31.317Z</time></trkpt><trkpt lat="43.5782896" lon="12.1290141"><ele>331.0</ele><time>2026-05-02T12:37:32.319Z</time></trkpt><trkpt lat="43.5783624" lon="12.1288888"><ele>331.0</ele><time>2026-05-02T12:37:33.318Z</time></trkpt><trkpt lat="43.5784354" lon="12.1287639"><ele>331.25</ele><time>2026-05-02T12:37:34.319Z</time></trkpt><trkpt lat="43.578514" lon="12.1286369"><ele>331.5</ele><time>2026-05-02T12:37:35.318Z</time></trkpt><trkpt lat="43.5785941" lon="12.1285001"><ele>331.75</ele><time>2026-05-02T12:37:36.317Z</time></trkpt><trkpt lat="43.5786782" lon="12.1283596"><ele>332.0</ele><time>2026-05-02T12:37:37.319Z</time></trkpt><trkpt lat="43.5787624" lon="12.1282108"><ele>333.0</ele><time>2026-05-02T12:37:38.313Z</time></trkpt><trkpt lat="43.5788505" lon="12.1280561"><ele>334.0</ele><time>2026-05-02T12:37:39.319Z</time></trkpt><trkpt lat="43.5789424" lon="12.1278971"><ele>335.0</ele><time>2026-05-02T12:37:40.319Z</time></trkpt><trkpt lat="43.5790391" lon="12.1277323"><ele>336.0</ele><time>2026-05-02T12:37:41.319Z</time></trkpt><trkpt lat="43.5791354" lon="12.1275714"><ele>336.0</ele><time>2026-05-02T12:37:42.319Z</time></trkpt><trkpt lat="43.5792242" lon="12.1274204"><ele>336.0</ele><time>2026-05-02T12:37:43.318Z</time></trkpt><trkpt lat="43.579311" lon="12.127267"><ele>336.0</ele><time>2026-05-02T12:37:44.318Z</time></trkpt><trkpt lat="43.5793977" lon="12.1271204"><ele>336.0</ele><time>2026-05-02T12:37:45.32Z</time></trkpt><trkpt lat="43.5794847" lon="12.1269699"><ele>336.0</ele><time>2026-05-02T12:37:46.315Z</time></trkpt><trkpt lat="43.5795728" lon="12.1268231"><ele>336.0</ele><time>2026-05-02T12:37:47.318Z</time></trkpt><trkpt lat="43.5796549" lon="12.1266791"><ele>336.0</ele><time>2026-05-02T12:37:48.321Z</time></trkpt><trkpt lat="43.5797371" lon="12.1265351"><ele>336.0</ele><time>2026-05-02T12:37:49.318Z</time></trkpt><trkpt lat="43.5798169" lon="12.1263937"><ele>336.0</ele><time>2026-05-02T12:37:50.319Z</time></trkpt><trkpt lat="43.5798937" lon="12.126258"><ele>336.0</ele><time>2026-05-02T12:37:51.319Z</time></trkpt><trkpt lat="43.579971" lon="12.1261384"><ele>336.0</ele><time>2026-05-02T12:37:52.318Z</time></trkpt><trkpt lat="43.5800571" lon="12.1260442"><ele>336.0</ele><time>2026-05-02T12:37:53.319Z</time></trkpt><trkpt lat="43.5801566" lon="12.1259798"><ele>336.0</ele><time>2026-05-02T12:37:54.313Z</time></trkpt><trkpt lat="43.5802712" lon="12.1259361"><ele>336.0</ele><time>2026-05-02T12:37:55.32Z</time></trkpt><trkpt lat="43.5803859" lon="12.1258968"><ele>336.0</ele><time>2026-05-02T12:37:56.32Z</time></trkpt><trkpt lat="43.5805078" lon="12.1258648"><ele>336.0</ele><time>2026-05-02T12:37:57.321Z</time></trkpt><trkpt lat="43.5806258" lon="12.1258307"><ele>336.25</ele><time>2026-05-02T12:37:58.318Z</time></trkpt><trkpt lat="43.5807447" lon="12.1257928"><ele>336.5</ele><time>2026-05-02T12:37:59.319Z</time></trkpt><trkpt lat="43.5808667" lon="12.1257718"><ele>336.75</ele><time>2026-05-02T12:38:00.313Z</time></trkpt><trkpt lat="43.5809979" lon="12.1257625"><ele>337.0</ele><time>2026-05-02T12:38:01.319Z</time></trkpt><trkpt lat="43.5811339" lon="12.1257682"><ele>338.0</ele><time>2026-05-02T12:38:02.315Z</time></trkpt><trkpt lat="43.5812735" lon="12.1257844"><ele>339.0</ele><time>2026-05-02T12:38:03.319Z</time></trkpt><trkpt lat="43.581426" lon="12.1258008"><ele>340.0</ele><time>2026-05-02T12:38:04.312Z</time></trkpt><trkpt lat="43.5815848" lon="12.1258051"><ele>340.0</ele><time>2026-05-02T12:38:05.319Z</time></trkpt><trkpt lat="43.5817508" lon="12.1257839"><ele>340.0</ele><time>2026-05-02T12:38:06.319Z</time></trkpt><trkpt lat="43.5819028" lon="12.125738"><ele>340.0</ele><time>2026-05-02T12:38:07.316Z</time></trkpt><trkpt lat="43.5820455" lon="12.1256793"><ele>340.25</ele><time>2026-05-02T12:38:08.317Z</time></trkpt><trkpt lat="43.5821834" lon="12.125619"><ele>340.5</ele><time>2026-05-02T12:38:09.319Z</time></trkpt><trkpt lat="43.5823131" lon="12.1255655"><ele>340.75</ele><time>2026-05-02T12:38:10.316Z</time></trkpt><trkpt lat="43.5824418" lon="12.1255141"><ele>341.0</ele><time>2026-05-02T12:38:11.321Z</time></trkpt><trkpt lat="43.5825626" lon="12.1254738"><ele>341.0</ele><time>2026-05-02T12:38:12.312Z</time></trkpt><trkpt lat="43.5826818" lon="12.1254422"><ele>341.0</ele><time>2026-05-02T12:38:13.318Z</time></trkpt><trkpt lat="43.5828042" lon="12.1254165"><ele>341.0</ele><time>2026-05-02T12:38:14.32Z</time></trkpt><trkpt lat="43.5829299" lon="12.1254035"><ele>341.0</ele><time>2026-05-02T12:38:15.319Z</time></trkpt><trkpt lat="43.5830633" lon="12.1253948"><ele>341.6666666666667</ele><time>2026-05-02T12:38:16.319Z</time></trkpt><trkpt lat="43.5832061" lon="12.1253892"><ele>342.3333333333333</ele><time>2026-05-02T12:38:17.32Z</time></trkpt><trkpt lat="43.5833594" lon="12.1253832"><ele>343.0</ele><time>2026-05-02T12:38:18.315Z</time></trkpt><trkpt lat="43.5835251" lon="12.1253825"><ele>344.3333333333333</ele><time>2026-05-02T12:38:19.319Z</time></trkpt><trkpt lat="43.583702" lon="12.1253854"><ele>345.6666666666667</ele><time>2026-05-02T12:38:20.32Z</time></trkpt><trkpt lat="43.5838904" lon="12.125386"><ele>347.0</ele><time>2026-05-02T12:38:21.318Z</time></trkpt><trkpt lat="43.5840796" lon="12.1253921"><ele>347.0</ele><time>2026-05-02T12:38:22.32Z</time></trkpt><trkpt lat="43.5842795" lon="12.1253996"><ele>347.0</ele><time>2026-05-02T12:38:23.319Z</time></trkpt><trkpt lat="43.5844816" lon="12.1254187"><ele>347.0</ele><time>2026-05-02T12:38:24.317Z</time></trkpt><trkpt lat="43.5846819" lon="12.1254365"><ele>347.33333333333337</ele><time>2026-05-02T12:38:25.318Z</time></trkpt><trkpt lat="43.5848896" lon="12.1254498"><ele>347.6666666666667</ele><time>2026-05-02T12:38:26.316Z</time></trkpt><trkpt lat="43.5850873" lon="12.1254678"><ele>348.0</ele><time>2026-05-02T12:38:27.319Z</time></trkpt><trkpt lat="43.5852666" lon="12.1254837"><ele>349.3333333333333</ele><time>2026-05-02T12:38:28.317Z</time></trkpt><trkpt lat="43.5854316" lon="12.1254825"><ele>350.66666666666663</ele><time>2026-05-02T12:38:29.318Z</time></trkpt><trkpt lat="43.5855785" lon="12.1254468"><ele>352.0</ele><time>2026-05-02T12:38:30.317Z</time></trkpt><trkpt lat="43.5857057" lon="12.1253598"><ele>352.0</ele><time>2026-05-02T12:38:31.319Z</time></trkpt><trkpt lat="43.5858035" lon="12.1252288"><ele>352.0</ele><time>2026-05-02T12:38:32.314Z</time></trkpt><trkpt lat="43.5858572" lon="12.1250444"><ele>352.0</ele><time>2026-05-02T12:38:33.319Z</time></trkpt><trkpt lat="43.5858823" lon="12.1248175"><ele>352.0</ele><time>2026-05-02T12:38:34.315Z</time></trkpt><trkpt lat="43.5858872" lon="12.1245614"><ele>353.3333333333333</ele><time>2026-05-02T12:38:35.32Z</time></trkpt><trkpt lat="43.5858982" lon="12.1242771"><ele>354.6666666666667</ele><time>2026-05-02T12:38:36.312Z</time></trkpt><trkpt lat="43.5859124" lon="12.1239901"><ele>356.0</ele><time>2026-05-02T12:38:37.319Z</time></trkpt><trkpt lat="43.5859269" lon="12.1237168"><ele>357.0</ele><time>2026-05-02T12:38:38.319Z</time></trkpt><trkpt lat="43.5859514" lon="12.1234364"><ele>358.0</ele><time>2026-05-02T12:38:39.32Z</time></trkpt><trkpt lat="43.5859971" lon="12.1231629"><ele>359.0</ele><time>2026-05-02T12:38:40.318Z</time></trkpt><trkpt lat="43.5860571" lon="12.1229022"><ele>359.0</ele><time>2026-05-02T12:38:41.319Z</time></trkpt><trkpt lat="43.5861195" lon="12.1226496"><ele>359.0</ele><time>2026-05-02T12:38:42.319Z</time></trkpt><trkpt lat="43.5861907" lon="12.1223916"><ele>359.0</ele><time>2026-05-02T12:38:43.319Z</time></trkpt><trkpt lat="43.5862728" lon="12.12214"><ele>363.0</ele><time>2026-05-02T12:38:44.319Z</time></trkpt><trkpt lat="43.5863621" lon="12.1218846"><ele>367.0</ele><time>2026-05-02T12:38:45.318Z</time></trkpt><trkpt lat="43.5864553" lon="12.1216389"><ele>371.0</ele><time>2026-05-02T12:38:46.317Z</time></trkpt><trkpt lat="43.5865443" lon="12.1214041"><ele>371.0</ele><time>2026-05-02T12:38:47.318Z</time></trkpt><trkpt lat="43.5866202" lon="12.1211847"><ele>371.0</ele><time>2026-05-02T12:38:48.318Z</time></trkpt><trkpt lat="43.5867062" lon="12.1209733"><ele>371.0</ele><time>2026-05-02T12:38:49.317Z</time></trkpt><trkpt lat="43.5868162" lon="12.1207813"><ele>370.0</ele><time>2026-05-02T12:38:50.314Z</time></trkpt><trkpt lat="43.5869558" lon="12.1206259"><ele>369.0</ele><time>2026-05-02T12:38:51.319Z</time></trkpt><trkpt lat="43.5871144" lon="12.1205081"><ele>368.0</ele><time>2026-05-02T12:38:52.318Z</time></trkpt><trkpt lat="43.5872742" lon="12.1204"><ele>371.0</ele><time>2026-05-02T12:38:53.318Z</time></trkpt><trkpt lat="43.5874142" lon="12.1202648"><ele>374.0</ele><time>2026-05-02T12:38:54.318Z</time></trkpt><trkpt lat="43.5875494" lon="12.1200885"><ele>377.0</ele><time>2026-05-02T12:38:55.319Z</time></trkpt><trkpt lat="43.5876752" lon="12.1198918"><ele>377.0</ele><time>2026-05-02T12:38:56.313Z</time></trkpt><trkpt lat="43.5877962" lon="12.1196652"><ele>377.0</ele><time>2026-05-02T12:38:57.319Z</time></trkpt><trkpt lat="43.5879083" lon="12.1194162"><ele>377.0</ele><time>2026-05-02T12:38:58.317Z</time></trkpt><trkpt lat="43.5879868" lon="12.1191612"><ele>382.6666666666667</ele><time>2026-05-02T12:38:59.313Z</time></trkpt><trkpt lat="43.5880356" lon="12.1188934"><ele>388.33333333333337</ele><time>2026-05-02T12:39:00.319Z</time></trkpt><trkpt lat="43.5880563" lon="12.1186348"><ele>394.0</ele><time>2026-05-02T12:39:01.319Z</time></trkpt><trkpt lat="43.5880605" lon="12.1184009"><ele>393.0</ele><time>2026-05-02T12:39:02.317Z</time></trkpt><trkpt lat="43.5880764" lon="12.1181772"><ele>392.0</ele><time>2026-05-02T12:39:03.317Z</time></trkpt><trkpt lat="43.5881329" lon="12.1179626"><ele>391.0</ele><time>2026-05-02T12:39:04.316Z</time></trkpt><trkpt lat="43.5882207" lon="12.1177692"><ele>391.0</ele><time>2026-05-02T12:39:05.319Z</time></trkpt><trkpt lat="43.5883312" lon="12.1176051"><ele>391.0</ele><time>2026-05-02T12:39:06.317Z</time></trkpt><trkpt lat="43.5884624" lon="12.1174573"><ele>391.0</ele><time>2026-05-02T12:39:07.32Z</time></trkpt><trkpt lat="43.5886218" lon="12.1173387"><ele>394.33333333333337</ele><time>2026-05-02T12:39:08.318Z</time></trkpt><trkpt lat="43.5887836" lon="12.1172166"><ele>397.66666666666663</ele><time>2026-05-02T12:39:09.319Z</time></trkpt><trkpt lat="43.5889536" lon="12.1170966"><ele>401.0</ele><time>2026-05-02T12:39:10.317Z</time></trkpt><trkpt lat="43.5890937" lon="12.116945"><ele>401.0</ele><time>2026-05-02T12:39:11.318Z</time></trkpt><trkpt lat="43.5892306" lon="12.1167536"><ele>401.0</ele><time>2026-05-02T12:39:12.311Z</time></trkpt><trkpt lat="43.5893557" lon="12.1165365"><ele>401.0</ele><time>2026-05-02T12:39:13.32Z</time></trkpt><trkpt lat="43.5894627" lon="12.1163323"><ele>403.0</ele><time>2026-05-02T12:39:14.315Z</time></trkpt><trkpt lat="43.5895661" lon="12.1161448"><ele>405.0</ele><time>2026-05-02T12:39:15.317Z</time></trkpt><trkpt lat="43.5896812" lon="12.1159753"><ele>407.0</ele><time>2026-05-02T12:39:16.32Z</time></trkpt><trkpt lat="43.5898164" lon="12.1158239"><ele>403.66666666666663</ele><time>2026-05-02T12:39:17.318Z</time></trkpt><trkpt lat="43.58997" lon="12.1156919"><ele>400.33333333333337</ele><time>2026-05-02T12:39:18.318Z</time></trkpt><trkpt lat="43.5901368" lon="12.1155759"><ele>397.0</ele><time>2026-05-02T12:39:19.318Z</time></trkpt><trkpt lat="43.5903097" lon="12.1154972"><ele>401.33333333333337</ele><time>2026-05-02T12:39:20.318Z</time></trkpt><trkpt lat="43.5904863" lon="12.1154577"><ele>405.66666666666663</ele><time>2026-05-02T12:39:21.317Z</time></trkpt><trkpt lat="43.590673" lon="12.1154512"><ele>410.0</ele><time>2026-05-02T12:39:22.318Z</time></trkpt><trkpt lat="43.5908604" lon="12.1154611"><ele>410.0</ele><time>2026-05-02T12:39:23.319Z</time></trkpt><trkpt lat="43.5910395" lon="12.1154894"><ele>410.0</ele><time>2026-05-02T12:39:24.317Z</time></trkpt><trkpt lat="43.5912049" lon="12.1155316"><ele>410.0</ele><time>2026-05-02T12:39:25.315Z</time></trkpt><trkpt lat="43.5913444" lon="12.1155544"><ele>412.25</ele><time>2026-05-02T12:39:26.318Z</time></trkpt><trkpt lat="43.5914648" lon="12.1155282"><ele>414.5</ele><time>2026-05-02T12:39:27.319Z</time></trkpt><trkpt lat="43.5915666" lon="12.1154518"><ele>416.75</ele><time>2026-05-02T12:39:28.318Z</time></trkpt><trkpt lat="43.5916489" lon="12.1153188"><ele>419.0</ele><time>2026-05-02T12:39:29.319Z</time></trkpt><trkpt lat="43.5917157" lon="12.1151392"><ele>419.0</ele><time>2026-05-02T12:39:30.317Z</time></trkpt><trkpt lat="43.5917837" lon="12.1149261"><ele>419.0</ele><time>2026-05-02T12:39:31.319Z</time></trkpt><trkpt lat="43.5918553" lon="12.1146952"><ele>419.0</ele><time>2026-05-02T12:39:32.319Z</time></trkpt><trkpt lat="43.5919274" lon="12.1144649"><ele>418.3333333333333</ele><time>2026-05-02T12:39:33.315Z</time></trkpt><trkpt lat="43.5920033" lon="12.1142283"><ele>417.66666666666663</ele><time>2026-05-02T12:39:34.319Z</time></trkpt><trkpt lat="43.5920629" lon="12.1140022"><ele>417.0</ele><time>2026-05-02T12:39:35.319Z</time></trkpt><trkpt lat="43.5921217" lon="12.113802"><ele>419.75</ele><time>2026-05-02T12:39:36.319Z</time></trkpt><trkpt lat="43.5921981" lon="12.1136246"><ele>422.5</ele><time>2026-05-02T12:39:37.32Z</time></trkpt><trkpt lat="43.5922985" lon="12.1134818"><ele>425.25</ele><time>2026-05-02T12:39:38.318Z</time></trkpt><trkpt lat="43.5924265" lon="12.1133916"><ele>428.0</ele><time>2026-05-02T12:39:39.319Z</time></trkpt><trkpt lat="43.5925796" lon="12.1133617"><ele>428.0</ele><time>2026-05-02T12:39:40.318Z</time></trkpt><trkpt lat="43.5927442" lon="12.1133547"><ele>428.0</ele><time>2026-05-02T12:39:41.319Z</time></trkpt><trkpt lat="43.5929074" lon="12.1133675"><ele>428.0</ele><time>2026-05-02T12:39:42.319Z</time></trkpt><trkpt lat="43.5930617" lon="12.1134443"><ele>429.0</ele><time>2026-05-02T12:39:43.321Z</time></trkpt><trkpt lat="43.5931856" lon="12.1135528"><ele>430.0</ele><time>2026-05-02T12:39:44.319Z</time></trkpt><trkpt lat="43.5932914" lon="12.1136867"><ele>431.0</ele><time>2026-05-02T12:39:45.32Z</time></trkpt><trkpt lat="43.5933932" lon="12.1138011"><ele>432.0</ele><time>2026-05-02T12:39:46.319Z</time></trkpt><trkpt lat="43.5934983" lon="12.1138643"><ele>432.0</ele><time>2026-05-02T12:39:47.318Z</time></trkpt><trkpt lat="43.5936036" lon="12.1138706"><ele>432.0</ele><time>2026-05-02T12:39:48.32Z</time></trkpt><trkpt lat="43.5937047" lon="12.1138033"><ele>432.0</ele><time>2026-05-02T12:39:49.316Z</time></trkpt><trkpt lat="43.5937886" lon="12.1136738"><ele>432.0</ele><time>2026-05-02T12:39:50.315Z</time></trkpt><trkpt lat="43.5938615" lon="12.1135003"><ele>434.0</ele><time>2026-05-02T12:39:51.316Z</time></trkpt><trkpt lat="43.5939518" lon="12.1133488"><ele>436.0</ele><time>2026-05-02T12:39:52.319Z</time></trkpt><trkpt lat="43.5940708" lon="12.1132438"><ele>438.0</ele><time>2026-05-02T12:39:53.313Z</time></trkpt><trkpt lat="43.594213" lon="12.1131615"><ele>440.0</ele><time>2026-05-02T12:39:54.319Z</time></trkpt><trkpt lat="43.5943582" lon="12.1130486"><ele>440.0</ele><time>2026-05-02T12:39:55.314Z</time></trkpt><trkpt lat="43.5944948" lon="12.1128993"><ele>440.0</ele><time>2026-05-02T12:39:56.32Z</time></trkpt><trkpt lat="43.5945991" lon="12.1126951"><ele>440.0</ele><time>2026-05-02T12:39:57.317Z</time></trkpt><trkpt lat="43.594694" lon="12.1124438"><ele>442.66666666666663</ele><time>2026-05-02T12:39:58.319Z</time></trkpt><trkpt lat="43.5947824" lon="12.1121846"><ele>445.33333333333337</ele><time>2026-05-02T12:39:59.32Z</time></trkpt><trkpt lat="43.5948745" lon="12.1119271"><ele>448.0</ele><time>2026-05-02T12:40:00.318Z</time></trkpt><trkpt lat="43.594977" lon="12.1116778"><ele>447.6666666666667</ele><time>2026-05-02T12:40:01.315Z</time></trkpt><trkpt lat="43.5950778" lon="12.1114432"><ele>447.33333333333337</ele><time>2026-05-02T12:40:02.318Z</time></trkpt><trkpt lat="43.5951812" lon="12.1112287"><ele>447.0</ele><time>2026-05-02T12:40:03.314Z</time></trkpt><trkpt lat="43.5952893" lon="12.111044"><ele>448.33333333333337</ele><time>2026-05-02T12:40:04.316Z</time></trkpt><trkpt lat="43.5954162" lon="12.1108795"><ele>449.6666666666667</ele><time>2026-05-02T12:40:05.318Z</time></trkpt><trkpt lat="43.5955617" lon="12.1107376"><ele>451.0</ele><time>2026-05-02T12:40:06.316Z</time></trkpt><trkpt lat="43.5957219" lon="12.1106227"><ele>451.0</ele><time>2026-05-02T12:40:07.319Z</time></trkpt><trkpt lat="43.5958933" lon="12.1105377"><ele>451.0</ele><time>2026-05-02T12:40:08.318Z</time></trkpt><trkpt lat="43.5960701" lon="12.1104977"><ele>451.0</ele><time>2026-05-02T12:40:09.319Z</time></trkpt><trkpt lat="43.5962435" lon="12.1104725"><ele>454.33333333333337</ele><time>2026-05-02T12:40:10.318Z</time></trkpt><trkpt lat="43.5964011" lon="12.1104451"><ele>457.66666666666663</ele><time>2026-05-02T12:40:11.311Z</time></trkpt><trkpt lat="43.5965425" lon="12.1103689"><ele>461.0</ele><time>2026-05-02T12:40:12.317Z</time></trkpt><trkpt lat="43.5966624" lon="12.1102488"><ele>461.0</ele><time>2026-05-02T12:40:13.314Z</time></trkpt><trkpt lat="43.5967435" lon="12.1100724"><ele>461.0</ele><time>2026-05-02T12:40:14.318Z</time></trkpt><trkpt lat="43.5968048" lon="12.109847"><ele>461.0</ele><time>2026-05-02T12:40:15.318Z</time></trkpt><trkpt lat="43.5968617" lon="12.1095812"><ele>461.0</ele><time>2026-05-02T12:40:16.317Z</time></trkpt><trkpt lat="43.5969274" lon="12.1092966"><ele>461.0</ele><time>2026-05-02T12:40:17.318Z</time></trkpt><trkpt lat="43.5969955" lon="12.1089859"><ele>468.0</ele><time>2026-05-02T12:40:18.319Z</time></trkpt><trkpt lat="43.5970575" lon="12.1086816"><ele>475.0</ele><time>2026-05-02T12:40:19.315Z</time></trkpt><trkpt lat="43.5971141" lon="12.1083717"><ele>475.0</ele><time>2026-05-02T12:40:20.319Z</time></trkpt><trkpt lat="43.5971609" lon="12.1080683"><ele>475.0</ele><time>2026-05-02T12:40:21.317Z</time></trkpt><trkpt lat="43.5971969" lon="12.1077882"><ele>475.0</ele><time>2026-05-02T12:40:22.319Z</time></trkpt><trkpt lat="43.5972303" lon="12.1075272"><ele>473.33333333333337</ele><time>2026-05-02T12:40:23.318Z</time></trkpt><trkpt lat="43.5972676" lon="12.1072822"><ele>471.66666666666663</ele><time>2026-05-02T12:40:24.319Z</time></trkpt><trkpt lat="43.5973183" lon="12.1070769"><ele>470.0</ele><time>2026-05-02T12:40:25.311Z</time></trkpt><trkpt lat="43.5974003" lon="12.1069112"><ele>470.0</ele><time>2026-05-02T12:40:26.319Z</time></trkpt><trkpt lat="43.5975176" lon="12.1067916"><ele>470.0</ele><time>2026-05-02T12:40:27.312Z</time></trkpt><trkpt lat="43.5976586" lon="12.1067115"><ele>470.0</ele><time>2026-05-02T12:40:28.317Z</time></trkpt><trkpt lat="43.5978109" lon="12.1066873"><ele>471.0</ele><time>2026-05-02T12:40:29.317Z</time></trkpt><trkpt lat="43.5979698" lon="12.1067214"><ele>472.0</ele><time>2026-05-02T12:40:30.32Z</time></trkpt><trkpt lat="43.5981384" lon="12.1068167"><ele>473.0</ele><time>2026-05-02T12:40:31.319Z</time></trkpt><trkpt lat="43.5983187" lon="12.1069484"><ele>473.0</ele><time>2026-05-02T12:40:32.318Z</time></trkpt><trkpt lat="43.5985148" lon="12.1071018"><ele>473.0</ele><time>2026-05-02T12:40:33.318Z</time></trkpt><trkpt lat="43.5987071" lon="12.1072686"><ele>473.0</ele><time>2026-05-02T12:40:34.319Z</time></trkpt><trkpt lat="43.5988834" lon="12.1074185"><ele>473.0</ele><time>2026-05-02T12:40:35.311Z</time></trkpt><trkpt lat="43.5990474" lon="12.1075613"><ele>473.0</ele><time>2026-05-02T12:40:36.319Z</time></trkpt><trkpt lat="43.5992061" lon="12.1076832"><ele>473.0</ele><time>2026-05-02T12:40:37.32Z</time></trkpt><trkpt lat="43.599363" lon="12.1077772"><ele>473.0</ele><time>2026-05-02T12:40:38.319Z</time></trkpt><trkpt lat="43.5995297" lon="12.1077544"><ele>473.0</ele><time>2026-05-02T12:40:39.319Z</time></trkpt><trkpt lat="43.5997007" lon="12.1077001"><ele>472.0</ele><time>2026-05-02T12:40:40.317Z</time></trkpt><trkpt lat="43.5998883" lon="12.1076067"><ele>471.0</ele><time>2026-05-02T12:40:41.319Z</time></trkpt><trkpt lat="43.600087" lon="12.1074905"><ele>470.0</ele><time>2026-05-02T12:40:42.319Z</time></trkpt><trkpt lat="43.6002873" lon="12.1073402"><ele>472.3333333333333</ele><time>2026-05-02T12:40:43.314Z</time></trkpt><trkpt lat="43.6004837" lon="12.1071843"><ele>474.66666666666663</ele><time>2026-05-02T12:40:44.319Z</time></trkpt><trkpt lat="43.6006615" lon="12.1070532"><ele>477.0</ele><time>2026-05-02T12:40:45.318Z</time></trkpt><trkpt lat="43.6008389" lon="12.1069552"><ele>477.0</ele><time>2026-05-02T12:40:46.321Z</time></trkpt><trkpt lat="43.6010298" lon="12.1069129"><ele>477.0</ele><time>2026-05-02T12:40:47.317Z</time></trkpt><trkpt lat="43.601237" lon="12.1069105"><ele>477.0</ele><time>2026-05-02T12:40:48.317Z</time></trkpt><trkpt lat="43.6014611" lon="12.1069457"><ele>478.0</ele><time>2026-05-02T12:40:49.319Z</time></trkpt><trkpt lat="43.6016944" lon="12.1069771"><ele>479.0</ele><time>2026-05-02T12:40:50.317Z</time></trkpt><trkpt lat="43.601915" lon="12.1069985"><ele>479.3333333333333</ele><time>2026-05-02T12:40:51.314Z</time></trkpt><trkpt lat="43.602124" lon="12.1070169"><ele>479.66666666666663</ele><time>2026-05-02T12:40:52.311Z</time></trkpt><trkpt lat="43.6023158" lon="12.1070369"><ele>480.0</ele><time>2026-05-02T12:40:53.31Z</time></trkpt><trkpt lat="43.6024898" lon="12.1070512"><ele>480.0</ele><time>2026-05-02T12:40:54.319Z</time></trkpt><trkpt lat="43.6026526" lon="12.1070901"><ele>480.0</ele><time>2026-05-02T12:40:55.318Z</time></trkpt><trkpt lat="43.6028039" lon="12.1071795"><ele>480.0</ele><time>2026-05-02T12:40:56.318Z</time></trkpt><trkpt lat="43.6029213" lon="12.1073151"><ele>479.66666666666663</ele><time>2026-05-02T12:40:57.314Z</time></trkpt><trkpt lat="43.6030142" lon="12.107499"><ele>479.3333333333333</ele><time>2026-05-02T12:40:58.318Z</time></trkpt><trkpt lat="43.6030723" lon="12.1077053"><ele>479.0</ele><time>2026-05-02T12:40:59.312Z</time></trkpt><trkpt lat="43.6031076" lon="12.1079055"><ele>479.0</ele><time>2026-05-02T12:41:00.319Z</time></trkpt><trkpt lat="43.6031602" lon="12.1080747"><ele>479.0</ele><time>2026-05-02T12:41:01.319Z</time></trkpt><trkpt lat="43.6032448" lon="12.1082119"><ele>479.0</ele><time>2026-05-02T12:41:02.319Z</time></trkpt><trkpt lat="43.6033691" lon="12.1083039"><ele>479.0</ele><time>2026-05-02T12:41:03.32Z</time></trkpt><trkpt lat="43.6035361" lon="12.1083608"><ele>479.0</ele><time>2026-05-02T12:41:04.317Z</time></trkpt><trkpt lat="43.6037193" lon="12.1084114"><ele>479.0</ele><time>2026-05-02T12:41:05.319Z</time></trkpt><trkpt lat="43.6039043" lon="12.1084638"><ele>479.0</ele><time>2026-05-02T12:41:06.317Z</time></trkpt><trkpt lat="43.6040843" lon="12.1085143"><ele>479.0</ele><time>2026-05-02T12:41:07.315Z</time></trkpt><trkpt lat="43.604254" lon="12.1085792"><ele>479.0</ele><time>2026-05-02T12:41:08.308Z</time></trkpt><trkpt lat="43.6044065" lon="12.1086528"><ele>479.0</ele><time>2026-05-02T12:41:09.303Z</time></trkpt><trkpt lat="43.6045556" lon="12.1086877"><ele>479.66666666666663</ele><time>2026-05-02T12:41:10.317Z</time></trkpt><trkpt lat="43.6047197" lon="12.1086552"><ele>480.33333333333337</ele><time>2026-05-02T12:41:11.318Z</time></trkpt><trkpt lat="43.6048948" lon="12.1085679"><ele>481.0</ele><time>2026-05-02T12:41:12.319Z</time></trkpt><trkpt lat="43.605064" lon="12.1084688"><ele>481.0</ele><time>2026-05-02T12:41:13.315Z</time></trkpt><trkpt lat="43.6052305" lon="12.1083766"><ele>481.0</ele><time>2026-05-02T12:41:14.317Z</time></trkpt><trkpt lat="43.6053978" lon="12.1083205"><ele>481.0</ele><time>2026-05-02T12:41:15.311Z</time></trkpt><trkpt lat="43.6055333" lon="12.1083445"><ele>480.6666666666667</ele><time>2026-05-02T12:41:16.326Z</time></trkpt><trkpt lat="43.6056642" lon="12.1084868"><ele>480.33333333333337</ele><time>2026-05-02T12:41:17.319Z</time></trkpt><trkpt lat="43.6057967" lon="12.1085572"><ele>480.0</ele><time>2026-05-02T12:41:18.318Z</time></trkpt><trkpt lat="43.6059415" lon="12.1086082"><ele>480.0</ele><time>2026-05-02T12:41:19.319Z</time></trkpt><trkpt lat="43.6060833" lon="12.1085985"><ele>480.0</ele><time>2026-05-02T12:41:20.318Z</time></trkpt><trkpt lat="43.6062134" lon="12.1085102"><ele>480.0</ele><time>2026-05-02T12:41:21.311Z</time></trkpt><trkpt lat="43.6063376" lon="12.1084212"><ele>480.0</ele><time>2026-05-02T12:41:22.319Z</time></trkpt><trkpt lat="43.6064663" lon="12.1083692"><ele>479.0</ele><time>2026-05-02T12:41:23.318Z</time></trkpt><trkpt lat="43.6066215" lon="12.1083988"><ele>478.0</ele><time>2026-05-02T12:41:24.317Z</time></trkpt><trkpt lat="43.6067691" lon="12.1084337"><ele>477.0</ele><time>2026-05-02T12:41:25.319Z</time></trkpt><trkpt lat="43.6069229" lon="12.1086492"><ele>476.33333333333337</ele><time>2026-05-02T12:41:26.318Z</time></trkpt><trkpt lat="43.6070435" lon="12.1088331"><ele>475.6666666666667</ele><time>2026-05-02T12:41:27.312Z</time></trkpt><trkpt lat="43.6071466" lon="12.1090842"><ele>475.0</ele><time>2026-05-02T12:41:28.317Z</time></trkpt><trkpt lat="43.6072313" lon="12.1093138"><ele>475.0</ele><time>2026-05-02T12:41:29.314Z</time></trkpt><trkpt lat="43.6073277" lon="12.1095301"><ele>475.0</ele><time>2026-05-02T12:41:30.318Z</time></trkpt><trkpt lat="43.6074484" lon="12.1096968"><ele>475.0</ele><time>2026-05-02T12:41:31.318Z</time></trkpt><trkpt lat="43.6075842" lon="12.10981"><ele>475.0</ele><time>2026-05-02T12:41:32.317Z</time></trkpt><trkpt lat="43.607747" lon="12.109849"><ele>475.0</ele><time>2026-05-02T12:41:33.312Z</time></trkpt><trkpt lat="43.6079216" lon="12.1098434"><ele>475.0</ele><time>2026-05-02T12:41:34.319Z</time></trkpt><trkpt lat="43.6080883" lon="12.1098266"><ele>476.6666666666667</ele><time>2026-05-02T12:41:35.319Z</time></trkpt><trkpt lat="43.6082271" lon="12.1098668"><ele>478.33333333333337</ele><time>2026-05-02T12:41:36.319Z</time></trkpt><trkpt lat="43.6083566" lon="12.1099698"><ele>480.0</ele><time>2026-05-02T12:41:37.312Z</time></trkpt><trkpt lat="43.6084657" lon="12.110153"><ele>480.0</ele><time>2026-05-02T12:41:38.318Z</time></trkpt><trkpt lat="43.6085619" lon="12.1103644"><ele>480.0</ele><time>2026-05-02T12:41:39.319Z</time></trkpt><trkpt lat="43.6086391" lon="12.1105304"><ele>480.0</ele><time>2026-05-02T12:41:40.319Z</time></trkpt><trkpt lat="43.608725" lon="12.1106566"><ele>480.0</ele><time>2026-05-02T12:41:41.313Z</time></trkpt><trkpt lat="43.6088278" lon="12.1107145"><ele>477.25</ele><time>2026-05-02T12:41:42.318Z</time></trkpt><trkpt lat="43.6089426" lon="12.1106975"><ele>474.5</ele><time>2026-05-02T12:41:43.317Z</time></trkpt><trkpt lat="43.6090674" lon="12.1106393"><ele>471.75</ele><time>2026-05-02T12:41:44.32Z</time></trkpt><trkpt lat="43.6092036" lon="12.1106309"><ele>469.0</ele><time>2026-05-02T12:41:45.316Z</time></trkpt><trkpt lat="43.6093201" lon="12.1106828"><ele>470.75</ele><time>2026-05-02T12:41:46.318Z</time></trkpt><trkpt lat="43.6094029" lon="12.1107961"><ele>472.5</ele><time>2026-05-02T12:41:47.318Z</time></trkpt><trkpt lat="43.609471" lon="12.110963"><ele>474.25</ele><time>2026-05-02T12:41:48.317Z</time></trkpt><trkpt lat="43.6095756" lon="12.1111172"><ele>476.0</ele><time>2026-05-02T12:41:49.319Z</time></trkpt><trkpt lat="43.6096999" lon="12.1112062"><ele>476.0</ele><time>2026-05-02T12:41:50.321Z</time></trkpt><trkpt lat="43.6098357" lon="12.1112245"><ele>476.0</ele><time>2026-05-02T12:41:51.319Z</time></trkpt><trkpt lat="43.609981" lon="12.1111823"><ele>476.0</ele><time>2026-05-02T12:41:52.319Z</time></trkpt><trkpt lat="43.6101278" lon="12.1111233"><ele>476.0</ele><time>2026-05-02T12:41:53.313Z</time></trkpt><trkpt lat="43.6102698" lon="12.1110761"><ele>473.66666666666663</ele><time>2026-05-02T12:41:54.318Z</time></trkpt><trkpt lat="43.6104187" lon="12.1110697"><ele>471.33333333333337</ele><time>2026-05-02T12:41:55.318Z</time></trkpt><trkpt lat="43.6105821" lon="12.1111297"><ele>469.0</ele><time>2026-05-02T12:41:56.317Z</time></trkpt><trkpt lat="43.6107363" lon="12.1112436"><ele>469.0</ele><time>2026-05-02T12:41:57.318Z</time></trkpt><trkpt lat="43.6108973" lon="12.1113943"><ele>469.0</ele><time>2026-05-02T12:41:58.319Z</time></trkpt><trkpt lat="43.6110478" lon="12.1115858"><ele>469.0</ele><time>2026-05-02T12:41:59.314Z</time></trkpt><trkpt lat="43.6111896" lon="12.111816"><ele>467.0</ele><time>2026-05-02T12:42:00.319Z</time></trkpt><trkpt lat="43.6113194" lon="12.1120538"><ele>465.0</ele><time>2026-05-02T12:42:01.315Z</time></trkpt><trkpt lat="43.6114611" lon="12.1122835"><ele>463.0</ele><time>2026-05-02T12:42:02.313Z</time></trkpt><trkpt lat="43.611612" lon="12.1125117"><ele>469.5</ele><time>2026-05-02T12:42:03.318Z</time></trkpt><trkpt lat="43.6117796" lon="12.1127236"><ele>476.0</ele><time>2026-05-02T12:42:04.319Z</time></trkpt><trkpt lat="43.6119525" lon="12.1129258"><ele>474.5</ele><time>2026-05-02T12:42:05.318Z</time></trkpt><trkpt lat="43.6121209" lon="12.1131372"><ele>473.0</ele><time>2026-05-02T12:42:06.317Z</time></trkpt><trkpt lat="43.6122707" lon="12.1133703"><ele>473.0</ele><time>2026-05-02T12:42:07.318Z</time></trkpt><trkpt lat="43.6124029" lon="12.1135949"><ele>473.0</ele><time>2026-05-02T12:42:08.318Z</time></trkpt><trkpt lat="43.6125283" lon="12.1138103"><ele>473.0</ele><time>2026-05-02T12:42:09.318Z</time></trkpt><trkpt lat="43.6126322" lon="12.1140103"><ele>470.0</ele><time>2026-05-02T12:42:10.319Z</time></trkpt><trkpt lat="43.6126994" lon="12.1142019"><ele>467.0</ele><time>2026-05-02T12:42:11.316Z</time></trkpt><trkpt lat="43.6127636" lon="12.1143805"><ele>464.0</ele><time>2026-05-02T12:42:12.317Z</time></trkpt><trkpt lat="43.6128699" lon="12.1145334"><ele>464.0</ele><time>2026-05-02T12:42:13.319Z</time></trkpt><trkpt lat="43.612968" lon="12.1146712"><ele>464.0</ele><time>2026-05-02T12:42:14.32Z</time></trkpt><trkpt lat="43.6131865" lon="12.1147154"><ele>464.0</ele><time>2026-05-02T12:42:15.318Z</time></trkpt><trkpt lat="43.6133981" lon="12.114764"><ele>464.0</ele><time>2026-05-02T12:42:16.317Z</time></trkpt><trkpt lat="43.6136015" lon="12.1148048"><ele>464.0</ele><time>2026-05-02T12:42:17.317Z</time></trkpt><trkpt lat="43.6137879" lon="12.1148481"><ele>464.0</ele><time>2026-05-02T12:42:18.31Z</time></trkpt><trkpt lat="43.6139538" lon="12.1148906"><ele>466.25</ele><time>2026-05-02T12:42:19.318Z</time></trkpt><trkpt lat="43.6140955" lon="12.1149413"><ele>468.5</ele><time>2026-05-02T12:42:20.317Z</time></trkpt><trkpt lat="43.6142074" lon="12.115034"><ele>470.75</ele><time>2026-05-02T12:42:21.319Z</time></trkpt><trkpt lat="43.6142776" lon="12.1151679"><ele>473.0</ele><time>2026-05-02T12:42:22.317Z</time></trkpt><trkpt lat="43.6143023" lon="12.1153279"><ele>473.0</ele><time>2026-05-02T12:42:23.318Z</time></trkpt><trkpt lat="43.6142851" lon="12.1155177"><ele>473.0</ele><time>2026-05-02T12:42:24.319Z</time></trkpt><trkpt lat="43.6142345" lon="12.1157268"><ele>473.0</ele><time>2026-05-02T12:42:25.315Z</time></trkpt><trkpt lat="43.614207" lon="12.1159228"><ele>473.0</ele><time>2026-05-02T12:42:26.318Z</time></trkpt><trkpt lat="43.614202" lon="12.1161064"><ele>470.66666666666663</ele><time>2026-05-02T12:42:27.318Z</time></trkpt><trkpt lat="43.6142344" lon="12.1162588"><ele>468.33333333333337</ele><time>2026-05-02T12:42:28.317Z</time></trkpt><trkpt lat="43.6142986" lon="12.1163685"><ele>466.0</ele><time>2026-05-02T12:42:29.317Z</time></trkpt><trkpt lat="43.614571" lon="12.1164753"><ele>468.6666666666667</ele><time>2026-05-02T12:42:30.317Z</time></trkpt><trkpt lat="43.6147163" lon="12.1166759"><ele>471.33333333333337</ele><time>2026-05-02T12:42:31.315Z</time></trkpt><trkpt lat="43.6148765" lon="12.1168858"><ele>474.0</ele><time>2026-05-02T12:42:32.315Z</time></trkpt><trkpt lat="43.6150232" lon="12.1170907"><ele>474.0</ele><time>2026-05-02T12:42:33.313Z</time></trkpt><trkpt lat="43.6151614" lon="12.1172834"><ele>474.0</ele><time>2026-05-02T12:42:34.318Z</time></trkpt><trkpt lat="43.6152884" lon="12.1174471"><ele>474.0</ele><time>2026-05-02T12:42:35.311Z</time></trkpt><trkpt lat="43.615433" lon="12.1175604"><ele>472.66666666666663</ele><time>2026-05-02T12:42:36.319Z</time></trkpt><trkpt lat="43.6156095" lon="12.1176192"><ele>471.3333333333333</ele><time>2026-05-02T12:42:37.317Z</time></trkpt><trkpt lat="43.6157894" lon="12.1176451"><ele>470.0</ele><time>2026-05-02T12:42:38.316Z</time></trkpt><trkpt lat="43.615964" lon="12.1176452"><ele>470.0</ele><time>2026-05-02T12:42:39.315Z</time></trkpt><trkpt lat="43.6161169" lon="12.1176601"><ele>470.0</ele><time>2026-05-02T12:42:40.319Z</time></trkpt><trkpt lat="43.6162446" lon="12.1177122"><ele>470.0</ele><time>2026-05-02T12:42:41.314Z</time></trkpt><trkpt lat="43.6163354" lon="12.1178217"><ele>470.0</ele><time>2026-05-02T12:42:42.315Z</time></trkpt><trkpt lat="43.616378" lon="12.1179775"><ele>468.66666666666663</ele><time>2026-05-02T12:42:43.316Z</time></trkpt><trkpt lat="43.6163942" lon="12.1181681"><ele>467.33333333333337</ele><time>2026-05-02T12:42:44.316Z</time></trkpt><trkpt lat="43.6163294" lon="12.1183953"><ele>466.0</ele><time>2026-05-02T12:42:45.317Z</time></trkpt><trkpt lat="43.6162559" lon="12.1185873"><ele>466.0</ele><time>2026-05-02T12:42:46.317Z</time></trkpt><trkpt lat="43.6161879" lon="12.1187531"><ele>466.0</ele><time>2026-05-02T12:42:47.315Z</time></trkpt><trkpt lat="43.6161481" lon="12.1189133"><ele>466.0</ele><time>2026-05-02T12:42:48.314Z</time></trkpt><trkpt lat="43.6161625" lon="12.119066"><ele>466.0</ele><time>2026-05-02T12:42:49.317Z</time></trkpt><trkpt lat="43.6162368" lon="12.1191959"><ele>467.25</ele><time>2026-05-02T12:42:50.317Z</time></trkpt><trkpt lat="43.6163365" lon="12.1192812"><ele>468.5</ele><time>2026-05-02T12:42:51.317Z</time></trkpt><trkpt lat="43.6164739" lon="12.1192897"><ele>469.75</ele><time>2026-05-02T12:42:52.316Z</time></trkpt><trkpt lat="43.6166041" lon="12.1192364"><ele>471.0</ele><time>2026-05-02T12:42:53.316Z</time></trkpt><trkpt lat="43.6167105" lon="12.1191137"><ele>470.66666666666663</ele><time>2026-05-02T12:42:54.317Z</time></trkpt><trkpt lat="43.6168146" lon="12.1189173"><ele>470.3333333333333</ele><time>2026-05-02T12:42:55.318Z</time></trkpt><trkpt lat="43.6169346" lon="12.1186676"><ele>470.0</ele><time>2026-05-02T12:42:56.317Z</time></trkpt><trkpt lat="43.6170571" lon="12.1184215"><ele>466.66666666666663</ele><time>2026-05-02T12:42:57.317Z</time></trkpt><trkpt lat="43.6171947" lon="12.1182083"><ele>463.33333333333337</ele><time>2026-05-02T12:42:58.317Z</time></trkpt><trkpt lat="43.6173361" lon="12.1180299"><ele>460.0</ele><time>2026-05-02T12:42:59.317Z</time></trkpt><trkpt lat="43.61748" lon="12.1178734"><ele>460.0</ele><time>2026-05-02T12:43:00.317Z</time></trkpt><trkpt lat="43.6176548" lon="12.1177937"><ele>460.0</ele><time>2026-05-02T12:43:01.318Z</time></trkpt><trkpt lat="43.6178404" lon="12.1177469"><ele>460.0</ele><time>2026-05-02T12:43:02.317Z</time></trkpt><trkpt lat="43.6180525" lon="12.117742"><ele>459.5</ele><time>2026-05-02T12:43:03.318Z</time></trkpt><trkpt lat="43.618279" lon="12.1177593"><ele>459.0</ele><time>2026-05-02T12:43:04.319Z</time></trkpt><trkpt lat="43.6185186" lon="12.1177763"><ele>459.66666666666663</ele><time>2026-05-02T12:43:05.318Z</time></trkpt><trkpt lat="43.6187424" lon="12.1177717"><ele>460.3333333333333</ele><time>2026-05-02T12:43:06.317Z</time></trkpt><trkpt lat="43.6189652" lon="12.1177293"><ele>461.0</ele><time>2026-05-02T12:43:07.317Z</time></trkpt><trkpt lat="43.61918" lon="12.1176443"><ele>461.0</ele><time>2026-05-02T12:43:08.318Z</time></trkpt><trkpt lat="43.6193515" lon="12.1175403"><ele>461.0</ele><time>2026-05-02T12:43:09.317Z</time></trkpt><trkpt lat="43.6195082" lon="12.117444"><ele>461.0</ele><time>2026-05-02T12:43:10.318Z</time></trkpt><trkpt lat="43.619658" lon="12.1173822"><ele>461.0</ele><time>2026-05-02T12:43:11.319Z</time></trkpt><trkpt lat="43.619798" lon="12.1173743"><ele>461.0</ele><time>2026-05-02T12:43:12.319Z</time></trkpt><trkpt lat="43.6199207" lon="12.1174423"><ele>461.0</ele><time>2026-05-02T12:43:13.318Z</time></trkpt><trkpt lat="43.6200232" lon="12.1175801"><ele>461.0</ele><time>2026-05-02T12:43:14.318Z</time></trkpt><trkpt lat="43.6201178" lon="12.1177726"><ele>461.0</ele><time>2026-05-02T12:43:15.319Z</time></trkpt><trkpt lat="43.6202138" lon="12.1180007"><ele>461.0</ele><time>2026-05-02T12:43:16.32Z</time></trkpt><trkpt lat="43.6203209" lon="12.1182132"><ele>461.0</ele><time>2026-05-02T12:43:17.318Z</time></trkpt><trkpt lat="43.6204497" lon="12.118412"><ele>462.66666666666663</ele><time>2026-05-02T12:43:18.319Z</time></trkpt><trkpt lat="43.6205981" lon="12.1185805"><ele>464.33333333333337</ele><time>2026-05-02T12:43:19.32Z</time></trkpt><trkpt lat="43.6207526" lon="12.1187303"><ele>466.0</ele><time>2026-05-02T12:43:20.313Z</time></trkpt><trkpt lat="43.6208997" lon="12.1188678"><ele>466.0</ele><time>2026-05-02T12:43:21.318Z</time></trkpt><trkpt lat="43.621051" lon="12.1189902"><ele>466.0</ele><time>2026-05-02T12:43:22.317Z</time></trkpt><trkpt lat="43.6212098" lon="12.1190689"><ele>466.0</ele><time>2026-05-02T12:43:23.317Z</time></trkpt><trkpt lat="43.6213851" lon="12.1190965"><ele>467.0</ele><time>2026-05-02T12:43:24.319Z</time></trkpt><trkpt lat="43.6215716" lon="12.1190802"><ele>468.0</ele><time>2026-05-02T12:43:25.317Z</time></trkpt><trkpt lat="43.6217652" lon="12.1190516"><ele>469.0</ele><time>2026-05-02T12:43:26.316Z</time></trkpt><trkpt lat="43.6219616" lon="12.1190281"><ele>469.0</ele><time>2026-05-02T12:43:27.316Z</time></trkpt><trkpt lat="43.6221538" lon="12.1190181"><ele>469.0</ele><time>2026-05-02T12:43:28.317Z</time></trkpt><trkpt lat="43.6223483" lon="12.1190214"><ele>469.0</ele><time>2026-05-02T12:43:29.318Z</time></trkpt><trkpt lat="43.6225422" lon="12.1190314"><ele>469.0</ele><time>2026-05-02T12:43:30.314Z</time></trkpt><trkpt lat="43.6227409" lon="12.1190415"><ele>469.0</ele><time>2026-05-02T12:43:31.316Z</time></trkpt><trkpt lat="43.6229483" lon="12.1190537"><ele>469.0</ele><time>2026-05-02T12:43:32.315Z</time></trkpt><trkpt lat="43.6231637" lon="12.1190638"><ele>477.0</ele><time>2026-05-02T12:43:33.318Z</time></trkpt><trkpt lat="43.6234118" lon="12.1190726"><ele>485.0</ele><time>2026-05-02T12:43:34.318Z</time></trkpt><trkpt lat="43.6236833" lon="12.1190856"><ele>488.0</ele><time>2026-05-02T12:43:35.317Z</time></trkpt><trkpt lat="43.6239322" lon="12.119097"><ele>491.0</ele><time>2026-05-02T12:43:36.317Z</time></trkpt><trkpt lat="43.624168" lon="12.1191093"><ele>491.0</ele><time>2026-05-02T12:43:37.317Z</time></trkpt><trkpt lat="43.6244175" lon="12.1191085"><ele>491.0</ele><time>2026-05-02T12:43:38.316Z</time></trkpt><trkpt lat="43.6246718" lon="12.1190841"><ele>486.5</ele><time>2026-05-02T12:43:39.318Z</time></trkpt><trkpt lat="43.6249168" lon="12.1190305"><ele>482.0</ele><time>2026-05-02T12:43:40.317Z</time></trkpt><trkpt lat="43.6251651" lon="12.118981"><ele>487.5</ele><time>2026-05-02T12:43:41.318Z</time></trkpt><trkpt lat="43.6253953" lon="12.1189166"><ele>493.0</ele><time>2026-05-02T12:43:42.317Z</time></trkpt><trkpt lat="43.6256068" lon="12.1188588"><ele>493.0</ele><time>2026-05-02T12:43:43.319Z</time></trkpt><trkpt lat="43.6258068" lon="12.1188058"><ele>493.0</ele><time>2026-05-02T12:43:44.316Z</time></trkpt><trkpt lat="43.6260085" lon="12.1187587"><ele>493.0</ele><time>2026-05-02T12:43:45.319Z</time></trkpt><trkpt lat="43.626206" lon="12.1187471"><ele>494.0</ele><time>2026-05-02T12:43:46.309Z</time></trkpt><trkpt lat="43.6263937" lon="12.1187556"><ele>495.0</ele><time>2026-05-02T12:43:47.316Z</time></trkpt><trkpt lat="43.626545" lon="12.1187936"><ele>496.0</ele><time>2026-05-02T12:43:48.318Z</time></trkpt><trkpt lat="43.6266763" lon="12.1188099"><ele>496.0</ele><time>2026-05-02T12:43:49.317Z</time></trkpt><trkpt lat="43.6268275" lon="12.1187758"><ele>496.0</ele><time>2026-05-02T12:43:51.316Z</time></trkpt><trkpt lat="43.6269044" lon="12.1187005"><ele>496.0</ele><time>2026-05-02T12:43:52.309Z</time></trkpt><trkpt lat="43.6269886" lon="12.11861"><ele>496.0</ele><time>2026-05-02T12:43:53.318Z</time></trkpt><trkpt lat="43.6270958" lon="12.1185157"><ele>494.6666666666667</ele><time>2026-05-02T12:43:54.311Z</time></trkpt><trkpt lat="43.6272221" lon="12.1184113"><ele>493.33333333333337</ele><time>2026-05-02T12:43:55.317Z</time></trkpt><trkpt lat="43.6273595" lon="12.1182785"><ele>492.0</ele><time>2026-05-02T12:43:56.312Z</time></trkpt><trkpt lat="43.6275028" lon="12.1181303"><ele>492.0</ele><time>2026-05-02T12:43:57.316Z</time></trkpt><trkpt lat="43.6276486" lon="12.1179746"><ele>492.0</ele><time>2026-05-02T12:43:58.318Z</time></trkpt><trkpt lat="43.6277843" lon="12.1178279"><ele>492.0</ele><time>2026-05-02T12:43:59.319Z</time></trkpt><trkpt lat="43.6279219" lon="12.1176955"><ele>494.66666666666663</ele><time>2026-05-02T12:44:00.317Z</time></trkpt><trkpt lat="43.6280843" lon="12.1175968"><ele>497.3333333333333</ele><time>2026-05-02T12:44:01.318Z</time></trkpt><trkpt lat="43.6282516" lon="12.1175293"><ele>500.0</ele><time>2026-05-02T12:44:02.312Z</time></trkpt><trkpt lat="43.628434" lon="12.1175332"><ele>500.0</ele><time>2026-05-02T12:44:03.318Z</time></trkpt><trkpt lat="43.6286117" lon="12.1175371"><ele>500.0</ele><time>2026-05-02T12:44:04.314Z</time></trkpt><trkpt lat="43.6287787" lon="12.1174934"><ele>500.0</ele><time>2026-05-02T12:44:05.319Z</time></trkpt><trkpt lat="43.6289404" lon="12.1173717"><ele>499.66666666666663</ele><time>2026-05-02T12:44:06.315Z</time></trkpt><trkpt lat="43.6291045" lon="12.117232"><ele>499.33333333333337</ele><time>2026-05-02T12:44:07.317Z</time></trkpt><trkpt lat="43.6292956" lon="12.1171063"><ele>499.0</ele><time>2026-05-02T12:44:08.317Z</time></trkpt><trkpt lat="43.6294802" lon="12.1170334"><ele>499.0</ele><time>2026-05-02T12:44:09.318Z</time></trkpt><trkpt lat="43.6296669" lon="12.1170054"><ele>499.0</ele><time>2026-05-02T12:44:10.311Z</time></trkpt><trkpt lat="43.6298768" lon="12.1170448"><ele>499.0</ele><time>2026-05-02T12:44:11.318Z</time></trkpt><trkpt lat="43.6300841" lon="12.1171127"><ele>499.0</ele><time>2026-05-02T12:44:12.318Z</time></trkpt><trkpt lat="43.6302727" lon="12.1172184"><ele>499.0</ele><time>2026-05-02T12:44:13.317Z</time></trkpt><trkpt lat="43.630448" lon="12.1173069"><ele>499.0</ele><time>2026-05-02T12:44:14.316Z</time></trkpt><trkpt lat="43.6305903" lon="12.117386"><ele>500.25</ele><time>2026-05-02T12:44:15.318Z</time></trkpt><trkpt lat="43.630725" lon="12.1174435"><ele>501.5</ele><time>2026-05-02T12:44:16.316Z</time></trkpt><trkpt lat="43.6308452" lon="12.117449"><ele>502.75</ele><time>2026-05-02T12:44:17.317Z</time></trkpt><trkpt lat="43.630966" lon="12.1173867"><ele>504.0</ele><time>2026-05-02T12:44:18.315Z</time></trkpt><trkpt lat="43.6310381" lon="12.1172404"><ele>504.0</ele><time>2026-05-02T12:44:19.308Z</time></trkpt><trkpt lat="43.6310801" lon="12.117094"><ele>504.0</ele><time>2026-05-02T12:44:20.316Z</time></trkpt><trkpt lat="43.6310579" lon="12.116956"><ele>504.0</ele><time>2026-05-02T12:44:21.32Z</time></trkpt><trkpt lat="43.6309976" lon="12.1168417"><ele>504.0</ele><time>2026-05-02T12:44:22.32Z</time></trkpt><trkpt lat="43.6308937" lon="12.1167476"><ele>504.0</ele><time>2026-05-02T12:44:23.32Z</time></trkpt><trkpt lat="43.6308409" lon="12.1166391"><ele>503.6</ele><time>2026-05-02T12:44:24.312Z</time></trkpt><trkpt lat="43.6308303" lon="12.116535"><ele>503.2</ele><time>2026-05-02T12:44:25.318Z</time></trkpt><trkpt lat="43.6308804" lon="12.1164717"><ele>502.80000000000007</ele><time>2026-05-02T12:44:26.312Z</time></trkpt><trkpt lat="43.6309594" lon="12.1164731"><ele>502.40000000000003</ele><time>2026-05-02T12:44:27.319Z</time></trkpt><trkpt lat="43.6310755" lon="12.1165414"><ele>502.0</ele><time>2026-05-02T12:44:28.309Z</time></trkpt><trkpt lat="43.6312409" lon="12.1166661"><ele>509.5</ele><time>2026-05-02T12:44:29.319Z</time></trkpt><trkpt lat="43.6314394" lon="12.1168131"><ele>517.0</ele><time>2026-05-02T12:44:30.319Z</time></trkpt><trkpt lat="43.6316763" lon="12.1169752"><ele>517.0</ele><time>2026-05-02T12:44:31.317Z</time></trkpt><trkpt lat="43.6319387" lon="12.1171182"><ele>517.0</ele><time>2026-05-02T12:44:32.315Z</time></trkpt><trkpt lat="43.6322211" lon="12.1172262"><ele>516.5</ele><time>2026-05-02T12:44:33.317Z</time></trkpt><trkpt lat="43.6325063" lon="12.1173399"><ele>516.0</ele><time>2026-05-02T12:44:34.312Z</time></trkpt><trkpt lat="43.632768" lon="12.1174702"><ele>523.0</ele><time>2026-05-02T12:44:35.316Z</time></trkpt><trkpt lat="43.633009" lon="12.117599"><ele>530.0</ele><time>2026-05-02T12:44:36.316Z</time></trkpt><trkpt lat="43.6332069" lon="12.1177057"><ele>530.0</ele><time>2026-05-02T12:44:37.32Z</time></trkpt><trkpt lat="43.6334071" lon="12.1178136"><ele>530.0</ele><time>2026-05-02T12:44:38.316Z</time></trkpt><trkpt lat="43.6335331" lon="12.1178875"><ele>530.0</ele><time>2026-05-02T12:44:39.32Z</time></trkpt><trkpt lat="43.6336276" lon="12.1178955"><ele>530.0</ele><time>2026-05-02T12:44:40.315Z</time></trkpt><trkpt lat="43.6337276" lon="12.1178636"><ele>533.0</ele><time>2026-05-02T12:44:41.318Z</time></trkpt><trkpt lat="43.6337852" lon="12.117763"><ele>536.0</ele><time>2026-05-02T12:44:42.315Z</time></trkpt><trkpt lat="43.6337939" lon="12.1176405"><ele>539.0</ele><time>2026-05-02T12:44:43.31Z</time></trkpt><trkpt lat="43.6337913" lon="12.1175135"><ele>542.0</ele><time>2026-05-02T12:44:44.309Z</time></trkpt><trkpt lat="43.6336008" lon="12.1173673"><ele>542.0</ele><time>2026-05-02T12:44:45.317Z</time></trkpt><trkpt lat="43.6334458" lon="12.1171967"><ele>542.0</ele><time>2026-05-02T12:44:46.309Z</time></trkpt><trkpt lat="43.6332739" lon="12.1170311"><ele>542.0</ele><time>2026-05-02T12:44:47.317Z</time></trkpt><trkpt lat="43.6331353" lon="12.1168643"><ele>542.0</ele><time>2026-05-02T12:44:48.319Z</time></trkpt><trkpt lat="43.6330277" lon="12.1166889"><ele>542.0</ele><time>2026-05-02T12:44:49.315Z</time></trkpt><trkpt lat="43.6329364" lon="12.1165023"><ele>542.0</ele><time>2026-05-02T12:44:50.312Z</time></trkpt><trkpt lat="43.6329669" lon="12.1162638"><ele>543.0</ele><time>2026-05-02T12:44:51.315Z</time></trkpt><trkpt lat="43.6330121" lon="12.1160161"><ele>544.0</ele><time>2026-05-02T12:44:52.312Z</time></trkpt><trkpt lat="43.6331023" lon="12.1157212"><ele>545.0</ele><time>2026-05-02T12:44:53.318Z</time></trkpt><trkpt lat="43.6332298" lon="12.1153881"><ele>545.0</ele><time>2026-05-02T12:44:54.319Z</time></trkpt><trkpt lat="43.6333781" lon="12.1150645"><ele>545.0</ele><time>2026-05-02T12:44:55.317Z</time></trkpt><trkpt lat="43.6335378" lon="12.1147789"><ele>549.0</ele><time>2026-05-02T12:44:56.314Z</time></trkpt><trkpt lat="43.6337164" lon="12.1145273"><ele>553.0</ele><time>2026-05-02T12:44:57.321Z</time></trkpt><trkpt lat="43.633877" lon="12.1143115"><ele>553.0</ele><time>2026-05-02T12:44:58.314Z</time></trkpt><trkpt lat="43.6340291" lon="12.114125"><ele>553.0</ele><time>2026-05-02T12:44:59.315Z</time></trkpt><trkpt lat="43.634176" lon="12.1139619"><ele>553.0</ele><time>2026-05-02T12:45:00.318Z</time></trkpt><trkpt lat="43.6343466" lon="12.1139117"><ele>553.5</ele><time>2026-05-02T12:45:01.318Z</time></trkpt><trkpt lat="43.6345651" lon="12.1138846"><ele>554.0</ele><time>2026-05-02T12:45:02.317Z</time></trkpt><trkpt lat="43.6348024" lon="12.1138666"><ele>554.0</ele><time>2026-05-02T12:45:03.319Z</time></trkpt><trkpt lat="43.6350377" lon="12.1138678"><ele>554.0</ele><time>2026-05-02T12:45:04.312Z</time></trkpt><trkpt lat="43.6352355" lon="12.1139391"><ele>554.0</ele><time>2026-05-02T12:45:05.316Z</time></trkpt><trkpt lat="43.6354142" lon="12.1140287"><ele>556.5</ele><time>2026-05-02T12:45:06.316Z</time></trkpt><trkpt lat="43.6355584" lon="12.1141202"><ele>559.0</ele><time>2026-05-02T12:45:07.317Z</time></trkpt><trkpt lat="43.6356893" lon="12.1141903"><ele>561.5</ele><time>2026-05-02T12:45:08.317Z</time></trkpt><trkpt lat="43.6358" lon="12.1142047"><ele>564.0</ele><time>2026-05-02T12:45:09.319Z</time></trkpt><trkpt lat="43.6358963" lon="12.1141437"><ele>564.5</ele><time>2026-05-02T12:45:10.317Z</time></trkpt><trkpt lat="43.6359675" lon="12.1140189"><ele>565.0</ele><time>2026-05-02T12:45:11.317Z</time></trkpt><trkpt lat="43.6359862" lon="12.1138629"><ele>565.5</ele><time>2026-05-02T12:45:12.325Z</time></trkpt><trkpt lat="43.6359367" lon="12.1137085"><ele>566.0</ele><time>2026-05-02T12:45:13.317Z</time></trkpt><trkpt lat="43.6358929" lon="12.1135697"><ele>566.0</ele><time>2026-05-02T12:45:14.316Z</time></trkpt><trkpt lat="43.6358066" lon="12.1134528"><ele>566.0</ele><time>2026-05-02T12:45:15.317Z</time></trkpt><trkpt lat="43.6357906" lon="12.113319"><ele>566.0</ele><time>2026-05-02T12:45:16.313Z</time></trkpt><trkpt lat="43.6358311" lon="12.1132245"><ele>566.0</ele><time>2026-05-02T12:45:17.317Z</time></trkpt><trkpt lat="43.6359235" lon="12.113168"><ele>566.0</ele><time>2026-05-02T12:45:18.317Z</time></trkpt><trkpt lat="43.6360793" lon="12.1131453"><ele>564.3333333333333</ele><time>2026-05-02T12:45:19.318Z</time></trkpt><trkpt lat="43.6362861" lon="12.1131346"><ele>562.6666666666666</ele><time>2026-05-02T12:45:20.317Z</time></trkpt><trkpt lat="43.6365232" lon="12.1131183"><ele>561.0</ele><time>2026-05-02T12:45:21.317Z</time></trkpt><trkpt lat="43.6367911" lon="12.1130591"><ele>565.5</ele><time>2026-05-02T12:45:22.316Z</time></trkpt><trkpt lat="43.6370413" lon="12.1129628"><ele>570.0</ele><time>2026-05-02T12:45:23.317Z</time></trkpt><trkpt lat="43.6372722" lon="12.1128656"><ele>570.0</ele><time>2026-05-02T12:45:24.316Z</time></trkpt><trkpt lat="43.6374489" lon="12.1127899"><ele>570.0</ele><time>2026-05-02T12:45:25.317Z</time></trkpt><trkpt lat="43.6376315" lon="12.1127587"><ele>570.0</ele><time>2026-05-02T12:45:26.317Z</time></trkpt><trkpt lat="43.6378093" lon="12.1128041"><ele>570.6666666666666</ele><time>2026-05-02T12:45:27.317Z</time></trkpt><trkpt lat="43.6379919" lon="12.1129181"><ele>571.3333333333333</ele><time>2026-05-02T12:45:28.31Z</time></trkpt><trkpt lat="43.6381877" lon="12.1130365"><ele>572.0</ele><time>2026-05-02T12:45:29.317Z</time></trkpt><trkpt lat="43.638389" lon="12.1131091"><ele>572.0</ele><time>2026-05-02T12:45:30.313Z</time></trkpt><trkpt lat="43.6386028" lon="12.1131046"><ele>572.0</ele><time>2026-05-02T12:45:31.316Z</time></trkpt><trkpt lat="43.6388212" lon="12.1130631"><ele>572.0</ele><time>2026-05-02T12:45:32.316Z</time></trkpt><trkpt lat="43.6390477" lon="12.1129815"><ele>575.0</ele><time>2026-05-02T12:45:33.317Z</time></trkpt><trkpt lat="43.6392748" lon="12.1128705"><ele>578.0</ele><time>2026-05-02T12:45:34.317Z</time></trkpt><trkpt lat="43.6394794" lon="12.1127783"><ele>581.3333333333333</ele><time>2026-05-02T12:45:35.316Z</time></trkpt><trkpt lat="43.6396722" lon="12.1127187"><ele>584.6666666666666</ele><time>2026-05-02T12:45:36.32Z</time></trkpt><trkpt lat="43.6398459" lon="12.1126981"><ele>588.0</ele><time>2026-05-02T12:45:37.318Z</time></trkpt><trkpt lat="43.6400046" lon="12.1127083"><ele>588.0</ele><time>2026-05-02T12:45:38.318Z</time></trkpt><trkpt lat="43.6401265" lon="12.1126962"><ele>588.0</ele><time>2026-05-02T12:45:39.318Z</time></trkpt><trkpt lat="43.6402322" lon="12.112628"><ele>588.0</ele><time>2026-05-02T12:45:40.314Z</time></trkpt><trkpt lat="43.6403077" lon="12.1124926"><ele>588.0</ele><time>2026-05-02T12:45:41.316Z</time></trkpt><trkpt lat="43.6403377" lon="12.1122975"><ele>588.3333333333334</ele><time>2026-05-02T12:45:42.321Z</time></trkpt><trkpt lat="43.6403161" lon="12.1120545"><ele>588.6666666666667</ele><time>2026-05-02T12:45:43.317Z</time></trkpt><trkpt lat="43.6402611" lon="12.1117472"><ele>589.0</ele><time>2026-05-02T12:45:44.318Z</time></trkpt><trkpt lat="43.6402016" lon="12.111382"><ele>592.0</ele><time>2026-05-02T12:45:45.313Z</time></trkpt><trkpt lat="43.6401458" lon="12.1110313"><ele>595.0</ele><time>2026-05-02T12:45:46.317Z</time></trkpt><trkpt lat="43.6400819" lon="12.110715"><ele>597.0</ele><time>2026-05-02T12:45:47.316Z</time></trkpt><trkpt lat="43.6400216" lon="12.1104327"><ele>599.0</ele><time>2026-05-02T12:45:48.316Z</time></trkpt><trkpt lat="43.6399696" lon="12.1101828"><ele>601.0</ele><time>2026-05-02T12:45:49.317Z</time></trkpt><trkpt lat="43.6399229" lon="12.1099662"><ele>601.25</ele><time>2026-05-02T12:45:50.317Z</time></trkpt><trkpt lat="43.6398991" lon="12.1097765"><ele>601.5</ele><time>2026-05-02T12:45:51.317Z</time></trkpt><trkpt lat="43.6399177" lon="12.1096074"><ele>601.75</ele><time>2026-05-02T12:45:52.311Z</time></trkpt><trkpt lat="43.6399791" lon="12.1094697"><ele>602.0</ele><time>2026-05-02T12:45:53.318Z</time></trkpt><trkpt lat="43.6400689" lon="12.1093663"><ele>602.0</ele><time>2026-05-02T12:45:54.317Z</time></trkpt><trkpt lat="43.6401703" lon="12.1092916"><ele>602.0</ele><time>2026-05-02T12:45:55.313Z</time></trkpt><trkpt lat="43.6402823" lon="12.1092614"><ele>602.0</ele><time>2026-05-02T12:45:56.316Z</time></trkpt><trkpt lat="43.6403946" lon="12.1092002"><ele>602.0</ele><time>2026-05-02T12:45:57.317Z</time></trkpt><trkpt lat="43.6405125" lon="12.1091392"><ele>603.6666666666666</ele><time>2026-05-02T12:45:58.316Z</time></trkpt><trkpt lat="43.6406431" lon="12.1090268"><ele>605.3333333333334</ele><time>2026-05-02T12:45:59.315Z</time></trkpt><trkpt lat="43.6407965" lon="12.1088912"><ele>607.0</ele><time>2026-05-02T12:46:00.315Z</time></trkpt><trkpt lat="43.6409749" lon="12.1087403"><ele>608.3333333333334</ele><time>2026-05-02T12:46:01.318Z</time></trkpt><trkpt lat="43.6411485" lon="12.1085957"><ele>609.6666666666666</ele><time>2026-05-02T12:46:02.317Z</time></trkpt><trkpt lat="43.641341" lon="12.1084249"><ele>611.0</ele><time>2026-05-02T12:46:03.317Z</time></trkpt><trkpt lat="43.6415325" lon="12.1082412"><ele>611.0</ele><time>2026-05-02T12:46:04.32Z</time></trkpt><trkpt lat="43.6417182" lon="12.108065"><ele>611.0</ele><time>2026-05-02T12:46:05.317Z</time></trkpt><trkpt lat="43.6419043" lon="12.1078896"><ele>613.0</ele><time>2026-05-02T12:46:06.318Z</time></trkpt><trkpt lat="43.6420857" lon="12.1077456"><ele>615.0</ele><time>2026-05-02T12:46:07.318Z</time></trkpt><trkpt lat="43.6422975" lon="12.1076374"><ele>617.0</ele><time>2026-05-02T12:46:08.318Z</time></trkpt><trkpt lat="43.6425207" lon="12.1075459"><ele>617.0</ele><time>2026-05-02T12:46:09.316Z</time></trkpt><trkpt lat="43.6427678" lon="12.1074569"><ele>617.0</ele><time>2026-05-02T12:46:10.318Z</time></trkpt><trkpt lat="43.6429861" lon="12.1073777"><ele>616.6666666666666</ele><time>2026-05-02T12:46:11.311Z</time></trkpt><trkpt lat="43.6431921" lon="12.1072918"><ele>616.3333333333334</ele><time>2026-05-02T12:46:12.318Z</time></trkpt><trkpt lat="43.6433838" lon="12.1072142"><ele>616.0</ele><time>2026-05-02T12:46:13.316Z</time></trkpt><trkpt lat="43.6435331" lon="12.1071955"><ele>618.0</ele><time>2026-05-02T12:46:14.316Z</time></trkpt><trkpt lat="43.6436902" lon="12.1072177"><ele>620.0</ele><time>2026-05-02T12:46:15.317Z</time></trkpt><trkpt lat="43.6438548" lon="12.1072666"><ele>622.0</ele><time>2026-05-02T12:46:16.31Z</time></trkpt><trkpt lat="43.6440192" lon="12.1072744"><ele>622.0</ele><time>2026-05-02T12:46:17.312Z</time></trkpt><trkpt lat="43.6441995" lon="12.1072135"><ele>622.0</ele><time>2026-05-02T12:46:18.319Z</time></trkpt><trkpt lat="43.644399" lon="12.1070948"><ele>622.0</ele><time>2026-05-02T12:46:19.31Z</time></trkpt><trkpt lat="43.6446105" lon="12.106931"><ele>627.0</ele><time>2026-05-02T12:46:20.31Z</time></trkpt><trkpt lat="43.6448001" lon="12.1067214"><ele>632.0</ele><time>2026-05-02T12:46:21.314Z</time></trkpt><trkpt lat="43.6449561" lon="12.1064814"><ele>632.0</ele><time>2026-05-02T12:46:22.317Z</time></trkpt><trkpt lat="43.6450901" lon="12.106242"><ele>632.0</ele><time>2026-05-02T12:46:23.318Z</time></trkpt><trkpt lat="43.6452225" lon="12.1060329"><ele>632.0</ele><time>2026-05-02T12:46:24.319Z</time></trkpt><trkpt lat="43.6453541" lon="12.1058658"><ele>637.0</ele><time>2026-05-02T12:46:25.315Z</time></trkpt><trkpt lat="43.645467" lon="12.1057247"><ele>642.0</ele><time>2026-05-02T12:46:26.316Z</time></trkpt><trkpt lat="43.6455344" lon="12.1055538"><ele>647.0</ele><time>2026-05-02T12:46:27.311Z</time></trkpt><trkpt lat="43.6455467" lon="12.1053473"><ele>652.0</ele><time>2026-05-02T12:46:28.318Z</time></trkpt><trkpt lat="43.6455044" lon="12.105111"><ele>653.0</ele><time>2026-05-02T12:46:29.312Z</time></trkpt><trkpt lat="43.6454471" lon="12.1048279"><ele>654.0</ele><time>2026-05-02T12:46:30.323Z</time></trkpt><trkpt lat="43.6454235" lon="12.1045107"><ele>655.0</ele><time>2026-05-02T12:46:31.32Z</time></trkpt><trkpt lat="43.645408" lon="12.1041961"><ele>655.6666666666667</ele><time>2026-05-02T12:46:32.316Z</time></trkpt><trkpt lat="43.6453945" lon="12.103883"><ele>656.3333333333334</ele><time>2026-05-02T12:46:33.321Z</time></trkpt><trkpt lat="43.6453924" lon="12.103588"><ele>657.0</ele><time>2026-05-02T12:46:34.318Z</time></trkpt><trkpt lat="43.6454152" lon="12.1033157"><ele>656.0</ele><time>2026-05-02T12:46:35.317Z</time></trkpt><trkpt lat="43.6454821" lon="12.1030581"><ele>655.0</ele><time>2026-05-02T12:46:36.317Z</time></trkpt><trkpt lat="43.6455917" lon="12.1028217"><ele>654.0</ele><time>2026-05-02T12:46:37.318Z</time></trkpt><trkpt lat="43.6457443" lon="12.1025966"><ele>652.5</ele><time>2026-05-02T12:46:38.32Z</time></trkpt><trkpt lat="43.6459404" lon="12.1023697"><ele>651.0</ele><time>2026-05-02T12:46:39.329Z</time></trkpt><trkpt lat="43.646158" lon="12.1021485"><ele>656.5</ele><time>2026-05-02T12:46:40.317Z</time></trkpt><trkpt lat="43.6463657" lon="12.1019412"><ele>662.0</ele><time>2026-05-02T12:46:41.319Z</time></trkpt><trkpt lat="43.6465536" lon="12.1017452"><ele>661.6666666666666</ele><time>2026-05-02T12:46:42.316Z</time></trkpt><trkpt lat="43.6467195" lon="12.1015444"><ele>661.3333333333334</ele><time>2026-05-02T12:46:43.312Z</time></trkpt><trkpt lat="43.646851" lon="12.101344"><ele>661.0</ele><time>2026-05-02T12:46:44.315Z</time></trkpt><trkpt lat="43.6469517" lon="12.1011257"><ele>664.6666666666667</ele><time>2026-05-02T12:46:45.321Z</time></trkpt><trkpt lat="43.6470189" lon="12.1008808"><ele>668.3333333333334</ele><time>2026-05-02T12:46:46.317Z</time></trkpt><trkpt lat="43.6470817" lon="12.1006258"><ele>672.0</ele><time>2026-05-02T12:46:47.315Z</time></trkpt><trkpt lat="43.6471468" lon="12.1003932"><ele>672.5</ele><time>2026-05-02T12:46:48.322Z</time></trkpt><trkpt lat="43.647174" lon="12.1001749"><ele>673.0</ele><time>2026-05-02T12:46:49.314Z</time></trkpt><trkpt lat="43.647147" lon="12.0999794"><ele>673.5</ele><time>2026-05-02T12:46:50.32Z</time></trkpt><trkpt lat="43.6470744" lon="12.0998282"><ele>674.0</ele><time>2026-05-02T12:46:51.312Z</time></trkpt><trkpt lat="43.646986" lon="12.0996807"><ele>675.75</ele><time>2026-05-02T12:46:52.317Z</time></trkpt><trkpt lat="43.6469357" lon="12.0995214"><ele>677.5</ele><time>2026-05-02T12:46:53.317Z</time></trkpt><trkpt lat="43.6469473" lon="12.0993558"><ele>679.25</ele><time>2026-05-02T12:46:54.315Z</time></trkpt><trkpt lat="43.6470214" lon="12.099206"><ele>681.0</ele><time>2026-05-02T12:46:55.317Z</time></trkpt><trkpt lat="43.6471421" lon="12.0990453"><ele>682.6666666666666</ele><time>2026-05-02T12:46:56.317Z</time></trkpt><trkpt lat="43.647269" lon="12.0988688"><ele>684.3333333333333</ele><time>2026-05-02T12:46:57.317Z</time></trkpt><trkpt lat="43.6473467" lon="12.0986767"><ele>686.0</ele><time>2026-05-02T12:46:58.319Z</time></trkpt><trkpt lat="43.6473766" lon="12.0984675"><ele>686.6666666666666</ele><time>2026-05-02T12:46:59.312Z</time></trkpt><trkpt lat="43.6473655" lon="12.0982219"><ele>687.3333333333334</ele><time>2026-05-02T12:47:00.303Z</time></trkpt><trkpt lat="43.647341" lon="12.0979039"><ele>688.0</ele><time>2026-05-02T12:47:01.317Z</time></trkpt><trkpt lat="43.6473154" lon="12.0975761"><ele>687.6666666666667</ele><time>2026-05-02T12:47:02.318Z</time></trkpt><trkpt lat="43.6472921" lon="12.0972846"><ele>687.3333333333334</ele><time>2026-05-02T12:47:03.318Z</time></trkpt><trkpt lat="43.6472967" lon="12.0969833"><ele>687.0</ele><time>2026-05-02T12:47:04.317Z</time></trkpt><trkpt lat="43.6473323" lon="12.0967136"><ele>685.0</ele><time>2026-05-02T12:47:05.318Z</time></trkpt><trkpt lat="43.6473686" lon="12.0964685"><ele>683.0</ele><time>2026-05-02T12:47:06.316Z</time></trkpt><trkpt lat="43.6473758" lon="12.0962342"><ele>681.0</ele><time>2026-05-02T12:47:07.312Z</time></trkpt><trkpt lat="43.6473707" lon="12.0960158"><ele>681.0</ele><time>2026-05-02T12:47:08.318Z</time></trkpt><trkpt lat="43.6473614" lon="12.0958605"><ele>681.0</ele><time>2026-05-02T12:47:09.317Z</time></trkpt><trkpt lat="43.6473775" lon="12.0957204"><ele>681.0</ele><time>2026-05-02T12:47:10.317Z</time></trkpt><trkpt lat="43.6474163" lon="12.0956141"><ele>681.0</ele><time>2026-05-02T12:47:11.318Z</time></trkpt><trkpt lat="43.647483" lon="12.09554"><ele>681.0</ele><time>2026-05-02T12:47:12.317Z</time></trkpt><trkpt lat="43.6475809" lon="12.0954984"><ele>679.5</ele><time>2026-05-02T12:47:13.317Z</time></trkpt><trkpt lat="43.647711" lon="12.0954906"><ele>678.0</ele><time>2026-05-02T12:47:14.316Z</time></trkpt><trkpt lat="43.6478505" lon="12.0955045"><ele>676.5</ele><time>2026-05-02T12:47:15.313Z</time></trkpt><trkpt lat="43.6480039" lon="12.0955636"><ele>675.0</ele><time>2026-05-02T12:47:16.318Z</time></trkpt><trkpt lat="43.6481205" lon="12.0956744"><ele>679.0</ele><time>2026-05-02T12:47:17.318Z</time></trkpt><trkpt lat="43.6482182" lon="12.0958559"><ele>683.0</ele><time>2026-05-02T12:47:18.318Z</time></trkpt><trkpt lat="43.6483202" lon="12.0960831"><ele>687.0</ele><time>2026-05-02T12:47:19.317Z</time></trkpt><trkpt lat="43.6484387" lon="12.0963047"><ele>687.0</ele><time>2026-05-02T12:47:20.316Z</time></trkpt><trkpt lat="43.648556" lon="12.0964887"><ele>687.0</ele><time>2026-05-02T12:47:21.317Z</time></trkpt><trkpt lat="43.6486781" lon="12.0966476"><ele>687.0</ele><time>2026-05-02T12:47:22.314Z</time></trkpt><trkpt lat="43.6488592" lon="12.096691"><ele>690.3333333333334</ele><time>2026-05-02T12:47:23.315Z</time></trkpt><trkpt lat="43.649061" lon="12.0967058"><ele>693.6666666666667</ele><time>2026-05-02T12:47:24.318Z</time></trkpt><trkpt lat="43.6492618" lon="12.0966765"><ele>697.0</ele><time>2026-05-02T12:47:25.316Z</time></trkpt><trkpt lat="43.6494306" lon="12.096676"><ele>695.0</ele><time>2026-05-02T12:47:26.315Z</time></trkpt><trkpt lat="43.6495688" lon="12.0967093"><ele>693.0</ele><time>2026-05-02T12:47:27.315Z</time></trkpt><trkpt lat="43.6496775" lon="12.0967997"><ele>691.0</ele><time>2026-05-02T12:47:28.315Z</time></trkpt><trkpt lat="43.6497371" lon="12.0969348"><ele>689.0</ele><time>2026-05-02T12:47:29.317Z</time></trkpt><trkpt lat="43.6497441" lon="12.0971166"><ele>689.0</ele><time>2026-05-02T12:47:30.317Z</time></trkpt><trkpt lat="43.649748" lon="12.0973191"><ele>689.0</ele><time>2026-05-02T12:47:31.316Z</time></trkpt><trkpt lat="43.6497573" lon="12.0975634"><ele>689.0</ele><time>2026-05-02T12:47:32.316Z</time></trkpt><trkpt lat="43.6498341" lon="12.097779"><ele>692.3333333333333</ele><time>2026-05-02T12:47:33.318Z</time></trkpt><trkpt lat="43.6499581" lon="12.0979836"><ele>695.6666666666666</ele><time>2026-05-02T12:47:34.317Z</time></trkpt><trkpt lat="43.650069" lon="12.0981855"><ele>699.0</ele><time>2026-05-02T12:47:35.316Z</time></trkpt><trkpt lat="43.6501364" lon="12.0984071"><ele>705.0</ele><time>2026-05-02T12:47:36.309Z</time></trkpt><trkpt lat="43.6501731" lon="12.0987031"><ele>711.0</ele><time>2026-05-02T12:47:37.315Z</time></trkpt><trkpt lat="43.6501904" lon="12.0990664"><ele>713.0</ele><time>2026-05-02T12:47:38.315Z</time></trkpt><trkpt lat="43.6502071" lon="12.0994351"><ele>715.0</ele><time>2026-05-02T12:47:39.313Z</time></trkpt><trkpt lat="43.6502282" lon="12.0998139"><ele>714.0</ele><time>2026-05-02T12:47:40.312Z</time></trkpt><trkpt lat="43.6502492" lon="12.100176"><ele>713.0</ele><time>2026-05-02T12:47:41.312Z</time></trkpt><trkpt lat="43.6502654" lon="12.1005156"><ele>712.6666666666666</ele><time>2026-05-02T12:47:42.312Z</time></trkpt><trkpt lat="43.6502905" lon="12.1008294"><ele>712.3333333333334</ele><time>2026-05-02T12:47:43.316Z</time></trkpt><trkpt lat="43.6503074" lon="12.1011083"><ele>712.0</ele><time>2026-05-02T12:47:44.312Z</time></trkpt><trkpt lat="43.6503022" lon="12.1013796"><ele>712.6666666666667</ele><time>2026-05-02T12:47:45.315Z</time></trkpt><trkpt lat="43.6502475" lon="12.1016426"><ele>713.3333333333334</ele><time>2026-05-02T12:47:46.315Z</time></trkpt><trkpt lat="43.650156" lon="12.1019076"><ele>714.0</ele><time>2026-05-02T12:47:47.316Z</time></trkpt><trkpt lat="43.6500708" lon="12.1021289"><ele>714.0</ele><time>2026-05-02T12:47:48.308Z</time></trkpt><trkpt lat="43.6500235" lon="12.1023426"><ele>714.0</ele><time>2026-05-02T12:47:49.317Z</time></trkpt><trkpt lat="43.6500238" lon="12.1025655"><ele>714.0</ele><time>2026-05-02T12:47:50.319Z</time></trkpt><trkpt lat="43.6500733" lon="12.1027802"><ele>715.3333333333334</ele><time>2026-05-02T12:47:51.317Z</time></trkpt><trkpt lat="43.6501821" lon="12.1029618"><ele>716.6666666666667</ele><time>2026-05-02T12:47:52.318Z</time></trkpt><trkpt lat="43.6503452" lon="12.1031169"><ele>718.0</ele><time>2026-05-02T12:47:53.316Z</time></trkpt><trkpt lat="43.6505489" lon="12.1032781"><ele>722.0</ele><time>2026-05-02T12:47:54.313Z</time></trkpt><trkpt lat="43.6507298" lon="12.1034307"><ele>726.0</ele><time>2026-05-02T12:47:55.318Z</time></trkpt><trkpt lat="43.6508768" lon="12.1035886"><ele>730.0</ele><time>2026-05-02T12:47:56.319Z</time></trkpt><trkpt lat="43.6509921" lon="12.1037751"><ele>730.0</ele><time>2026-05-02T12:47:57.316Z</time></trkpt><trkpt lat="43.651069" lon="12.1040043"><ele>730.0</ele><time>2026-05-02T12:47:58.316Z</time></trkpt><trkpt lat="43.6511028" lon="12.1042799"><ele>730.0</ele><time>2026-05-02T12:47:59.316Z</time></trkpt><trkpt lat="43.6511158" lon="12.1045925"><ele>734.3333333333334</ele><time>2026-05-02T12:48:00.316Z</time></trkpt><trkpt lat="43.6511421" lon="12.1049013"><ele>738.6666666666666</ele><time>2026-05-02T12:48:01.311Z</time></trkpt><trkpt lat="43.6511849" lon="12.1051712"><ele>743.0</ele><time>2026-05-02T12:48:02.312Z</time></trkpt><trkpt lat="43.6512665" lon="12.1054067"><ele>743.0</ele><time>2026-05-02T12:48:03.316Z</time></trkpt><trkpt lat="43.6513803" lon="12.1056242"><ele>743.0</ele><time>2026-05-02T12:48:04.316Z</time></trkpt><trkpt lat="43.6515219" lon="12.1058028"><ele>743.0</ele><time>2026-05-02T12:48:05.317Z</time></trkpt><trkpt lat="43.6516399" lon="12.1059841"><ele>743.0</ele><time>2026-05-02T12:48:06.32Z</time></trkpt><trkpt lat="43.6517278" lon="12.1062136"><ele>743.0</ele><time>2026-05-02T12:48:07.317Z</time></trkpt><trkpt lat="43.651785" lon="12.106496"><ele>743.0</ele><time>2026-05-02T12:48:08.321Z</time></trkpt><trkpt lat="43.6518205" lon="12.1067587"><ele>743.6666666666666</ele><time>2026-05-02T12:48:09.317Z</time></trkpt><trkpt lat="43.6518335" lon="12.1070014"><ele>744.3333333333334</ele><time>2026-05-02T12:48:10.314Z</time></trkpt><trkpt lat="43.6517952" lon="12.1072221"><ele>745.0</ele><time>2026-05-02T12:48:11.317Z</time></trkpt><trkpt lat="43.6517007" lon="12.1074197"><ele>746.3333333333334</ele><time>2026-05-02T12:48:12.322Z</time></trkpt><trkpt lat="43.6515553" lon="12.1076351"><ele>747.6666666666666</ele><time>2026-05-02T12:48:13.321Z</time></trkpt><trkpt lat="43.6513992" lon="12.107836"><ele>749.0</ele><time>2026-05-02T12:48:14.316Z</time></trkpt><trkpt lat="43.6512616" lon="12.1080211"><ele>749.0</ele><time>2026-05-02T12:48:15.321Z</time></trkpt><trkpt lat="43.6511319" lon="12.1081882"><ele>749.0</ele><time>2026-05-02T12:48:16.317Z</time></trkpt><trkpt lat="43.6510152" lon="12.1083302"><ele>749.0</ele><time>2026-05-02T12:48:17.319Z</time></trkpt><trkpt lat="43.6509099" lon="12.1084645"><ele>748.6666666666666</ele><time>2026-05-02T12:48:18.314Z</time></trkpt><trkpt lat="43.6508118" lon="12.1085866"><ele>748.3333333333334</ele><time>2026-05-02T12:48:19.432Z</time></trkpt><trkpt lat="43.6506643" lon="12.1088237"><ele>748.0</ele><time>2026-05-02T12:48:21.317Z</time></trkpt><trkpt lat="43.6506461" lon="12.1089608"><ele>748.75</ele><time>2026-05-02T12:48:22.316Z</time></trkpt><trkpt lat="43.650675" lon="12.1090975"><ele>749.5</ele><time>2026-05-02T12:48:23.317Z</time></trkpt><trkpt lat="43.6507529" lon="12.1092"><ele>750.25</ele><time>2026-05-02T12:48:24.32Z</time></trkpt><trkpt lat="43.6508681" lon="12.1092606"><ele>751.0</ele><time>2026-05-02T12:48:25.317Z</time></trkpt><trkpt lat="43.6510169" lon="12.1092863"><ele>755.0</ele><time>2026-05-02T12:48:26.313Z</time></trkpt><trkpt lat="43.6512133" lon="12.1093298"><ele>759.0</ele><time>2026-05-02T12:48:27.317Z</time></trkpt><trkpt lat="43.651398" lon="12.1093825"><ele>763.0</ele><time>2026-05-02T12:48:28.317Z</time></trkpt><trkpt lat="43.651559" lon="12.1094515"><ele>763.0</ele><time>2026-05-02T12:48:29.317Z</time></trkpt><trkpt lat="43.6516954" lon="12.1095651"><ele>763.0</ele><time>2026-05-02T12:48:30.322Z</time></trkpt><trkpt lat="43.6517817" lon="12.1097299"><ele>763.0</ele><time>2026-05-02T12:48:31.318Z</time></trkpt><trkpt lat="43.6518256" lon="12.1099528"><ele>761.6666666666667</ele><time>2026-05-02T12:48:32.317Z</time></trkpt><trkpt lat="43.6518583" lon="12.110193"><ele>760.3333333333334</ele><time>2026-05-02T12:48:33.314Z</time></trkpt><trkpt lat="43.65193" lon="12.1103964"><ele>759.0</ele><time>2026-05-02T12:48:34.316Z</time></trkpt><trkpt lat="43.6520485" lon="12.1105584"><ele>763.6666666666667</ele><time>2026-05-02T12:48:35.318Z</time></trkpt><trkpt lat="43.6522118" lon="12.110674"><ele>768.3333333333334</ele><time>2026-05-02T12:48:36.313Z</time></trkpt><trkpt lat="43.6524036" lon="12.1107804"><ele>773.0</ele><time>2026-05-02T12:48:37.318Z</time></trkpt><trkpt lat="43.6525631" lon="12.1108971"><ele>773.0</ele><time>2026-05-02T12:48:38.316Z</time></trkpt><trkpt lat="43.6526952" lon="12.1110772"><ele>773.0</ele><time>2026-05-02T12:48:39.32Z</time></trkpt><trkpt lat="43.652813" lon="12.111328"><ele>773.0</ele><time>2026-05-02T12:48:40.319Z</time></trkpt><trkpt lat="43.6529276" lon="12.1116413"><ele>776.0</ele><time>2026-05-02T12:48:41.317Z</time></trkpt><trkpt lat="43.653041" lon="12.111985"><ele>779.0</ele><time>2026-05-02T12:48:42.31Z</time></trkpt><trkpt lat="43.6531629" lon="12.1123634"><ele>779.5</ele><time>2026-05-02T12:48:43.32Z</time></trkpt><trkpt lat="43.6532879" lon="12.1127373"><ele>780.0</ele><time>2026-05-02T12:48:44.31Z</time></trkpt><trkpt lat="43.6534077" lon="12.1130766"><ele>781.5</ele><time>2026-05-02T12:48:45.315Z</time></trkpt><trkpt lat="43.6535219" lon="12.1133896"><ele>783.0</ele><time>2026-05-02T12:48:46.317Z</time></trkpt><trkpt lat="43.6536236" lon="12.1136772"><ele>785.3333333333333</ele><time>2026-05-02T12:48:47.317Z</time></trkpt><trkpt lat="43.6536962" lon="12.1139467"><ele>787.6666666666666</ele><time>2026-05-02T12:48:48.319Z</time></trkpt><trkpt lat="43.6537339" lon="12.1142112"><ele>790.0</ele><time>2026-05-02T12:48:49.318Z</time></trkpt><trkpt lat="43.6537309" lon="12.1144607"><ele>791.5</ele><time>2026-05-02T12:48:50.315Z</time></trkpt><trkpt lat="43.6537047" lon="12.1146845"><ele>793.0</ele><time>2026-05-02T12:48:51.312Z</time></trkpt><trkpt lat="43.6536895" lon="12.1148908"><ele>794.5</ele><time>2026-05-02T12:48:52.318Z</time></trkpt><trkpt lat="43.6537007" lon="12.1150751"><ele>796.0</ele><time>2026-05-02T12:48:53.317Z</time></trkpt><trkpt lat="43.653756" lon="12.1152251"><ele>796.75</ele><time>2026-05-02T12:48:54.322Z</time></trkpt><trkpt lat="43.6538428" lon="12.115319"><ele>797.5</ele><time>2026-05-02T12:48:55.317Z</time></trkpt><trkpt lat="43.6539502" lon="12.1153354"><ele>798.25</ele><time>2026-05-02T12:48:56.319Z</time></trkpt><trkpt lat="43.6540594" lon="12.1152684"><ele>799.0</ele><time>2026-05-02T12:48:57.318Z</time></trkpt><trkpt lat="43.6541547" lon="12.115114"><ele>798.0</ele><time>2026-05-02T12:48:58.313Z</time></trkpt><trkpt lat="43.6542469" lon="12.1148925"><ele>797.0</ele><time>2026-05-02T12:48:59.316Z</time></trkpt><trkpt lat="43.6543491" lon="12.1146347"><ele>796.0</ele><time>2026-05-02T12:49:00.316Z</time></trkpt><trkpt lat="43.6544451" lon="12.1144189"><ele>796.6666666666666</ele><time>2026-05-02T12:49:01.314Z</time></trkpt><trkpt lat="43.6545501" lon="12.1142397"><ele>797.3333333333333</ele><time>2026-05-02T12:49:02.315Z</time></trkpt><trkpt lat="43.6546862" lon="12.1141119"><ele>798.0</ele><time>2026-05-02T12:49:03.316Z</time></trkpt><trkpt lat="43.6548622" lon="12.1140317"><ele>798.0</ele><time>2026-05-02T12:49:04.315Z</time></trkpt><trkpt lat="43.6550834" lon="12.1139658"><ele>798.0</ele><time>2026-05-02T12:49:05.318Z</time></trkpt><trkpt lat="43.6553365" lon="12.1138955"><ele>802.0</ele><time>2026-05-02T12:49:06.314Z</time></trkpt><trkpt lat="43.6556028" lon="12.1138313"><ele>806.0</ele><time>2026-05-02T12:49:07.317Z</time></trkpt><trkpt lat="43.6558477" lon="12.1137766"><ele>806.0</ele><time>2026-05-02T12:49:08.312Z</time></trkpt><trkpt lat="43.6560922" lon="12.1137277"><ele>806.0</ele><time>2026-05-02T12:49:09.318Z</time></trkpt><trkpt lat="43.6563103" lon="12.1136857"><ele>810.3333333333334</ele><time>2026-05-02T12:49:10.316Z</time></trkpt><trkpt lat="43.6565099" lon="12.1136424"><ele>814.6666666666667</ele><time>2026-05-02T12:49:11.317Z</time></trkpt><trkpt lat="43.6566887" lon="12.113585"><ele>819.0</ele><time>2026-05-02T12:49:12.315Z</time></trkpt><trkpt lat="43.6568367" lon="12.1134847"><ele>819.0</ele><time>2026-05-02T12:49:13.316Z</time></trkpt><trkpt lat="43.6569428" lon="12.1133164"><ele>819.0</ele><time>2026-05-02T12:49:14.315Z</time></trkpt><trkpt lat="43.6570194" lon="12.1130856"><ele>819.0</ele><time>2026-05-02T12:49:15.317Z</time></trkpt><trkpt lat="43.6570719" lon="12.1128012"><ele>825.0</ele><time>2026-05-02T12:49:16.316Z</time></trkpt><trkpt lat="43.6571178" lon="12.1124759"><ele>831.0</ele><time>2026-05-02T12:49:17.317Z</time></trkpt><trkpt lat="43.657136" lon="12.1121146"><ele>832.0</ele><time>2026-05-02T12:49:18.317Z</time></trkpt><trkpt lat="43.6571304" lon="12.1117683"><ele>833.0</ele><time>2026-05-02T12:49:19.315Z</time></trkpt><trkpt lat="43.6571206" lon="12.1114529"><ele>831.6666666666667</ele><time>2026-05-02T12:49:20.317Z</time></trkpt><trkpt lat="43.6570946" lon="12.1111736"><ele>830.3333333333333</ele><time>2026-05-02T12:49:21.316Z</time></trkpt><trkpt lat="43.6570387" lon="12.1109307"><ele>829.0</ele><time>2026-05-02T12:49:22.315Z</time></trkpt><trkpt lat="43.6569497" lon="12.1107152"><ele>829.0</ele><time>2026-05-02T12:49:23.316Z</time></trkpt><trkpt lat="43.6568709" lon="12.1105152"><ele>829.0</ele><time>2026-05-02T12:49:24.316Z</time></trkpt><trkpt lat="43.6568415" lon="12.1103228"><ele>829.0</ele><time>2026-05-02T12:49:25.315Z</time></trkpt><trkpt lat="43.6568741" lon="12.1101593"><ele>829.0</ele><time>2026-05-02T12:49:26.314Z</time></trkpt><trkpt lat="43.6569661" lon="12.1100308"><ele>831.0</ele><time>2026-05-02T12:49:27.319Z</time></trkpt><trkpt lat="43.657118" lon="12.1099346"><ele>833.0</ele><time>2026-05-02T12:49:28.318Z</time></trkpt><trkpt lat="43.657306" lon="12.1098591"><ele>835.0</ele><time>2026-05-02T12:49:29.316Z</time></trkpt><trkpt lat="43.6574994" lon="12.1097814"><ele>835.0</ele><time>2026-05-02T12:49:30.312Z</time></trkpt><trkpt lat="43.6576658" lon="12.1096832"><ele>835.0</ele><time>2026-05-02T12:49:31.317Z</time></trkpt><trkpt lat="43.6578021" lon="12.1095409"><ele>835.0</ele><time>2026-05-02T12:49:32.314Z</time></trkpt><trkpt lat="43.657899" lon="12.109355"><ele>838.6666666666666</ele><time>2026-05-02T12:49:33.317Z</time></trkpt><trkpt lat="43.6579453" lon="12.1091093"><ele>842.3333333333333</ele><time>2026-05-02T12:49:34.309Z</time></trkpt><trkpt lat="43.6579706" lon="12.1088014"><ele>846.0</ele><time>2026-05-02T12:49:35.317Z</time></trkpt><trkpt lat="43.6579918" lon="12.1084388"><ele>848.0</ele><time>2026-05-02T12:49:36.317Z</time></trkpt><trkpt lat="43.6580069" lon="12.1080974"><ele>850.0</ele><time>2026-05-02T12:49:37.316Z</time></trkpt><trkpt lat="43.6580195" lon="12.1077879"><ele>850.0</ele><time>2026-05-02T12:49:38.316Z</time></trkpt><trkpt lat="43.6580224" lon="12.107516"><ele>850.0</ele><time>2026-05-02T12:49:39.317Z</time></trkpt><trkpt lat="43.658031" lon="12.1072829"><ele>850.0</ele><time>2026-05-02T12:49:40.317Z</time></trkpt><trkpt lat="43.6580471" lon="12.1070714"><ele>849.25</ele><time>2026-05-02T12:49:41.318Z</time></trkpt><trkpt lat="43.6581471" lon="12.1069545"><ele>848.5</ele><time>2026-05-02T12:49:42.315Z</time></trkpt><trkpt lat="43.6582451" lon="12.1068769"><ele>847.75</ele><time>2026-05-02T12:49:43.316Z</time></trkpt><trkpt lat="43.6584052" lon="12.1068826"><ele>847.0</ele><time>2026-05-02T12:49:44.318Z</time></trkpt><trkpt lat="43.6585967" lon="12.1069247"><ele>849.5</ele><time>2026-05-02T12:49:45.318Z</time></trkpt><trkpt lat="43.6588349" lon="12.106979"><ele>852.0</ele><time>2026-05-02T12:49:46.318Z</time></trkpt><trkpt lat="43.6590906" lon="12.1070296"><ele>852.0</ele><time>2026-05-02T12:49:47.317Z</time></trkpt><trkpt lat="43.6593298" lon="12.107065"><ele>852.0</ele><time>2026-05-02T12:49:48.317Z</time></trkpt><trkpt lat="43.6595182" lon="12.1070113"><ele>852.0</ele><time>2026-05-02T12:49:49.316Z</time></trkpt><trkpt lat="43.659736" lon="12.1069037"><ele>854.5</ele><time>2026-05-02T12:49:50.313Z</time></trkpt><trkpt lat="43.6599474" lon="12.1067584"><ele>857.0</ele><time>2026-05-02T12:49:51.317Z</time></trkpt><trkpt lat="43.6601545" lon="12.1066259"><ele>852.5</ele><time>2026-05-02T12:49:52.317Z</time></trkpt><trkpt lat="43.660367" lon="12.1065431"><ele>848.0</ele><time>2026-05-02T12:49:53.317Z</time></trkpt><trkpt lat="43.6606063" lon="12.1064969"><ele>848.0</ele><time>2026-05-02T12:49:54.316Z</time></trkpt><trkpt lat="43.6608436" lon="12.1064591"><ele>848.0</ele><time>2026-05-02T12:49:55.318Z</time></trkpt><trkpt lat="43.6610873" lon="12.1064177"><ele>855.0</ele><time>2026-05-02T12:49:56.314Z</time></trkpt><trkpt lat="43.6613407" lon="12.1063668"><ele>862.0</ele><time>2026-05-02T12:49:57.315Z</time></trkpt><trkpt lat="43.6615556" lon="12.1062538"><ele>862.0</ele><time>2026-05-02T12:49:58.317Z</time></trkpt><trkpt lat="43.6617467" lon="12.1060936"><ele>862.0</ele><time>2026-05-02T12:49:59.31Z</time></trkpt><trkpt lat="43.6619065" lon="12.1058725"><ele>867.5</ele><time>2026-05-02T12:50:00.316Z</time></trkpt><trkpt lat="43.6620508" lon="12.1056063"><ele>873.0</ele><time>2026-05-02T12:50:01.315Z</time></trkpt><trkpt lat="43.6621638" lon="12.1053596"><ele>873.0</ele><time>2026-05-02T12:50:02.317Z</time></trkpt><trkpt lat="43.6622707" lon="12.1051473"><ele>873.0</ele><time>2026-05-02T12:50:03.318Z</time></trkpt><trkpt lat="43.6623805" lon="12.1049685"><ele>873.0</ele><time>2026-05-02T12:50:04.315Z</time></trkpt><trkpt lat="43.6625132" lon="12.1048614"><ele>872.5</ele><time>2026-05-02T12:50:05.312Z</time></trkpt><trkpt lat="43.6626593" lon="12.1048109"><ele>872.0</ele><time>2026-05-02T12:50:06.318Z</time></trkpt><trkpt lat="43.6628085" lon="12.1048365"><ele>871.5</ele><time>2026-05-02T12:50:07.318Z</time></trkpt><trkpt lat="43.6629277" lon="12.1049314"><ele>871.0</ele><time>2026-05-02T12:50:08.318Z</time></trkpt><trkpt lat="43.6629935" lon="12.1050701"><ele>871.0</ele><time>2026-05-02T12:50:09.317Z</time></trkpt><trkpt lat="43.663009" lon="12.1052506"><ele>871.0</ele><time>2026-05-02T12:50:10.318Z</time></trkpt><trkpt lat="43.6630311" lon="12.1054742"><ele>871.0</ele><time>2026-05-02T12:50:11.315Z</time></trkpt><trkpt lat="43.663104" lon="12.105719"><ele>875.0</ele><time>2026-05-02T12:50:12.317Z</time></trkpt><trkpt lat="43.6632259" lon="12.1059902"><ele>879.0</ele><time>2026-05-02T12:50:13.317Z</time></trkpt><trkpt lat="43.6633809" lon="12.1062811"><ele>878.0</ele><time>2026-05-02T12:50:14.315Z</time></trkpt><trkpt lat="43.6635451" lon="12.1065808"><ele>877.0</ele><time>2026-05-02T12:50:15.317Z</time></trkpt><trkpt lat="43.6637199" lon="12.106887"><ele>877.0</ele><time>2026-05-02T12:50:16.315Z</time></trkpt><trkpt lat="43.6638965" lon="12.1071562"><ele>877.0</ele><time>2026-05-02T12:50:17.319Z</time></trkpt><trkpt lat="43.6640924" lon="12.1074096"><ele>875.0</ele><time>2026-05-02T12:50:18.317Z</time></trkpt><trkpt lat="43.6643017" lon="12.1076464"><ele>873.0</ele><time>2026-05-02T12:50:19.317Z</time></trkpt><trkpt lat="43.6645187" lon="12.1078908"><ele>873.0</ele><time>2026-05-02T12:50:20.316Z</time></trkpt><trkpt lat="43.6647179" lon="12.1081465"><ele>873.0</ele><time>2026-05-02T12:50:21.318Z</time></trkpt><trkpt lat="43.6648999" lon="12.1084102"><ele>883.0</ele><time>2026-05-02T12:50:22.317Z</time></trkpt><trkpt lat="43.6650592" lon="12.1086603"><ele>893.0</ele><time>2026-05-02T12:50:23.31Z</time></trkpt><trkpt lat="43.6652203" lon="12.1088779"><ele>895.5</ele><time>2026-05-02T12:50:24.316Z</time></trkpt><trkpt lat="43.6654037" lon="12.1090573"><ele>898.0</ele><time>2026-05-02T12:50:25.316Z</time></trkpt><trkpt lat="43.6656281" lon="12.1091781"><ele>898.0</ele><time>2026-05-02T12:50:26.315Z</time></trkpt><trkpt lat="43.6658143" lon="12.1092808"><ele>898.0</ele><time>2026-05-02T12:50:27.318Z</time></trkpt><trkpt lat="43.6659889" lon="12.1093935"><ele>898.0</ele><time>2026-05-02T12:50:28.316Z</time></trkpt><trkpt lat="43.6661294" lon="12.1095455"><ele>897.3333333333333</ele><time>2026-05-02T12:50:29.316Z</time></trkpt><trkpt lat="43.6662435" lon="12.109762"><ele>896.6666666666667</ele><time>2026-05-02T12:50:30.316Z</time></trkpt><trkpt lat="43.6663589" lon="12.1100365"><ele>896.0</ele><time>2026-05-02T12:50:31.311Z</time></trkpt><trkpt lat="43.6664789" lon="12.1103184"><ele>896.0</ele><time>2026-05-02T12:50:32.316Z</time></trkpt><trkpt lat="43.6665864" lon="12.110578"><ele>896.0</ele><time>2026-05-02T12:50:33.314Z</time></trkpt><trkpt lat="43.6666605" lon="12.1108323"><ele>896.0</ele><time>2026-05-02T12:50:34.317Z</time></trkpt><trkpt lat="43.6666912" lon="12.1110965"><ele>899.3333333333334</ele><time>2026-05-02T12:50:35.321Z</time></trkpt><trkpt lat="43.6666794" lon="12.1113813"><ele>902.6666666666667</ele><time>2026-05-02T12:50:36.313Z</time></trkpt><trkpt lat="43.6666313" lon="12.1116913"><ele>906.0</ele><time>2026-05-02T12:50:37.31Z</time></trkpt><trkpt lat="43.666588" lon="12.1120273"><ele>907.0</ele><time>2026-05-02T12:50:38.317Z</time></trkpt><trkpt lat="43.6665677" lon="12.1123494"><ele>908.0</ele><time>2026-05-02T12:50:39.313Z</time></trkpt><trkpt lat="43.6665669" lon="12.1126605"><ele>908.0</ele><time>2026-05-02T12:50:40.317Z</time></trkpt><trkpt lat="43.6665789" lon="12.1129503"><ele>908.0</ele><time>2026-05-02T12:50:41.313Z</time></trkpt><trkpt lat="43.6666222" lon="12.1132288"><ele>908.0</ele><time>2026-05-02T12:50:42.318Z</time></trkpt><trkpt lat="43.6667166" lon="12.1135003"><ele>909.5</ele><time>2026-05-02T12:50:43.316Z</time></trkpt><trkpt lat="43.6668471" lon="12.1137714"><ele>911.0</ele><time>2026-05-02T12:50:44.317Z</time></trkpt><trkpt lat="43.6670112" lon="12.1140229"><ele>910.6666666666667</ele><time>2026-05-02T12:50:45.317Z</time></trkpt><trkpt lat="43.6671661" lon="12.1142566"><ele>910.3333333333333</ele><time>2026-05-02T12:50:46.317Z</time></trkpt><trkpt lat="43.6672985" lon="12.1144581"><ele>910.0</ele><time>2026-05-02T12:50:47.311Z</time></trkpt><trkpt lat="43.6674308" lon="12.1146184"><ele>910.0</ele><time>2026-05-02T12:50:48.318Z</time></trkpt><trkpt lat="43.6675622" lon="12.1147083"><ele>910.0</ele><time>2026-05-02T12:50:49.316Z</time></trkpt><trkpt lat="43.6677014" lon="12.1147235"><ele>910.0</ele><time>2026-05-02T12:50:50.318Z</time></trkpt><trkpt lat="43.6678437" lon="12.1146629"><ele>910.0</ele><time>2026-05-02T12:50:51.317Z</time></trkpt><trkpt lat="43.6679777" lon="12.1146083"><ele>908.0</ele><time>2026-05-02T12:50:52.317Z</time></trkpt><trkpt lat="43.6681097" lon="12.1146327"><ele>906.0</ele><time>2026-05-02T12:50:53.317Z</time></trkpt><trkpt lat="43.6682555" lon="12.1147058"><ele>904.0</ele><time>2026-05-02T12:50:54.317Z</time></trkpt><trkpt lat="43.6684318" lon="12.1148106"><ele>906.6666666666666</ele><time>2026-05-02T12:50:55.315Z</time></trkpt><trkpt lat="43.6686352" lon="12.1148698"><ele>909.3333333333333</ele><time>2026-05-02T12:50:56.318Z</time></trkpt><trkpt lat="43.6688293" lon="12.114876"><ele>912.0</ele><time>2026-05-02T12:50:57.318Z</time></trkpt><trkpt lat="43.6690155" lon="12.1148386"><ele>912.0</ele><time>2026-05-02T12:50:58.319Z</time></trkpt><trkpt lat="43.6691952" lon="12.1147979"><ele>912.0</ele><time>2026-05-02T12:50:59.318Z</time></trkpt><trkpt lat="43.6693195" lon="12.1148289"><ele>912.0</ele><time>2026-05-02T12:51:00.317Z</time></trkpt><trkpt lat="43.6694558" lon="12.1148969"><ele>916.3333333333333</ele><time>2026-05-02T12:51:01.318Z</time></trkpt><trkpt lat="43.669608" lon="12.1150437"><ele>920.6666666666666</ele><time>2026-05-02T12:51:02.317Z</time></trkpt><trkpt lat="43.6697639" lon="12.1151533"><ele>925.0</ele><time>2026-05-02T12:51:03.314Z</time></trkpt><trkpt lat="43.6699233" lon="12.115213"><ele>925.0</ele><time>2026-05-02T12:51:04.318Z</time></trkpt><trkpt lat="43.6700708" lon="12.1151989"><ele>925.0</ele><time>2026-05-02T12:51:05.309Z</time></trkpt><trkpt lat="43.6702165" lon="12.1151831"><ele>925.0</ele><time>2026-05-02T12:51:06.318Z</time></trkpt><trkpt lat="43.6703574" lon="12.1150925"><ele>925.0</ele><time>2026-05-02T12:51:07.317Z</time></trkpt><trkpt lat="43.6704677" lon="12.115138"><ele>924.75</ele><time>2026-05-02T12:51:08.316Z</time></trkpt><trkpt lat="43.6705588" lon="12.1152223"><ele>924.5</ele><time>2026-05-02T12:51:09.312Z</time></trkpt><trkpt lat="43.6706372" lon="12.115385"><ele>924.25</ele><time>2026-05-02T12:51:10.316Z</time></trkpt><trkpt lat="43.6706818" lon="12.1155896"><ele>924.0</ele><time>2026-05-02T12:51:11.313Z</time></trkpt><trkpt lat="43.6707211" lon="12.1157934"><ele>927.25</ele><time>2026-05-02T12:51:12.317Z</time></trkpt><trkpt lat="43.6707806" lon="12.1159551"><ele>930.5</ele><time>2026-05-02T12:51:13.316Z</time></trkpt><trkpt lat="43.6708746" lon="12.1160445"><ele>933.75</ele><time>2026-05-02T12:51:14.315Z</time></trkpt><trkpt lat="43.6709921" lon="12.1160515"><ele>937.0</ele><time>2026-05-02T12:51:15.319Z</time></trkpt><trkpt lat="43.6711272" lon="12.1159705"><ele>938.6666666666666</ele><time>2026-05-02T12:51:16.315Z</time></trkpt><trkpt lat="43.671289" lon="12.1158257"><ele>940.3333333333333</ele><time>2026-05-02T12:51:17.315Z</time></trkpt><trkpt lat="43.671461" lon="12.1156755"><ele>942.0</ele><time>2026-05-02T12:51:18.318Z</time></trkpt><trkpt lat="43.6716204" lon="12.1155679"><ele>939.5</ele><time>2026-05-02T12:51:19.311Z</time></trkpt><trkpt lat="43.6717713" lon="12.1154982"><ele>937.0</ele><time>2026-05-02T12:51:20.316Z</time></trkpt><trkpt lat="43.6719106" lon="12.1154761"><ele>934.5</ele><time>2026-05-02T12:51:21.313Z</time></trkpt><trkpt lat="43.6720439" lon="12.1155293"><ele>932.0</ele><time>2026-05-02T12:51:22.316Z</time></trkpt><trkpt lat="43.6721669" lon="12.1156596"><ele>935.0</ele><time>2026-05-02T12:51:23.319Z</time></trkpt><trkpt lat="43.6722907" lon="12.1157997"><ele>938.0</ele><time>2026-05-02T12:51:24.317Z</time></trkpt><trkpt lat="43.6724905" lon="12.1160605"><ele>941.0</ele><time>2026-05-02T12:51:25.316Z</time></trkpt><trkpt lat="43.6726539" lon="12.1162555"><ele>940.3333333333334</ele><time>2026-05-02T12:51:26.316Z</time></trkpt><trkpt lat="43.6728547" lon="12.1163812"><ele>939.6666666666667</ele><time>2026-05-02T12:51:27.313Z</time></trkpt><trkpt lat="43.6730484" lon="12.1164732"><ele>939.0</ele><time>2026-05-02T12:51:28.319Z</time></trkpt><trkpt lat="43.6732563" lon="12.1164756"><ele>939.0</ele><time>2026-05-02T12:51:29.316Z</time></trkpt><trkpt lat="43.6734604" lon="12.1164712"><ele>939.0</ele><time>2026-05-02T12:51:30.319Z</time></trkpt><trkpt lat="43.6737125" lon="12.1163632"><ele>941.0</ele><time>2026-05-02T12:51:31.316Z</time></trkpt><trkpt lat="43.6739318" lon="12.1163369"><ele>943.0</ele><time>2026-05-02T12:51:32.314Z</time></trkpt><trkpt lat="43.6741643" lon="12.1163128"><ele>943.0</ele><time>2026-05-02T12:51:33.318Z</time></trkpt><trkpt lat="43.6744157" lon="12.1164176"><ele>943.0</ele><time>2026-05-02T12:51:34.314Z</time></trkpt><trkpt lat="43.6746644" lon="12.1165164"><ele>946.3333333333333</ele><time>2026-05-02T12:51:35.312Z</time></trkpt><trkpt lat="43.6748935" lon="12.1166131"><ele>949.6666666666667</ele><time>2026-05-02T12:51:36.317Z</time></trkpt><trkpt lat="43.6750906" lon="12.1166949"><ele>953.0</ele><time>2026-05-02T12:51:37.316Z</time></trkpt><trkpt lat="43.6752638" lon="12.1167445"><ele>952.0</ele><time>2026-05-02T12:51:38.313Z</time></trkpt><trkpt lat="43.6754313" lon="12.1167118"><ele>951.0</ele><time>2026-05-02T12:51:39.317Z</time></trkpt><trkpt lat="43.6756025" lon="12.1166057"><ele>950.0</ele><time>2026-05-02T12:51:40.318Z</time></trkpt><trkpt lat="43.6757829" lon="12.1164471"><ele>950.0</ele><time>2026-05-02T12:51:41.313Z</time></trkpt><trkpt lat="43.675974" lon="12.1163104"><ele>950.0</ele><time>2026-05-02T12:51:42.315Z</time></trkpt><trkpt lat="43.6762063" lon="12.1162401"><ele>952.5</ele><time>2026-05-02T12:51:43.314Z</time></trkpt><trkpt lat="43.6764709" lon="12.1161844"><ele>955.0</ele><time>2026-05-02T12:51:44.316Z</time></trkpt><trkpt lat="43.6767353" lon="12.1161471"><ele>956.5</ele><time>2026-05-02T12:51:45.31Z</time></trkpt><trkpt lat="43.67699" lon="12.1161214"><ele>958.0</ele><time>2026-05-02T12:51:46.318Z</time></trkpt><trkpt lat="43.6772568" lon="12.1161213"><ele>958.0</ele><time>2026-05-02T12:51:47.313Z</time></trkpt><trkpt lat="43.6775147" lon="12.1161529"><ele>958.0</ele><time>2026-05-02T12:51:48.316Z</time></trkpt><trkpt lat="43.6777552" lon="12.1161895"><ele>960.3333333333333</ele><time>2026-05-02T12:51:49.322Z</time></trkpt><trkpt lat="43.6779853" lon="12.1162311"><ele>962.6666666666667</ele><time>2026-05-02T12:51:50.32Z</time></trkpt><trkpt lat="43.6781765" lon="12.116292"><ele>965.0</ele><time>2026-05-02T12:51:51.314Z</time></trkpt><trkpt lat="43.6783359" lon="12.1163912"><ele>965.0</ele><time>2026-05-02T12:51:52.317Z</time></trkpt><trkpt lat="43.6785004" lon="12.1165001"><ele>965.0</ele><time>2026-05-02T12:51:53.317Z</time></trkpt><trkpt lat="43.6786742" lon="12.1165654"><ele>965.0</ele><time>2026-05-02T12:51:54.315Z</time></trkpt><trkpt lat="43.6788465" lon="12.1165536"><ele>964.0</ele><time>2026-05-02T12:51:55.316Z</time></trkpt><trkpt lat="43.679024" lon="12.1165159"><ele>963.0</ele><time>2026-05-02T12:51:56.316Z</time></trkpt><trkpt lat="43.6792491" lon="12.116297"><ele>965.0</ele><time>2026-05-02T12:51:57.316Z</time></trkpt><trkpt lat="43.6794384" lon="12.1161734"><ele>967.0</ele><time>2026-05-02T12:51:58.313Z</time></trkpt><trkpt lat="43.6796228" lon="12.1160834"><ele>969.0</ele><time>2026-05-02T12:51:59.316Z</time></trkpt><trkpt lat="43.6798044" lon="12.1160482"><ele>969.0</ele><time>2026-05-02T12:52:00.316Z</time></trkpt><trkpt lat="43.6799973" lon="12.1160833"><ele>969.0</ele><time>2026-05-02T12:52:01.316Z</time></trkpt><trkpt lat="43.6802021" lon="12.1161739"><ele>969.0</ele><time>2026-05-02T12:52:02.318Z</time></trkpt><trkpt lat="43.6804073" lon="12.1162846"><ele>968.3333333333333</ele><time>2026-05-02T12:52:03.315Z</time></trkpt><trkpt lat="43.6805933" lon="12.1163789"><ele>967.6666666666666</ele><time>2026-05-02T12:52:04.313Z</time></trkpt><trkpt lat="43.6807802" lon="12.1164571"><ele>967.0</ele><time>2026-05-02T12:52:05.316Z</time></trkpt><trkpt lat="43.6809744" lon="12.1164981"><ele>968.6666666666666</ele><time>2026-05-02T12:52:06.317Z</time></trkpt><trkpt lat="43.6811708" lon="12.1164976"><ele>970.3333333333333</ele><time>2026-05-02T12:52:07.314Z</time></trkpt><trkpt lat="43.6813527" lon="12.1164701"><ele>972.0</ele><time>2026-05-02T12:52:08.317Z</time></trkpt><trkpt lat="43.6815225" lon="12.1164479"><ele>972.0</ele><time>2026-05-02T12:52:09.316Z</time></trkpt><trkpt lat="43.6816719" lon="12.1164388"><ele>972.0</ele><time>2026-05-02T12:52:10.316Z</time></trkpt><trkpt lat="43.6818049" lon="12.1164294"><ele>972.0</ele><time>2026-05-02T12:52:11.316Z</time></trkpt><trkpt lat="43.6819288" lon="12.1164176"><ele>972.0</ele><time>2026-05-02T12:52:12.316Z</time></trkpt><trkpt lat="43.6820369" lon="12.1163995"><ele>973.5</ele><time>2026-05-02T12:52:13.316Z</time></trkpt><trkpt lat="43.6821331" lon="12.1163874"><ele>975.0</ele><time>2026-05-02T12:52:14.316Z</time></trkpt><trkpt lat="43.6822169" lon="12.1163767"><ele>976.5</ele><time>2026-05-02T12:52:15.316Z</time></trkpt><trkpt lat="43.6822914" lon="12.1163681"><ele>978.0</ele><time>2026-05-02T12:52:16.316Z</time></trkpt><trkpt lat="43.6823607" lon="12.1163665"><ele>979.5</ele><time>2026-05-02T12:52:17.317Z</time></trkpt><trkpt lat="43.6824247" lon="12.1163687"><ele>981.0</ele><time>2026-05-02T12:52:18.317Z</time></trkpt><trkpt lat="43.6825202" lon="12.1163999"><ele>981.0</ele><time>2026-05-02T12:52:20.316Z</time></trkpt><trkpt lat="43.6825855" lon="12.1164589"><ele>981.0</ele><time>2026-05-02T12:52:22.317Z</time></trkpt><trkpt lat="43.6826595" lon="12.1164804"><ele>981.0</ele><time>2026-05-02T12:52:24.312Z</time></trkpt><trkpt lat="43.6827006" lon="12.1163745"><ele>981.0</ele><time>2026-05-02T12:52:26.317Z</time></trkpt><trkpt lat="43.6826432" lon="12.116294"><ele>981.0</ele><time>2026-05-02T12:52:28.317Z</time></trkpt><trkpt lat="43.6825774" lon="12.116304"><ele>981.0</ele><time>2026-05-02T12:52:29.317Z</time></trkpt><trkpt lat="43.6825117" lon="12.11632"><ele>981.0</ele><time>2026-05-02T12:52:30.317Z</time></trkpt><trkpt lat="43.6824462" lon="12.1163282"><ele>981.0</ele><time>2026-05-02T12:52:31.315Z</time></trkpt><trkpt lat="43.6823335" lon="12.1163164"><ele>981.0</ele><time>2026-05-02T12:52:33.315Z</time></trkpt><trkpt lat="43.6822688" lon="12.1163249"><ele>981.0</ele><time>2026-05-02T12:52:36.319Z</time></trkpt></trkseg><trkseg><trkpt lat="43.6823874" lon="12.1163526"><ele>981.0</ele><time>2026-05-02T13:21:06.329Z</time></trkpt><trkpt lat="43.6824653" lon="12.1163651"><ele>981.0</ele><time>2026-05-02T13:21:07.318Z</time></trkpt><trkpt lat="43.6825722" lon="12.1164122"><ele>981.0</ele><time>2026-05-02T13:21:09.313Z</time></trkpt><trkpt lat="43.682637" lon="12.116407"><ele>981.0</ele><time>2026-05-02T13:21:10.322Z</time></trkpt><trkpt lat="43.6826933" lon="12.1163679"><ele>981.0</ele><time>2026-05-02T13:21:11.325Z</time></trkpt><trkpt lat="43.6827768" lon="12.1162929"><ele>981.0</ele><time>2026-05-02T13:21:13.322Z</time></trkpt><trkpt lat="43.6828341" lon="12.1162075"><ele>982.3333333333334</ele><time>2026-05-02T13:21:16.321Z</time></trkpt><trkpt lat="43.682907" lon="12.1161211"><ele>983.6666666666667</ele><time>2026-05-02T13:21:33.332Z</time></trkpt><trkpt lat="43.6829552" lon="12.1160603"><ele>985.0</ele><time>2026-05-02T13:21:34.326Z</time></trkpt><trkpt lat="43.6830201" lon="12.115985"><ele>986.3333333333334</ele><time>2026-05-02T13:21:35.325Z</time></trkpt><trkpt lat="43.6830864" lon="12.115909"><ele>987.6666666666667</ele><time>2026-05-02T13:21:36.327Z</time></trkpt><trkpt lat="43.6831688" lon="12.1158213"><ele>989.0</ele><time>2026-05-02T13:21:37.328Z</time></trkpt><trkpt lat="43.6832593" lon="12.1157236"><ele>989.5</ele><time>2026-05-02T13:21:38.329Z</time></trkpt><trkpt lat="43.6833633" lon="12.1156122"><ele>990.0</ele><time>2026-05-02T13:21:39.328Z</time></trkpt><trkpt lat="43.6834725" lon="12.1154986"><ele>990.5</ele><time>2026-05-02T13:21:40.328Z</time></trkpt><trkpt lat="43.6835853" lon="12.1153951"><ele>991.0</ele><time>2026-05-02T13:21:41.329Z</time></trkpt><trkpt lat="43.6836919" lon="12.1152917"><ele>991.6666666666666</ele><time>2026-05-02T13:21:42.326Z</time></trkpt><trkpt lat="43.6838278" lon="12.1151253"><ele>992.3333333333333</ele><time>2026-05-02T13:21:43.325Z</time></trkpt><trkpt lat="43.6839451" lon="12.1149829"><ele>993.0</ele><time>2026-05-02T13:21:44.329Z</time></trkpt><trkpt lat="43.6840851" lon="12.1148332"><ele>993.0</ele><time>2026-05-02T13:21:45.325Z</time></trkpt><trkpt lat="43.6842729" lon="12.1146815"><ele>993.0</ele><time>2026-05-02T13:21:46.326Z</time></trkpt><trkpt lat="43.6844277" lon="12.1145598"><ele>993.0</ele><time>2026-05-02T13:21:47.326Z</time></trkpt><trkpt lat="43.6846078" lon="12.1144372"><ele>996.0</ele><time>2026-05-02T13:21:48.331Z</time></trkpt><trkpt lat="43.6848018" lon="12.1143548"><ele>999.0</ele><time>2026-05-02T13:21:49.329Z</time></trkpt><trkpt lat="43.6850293" lon="12.1143379"><ele>1002.0</ele><time>2026-05-02T13:21:50.327Z</time></trkpt><trkpt lat="43.6852366" lon="12.1142721"><ele>1004.0</ele><time>2026-05-02T13:21:51.328Z</time></trkpt><trkpt lat="43.6854396" lon="12.1142103"><ele>1006.0</ele><time>2026-05-02T13:21:52.329Z</time></trkpt><trkpt lat="43.6856434" lon="12.1141619"><ele>1008.0</ele><time>2026-05-02T13:21:53.329Z</time></trkpt><trkpt lat="43.6858461" lon="12.1141396"><ele>1008.0</ele><time>2026-05-02T13:21:54.331Z</time></trkpt><trkpt lat="43.6860477" lon="12.1141331"><ele>1008.0</ele><time>2026-05-02T13:21:55.328Z</time></trkpt><trkpt lat="43.6862403" lon="12.1141335"><ele>1008.0</ele><time>2026-05-02T13:21:56.324Z</time></trkpt><trkpt lat="43.6864285" lon="12.1141376"><ele>1009.0</ele><time>2026-05-02T13:21:57.325Z</time></trkpt><trkpt lat="43.6866107" lon="12.1141379"><ele>1010.0</ele><time>2026-05-02T13:21:58.326Z</time></trkpt><trkpt lat="43.6867874" lon="12.1141419"><ele>1011.0</ele><time>2026-05-02T13:21:59.328Z</time></trkpt><trkpt lat="43.6869432" lon="12.1141318"><ele>1014.3333333333333</ele><time>2026-05-02T13:22:00.328Z</time></trkpt><trkpt lat="43.6871052" lon="12.1141213"><ele>1017.6666666666666</ele><time>2026-05-02T13:22:01.326Z</time></trkpt><trkpt lat="43.6872714" lon="12.1141213"><ele>1021.0</ele><time>2026-05-02T13:22:02.327Z</time></trkpt><trkpt lat="43.6874178" lon="12.1141217"><ele>1021.0</ele><time>2026-05-02T13:22:03.324Z</time></trkpt><trkpt lat="43.6875691" lon="12.1141202"><ele>1021.0</ele><time>2026-05-02T13:22:04.328Z</time></trkpt><trkpt lat="43.6877129" lon="12.1141146"><ele>1021.0</ele><time>2026-05-02T13:22:05.325Z</time></trkpt><trkpt lat="43.6878563" lon="12.1141129"><ele>1021.0</ele><time>2026-05-02T13:22:06.322Z</time></trkpt><trkpt lat="43.6880029" lon="12.1141147"><ele>1024.5</ele><time>2026-05-02T13:22:07.324Z</time></trkpt><trkpt lat="43.6881439" lon="12.1141164"><ele>1028.0</ele><time>2026-05-02T13:22:08.323Z</time></trkpt><trkpt lat="43.6882847" lon="12.1141166"><ele>1031.5</ele><time>2026-05-02T13:22:09.323Z</time></trkpt><trkpt lat="43.6884211" lon="12.1141162"><ele>1035.0</ele><time>2026-05-02T13:22:10.328Z</time></trkpt><trkpt lat="43.6885452" lon="12.1140932"><ele>1037.0</ele><time>2026-05-02T13:22:11.32Z</time></trkpt><trkpt lat="43.6886651" lon="12.1140272"><ele>1039.0</ele><time>2026-05-02T13:22:12.327Z</time></trkpt><trkpt lat="43.6888686" lon="12.113809"><ele>1041.0</ele><time>2026-05-02T13:22:14.329Z</time></trkpt><trkpt lat="43.6889384" lon="12.1135616"><ele>1041.0</ele><time>2026-05-02T13:22:15.326Z</time></trkpt><trkpt lat="43.6890246" lon="12.1133335"><ele>1041.0</ele><time>2026-05-02T13:22:16.323Z</time></trkpt><trkpt lat="43.6890958" lon="12.1130981"><ele>1041.0</ele><time>2026-05-02T13:22:17.324Z</time></trkpt><trkpt lat="43.6891292" lon="12.1128719"><ele>1040.3333333333333</ele><time>2026-05-02T13:22:18.326Z</time></trkpt><trkpt lat="43.6891593" lon="12.1126316"><ele>1039.6666666666665</ele><time>2026-05-02T13:22:19.326Z</time></trkpt><trkpt lat="43.6891087" lon="12.1124211"><ele>1039.0</ele><time>2026-05-02T13:22:20.327Z</time></trkpt><trkpt lat="43.6891159" lon="12.112188"><ele>1039.3333333333333</ele><time>2026-05-02T13:22:21.327Z</time></trkpt><trkpt lat="43.6891222" lon="12.111948"><ele>1039.6666666666667</ele><time>2026-05-02T13:22:22.324Z</time></trkpt><trkpt lat="43.6891433" lon="12.1117164"><ele>1040.0</ele><time>2026-05-02T13:22:23.327Z</time></trkpt><trkpt lat="43.689183" lon="12.1114789"><ele>1040.0</ele><time>2026-05-02T13:22:24.323Z</time></trkpt><trkpt lat="43.6892495" lon="12.1112416"><ele>1040.0</ele><time>2026-05-02T13:22:25.315Z</time></trkpt><trkpt lat="43.6893407" lon="12.1110182"><ele>1040.0</ele><time>2026-05-02T13:22:26.323Z</time></trkpt><trkpt lat="43.6894439" lon="12.110768"><ele>1042.0</ele><time>2026-05-02T13:22:27.324Z</time></trkpt><trkpt lat="43.6895405" lon="12.1105272"><ele>1044.0</ele><time>2026-05-02T13:22:28.326Z</time></trkpt><trkpt lat="43.6896411" lon="12.110278"><ele>1046.0</ele><time>2026-05-02T13:22:29.326Z</time></trkpt><trkpt lat="43.689744" lon="12.1100403"><ele>1043.6666666666667</ele><time>2026-05-02T13:22:30.326Z</time></trkpt><trkpt lat="43.6898586" lon="12.109802"><ele>1041.3333333333333</ele><time>2026-05-02T13:22:31.323Z</time></trkpt><trkpt lat="43.689983" lon="12.1095791"><ele>1039.0</ele><time>2026-05-02T13:22:32.322Z</time></trkpt><trkpt lat="43.6901154" lon="12.1093517"><ele>1035.0</ele><time>2026-05-02T13:22:33.319Z</time></trkpt><trkpt lat="43.6902639" lon="12.1091053"><ele>1031.0</ele><time>2026-05-02T13:22:34.319Z</time></trkpt><trkpt lat="43.690382" lon="12.1088713"><ele>1027.0</ele><time>2026-05-02T13:22:35.321Z</time></trkpt><trkpt lat="43.6905175" lon="12.1086104"><ele>1027.0</ele><time>2026-05-02T13:22:36.327Z</time></trkpt><trkpt lat="43.6906109" lon="12.1083585"><ele>1027.0</ele><time>2026-05-02T13:22:37.323Z</time></trkpt><trkpt lat="43.6906991" lon="12.1080986"><ele>1027.0</ele><time>2026-05-02T13:22:38.324Z</time></trkpt><trkpt lat="43.6907862" lon="12.1078344"><ele>1027.6666666666665</ele><time>2026-05-02T13:22:39.322Z</time></trkpt><trkpt lat="43.6908735" lon="12.1075765"><ele>1028.3333333333333</ele><time>2026-05-02T13:22:40.321Z</time></trkpt><trkpt lat="43.6909524" lon="12.1073243"><ele>1029.0</ele><time>2026-05-02T13:22:41.322Z</time></trkpt><trkpt lat="43.6910251" lon="12.1070673"><ele>1024.3333333333333</ele><time>2026-05-02T13:22:42.32Z</time></trkpt><trkpt lat="43.6911135" lon="12.1068314"><ele>1019.6666666666666</ele><time>2026-05-02T13:22:43.322Z</time></trkpt><trkpt lat="43.6911949" lon="12.1065995"><ele>1015.0</ele><time>2026-05-02T13:22:44.318Z</time></trkpt><trkpt lat="43.6912867" lon="12.1063679"><ele>1015.0</ele><time>2026-05-02T13:22:45.321Z</time></trkpt><trkpt lat="43.6913868" lon="12.1061372"><ele>1015.0</ele><time>2026-05-02T13:22:46.323Z</time></trkpt><trkpt lat="43.6915713" lon="12.1059853"><ele>1015.0</ele><time>2026-05-02T13:22:47.323Z</time></trkpt><trkpt lat="43.6917355" lon="12.1058098"><ele>1017.0</ele><time>2026-05-02T13:22:48.323Z</time></trkpt><trkpt lat="43.6919174" lon="12.1056058"><ele>1019.0</ele><time>2026-05-02T13:22:49.323Z</time></trkpt><trkpt lat="43.6921105" lon="12.1054087"><ele>1009.5</ele><time>2026-05-02T13:22:50.323Z</time></trkpt><trkpt lat="43.6923134" lon="12.1052014"><ele>1000.0</ele><time>2026-05-02T13:22:51.321Z</time></trkpt><trkpt lat="43.6925018" lon="12.1050081"><ele>997.6666666666666</ele><time>2026-05-02T13:22:52.322Z</time></trkpt><trkpt lat="43.6926831" lon="12.1048233"><ele>995.3333333333333</ele><time>2026-05-02T13:22:53.319Z</time></trkpt><trkpt lat="43.6928593" lon="12.1046384"><ele>993.0</ele><time>2026-05-02T13:22:54.324Z</time></trkpt><trkpt lat="43.6930309" lon="12.1044569"><ele>990.3333333333333</ele><time>2026-05-02T13:22:55.322Z</time></trkpt><trkpt lat="43.6931996" lon="12.104282"><ele>987.6666666666666</ele><time>2026-05-02T13:22:56.318Z</time></trkpt><trkpt lat="43.6933688" lon="12.1041063"><ele>985.0</ele><time>2026-05-02T13:22:57.325Z</time></trkpt><trkpt lat="43.6935367" lon="12.1039431"><ele>982.0</ele><time>2026-05-02T13:22:58.323Z</time></trkpt><trkpt lat="43.6937094" lon="12.1038144"><ele>979.0</ele><time>2026-05-02T13:22:59.322Z</time></trkpt><trkpt lat="43.6938863" lon="12.1036844"><ele>976.0</ele><time>2026-05-02T13:23:00.32Z</time></trkpt><trkpt lat="43.694095" lon="12.1036362"><ele>976.0</ele><time>2026-05-02T13:23:01.32Z</time></trkpt><trkpt lat="43.6943173" lon="12.1035748"><ele>976.0</ele><time>2026-05-02T13:23:02.321Z</time></trkpt><trkpt lat="43.6945225" lon="12.103533"><ele>976.0</ele><time>2026-05-02T13:23:03.324Z</time></trkpt><trkpt lat="43.694786" lon="12.1034868"><ele>977.0</ele><time>2026-05-02T13:23:04.321Z</time></trkpt><trkpt lat="43.6950273" lon="12.1034293"><ele>978.0</ele><time>2026-05-02T13:23:05.321Z</time></trkpt><trkpt lat="43.6952713" lon="12.1033773"><ele>976.6666666666667</ele><time>2026-05-02T13:23:06.32Z</time></trkpt><trkpt lat="43.6954902" lon="12.1033641"><ele>975.3333333333334</ele><time>2026-05-02T13:23:07.32Z</time></trkpt><trkpt lat="43.6957163" lon="12.1033686"><ele>974.0</ele><time>2026-05-02T13:23:08.316Z</time></trkpt><trkpt lat="43.6959226" lon="12.1033743"><ele>969.0</ele><time>2026-05-02T13:23:09.323Z</time></trkpt><trkpt lat="43.696117" lon="12.1033818"><ele>964.0</ele><time>2026-05-02T13:23:10.319Z</time></trkpt><trkpt lat="43.6962754" lon="12.1033931"><ele>959.0</ele><time>2026-05-02T13:23:11.319Z</time></trkpt><trkpt lat="43.6964481" lon="12.1033768"><ele>961.0</ele><time>2026-05-02T13:23:12.319Z</time></trkpt><trkpt lat="43.6965886" lon="12.103169"><ele>963.0</ele><time>2026-05-02T13:23:13.314Z</time></trkpt><trkpt lat="43.6967372" lon="12.1030299"><ele>965.0</ele><time>2026-05-02T13:23:14.322Z</time></trkpt><trkpt lat="43.6969147" lon="12.1027533"><ele>957.0</ele><time>2026-05-02T13:23:15.322Z</time></trkpt><trkpt lat="43.6971058" lon="12.1025064"><ele>949.0</ele><time>2026-05-02T13:23:16.318Z</time></trkpt><trkpt lat="43.6972788" lon="12.1022757"><ele>949.0</ele><time>2026-05-02T13:23:17.324Z</time></trkpt><trkpt lat="43.6974373" lon="12.1020318"><ele>949.0</ele><time>2026-05-02T13:23:18.319Z</time></trkpt><trkpt lat="43.6975563" lon="12.1017856"><ele>951.0</ele><time>2026-05-02T13:23:19.324Z</time></trkpt><trkpt lat="43.6976512" lon="12.1015211"><ele>953.0</ele><time>2026-05-02T13:23:20.32Z</time></trkpt><trkpt lat="43.6977527" lon="12.1012472"><ele>955.0</ele><time>2026-05-02T13:23:21.321Z</time></trkpt><trkpt lat="43.6978091" lon="12.1009376"><ele>942.0</ele><time>2026-05-02T13:23:22.322Z</time></trkpt><trkpt lat="43.6978197" lon="12.1006287"><ele>929.0</ele><time>2026-05-02T13:23:23.325Z</time></trkpt><trkpt lat="43.6978558" lon="12.1002923"><ele>929.0</ele><time>2026-05-02T13:23:24.323Z</time></trkpt><trkpt lat="43.6978874" lon="12.0999862"><ele>929.0</ele><time>2026-05-02T13:23:25.323Z</time></trkpt><trkpt lat="43.6979291" lon="12.0996708"><ele>929.6666666666667</ele><time>2026-05-02T13:23:26.325Z</time></trkpt><trkpt lat="43.6979696" lon="12.0993657"><ele>930.3333333333333</ele><time>2026-05-02T13:23:27.325Z</time></trkpt><trkpt lat="43.6980024" lon="12.0991201"><ele>931.0</ele><time>2026-05-02T13:23:28.325Z</time></trkpt><trkpt lat="43.6979854" lon="12.0988985"><ele>931.0</ele><time>2026-05-02T13:23:29.322Z</time></trkpt><trkpt lat="43.6980156" lon="12.0986925"><ele>931.0</ele><time>2026-05-02T13:23:30.322Z</time></trkpt><trkpt lat="43.6981018" lon="12.0984762"><ele>931.0</ele><time>2026-05-02T13:23:31.323Z</time></trkpt><trkpt lat="43.6982044" lon="12.0983257"><ele>930.6666666666666</ele><time>2026-05-02T13:23:32.319Z</time></trkpt><trkpt lat="43.6982785" lon="12.0981644"><ele>930.3333333333333</ele><time>2026-05-02T13:23:33.321Z</time></trkpt><trkpt lat="43.6983333" lon="12.0980942"><ele>930.0</ele><time>2026-05-02T13:23:34.321Z</time></trkpt><trkpt lat="43.6983727" lon="12.0980062"><ele>929.6666666666667</ele><time>2026-05-02T13:23:35.32Z</time></trkpt><trkpt lat="43.6984458" lon="12.0979697"><ele>929.3333333333334</ele><time>2026-05-02T13:23:38.318Z</time></trkpt><trkpt lat="43.6985067" lon="12.0979422"><ele>929.0</ele><time>2026-05-02T13:23:48.317Z</time></trkpt><trkpt lat="43.6986796" lon="12.0979913"><ele>930.0</ele><time>2026-05-02T13:23:49.336Z</time></trkpt><trkpt lat="43.6987775" lon="12.0980346"><ele>931.0</ele><time>2026-05-02T13:23:50.325Z</time></trkpt><trkpt lat="43.698877" lon="12.0980914"><ele>932.0</ele><time>2026-05-02T13:23:51.322Z</time></trkpt><trkpt lat="43.6990212" lon="12.0981991"><ele>933.0</ele><time>2026-05-02T13:23:52.322Z</time></trkpt><trkpt lat="43.6991543" lon="12.0982763"><ele>933.0</ele><time>2026-05-02T13:23:53.324Z</time></trkpt><trkpt lat="43.6993063" lon="12.0983444"><ele>933.0</ele><time>2026-05-02T13:23:54.322Z</time></trkpt><trkpt lat="43.6994626" lon="12.0984207"><ele>933.0</ele><time>2026-05-02T13:23:55.321Z</time></trkpt><trkpt lat="43.699636" lon="12.0984636"><ele>933.6666666666667</ele><time>2026-05-02T13:23:56.321Z</time></trkpt><trkpt lat="43.6998532" lon="12.0984333"><ele>934.3333333333334</ele><time>2026-05-02T13:23:57.324Z</time></trkpt><trkpt lat="43.7000574" lon="12.0984367"><ele>935.0</ele><time>2026-05-02T13:23:58.323Z</time></trkpt><trkpt lat="43.7002703" lon="12.0984342"><ele>935.0</ele><time>2026-05-02T13:23:59.325Z</time></trkpt><trkpt lat="43.7004744" lon="12.0984345"><ele>935.0</ele><time>2026-05-02T13:24:00.324Z</time></trkpt><trkpt lat="43.7006582" lon="12.0984435"><ele>935.0</ele><time>2026-05-02T13:24:01.323Z</time></trkpt><trkpt lat="43.7008241" lon="12.0984696"><ele>935.0</ele><time>2026-05-02T13:24:02.324Z</time></trkpt><trkpt lat="43.7009984" lon="12.0984842"><ele>935.0</ele><time>2026-05-02T13:24:03.324Z</time></trkpt><trkpt lat="43.7011135" lon="12.0985258"><ele>935.0</ele><time>2026-05-02T13:24:04.321Z</time></trkpt><trkpt lat="43.7012412" lon="12.0985521"><ele>935.0</ele><time>2026-05-02T13:24:05.329Z</time></trkpt><trkpt lat="43.7013488" lon="12.0986013"><ele>934.6666666666667</ele><time>2026-05-02T13:24:06.321Z</time></trkpt><trkpt lat="43.7014297" lon="12.0987602"><ele>934.3333333333333</ele><time>2026-05-02T13:24:07.325Z</time></trkpt><trkpt lat="43.7014844" lon="12.0989945"><ele>934.0</ele><time>2026-05-02T13:24:08.321Z</time></trkpt><trkpt lat="43.7015491" lon="12.0992573"><ele>934.0</ele><time>2026-05-02T13:24:09.323Z</time></trkpt><trkpt lat="43.7016367" lon="12.0994871"><ele>934.0</ele><time>2026-05-02T13:24:10.323Z</time></trkpt><trkpt lat="43.7017077" lon="12.0997491"><ele>934.0</ele><time>2026-05-02T13:24:11.324Z</time></trkpt><trkpt lat="43.7017791" lon="12.0999978"><ele>931.6666666666666</ele><time>2026-05-02T13:24:12.329Z</time></trkpt><trkpt lat="43.7018525" lon="12.100255"><ele>929.3333333333333</ele><time>2026-05-02T13:24:13.327Z</time></trkpt><trkpt lat="43.7019434" lon="12.1005137"><ele>927.0</ele><time>2026-05-02T13:24:14.327Z</time></trkpt><trkpt lat="43.7020278" lon="12.1007588"><ele>924.3333333333333</ele><time>2026-05-02T13:24:15.327Z</time></trkpt><trkpt lat="43.7021105" lon="12.1010041"><ele>921.6666666666666</ele><time>2026-05-02T13:24:16.323Z</time></trkpt><trkpt lat="43.7021865" lon="12.1012383"><ele>919.0</ele><time>2026-05-02T13:24:17.325Z</time></trkpt><trkpt lat="43.7022501" lon="12.1014644"><ele>918.0</ele><time>2026-05-02T13:24:18.321Z</time></trkpt><trkpt lat="43.702318" lon="12.1016962"><ele>917.0</ele><time>2026-05-02T13:24:19.326Z</time></trkpt><trkpt lat="43.7023943" lon="12.1018071"><ele>916.0</ele><time>2026-05-02T13:24:20.328Z</time></trkpt><trkpt lat="43.7024806" lon="12.1019164"><ele>915.0</ele><time>2026-05-02T13:24:21.329Z</time></trkpt><trkpt lat="43.7026041" lon="12.1019857"><ele>915.0</ele><time>2026-05-02T13:24:22.325Z</time></trkpt><trkpt lat="43.7027305" lon="12.1020381"><ele>915.0</ele><time>2026-05-02T13:24:23.327Z</time></trkpt><trkpt lat="43.702865" lon="12.1020955"><ele>915.0</ele><time>2026-05-02T13:24:24.327Z</time></trkpt><trkpt lat="43.7030483" lon="12.1021094"><ele>915.0</ele><time>2026-05-02T13:24:25.326Z</time></trkpt><trkpt lat="43.7032194" lon="12.1021441"><ele>915.0</ele><time>2026-05-02T13:24:26.325Z</time></trkpt><trkpt lat="43.7033932" lon="12.1021818"><ele>915.0</ele><time>2026-05-02T13:24:27.325Z</time></trkpt><trkpt lat="43.7035816" lon="12.1022157"><ele>915.3333333333333</ele><time>2026-05-02T13:24:28.325Z</time></trkpt><trkpt lat="43.7037703" lon="12.1022502"><ele>915.6666666666666</ele><time>2026-05-02T13:24:29.326Z</time></trkpt><trkpt lat="43.7039665" lon="12.102286"><ele>916.0</ele><time>2026-05-02T13:24:30.322Z</time></trkpt><trkpt lat="43.7041639" lon="12.1023219"><ele>916.0</ele><time>2026-05-02T13:24:31.322Z</time></trkpt><trkpt lat="43.7043573" lon="12.1023598"><ele>916.0</ele><time>2026-05-02T13:24:32.323Z</time></trkpt><trkpt lat="43.7045511" lon="12.1023984"><ele>916.0</ele><time>2026-05-02T13:24:33.322Z</time></trkpt><trkpt lat="43.7047452" lon="12.1024286"><ele>912.6666666666666</ele><time>2026-05-02T13:24:34.321Z</time></trkpt><trkpt lat="43.7049293" lon="12.1024583"><ele>909.3333333333333</ele><time>2026-05-02T13:24:35.322Z</time></trkpt><trkpt lat="43.7051128" lon="12.1024931"><ele>906.0</ele><time>2026-05-02T13:24:36.32Z</time></trkpt><trkpt lat="43.7052874" lon="12.1025247"><ele>906.0</ele><time>2026-05-02T13:24:37.322Z</time></trkpt><trkpt lat="43.7054698" lon="12.1025604"><ele>906.0</ele><time>2026-05-02T13:24:38.323Z</time></trkpt><trkpt lat="43.7056512" lon="12.1025873"><ele>906.0</ele><time>2026-05-02T13:24:39.321Z</time></trkpt><trkpt lat="43.7057972" lon="12.1026199"><ele>906.0</ele><time>2026-05-02T13:24:40.321Z</time></trkpt><trkpt lat="43.7059527" lon="12.1026501"><ele>906.0</ele><time>2026-05-02T13:24:41.321Z</time></trkpt><trkpt lat="43.7060958" lon="12.1026749"><ele>906.0</ele><time>2026-05-02T13:24:42.322Z</time></trkpt><trkpt lat="43.7062316" lon="12.1027088"><ele>906.0</ele><time>2026-05-02T13:24:43.321Z</time></trkpt><trkpt lat="43.7063548" lon="12.1027119"><ele>905.1999999999999</ele><time>2026-05-02T13:24:44.323Z</time></trkpt><trkpt lat="43.7064522" lon="12.1027402"><ele>904.3999999999999</ele><time>2026-05-02T13:24:45.325Z</time></trkpt><trkpt lat="43.7065418" lon="12.1028063"><ele>903.6</ele><time>2026-05-02T13:24:46.317Z</time></trkpt><trkpt lat="43.7066012" lon="12.102909"><ele>902.8</ele><time>2026-05-02T13:24:47.322Z</time></trkpt><trkpt lat="43.7066337" lon="12.1030445"><ele>902.0</ele><time>2026-05-02T13:24:48.328Z</time></trkpt><trkpt lat="43.706628" lon="12.103181"><ele>900.0</ele><time>2026-05-02T13:24:49.325Z</time></trkpt><trkpt lat="43.7065833" lon="12.103309"><ele>898.0</ele><time>2026-05-02T13:24:50.32Z</time></trkpt><trkpt lat="43.7065032" lon="12.1033892"><ele>896.0</ele><time>2026-05-02T13:24:51.326Z</time></trkpt><trkpt lat="43.7064196" lon="12.1034831"><ele>894.0</ele><time>2026-05-02T13:24:52.321Z</time></trkpt><trkpt lat="43.7062605" lon="12.1035996"><ele>894.0</ele><time>2026-05-02T13:24:53.325Z</time></trkpt><trkpt lat="43.7061298" lon="12.103711"><ele>894.0</ele><time>2026-05-02T13:24:54.323Z</time></trkpt><trkpt lat="43.7060054" lon="12.103819"><ele>894.0</ele><time>2026-05-02T13:24:55.322Z</time></trkpt><trkpt lat="43.705897" lon="12.1039517"><ele>894.0</ele><time>2026-05-02T13:24:56.322Z</time></trkpt><trkpt lat="43.7057825" lon="12.1040915"><ele>893.0</ele><time>2026-05-02T13:24:57.322Z</time></trkpt><trkpt lat="43.7057209" lon="12.104271"><ele>892.0</ele><time>2026-05-02T13:24:58.32Z</time></trkpt><trkpt lat="43.7056823" lon="12.1045087"><ele>891.0</ele><time>2026-05-02T13:24:59.321Z</time></trkpt><trkpt lat="43.7056259" lon="12.1047212"><ele>888.3333333333333</ele><time>2026-05-02T13:25:00.326Z</time></trkpt><trkpt lat="43.7055673" lon="12.1049482"><ele>885.6666666666666</ele><time>2026-05-02T13:25:01.321Z</time></trkpt><trkpt lat="43.7055099" lon="12.1051675"><ele>883.0</ele><time>2026-05-02T13:25:02.323Z</time></trkpt><trkpt lat="43.7054598" lon="12.1053795"><ele>883.0</ele><time>2026-05-02T13:25:03.323Z</time></trkpt><trkpt lat="43.7054075" lon="12.1055835"><ele>883.0</ele><time>2026-05-02T13:25:04.321Z</time></trkpt><trkpt lat="43.7053503" lon="12.1057812"><ele>883.0</ele><time>2026-05-02T13:25:05.323Z</time></trkpt><trkpt lat="43.7052944" lon="12.1059526"><ele>883.0</ele><time>2026-05-02T13:25:06.329Z</time></trkpt><trkpt lat="43.7052217" lon="12.1061121"><ele>883.25</ele><time>2026-05-02T13:25:07.322Z</time></trkpt><trkpt lat="43.7051415" lon="12.1062345"><ele>883.5</ele><time>2026-05-02T13:25:08.32Z</time></trkpt><trkpt lat="43.7050443" lon="12.1063162"><ele>883.75</ele><time>2026-05-02T13:25:09.324Z</time></trkpt><trkpt lat="43.7049186" lon="12.1063664"><ele>884.0</ele><time>2026-05-02T13:25:10.32Z</time></trkpt><trkpt lat="43.7047652" lon="12.1064097"><ele>884.0</ele><time>2026-05-02T13:25:11.32Z</time></trkpt><trkpt lat="43.7045998" lon="12.106461"><ele>884.0</ele><time>2026-05-02T13:25:12.321Z</time></trkpt><trkpt lat="43.7044402" lon="12.1065114"><ele>884.0</ele><time>2026-05-02T13:25:13.322Z</time></trkpt><trkpt lat="43.7042836" lon="12.1065679"><ele>881.25</ele><time>2026-05-02T13:25:14.32Z</time></trkpt><trkpt lat="43.704135" lon="12.1066114"><ele>878.5</ele><time>2026-05-02T13:25:15.324Z</time></trkpt><trkpt lat="43.7040058" lon="12.1066547"><ele>875.75</ele><time>2026-05-02T13:25:16.324Z</time></trkpt><trkpt lat="43.7038812" lon="12.1066893"><ele>873.0</ele><time>2026-05-02T13:25:17.326Z</time></trkpt><trkpt lat="43.7037949" lon="12.106735"><ele>873.0</ele><time>2026-05-02T13:25:18.32Z</time></trkpt><trkpt lat="43.7037254" lon="12.1068092"><ele>873.0</ele><time>2026-05-02T13:25:19.32Z</time></trkpt><trkpt lat="43.7036826" lon="12.1069107"><ele>873.0</ele><time>2026-05-02T13:25:20.324Z</time></trkpt><trkpt lat="43.7036324" lon="12.1070116"><ele>873.0</ele><time>2026-05-02T13:25:21.321Z</time></trkpt><trkpt lat="43.7036606" lon="12.1071381"><ele>873.0</ele><time>2026-05-02T13:25:22.323Z</time></trkpt><trkpt lat="43.7037198" lon="12.1072432"><ele>873.0</ele><time>2026-05-02T13:25:23.321Z</time></trkpt><trkpt lat="43.7038243" lon="12.1073192"><ele>873.0</ele><time>2026-05-02T13:25:24.322Z</time></trkpt><trkpt lat="43.7040055" lon="12.107303"><ele>873.0</ele><time>2026-05-02T13:25:25.324Z</time></trkpt><trkpt lat="43.7041314" lon="12.1073343"><ele>873.0</ele><time>2026-05-02T13:25:26.323Z</time></trkpt><trkpt lat="43.7043062" lon="12.1073456"><ele>873.3333333333333</ele><time>2026-05-02T13:25:27.327Z</time></trkpt><trkpt lat="43.7044954" lon="12.1073836"><ele>873.6666666666666</ele><time>2026-05-02T13:25:28.321Z</time></trkpt><trkpt lat="43.704673" lon="12.1074269"><ele>874.0</ele><time>2026-05-02T13:25:29.322Z</time></trkpt><trkpt lat="43.7048691" lon="12.1074489"><ele>869.6666666666666</ele><time>2026-05-02T13:25:30.319Z</time></trkpt><trkpt lat="43.7050863" lon="12.1074647"><ele>865.3333333333333</ele><time>2026-05-02T13:25:31.319Z</time></trkpt><trkpt lat="43.7052913" lon="12.107498"><ele>861.0</ele><time>2026-05-02T13:25:32.317Z</time></trkpt><trkpt lat="43.7055035" lon="12.1075076"><ele>860.6666666666667</ele><time>2026-05-02T13:25:33.322Z</time></trkpt><trkpt lat="43.7056988" lon="12.1075323"><ele>860.3333333333334</ele><time>2026-05-02T13:25:34.32Z</time></trkpt><trkpt lat="43.7058744" lon="12.1075536"><ele>860.0</ele><time>2026-05-02T13:25:35.321Z</time></trkpt><trkpt lat="43.7060537" lon="12.1075721"><ele>859.0</ele><time>2026-05-02T13:25:36.319Z</time></trkpt><trkpt lat="43.7062528" lon="12.1075808"><ele>858.0</ele><time>2026-05-02T13:25:37.322Z</time></trkpt><trkpt lat="43.7064527" lon="12.1075729"><ele>857.0</ele><time>2026-05-02T13:25:38.323Z</time></trkpt><trkpt lat="43.7066594" lon="12.1075518"><ele>857.0</ele><time>2026-05-02T13:25:39.321Z</time></trkpt><trkpt lat="43.7068673" lon="12.1075344"><ele>857.0</ele><time>2026-05-02T13:25:40.322Z</time></trkpt><trkpt lat="43.7070693" lon="12.1075213"><ele>857.0</ele><time>2026-05-02T13:25:41.321Z</time></trkpt><trkpt lat="43.7072481" lon="12.1074955"><ele>856.0</ele><time>2026-05-02T13:25:42.32Z</time></trkpt><trkpt lat="43.7074267" lon="12.1074784"><ele>855.0</ele><time>2026-05-02T13:25:43.321Z</time></trkpt><trkpt lat="43.7075584" lon="12.1074627"><ele>854.0</ele><time>2026-05-02T13:25:44.319Z</time></trkpt><trkpt lat="43.7076826" lon="12.107448"><ele>853.0</ele><time>2026-05-02T13:25:45.323Z</time></trkpt><trkpt lat="43.7078009" lon="12.1074487"><ele>855.0</ele><time>2026-05-02T13:25:46.321Z</time></trkpt><trkpt lat="43.7078642" lon="12.1075362"><ele>857.0</ele><time>2026-05-02T13:25:47.319Z</time></trkpt><trkpt lat="43.707919" lon="12.1076376"><ele>859.0</ele><time>2026-05-02T13:25:48.318Z</time></trkpt><trkpt lat="43.7079572" lon="12.1077844"><ele>861.0</ele><time>2026-05-02T13:25:49.32Z</time></trkpt><trkpt lat="43.7080132" lon="12.1079397"><ele>863.0</ele><time>2026-05-02T13:25:50.326Z</time></trkpt><trkpt lat="43.7081057" lon="12.1080987"><ele>859.6666666666667</ele><time>2026-05-02T13:25:51.32Z</time></trkpt><trkpt lat="43.7082178" lon="12.1082512"><ele>856.3333333333333</ele><time>2026-05-02T13:25:52.32Z</time></trkpt><trkpt lat="43.7083353" lon="12.1084016"><ele>853.0</ele><time>2026-05-02T13:25:53.32Z</time></trkpt><trkpt lat="43.7084524" lon="12.1085392"><ele>853.0</ele><time>2026-05-02T13:25:54.32Z</time></trkpt><trkpt lat="43.7085621" lon="12.1086787"><ele>853.0</ele><time>2026-05-02T13:25:55.319Z</time></trkpt><trkpt lat="43.7086669" lon="12.1087928"><ele>853.0</ele><time>2026-05-02T13:25:56.32Z</time></trkpt><trkpt lat="43.7087579" lon="12.1088975"><ele>853.0</ele><time>2026-05-02T13:25:57.323Z</time></trkpt><trkpt lat="43.7088864" lon="12.1089526"><ele>851.0</ele><time>2026-05-02T13:25:58.323Z</time></trkpt><trkpt lat="43.7090379" lon="12.1089976"><ele>849.0</ele><time>2026-05-02T13:25:59.323Z</time></trkpt><trkpt lat="43.7091727" lon="12.1090674"><ele>847.0</ele><time>2026-05-02T13:26:00.319Z</time></trkpt><trkpt lat="43.7093154" lon="12.1091386"><ele>846.5</ele><time>2026-05-02T13:26:01.321Z</time></trkpt><trkpt lat="43.7094513" lon="12.1092271"><ele>846.0</ele><time>2026-05-02T13:26:02.317Z</time></trkpt><trkpt lat="43.7095751" lon="12.1093222"><ele>845.5</ele><time>2026-05-02T13:26:03.32Z</time></trkpt><trkpt lat="43.7096987" lon="12.1094159"><ele>845.0</ele><time>2026-05-02T13:26:04.321Z</time></trkpt><trkpt lat="43.7098172" lon="12.109497"><ele>845.0</ele><time>2026-05-02T13:26:05.317Z</time></trkpt><trkpt lat="43.7099322" lon="12.1095638"><ele>845.0</ele><time>2026-05-02T13:26:06.319Z</time></trkpt><trkpt lat="43.7100554" lon="12.1095869"><ele>845.0</ele><time>2026-05-02T13:26:07.32Z</time></trkpt><trkpt lat="43.7101963" lon="12.109574"><ele>845.0</ele><time>2026-05-02T13:26:08.325Z</time></trkpt><trkpt lat="43.7103255" lon="12.1095418"><ele>843.5</ele><time>2026-05-02T13:26:09.321Z</time></trkpt><trkpt lat="43.71046" lon="12.109506"><ele>842.0</ele><time>2026-05-02T13:26:10.319Z</time></trkpt><trkpt lat="43.7106024" lon="12.1094964"><ele>840.5</ele><time>2026-05-02T13:26:11.323Z</time></trkpt><trkpt lat="43.7107493" lon="12.1095205"><ele>839.0</ele><time>2026-05-02T13:26:12.322Z</time></trkpt><trkpt lat="43.7108827" lon="12.1095333"><ele>839.0</ele><time>2026-05-02T13:26:13.324Z</time></trkpt><trkpt lat="43.7110205" lon="12.1095735"><ele>839.0</ele><time>2026-05-02T13:26:14.322Z</time></trkpt><trkpt lat="43.7111797" lon="12.1096051"><ele>839.0</ele><time>2026-05-02T13:26:15.322Z</time></trkpt><trkpt lat="43.7113164" lon="12.1096316"><ele>839.0</ele><time>2026-05-02T13:26:16.323Z</time></trkpt><trkpt lat="43.711474" lon="12.1096294"><ele>839.6666666666667</ele><time>2026-05-02T13:26:17.323Z</time></trkpt><trkpt lat="43.7116452" lon="12.1095617"><ele>840.3333333333333</ele><time>2026-05-02T13:26:18.33Z</time></trkpt><trkpt lat="43.7118163" lon="12.109532"><ele>841.0</ele><time>2026-05-02T13:26:19.319Z</time></trkpt><trkpt lat="43.7119712" lon="12.1094892"><ele>838.25</ele><time>2026-05-02T13:26:20.322Z</time></trkpt><trkpt lat="43.7120922" lon="12.109465"><ele>835.5</ele><time>2026-05-02T13:26:21.32Z</time></trkpt><trkpt lat="43.7122242" lon="12.1094739"><ele>832.75</ele><time>2026-05-02T13:26:22.325Z</time></trkpt><trkpt lat="43.712335" lon="12.1094988"><ele>830.0</ele><time>2026-05-02T13:26:23.324Z</time></trkpt><trkpt lat="43.7124557" lon="12.1095732"><ele>830.0</ele><time>2026-05-02T13:26:24.323Z</time></trkpt><trkpt lat="43.7124958" lon="12.1097858"><ele>830.0</ele><time>2026-05-02T13:26:25.324Z</time></trkpt><trkpt lat="43.7125757" lon="12.1098829"><ele>830.0</ele><time>2026-05-02T13:26:26.321Z</time></trkpt><trkpt lat="43.712618" lon="12.1100119"><ele>830.0</ele><time>2026-05-02T13:26:27.324Z</time></trkpt><trkpt lat="43.7126515" lon="12.1101351"><ele>828.4</ele><time>2026-05-02T13:26:28.324Z</time></trkpt><trkpt lat="43.7126394" lon="12.1102612"><ele>826.8</ele><time>2026-05-02T13:26:30.322Z</time></trkpt><trkpt lat="43.7127064" lon="12.1103153"><ele>825.2</ele><time>2026-05-02T13:26:33.328Z</time></trkpt><trkpt lat="43.7127659" lon="12.110256"><ele>823.6</ele><time>2026-05-02T13:26:35.329Z</time></trkpt><trkpt lat="43.7127166" lon="12.1101914"><ele>822.0</ele><time>2026-05-02T13:26:37.329Z</time></trkpt><trkpt lat="43.7125995" lon="12.1103602"><ele>822.0</ele><time>2026-05-02T13:26:49.326Z</time></trkpt><trkpt lat="43.7125162" lon="12.1104735"><ele>822.0</ele><time>2026-05-02T13:26:50.329Z</time></trkpt><trkpt lat="43.7124032" lon="12.110574"><ele>822.0</ele><time>2026-05-02T13:26:51.328Z</time></trkpt><trkpt lat="43.7122733" lon="12.1106478"><ele>822.0</ele><time>2026-05-02T13:26:52.33Z</time></trkpt><trkpt lat="43.7121423" lon="12.1107051"><ele>822.0</ele><time>2026-05-02T13:26:53.329Z</time></trkpt><trkpt lat="43.7119944" lon="12.1107278"><ele>822.0</ele><time>2026-05-02T13:26:54.329Z</time></trkpt><trkpt lat="43.7118226" lon="12.1107387"><ele>822.0</ele><time>2026-05-02T13:26:55.327Z</time></trkpt><trkpt lat="43.7116557" lon="12.1107674"><ele>819.3333333333333</ele><time>2026-05-02T13:26:56.328Z</time></trkpt><trkpt lat="43.7114847" lon="12.1107902"><ele>816.6666666666666</ele><time>2026-05-02T13:26:57.329Z</time></trkpt><trkpt lat="43.7113167" lon="12.1108114"><ele>814.0</ele><time>2026-05-02T13:26:58.329Z</time></trkpt><trkpt lat="43.7111537" lon="12.1108262"><ele>814.0</ele><time>2026-05-02T13:26:59.327Z</time></trkpt><trkpt lat="43.7110006" lon="12.1108464"><ele>814.0</ele><time>2026-05-02T13:27:00.331Z</time></trkpt><trkpt lat="43.710854" lon="12.1108768"><ele>814.0</ele><time>2026-05-02T13:27:01.33Z</time></trkpt><trkpt lat="43.7107091" lon="12.1109231"><ele>814.0</ele><time>2026-05-02T13:27:02.326Z</time></trkpt><trkpt lat="43.7105638" lon="12.1109662"><ele>814.0</ele><time>2026-05-02T13:27:03.328Z</time></trkpt><trkpt lat="43.7104675" lon="12.1111942"><ele>814.0</ele><time>2026-05-02T13:27:05.331Z</time></trkpt><trkpt lat="43.7104084" lon="12.1113173"><ele>814.0</ele><time>2026-05-02T13:27:06.327Z</time></trkpt><trkpt lat="43.7104887" lon="12.111456"><ele>811.25</ele><time>2026-05-02T13:27:07.327Z</time></trkpt><trkpt lat="43.7105364" lon="12.1116099"><ele>808.5</ele><time>2026-05-02T13:27:08.331Z</time></trkpt><trkpt lat="43.7106192" lon="12.1117407"><ele>805.75</ele><time>2026-05-02T13:27:09.325Z</time></trkpt><trkpt lat="43.7107241" lon="12.1118712"><ele>803.0</ele><time>2026-05-02T13:27:10.326Z</time></trkpt><trkpt lat="43.710842" lon="12.1120185"><ele>803.0</ele><time>2026-05-02T13:27:11.33Z</time></trkpt><trkpt lat="43.7109573" lon="12.1121673"><ele>803.0</ele><time>2026-05-02T13:27:12.327Z</time></trkpt><trkpt lat="43.7110676" lon="12.112311"><ele>803.0</ele><time>2026-05-02T13:27:13.328Z</time></trkpt><trkpt lat="43.7111686" lon="12.1124488"><ele>801.75</ele><time>2026-05-02T13:27:14.327Z</time></trkpt><trkpt lat="43.7112679" lon="12.112583"><ele>800.5</ele><time>2026-05-02T13:27:15.326Z</time></trkpt><trkpt lat="43.7113819" lon="12.1126801"><ele>799.25</ele><time>2026-05-02T13:27:16.326Z</time></trkpt><trkpt lat="43.7115012" lon="12.1127472"><ele>798.0</ele><time>2026-05-02T13:27:17.325Z</time></trkpt><trkpt lat="43.7116404" lon="12.1127713"><ele>798.0</ele><time>2026-05-02T13:27:18.326Z</time></trkpt><trkpt lat="43.7117979" lon="12.1127603"><ele>798.0</ele><time>2026-05-02T13:27:19.327Z</time></trkpt><trkpt lat="43.7119679" lon="12.1127419"><ele>798.0</ele><time>2026-05-02T13:27:20.329Z</time></trkpt><trkpt lat="43.7121228" lon="12.1127225"><ele>797.75</ele><time>2026-05-02T13:27:21.33Z</time></trkpt><trkpt lat="43.7122676" lon="12.1127071"><ele>797.5</ele><time>2026-05-02T13:27:22.328Z</time></trkpt><trkpt lat="43.7124044" lon="12.1127132"><ele>797.25</ele><time>2026-05-02T13:27:23.329Z</time></trkpt><trkpt lat="43.7125406" lon="12.1127579"><ele>797.0</ele><time>2026-05-02T13:27:24.326Z</time></trkpt><trkpt lat="43.7126784" lon="12.1128079"><ele>799.6666666666667</ele><time>2026-05-02T13:27:25.329Z</time></trkpt><trkpt lat="43.7128035" lon="12.112956"><ele>802.3333333333333</ele><time>2026-05-02T13:27:26.326Z</time></trkpt><trkpt lat="43.7129322" lon="12.113071"><ele>805.0</ele><time>2026-05-02T13:27:27.322Z</time></trkpt><trkpt lat="43.7130618" lon="12.1131803"><ele>801.5</ele><time>2026-05-02T13:27:28.325Z</time></trkpt><trkpt lat="43.7131967" lon="12.1132771"><ele>798.0</ele><time>2026-05-02T13:27:29.326Z</time></trkpt><trkpt lat="43.7133295" lon="12.1133603"><ele>794.5</ele><time>2026-05-02T13:27:30.327Z</time></trkpt><trkpt lat="43.7134532" lon="12.1134262"><ele>791.0</ele><time>2026-05-02T13:27:31.323Z</time></trkpt><trkpt lat="43.7135619" lon="12.1134626"><ele>792.25</ele><time>2026-05-02T13:27:32.327Z</time></trkpt><trkpt lat="43.7136684" lon="12.1134753"><ele>793.5</ele><time>2026-05-02T13:27:33.325Z</time></trkpt><trkpt lat="43.7137755" lon="12.1133878"><ele>794.75</ele><time>2026-05-02T13:27:34.329Z</time></trkpt><trkpt lat="43.7138756" lon="12.1133222"><ele>796.0</ele><time>2026-05-02T13:27:35.328Z</time></trkpt><trkpt lat="43.713971" lon="12.1132217"><ele>795.9999999999999</ele><time>2026-05-02T13:27:36.324Z</time></trkpt><trkpt lat="43.7140638" lon="12.1131466"><ele>796.0</ele><time>2026-05-02T13:27:37.322Z</time></trkpt><trkpt lat="43.7141459" lon="12.1130833"><ele>796.0</ele><time>2026-05-02T13:27:38.326Z</time></trkpt><trkpt lat="43.7142217" lon="12.1130504"><ele>796.0</ele><time>2026-05-02T13:27:39.324Z</time></trkpt><trkpt lat="43.7142976" lon="12.1130625"><ele>795.9999999999999</ele><time>2026-05-02T13:27:40.323Z</time></trkpt><trkpt lat="43.7143535" lon="12.1131179"><ele>796.0</ele><time>2026-05-02T13:27:41.322Z</time></trkpt><trkpt lat="43.7143688" lon="12.1132045"><ele>793.1999999999999</ele><time>2026-05-02T13:27:42.324Z</time></trkpt><trkpt lat="43.7143406" lon="12.1133051"><ele>790.4</ele><time>2026-05-02T13:27:43.324Z</time></trkpt><trkpt lat="43.7142823" lon="12.1134246"><ele>787.6</ele><time>2026-05-02T13:27:44.324Z</time></trkpt><trkpt lat="43.7142087" lon="12.1135587"><ele>784.8</ele><time>2026-05-02T13:27:45.324Z</time></trkpt><trkpt lat="43.7141347" lon="12.1137137"><ele>782.0</ele><time>2026-05-02T13:27:46.326Z</time></trkpt><trkpt lat="43.7140533" lon="12.113885"><ele>782.0</ele><time>2026-05-02T13:27:47.327Z</time></trkpt><trkpt lat="43.7139805" lon="12.1140559"><ele>782.0</ele><time>2026-05-02T13:27:48.322Z</time></trkpt><trkpt lat="43.7139115" lon="12.1142117"><ele>782.0</ele><time>2026-05-02T13:27:49.322Z</time></trkpt><trkpt lat="43.7138411" lon="12.1143534"><ele>782.0</ele><time>2026-05-02T13:27:50.323Z</time></trkpt><trkpt lat="43.7137472" lon="12.1144743"><ele>780.5</ele><time>2026-05-02T13:27:51.325Z</time></trkpt><trkpt lat="43.7136375" lon="12.1145683"><ele>779.0</ele><time>2026-05-02T13:27:52.325Z</time></trkpt><trkpt lat="43.7135286" lon="12.1146461"><ele>777.5</ele><time>2026-05-02T13:27:53.324Z</time></trkpt><trkpt lat="43.7133963" lon="12.1145737"><ele>776.0</ele><time>2026-05-02T13:27:54.329Z</time></trkpt><trkpt lat="43.7132477" lon="12.114528"><ele>776.0</ele><time>2026-05-02T13:27:55.325Z</time></trkpt><trkpt lat="43.7130934" lon="12.114467"><ele>776.0</ele><time>2026-05-02T13:27:56.323Z</time></trkpt><trkpt lat="43.7129502" lon="12.1144063"><ele>776.0</ele><time>2026-05-02T13:27:57.327Z</time></trkpt><trkpt lat="43.7128181" lon="12.1143418"><ele>775.0</ele><time>2026-05-02T13:27:58.324Z</time></trkpt><trkpt lat="43.7126851" lon="12.1142958"><ele>774.0</ele><time>2026-05-02T13:27:59.326Z</time></trkpt><trkpt lat="43.7125642" lon="12.1142844"><ele>773.0</ele><time>2026-05-02T13:28:00.326Z</time></trkpt><trkpt lat="43.7124476" lon="12.1142955"><ele>772.0</ele><time>2026-05-02T13:28:01.328Z</time></trkpt><trkpt lat="43.7123412" lon="12.1143952"><ele>772.0</ele><time>2026-05-02T13:28:02.327Z</time></trkpt><trkpt lat="43.7122474" lon="12.1144984"><ele>772.0</ele><time>2026-05-02T13:28:03.324Z</time></trkpt><trkpt lat="43.7121413" lon="12.1146118"><ele>772.0</ele><time>2026-05-02T13:28:04.324Z</time></trkpt><trkpt lat="43.7120107" lon="12.1147774"><ele>772.0</ele><time>2026-05-02T13:28:05.325Z</time></trkpt><trkpt lat="43.7118874" lon="12.1149058"><ele>769.0</ele><time>2026-05-02T13:28:06.324Z</time></trkpt><trkpt lat="43.7117406" lon="12.1150344"><ele>766.0</ele><time>2026-05-02T13:28:07.325Z</time></trkpt><trkpt lat="43.7116091" lon="12.1151103"><ele>763.0</ele><time>2026-05-02T13:28:08.322Z</time></trkpt><trkpt lat="43.7114848" lon="12.1151421"><ele>760.0</ele><time>2026-05-02T13:28:09.324Z</time></trkpt><trkpt lat="43.7113601" lon="12.1151702"><ele>760.0</ele><time>2026-05-02T13:28:10.325Z</time></trkpt><trkpt lat="43.7112307" lon="12.1151991"><ele>760.0</ele><time>2026-05-02T13:28:11.326Z</time></trkpt><trkpt lat="43.7111313" lon="12.1152405"><ele>760.0</ele><time>2026-05-02T13:28:12.324Z</time></trkpt><trkpt lat="43.7110497" lon="12.1153141"><ele>760.0</ele><time>2026-05-02T13:28:13.323Z</time></trkpt><trkpt lat="43.7110071" lon="12.1154205"><ele>760.0</ele><time>2026-05-02T13:28:14.325Z</time></trkpt><trkpt lat="43.71099" lon="12.115551"><ele>761.4</ele><time>2026-05-02T13:28:15.326Z</time></trkpt><trkpt lat="43.7109984" lon="12.115661"><ele>762.8</ele><time>2026-05-02T13:28:16.319Z</time></trkpt><trkpt lat="43.7110905" lon="12.1157524"><ele>764.2</ele><time>2026-05-02T13:28:17.323Z</time></trkpt><trkpt lat="43.7111727" lon="12.1158153"><ele>765.6</ele><time>2026-05-02T13:28:18.326Z</time></trkpt><trkpt lat="43.7112739" lon="12.1158367"><ele>767.0</ele><time>2026-05-02T13:28:19.326Z</time></trkpt><trkpt lat="43.7113744" lon="12.1158469"><ele>763.75</ele><time>2026-05-02T13:28:20.324Z</time></trkpt><trkpt lat="43.711513" lon="12.1158086"><ele>760.5</ele><time>2026-05-02T13:28:21.323Z</time></trkpt><trkpt lat="43.7116633" lon="12.1157986"><ele>757.25</ele><time>2026-05-02T13:28:22.322Z</time></trkpt><trkpt lat="43.7118131" lon="12.115788"><ele>754.0</ele><time>2026-05-02T13:28:23.328Z</time></trkpt><trkpt lat="43.7119557" lon="12.1157823"><ele>754.0</ele><time>2026-05-02T13:28:24.327Z</time></trkpt><trkpt lat="43.7120873" lon="12.1157765"><ele>754.0</ele><time>2026-05-02T13:28:25.327Z</time></trkpt><trkpt lat="43.7122099" lon="12.1157767"><ele>754.0</ele><time>2026-05-02T13:28:26.324Z</time></trkpt><trkpt lat="43.7123066" lon="12.11582"><ele>754.0</ele><time>2026-05-02T13:28:27.326Z</time></trkpt><trkpt lat="43.7123944" lon="12.1158956"><ele>754.0</ele><time>2026-05-02T13:28:28.324Z</time></trkpt><trkpt lat="43.7124618" lon="12.11601"><ele>754.0</ele><time>2026-05-02T13:28:29.325Z</time></trkpt><trkpt lat="43.7125127" lon="12.1161395"><ele>754.0</ele><time>2026-05-02T13:28:30.319Z</time></trkpt><trkpt lat="43.7125596" lon="12.1162682"><ele>754.0</ele><time>2026-05-02T13:28:31.324Z</time></trkpt><trkpt lat="43.7126082" lon="12.1163965"><ele>754.0</ele><time>2026-05-02T13:28:32.319Z</time></trkpt><trkpt lat="43.7126429" lon="12.1165169"><ele>752.5</ele><time>2026-05-02T13:28:33.322Z</time></trkpt><trkpt lat="43.7126481" lon="12.1166389"><ele>751.0</ele><time>2026-05-02T13:28:34.324Z</time></trkpt><trkpt lat="43.7126323" lon="12.1167574"><ele>749.5</ele><time>2026-05-02T13:28:35.323Z</time></trkpt><trkpt lat="43.7125845" lon="12.1168598"><ele>748.0</ele><time>2026-05-02T13:28:36.325Z</time></trkpt><trkpt lat="43.7125316" lon="12.1169487"><ele>746.5</ele><time>2026-05-02T13:28:37.323Z</time></trkpt><trkpt lat="43.712444" lon="12.1170065"><ele>745.0</ele><time>2026-05-02T13:28:38.32Z</time></trkpt><trkpt lat="43.7123173" lon="12.1170442"><ele>745.0</ele><time>2026-05-02T13:28:39.323Z</time></trkpt><trkpt lat="43.7121857" lon="12.117077"><ele>745.0</ele><time>2026-05-02T13:28:40.32Z</time></trkpt><trkpt lat="43.7120469" lon="12.1171067"><ele>745.0</ele><time>2026-05-02T13:28:41.322Z</time></trkpt><trkpt lat="43.7119024" lon="12.1171506"><ele>745.0</ele><time>2026-05-02T13:28:42.323Z</time></trkpt><trkpt lat="43.7117613" lon="12.1171996"><ele>744.0</ele><time>2026-05-02T13:28:43.323Z</time></trkpt><trkpt lat="43.7116027" lon="12.1172482"><ele>743.0</ele><time>2026-05-02T13:28:44.32Z</time></trkpt><trkpt lat="43.711447" lon="12.1173"><ele>742.0</ele><time>2026-05-02T13:28:45.323Z</time></trkpt><trkpt lat="43.7112984" lon="12.1173501"><ele>742.0</ele><time>2026-05-02T13:28:46.317Z</time></trkpt><trkpt lat="43.7111523" lon="12.1173893"><ele>742.0</ele><time>2026-05-02T13:28:47.322Z</time></trkpt><trkpt lat="43.7110115" lon="12.1174341"><ele>742.0</ele><time>2026-05-02T13:28:48.325Z</time></trkpt><trkpt lat="43.7108758" lon="12.1174771"><ele>742.0</ele><time>2026-05-02T13:28:49.323Z</time></trkpt><trkpt lat="43.7107413" lon="12.117521"><ele>740.25</ele><time>2026-05-02T13:28:50.325Z</time></trkpt><trkpt lat="43.7106126" lon="12.1175597"><ele>738.5</ele><time>2026-05-02T13:28:51.321Z</time></trkpt><trkpt lat="43.7104917" lon="12.1175948"><ele>736.75</ele><time>2026-05-02T13:28:52.323Z</time></trkpt><trkpt lat="43.7103923" lon="12.1176448"><ele>735.0</ele><time>2026-05-02T13:28:53.324Z</time></trkpt><trkpt lat="43.7103263" lon="12.1177505"><ele>735.0</ele><time>2026-05-02T13:28:54.321Z</time></trkpt><trkpt lat="43.7102696" lon="12.1178471"><ele>735.0</ele><time>2026-05-02T13:28:55.324Z</time></trkpt><trkpt lat="43.7102422" lon="12.1179801"><ele>735.0</ele><time>2026-05-02T13:28:56.323Z</time></trkpt><trkpt lat="43.7101994" lon="12.1181189"><ele>735.0</ele><time>2026-05-02T13:28:57.322Z</time></trkpt><trkpt lat="43.7103949" lon="12.118282"><ele>731.75</ele><time>2026-05-02T13:28:58.324Z</time></trkpt><trkpt lat="43.7104602" lon="12.1184375"><ele>728.5</ele><time>2026-05-02T13:28:59.325Z</time></trkpt><trkpt lat="43.7105447" lon="12.1185913"><ele>725.25</ele><time>2026-05-02T13:29:00.319Z</time></trkpt><trkpt lat="43.7106298" lon="12.1187468"><ele>722.0</ele><time>2026-05-02T13:29:01.32Z</time></trkpt><trkpt lat="43.7107284" lon="12.1188829"><ele>722.0</ele><time>2026-05-02T13:29:02.32Z</time></trkpt><trkpt lat="43.7108317" lon="12.1189994"><ele>722.0</ele><time>2026-05-02T13:29:03.327Z</time></trkpt><trkpt lat="43.711005" lon="12.119103"><ele>722.0</ele><time>2026-05-02T13:29:04.315Z</time></trkpt><trkpt lat="43.7111468" lon="12.1192"><ele>718.6666666666666</ele><time>2026-05-02T13:29:05.318Z</time></trkpt><trkpt lat="43.7112942" lon="12.1193026"><ele>715.3333333333334</ele><time>2026-05-02T13:29:06.319Z</time></trkpt><trkpt lat="43.7114325" lon="12.119409"><ele>712.0</ele><time>2026-05-02T13:29:07.323Z</time></trkpt><trkpt lat="43.7115769" lon="12.1195104"><ele>712.0</ele><time>2026-05-02T13:29:08.324Z</time></trkpt><trkpt lat="43.7117267" lon="12.1196102"><ele>712.0</ele><time>2026-05-02T13:29:09.324Z</time></trkpt><trkpt lat="43.7118756" lon="12.1197213"><ele>712.0</ele><time>2026-05-02T13:29:10.323Z</time></trkpt><trkpt lat="43.7120268" lon="12.1198276"><ele>712.0</ele><time>2026-05-02T13:29:11.323Z</time></trkpt><trkpt lat="43.7121632" lon="12.1199477"><ele>712.0</ele><time>2026-05-02T13:29:12.324Z</time></trkpt><trkpt lat="43.7122753" lon="12.1201025"><ele>712.0</ele><time>2026-05-02T13:29:13.323Z</time></trkpt><trkpt lat="43.7123681" lon="12.1202746"><ele>712.0</ele><time>2026-05-02T13:29:14.325Z</time></trkpt><trkpt lat="43.7124586" lon="12.1204614"><ele>712.0</ele><time>2026-05-02T13:29:15.325Z</time></trkpt><trkpt lat="43.7125499" lon="12.1206525"><ele>712.0</ele><time>2026-05-02T13:29:16.326Z</time></trkpt><trkpt lat="43.7126405" lon="12.1208415"><ele>709.6666666666667</ele><time>2026-05-02T13:29:17.324Z</time></trkpt><trkpt lat="43.712729" lon="12.1210284"><ele>707.3333333333334</ele><time>2026-05-02T13:29:18.325Z</time></trkpt><trkpt lat="43.7128089" lon="12.1212023"><ele>705.0</ele><time>2026-05-02T13:29:19.321Z</time></trkpt><trkpt lat="43.712885" lon="12.1213696"><ele>705.0</ele><time>2026-05-02T13:29:20.316Z</time></trkpt><trkpt lat="43.7129553" lon="12.1215283"><ele>705.0</ele><time>2026-05-02T13:29:21.321Z</time></trkpt><trkpt lat="43.7130191" lon="12.1216855"><ele>705.0</ele><time>2026-05-02T13:29:22.317Z</time></trkpt><trkpt lat="43.7130578" lon="12.1218327"><ele>705.0</ele><time>2026-05-02T13:29:23.319Z</time></trkpt><trkpt lat="43.7130951" lon="12.1219747"><ele>704.1666666666666</ele><time>2026-05-02T13:29:24.319Z</time></trkpt><trkpt lat="43.7131132" lon="12.1220868"><ele>703.3333333333334</ele><time>2026-05-02T13:29:25.322Z</time></trkpt><trkpt lat="43.7131431" lon="12.1221848"><ele>702.5</ele><time>2026-05-02T13:29:27.32Z</time></trkpt><trkpt lat="43.713164" lon="12.1222755"><ele>701.6666666666667</ele><time>2026-05-02T13:29:47.329Z</time></trkpt><trkpt lat="43.7132419" lon="12.1223293"><ele>700.8333333333334</ele><time>2026-05-02T13:29:49.335Z</time></trkpt><trkpt lat="43.7133132" lon="12.1223421"><ele>700.0</ele><time>2026-05-02T13:29:50.321Z</time></trkpt><trkpt lat="43.7133764" lon="12.1223647"><ele>700.0</ele><time>2026-05-02T13:29:51.321Z</time></trkpt><trkpt lat="43.7134578" lon="12.1223693"><ele>700.0</ele><time>2026-05-02T13:29:52.325Z</time></trkpt><trkpt lat="43.7135963" lon="12.1223871"><ele>700.0</ele><time>2026-05-02T13:29:53.328Z</time></trkpt><trkpt lat="43.7137159" lon="12.1224013"><ele>700.0</ele><time>2026-05-02T13:29:54.328Z</time></trkpt><trkpt lat="43.7138446" lon="12.1224176"><ele>699.25</ele><time>2026-05-02T13:29:55.323Z</time></trkpt><trkpt lat="43.7139694" lon="12.1224309"><ele>698.5</ele><time>2026-05-02T13:29:56.323Z</time></trkpt><trkpt lat="43.7141025" lon="12.1224516"><ele>697.75</ele><time>2026-05-02T13:29:57.326Z</time></trkpt><trkpt lat="43.7142249" lon="12.1224776"><ele>697.0</ele><time>2026-05-02T13:29:58.325Z</time></trkpt><trkpt lat="43.7143432" lon="12.1225162"><ele>701.5</ele><time>2026-05-02T13:29:59.326Z</time></trkpt><trkpt lat="43.7144466" lon="12.1226204"><ele>706.0</ele><time>2026-05-02T13:30:00.322Z</time></trkpt><trkpt lat="43.7145546" lon="12.122723"><ele>710.5</ele><time>2026-05-02T13:30:01.323Z</time></trkpt><trkpt lat="43.7146428" lon="12.1228561"><ele>715.0</ele><time>2026-05-02T13:30:02.328Z</time></trkpt><trkpt lat="43.7146654" lon="12.1230186"><ele>715.0</ele><time>2026-05-02T13:30:03.326Z</time></trkpt><trkpt lat="43.7145139" lon="12.1232765"><ele>715.0</ele><time>2026-05-02T13:30:04.322Z</time></trkpt><trkpt lat="43.7144993" lon="12.1234714"><ele>715.0</ele><time>2026-05-02T13:30:05.327Z</time></trkpt><trkpt lat="43.7144289" lon="12.1236984"><ele>715.6666666666667</ele><time>2026-05-02T13:30:06.326Z</time></trkpt><trkpt lat="43.7143918" lon="12.1239256"><ele>716.3333333333334</ele><time>2026-05-02T13:30:07.327Z</time></trkpt><trkpt lat="43.7144441" lon="12.124118"><ele>717.0</ele><time>2026-05-02T13:30:08.324Z</time></trkpt><trkpt lat="43.7144991" lon="12.1243192"><ele>717.0</ele><time>2026-05-02T13:30:09.323Z</time></trkpt><trkpt lat="43.714584" lon="12.1245226"><ele>717.0</ele><time>2026-05-02T13:30:10.326Z</time></trkpt><trkpt lat="43.7146779" lon="12.1247366"><ele>717.0</ele><time>2026-05-02T13:30:11.327Z</time></trkpt><trkpt lat="43.7147747" lon="12.124952"><ele>717.0</ele><time>2026-05-02T13:30:12.327Z</time></trkpt><trkpt lat="43.7148696" lon="12.125185"><ele>717.0</ele><time>2026-05-02T13:30:13.326Z</time></trkpt><trkpt lat="43.7149711" lon="12.1253983"><ele>717.0</ele><time>2026-05-02T13:30:14.326Z</time></trkpt><trkpt lat="43.7150631" lon="12.1256425"><ele>718.0</ele><time>2026-05-02T13:30:15.325Z</time></trkpt><trkpt lat="43.7151643" lon="12.1258851"><ele>719.0</ele><time>2026-05-02T13:30:16.324Z</time></trkpt><trkpt lat="43.7152368" lon="12.1262174"><ele>722.3333333333333</ele><time>2026-05-02T13:30:17.323Z</time></trkpt><trkpt lat="43.7153331" lon="12.1265166"><ele>725.6666666666666</ele><time>2026-05-02T13:30:18.323Z</time></trkpt><trkpt lat="43.715323" lon="12.1267307"><ele>729.0</ele><time>2026-05-02T13:30:19.322Z</time></trkpt><trkpt lat="43.7153758" lon="12.1269735"><ele>729.0</ele><time>2026-05-02T13:30:20.323Z</time></trkpt><trkpt lat="43.7154809" lon="12.1271768"><ele>729.0</ele><time>2026-05-02T13:30:21.322Z</time></trkpt><trkpt lat="43.7156047" lon="12.1273638"><ele>729.0</ele><time>2026-05-02T13:30:22.326Z</time></trkpt><trkpt lat="43.7157568" lon="12.1275242"><ele>727.6666666666666</ele><time>2026-05-02T13:30:23.321Z</time></trkpt><trkpt lat="43.7159152" lon="12.1276881"><ele>726.3333333333333</ele><time>2026-05-02T13:30:24.326Z</time></trkpt><trkpt lat="43.7160478" lon="12.127843"><ele>725.0</ele><time>2026-05-02T13:30:25.324Z</time></trkpt><trkpt lat="43.7161588" lon="12.1279832"><ele>728.0</ele><time>2026-05-02T13:30:26.325Z</time></trkpt><trkpt lat="43.7162856" lon="12.1281016"><ele>731.0</ele><time>2026-05-02T13:30:27.325Z</time></trkpt><trkpt lat="43.7164038" lon="12.128161"><ele>734.0</ele><time>2026-05-02T13:30:28.324Z</time></trkpt><trkpt lat="43.71648" lon="12.1280708"><ele>737.0</ele><time>2026-05-02T13:30:29.323Z</time></trkpt><trkpt lat="43.7165848" lon="12.1278584"><ele>737.0</ele><time>2026-05-02T13:30:30.324Z</time></trkpt><trkpt lat="43.7166051" lon="12.1277071"><ele>737.0</ele><time>2026-05-02T13:30:31.323Z</time></trkpt><trkpt lat="43.7166263" lon="12.1275419"><ele>737.0</ele><time>2026-05-02T13:30:32.324Z</time></trkpt><trkpt lat="43.7165952" lon="12.1273541"><ele>737.0</ele><time>2026-05-02T13:30:33.322Z</time></trkpt><trkpt lat="43.7165598" lon="12.1271819"><ele>739.6666666666666</ele><time>2026-05-02T13:30:34.322Z</time></trkpt><trkpt lat="43.7165325" lon="12.1269841"><ele>742.3333333333334</ele><time>2026-05-02T13:30:35.325Z</time></trkpt><trkpt lat="43.7165031" lon="12.1267802"><ele>745.0</ele><time>2026-05-02T13:30:36.323Z</time></trkpt><trkpt lat="43.7164671" lon="12.1265651"><ele>747.0</ele><time>2026-05-02T13:30:37.322Z</time></trkpt><trkpt lat="43.71644" lon="12.1263466"><ele>749.0</ele><time>2026-05-02T13:30:38.328Z</time></trkpt><trkpt lat="43.7164151" lon="12.1261206"><ele>751.0</ele><time>2026-05-02T13:30:39.332Z</time></trkpt><trkpt lat="43.7164009" lon="12.1258847"><ele>751.0</ele><time>2026-05-02T13:30:40.326Z</time></trkpt><trkpt lat="43.7164045" lon="12.1255888"><ele>751.0</ele><time>2026-05-02T13:30:41.323Z</time></trkpt><trkpt lat="43.7164151" lon="12.1252404"><ele>751.0</ele><time>2026-05-02T13:30:42.323Z</time></trkpt><trkpt lat="43.716444" lon="12.1249274"><ele>751.0</ele><time>2026-05-02T13:30:43.323Z</time></trkpt><trkpt lat="43.7164711" lon="12.1246598"><ele>751.0</ele><time>2026-05-02T13:30:44.322Z</time></trkpt><trkpt lat="43.7165268" lon="12.1244184"><ele>749.3333333333334</ele><time>2026-05-02T13:30:45.327Z</time></trkpt><trkpt lat="43.7166068" lon="12.1242286"><ele>747.6666666666666</ele><time>2026-05-02T13:30:46.323Z</time></trkpt><trkpt lat="43.7167364" lon="12.1240518"><ele>746.0</ele><time>2026-05-02T13:30:47.32Z</time></trkpt><trkpt lat="43.7168827" lon="12.1239179"><ele>748.0</ele><time>2026-05-02T13:30:48.328Z</time></trkpt><trkpt lat="43.7170406" lon="12.123817"><ele>750.0</ele><time>2026-05-02T13:30:49.325Z</time></trkpt><trkpt lat="43.7171876" lon="12.123696"><ele>752.0</ele><time>2026-05-02T13:30:50.326Z</time></trkpt><trkpt lat="43.7173463" lon="12.1235787"><ele>752.0</ele><time>2026-05-02T13:30:51.324Z</time></trkpt><trkpt lat="43.7175039" lon="12.1234292"><ele>752.0</ele><time>2026-05-02T13:30:52.323Z</time></trkpt><trkpt lat="43.7176504" lon="12.123276"><ele>752.0</ele><time>2026-05-02T13:30:53.321Z</time></trkpt><trkpt lat="43.7178157" lon="12.1231088"><ele>759.0</ele><time>2026-05-02T13:30:54.325Z</time></trkpt><trkpt lat="43.7179328" lon="12.122996"><ele>766.0</ele><time>2026-05-02T13:30:55.319Z</time></trkpt><trkpt lat="43.7180783" lon="12.1228369"><ele>773.0</ele><time>2026-05-02T13:30:56.321Z</time></trkpt><trkpt lat="43.7181801" lon="12.1226574"><ele>773.0</ele><time>2026-05-02T13:30:57.324Z</time></trkpt><trkpt lat="43.7182399" lon="12.1224641"><ele>773.0</ele><time>2026-05-02T13:30:58.323Z</time></trkpt><trkpt lat="43.7181516" lon="12.1222329"><ele>773.0</ele><time>2026-05-02T13:30:59.323Z</time></trkpt><trkpt lat="43.7180181" lon="12.121999"><ele>775.5</ele><time>2026-05-02T13:31:00.323Z</time></trkpt><trkpt lat="43.7178026" lon="12.1218108"><ele>778.0</ele><time>2026-05-02T13:31:01.324Z</time></trkpt><trkpt lat="43.7176195" lon="12.1216145"><ele>775.5</ele><time>2026-05-02T13:31:02.322Z</time></trkpt><trkpt lat="43.717527" lon="12.1214648"><ele>773.0</ele><time>2026-05-02T13:31:03.322Z</time></trkpt><trkpt lat="43.717503" lon="12.1213123"><ele>770.5</ele><time>2026-05-02T13:31:04.322Z</time></trkpt><trkpt lat="43.7174576" lon="12.1211441"><ele>768.0</ele><time>2026-05-02T13:31:05.325Z</time></trkpt><trkpt lat="43.7174747" lon="12.1209808"><ele>768.0</ele><time>2026-05-02T13:31:06.328Z</time></trkpt><trkpt lat="43.717613" lon="12.1208682"><ele>768.0</ele><time>2026-05-02T13:31:07.323Z</time></trkpt><trkpt lat="43.7178886" lon="12.120832"><ele>768.0</ele><time>2026-05-02T13:31:08.323Z</time></trkpt><trkpt lat="43.7180789" lon="12.1209162"><ele>772.0</ele><time>2026-05-02T13:31:09.323Z</time></trkpt><trkpt lat="43.7182214" lon="12.1209513"><ele>776.0</ele><time>2026-05-02T13:31:10.324Z</time></trkpt><trkpt lat="43.7183442" lon="12.1210078"><ele>780.0</ele><time>2026-05-02T13:31:11.318Z</time></trkpt><trkpt lat="43.7183805" lon="12.121115"><ele>784.0</ele><time>2026-05-02T13:31:12.324Z</time></trkpt><trkpt lat="43.7184933" lon="12.1212669"><ele>781.0</ele><time>2026-05-02T13:31:13.321Z</time></trkpt><trkpt lat="43.7185488" lon="12.1216517"><ele>778.0</ele><time>2026-05-02T13:31:14.322Z</time></trkpt><trkpt lat="43.7186412" lon="12.1220847"><ele>797.0</ele><time>2026-05-02T13:31:15.322Z</time></trkpt><trkpt lat="43.7187646" lon="12.1227739"><ele>797.0</ele><time>2026-05-02T13:31:16.323Z</time></trkpt><trkpt lat="43.7188607" lon="12.1232021"><ele>797.0</ele><time>2026-05-02T13:31:17.322Z</time></trkpt><trkpt lat="43.7189529" lon="12.1236296"><ele>794.0</ele><time>2026-05-02T13:31:18.329Z</time></trkpt><trkpt lat="43.7190594" lon="12.1240301"><ele>791.0</ele><time>2026-05-02T13:31:19.321Z</time></trkpt><trkpt lat="43.7191544" lon="12.1244329"><ele>783.0</ele><time>2026-05-02T13:31:20.322Z</time></trkpt><trkpt lat="43.719252" lon="12.1248196"><ele>775.0</ele><time>2026-05-02T13:31:21.328Z</time></trkpt><trkpt lat="43.7193376" lon="12.1252111"><ele>788.0</ele><time>2026-05-02T13:31:22.324Z</time></trkpt><trkpt lat="43.7194289" lon="12.1255991"><ele>801.0</ele><time>2026-05-02T13:31:23.322Z</time></trkpt><trkpt lat="43.7195617" lon="12.1259698"><ele>801.0</ele><time>2026-05-02T13:31:24.329Z</time></trkpt><trkpt lat="43.7196536" lon="12.1263368"><ele>801.0</ele><time>2026-05-02T13:31:25.321Z</time></trkpt><trkpt lat="43.7197757" lon="12.1266107"><ele>798.0</ele><time>2026-05-02T13:31:26.323Z</time></trkpt><trkpt lat="43.7199203" lon="12.1268687"><ele>795.0</ele><time>2026-05-02T13:31:27.318Z</time></trkpt><trkpt lat="43.7200144" lon="12.1271732"><ele>793.0</ele><time>2026-05-02T13:31:28.348Z</time></trkpt><trkpt lat="43.7201113" lon="12.1275052"><ele>791.0</ele><time>2026-05-02T13:31:29.323Z</time></trkpt><trkpt lat="43.7201896" lon="12.1278557"><ele>791.0</ele><time>2026-05-02T13:31:30.351Z</time></trkpt><trkpt lat="43.7201638" lon="12.1282011"><ele>791.0</ele><time>2026-05-02T13:31:31.323Z</time></trkpt><trkpt lat="43.7202283" lon="12.1285305"><ele>804.5</ele><time>2026-05-02T13:31:32.324Z</time></trkpt><trkpt lat="43.7203206" lon="12.1288878"><ele>818.0</ele><time>2026-05-02T13:31:33.324Z</time></trkpt><trkpt lat="43.7204109" lon="12.1292422"><ele>818.0</ele><time>2026-05-02T13:31:34.324Z</time></trkpt><trkpt lat="43.7205833" lon="12.1295957"><ele>818.0</ele><time>2026-05-02T13:31:35.323Z</time></trkpt><trkpt lat="43.7207026" lon="12.1299256"><ele>815.0</ele><time>2026-05-02T13:31:36.325Z</time></trkpt><trkpt lat="43.7208146" lon="12.1302279"><ele>812.0</ele><time>2026-05-02T13:31:37.324Z</time></trkpt><trkpt lat="43.7209167" lon="12.1305123"><ele>809.0</ele><time>2026-05-02T13:31:38.323Z</time></trkpt><trkpt lat="43.7210086" lon="12.1307627"><ele>806.0</ele><time>2026-05-02T13:31:39.324Z</time></trkpt><trkpt lat="43.7210945" lon="12.1309911"><ele>803.0</ele><time>2026-05-02T13:31:40.324Z</time></trkpt><trkpt lat="43.7211632" lon="12.1312192"><ele>807.5</ele><time>2026-05-02T13:31:41.325Z</time></trkpt><trkpt lat="43.7212536" lon="12.131359"><ele>812.0</ele><time>2026-05-02T13:31:42.325Z</time></trkpt><trkpt lat="43.7213592" lon="12.1314787"><ele>816.5</ele><time>2026-05-02T13:31:43.323Z</time></trkpt><trkpt lat="43.7214833" lon="12.1314997"><ele>821.0</ele><time>2026-05-02T13:31:44.326Z</time></trkpt><trkpt lat="43.7216022" lon="12.1314654"><ele>821.0</ele><time>2026-05-02T13:31:45.325Z</time></trkpt><trkpt lat="43.7217161" lon="12.1313684"><ele>821.0</ele><time>2026-05-02T13:31:46.324Z</time></trkpt><trkpt lat="43.7218152" lon="12.13123"><ele>821.0</ele><time>2026-05-02T13:31:47.324Z</time></trkpt><trkpt lat="43.7219203" lon="12.1310039"><ele>824.5</ele><time>2026-05-02T13:31:48.324Z</time></trkpt><trkpt lat="43.7220072" lon="12.1308191"><ele>828.0</ele><time>2026-05-02T13:31:49.326Z</time></trkpt><trkpt lat="43.7220644" lon="12.130637"><ele>831.5</ele><time>2026-05-02T13:31:50.324Z</time></trkpt><trkpt lat="43.7220625" lon="12.1304439"><ele>835.0</ele><time>2026-05-02T13:31:51.322Z</time></trkpt><trkpt lat="43.7220589" lon="12.1302337"><ele>837.0</ele><time>2026-05-02T13:31:52.325Z</time></trkpt><trkpt lat="43.7220092" lon="12.1299882"><ele>839.0</ele><time>2026-05-02T13:31:53.323Z</time></trkpt><trkpt lat="43.7218315" lon="12.1297504"><ele>841.0</ele><time>2026-05-02T13:31:54.325Z</time></trkpt><trkpt lat="43.7217572" lon="12.1294775"><ele>841.0</ele><time>2026-05-02T13:31:55.325Z</time></trkpt><trkpt lat="43.7216701" lon="12.1291782"><ele>841.0</ele><time>2026-05-02T13:31:56.324Z</time></trkpt><trkpt lat="43.721611" lon="12.1288826"><ele>842.0</ele><time>2026-05-02T13:31:57.324Z</time></trkpt><trkpt lat="43.7215438" lon="12.1285949"><ele>843.0</ele><time>2026-05-02T13:31:58.324Z</time></trkpt><trkpt lat="43.7215111" lon="12.1282566"><ele>843.0</ele><time>2026-05-02T13:31:59.322Z</time></trkpt><trkpt lat="43.721516" lon="12.1279175"><ele>843.0</ele><time>2026-05-02T13:32:00.325Z</time></trkpt><trkpt lat="43.7215306" lon="12.1275628"><ele>842.5</ele><time>2026-05-02T13:32:01.317Z</time></trkpt><trkpt lat="43.7215516" lon="12.1271954"><ele>842.0</ele><time>2026-05-02T13:32:02.323Z</time></trkpt><trkpt lat="43.7216142" lon="12.1267996"><ele>843.5</ele><time>2026-05-02T13:32:03.324Z</time></trkpt><trkpt lat="43.7216966" lon="12.1263982"><ele>845.0</ele><time>2026-05-02T13:32:04.323Z</time></trkpt><trkpt lat="43.7217436" lon="12.1260466"><ele>849.0</ele><time>2026-05-02T13:32:05.323Z</time></trkpt><trkpt lat="43.7217817" lon="12.1256794"><ele>853.0</ele><time>2026-05-02T13:32:06.325Z</time></trkpt><trkpt lat="43.7218275" lon="12.1253963"><ele>853.0</ele><time>2026-05-02T13:32:07.321Z</time></trkpt><trkpt lat="43.7217868" lon="12.1251354"><ele>853.0</ele><time>2026-05-02T13:32:08.322Z</time></trkpt><trkpt lat="43.7217615" lon="12.1248532"><ele>853.0</ele><time>2026-05-02T13:32:09.347Z</time></trkpt><trkpt lat="43.72173" lon="12.1245756"><ele>852.5</ele><time>2026-05-02T13:32:10.323Z</time></trkpt><trkpt lat="43.7216803" lon="12.1243327"><ele>852.0</ele><time>2026-05-02T13:32:11.326Z</time></trkpt><trkpt lat="43.7215973" lon="12.1242613"><ele>851.5</ele><time>2026-05-02T13:32:12.329Z</time></trkpt><trkpt lat="43.7215491" lon="12.1241104"><ele>851.0</ele><time>2026-05-02T13:32:13.322Z</time></trkpt><trkpt lat="43.7215397" lon="12.1239592"><ele>851.0</ele><time>2026-05-02T13:32:14.322Z</time></trkpt><trkpt lat="43.7216244" lon="12.1237925"><ele>851.0</ele><time>2026-05-02T13:32:15.322Z</time></trkpt><trkpt lat="43.7217753" lon="12.1237096"><ele>851.0</ele><time>2026-05-02T13:32:16.323Z</time></trkpt><trkpt lat="43.7219431" lon="12.1236817"><ele>855.5</ele><time>2026-05-02T13:32:17.323Z</time></trkpt><trkpt lat="43.7222136" lon="12.1236445"><ele>860.0</ele><time>2026-05-02T13:32:18.323Z</time></trkpt><trkpt lat="43.7226185" lon="12.1236233"><ele>863.0</ele><time>2026-05-02T13:32:19.322Z</time></trkpt><trkpt lat="43.7228972" lon="12.1235718"><ele>866.0</ele><time>2026-05-02T13:32:20.321Z</time></trkpt><trkpt lat="43.7231767" lon="12.1235278"><ele>866.0</ele><time>2026-05-02T13:32:21.323Z</time></trkpt><trkpt lat="43.7234348" lon="12.1234846"><ele>866.0</ele><time>2026-05-02T13:32:22.323Z</time></trkpt><trkpt lat="43.7236663" lon="12.1234471"><ele>868.0</ele><time>2026-05-02T13:32:23.319Z</time></trkpt><trkpt lat="43.7238615" lon="12.1234065"><ele>870.0</ele><time>2026-05-02T13:32:24.321Z</time></trkpt><trkpt lat="43.7240549" lon="12.123343"><ele>872.0</ele><time>2026-05-02T13:32:25.322Z</time></trkpt><trkpt lat="43.7242341" lon="12.1232184"><ele>872.3333333333334</ele><time>2026-05-02T13:32:26.323Z</time></trkpt><trkpt lat="43.7243411" lon="12.1230525"><ele>872.6666666666667</ele><time>2026-05-02T13:32:27.322Z</time></trkpt><trkpt lat="43.7244377" lon="12.122871"><ele>873.0</ele><time>2026-05-02T13:32:28.322Z</time></trkpt><trkpt lat="43.7245376" lon="12.1226853"><ele>879.0</ele><time>2026-05-02T13:32:29.321Z</time></trkpt><trkpt lat="43.7246106" lon="12.1224759"><ele>885.0</ele><time>2026-05-02T13:32:30.349Z</time></trkpt><trkpt lat="43.7246707" lon="12.1222019"><ele>891.0</ele><time>2026-05-02T13:32:31.321Z</time></trkpt><trkpt lat="43.7246296" lon="12.1219274"><ele>892.0</ele><time>2026-05-02T13:32:32.319Z</time></trkpt><trkpt lat="43.7245565" lon="12.1216834"><ele>893.0</ele><time>2026-05-02T13:32:33.323Z</time></trkpt><trkpt lat="43.7242978" lon="12.1214338"><ele>891.0</ele><time>2026-05-02T13:32:34.322Z</time></trkpt><trkpt lat="43.7241129" lon="12.1212261"><ele>889.0</ele><time>2026-05-02T13:32:35.322Z</time></trkpt><trkpt lat="43.7239482" lon="12.121037"><ele>889.0</ele><time>2026-05-02T13:32:36.324Z</time></trkpt><trkpt lat="43.7237688" lon="12.1208518"><ele>889.0</ele><time>2026-05-02T13:32:37.323Z</time></trkpt><trkpt lat="43.7234619" lon="12.120714"><ele>890.3333333333333</ele><time>2026-05-02T13:32:38.322Z</time></trkpt><trkpt lat="43.7232628" lon="12.1206091"><ele>891.6666666666667</ele><time>2026-05-02T13:32:39.322Z</time></trkpt><trkpt lat="43.7230816" lon="12.1204846"><ele>893.0</ele><time>2026-05-02T13:32:40.32Z</time></trkpt><trkpt lat="43.7229329" lon="12.120342"><ele>893.0</ele><time>2026-05-02T13:32:41.322Z</time></trkpt><trkpt lat="43.7228898" lon="12.1201463"><ele>893.0</ele><time>2026-05-02T13:32:42.322Z</time></trkpt><trkpt lat="43.722867" lon="12.1199754"><ele>893.0</ele><time>2026-05-02T13:32:43.323Z</time></trkpt><trkpt lat="43.7228475" lon="12.119795"><ele>893.0</ele><time>2026-05-02T13:32:44.324Z</time></trkpt><trkpt lat="43.7229615" lon="12.119569"><ele>892.6666666666667</ele><time>2026-05-02T13:32:45.323Z</time></trkpt><trkpt lat="43.7230885" lon="12.1193328"><ele>892.3333333333333</ele><time>2026-05-02T13:32:46.321Z</time></trkpt><trkpt lat="43.7232311" lon="12.11913"><ele>892.0</ele><time>2026-05-02T13:32:47.322Z</time></trkpt><trkpt lat="43.7233808" lon="12.1189271"><ele>891.6666666666666</ele><time>2026-05-02T13:32:48.323Z</time></trkpt><trkpt lat="43.7235643" lon="12.1188211"><ele>891.3333333333333</ele><time>2026-05-02T13:32:49.322Z</time></trkpt><trkpt lat="43.7237751" lon="12.1187139"><ele>891.0</ele><time>2026-05-02T13:32:50.323Z</time></trkpt><trkpt lat="43.7241166" lon="12.1187719"><ele>891.0</ele><time>2026-05-02T13:32:51.323Z</time></trkpt><trkpt lat="43.7243697" lon="12.1187185"><ele>891.0</ele><time>2026-05-02T13:32:52.323Z</time></trkpt><trkpt lat="43.7245983" lon="12.1186547"><ele>894.6666666666667</ele><time>2026-05-02T13:32:53.322Z</time></trkpt><trkpt lat="43.7248256" lon="12.1186134"><ele>898.3333333333334</ele><time>2026-05-02T13:32:54.323Z</time></trkpt><trkpt lat="43.7249653" lon="12.1183941"><ele>902.0</ele><time>2026-05-02T13:32:55.322Z</time></trkpt><trkpt lat="43.7251474" lon="12.1182594"><ele>903.0</ele><time>2026-05-02T13:32:56.322Z</time></trkpt><trkpt lat="43.7253209" lon="12.1180828"><ele>904.0</ele><time>2026-05-02T13:32:57.323Z</time></trkpt><trkpt lat="43.7254195" lon="12.1177365"><ele>904.0</ele><time>2026-05-02T13:32:58.322Z</time></trkpt><trkpt lat="43.7255608" lon="12.1174964"><ele>904.0</ele><time>2026-05-02T13:32:59.322Z</time></trkpt><trkpt lat="43.7256949" lon="12.1172753"><ele>904.0</ele><time>2026-05-02T13:33:00.321Z</time></trkpt><trkpt lat="43.7259023" lon="12.1171141"><ele>902.0</ele><time>2026-05-02T13:33:01.323Z</time></trkpt><trkpt lat="43.7261574" lon="12.1169922"><ele>900.0</ele><time>2026-05-02T13:33:02.324Z</time></trkpt><trkpt lat="43.7263614" lon="12.11683"><ele>900.0</ele><time>2026-05-02T13:33:03.348Z</time></trkpt><trkpt lat="43.7265577" lon="12.1166828"><ele>900.0</ele><time>2026-05-02T13:33:04.323Z</time></trkpt><trkpt lat="43.7267299" lon="12.1165207"><ele>900.0</ele><time>2026-05-02T13:33:05.321Z</time></trkpt><trkpt lat="43.7268848" lon="12.1163331"><ele>896.0</ele><time>2026-05-02T13:33:06.322Z</time></trkpt><trkpt lat="43.7270236" lon="12.1161422"><ele>892.0</ele><time>2026-05-02T13:33:07.347Z</time></trkpt><trkpt lat="43.7271678" lon="12.1159627"><ele>888.0</ele><time>2026-05-02T13:33:08.323Z</time></trkpt><trkpt lat="43.7273206" lon="12.1158254"><ele>882.6666666666667</ele><time>2026-05-02T13:33:09.321Z</time></trkpt><trkpt lat="43.7275151" lon="12.1157354"><ele>877.3333333333334</ele><time>2026-05-02T13:33:10.322Z</time></trkpt><trkpt lat="43.7277155" lon="12.1156497"><ele>872.0</ele><time>2026-05-02T13:33:11.323Z</time></trkpt><trkpt lat="43.7279303" lon="12.115623"><ele>872.0</ele><time>2026-05-02T13:33:12.32Z</time></trkpt><trkpt lat="43.7281518" lon="12.1155789"><ele>872.0</ele><time>2026-05-02T13:33:13.321Z</time></trkpt><trkpt lat="43.728352" lon="12.1155442"><ele>872.0</ele><time>2026-05-02T13:33:14.324Z</time></trkpt><trkpt lat="43.7285305" lon="12.1154768"><ele>877.3333333333334</ele><time>2026-05-02T13:33:15.322Z</time></trkpt><trkpt lat="43.7287096" lon="12.1153953"><ele>882.6666666666667</ele><time>2026-05-02T13:33:16.322Z</time></trkpt><trkpt lat="43.7288582" lon="12.1152866"><ele>888.0</ele><time>2026-05-02T13:33:17.323Z</time></trkpt><trkpt lat="43.7290061" lon="12.1151678"><ele>879.5</ele><time>2026-05-02T13:33:18.321Z</time></trkpt><trkpt lat="43.7290373" lon="12.1147633"><ele>871.0</ele><time>2026-05-02T13:33:19.321Z</time></trkpt><trkpt lat="43.7291379" lon="12.1145028"><ele>871.0</ele><time>2026-05-02T13:33:20.323Z</time></trkpt><trkpt lat="43.7292378" lon="12.1142734"><ele>871.0</ele><time>2026-05-02T13:33:21.321Z</time></trkpt><trkpt lat="43.729365" lon="12.1140604"><ele>871.0</ele><time>2026-05-02T13:33:22.321Z</time></trkpt><trkpt lat="43.7295897" lon="12.1139806"><ele>867.6666666666666</ele><time>2026-05-02T13:33:23.348Z</time></trkpt><trkpt lat="43.7297558" lon="12.1138717"><ele>864.3333333333333</ele><time>2026-05-02T13:33:24.321Z</time></trkpt><trkpt lat="43.7299657" lon="12.1138602"><ele>861.0</ele><time>2026-05-02T13:33:25.322Z</time></trkpt><trkpt lat="43.7301932" lon="12.1138102"><ele>865.0</ele><time>2026-05-02T13:33:26.322Z</time></trkpt><trkpt lat="43.7304421" lon="12.1137507"><ele>869.0</ele><time>2026-05-02T13:33:27.323Z</time></trkpt><trkpt lat="43.7307072" lon="12.1136289"><ele>869.0</ele><time>2026-05-02T13:33:28.322Z</time></trkpt><trkpt lat="43.7309519" lon="12.1135251"><ele>869.0</ele><time>2026-05-02T13:33:29.321Z</time></trkpt><trkpt lat="43.7311825" lon="12.1134291"><ele>867.6666666666667</ele><time>2026-05-02T13:33:30.32Z</time></trkpt><trkpt lat="43.7313882" lon="12.1133422"><ele>866.3333333333333</ele><time>2026-05-02T13:33:31.322Z</time></trkpt><trkpt lat="43.7315782" lon="12.1132273"><ele>865.0</ele><time>2026-05-02T13:33:32.322Z</time></trkpt><trkpt lat="43.7317553" lon="12.113068"><ele>872.0</ele><time>2026-05-02T13:33:33.322Z</time></trkpt><trkpt lat="43.7319229" lon="12.1129112"><ele>879.0</ele><time>2026-05-02T13:33:34.323Z</time></trkpt><trkpt lat="43.7320695" lon="12.1125683"><ele>877.5</ele><time>2026-05-02T13:33:35.321Z</time></trkpt><trkpt lat="43.7322168" lon="12.1123061"><ele>876.0</ele><time>2026-05-02T13:33:36.322Z</time></trkpt><trkpt lat="43.7323541" lon="12.1120206"><ele>876.0</ele><time>2026-05-02T13:33:37.322Z</time></trkpt><trkpt lat="43.7324873" lon="12.1117505"><ele>876.0</ele><time>2026-05-02T13:33:38.323Z</time></trkpt><trkpt lat="43.7326082" lon="12.111504"><ele>877.0</ele><time>2026-05-02T13:33:39.323Z</time></trkpt><trkpt lat="43.7327236" lon="12.1112661"><ele>878.0</ele><time>2026-05-02T13:33:40.322Z</time></trkpt><trkpt lat="43.732842" lon="12.111038"><ele>879.0</ele><time>2026-05-02T13:33:41.322Z</time></trkpt><trkpt lat="43.7329611" lon="12.1108075"><ele>877.3333333333333</ele><time>2026-05-02T13:33:42.323Z</time></trkpt><trkpt lat="43.7330818" lon="12.1105745"><ele>875.6666666666666</ele><time>2026-05-02T13:33:43.323Z</time></trkpt><trkpt lat="43.7331961" lon="12.110373"><ele>874.0</ele><time>2026-05-02T13:33:44.315Z</time></trkpt><trkpt lat="43.73333" lon="12.1102017"><ele>874.0</ele><time>2026-05-02T13:33:45.321Z</time></trkpt><trkpt lat="43.733507" lon="12.1100796"><ele>874.0</ele><time>2026-05-02T13:33:46.321Z</time></trkpt><trkpt lat="43.7336991" lon="12.1099483"><ele>874.0</ele><time>2026-05-02T13:33:47.32Z</time></trkpt><trkpt lat="43.733923" lon="12.1098415"><ele>871.0</ele><time>2026-05-02T13:33:48.32Z</time></trkpt><trkpt lat="43.7341477" lon="12.1097135"><ele>868.0</ele><time>2026-05-02T13:33:49.322Z</time></trkpt><trkpt lat="43.7343541" lon="12.1095854"><ele>869.0</ele><time>2026-05-02T13:33:50.32Z</time></trkpt><trkpt lat="43.7345476" lon="12.1094676"><ele>870.0</ele><time>2026-05-02T13:33:51.321Z</time></trkpt><trkpt lat="43.7347329" lon="12.109353"><ele>871.0</ele><time>2026-05-02T13:33:52.315Z</time></trkpt><trkpt lat="43.734911" lon="12.1092255"><ele>871.0</ele><time>2026-05-02T13:33:53.343Z</time></trkpt><trkpt lat="43.7350774" lon="12.1090838"><ele>871.0</ele><time>2026-05-02T13:33:54.321Z</time></trkpt><trkpt lat="43.7352078" lon="12.1088593"><ele>871.0</ele><time>2026-05-02T13:33:55.321Z</time></trkpt><trkpt lat="43.7353302" lon="12.1086159"><ele>869.0</ele><time>2026-05-02T13:33:56.32Z</time></trkpt><trkpt lat="43.7354368" lon="12.1083218"><ele>867.0</ele><time>2026-05-02T13:33:57.323Z</time></trkpt><trkpt lat="43.7355361" lon="12.1080056"><ele>867.0</ele><time>2026-05-02T13:33:58.321Z</time></trkpt><trkpt lat="43.7356363" lon="12.1076831"><ele>867.0</ele><time>2026-05-02T13:33:59.321Z</time></trkpt><trkpt lat="43.7357373" lon="12.1073558"><ele>864.0</ele><time>2026-05-02T13:34:00.318Z</time></trkpt><trkpt lat="43.7358473" lon="12.1070341"><ele>861.0</ele><time>2026-05-02T13:34:01.322Z</time></trkpt><trkpt lat="43.735952" lon="12.1067264"><ele>858.5</ele><time>2026-05-02T13:34:02.323Z</time></trkpt><trkpt lat="43.7360513" lon="12.1064233"><ele>856.0</ele><time>2026-05-02T13:34:03.322Z</time></trkpt><trkpt lat="43.7361502" lon="12.1061296"><ele>861.0</ele><time>2026-05-02T13:34:04.322Z</time></trkpt><trkpt lat="43.7362383" lon="12.1058459"><ele>866.0</ele><time>2026-05-02T13:34:05.321Z</time></trkpt><trkpt lat="43.7363051" lon="12.1055452"><ele>866.0</ele><time>2026-05-02T13:34:06.32Z</time></trkpt><trkpt lat="43.736346" lon="12.1052541"><ele>866.0</ele><time>2026-05-02T13:34:07.323Z</time></trkpt><trkpt lat="43.7363681" lon="12.1049927"><ele>866.0</ele><time>2026-05-02T13:34:08.318Z</time></trkpt><trkpt lat="43.7363892" lon="12.1047271"><ele>863.6666666666667</ele><time>2026-05-02T13:34:09.323Z</time></trkpt><trkpt lat="43.736393" lon="12.1045008"><ele>861.3333333333333</ele><time>2026-05-02T13:34:10.322Z</time></trkpt><trkpt lat="43.7364006" lon="12.1042792"><ele>859.0</ele><time>2026-05-02T13:34:11.321Z</time></trkpt><trkpt lat="43.7364101" lon="12.1040659"><ele>859.0</ele><time>2026-05-02T13:34:12.32Z</time></trkpt><trkpt lat="43.7364282" lon="12.1038623"><ele>859.0</ele><time>2026-05-02T13:34:13.322Z</time></trkpt><trkpt lat="43.7364395" lon="12.1036418"><ele>859.0</ele><time>2026-05-02T13:34:14.321Z</time></trkpt><trkpt lat="43.7364802" lon="12.1034294"><ele>859.75</ele><time>2026-05-02T13:34:15.327Z</time></trkpt><trkpt lat="43.7364334" lon="12.1032345"><ele>860.5</ele><time>2026-05-02T13:34:16.319Z</time></trkpt><trkpt lat="43.7364348" lon="12.103022"><ele>861.25</ele><time>2026-05-02T13:34:17.321Z</time></trkpt><trkpt lat="43.7364423" lon="12.102823"><ele>862.0</ele><time>2026-05-02T13:34:18.323Z</time></trkpt><trkpt lat="43.7364812" lon="12.1026285"><ele>862.0</ele><time>2026-05-02T13:34:19.322Z</time></trkpt><trkpt lat="43.7364999" lon="12.1024549"><ele>862.0</ele><time>2026-05-02T13:34:20.324Z</time></trkpt><trkpt lat="43.7365116" lon="12.1022565"><ele>862.0</ele><time>2026-05-02T13:34:21.322Z</time></trkpt><trkpt lat="43.7365949" lon="12.1020855"><ele>862.0</ele><time>2026-05-02T13:34:22.322Z</time></trkpt><trkpt lat="43.7367041" lon="12.1019105"><ele>862.0</ele><time>2026-05-02T13:34:23.323Z</time></trkpt><trkpt lat="43.7368483" lon="12.101838"><ele>862.0</ele><time>2026-05-02T13:34:24.321Z</time></trkpt><trkpt lat="43.7369516" lon="12.1017562"><ele>862.0</ele><time>2026-05-02T13:34:25.323Z</time></trkpt><trkpt lat="43.7371201" lon="12.1017965"><ele>862.0</ele><time>2026-05-02T13:34:26.324Z</time></trkpt><trkpt lat="43.737294" lon="12.1018228"><ele>863.0</ele><time>2026-05-02T13:34:27.324Z</time></trkpt><trkpt lat="43.7374278" lon="12.1017853"><ele>864.0</ele><time>2026-05-02T13:34:28.322Z</time></trkpt><trkpt lat="43.7375731" lon="12.101761"><ele>865.0</ele><time>2026-05-02T13:34:29.323Z</time></trkpt><trkpt lat="43.7377252" lon="12.1017285"><ele>866.0</ele><time>2026-05-02T13:34:30.323Z</time></trkpt><trkpt lat="43.7378806" lon="12.101713"><ele>866.0</ele><time>2026-05-02T13:34:31.322Z</time></trkpt><trkpt lat="43.7380208" lon="12.1016854"><ele>866.0</ele><time>2026-05-02T13:34:32.323Z</time></trkpt><trkpt lat="43.7381648" lon="12.1016672"><ele>866.0</ele><time>2026-05-02T13:34:33.325Z</time></trkpt><trkpt lat="43.7383102" lon="12.1016381"><ele>866.0</ele><time>2026-05-02T13:34:34.322Z</time></trkpt><trkpt lat="43.7384531" lon="12.1016072"><ele>866.25</ele><time>2026-05-02T13:34:35.321Z</time></trkpt><trkpt lat="43.738594" lon="12.1015996"><ele>866.5</ele><time>2026-05-02T13:34:36.322Z</time></trkpt><trkpt lat="43.7387374" lon="12.1015802"><ele>866.75</ele><time>2026-05-02T13:34:37.323Z</time></trkpt><trkpt lat="43.7388553" lon="12.1015509"><ele>867.0</ele><time>2026-05-02T13:34:38.324Z</time></trkpt><trkpt lat="43.7390046" lon="12.1014913"><ele>867.0</ele><time>2026-05-02T13:34:39.324Z</time></trkpt><trkpt lat="43.7391583" lon="12.1014058"><ele>867.0</ele><time>2026-05-02T13:34:40.321Z</time></trkpt><trkpt lat="43.7392692" lon="12.1012021"><ele>867.0</ele><time>2026-05-02T13:34:41.324Z</time></trkpt><trkpt lat="43.739404" lon="12.101051"><ele>868.6666666666667</ele><time>2026-05-02T13:34:42.323Z</time></trkpt><trkpt lat="43.7394882" lon="12.1008628"><ele>870.3333333333334</ele><time>2026-05-02T13:34:43.324Z</time></trkpt><trkpt lat="43.7395067" lon="12.1005429"><ele>872.0</ele><time>2026-05-02T13:34:44.323Z</time></trkpt><trkpt lat="43.7395529" lon="12.1002904"><ele>874.0</ele><time>2026-05-02T13:34:45.323Z</time></trkpt><trkpt lat="43.7395995" lon="12.1000367"><ele>876.0</ele><time>2026-05-02T13:34:46.323Z</time></trkpt><trkpt lat="43.7396493" lon="12.0997858"><ele>878.0</ele><time>2026-05-02T13:34:47.322Z</time></trkpt><trkpt lat="43.7396974" lon="12.0995387"><ele>878.0</ele><time>2026-05-02T13:34:48.324Z</time></trkpt><trkpt lat="43.7397565" lon="12.0992916"><ele>878.0</ele><time>2026-05-02T13:34:49.324Z</time></trkpt><trkpt lat="43.7398493" lon="12.0990522"><ele>878.0</ele><time>2026-05-02T13:34:50.321Z</time></trkpt><trkpt lat="43.7399346" lon="12.0988061"><ele>876.3333333333334</ele><time>2026-05-02T13:34:51.351Z</time></trkpt><trkpt lat="43.7401082" lon="12.0986333"><ele>874.6666666666667</ele><time>2026-05-02T13:34:52.323Z</time></trkpt><trkpt lat="43.7402717" lon="12.0984127"><ele>873.0</ele><time>2026-05-02T13:34:53.323Z</time></trkpt><trkpt lat="43.7404377" lon="12.0981856"><ele>873.0</ele><time>2026-05-02T13:34:54.323Z</time></trkpt><trkpt lat="43.7405975" lon="12.0979749"><ele>873.0</ele><time>2026-05-02T13:34:55.323Z</time></trkpt><trkpt lat="43.7407534" lon="12.0977665"><ele>873.0</ele><time>2026-05-02T13:34:56.32Z</time></trkpt><trkpt lat="43.7408952" lon="12.0975668"><ele>872.3333333333333</ele><time>2026-05-02T13:34:57.323Z</time></trkpt><trkpt lat="43.7410348" lon="12.0973763"><ele>871.6666666666666</ele><time>2026-05-02T13:34:58.322Z</time></trkpt><trkpt lat="43.7411895" lon="12.0972379"><ele>871.0</ele><time>2026-05-02T13:34:59.322Z</time></trkpt><trkpt lat="43.741361" lon="12.0971547"><ele>874.0</ele><time>2026-05-02T13:35:00.323Z</time></trkpt><trkpt lat="43.741537" lon="12.0971519"><ele>877.0</ele><time>2026-05-02T13:35:01.323Z</time></trkpt><trkpt lat="43.741738" lon="12.0972097"><ele>880.0</ele><time>2026-05-02T13:35:02.322Z</time></trkpt><trkpt lat="43.7419715" lon="12.0973124"><ele>883.0</ele><time>2026-05-02T13:35:03.322Z</time></trkpt><trkpt lat="43.7421737" lon="12.0973917"><ele>886.0</ele><time>2026-05-02T13:35:04.323Z</time></trkpt><trkpt lat="43.7423455" lon="12.0974621"><ele>889.0</ele><time>2026-05-02T13:35:05.323Z</time></trkpt><trkpt lat="43.7424956" lon="12.0975054"><ele>889.0</ele><time>2026-05-02T13:35:06.321Z</time></trkpt><trkpt lat="43.7426328" lon="12.0974957"><ele>889.0</ele><time>2026-05-02T13:35:07.324Z</time></trkpt><trkpt lat="43.7427655" lon="12.097475"><ele>889.0</ele><time>2026-05-02T13:35:08.321Z</time></trkpt><trkpt lat="43.7428869" lon="12.0972854"><ele>892.0</ele><time>2026-05-02T13:35:09.323Z</time></trkpt><trkpt lat="43.7429855" lon="12.0971692"><ele>895.0</ele><time>2026-05-02T13:35:10.322Z</time></trkpt><trkpt lat="43.7429999" lon="12.0970126"><ele>898.0</ele><time>2026-05-02T13:35:11.321Z</time></trkpt><trkpt lat="43.742738" lon="12.0968085"><ele>895.3333333333333</ele><time>2026-05-02T13:35:12.319Z</time></trkpt><trkpt lat="43.7426011" lon="12.0966421"><ele>892.6666666666667</ele><time>2026-05-02T13:35:13.322Z</time></trkpt><trkpt lat="43.7424904" lon="12.0964913"><ele>890.0</ele><time>2026-05-02T13:35:14.322Z</time></trkpt><trkpt lat="43.7424181" lon="12.0963322"><ele>890.0</ele><time>2026-05-02T13:35:15.322Z</time></trkpt><trkpt lat="43.7423935" lon="12.0961674"><ele>890.0</ele><time>2026-05-02T13:35:16.324Z</time></trkpt><trkpt lat="43.7424247" lon="12.0960032"><ele>890.0</ele><time>2026-05-02T13:35:17.323Z</time></trkpt><trkpt lat="43.7425109" lon="12.095884"><ele>890.0</ele><time>2026-05-02T13:35:18.322Z</time></trkpt><trkpt lat="43.7426379" lon="12.0958174"><ele>893.0</ele><time>2026-05-02T13:35:19.327Z</time></trkpt><trkpt lat="43.7428158" lon="12.095794"><ele>896.0</ele><time>2026-05-02T13:35:20.322Z</time></trkpt><trkpt lat="43.7430381" lon="12.0957859"><ele>899.0</ele><time>2026-05-02T13:35:21.318Z</time></trkpt><trkpt lat="43.743261" lon="12.0958023"><ele>899.0</ele><time>2026-05-02T13:35:22.323Z</time></trkpt><trkpt lat="43.7434824" lon="12.0958193"><ele>899.0</ele><time>2026-05-02T13:35:23.321Z</time></trkpt><trkpt lat="43.7436822" lon="12.0959446"><ele>899.0</ele><time>2026-05-02T13:35:24.322Z</time></trkpt><trkpt lat="43.7438605" lon="12.0962112"><ele>901.0</ele><time>2026-05-02T13:35:25.319Z</time></trkpt><trkpt lat="43.7440068" lon="12.0963838"><ele>903.0</ele><time>2026-05-02T13:35:26.32Z</time></trkpt><trkpt lat="43.7441604" lon="12.0965106"><ele>905.0</ele><time>2026-05-02T13:35:27.322Z</time></trkpt><trkpt lat="43.7443181" lon="12.0965846"><ele>908.6666666666667</ele><time>2026-05-02T13:35:28.321Z</time></trkpt><trkpt lat="43.7444714" lon="12.0965786"><ele>912.3333333333333</ele><time>2026-05-02T13:35:29.322Z</time></trkpt><trkpt lat="43.7446177" lon="12.0965628"><ele>916.0</ele><time>2026-05-02T13:35:30.317Z</time></trkpt><trkpt lat="43.7447801" lon="12.0963798"><ele>916.0</ele><time>2026-05-02T13:35:31.321Z</time></trkpt><trkpt lat="43.74494" lon="12.0963098"><ele>916.0</ele><time>2026-05-02T13:35:32.321Z</time></trkpt><trkpt lat="43.7450995" lon="12.0963001"><ele>916.0</ele><time>2026-05-02T13:35:33.313Z</time></trkpt><trkpt lat="43.7452541" lon="12.0963601"><ele>918.6666666666666</ele><time>2026-05-02T13:35:34.321Z</time></trkpt><trkpt lat="43.7454031" lon="12.0964077"><ele>921.3333333333333</ele><time>2026-05-02T13:35:35.323Z</time></trkpt><trkpt lat="43.7455374" lon="12.0965123"><ele>924.0</ele><time>2026-05-02T13:35:36.313Z</time></trkpt><trkpt lat="43.7456696" lon="12.0966703"><ele>925.5</ele><time>2026-05-02T13:35:37.322Z</time></trkpt><trkpt lat="43.745643" lon="12.0968849"><ele>927.0</ele><time>2026-05-02T13:35:38.32Z</time></trkpt><trkpt lat="43.7453811" lon="12.0972514"><ele>924.5</ele><time>2026-05-02T13:35:39.322Z</time></trkpt><trkpt lat="43.7452831" lon="12.0975414"><ele>922.0</ele><time>2026-05-02T13:35:40.321Z</time></trkpt><trkpt lat="43.7451875" lon="12.0978281"><ele>922.0</ele><time>2026-05-02T13:35:41.321Z</time></trkpt><trkpt lat="43.7450682" lon="12.0981138"><ele>922.0</ele><time>2026-05-02T13:35:42.32Z</time></trkpt><trkpt lat="43.7449892" lon="12.0983309"><ele>922.0</ele><time>2026-05-02T13:35:43.318Z</time></trkpt><trkpt lat="43.7449328" lon="12.0985125"><ele>924.0</ele><time>2026-05-02T13:35:44.322Z</time></trkpt><trkpt lat="43.7449261" lon="12.0986952"><ele>926.0</ele><time>2026-05-02T13:35:45.322Z</time></trkpt><trkpt lat="43.7449216" lon="12.0988651"><ele>928.0</ele><time>2026-05-02T13:35:46.319Z</time></trkpt><trkpt lat="43.7449519" lon="12.0989852"><ele>930.0</ele><time>2026-05-02T13:35:47.317Z</time></trkpt><trkpt lat="43.7449971" lon="12.0991059"><ele>932.0</ele><time>2026-05-02T13:35:48.323Z</time></trkpt><trkpt lat="43.7450428" lon="12.0991996"><ele>934.0</ele><time>2026-05-02T13:35:49.313Z</time></trkpt><trkpt lat="43.7451686" lon="12.0991349"><ele>936.0</ele><time>2026-05-02T13:35:50.321Z</time></trkpt><trkpt lat="43.7455448" lon="12.0986704"><ele>938.0</ele><time>2026-05-02T13:35:51.322Z</time></trkpt><trkpt lat="43.7457167" lon="12.0985409"><ele>940.0</ele><time>2026-05-02T13:35:52.321Z</time></trkpt><trkpt lat="43.7458959" lon="12.0984633"><ele>942.0</ele><time>2026-05-02T13:35:53.321Z</time></trkpt><trkpt lat="43.746122" lon="12.0984308"><ele>946.5</ele><time>2026-05-02T13:35:54.319Z</time></trkpt><trkpt lat="43.7463775" lon="12.098561"><ele>951.0</ele><time>2026-05-02T13:35:55.322Z</time></trkpt><trkpt lat="43.7466076" lon="12.0985745"><ele>951.0</ele><time>2026-05-02T13:35:56.321Z</time></trkpt><trkpt lat="43.7467988" lon="12.0985817"><ele>951.0</ele><time>2026-05-02T13:35:57.321Z</time></trkpt><trkpt lat="43.7469696" lon="12.098552"><ele>951.0</ele><time>2026-05-02T13:35:58.32Z</time></trkpt><trkpt lat="43.7471366" lon="12.0982952"><ele>951.6666666666667</ele><time>2026-05-02T13:35:59.321Z</time></trkpt><trkpt lat="43.7473228" lon="12.0981288"><ele>952.3333333333334</ele><time>2026-05-02T13:36:00.321Z</time></trkpt><trkpt lat="43.7474795" lon="12.0980119"><ele>953.0</ele><time>2026-05-02T13:36:01.319Z</time></trkpt><trkpt lat="43.7476445" lon="12.0979403"><ele>955.6666666666667</ele><time>2026-05-02T13:36:02.318Z</time></trkpt><trkpt lat="43.747793" lon="12.0979065"><ele>958.3333333333333</ele><time>2026-05-02T13:36:03.322Z</time></trkpt><trkpt lat="43.747995" lon="12.0979972"><ele>961.0</ele><time>2026-05-02T13:36:04.322Z</time></trkpt><trkpt lat="43.7481714" lon="12.0980517"><ele>961.0</ele><time>2026-05-02T13:36:05.321Z</time></trkpt><trkpt lat="43.7483235" lon="12.09817"><ele>961.0</ele><time>2026-05-02T13:36:06.313Z</time></trkpt><trkpt lat="43.7484658" lon="12.0981856"><ele>961.0</ele><time>2026-05-02T13:36:07.321Z</time></trkpt><trkpt lat="43.748594" lon="12.0980995"><ele>963.75</ele><time>2026-05-02T13:36:08.321Z</time></trkpt><trkpt lat="43.7486926" lon="12.0979486"><ele>966.5</ele><time>2026-05-02T13:36:09.317Z</time></trkpt><trkpt lat="43.748794" lon="12.0978132"><ele>969.25</ele><time>2026-05-02T13:36:10.318Z</time></trkpt><trkpt lat="43.7488765" lon="12.0976521"><ele>972.0</ele><time>2026-05-02T13:36:11.318Z</time></trkpt><trkpt lat="43.748961" lon="12.0974234"><ele>968.6666666666667</ele><time>2026-05-02T13:36:12.319Z</time></trkpt><trkpt lat="43.7491184" lon="12.0973156"><ele>965.3333333333334</ele><time>2026-05-02T13:36:13.321Z</time></trkpt><trkpt lat="43.7492597" lon="12.0972449"><ele>962.0</ele><time>2026-05-02T13:36:14.321Z</time></trkpt><trkpt lat="43.7494363" lon="12.0972838"><ele>962.0</ele><time>2026-05-02T13:36:15.318Z</time></trkpt><trkpt lat="43.7496477" lon="12.0973838"><ele>962.0</ele><time>2026-05-02T13:36:16.32Z</time></trkpt><trkpt lat="43.7498671" lon="12.0974694"><ele>967.0</ele><time>2026-05-02T13:36:17.318Z</time></trkpt><trkpt lat="43.7501372" lon="12.0976309"><ele>972.0</ele><time>2026-05-02T13:36:18.321Z</time></trkpt><trkpt lat="43.7503718" lon="12.0977367"><ele>972.0</ele><time>2026-05-02T13:36:19.321Z</time></trkpt><trkpt lat="43.7505897" lon="12.0978416"><ele>972.0</ele><time>2026-05-02T13:36:20.322Z</time></trkpt><trkpt lat="43.7508101" lon="12.0979484"><ele>972.0</ele><time>2026-05-02T13:36:21.322Z</time></trkpt><trkpt lat="43.751007" lon="12.0980396"><ele>972.0</ele><time>2026-05-02T13:36:22.322Z</time></trkpt><trkpt lat="43.7511915" lon="12.098126"><ele>972.0</ele><time>2026-05-02T13:36:23.322Z</time></trkpt><trkpt lat="43.7513738" lon="12.098222"><ele>975.3333333333333</ele><time>2026-05-02T13:36:24.322Z</time></trkpt><trkpt lat="43.7515532" lon="12.0983033"><ele>978.6666666666666</ele><time>2026-05-02T13:36:25.315Z</time></trkpt><trkpt lat="43.7517235" lon="12.0983818"><ele>982.0</ele><time>2026-05-02T13:36:26.322Z</time></trkpt><trkpt lat="43.7518832" lon="12.0984467"><ele>982.0</ele><time>2026-05-02T13:36:27.323Z</time></trkpt><trkpt lat="43.7520314" lon="12.0985158"><ele>982.0</ele><time>2026-05-02T13:36:28.32Z</time></trkpt><trkpt lat="43.7521497" lon="12.098613"><ele>982.0</ele><time>2026-05-02T13:36:29.323Z</time></trkpt><trkpt lat="43.752237" lon="12.0987562"><ele>982.0</ele><time>2026-05-02T13:36:30.321Z</time></trkpt><trkpt lat="43.7522857" lon="12.0989592"><ele>984.6666666666666</ele><time>2026-05-02T13:36:31.321Z</time></trkpt><trkpt lat="43.7523101" lon="12.0992031"><ele>987.3333333333333</ele><time>2026-05-02T13:36:32.322Z</time></trkpt><trkpt lat="43.7523511" lon="12.0994311"><ele>990.0</ele><time>2026-05-02T13:36:33.32Z</time></trkpt><trkpt lat="43.752427" lon="12.0996334"><ele>990.0</ele><time>2026-05-02T13:36:34.322Z</time></trkpt><trkpt lat="43.7524964" lon="12.0998366"><ele>990.0</ele><time>2026-05-02T13:36:35.322Z</time></trkpt><trkpt lat="43.7526475" lon="12.0999793"><ele>990.0</ele><time>2026-05-02T13:36:36.322Z</time></trkpt><trkpt lat="43.7527627" lon="12.1000762"><ele>993.3333333333333</ele><time>2026-05-02T13:36:37.322Z</time></trkpt><trkpt lat="43.7529011" lon="12.100107"><ele>996.6666666666666</ele><time>2026-05-02T13:36:38.321Z</time></trkpt><trkpt lat="43.7530436" lon="12.1001277"><ele>1000.0</ele><time>2026-05-02T13:36:39.321Z</time></trkpt><trkpt lat="43.7532197" lon="12.1000568"><ele>1000.0</ele><time>2026-05-02T13:36:40.319Z</time></trkpt><trkpt lat="43.7534102" lon="12.099978"><ele>1000.0</ele><time>2026-05-02T13:36:41.321Z</time></trkpt><trkpt lat="43.7535931" lon="12.0999092"><ele>1000.0</ele><time>2026-05-02T13:36:42.32Z</time></trkpt><trkpt lat="43.7537371" lon="12.0998922"><ele>999.0</ele><time>2026-05-02T13:36:43.319Z</time></trkpt><trkpt lat="43.7538957" lon="12.0999324"><ele>998.0</ele><time>2026-05-02T13:36:44.322Z</time></trkpt><trkpt lat="43.7540693" lon="12.1000343"><ele>997.0</ele><time>2026-05-02T13:36:45.318Z</time></trkpt><trkpt lat="43.7542405" lon="12.1001588"><ele>995.6666666666666</ele><time>2026-05-02T13:36:46.32Z</time></trkpt><trkpt lat="43.7543892" lon="12.1003063"><ele>994.3333333333333</ele><time>2026-05-02T13:36:47.322Z</time></trkpt><trkpt lat="43.7545099" lon="12.1004859"><ele>993.0</ele><time>2026-05-02T13:36:48.318Z</time></trkpt><trkpt lat="43.7546165" lon="12.1006617"><ele>996.6666666666667</ele><time>2026-05-02T13:36:49.322Z</time></trkpt><trkpt lat="43.7547254" lon="12.1008148"><ele>1000.3333333333334</ele><time>2026-05-02T13:36:50.322Z</time></trkpt><trkpt lat="43.7548608" lon="12.1009101"><ele>1004.0</ele><time>2026-05-02T13:36:51.321Z</time></trkpt><trkpt lat="43.755035" lon="12.1009467"><ele>1002.5</ele><time>2026-05-02T13:36:52.323Z</time></trkpt><trkpt lat="43.7552551" lon="12.1009788"><ele>1001.0</ele><time>2026-05-02T13:36:53.321Z</time></trkpt><trkpt lat="43.7555045" lon="12.1010436"><ele>1001.0</ele><time>2026-05-02T13:36:54.321Z</time></trkpt><trkpt lat="43.7557373" lon="12.1011158"><ele>1001.0</ele><time>2026-05-02T13:36:55.321Z</time></trkpt><trkpt lat="43.7559624" lon="12.1011876"><ele>1001.0</ele><time>2026-05-02T13:36:56.323Z</time></trkpt><trkpt lat="43.7561727" lon="12.1012652"><ele>1001.0</ele><time>2026-05-02T13:36:57.321Z</time></trkpt><trkpt lat="43.7563648" lon="12.1013264"><ele>1001.0</ele><time>2026-05-02T13:36:58.321Z</time></trkpt><trkpt lat="43.7565548" lon="12.1013723"><ele>1001.0</ele><time>2026-05-02T13:36:59.317Z</time></trkpt><trkpt lat="43.7567027" lon="12.1013648"><ele>1001.0</ele><time>2026-05-02T13:37:00.32Z</time></trkpt><trkpt lat="43.7568565" lon="12.1013439"><ele>1001.0</ele><time>2026-05-02T13:37:01.325Z</time></trkpt><trkpt lat="43.756995" lon="12.1013023"><ele>1001.0</ele><time>2026-05-02T13:37:02.322Z</time></trkpt><trkpt lat="43.7571165" lon="12.1013113"><ele>1000.0</ele><time>2026-05-02T13:37:03.323Z</time></trkpt><trkpt lat="43.7572296" lon="12.101386"><ele>999.0</ele><time>2026-05-02T13:37:04.322Z</time></trkpt><trkpt lat="43.7573394" lon="12.1015253"><ele>998.0</ele><time>2026-05-02T13:37:05.322Z</time></trkpt><trkpt lat="43.7574582" lon="12.1016879"><ele>997.0</ele><time>2026-05-02T13:37:06.321Z</time></trkpt><trkpt lat="43.75758" lon="12.1017986"><ele>1001.5</ele><time>2026-05-02T13:37:07.32Z</time></trkpt><trkpt lat="43.7577232" lon="12.1018377"><ele>1006.0</ele><time>2026-05-02T13:37:08.321Z</time></trkpt><trkpt lat="43.7578563" lon="12.1018739"><ele>1010.5</ele><time>2026-05-02T13:37:09.319Z</time></trkpt><trkpt lat="43.7579929" lon="12.1018439"><ele>1015.0</ele><time>2026-05-02T13:37:10.321Z</time></trkpt><trkpt lat="43.7581869" lon="12.1017215"><ele>1016.5</ele><time>2026-05-02T13:37:11.322Z</time></trkpt><trkpt lat="43.7584813" lon="12.1014063"><ele>1018.0</ele><time>2026-05-02T13:37:12.322Z</time></trkpt><trkpt lat="43.7586858" lon="12.1012023"><ele>1018.0</ele><time>2026-05-02T13:37:13.323Z</time></trkpt><trkpt lat="43.7588716" lon="12.1009904"><ele>1018.0</ele><time>2026-05-02T13:37:14.321Z</time></trkpt><trkpt lat="43.7590497" lon="12.1007808"><ele>1019.0</ele><time>2026-05-02T13:37:15.316Z</time></trkpt><trkpt lat="43.7592028" lon="12.1005857"><ele>1020.0</ele><time>2026-05-02T13:37:16.318Z</time></trkpt><trkpt lat="43.7593549" lon="12.100391"><ele>1021.0</ele><time>2026-05-02T13:37:17.321Z</time></trkpt><trkpt lat="43.7594931" lon="12.1002028"><ele>1021.0</ele><time>2026-05-02T13:37:18.321Z</time></trkpt><trkpt lat="43.7596387" lon="12.1000256"><ele>1021.0</ele><time>2026-05-02T13:37:19.319Z</time></trkpt><trkpt lat="43.759788" lon="12.099846"><ele>1021.0</ele><time>2026-05-02T13:37:20.318Z</time></trkpt><trkpt lat="43.7599331" lon="12.0996809"><ele>1018.3333333333333</ele><time>2026-05-02T13:37:21.321Z</time></trkpt><trkpt lat="43.7600825" lon="12.099518"><ele>1015.6666666666667</ele><time>2026-05-02T13:37:22.321Z</time></trkpt><trkpt lat="43.7602419" lon="12.0993724"><ele>1013.0</ele><time>2026-05-02T13:37:23.32Z</time></trkpt><trkpt lat="43.7603988" lon="12.0992478"><ele>1013.0</ele><time>2026-05-02T13:37:24.321Z</time></trkpt><trkpt lat="43.7605517" lon="12.0991378"><ele>1013.0</ele><time>2026-05-02T13:37:25.321Z</time></trkpt><trkpt lat="43.7607129" lon="12.0990718"><ele>1013.0</ele><time>2026-05-02T13:37:26.322Z</time></trkpt><trkpt lat="43.7608678" lon="12.0990349"><ele>1013.0</ele><time>2026-05-02T13:37:27.321Z</time></trkpt><trkpt lat="43.7610186" lon="12.0990289"><ele>1013.0</ele><time>2026-05-02T13:37:28.32Z</time></trkpt><trkpt lat="43.7611671" lon="12.0990214"><ele>1013.0</ele><time>2026-05-02T13:37:29.321Z</time></trkpt><trkpt lat="43.7613092" lon="12.0989911"><ele>1013.0</ele><time>2026-05-02T13:37:30.319Z</time></trkpt><trkpt lat="43.7614559" lon="12.0989309"><ele>1013.0</ele><time>2026-05-02T13:37:31.319Z</time></trkpt><trkpt lat="43.7615981" lon="12.0987562"><ele>1013.0</ele><time>2026-05-02T13:37:32.322Z</time></trkpt><trkpt lat="43.7617387" lon="12.0985471"><ele>1013.0</ele><time>2026-05-02T13:37:33.321Z</time></trkpt><trkpt lat="43.7618613" lon="12.0983476"><ele>1011.0</ele><time>2026-05-02T13:37:34.32Z</time></trkpt><trkpt lat="43.7619733" lon="12.098151"><ele>1009.0</ele><time>2026-05-02T13:37:35.322Z</time></trkpt><trkpt lat="43.7620806" lon="12.0980026"><ele>1007.0</ele><time>2026-05-02T13:37:36.323Z</time></trkpt><trkpt lat="43.7622046" lon="12.0979045"><ele>1007.0</ele><time>2026-05-02T13:37:37.321Z</time></trkpt><trkpt lat="43.7623622" lon="12.0978551"><ele>1007.0</ele><time>2026-05-02T13:37:38.321Z</time></trkpt><trkpt lat="43.7625592" lon="12.0978546"><ele>1007.0</ele><time>2026-05-02T13:37:39.322Z</time></trkpt><trkpt lat="43.7627775" lon="12.0978797"><ele>1006.3333333333334</ele><time>2026-05-02T13:37:40.323Z</time></trkpt><trkpt lat="43.7629955" lon="12.0979033"><ele>1005.6666666666667</ele><time>2026-05-02T13:37:41.322Z</time></trkpt><trkpt lat="43.7632074" lon="12.0979289"><ele>1005.0</ele><time>2026-05-02T13:37:42.321Z</time></trkpt><trkpt lat="43.7634069" lon="12.097913"><ele>1004.3333333333333</ele><time>2026-05-02T13:37:43.32Z</time></trkpt><trkpt lat="43.7636115" lon="12.097832"><ele>1003.6666666666666</ele><time>2026-05-02T13:37:44.321Z</time></trkpt><trkpt lat="43.7638084" lon="12.0976988"><ele>1003.0</ele><time>2026-05-02T13:37:45.321Z</time></trkpt><trkpt lat="43.76399" lon="12.0975371"><ele>1001.0</ele><time>2026-05-02T13:37:46.32Z</time></trkpt><trkpt lat="43.764167" lon="12.0973847"><ele>999.0</ele><time>2026-05-02T13:37:47.319Z</time></trkpt><trkpt lat="43.7643327" lon="12.0972449"><ele>997.0</ele><time>2026-05-02T13:37:48.321Z</time></trkpt><trkpt lat="43.7644906" lon="12.0971103"><ele>997.0</ele><time>2026-05-02T13:37:49.321Z</time></trkpt><trkpt lat="43.764654" lon="12.0969616"><ele>997.0</ele><time>2026-05-02T13:37:50.321Z</time></trkpt><trkpt lat="43.7647875" lon="12.0968637"><ele>997.0</ele><time>2026-05-02T13:37:51.322Z</time></trkpt><trkpt lat="43.7649376" lon="12.0967374"><ele>997.0</ele><time>2026-05-02T13:37:52.321Z</time></trkpt><trkpt lat="43.7650915" lon="12.0966027"><ele>997.0</ele><time>2026-05-02T13:37:53.321Z</time></trkpt><trkpt lat="43.765254" lon="12.0964665"><ele>997.0</ele><time>2026-05-02T13:37:54.321Z</time></trkpt><trkpt lat="43.7654237" lon="12.096326"><ele>996.6666666666666</ele><time>2026-05-02T13:37:55.322Z</time></trkpt><trkpt lat="43.7655875" lon="12.0961909"><ele>996.3333333333333</ele><time>2026-05-02T13:37:56.322Z</time></trkpt><trkpt lat="43.7657497" lon="12.0960405"><ele>996.0</ele><time>2026-05-02T13:37:57.321Z</time></trkpt><trkpt lat="43.7658993" lon="12.0958557"><ele>997.0</ele><time>2026-05-02T13:37:58.325Z</time></trkpt><trkpt lat="43.7660341" lon="12.0956448"><ele>998.0</ele><time>2026-05-02T13:37:59.323Z</time></trkpt><trkpt lat="43.7661505" lon="12.095414"><ele>999.0</ele><time>2026-05-02T13:38:00.323Z</time></trkpt><trkpt lat="43.7662604" lon="12.0951851"><ele>999.0</ele><time>2026-05-02T13:38:01.324Z</time></trkpt><trkpt lat="43.766361" lon="12.0949593"><ele>999.0</ele><time>2026-05-02T13:38:02.32Z</time></trkpt><trkpt lat="43.7664618" lon="12.0947396"><ele>999.0</ele><time>2026-05-02T13:38:03.32Z</time></trkpt><trkpt lat="43.7665604" lon="12.0945201"><ele>999.6666666666667</ele><time>2026-05-02T13:38:04.322Z</time></trkpt><trkpt lat="43.7666741" lon="12.0943031"><ele>1000.3333333333334</ele><time>2026-05-02T13:38:05.315Z</time></trkpt><trkpt lat="43.7667848" lon="12.0941158"><ele>1001.0</ele><time>2026-05-02T13:38:06.32Z</time></trkpt><trkpt lat="43.7669434" lon="12.0940051"><ele>1006.0</ele><time>2026-05-02T13:38:07.322Z</time></trkpt><trkpt lat="43.7671143" lon="12.0938976"><ele>1011.0</ele><time>2026-05-02T13:38:08.322Z</time></trkpt><trkpt lat="43.7672936" lon="12.0938048"><ele>1016.0</ele><time>2026-05-02T13:38:09.321Z</time></trkpt><trkpt lat="43.7674646" lon="12.0937051"><ele>1016.0</ele><time>2026-05-02T13:38:10.321Z</time></trkpt><trkpt lat="43.7675807" lon="12.0935996"><ele>1016.0</ele><time>2026-05-02T13:38:11.322Z</time></trkpt><trkpt lat="43.767706" lon="12.0934456"><ele>1016.0</ele><time>2026-05-02T13:38:12.323Z</time></trkpt><trkpt lat="43.7678159" lon="12.0932956"><ele>1018.0</ele><time>2026-05-02T13:38:13.322Z</time></trkpt><trkpt lat="43.7679169" lon="12.0930175"><ele>1020.0</ele><time>2026-05-02T13:38:14.321Z</time></trkpt><trkpt lat="43.7680244" lon="12.0928406"><ele>1022.0</ele><time>2026-05-02T13:38:15.323Z</time></trkpt><trkpt lat="43.7681531" lon="12.0926761"><ele>1022.0</ele><time>2026-05-02T13:38:16.32Z</time></trkpt><trkpt lat="43.7683182" lon="12.0925386"><ele>1022.0</ele><time>2026-05-02T13:38:17.321Z</time></trkpt><trkpt lat="43.7685008" lon="12.0924082"><ele>1022.0</ele><time>2026-05-02T13:38:18.324Z</time></trkpt><trkpt lat="43.7686917" lon="12.0922826"><ele>1023.3333333333334</ele><time>2026-05-02T13:38:19.321Z</time></trkpt><trkpt lat="43.7688759" lon="12.0921564"><ele>1024.6666666666667</ele><time>2026-05-02T13:38:20.322Z</time></trkpt><trkpt lat="43.7690615" lon="12.0920331"><ele>1026.0</ele><time>2026-05-02T13:38:21.316Z</time></trkpt><trkpt lat="43.7692452" lon="12.0919222"><ele>1027.6666666666667</ele><time>2026-05-02T13:38:22.323Z</time></trkpt><trkpt lat="43.7694273" lon="12.0918115"><ele>1029.3333333333335</ele><time>2026-05-02T13:38:23.321Z</time></trkpt><trkpt lat="43.769609" lon="12.0917111"><ele>1031.0</ele><time>2026-05-02T13:38:24.322Z</time></trkpt><trkpt lat="43.76979" lon="12.0916035"><ele>1033.6666666666667</ele><time>2026-05-02T13:38:25.322Z</time></trkpt><trkpt lat="43.7699663" lon="12.0915007"><ele>1036.3333333333333</ele><time>2026-05-02T13:38:26.322Z</time></trkpt><trkpt lat="43.7701615" lon="12.0913732"><ele>1039.0</ele><time>2026-05-02T13:38:27.321Z</time></trkpt><trkpt lat="43.7703475" lon="12.091254"><ele>1039.3333333333333</ele><time>2026-05-02T13:38:28.322Z</time></trkpt><trkpt lat="43.7705367" lon="12.0911327"><ele>1039.6666666666667</ele><time>2026-05-02T13:38:29.323Z</time></trkpt><trkpt lat="43.770718" lon="12.0910211"><ele>1040.0</ele><time>2026-05-02T13:38:30.322Z</time></trkpt><trkpt lat="43.7708876" lon="12.0909164"><ele>1039.6666666666667</ele><time>2026-05-02T13:38:31.32Z</time></trkpt><trkpt lat="43.7710519" lon="12.0907976"><ele>1039.3333333333333</ele><time>2026-05-02T13:38:32.322Z</time></trkpt><trkpt lat="43.7712302" lon="12.0906827"><ele>1039.0</ele><time>2026-05-02T13:38:33.321Z</time></trkpt><trkpt lat="43.7714032" lon="12.0905784"><ele>1040.6666666666665</ele><time>2026-05-02T13:38:34.322Z</time></trkpt><trkpt lat="43.7715771" lon="12.0904691"><ele>1042.3333333333333</ele><time>2026-05-02T13:38:35.319Z</time></trkpt><trkpt lat="43.7717562" lon="12.0903574"><ele>1044.0</ele><time>2026-05-02T13:38:36.321Z</time></trkpt><trkpt lat="43.7719342" lon="12.090244"><ele>1045.0</ele><time>2026-05-02T13:38:37.321Z</time></trkpt><trkpt lat="43.7721124" lon="12.0901269"><ele>1046.0</ele><time>2026-05-02T13:38:38.322Z</time></trkpt><trkpt lat="43.7722998" lon="12.090016"><ele>1047.0</ele><time>2026-05-02T13:38:39.323Z</time></trkpt><trkpt lat="43.7724816" lon="12.0898926"><ele>1048.6666666666667</ele><time>2026-05-02T13:38:40.321Z</time></trkpt><trkpt lat="43.7726816" lon="12.0897731"><ele>1050.3333333333335</ele><time>2026-05-02T13:38:41.321Z</time></trkpt><trkpt lat="43.7728625" lon="12.0896626"><ele>1052.0</ele><time>2026-05-02T13:38:42.321Z</time></trkpt><trkpt lat="43.7730467" lon="12.0895452"><ele>1052.3333333333335</ele><time>2026-05-02T13:38:43.321Z</time></trkpt><trkpt lat="43.7732241" lon="12.0894444"><ele>1052.6666666666667</ele><time>2026-05-02T13:38:44.322Z</time></trkpt><trkpt lat="43.7734067" lon="12.0893223"><ele>1053.0</ele><time>2026-05-02T13:38:45.322Z</time></trkpt><trkpt lat="43.7735889" lon="12.0891955"><ele>1056.0</ele><time>2026-05-02T13:38:46.322Z</time></trkpt><trkpt lat="43.7737688" lon="12.0890788"><ele>1059.0</ele><time>2026-05-02T13:38:47.32Z</time></trkpt><trkpt lat="43.7739511" lon="12.0889707"><ele>1062.0</ele><time>2026-05-02T13:38:48.323Z</time></trkpt><trkpt lat="43.7741291" lon="12.0888622"><ele>1062.0</ele><time>2026-05-02T13:38:49.321Z</time></trkpt><trkpt lat="43.7743048" lon="12.088762"><ele>1062.0</ele><time>2026-05-02T13:38:50.322Z</time></trkpt><trkpt lat="43.7744693" lon="12.0886625"><ele>1062.0</ele><time>2026-05-02T13:38:51.322Z</time></trkpt><trkpt lat="43.7746214" lon="12.0885712"><ele>1062.3333333333333</ele><time>2026-05-02T13:38:52.321Z</time></trkpt><trkpt lat="43.774775" lon="12.0884751"><ele>1062.6666666666665</ele><time>2026-05-02T13:38:53.322Z</time></trkpt><trkpt lat="43.7749429" lon="12.0884501"><ele>1063.0</ele><time>2026-05-02T13:38:54.321Z</time></trkpt><trkpt lat="43.7750993" lon="12.0885378"><ele>1067.3333333333333</ele><time>2026-05-02T13:38:55.322Z</time></trkpt><trkpt lat="43.7752586" lon="12.0885721"><ele>1071.6666666666667</ele><time>2026-05-02T13:38:56.324Z</time></trkpt><trkpt lat="43.775415" lon="12.0886123"><ele>1076.0</ele><time>2026-05-02T13:38:57.321Z</time></trkpt><trkpt lat="43.7755556" lon="12.0886287"><ele>1076.0</ele><time>2026-05-02T13:38:58.321Z</time></trkpt><trkpt lat="43.775698" lon="12.0886023"><ele>1076.0</ele><time>2026-05-02T13:38:59.321Z</time></trkpt><trkpt lat="43.7758292" lon="12.0885445"><ele>1076.0</ele><time>2026-05-02T13:39:00.321Z</time></trkpt><trkpt lat="43.7759397" lon="12.0884717"><ele>1076.0</ele><time>2026-05-02T13:39:01.321Z</time></trkpt><trkpt lat="43.7760391" lon="12.0884013"><ele>1076.6</ele><time>2026-05-02T13:39:02.322Z</time></trkpt><trkpt lat="43.7761296" lon="12.0883385"><ele>1077.1999999999998</ele><time>2026-05-02T13:39:03.322Z</time></trkpt><trkpt lat="43.776211" lon="12.0882785"><ele>1077.8000000000002</ele><time>2026-05-02T13:39:04.322Z</time></trkpt><trkpt lat="43.7762833" lon="12.0882289"><ele>1078.4</ele><time>2026-05-02T13:39:05.321Z</time></trkpt><trkpt lat="43.7763485" lon="12.0881877"><ele>1079.0</ele><time>2026-05-02T13:39:06.321Z</time></trkpt><trkpt lat="43.7764504" lon="12.088157"><ele>1079.0</ele><time>2026-05-02T13:39:08.32Z</time></trkpt><trkpt lat="43.7765317" lon="12.0882046"><ele>1079.0</ele><time>2026-05-02T13:39:10.323Z</time></trkpt><trkpt lat="43.7766078" lon="12.0883633"><ele>1079.0</ele><time>2026-05-02T13:39:12.333Z</time></trkpt><trkpt lat="43.7766398" lon="12.088508"><ele>1079.0</ele><time>2026-05-02T13:39:13.32Z</time></trkpt><trkpt lat="43.7766812" lon="12.0886464"><ele>1079.0</ele><time>2026-05-02T13:39:14.32Z</time></trkpt><trkpt lat="43.7767206" lon="12.0887847"><ele>1079.5</ele><time>2026-05-02T13:39:15.319Z</time></trkpt><trkpt lat="43.7767255" lon="12.0889287"><ele>1080.0</ele><time>2026-05-02T13:39:16.322Z</time></trkpt><trkpt lat="43.7767569" lon="12.0890808"><ele>1080.5</ele><time>2026-05-02T13:39:17.32Z</time></trkpt><trkpt lat="43.7768418" lon="12.0892296"><ele>1081.0</ele><time>2026-05-02T13:39:18.321Z</time></trkpt><trkpt lat="43.7769081" lon="12.0893757"><ele>1085.25</ele><time>2026-05-02T13:39:19.319Z</time></trkpt><trkpt lat="43.7769499" lon="12.0895375"><ele>1089.5</ele><time>2026-05-02T13:39:20.322Z</time></trkpt><trkpt lat="43.7769912" lon="12.0896685"><ele>1093.75</ele><time>2026-05-02T13:39:21.321Z</time></trkpt><trkpt lat="43.7770356" lon="12.0898153"><ele>1098.0</ele><time>2026-05-02T13:39:22.321Z</time></trkpt><trkpt lat="43.777085" lon="12.0899547"><ele>1098.0</ele><time>2026-05-02T13:39:23.323Z</time></trkpt><trkpt lat="43.7771184" lon="12.0900791"><ele>1098.0</ele><time>2026-05-02T13:39:24.318Z</time></trkpt><trkpt lat="43.7771558" lon="12.0902284"><ele>1098.0</ele><time>2026-05-02T13:39:25.323Z</time></trkpt><trkpt lat="43.7771915" lon="12.0903689"><ele>1098.0</ele><time>2026-05-02T13:39:26.322Z</time></trkpt><trkpt lat="43.7772419" lon="12.0905077"><ele>1098.0</ele><time>2026-05-02T13:39:27.324Z</time></trkpt><trkpt lat="43.7772968" lon="12.0906506"><ele>1097.6</ele><time>2026-05-02T13:39:28.325Z</time></trkpt><trkpt lat="43.7773434" lon="12.0907958"><ele>1097.1999999999998</ele><time>2026-05-02T13:39:29.322Z</time></trkpt><trkpt lat="43.7773836" lon="12.0909402"><ele>1096.8</ele><time>2026-05-02T13:39:30.322Z</time></trkpt><trkpt lat="43.7774164" lon="12.0910787"><ele>1096.3999999999999</ele><time>2026-05-02T13:39:31.323Z</time></trkpt><trkpt lat="43.7774542" lon="12.0912106"><ele>1096.0</ele><time>2026-05-02T13:39:32.323Z</time></trkpt><trkpt lat="43.7774952" lon="12.0913377"><ele>1096.0</ele><time>2026-05-02T13:39:33.323Z</time></trkpt><trkpt lat="43.7775386" lon="12.091472"><ele>1096.0</ele><time>2026-05-02T13:39:34.323Z</time></trkpt><trkpt lat="43.7775683" lon="12.0916001"><ele>1096.0</ele><time>2026-05-02T13:39:35.324Z</time></trkpt><trkpt lat="43.7775973" lon="12.0917252"><ele>1096.0</ele><time>2026-05-02T13:39:36.323Z</time></trkpt><trkpt lat="43.7776134" lon="12.0918487"><ele>1096.0</ele><time>2026-05-02T13:39:37.323Z</time></trkpt><trkpt lat="43.7776345" lon="12.0919747"><ele>1095.8333333333333</ele><time>2026-05-02T13:39:38.324Z</time></trkpt><trkpt lat="43.7776592" lon="12.0920929"><ele>1095.6666666666665</ele><time>2026-05-02T13:39:39.322Z</time></trkpt><trkpt lat="43.7776829" lon="12.0921972"><ele>1095.5</ele><time>2026-05-02T13:39:40.317Z</time></trkpt><trkpt lat="43.7777165" lon="12.092288"><ele>1095.3333333333333</ele><time>2026-05-02T13:39:41.322Z</time></trkpt><trkpt lat="43.7777709" lon="12.09239"><ele>1095.1666666666667</ele><time>2026-05-02T13:39:43.323Z</time></trkpt><trkpt lat="43.7778767" lon="12.0923523"><ele>1095.0</ele><time>2026-05-02T13:39:44.327Z</time></trkpt><trkpt lat="43.7779448" lon="12.0923724"><ele>1099.0</ele><time>2026-05-02T13:39:45.32Z</time></trkpt><trkpt lat="43.7780254" lon="12.0924223"><ele>1103.0</ele><time>2026-05-02T13:39:46.323Z</time></trkpt><trkpt lat="43.7780363" lon="12.0925708"><ele>1107.0</ele><time>2026-05-02T13:39:47.323Z</time></trkpt><trkpt lat="43.7780407" lon="12.092697"><ele>1111.0</ele><time>2026-05-02T13:39:48.323Z</time></trkpt><trkpt lat="43.7780581" lon="12.0928364"><ele>1115.0</ele><time>2026-05-02T13:39:49.322Z</time></trkpt><trkpt lat="43.778073" lon="12.0929923"><ele>1115.0</ele><time>2026-05-02T13:39:50.325Z</time></trkpt><trkpt lat="43.7780958" lon="12.0931489"><ele>1115.0</ele><time>2026-05-02T13:39:51.324Z</time></trkpt><trkpt lat="43.7780968" lon="12.093304"><ele>1115.0</ele><time>2026-05-02T13:39:52.323Z</time></trkpt><trkpt lat="43.7781102" lon="12.093454"><ele>1115.0</ele><time>2026-05-02T13:39:53.323Z</time></trkpt><trkpt lat="43.7781247" lon="12.0935977"><ele>1115.0</ele><time>2026-05-02T13:39:54.323Z</time></trkpt><trkpt lat="43.7781379" lon="12.0937439"><ele>1114.2</ele><time>2026-05-02T13:39:55.322Z</time></trkpt><trkpt lat="43.7781452" lon="12.093887"><ele>1113.4</ele><time>2026-05-02T13:39:56.321Z</time></trkpt><trkpt lat="43.7781503" lon="12.0940278"><ele>1112.6</ele><time>2026-05-02T13:39:57.323Z</time></trkpt><trkpt lat="43.7781474" lon="12.0941689"><ele>1111.8</ele><time>2026-05-02T13:39:58.322Z</time></trkpt><trkpt lat="43.7781308" lon="12.0943077"><ele>1111.0</ele><time>2026-05-02T13:39:59.322Z</time></trkpt><trkpt lat="43.7781113" lon="12.0944572"><ele>1110.5</ele><time>2026-05-02T13:40:00.322Z</time></trkpt><trkpt lat="43.7780946" lon="12.0946133"><ele>1110.0</ele><time>2026-05-02T13:40:01.323Z</time></trkpt><trkpt lat="43.7780784" lon="12.0947774"><ele>1109.5</ele><time>2026-05-02T13:40:02.323Z</time></trkpt><trkpt lat="43.7780674" lon="12.0949437"><ele>1109.0</ele><time>2026-05-02T13:40:03.323Z</time></trkpt><trkpt lat="43.7780553" lon="12.0951148"><ele>1109.0</ele><time>2026-05-02T13:40:04.324Z</time></trkpt><trkpt lat="43.7780407" lon="12.0952842"><ele>1109.0</ele><time>2026-05-02T13:40:05.326Z</time></trkpt><trkpt lat="43.7780347" lon="12.0954552"><ele>1109.0</ele><time>2026-05-02T13:40:06.323Z</time></trkpt><trkpt lat="43.7780392" lon="12.0956281"><ele>1109.0</ele><time>2026-05-02T13:40:07.324Z</time></trkpt><trkpt lat="43.7780531" lon="12.0958017"><ele>1110.25</ele><time>2026-05-02T13:40:08.323Z</time></trkpt><trkpt lat="43.7780653" lon="12.0959761"><ele>1111.5</ele><time>2026-05-02T13:40:09.324Z</time></trkpt><trkpt lat="43.7780721" lon="12.0961486"><ele>1112.75</ele><time>2026-05-02T13:40:10.324Z</time></trkpt><trkpt lat="43.7780722" lon="12.096323"><ele>1114.0</ele><time>2026-05-02T13:40:11.323Z</time></trkpt><trkpt lat="43.7780608" lon="12.096493"><ele>1114.25</ele><time>2026-05-02T13:40:12.323Z</time></trkpt><trkpt lat="43.778033" lon="12.096655"><ele>1114.5</ele><time>2026-05-02T13:40:13.323Z</time></trkpt><trkpt lat="43.7780007" lon="12.0968149"><ele>1114.75</ele><time>2026-05-02T13:40:14.323Z</time></trkpt><trkpt lat="43.7779562" lon="12.0969642"><ele>1115.0</ele><time>2026-05-02T13:40:15.322Z</time></trkpt><trkpt lat="43.777908" lon="12.0971316"><ele>1115.0</ele><time>2026-05-02T13:40:16.33Z</time></trkpt><trkpt lat="43.7778812" lon="12.0973188"><ele>1115.0</ele><time>2026-05-02T13:40:17.321Z</time></trkpt><trkpt lat="43.7778838" lon="12.0975207"><ele>1115.0</ele><time>2026-05-02T13:40:18.323Z</time></trkpt><trkpt lat="43.7779208" lon="12.0977457"><ele>1114.6666666666667</ele><time>2026-05-02T13:40:19.321Z</time></trkpt><trkpt lat="43.7779737" lon="12.0979938"><ele>1114.3333333333333</ele><time>2026-05-02T13:40:20.311Z</time></trkpt><trkpt lat="43.7780258" lon="12.098248"><ele>1114.0</ele><time>2026-05-02T13:40:21.323Z</time></trkpt><trkpt lat="43.7780802" lon="12.0985205"><ele>1112.0</ele><time>2026-05-02T13:40:22.324Z</time></trkpt><trkpt lat="43.7781385" lon="12.0988026"><ele>1110.0</ele><time>2026-05-02T13:40:23.324Z</time></trkpt><trkpt lat="43.7781943" lon="12.0991007"><ele>1108.0</ele><time>2026-05-02T13:40:24.323Z</time></trkpt><trkpt lat="43.7782417" lon="12.0994068"><ele>1106.3333333333333</ele><time>2026-05-02T13:40:25.321Z</time></trkpt><trkpt lat="43.7782738" lon="12.0997001"><ele>1104.6666666666667</ele><time>2026-05-02T13:40:26.322Z</time></trkpt><trkpt lat="43.7782895" lon="12.099973"><ele>1103.0</ele><time>2026-05-02T13:40:27.323Z</time></trkpt><trkpt lat="43.7783031" lon="12.1002121"><ele>1102.25</ele><time>2026-05-02T13:40:28.321Z</time></trkpt><trkpt lat="43.778316" lon="12.1004583"><ele>1101.5</ele><time>2026-05-02T13:40:29.325Z</time></trkpt><trkpt lat="43.7783313" lon="12.1006091"><ele>1100.75</ele><time>2026-05-02T13:40:30.314Z</time></trkpt><trkpt lat="43.778342" lon="12.1007798"><ele>1100.0</ele><time>2026-05-02T13:40:31.32Z</time></trkpt><trkpt lat="43.778357" lon="12.1009359"><ele>1099.8333333333335</ele><time>2026-05-02T13:40:32.322Z</time></trkpt><trkpt lat="43.7783714" lon="12.1010859"><ele>1099.6666666666667</ele><time>2026-05-02T13:40:33.322Z</time></trkpt><trkpt lat="43.7783897" lon="12.1012169"><ele>1099.5</ele><time>2026-05-02T13:40:34.324Z</time></trkpt><trkpt lat="43.778399" lon="12.1013413"><ele>1099.3333333333333</ele><time>2026-05-02T13:40:35.325Z</time></trkpt><trkpt lat="43.7784124" lon="12.1014421"><ele>1099.1666666666665</ele><time>2026-05-02T13:40:36.323Z</time></trkpt><trkpt lat="43.7784248" lon="12.1015348"><ele>1099.0</ele><time>2026-05-02T13:40:37.324Z</time></trkpt><trkpt lat="43.7784367" lon="12.1016903"><ele>1098.0</ele><time>2026-05-02T13:40:39.325Z</time></trkpt><trkpt lat="43.7784468" lon="12.1018144"><ele>1097.0</ele><time>2026-05-02T13:40:41.323Z</time></trkpt><trkpt lat="43.7784494" lon="12.1019161"><ele>1096.0</ele><time>2026-05-02T13:40:43.325Z</time></trkpt><trkpt lat="43.7784585" lon="12.1020436"><ele>1095.0</ele><time>2026-05-02T13:40:46.325Z</time></trkpt><trkpt lat="43.7784591" lon="12.1021617"><ele>1094.0</ele><time>2026-05-02T13:40:49.321Z</time></trkpt><trkpt lat="43.778466" lon="12.1022496"><ele>1093.0</ele><time>2026-05-02T13:40:51.323Z</time></trkpt><trkpt lat="43.7784722" lon="12.1023396"><ele>1093.0</ele><time>2026-05-02T13:40:53.33Z</time></trkpt><trkpt lat="43.7784895" lon="12.1022256"><ele>1093.0</ele><time>2026-05-02T13:40:58.326Z</time></trkpt><trkpt lat="43.7784772" lon="12.1021156"><ele>1093.0</ele><time>2026-05-02T13:40:59.322Z</time></trkpt><trkpt lat="43.7784718" lon="12.101966"><ele>1093.0</ele><time>2026-05-02T13:41:00.322Z</time></trkpt><trkpt lat="43.7784488" lon="12.1017376"><ele>1093.0</ele><time>2026-05-02T13:41:01.323Z</time></trkpt><trkpt lat="43.7784339" lon="12.1015455"><ele>1094.5</ele><time>2026-05-02T13:41:02.325Z</time></trkpt><trkpt lat="43.778426" lon="12.1013512"><ele>1096.0</ele><time>2026-05-02T13:41:03.323Z</time></trkpt><trkpt lat="43.7784068" lon="12.1011432"><ele>1097.5</ele><time>2026-05-02T13:41:04.322Z</time></trkpt><trkpt lat="43.7783851" lon="12.1009294"><ele>1099.0</ele><time>2026-05-02T13:41:05.325Z</time></trkpt><trkpt lat="43.7783671" lon="12.1007021"><ele>1099.3333333333333</ele><time>2026-05-02T13:41:06.324Z</time></trkpt><trkpt lat="43.7783516" lon="12.1004673"><ele>1099.6666666666667</ele><time>2026-05-02T13:41:07.325Z</time></trkpt><trkpt lat="43.7783313" lon="12.100216"><ele>1100.0</ele><time>2026-05-02T13:41:08.324Z</time></trkpt><trkpt lat="43.778309" lon="12.0999697"><ele>1101.0</ele><time>2026-05-02T13:41:09.324Z</time></trkpt><trkpt lat="43.7782811" lon="12.0996713"><ele>1102.0</ele><time>2026-05-02T13:41:10.324Z</time></trkpt><trkpt lat="43.7782519" lon="12.0993876"><ele>1103.0</ele><time>2026-05-02T13:41:11.323Z</time></trkpt><trkpt lat="43.7782116" lon="12.0991016"><ele>1104.6666666666667</ele><time>2026-05-02T13:41:12.325Z</time></trkpt><trkpt lat="43.7781656" lon="12.0988282"><ele>1106.3333333333333</ele><time>2026-05-02T13:41:13.322Z</time></trkpt><trkpt lat="43.7781192" lon="12.098553"><ele>1108.0</ele><time>2026-05-02T13:41:14.326Z</time></trkpt><trkpt lat="43.7780663" lon="12.0983233"><ele>1110.0</ele><time>2026-05-02T13:41:15.324Z</time></trkpt><trkpt lat="43.7780156" lon="12.0980894"><ele>1112.0</ele><time>2026-05-02T13:41:16.321Z</time></trkpt><trkpt lat="43.7779684" lon="12.0978575"><ele>1114.0</ele><time>2026-05-02T13:41:17.323Z</time></trkpt><trkpt lat="43.7779214" lon="12.0976382"><ele>1114.0</ele><time>2026-05-02T13:41:18.324Z</time></trkpt><trkpt lat="43.7778975" lon="12.0974301"><ele>1114.0</ele><time>2026-05-02T13:41:19.322Z</time></trkpt><trkpt lat="43.7779105" lon="12.0972251"><ele>1114.0</ele><time>2026-05-02T13:41:20.322Z</time></trkpt><trkpt lat="43.7779502" lon="12.097025"><ele>1114.0</ele><time>2026-05-02T13:41:21.322Z</time></trkpt><trkpt lat="43.7780004" lon="12.0968113"><ele>1114.0</ele><time>2026-05-02T13:41:22.323Z</time></trkpt><trkpt lat="43.7780393" lon="12.0965965"><ele>1114.0</ele><time>2026-05-02T13:41:23.322Z</time></trkpt><trkpt lat="43.7780633" lon="12.0963795"><ele>1114.0</ele><time>2026-05-02T13:41:24.322Z</time></trkpt><trkpt lat="43.7780752" lon="12.0961672"><ele>1114.0</ele><time>2026-05-02T13:41:25.323Z</time></trkpt><trkpt lat="43.7780798" lon="12.0959534"><ele>1114.0</ele><time>2026-05-02T13:41:26.323Z</time></trkpt><trkpt lat="43.778038" lon="12.0957472"><ele>1112.75</ele><time>2026-05-02T13:41:27.322Z</time></trkpt><trkpt lat="43.7780446" lon="12.0955442"><ele>1111.5</ele><time>2026-05-02T13:41:28.322Z</time></trkpt><trkpt lat="43.7780423" lon="12.0953509"><ele>1110.25</ele><time>2026-05-02T13:41:29.323Z</time></trkpt><trkpt lat="43.778049" lon="12.0951583"><ele>1109.0</ele><time>2026-05-02T13:41:30.323Z</time></trkpt><trkpt lat="43.7780485" lon="12.0949794"><ele>1108.75</ele><time>2026-05-02T13:41:31.323Z</time></trkpt><trkpt lat="43.778084" lon="12.094799"><ele>1108.5</ele><time>2026-05-02T13:41:32.323Z</time></trkpt><trkpt lat="43.7781062" lon="12.0946257"><ele>1108.25</ele><time>2026-05-02T13:41:33.325Z</time></trkpt><trkpt lat="43.7781266" lon="12.094466"><ele>1108.0</ele><time>2026-05-02T13:41:34.322Z</time></trkpt><trkpt lat="43.7781421" lon="12.0943143"><ele>1108.0</ele><time>2026-05-02T13:41:35.325Z</time></trkpt><trkpt lat="43.77816" lon="12.0941657"><ele>1108.0</ele><time>2026-05-02T13:41:36.325Z</time></trkpt><trkpt lat="43.778127" lon="12.09398"><ele>1108.0</ele><time>2026-05-02T13:41:37.323Z</time></trkpt><trkpt lat="43.7781395" lon="12.0938184"><ele>1108.0</ele><time>2026-05-02T13:41:38.322Z</time></trkpt><trkpt lat="43.7781256" lon="12.0936657"><ele>1108.75</ele><time>2026-05-02T13:41:39.324Z</time></trkpt><trkpt lat="43.7781153" lon="12.0934873"><ele>1109.5</ele><time>2026-05-02T13:41:40.324Z</time></trkpt><trkpt lat="43.7781083" lon="12.0933149"><ele>1110.25</ele><time>2026-05-02T13:41:41.324Z</time></trkpt><trkpt lat="43.7780992" lon="12.0931574"><ele>1111.0</ele><time>2026-05-02T13:41:42.324Z</time></trkpt><trkpt lat="43.778093" lon="12.0929768"><ele>1111.8</ele><time>2026-05-02T13:41:43.325Z</time></trkpt><trkpt lat="43.7781078" lon="12.0928215"><ele>1112.6</ele><time>2026-05-02T13:41:44.322Z</time></trkpt><trkpt lat="43.7781037" lon="12.092677"><ele>1113.4</ele><time>2026-05-02T13:41:45.322Z</time></trkpt><trkpt lat="43.7781087" lon="12.0925355"><ele>1114.2</ele><time>2026-05-02T13:41:46.322Z</time></trkpt><trkpt lat="43.7781023" lon="12.0923803"><ele>1115.0</ele><time>2026-05-02T13:41:47.322Z</time></trkpt><trkpt lat="43.7780919" lon="12.0922499"><ele>1118.25</ele><time>2026-05-02T13:41:48.324Z</time></trkpt><trkpt lat="43.7780315" lon="12.0921265"><ele>1121.5</ele><time>2026-05-02T13:41:49.319Z</time></trkpt><trkpt lat="43.7779449" lon="12.0919946"><ele>1124.75</ele><time>2026-05-02T13:41:50.324Z</time></trkpt><trkpt lat="43.7778049" lon="12.0921474"><ele>1128.0</ele><time>2026-05-02T13:41:51.324Z</time></trkpt><trkpt lat="43.7777119" lon="12.0921042"><ele>1122.6666666666667</ele><time>2026-05-02T13:41:53.328Z</time></trkpt><trkpt lat="43.7776692" lon="12.0920033"><ele>1117.3333333333333</ele><time>2026-05-02T13:41:55.328Z</time></trkpt><trkpt lat="43.7776486" lon="12.0918422"><ele>1112.0</ele><time>2026-05-02T13:41:57.325Z</time></trkpt><trkpt lat="43.7776358" lon="12.0917506"><ele>1106.6666666666665</ele><time>2026-05-02T13:41:58.325Z</time></trkpt><trkpt lat="43.7776093" lon="12.0916449"><ele>1101.3333333333333</ele><time>2026-05-02T13:41:59.325Z</time></trkpt><trkpt lat="43.777593" lon="12.0915422"><ele>1096.0</ele><time>2026-05-02T13:42:00.322Z</time></trkpt><trkpt lat="43.7775591" lon="12.0914481"><ele>1096.0</ele><time>2026-05-02T13:42:01.323Z</time></trkpt><trkpt lat="43.7775295" lon="12.0913684"><ele>1096.0</ele><time>2026-05-02T13:42:02.324Z</time></trkpt><trkpt lat="43.7775161" lon="12.09128"><ele>1096.0</ele><time>2026-05-02T13:42:03.323Z</time></trkpt><trkpt lat="43.7775477" lon="12.0911279"><ele>1096.0</ele><time>2026-05-02T13:42:04.322Z</time></trkpt><trkpt lat="43.7775466" lon="12.0909854"><ele>1096.0</ele><time>2026-05-02T13:42:05.319Z</time></trkpt><trkpt lat="43.7775548" lon="12.090838"><ele>1096.3999999999999</ele><time>2026-05-02T13:42:06.323Z</time></trkpt><trkpt lat="43.7775769" lon="12.0907279"><ele>1096.8</ele><time>2026-05-02T13:42:07.323Z</time></trkpt><trkpt lat="43.7776044" lon="12.0905839"><ele>1097.1999999999998</ele><time>2026-05-02T13:42:08.323Z</time></trkpt><trkpt lat="43.7776389" lon="12.0904736"><ele>1097.6</ele><time>2026-05-02T13:42:09.322Z</time></trkpt><trkpt lat="43.7777108" lon="12.0904014"><ele>1098.0</ele><time>2026-05-02T13:42:10.32Z</time></trkpt><trkpt lat="43.7777561" lon="12.0903028"><ele>1101.6666666666667</ele><time>2026-05-02T13:42:11.323Z</time></trkpt><trkpt lat="43.7778259" lon="12.0902152"><ele>1105.3333333333333</ele><time>2026-05-02T13:42:12.323Z</time></trkpt><trkpt lat="43.7779077" lon="12.090153"><ele>1109.0</ele><time>2026-05-02T13:42:13.322Z</time></trkpt><trkpt lat="43.7779631" lon="12.0900811"><ele>1112.6666666666665</ele><time>2026-05-02T13:42:14.323Z</time></trkpt><trkpt lat="43.7780326" lon="12.0900265"><ele>1116.3333333333333</ele><time>2026-05-02T13:42:15.324Z</time></trkpt><trkpt lat="43.7781082" lon="12.0899696"><ele>1120.0</ele><time>2026-05-02T13:42:16.324Z</time></trkpt><trkpt lat="43.7781563" lon="12.0899024"><ele>1120.0</ele><time>2026-05-02T13:42:17.324Z</time></trkpt><trkpt lat="43.7781784" lon="12.0898091"><ele>1120.0</ele><time>2026-05-02T13:42:18.323Z</time></trkpt><trkpt lat="43.7781651" lon="12.0896757"><ele>1120.0</ele><time>2026-05-02T13:42:19.322Z</time></trkpt><trkpt lat="43.7781695" lon="12.0895464"><ele>1120.0</ele><time>2026-05-02T13:42:20.322Z</time></trkpt><trkpt lat="43.7780886" lon="12.0893589"><ele>1120.0</ele><time>2026-05-02T13:42:21.318Z</time></trkpt><trkpt lat="43.7780634" lon="12.0892166"><ele>1118.6</ele><time>2026-05-02T13:42:22.325Z</time></trkpt><trkpt lat="43.7780266" lon="12.0890654"><ele>1117.2</ele><time>2026-05-02T13:42:23.316Z</time></trkpt><trkpt lat="43.7779948" lon="12.0889048"><ele>1115.8</ele><time>2026-05-02T13:42:24.323Z</time></trkpt><trkpt lat="43.7779918" lon="12.088753"><ele>1114.4</ele><time>2026-05-02T13:42:25.325Z</time></trkpt><trkpt lat="43.7779787" lon="12.08861"><ele>1113.0</ele><time>2026-05-02T13:42:26.319Z</time></trkpt><trkpt lat="43.7781667" lon="12.0886135"><ele>1113.0</ele><time>2026-05-02T13:42:27.324Z</time></trkpt><trkpt lat="43.7782641" lon="12.0885544"><ele>1113.0</ele><time>2026-05-02T13:42:28.325Z</time></trkpt><trkpt lat="43.7783879" lon="12.0884834"><ele>1113.0</ele><time>2026-05-02T13:42:29.325Z</time></trkpt><trkpt lat="43.7785073" lon="12.0884108"><ele>1113.0</ele><time>2026-05-02T13:42:30.324Z</time></trkpt><trkpt lat="43.7786163" lon="12.0883249"><ele>1120.25</ele><time>2026-05-02T13:42:31.325Z</time></trkpt><trkpt lat="43.7787204" lon="12.0882063"><ele>1127.5</ele><time>2026-05-02T13:42:32.324Z</time></trkpt><trkpt lat="43.7787885" lon="12.0880383"><ele>1134.75</ele><time>2026-05-02T13:42:33.324Z</time></trkpt><trkpt lat="43.7788499" lon="12.0878362"><ele>1142.0</ele><time>2026-05-02T13:42:34.324Z</time></trkpt><trkpt lat="43.7789039" lon="12.0875994"><ele>1140.3333333333335</ele><time>2026-05-02T13:42:35.323Z</time></trkpt><trkpt lat="43.7789555" lon="12.0873498"><ele>1138.6666666666667</ele><time>2026-05-02T13:42:36.324Z</time></trkpt><trkpt lat="43.7790188" lon="12.0870972"><ele>1137.0</ele><time>2026-05-02T13:42:37.321Z</time></trkpt><trkpt lat="43.7790695" lon="12.0868268"><ele>1137.0</ele><time>2026-05-02T13:42:38.326Z</time></trkpt><trkpt lat="43.7791078" lon="12.0866101"><ele>1137.0</ele><time>2026-05-02T13:42:39.324Z</time></trkpt><trkpt lat="43.7791529" lon="12.0863841"><ele>1137.0</ele><time>2026-05-02T13:42:40.325Z</time></trkpt><trkpt lat="43.7791964" lon="12.0861847"><ele>1135.0</ele><time>2026-05-02T13:42:41.325Z</time></trkpt><trkpt lat="43.7792399" lon="12.0859776"><ele>1133.0</ele><time>2026-05-02T13:42:42.323Z</time></trkpt><trkpt lat="43.7792941" lon="12.0857785"><ele>1131.0</ele><time>2026-05-02T13:42:43.325Z</time></trkpt><trkpt lat="43.7793489" lon="12.0855846"><ele>1143.0</ele><time>2026-05-02T13:42:44.329Z</time></trkpt><trkpt lat="43.7794124" lon="12.0853921"><ele>1155.0</ele><time>2026-05-02T13:42:45.324Z</time></trkpt><trkpt lat="43.7794889" lon="12.0852275"><ele>1167.0</ele><time>2026-05-02T13:42:46.324Z</time></trkpt><trkpt lat="43.7796261" lon="12.0851019"><ele>1167.0</ele><time>2026-05-02T13:42:47.324Z</time></trkpt><trkpt lat="43.7797254" lon="12.084951"><ele>1167.0</ele><time>2026-05-02T13:42:48.326Z</time></trkpt><trkpt lat="43.7798499" lon="12.0848099"><ele>1167.0</ele><time>2026-05-02T13:42:49.325Z</time></trkpt><trkpt lat="43.7799608" lon="12.0846562"><ele>1166.6666666666667</ele><time>2026-05-02T13:42:50.327Z</time></trkpt><trkpt lat="43.7800701" lon="12.0845093"><ele>1166.3333333333335</ele><time>2026-05-02T13:42:51.324Z</time></trkpt><trkpt lat="43.7801411" lon="12.0843241"><ele>1166.0</ele><time>2026-05-02T13:42:52.324Z</time></trkpt><trkpt lat="43.7802305" lon="12.084153"><ele>1164.25</ele><time>2026-05-02T13:42:53.327Z</time></trkpt><trkpt lat="43.7803019" lon="12.0839878"><ele>1162.5</ele><time>2026-05-02T13:42:54.325Z</time></trkpt><trkpt lat="43.7803671" lon="12.0838506"><ele>1160.75</ele><time>2026-05-02T13:42:55.324Z</time></trkpt><trkpt lat="43.7804537" lon="12.0837078"><ele>1159.0</ele><time>2026-05-02T13:42:56.324Z</time></trkpt><trkpt lat="43.7805278" lon="12.0835914"><ele>1159.0</ele><time>2026-05-02T13:42:57.324Z</time></trkpt><trkpt lat="43.7806134" lon="12.0834818"><ele>1159.0</ele><time>2026-05-02T13:42:58.323Z</time></trkpt><trkpt lat="43.7807036" lon="12.0834911"><ele>1159.0</ele><time>2026-05-02T13:42:59.323Z</time></trkpt><trkpt lat="43.7807877" lon="12.0834225"><ele>1159.0</ele><time>2026-05-02T13:43:00.325Z</time></trkpt><trkpt lat="43.7807975" lon="12.083334"><ele>1159.0</ele><time>2026-05-02T13:43:01.324Z</time></trkpt><trkpt lat="43.7808144" lon="12.0832159"><ele>1159.25</ele><time>2026-05-02T13:43:02.322Z</time></trkpt><trkpt lat="43.7808022" lon="12.0830858"><ele>1159.5</ele><time>2026-05-02T13:43:03.324Z</time></trkpt><trkpt lat="43.7806992" lon="12.0829"><ele>1159.75</ele><time>2026-05-02T13:43:04.322Z</time></trkpt><trkpt lat="43.7806612" lon="12.0827693"><ele>1160.0</ele><time>2026-05-02T13:43:05.323Z</time></trkpt><trkpt lat="43.7806064" lon="12.0826348"><ele>1160.0</ele><time>2026-05-02T13:43:06.322Z</time></trkpt><trkpt lat="43.7805616" lon="12.0824893"><ele>1160.0</ele><time>2026-05-02T13:43:07.322Z</time></trkpt><trkpt lat="43.7805447" lon="12.0823926"><ele>1160.0</ele><time>2026-05-02T13:43:08.323Z</time></trkpt><trkpt lat="43.7805303" lon="12.0822811"><ele>1160.0</ele><time>2026-05-02T13:43:09.322Z</time></trkpt><trkpt lat="43.7805674" lon="12.0821935"><ele>1160.0</ele><time>2026-05-02T13:43:10.323Z</time></trkpt><trkpt lat="43.7807021" lon="12.0822246"><ele>1161.25</ele><time>2026-05-02T13:43:11.321Z</time></trkpt><trkpt lat="43.7807972" lon="12.0822539"><ele>1162.5</ele><time>2026-05-02T13:43:12.323Z</time></trkpt><trkpt lat="43.7809131" lon="12.082284"><ele>1163.75</ele><time>2026-05-02T13:43:13.324Z</time></trkpt><trkpt lat="43.7810341" lon="12.0823379"><ele>1165.0</ele><time>2026-05-02T13:43:14.322Z</time></trkpt><trkpt lat="43.7811632" lon="12.0823985"><ele>1166.0</ele><time>2026-05-02T13:43:15.322Z</time></trkpt><trkpt lat="43.7812943" lon="12.0824511"><ele>1167.0</ele><time>2026-05-02T13:43:16.323Z</time></trkpt><trkpt lat="43.7814142" lon="12.0824865"><ele>1168.0</ele><time>2026-05-02T13:43:17.322Z</time></trkpt><trkpt lat="43.7815243" lon="12.08255"><ele>1169.0</ele><time>2026-05-02T13:43:18.322Z</time></trkpt><trkpt lat="43.7816346" lon="12.0825759"><ele>1169.0</ele><time>2026-05-02T13:43:19.322Z</time></trkpt><trkpt lat="43.7817192" lon="12.0825275"><ele>1169.0</ele><time>2026-05-02T13:43:20.322Z</time></trkpt><trkpt lat="43.7818135" lon="12.0824473"><ele>1169.0</ele><time>2026-05-02T13:43:21.322Z</time></trkpt><trkpt lat="43.7819122" lon="12.0823665"><ele>1169.0</ele><time>2026-05-02T13:43:22.323Z</time></trkpt><trkpt lat="43.7820264" lon="12.0822647"><ele>1171.5</ele><time>2026-05-02T13:43:23.324Z</time></trkpt><trkpt lat="43.7821386" lon="12.0821764"><ele>1174.0</ele><time>2026-05-02T13:43:24.323Z</time></trkpt><trkpt lat="43.7822479" lon="12.0820789"><ele>1176.5</ele><time>2026-05-02T13:43:25.321Z</time></trkpt><trkpt lat="43.782354" lon="12.0820434"><ele>1179.0</ele><time>2026-05-02T13:43:26.324Z</time></trkpt><trkpt lat="43.7824651" lon="12.0820185"><ele>1179.0</ele><time>2026-05-02T13:43:27.323Z</time></trkpt><trkpt lat="43.7825901" lon="12.0820817"><ele>1179.0</ele><time>2026-05-02T13:43:28.321Z</time></trkpt><trkpt lat="43.7827374" lon="12.0821508"><ele>1179.0</ele><time>2026-05-02T13:43:29.324Z</time></trkpt><trkpt lat="43.7829173" lon="12.0822412"><ele>1181.3333333333333</ele><time>2026-05-02T13:43:30.321Z</time></trkpt><trkpt lat="43.7830597" lon="12.0823198"><ele>1183.6666666666665</ele><time>2026-05-02T13:43:31.321Z</time></trkpt><trkpt lat="43.7832062" lon="12.0823513"><ele>1186.0</ele><time>2026-05-02T13:43:32.319Z</time></trkpt><trkpt lat="43.7833602" lon="12.0823408"><ele>1186.0</ele><time>2026-05-02T13:43:33.321Z</time></trkpt><trkpt lat="43.7835057" lon="12.0823105"><ele>1186.0</ele><time>2026-05-02T13:43:34.323Z</time></trkpt><trkpt lat="43.7836356" lon="12.0822235"><ele>1186.0</ele><time>2026-05-02T13:43:35.322Z</time></trkpt><trkpt lat="43.7837513" lon="12.0822164"><ele>1186.0</ele><time>2026-05-02T13:43:36.323Z</time></trkpt><trkpt lat="43.7838677" lon="12.0822714"><ele>1186.0</ele><time>2026-05-02T13:43:37.323Z</time></trkpt><trkpt lat="43.7839899" lon="12.0823286"><ele>1186.0</ele><time>2026-05-02T13:43:38.322Z</time></trkpt><trkpt lat="43.7841125" lon="12.0823733"><ele>1186.0</ele><time>2026-05-02T13:43:39.323Z</time></trkpt><trkpt lat="43.7842166" lon="12.0823885"><ele>1186.0</ele><time>2026-05-02T13:43:40.32Z</time></trkpt><trkpt lat="43.7843418" lon="12.0822917"><ele>1188.3333333333333</ele><time>2026-05-02T13:43:41.322Z</time></trkpt><trkpt lat="43.7844926" lon="12.0821534"><ele>1190.6666666666667</ele><time>2026-05-02T13:43:42.321Z</time></trkpt><trkpt lat="43.784655" lon="12.0818596"><ele>1193.0</ele><time>2026-05-02T13:43:43.325Z</time></trkpt><trkpt lat="43.784775" lon="12.0816983"><ele>1194.6666666666667</ele><time>2026-05-02T13:43:44.323Z</time></trkpt><trkpt lat="43.7849013" lon="12.0815217"><ele>1196.3333333333333</ele><time>2026-05-02T13:43:45.323Z</time></trkpt><trkpt lat="43.785016" lon="12.0813453"><ele>1198.0</ele><time>2026-05-02T13:43:46.323Z</time></trkpt><trkpt lat="43.785129" lon="12.0811574"><ele>1201.6666666666665</ele><time>2026-05-02T13:43:47.323Z</time></trkpt><trkpt lat="43.7852437" lon="12.0809664"><ele>1205.3333333333333</ele><time>2026-05-02T13:43:48.318Z</time></trkpt><trkpt lat="43.7853623" lon="12.0807851"><ele>1209.0</ele><time>2026-05-02T13:43:49.323Z</time></trkpt><trkpt lat="43.7854739" lon="12.0805997"><ele>1209.6666666666667</ele><time>2026-05-02T13:43:50.322Z</time></trkpt><trkpt lat="43.7855776" lon="12.0804209"><ele>1210.3333333333335</ele><time>2026-05-02T13:43:51.322Z</time></trkpt><trkpt lat="43.785672" lon="12.0802339"><ele>1211.0</ele><time>2026-05-02T13:43:52.323Z</time></trkpt><trkpt lat="43.7857521" lon="12.0800354"><ele>1212.6</ele><time>2026-05-02T13:43:53.323Z</time></trkpt><trkpt lat="43.7858015" lon="12.0799045"><ele>1214.1999999999998</ele><time>2026-05-02T13:43:54.323Z</time></trkpt><trkpt lat="43.7858694" lon="12.0797498"><ele>1215.8000000000002</ele><time>2026-05-02T13:43:55.324Z</time></trkpt><trkpt lat="43.7859397" lon="12.079675"><ele>1217.4</ele><time>2026-05-02T13:43:56.322Z</time></trkpt><trkpt lat="43.7859955" lon="12.0795709"><ele>1219.0</ele><time>2026-05-02T13:43:57.324Z</time></trkpt><trkpt lat="43.7860227" lon="12.0794743"><ele>1230.0</ele><time>2026-05-02T13:43:58.322Z</time></trkpt><trkpt lat="43.7860326" lon="12.0793819"><ele>1230.0</ele><time>2026-05-02T13:43:59.323Z</time></trkpt><trkpt lat="43.7860673" lon="12.079283"><ele>1230.0</ele><time>2026-05-02T13:44:04.316Z</time></trkpt><trkpt lat="43.7861047" lon="12.0791939"><ele>1230.0</ele><time>2026-05-02T13:44:07.323Z</time></trkpt><trkpt lat="43.7860556" lon="12.079138"><ele>1230.0</ele><time>2026-05-02T13:44:13.321Z</time></trkpt><trkpt lat="43.7860288" lon="12.0792231"><ele>1230.0</ele><time>2026-05-02T13:44:15.317Z</time></trkpt><trkpt lat="43.7860791" lon="12.0792896"><ele>1230.0</ele><time>2026-05-02T13:44:21.321Z</time></trkpt></trkseg><trkseg><trkpt lat="43.7860561" lon="12.0792921"><ele>1228.1666666666667</ele><time>2026-05-02T13:56:37.323Z</time></trkpt><trkpt lat="43.7859964" lon="12.079339"><ele>1226.3333333333333</ele><time>2026-05-02T13:56:39.321Z</time></trkpt><trkpt lat="43.7859271" lon="12.0793498"><ele>1224.5</ele><time>2026-05-02T13:57:27.323Z</time></trkpt><trkpt lat="43.7858375" lon="12.0792621"><ele>1222.6666666666665</ele><time>2026-05-02T13:57:29.322Z</time></trkpt><trkpt lat="43.7857688" lon="12.0792254"><ele>1220.8333333333333</ele><time>2026-05-02T13:57:30.333Z</time></trkpt><trkpt lat="43.785711" lon="12.0791839"><ele>1219.0</ele><time>2026-05-02T13:57:31.323Z</time></trkpt><trkpt lat="43.785621" lon="12.079131"><ele>1219.0</ele><time>2026-05-02T13:57:33.323Z</time></trkpt><trkpt lat="43.7855336" lon="12.0791043"><ele>1219.0</ele><time>2026-05-02T13:57:35.32Z</time></trkpt><trkpt lat="43.7854432" lon="12.0790771"><ele>1219.0</ele><time>2026-05-02T13:57:37.314Z</time></trkpt><trkpt lat="43.7853741" lon="12.0790704"><ele>1219.0</ele><time>2026-05-02T13:57:38.324Z</time></trkpt><trkpt lat="43.785273" lon="12.0791059"><ele>1219.0</ele><time>2026-05-02T13:57:39.337Z</time></trkpt><trkpt lat="43.7851408" lon="12.0791653"><ele>1221.0</ele><time>2026-05-02T13:57:40.322Z</time></trkpt><trkpt lat="43.7850348" lon="12.0792381"><ele>1223.0</ele><time>2026-05-02T13:57:41.324Z</time></trkpt><trkpt lat="43.7849362" lon="12.0792956"><ele>1225.0</ele><time>2026-05-02T13:57:42.324Z</time></trkpt><trkpt lat="43.7848188" lon="12.0793222"><ele>1227.0</ele><time>2026-05-02T13:57:43.323Z</time></trkpt><trkpt lat="43.7847199" lon="12.0793235"><ele>1229.0</ele><time>2026-05-02T13:57:44.323Z</time></trkpt><trkpt lat="43.7846296" lon="12.0793141"><ele>1229.0</ele><time>2026-05-02T13:57:45.324Z</time></trkpt><trkpt lat="43.7845562" lon="12.0792532"><ele>1229.0</ele><time>2026-05-02T13:57:46.327Z</time></trkpt><trkpt lat="43.7845062" lon="12.0791518"><ele>1229.0</ele><time>2026-05-02T13:57:47.323Z</time></trkpt><trkpt lat="43.7844585" lon="12.079074"><ele>1229.0</ele><time>2026-05-02T13:57:48.323Z</time></trkpt><trkpt lat="43.784415" lon="12.0789195"><ele>1229.0</ele><time>2026-05-02T13:57:49.325Z</time></trkpt><trkpt lat="43.7843669" lon="12.0787961"><ele>1230.0</ele><time>2026-05-02T13:57:50.323Z</time></trkpt><trkpt lat="43.7843305" lon="12.0786489"><ele>1231.0</ele><time>2026-05-02T13:57:51.32Z</time></trkpt><trkpt lat="43.7842875" lon="12.0785205"><ele>1232.0</ele><time>2026-05-02T13:57:52.319Z</time></trkpt><trkpt lat="43.784239" lon="12.0783818"><ele>1233.0</ele><time>2026-05-02T13:57:53.32Z</time></trkpt><trkpt lat="43.7842037" lon="12.07824"><ele>1234.0</ele><time>2026-05-02T13:57:54.325Z</time></trkpt><trkpt lat="43.7841739" lon="12.0781225"><ele>1235.0</ele><time>2026-05-02T13:57:55.323Z</time></trkpt><trkpt lat="43.7841648" lon="12.0780133"><ele>1236.0</ele><time>2026-05-02T13:57:56.322Z</time></trkpt><trkpt lat="43.7841647" lon="12.0778962"><ele>1237.0</ele><time>2026-05-02T13:57:57.325Z</time></trkpt><trkpt lat="43.7841878" lon="12.0777808"><ele>1238.0</ele><time>2026-05-02T13:57:58.325Z</time></trkpt><trkpt lat="43.7842605" lon="12.0775983"><ele>1239.0</ele><time>2026-05-02T13:57:59.324Z</time></trkpt><trkpt lat="43.7843988" lon="12.0773937"><ele>1246.75</ele><time>2026-05-02T13:58:00.325Z</time></trkpt><trkpt lat="43.7844554" lon="12.0772569"><ele>1254.5</ele><time>2026-05-02T13:58:01.324Z</time></trkpt><trkpt lat="43.7844928" lon="12.0771161"><ele>1262.25</ele><time>2026-05-02T13:58:02.325Z</time></trkpt><trkpt lat="43.784506" lon="12.0769433"><ele>1270.0</ele><time>2026-05-02T13:58:03.325Z</time></trkpt><trkpt lat="43.7844967" lon="12.0767634"><ele>1270.8</ele><time>2026-05-02T13:58:04.324Z</time></trkpt><trkpt lat="43.7844855" lon="12.0765913"><ele>1271.6</ele><time>2026-05-02T13:58:05.324Z</time></trkpt><trkpt lat="43.7844192" lon="12.076513"><ele>1272.4</ele><time>2026-05-02T13:58:06.326Z</time></trkpt><trkpt lat="43.784339" lon="12.0764534"><ele>1273.2</ele><time>2026-05-02T13:58:07.321Z</time></trkpt><trkpt lat="43.7842497" lon="12.0764016"><ele>1274.0</ele><time>2026-05-02T13:58:08.32Z</time></trkpt><trkpt lat="43.78415" lon="12.0763897"><ele>1274.0</ele><time>2026-05-02T13:58:09.32Z</time></trkpt><trkpt lat="43.7840417" lon="12.0763633"><ele>1274.0</ele><time>2026-05-02T13:58:10.322Z</time></trkpt><trkpt lat="43.7839537" lon="12.0762964"><ele>1274.0</ele><time>2026-05-02T13:58:11.323Z</time></trkpt><trkpt lat="43.7838722" lon="12.0762452"><ele>1274.0</ele><time>2026-05-02T13:58:12.324Z</time></trkpt><trkpt lat="43.7838625" lon="12.0760975"><ele>1274.0</ele><time>2026-05-02T13:58:14.323Z</time></trkpt><trkpt lat="43.7839762" lon="12.0760536"><ele>1274.0</ele><time>2026-05-02T13:58:16.327Z</time></trkpt><trkpt lat="43.7840592" lon="12.0761113"><ele>1274.0</ele><time>2026-05-02T13:58:17.328Z</time></trkpt><trkpt lat="43.7841522" lon="12.0761672"><ele>1274.0</ele><time>2026-05-02T13:58:18.326Z</time></trkpt><trkpt lat="43.7842428" lon="12.076161"><ele>1274.0</ele><time>2026-05-02T13:58:19.323Z</time></trkpt><trkpt lat="43.7843231" lon="12.0761773"><ele>1274.0</ele><time>2026-05-02T13:58:20.324Z</time></trkpt><trkpt lat="43.7844192" lon="12.076076"><ele>1275.8000000000002</ele><time>2026-05-02T13:58:21.323Z</time></trkpt><trkpt lat="43.7844969" lon="12.076037"><ele>1277.6000000000001</ele><time>2026-05-02T13:58:22.325Z</time></trkpt><trkpt lat="43.7845791" lon="12.0760133"><ele>1279.4</ele><time>2026-05-02T13:58:23.321Z</time></trkpt><trkpt lat="43.7846588" lon="12.0759791"><ele>1281.2</ele><time>2026-05-02T13:58:24.32Z</time></trkpt><trkpt lat="43.7847446" lon="12.0759978"><ele>1283.0</ele><time>2026-05-02T13:58:25.315Z</time></trkpt><trkpt lat="43.7848648" lon="12.0761359"><ele>1283.0</ele><time>2026-05-02T13:58:26.325Z</time></trkpt><trkpt lat="43.7849554" lon="12.0762148"><ele>1283.0</ele><time>2026-05-02T13:58:27.323Z</time></trkpt><trkpt lat="43.7850697" lon="12.0763341"><ele>1283.0</ele><time>2026-05-02T13:58:28.323Z</time></trkpt><trkpt lat="43.7852073" lon="12.0764113"><ele>1283.0</ele><time>2026-05-02T13:58:29.322Z</time></trkpt><trkpt lat="43.7852954" lon="12.0765028"><ele>1282.25</ele><time>2026-05-02T13:58:30.324Z</time></trkpt><trkpt lat="43.7853762" lon="12.0764867"><ele>1281.5</ele><time>2026-05-02T13:58:31.322Z</time></trkpt><trkpt lat="43.7854253" lon="12.0764106"><ele>1280.75</ele><time>2026-05-02T13:58:32.323Z</time></trkpt><trkpt lat="43.7855563" lon="12.0762007"><ele>1280.0</ele><time>2026-05-02T13:58:33.323Z</time></trkpt><trkpt lat="43.7856487" lon="12.0760625"><ele>1280.0</ele><time>2026-05-02T13:58:34.324Z</time></trkpt><trkpt lat="43.7857387" lon="12.0759246"><ele>1280.0</ele><time>2026-05-02T13:58:35.324Z</time></trkpt><trkpt lat="43.7858104" lon="12.0757904"><ele>1280.0</ele><time>2026-05-02T13:58:36.324Z</time></trkpt><trkpt lat="43.7858766" lon="12.0756324"><ele>1280.0</ele><time>2026-05-02T13:58:37.323Z</time></trkpt><trkpt lat="43.7859259" lon="12.0754787"><ele>1282.25</ele><time>2026-05-02T13:58:38.324Z</time></trkpt><trkpt lat="43.7859205" lon="12.0753446"><ele>1284.5</ele><time>2026-05-02T13:58:39.323Z</time></trkpt><trkpt lat="43.7859314" lon="12.0751891"><ele>1286.75</ele><time>2026-05-02T13:58:40.32Z</time></trkpt><trkpt lat="43.7859057" lon="12.0750722"><ele>1289.0</ele><time>2026-05-02T13:58:41.323Z</time></trkpt><trkpt lat="43.7857519" lon="12.0749577"><ele>1291.0</ele><time>2026-05-02T13:58:42.323Z</time></trkpt><trkpt lat="43.785703" lon="12.0748254"><ele>1293.0</ele><time>2026-05-02T13:58:43.324Z</time></trkpt><trkpt lat="43.7856608" lon="12.0746964"><ele>1295.0</ele><time>2026-05-02T13:58:44.324Z</time></trkpt><trkpt lat="43.7856386" lon="12.0745595"><ele>1297.0</ele><time>2026-05-02T13:58:45.323Z</time></trkpt><trkpt lat="43.7856689" lon="12.0744431"><ele>1299.0</ele><time>2026-05-02T13:58:46.321Z</time></trkpt><trkpt lat="43.7856425" lon="12.0743182"><ele>1299.0</ele><time>2026-05-02T13:58:47.324Z</time></trkpt><trkpt lat="43.7855773" lon="12.0742181"><ele>1299.0</ele><time>2026-05-02T13:58:48.323Z</time></trkpt><trkpt lat="43.7855293" lon="12.0741116"><ele>1299.0</ele><time>2026-05-02T13:58:49.329Z</time></trkpt><trkpt lat="43.7855135" lon="12.0740127"><ele>1299.0</ele><time>2026-05-02T13:58:50.324Z</time></trkpt><trkpt lat="43.7855177" lon="12.073862"><ele>1299.0</ele><time>2026-05-02T13:58:51.322Z</time></trkpt><trkpt lat="43.7856072" lon="12.0736823"><ele>1305.3333333333333</ele><time>2026-05-02T13:58:52.324Z</time></trkpt><trkpt lat="43.7856842" lon="12.0735138"><ele>1311.6666666666665</ele><time>2026-05-02T13:58:53.323Z</time></trkpt><trkpt lat="43.785783" lon="12.0733676"><ele>1318.0</ele><time>2026-05-02T13:58:54.324Z</time></trkpt><trkpt lat="43.7859823" lon="12.0731591"><ele>1320.6666666666665</ele><time>2026-05-02T13:58:55.322Z</time></trkpt><trkpt lat="43.7861615" lon="12.0730094"><ele>1323.3333333333333</ele><time>2026-05-02T13:58:56.324Z</time></trkpt><trkpt lat="43.7862968" lon="12.0728657"><ele>1326.0</ele><time>2026-05-02T13:58:57.32Z</time></trkpt><trkpt lat="43.7864277" lon="12.0727029"><ele>1326.0</ele><time>2026-05-02T13:58:58.322Z</time></trkpt><trkpt lat="43.7865346" lon="12.0725109"><ele>1326.0</ele><time>2026-05-02T13:58:59.325Z</time></trkpt><trkpt lat="43.7866354" lon="12.0723331"><ele>1326.0</ele><time>2026-05-02T13:59:00.323Z</time></trkpt><trkpt lat="43.7867553" lon="12.0721594"><ele>1333.3333333333333</ele><time>2026-05-02T13:59:01.321Z</time></trkpt><trkpt lat="43.7868717" lon="12.0720069"><ele>1340.6666666666665</ele><time>2026-05-02T13:59:02.322Z</time></trkpt><trkpt lat="43.7870136" lon="12.0718796"><ele>1348.0</ele><time>2026-05-02T13:59:03.319Z</time></trkpt><trkpt lat="43.7871615" lon="12.071806"><ele>1348.0</ele><time>2026-05-02T13:59:04.322Z</time></trkpt><trkpt lat="43.7873023" lon="12.0717396"><ele>1348.0</ele><time>2026-05-02T13:59:05.321Z</time></trkpt><trkpt lat="43.7874243" lon="12.0716784"><ele>1348.0</ele><time>2026-05-02T13:59:06.322Z</time></trkpt><trkpt lat="43.7875328" lon="12.071673"><ele>1348.0</ele><time>2026-05-02T13:59:07.322Z</time></trkpt><trkpt lat="43.7876341" lon="12.0717336"><ele>1348.0</ele><time>2026-05-02T13:59:08.321Z</time></trkpt><trkpt lat="43.7876654" lon="12.071945"><ele>1348.0</ele><time>2026-05-02T13:59:09.321Z</time></trkpt><trkpt lat="43.787735" lon="12.0720559"><ele>1348.0</ele><time>2026-05-02T13:59:10.321Z</time></trkpt><trkpt lat="43.7878144" lon="12.0721308"><ele>1348.0</ele><time>2026-05-02T13:59:11.323Z</time></trkpt><trkpt lat="43.7878962" lon="12.0721249"><ele>1348.0</ele><time>2026-05-02T13:59:12.319Z</time></trkpt><trkpt lat="43.7880198" lon="12.0720407"><ele>1350.6666666666665</ele><time>2026-05-02T13:59:13.319Z</time></trkpt><trkpt lat="43.7881325" lon="12.0720121"><ele>1353.3333333333333</ele><time>2026-05-02T13:59:14.32Z</time></trkpt><trkpt lat="43.788337" lon="12.0719255"><ele>1356.0</ele><time>2026-05-02T13:59:15.323Z</time></trkpt><trkpt lat="43.7885316" lon="12.0718368"><ele>1356.6666666666667</ele><time>2026-05-02T13:59:16.323Z</time></trkpt><trkpt lat="43.7887064" lon="12.0717476"><ele>1357.3333333333335</ele><time>2026-05-02T13:59:17.322Z</time></trkpt><trkpt lat="43.7888937" lon="12.0716908"><ele>1358.0</ele><time>2026-05-02T13:59:18.32Z</time></trkpt><trkpt lat="43.78902" lon="12.0717048"><ele>1358.0</ele><time>2026-05-02T13:59:19.323Z</time></trkpt><trkpt lat="43.7891565" lon="12.0717117"><ele>1358.0</ele><time>2026-05-02T13:59:20.32Z</time></trkpt><trkpt lat="43.7892768" lon="12.0717465"><ele>1358.0</ele><time>2026-05-02T13:59:21.321Z</time></trkpt><trkpt lat="43.7893443" lon="12.0718413"><ele>1358.0</ele><time>2026-05-02T13:59:22.322Z</time></trkpt><trkpt lat="43.7894189" lon="12.0719193"><ele>1358.0</ele><time>2026-05-02T13:59:23.32Z</time></trkpt><trkpt lat="43.7894876" lon="12.0719742"><ele>1358.6666666666667</ele><time>2026-05-02T13:59:24.321Z</time></trkpt><trkpt lat="43.7895401" lon="12.072035"><ele>1359.3333333333335</ele><time>2026-05-02T13:59:25.323Z</time></trkpt><trkpt lat="43.7896236" lon="12.0721574"><ele>1360.0</ele><time>2026-05-02T13:59:27.323Z</time></trkpt><trkpt lat="43.7896674" lon="12.0722484"><ele>1360.6666666666667</ele><time>2026-05-02T13:59:29.319Z</time></trkpt><trkpt lat="43.7897123" lon="12.0723279"><ele>1361.3333333333333</ele><time>2026-05-02T13:59:32.327Z</time></trkpt><trkpt lat="43.7897815" lon="12.0723616"><ele>1362.0</ele><time>2026-05-02T13:59:36.324Z</time></trkpt><trkpt lat="43.789811" lon="12.0722697"><ele>1362.0</ele><time>2026-05-02T13:59:40.34Z</time></trkpt><trkpt lat="43.789783" lon="12.0721855"><ele>1362.0</ele><time>2026-05-02T13:59:56.325Z</time></trkpt><trkpt lat="43.7897306" lon="12.0722411"><ele>1362.0</ele><time>2026-05-02T14:02:47.32Z</time></trkpt><trkpt lat="43.7896783" lon="12.0721702"><ele>1362.0</ele><time>2026-05-02T14:02:51.321Z</time></trkpt><trkpt lat="43.7896016" lon="12.0720402"><ele>1362.0</ele><time>2026-05-02T14:02:54.322Z</time></trkpt><trkpt lat="43.7895199" lon="12.0719581"><ele>1362.0</ele><time>2026-05-02T14:02:56.322Z</time></trkpt><trkpt lat="43.7894331" lon="12.0718796"><ele>1362.0</ele><time>2026-05-02T14:02:58.324Z</time></trkpt><trkpt lat="43.7893533" lon="12.0717709"><ele>1362.0</ele><time>2026-05-02T14:03:00.326Z</time></trkpt><trkpt lat="43.7892508" lon="12.0716988"><ele>1362.0</ele><time>2026-05-02T14:03:02.335Z</time></trkpt><trkpt lat="43.7891606" lon="12.0716722"><ele>1362.0</ele><time>2026-05-02T14:03:04.322Z</time></trkpt><trkpt lat="43.7890722" lon="12.0716772"><ele>1362.0</ele><time>2026-05-02T14:03:06.323Z</time></trkpt><trkpt lat="43.7889569" lon="12.0717188"><ele>1361.1999999999998</ele><time>2026-05-02T14:03:08.321Z</time></trkpt><trkpt lat="43.7888344" lon="12.0717575"><ele>1360.4</ele><time>2026-05-02T14:03:10.326Z</time></trkpt><trkpt lat="43.7887578" lon="12.0717729"><ele>1359.6</ele><time>2026-05-02T14:03:11.326Z</time></trkpt><trkpt lat="43.7886847" lon="12.071807"><ele>1358.8000000000002</ele><time>2026-05-02T14:03:12.329Z</time></trkpt><trkpt lat="43.7885914" lon="12.0718511"><ele>1358.0</ele><time>2026-05-02T14:03:13.324Z</time></trkpt><trkpt lat="43.7884883" lon="12.0718877"><ele>1357.6666666666667</ele><time>2026-05-02T14:03:14.324Z</time></trkpt><trkpt lat="43.7883712" lon="12.0719208"><ele>1357.3333333333335</ele><time>2026-05-02T14:03:16.325Z</time></trkpt><trkpt lat="43.7882596" lon="12.0719632"><ele>1357.0</ele><time>2026-05-02T14:03:18.322Z</time></trkpt><trkpt lat="43.788196" lon="12.071987"><ele>1356.6666666666667</ele><time>2026-05-02T14:04:00.323Z</time></trkpt><trkpt lat="43.788187" lon="12.0720808"><ele>1356.3333333333333</ele><time>2026-05-02T14:04:07.323Z</time></trkpt><trkpt lat="43.7881182" lon="12.0720564"><ele>1356.0</ele><time>2026-05-02T14:04:12.32Z</time></trkpt><trkpt lat="43.7880476" lon="12.0720335"><ele>1356.0</ele><time>2026-05-02T14:04:16.322Z</time></trkpt><trkpt lat="43.7878983" lon="12.0720379"><ele>1356.0</ele><time>2026-05-02T14:04:18.319Z</time></trkpt><trkpt lat="43.7878043" lon="12.0720599"><ele>1356.0</ele><time>2026-05-02T14:04:19.321Z</time></trkpt><trkpt lat="43.7876836" lon="12.0720375"><ele>1356.0</ele><time>2026-05-02T14:04:20.322Z</time></trkpt><trkpt lat="43.7876575" lon="12.0719388"><ele>1356.0</ele><time>2026-05-02T14:04:21.32Z</time></trkpt><trkpt lat="43.78751" lon="12.071842"><ele>1354.0</ele><time>2026-05-02T14:04:23.323Z</time></trkpt><trkpt lat="43.7874088" lon="12.0718138"><ele>1352.0</ele><time>2026-05-02T14:04:24.321Z</time></trkpt><trkpt lat="43.7872384" lon="12.0718787"><ele>1350.0</ele><time>2026-05-02T14:04:25.32Z</time></trkpt><trkpt lat="43.7871297" lon="12.0719166"><ele>1348.0</ele><time>2026-05-02T14:04:26.321Z</time></trkpt><trkpt lat="43.7870068" lon="12.0720759"><ele>1348.0</ele><time>2026-05-02T14:04:27.32Z</time></trkpt><trkpt lat="43.7869013" lon="12.0721952"><ele>1348.0</ele><time>2026-05-02T14:04:28.322Z</time></trkpt><trkpt lat="43.7868153" lon="12.0722272"><ele>1348.0</ele><time>2026-05-02T14:04:29.32Z</time></trkpt><trkpt lat="43.7867162" lon="12.072325"><ele>1348.0</ele><time>2026-05-02T14:04:30.322Z</time></trkpt><trkpt lat="43.7866704" lon="12.0724589"><ele>1343.6000000000001</ele><time>2026-05-02T14:04:31.322Z</time></trkpt><trkpt lat="43.7866052" lon="12.0725698"><ele>1339.2</ele><time>2026-05-02T14:04:32.32Z</time></trkpt><trkpt lat="43.7865528" lon="12.072687"><ele>1334.8</ele><time>2026-05-02T14:04:33.32Z</time></trkpt><trkpt lat="43.7864473" lon="12.0728049"><ele>1330.4</ele><time>2026-05-02T14:04:34.32Z</time></trkpt><trkpt lat="43.7863742" lon="12.0728825"><ele>1326.0</ele><time>2026-05-02T14:04:35.318Z</time></trkpt><trkpt lat="43.7862969" lon="12.0729864"><ele>1326.0</ele><time>2026-05-02T14:04:36.32Z</time></trkpt><trkpt lat="43.7862152" lon="12.0730631"><ele>1326.0</ele><time>2026-05-02T14:04:37.321Z</time></trkpt><trkpt lat="43.7861306" lon="12.0731669"><ele>1326.0</ele><time>2026-05-02T14:04:38.32Z</time></trkpt><trkpt lat="43.7860242" lon="12.0732341"><ele>1326.0</ele><time>2026-05-02T14:04:39.323Z</time></trkpt><trkpt lat="43.7859314" lon="12.0733108"><ele>1326.0</ele><time>2026-05-02T14:04:40.319Z</time></trkpt><trkpt lat="43.7858488" lon="12.0733939"><ele>1324.4</ele><time>2026-05-02T14:04:41.321Z</time></trkpt><trkpt lat="43.7857604" lon="12.0734763"><ele>1322.8</ele><time>2026-05-02T14:04:42.319Z</time></trkpt><trkpt lat="43.7856715" lon="12.0735629"><ele>1321.2</ele><time>2026-05-02T14:04:43.321Z</time></trkpt><trkpt lat="43.7856105" lon="12.0736813"><ele>1319.6000000000001</ele><time>2026-05-02T14:04:44.321Z</time></trkpt><trkpt lat="43.7855543" lon="12.073788"><ele>1318.0</ele><time>2026-05-02T14:04:45.321Z</time></trkpt><trkpt lat="43.7855118" lon="12.0738836"><ele>1318.0</ele><time>2026-05-02T14:04:46.321Z</time></trkpt><trkpt lat="43.7854853" lon="12.0740102"><ele>1318.0</ele><time>2026-05-02T14:04:47.32Z</time></trkpt><trkpt lat="43.7855244" lon="12.074137"><ele>1318.0</ele><time>2026-05-02T14:04:48.321Z</time></trkpt><trkpt lat="43.7856264" lon="12.0742348"><ele>1318.0</ele><time>2026-05-02T14:04:49.32Z</time></trkpt><trkpt lat="43.7856863" lon="12.0743513"><ele>1318.0</ele><time>2026-05-02T14:04:50.316Z</time></trkpt><trkpt lat="43.7857173" lon="12.0744751"><ele>1314.2</ele><time>2026-05-02T14:04:51.322Z</time></trkpt><trkpt lat="43.7857207" lon="12.0746109"><ele>1310.4</ele><time>2026-05-02T14:04:52.322Z</time></trkpt><trkpt lat="43.785706" lon="12.0747233"><ele>1306.6000000000001</ele><time>2026-05-02T14:04:53.321Z</time></trkpt><trkpt lat="43.7857119" lon="12.0748787"><ele>1302.8000000000002</ele><time>2026-05-02T14:04:54.321Z</time></trkpt><trkpt lat="43.7857269" lon="12.0750088"><ele>1299.0</ele><time>2026-05-02T14:04:55.32Z</time></trkpt><trkpt lat="43.7858192" lon="12.075182"><ele>1297.0</ele><time>2026-05-02T14:04:56.322Z</time></trkpt><trkpt lat="43.7858612" lon="12.075285"><ele>1295.0</ele><time>2026-05-02T14:04:57.322Z</time></trkpt><trkpt lat="43.7858756" lon="12.0754219"><ele>1293.0</ele><time>2026-05-02T14:04:58.322Z</time></trkpt><trkpt lat="43.7858892" lon="12.0755536"><ele>1291.0</ele><time>2026-05-02T14:04:59.321Z</time></trkpt><trkpt lat="43.7859022" lon="12.0756726"><ele>1289.0</ele><time>2026-05-02T14:05:00.322Z</time></trkpt><trkpt lat="43.7858422" lon="12.0757671"><ele>1286.75</ele><time>2026-05-02T14:05:01.322Z</time></trkpt><trkpt lat="43.7857313" lon="12.0759126"><ele>1284.5</ele><time>2026-05-02T14:05:02.322Z</time></trkpt><trkpt lat="43.7856104" lon="12.0760175"><ele>1282.25</ele><time>2026-05-02T14:05:03.322Z</time></trkpt><trkpt lat="43.78554" lon="12.0761089"><ele>1280.0</ele><time>2026-05-02T14:05:04.321Z</time></trkpt><trkpt lat="43.7854806" lon="12.0761719"><ele>1280.0</ele><time>2026-05-02T14:05:05.321Z</time></trkpt><trkpt lat="43.7854162" lon="12.076211"><ele>1280.0</ele><time>2026-05-02T14:05:06.317Z</time></trkpt><trkpt lat="43.785356" lon="12.0762599"><ele>1280.0</ele><time>2026-05-02T14:05:07.321Z</time></trkpt><trkpt lat="43.7852952" lon="12.0763495"><ele>1280.0</ele><time>2026-05-02T14:05:08.32Z</time></trkpt><trkpt lat="43.7851977" lon="12.0764249"><ele>1280.0</ele><time>2026-05-02T14:05:09.324Z</time></trkpt><trkpt lat="43.7850851" lon="12.0764367"><ele>1280.6</ele><time>2026-05-02T14:05:10.324Z</time></trkpt><trkpt lat="43.7849982" lon="12.0764542"><ele>1281.2</ele><time>2026-05-02T14:05:11.324Z</time></trkpt><trkpt lat="43.7849105" lon="12.0764831"><ele>1281.8000000000002</ele><time>2026-05-02T14:05:12.324Z</time></trkpt><trkpt lat="43.7848426" lon="12.0763294"><ele>1282.4</ele><time>2026-05-02T14:05:13.322Z</time></trkpt><trkpt lat="43.7847724" lon="12.0762513"><ele>1283.0</ele><time>2026-05-02T14:05:14.322Z</time></trkpt><trkpt lat="43.7846683" lon="12.0761727"><ele>1283.0</ele><time>2026-05-02T14:05:15.321Z</time></trkpt><trkpt lat="43.7845729" lon="12.0760949"><ele>1283.0</ele><time>2026-05-02T14:05:16.322Z</time></trkpt><trkpt lat="43.7845153" lon="12.0760399"><ele>1283.0</ele><time>2026-05-02T14:05:17.323Z</time></trkpt><trkpt lat="43.7844141" lon="12.0760534"><ele>1283.0</ele><time>2026-05-02T14:05:18.323Z</time></trkpt><trkpt lat="43.7842829" lon="12.0761195"><ele>1283.0</ele><time>2026-05-02T14:05:20.323Z</time></trkpt><trkpt lat="43.784182" lon="12.0762146"><ele>1281.2</ele><time>2026-05-02T14:05:21.322Z</time></trkpt><trkpt lat="43.7840895" lon="12.0763009"><ele>1279.4</ele><time>2026-05-02T14:05:22.322Z</time></trkpt><trkpt lat="43.7839708" lon="12.0762648"><ele>1277.6000000000001</ele><time>2026-05-02T14:05:23.324Z</time></trkpt><trkpt lat="43.7838965" lon="12.0761868"><ele>1275.8000000000002</ele><time>2026-05-02T14:05:24.323Z</time></trkpt><trkpt lat="43.7838479" lon="12.0761151"><ele>1274.0</ele><time>2026-05-02T14:05:25.322Z</time></trkpt><trkpt lat="43.7837865" lon="12.0761849"><ele>1274.0</ele><time>2026-05-02T14:05:27.323Z</time></trkpt><trkpt lat="43.7838075" lon="12.0762759"><ele>1274.0</ele><time>2026-05-02T14:05:28.326Z</time></trkpt><trkpt lat="43.7839153" lon="12.0763957"><ele>1274.0</ele><time>2026-05-02T14:05:30.322Z</time></trkpt><trkpt lat="43.7839962" lon="12.0764277"><ele>1274.0</ele><time>2026-05-02T14:05:31.323Z</time></trkpt><trkpt lat="43.7840647" lon="12.0764506"><ele>1274.0</ele><time>2026-05-02T14:05:32.323Z</time></trkpt><trkpt lat="43.7841907" lon="12.0764706"><ele>1274.0</ele><time>2026-05-02T14:05:34.322Z</time></trkpt><trkpt lat="43.7842775" lon="12.0765041"><ele>1274.0</ele><time>2026-05-02T14:05:35.324Z</time></trkpt><trkpt lat="43.7843821" lon="12.0765618"><ele>1274.0</ele><time>2026-05-02T14:05:36.32Z</time></trkpt><trkpt lat="43.7844629" lon="12.076672"><ele>1274.0</ele><time>2026-05-02T14:05:37.324Z</time></trkpt><trkpt lat="43.78454" lon="12.0767797"><ele>1274.0</ele><time>2026-05-02T14:05:38.322Z</time></trkpt><trkpt lat="43.7845602" lon="12.0769199"><ele>1273.0</ele><time>2026-05-02T14:05:39.321Z</time></trkpt><trkpt lat="43.784408" lon="12.0771736"><ele>1272.0</ele><time>2026-05-02T14:05:40.32Z</time></trkpt><trkpt lat="43.7843949" lon="12.0773258"><ele>1271.0</ele><time>2026-05-02T14:05:41.322Z</time></trkpt><trkpt lat="43.7843431" lon="12.0774367"><ele>1270.0</ele><time>2026-05-02T14:05:42.322Z</time></trkpt><trkpt lat="43.784282" lon="12.0775672"><ele>1263.8</ele><time>2026-05-02T14:05:43.323Z</time></trkpt><trkpt lat="43.7842099" lon="12.0776748"><ele>1257.6</ele><time>2026-05-02T14:05:44.322Z</time></trkpt><trkpt lat="43.7841595" lon="12.0777957"><ele>1251.4</ele><time>2026-05-02T14:05:45.321Z</time></trkpt><trkpt lat="43.7841286" lon="12.0779155"><ele>1245.2</ele><time>2026-05-02T14:05:46.321Z</time></trkpt><trkpt lat="43.784111" lon="12.0780378"><ele>1239.0</ele><time>2026-05-02T14:05:47.322Z</time></trkpt><trkpt lat="43.7841375" lon="12.0781736"><ele>1237.75</ele><time>2026-05-02T14:05:48.324Z</time></trkpt><trkpt lat="43.7841734" lon="12.0783253"><ele>1236.5</ele><time>2026-05-02T14:05:49.323Z</time></trkpt><trkpt lat="43.784219" lon="12.0784701"><ele>1235.25</ele><time>2026-05-02T14:05:50.322Z</time></trkpt><trkpt lat="43.7842675" lon="12.0786069"><ele>1234.0</ele><time>2026-05-02T14:05:51.323Z</time></trkpt><trkpt lat="43.7843448" lon="12.0787561"><ele>1233.0</ele><time>2026-05-02T14:05:52.323Z</time></trkpt><trkpt lat="43.7843996" lon="12.0789194"><ele>1232.0</ele><time>2026-05-02T14:05:53.323Z</time></trkpt><trkpt lat="43.7844624" lon="12.0790672"><ele>1231.0</ele><time>2026-05-02T14:05:54.321Z</time></trkpt><trkpt lat="43.7845146" lon="12.0792152"><ele>1230.0</ele><time>2026-05-02T14:05:55.322Z</time></trkpt><trkpt lat="43.7845568" lon="12.0793018"><ele>1229.0</ele><time>2026-05-02T14:05:56.322Z</time></trkpt><trkpt lat="43.7845936" lon="12.079414"><ele>1229.0</ele><time>2026-05-02T14:05:57.324Z</time></trkpt><trkpt lat="43.7847136" lon="12.0793841"><ele>1229.0</ele><time>2026-05-02T14:05:58.324Z</time></trkpt><trkpt lat="43.7848102" lon="12.0794184"><ele>1229.0</ele><time>2026-05-02T14:05:59.322Z</time></trkpt><trkpt lat="43.7848972" lon="12.0794117"><ele>1229.0</ele><time>2026-05-02T14:06:00.321Z</time></trkpt><trkpt lat="43.7849939" lon="12.0793741"><ele>1229.0</ele><time>2026-05-02T14:06:01.326Z</time></trkpt><trkpt lat="43.7850909" lon="12.0793145"><ele>1229.0</ele><time>2026-05-02T14:06:02.323Z</time></trkpt><trkpt lat="43.7851589" lon="12.0792942"><ele>1229.0</ele><time>2026-05-02T14:06:03.324Z</time></trkpt><trkpt lat="43.7852321" lon="12.0792268"><ele>1229.0</ele><time>2026-05-02T14:06:04.323Z</time></trkpt><trkpt lat="43.7853162" lon="12.0791361"><ele>1229.0</ele><time>2026-05-02T14:06:05.324Z</time></trkpt><trkpt lat="43.7853902" lon="12.0791039"><ele>1229.0</ele><time>2026-05-02T14:06:06.322Z</time></trkpt><trkpt lat="43.785471" lon="12.0791141"><ele>1229.0</ele><time>2026-05-02T14:06:07.324Z</time></trkpt><trkpt lat="43.785537" lon="12.0791701"><ele>1227.3333333333335</ele><time>2026-05-02T14:06:08.324Z</time></trkpt><trkpt lat="43.7856182" lon="12.0792019"><ele>1225.6666666666667</ele><time>2026-05-02T14:06:09.323Z</time></trkpt><trkpt lat="43.7857109" lon="12.0793035"><ele>1224.0</ele><time>2026-05-02T14:06:10.321Z</time></trkpt><trkpt lat="43.7857976" lon="12.079318"><ele>1222.3333333333333</ele><time>2026-05-02T14:06:11.321Z</time></trkpt><trkpt lat="43.7858765" lon="12.0793652"><ele>1220.6666666666665</ele><time>2026-05-02T14:06:12.324Z</time></trkpt><trkpt lat="43.7859307" lon="12.0794341"><ele>1219.0</ele><time>2026-05-02T14:06:13.324Z</time></trkpt><trkpt lat="43.7859514" lon="12.0795297"><ele>1219.0</ele><time>2026-05-02T14:06:14.323Z</time></trkpt><trkpt lat="43.7859526" lon="12.0796208"><ele>1219.0</ele><time>2026-05-02T14:06:15.322Z</time></trkpt><trkpt lat="43.7859592" lon="12.0797532"><ele>1219.0</ele><time>2026-05-02T14:06:16.324Z</time></trkpt><trkpt lat="43.7858416" lon="12.0798949"><ele>1219.0</ele><time>2026-05-02T14:06:17.324Z</time></trkpt><trkpt lat="43.7857839" lon="12.0799851"><ele>1219.0</ele><time>2026-05-02T14:06:18.323Z</time></trkpt><trkpt lat="43.7856838" lon="12.0801222"><ele>1216.3333333333333</ele><time>2026-05-02T14:06:19.323Z</time></trkpt><trkpt lat="43.7855974" lon="12.0802735"><ele>1213.6666666666667</ele><time>2026-05-02T14:06:20.322Z</time></trkpt><trkpt lat="43.7854984" lon="12.0804364"><ele>1211.0</ele><time>2026-05-02T14:06:21.324Z</time></trkpt><trkpt lat="43.7853925" lon="12.080618"><ele>1210.3333333333335</ele><time>2026-05-02T14:06:22.323Z</time></trkpt><trkpt lat="43.7852836" lon="12.0807863"><ele>1209.6666666666667</ele><time>2026-05-02T14:06:23.324Z</time></trkpt><trkpt lat="43.7851723" lon="12.0809639"><ele>1209.0</ele><time>2026-05-02T14:06:24.323Z</time></trkpt><trkpt lat="43.785057" lon="12.0811409"><ele>1205.3333333333333</ele><time>2026-05-02T14:06:25.324Z</time></trkpt><trkpt lat="43.78495" lon="12.0813221"><ele>1201.6666666666665</ele><time>2026-05-02T14:06:26.322Z</time></trkpt><trkpt lat="43.7848355" lon="12.0814982"><ele>1198.0</ele><time>2026-05-02T14:06:27.321Z</time></trkpt><trkpt lat="43.7847181" lon="12.0816652"><ele>1196.3333333333333</ele><time>2026-05-02T14:06:28.321Z</time></trkpt><trkpt lat="43.784596" lon="12.0818307"><ele>1194.6666666666667</ele><time>2026-05-02T14:06:29.323Z</time></trkpt><trkpt lat="43.7844612" lon="12.082004"><ele>1193.0</ele><time>2026-05-02T14:06:30.323Z</time></trkpt><trkpt lat="43.7843456" lon="12.0821244"><ele>1191.25</ele><time>2026-05-02T14:06:31.321Z</time></trkpt><trkpt lat="43.7842104" lon="12.0822725"><ele>1189.5</ele><time>2026-05-02T14:06:32.321Z</time></trkpt><trkpt lat="43.7841064" lon="12.0822856"><ele>1187.75</ele><time>2026-05-02T14:06:33.324Z</time></trkpt><trkpt lat="43.78399" lon="12.0823314"><ele>1186.0</ele><time>2026-05-02T14:06:34.324Z</time></trkpt><trkpt lat="43.7838753" lon="12.0822783"><ele>1186.0</ele><time>2026-05-02T14:06:35.321Z</time></trkpt><trkpt lat="43.7837688" lon="12.0822313"><ele>1186.0</ele><time>2026-05-02T14:06:36.322Z</time></trkpt><trkpt lat="43.7836469" lon="12.082174"><ele>1186.0</ele><time>2026-05-02T14:06:37.322Z</time></trkpt><trkpt lat="43.7835159" lon="12.0821675"><ele>1186.0</ele><time>2026-05-02T14:06:38.323Z</time></trkpt><trkpt lat="43.7833954" lon="12.0821844"><ele>1186.0</ele><time>2026-05-02T14:06:39.318Z</time></trkpt><trkpt lat="43.7832581" lon="12.0822895"><ele>1186.0</ele><time>2026-05-02T14:06:40.318Z</time></trkpt><trkpt lat="43.7831095" lon="12.0822996"><ele>1186.0</ele><time>2026-05-02T14:06:41.319Z</time></trkpt><trkpt lat="43.78296" lon="12.0822485"><ele>1186.0</ele><time>2026-05-02T14:06:42.318Z</time></trkpt><trkpt lat="43.7828157" lon="12.0822089"><ele>1186.0</ele><time>2026-05-02T14:06:43.319Z</time></trkpt><trkpt lat="43.7826584" lon="12.0821526"><ele>1186.0</ele><time>2026-05-02T14:06:44.315Z</time></trkpt><trkpt lat="43.7825306" lon="12.0820886"><ele>1186.0</ele><time>2026-05-02T14:06:45.315Z</time></trkpt><trkpt lat="43.7823976" lon="12.0820689"><ele>1184.6</ele><time>2026-05-02T14:06:46.317Z</time></trkpt><trkpt lat="43.7822965" lon="12.0820564"><ele>1183.1999999999998</ele><time>2026-05-02T14:06:47.315Z</time></trkpt><trkpt lat="43.7822049" lon="12.0820718"><ele>1181.8000000000002</ele><time>2026-05-02T14:06:48.321Z</time></trkpt><trkpt lat="43.7821043" lon="12.0821688"><ele>1180.4</ele><time>2026-05-02T14:06:49.321Z</time></trkpt><trkpt lat="43.7820026" lon="12.0822639"><ele>1179.0</ele><time>2026-05-02T14:06:50.324Z</time></trkpt><trkpt lat="43.7818942" lon="12.082374"><ele>1176.5</ele><time>2026-05-02T14:06:51.321Z</time></trkpt><trkpt lat="43.7817924" lon="12.0824595"><ele>1174.0</ele><time>2026-05-02T14:06:52.322Z</time></trkpt><trkpt lat="43.7816768" lon="12.0825496"><ele>1171.5</ele><time>2026-05-02T14:06:53.323Z</time></trkpt><trkpt lat="43.7815578" lon="12.0825765"><ele>1169.0</ele><time>2026-05-02T14:06:54.322Z</time></trkpt><trkpt lat="43.7814679" lon="12.0825569"><ele>1169.0</ele><time>2026-05-02T14:06:55.321Z</time></trkpt><trkpt lat="43.7813758" lon="12.0824859"><ele>1169.0</ele><time>2026-05-02T14:06:56.322Z</time></trkpt><trkpt lat="43.7812092" lon="12.082424"><ele>1169.0</ele><time>2026-05-02T14:06:57.323Z</time></trkpt><trkpt lat="43.78108" lon="12.082372"><ele>1169.0</ele><time>2026-05-02T14:06:58.322Z</time></trkpt><trkpt lat="43.7809657" lon="12.0823246"><ele>1168.2</ele><time>2026-05-02T14:06:59.32Z</time></trkpt><trkpt lat="43.7808533" lon="12.0822934"><ele>1167.4</ele><time>2026-05-02T14:07:00.322Z</time></trkpt><trkpt lat="43.7807497" lon="12.0822526"><ele>1166.6</ele><time>2026-05-02T14:07:01.321Z</time></trkpt><trkpt lat="43.7806459" lon="12.0822432"><ele>1165.8</ele><time>2026-05-02T14:07:02.323Z</time></trkpt><trkpt lat="43.7805625" lon="12.0822519"><ele>1165.0</ele><time>2026-05-02T14:07:03.324Z</time></trkpt><trkpt lat="43.7804885" lon="12.082304"><ele>1163.75</ele><time>2026-05-02T14:07:04.322Z</time></trkpt><trkpt lat="43.780524" lon="12.0825144"><ele>1162.5</ele><time>2026-05-02T14:07:05.32Z</time></trkpt><trkpt lat="43.7805329" lon="12.0826331"><ele>1161.25</ele><time>2026-05-02T14:07:06.322Z</time></trkpt><trkpt lat="43.7805856" lon="12.0827896"><ele>1160.0</ele><time>2026-05-02T14:07:07.323Z</time></trkpt><trkpt lat="43.7806379" lon="12.0829511"><ele>1160.0</ele><time>2026-05-02T14:07:08.322Z</time></trkpt><trkpt lat="43.7806883" lon="12.0830873"><ele>1160.0</ele><time>2026-05-02T14:07:09.322Z</time></trkpt><trkpt lat="43.7807192" lon="12.0832059"><ele>1160.0</ele><time>2026-05-02T14:07:10.322Z</time></trkpt><trkpt lat="43.7807234" lon="12.0832936"><ele>1160.0</ele><time>2026-05-02T14:07:11.323Z</time></trkpt><trkpt lat="43.7806931" lon="12.0833746"><ele>1160.0</ele><time>2026-05-02T14:07:12.321Z</time></trkpt><trkpt lat="43.7806099" lon="12.0834348"><ele>1160.0</ele><time>2026-05-02T14:07:13.322Z</time></trkpt><trkpt lat="43.7805337" lon="12.0834913"><ele>1159.8</ele><time>2026-05-02T14:07:14.322Z</time></trkpt><trkpt lat="43.7804651" lon="12.0835565"><ele>1159.6</ele><time>2026-05-02T14:07:15.316Z</time></trkpt><trkpt lat="43.7804016" lon="12.0836541"><ele>1159.4</ele><time>2026-05-02T14:07:16.32Z</time></trkpt><trkpt lat="43.7803462" lon="12.0837909"><ele>1159.2</ele><time>2026-05-02T14:07:17.319Z</time></trkpt><trkpt lat="43.7802744" lon="12.0839269"><ele>1159.0</ele><time>2026-05-02T14:07:18.323Z</time></trkpt><trkpt lat="43.7801983" lon="12.0840851"><ele>1154.75</ele><time>2026-05-02T14:07:19.324Z</time></trkpt><trkpt lat="43.7801101" lon="12.0842383"><ele>1150.5</ele><time>2026-05-02T14:07:20.322Z</time></trkpt><trkpt lat="43.7800313" lon="12.0843885"><ele>1146.25</ele><time>2026-05-02T14:07:21.322Z</time></trkpt><trkpt lat="43.7799514" lon="12.0845455"><ele>1142.0</ele><time>2026-05-02T14:07:22.324Z</time></trkpt><trkpt lat="43.7798691" lon="12.0846855"><ele>1142.0</ele><time>2026-05-02T14:07:23.325Z</time></trkpt><trkpt lat="43.7797901" lon="12.0847891"><ele>1142.0</ele><time>2026-05-02T14:07:24.32Z</time></trkpt><trkpt lat="43.7797003" lon="12.0848914"><ele>1142.0</ele><time>2026-05-02T14:07:25.324Z</time></trkpt><trkpt lat="43.7796162" lon="12.0849971"><ele>1142.0</ele><time>2026-05-02T14:07:26.322Z</time></trkpt><trkpt lat="43.7795439" lon="12.0850956"><ele>1142.0</ele><time>2026-05-02T14:07:27.319Z</time></trkpt><trkpt lat="43.7794758" lon="12.0852147"><ele>1137.25</ele><time>2026-05-02T14:07:28.322Z</time></trkpt><trkpt lat="43.7794127" lon="12.0853305"><ele>1132.5</ele><time>2026-05-02T14:07:29.322Z</time></trkpt><trkpt lat="43.7793557" lon="12.0854635"><ele>1127.75</ele><time>2026-05-02T14:07:30.324Z</time></trkpt><trkpt lat="43.7793025" lon="12.0856034"><ele>1123.0</ele><time>2026-05-02T14:07:31.319Z</time></trkpt><trkpt lat="43.7792597" lon="12.0857607"><ele>1125.0</ele><time>2026-05-02T14:07:32.323Z</time></trkpt><trkpt lat="43.7792231" lon="12.0859192"><ele>1127.0</ele><time>2026-05-02T14:07:33.323Z</time></trkpt><trkpt lat="43.7791856" lon="12.0860898"><ele>1129.0</ele><time>2026-05-02T14:07:34.321Z</time></trkpt><trkpt lat="43.7791555" lon="12.0862544"><ele>1131.0</ele><time>2026-05-02T14:07:35.322Z</time></trkpt><trkpt lat="43.7791229" lon="12.0864296"><ele>1132.5</ele><time>2026-05-02T14:07:36.322Z</time></trkpt><trkpt lat="43.7790976" lon="12.0866015"><ele>1134.0</ele><time>2026-05-02T14:07:37.321Z</time></trkpt><trkpt lat="43.779068" lon="12.0867736"><ele>1135.5</ele><time>2026-05-02T14:07:38.322Z</time></trkpt><trkpt lat="43.7790442" lon="12.0869239"><ele>1137.0</ele><time>2026-05-02T14:07:39.319Z</time></trkpt><trkpt lat="43.7790191" lon="12.0870711"><ele>1137.0</ele><time>2026-05-02T14:07:40.321Z</time></trkpt><trkpt lat="43.7789886" lon="12.0872003"><ele>1137.0</ele><time>2026-05-02T14:07:41.321Z</time></trkpt><trkpt lat="43.7789676" lon="12.0873381"><ele>1137.0</ele><time>2026-05-02T14:07:42.323Z</time></trkpt><trkpt lat="43.7789439" lon="12.0874614"><ele>1137.0</ele><time>2026-05-02T14:07:43.32Z</time></trkpt><trkpt lat="43.7789222" lon="12.0875927"><ele>1137.0</ele><time>2026-05-02T14:07:44.322Z</time></trkpt><trkpt lat="43.7788913" lon="12.0877273"><ele>1137.8333333333333</ele><time>2026-05-02T14:07:45.322Z</time></trkpt><trkpt lat="43.7788686" lon="12.0878512"><ele>1138.6666666666667</ele><time>2026-05-02T14:07:46.322Z</time></trkpt><trkpt lat="43.7788409" lon="12.0879722"><ele>1139.5</ele><time>2026-05-02T14:07:47.32Z</time></trkpt><trkpt lat="43.7788025" lon="12.0880832"><ele>1140.3333333333335</ele><time>2026-05-02T14:07:48.324Z</time></trkpt><trkpt lat="43.7787602" lon="12.0881852"><ele>1141.1666666666667</ele><time>2026-05-02T14:07:49.322Z</time></trkpt><trkpt lat="43.7787039" lon="12.0882685"><ele>1142.0</ele><time>2026-05-02T14:07:50.322Z</time></trkpt><trkpt lat="43.778633" lon="12.08834"><ele>1144.4</ele><time>2026-05-02T14:07:51.323Z</time></trkpt><trkpt lat="43.778557" lon="12.0883921"><ele>1146.8000000000002</ele><time>2026-05-02T14:07:52.322Z</time></trkpt><trkpt lat="43.7784553" lon="12.0884435"><ele>1149.2</ele><time>2026-05-02T14:07:53.323Z</time></trkpt><trkpt lat="43.7783616" lon="12.0884877"><ele>1151.6000000000001</ele><time>2026-05-02T14:07:54.323Z</time></trkpt><trkpt lat="43.7782748" lon="12.0885314"><ele>1154.0</ele><time>2026-05-02T14:07:55.323Z</time></trkpt><trkpt lat="43.7781852" lon="12.0885853"><ele>1147.2</ele><time>2026-05-02T14:07:56.322Z</time></trkpt><trkpt lat="43.7781058" lon="12.0886669"><ele>1140.4</ele><time>2026-05-02T14:07:57.323Z</time></trkpt><trkpt lat="43.7780389" lon="12.0887593"><ele>1133.6</ele><time>2026-05-02T14:07:58.323Z</time></trkpt><trkpt lat="43.7780087" lon="12.0888676"><ele>1126.8</ele><time>2026-05-02T14:07:59.322Z</time></trkpt><trkpt lat="43.7779987" lon="12.0889868"><ele>1120.0</ele><time>2026-05-02T14:08:00.322Z</time></trkpt><trkpt lat="43.7780059" lon="12.089108"><ele>1120.0</ele><time>2026-05-02T14:08:01.322Z</time></trkpt><trkpt lat="43.7780244" lon="12.089224"><ele>1120.0</ele><time>2026-05-02T14:08:02.323Z</time></trkpt><trkpt lat="43.7780472" lon="12.089334"><ele>1120.0</ele><time>2026-05-02T14:08:03.321Z</time></trkpt><trkpt lat="43.7780754" lon="12.0894477"><ele>1120.0</ele><time>2026-05-02T14:08:04.324Z</time></trkpt><trkpt lat="43.7781065" lon="12.089558"><ele>1120.0</ele><time>2026-05-02T14:08:05.322Z</time></trkpt><trkpt lat="43.7781332" lon="12.0896653"><ele>1120.0</ele><time>2026-05-02T14:08:06.322Z</time></trkpt><trkpt lat="43.7781594" lon="12.0897626"><ele>1120.0</ele><time>2026-05-02T14:08:07.322Z</time></trkpt><trkpt lat="43.7781578" lon="12.089856"><ele>1120.0</ele><time>2026-05-02T14:08:08.323Z</time></trkpt><trkpt lat="43.7780962" lon="12.09"><ele>1120.0</ele><time>2026-05-02T14:08:10.322Z</time></trkpt><trkpt lat="43.7780311" lon="12.0900481"><ele>1120.0</ele><time>2026-05-02T14:08:11.323Z</time></trkpt><trkpt lat="43.7779742" lon="12.0900952"><ele>1120.0</ele><time>2026-05-02T14:08:12.322Z</time></trkpt><trkpt lat="43.77792" lon="12.0901585"><ele>1120.0</ele><time>2026-05-02T14:08:13.324Z</time></trkpt><trkpt lat="43.7778627" lon="12.0902163"><ele>1120.6666666666665</ele><time>2026-05-02T14:08:14.323Z</time></trkpt><trkpt lat="43.7778041" lon="12.0902719"><ele>1121.3333333333333</ele><time>2026-05-02T14:08:15.321Z</time></trkpt><trkpt lat="43.7777446" lon="12.0903294"><ele>1122.0</ele><time>2026-05-02T14:08:16.322Z</time></trkpt><trkpt lat="43.7776725" lon="12.0904112"><ele>1122.6666666666667</ele><time>2026-05-02T14:08:18.326Z</time></trkpt><trkpt lat="43.7776313" lon="12.090504"><ele>1123.3333333333335</ele><time>2026-05-02T14:08:36.323Z</time></trkpt><trkpt lat="43.7776042" lon="12.0905854"><ele>1124.0</ele><time>2026-05-02T14:08:40.323Z</time></trkpt><trkpt lat="43.7775633" lon="12.0907206"><ele>1119.3333333333335</ele><time>2026-05-02T14:08:42.322Z</time></trkpt><trkpt lat="43.7775283" lon="12.0908237"><ele>1114.6666666666667</ele><time>2026-05-02T14:08:44.322Z</time></trkpt><trkpt lat="43.777535" lon="12.0909348"><ele>1110.0</ele><time>2026-05-02T14:08:46.323Z</time></trkpt><trkpt lat="43.777525" lon="12.0910546"><ele>1105.3333333333333</ele><time>2026-05-02T14:08:48.32Z</time></trkpt><trkpt lat="43.7775084" lon="12.0911731"><ele>1100.6666666666665</ele><time>2026-05-02T14:08:51.322Z</time></trkpt><trkpt lat="43.7774803" lon="12.0912957"><ele>1096.0</ele><time>2026-05-02T14:08:55.322Z</time></trkpt><trkpt lat="43.777528" lon="12.0914465"><ele>1096.0</ele><time>2026-05-02T14:08:57.324Z</time></trkpt><trkpt lat="43.7775548" lon="12.0915546"><ele>1096.0</ele><time>2026-05-02T14:08:58.322Z</time></trkpt><trkpt lat="43.7775729" lon="12.0916717"><ele>1096.0</ele><time>2026-05-02T14:08:59.322Z</time></trkpt><trkpt lat="43.777592" lon="12.0917971"><ele>1096.0</ele><time>2026-05-02T14:09:00.322Z</time></trkpt><trkpt lat="43.777608" lon="12.0919248"><ele>1096.0</ele><time>2026-05-02T14:09:01.322Z</time></trkpt><trkpt lat="43.7776348" lon="12.0920425"><ele>1096.0</ele><time>2026-05-02T14:09:02.324Z</time></trkpt><trkpt lat="43.7776531" lon="12.0921584"><ele>1099.1666666666665</ele><time>2026-05-02T14:09:03.323Z</time></trkpt><trkpt lat="43.7777013" lon="12.0922492"><ele>1102.3333333333333</ele><time>2026-05-02T14:09:04.324Z</time></trkpt><trkpt lat="43.7777793" lon="12.0923005"><ele>1105.5</ele><time>2026-05-02T14:09:05.323Z</time></trkpt><trkpt lat="43.7778495" lon="12.092327"><ele>1108.6666666666667</ele><time>2026-05-02T14:09:06.322Z</time></trkpt><trkpt lat="43.7779304" lon="12.0923566"><ele>1111.8333333333335</ele><time>2026-05-02T14:09:07.322Z</time></trkpt><trkpt lat="43.7779907" lon="12.0924283"><ele>1115.0</ele><time>2026-05-02T14:09:08.322Z</time></trkpt><trkpt lat="43.7780601" lon="12.0924822"><ele>1115.0</ele><time>2026-05-02T14:09:09.318Z</time></trkpt><trkpt lat="43.7781087" lon="12.0925516"><ele>1115.0</ele><time>2026-05-02T14:09:10.322Z</time></trkpt><trkpt lat="43.7781229" lon="12.0926442"><ele>1115.0</ele><time>2026-05-02T14:09:11.322Z</time></trkpt><trkpt lat="43.7781253" lon="12.0927755"><ele>1115.0</ele><time>2026-05-02T14:09:12.323Z</time></trkpt><trkpt lat="43.7781298" lon="12.0929406"><ele>1115.0</ele><time>2026-05-02T14:09:13.322Z</time></trkpt><trkpt lat="43.7781199" lon="12.0931297"><ele>1114.0</ele><time>2026-05-02T14:09:14.321Z</time></trkpt><trkpt lat="43.7781208" lon="12.0933096"><ele>1113.0</ele><time>2026-05-02T14:09:15.322Z</time></trkpt><trkpt lat="43.7781423" lon="12.0934923"><ele>1112.0</ele><time>2026-05-02T14:09:16.323Z</time></trkpt><trkpt lat="43.7781578" lon="12.0936877"><ele>1111.0</ele><time>2026-05-02T14:09:17.323Z</time></trkpt><trkpt lat="43.778165" lon="12.0938902"><ele>1109.5</ele><time>2026-05-02T14:09:18.322Z</time></trkpt><trkpt lat="43.7781618" lon="12.0941026"><ele>1108.0</ele><time>2026-05-02T14:09:19.438Z</time></trkpt><trkpt lat="43.7781123" lon="12.0945243"><ele>1108.0</ele><time>2026-05-02T14:09:21.322Z</time></trkpt><trkpt lat="43.7780744" lon="12.094729"><ele>1108.0</ele><time>2026-05-02T14:09:22.321Z</time></trkpt><trkpt lat="43.7780492" lon="12.0949413"><ele>1108.0</ele><time>2026-05-02T14:09:23.321Z</time></trkpt><trkpt lat="43.7780325" lon="12.0951597"><ele>1108.3333333333333</ele><time>2026-05-02T14:09:24.324Z</time></trkpt><trkpt lat="43.7780266" lon="12.0953837"><ele>1108.6666666666667</ele><time>2026-05-02T14:09:25.321Z</time></trkpt><trkpt lat="43.778035" lon="12.0956034"><ele>1109.0</ele><time>2026-05-02T14:09:26.32Z</time></trkpt><trkpt lat="43.778046" lon="12.0958318"><ele>1110.6666666666667</ele><time>2026-05-02T14:09:27.32Z</time></trkpt><trkpt lat="43.7780591" lon="12.0960608"><ele>1112.3333333333333</ele><time>2026-05-02T14:09:28.318Z</time></trkpt><trkpt lat="43.7780558" lon="12.0962776"><ele>1114.0</ele><time>2026-05-02T14:09:29.318Z</time></trkpt><trkpt lat="43.7780357" lon="12.0964924"><ele>1114.3333333333333</ele><time>2026-05-02T14:09:30.314Z</time></trkpt><trkpt lat="43.7779965" lon="12.0966982"><ele>1114.6666666666667</ele><time>2026-05-02T14:09:31.319Z</time></trkpt><trkpt lat="43.7779505" lon="12.0968959"><ele>1115.0</ele><time>2026-05-02T14:09:32.318Z</time></trkpt><trkpt lat="43.7779026" lon="12.0971056"><ele>1115.0</ele><time>2026-05-02T14:09:33.316Z</time></trkpt><trkpt lat="43.777873" lon="12.0973132"><ele>1115.0</ele><time>2026-05-02T14:09:34.322Z</time></trkpt><trkpt lat="43.7778851" lon="12.0975242"><ele>1115.0</ele><time>2026-05-02T14:09:35.325Z</time></trkpt><trkpt lat="43.777928" lon="12.0977493"><ele>1114.6666666666667</ele><time>2026-05-02T14:09:36.323Z</time></trkpt><trkpt lat="43.7779827" lon="12.0979961"><ele>1114.3333333333333</ele><time>2026-05-02T14:09:37.323Z</time></trkpt><trkpt lat="43.7780352" lon="12.0982583"><ele>1114.0</ele><time>2026-05-02T14:09:38.323Z</time></trkpt><trkpt lat="43.7780936" lon="12.098526"><ele>1112.0</ele><time>2026-05-02T14:09:39.324Z</time></trkpt><trkpt lat="43.7781503" lon="12.0988112"><ele>1110.0</ele><time>2026-05-02T14:09:40.318Z</time></trkpt><trkpt lat="43.7782067" lon="12.0991045"><ele>1108.0</ele><time>2026-05-02T14:09:41.322Z</time></trkpt><trkpt lat="43.7782521" lon="12.09941"><ele>1106.3333333333333</ele><time>2026-05-02T14:09:42.322Z</time></trkpt><trkpt lat="43.7782831" lon="12.0997059"><ele>1104.6666666666667</ele><time>2026-05-02T14:09:43.323Z</time></trkpt><trkpt lat="43.7783019" lon="12.0999795"><ele>1103.0</ele><time>2026-05-02T14:09:44.323Z</time></trkpt><trkpt lat="43.7783184" lon="12.1002492"><ele>1102.0</ele><time>2026-05-02T14:09:45.324Z</time></trkpt><trkpt lat="43.7783394" lon="12.1005163"><ele>1101.0</ele><time>2026-05-02T14:09:46.323Z</time></trkpt><trkpt lat="43.7783588" lon="12.1007803"><ele>1100.0</ele><time>2026-05-02T14:09:47.323Z</time></trkpt><trkpt lat="43.7783852" lon="12.1010468"><ele>1099.6666666666667</ele><time>2026-05-02T14:09:48.325Z</time></trkpt><trkpt lat="43.7784188" lon="12.1013198"><ele>1099.3333333333333</ele><time>2026-05-02T14:09:49.321Z</time></trkpt><trkpt lat="43.7784432" lon="12.1015908"><ele>1099.0</ele><time>2026-05-02T14:09:50.32Z</time></trkpt><trkpt lat="43.7784625" lon="12.1018609"><ele>1097.0</ele><time>2026-05-02T14:09:51.321Z</time></trkpt><trkpt lat="43.7784812" lon="12.1021249"><ele>1095.0</ele><time>2026-05-02T14:09:52.321Z</time></trkpt><trkpt lat="43.7785018" lon="12.1023786"><ele>1093.0</ele><time>2026-05-02T14:09:53.321Z</time></trkpt><trkpt lat="43.7785254" lon="12.1026241"><ele>1091.0</ele><time>2026-05-02T14:09:54.321Z</time></trkpt><trkpt lat="43.7785405" lon="12.1028561"><ele>1089.0</ele><time>2026-05-02T14:09:55.323Z</time></trkpt><trkpt lat="43.7785279" lon="12.1030949"><ele>1087.0</ele><time>2026-05-02T14:09:56.318Z</time></trkpt><trkpt lat="43.7784968" lon="12.1033426"><ele>1087.0</ele><time>2026-05-02T14:09:57.324Z</time></trkpt><trkpt lat="43.7784626" lon="12.1036006"><ele>1087.0</ele><time>2026-05-02T14:09:58.318Z</time></trkpt><trkpt lat="43.7784276" lon="12.1038609"><ele>1087.0</ele><time>2026-05-02T14:09:59.323Z</time></trkpt><trkpt lat="43.7783945" lon="12.1041152"><ele>1088.6666666666665</ele><time>2026-05-02T14:10:00.323Z</time></trkpt><trkpt lat="43.7783567" lon="12.1043537"><ele>1090.3333333333333</ele><time>2026-05-02T14:10:01.324Z</time></trkpt><trkpt lat="43.7783288" lon="12.1045731"><ele>1092.0</ele><time>2026-05-02T14:10:02.322Z</time></trkpt><trkpt lat="43.7783244" lon="12.1047743"><ele>1092.5</ele><time>2026-05-02T14:10:03.322Z</time></trkpt><trkpt lat="43.77834" lon="12.1049685"><ele>1093.0</ele><time>2026-05-02T14:10:04.323Z</time></trkpt><trkpt lat="43.7783899" lon="12.105145"><ele>1093.5</ele><time>2026-05-02T14:10:05.323Z</time></trkpt><trkpt lat="43.7784713" lon="12.1052877"><ele>1094.0</ele><time>2026-05-02T14:10:06.323Z</time></trkpt><trkpt lat="43.7785671" lon="12.1054275"><ele>1098.3333333333335</ele><time>2026-05-02T14:10:07.322Z</time></trkpt><trkpt lat="43.7786898" lon="12.1055159"><ele>1102.6666666666667</ele><time>2026-05-02T14:10:08.324Z</time></trkpt><trkpt lat="43.7788051" lon="12.1056156"><ele>1107.0</ele><time>2026-05-02T14:10:09.322Z</time></trkpt><trkpt lat="43.7789865" lon="12.1056898"><ele>1109.3333333333333</ele><time>2026-05-02T14:10:10.322Z</time></trkpt><trkpt lat="43.7791737" lon="12.1057934"><ele>1111.6666666666665</ele><time>2026-05-02T14:10:11.323Z</time></trkpt><trkpt lat="43.7793437" lon="12.1059225"><ele>1114.0</ele><time>2026-05-02T14:10:12.315Z</time></trkpt><trkpt lat="43.7794688" lon="12.1060989"><ele>1114.0</ele><time>2026-05-02T14:10:13.321Z</time></trkpt><trkpt lat="43.7795984" lon="12.1062987"><ele>1114.0</ele><time>2026-05-02T14:10:14.321Z</time></trkpt><trkpt lat="43.7797209" lon="12.1065115"><ele>1114.0</ele><time>2026-05-02T14:10:15.321Z</time></trkpt><trkpt lat="43.7798306" lon="12.1067072"><ele>1109.0</ele><time>2026-05-02T14:10:16.322Z</time></trkpt><trkpt lat="43.7799341" lon="12.1069051"><ele>1104.0</ele><time>2026-05-02T14:10:17.321Z</time></trkpt><trkpt lat="43.7800234" lon="12.1070772"><ele>1099.0</ele><time>2026-05-02T14:10:18.321Z</time></trkpt><trkpt lat="43.7800887" lon="12.10728"><ele>1096.6666666666665</ele><time>2026-05-02T14:10:19.322Z</time></trkpt><trkpt lat="43.7801297" lon="12.1074821"><ele>1094.3333333333333</ele><time>2026-05-02T14:10:20.321Z</time></trkpt><trkpt lat="43.7801359" lon="12.1076874"><ele>1092.0</ele><time>2026-05-02T14:10:21.319Z</time></trkpt><trkpt lat="43.7801349" lon="12.1079037"><ele>1092.0</ele><time>2026-05-02T14:10:22.322Z</time></trkpt><trkpt lat="43.780137" lon="12.1081131"><ele>1092.0</ele><time>2026-05-02T14:10:23.321Z</time></trkpt><trkpt lat="43.7801495" lon="12.1083095"><ele>1092.0</ele><time>2026-05-02T14:10:24.322Z</time></trkpt><trkpt lat="43.7801663" lon="12.1085041"><ele>1092.0</ele><time>2026-05-02T14:10:25.321Z</time></trkpt><trkpt lat="43.7802027" lon="12.1086808"><ele>1093.8</ele><time>2026-05-02T14:10:26.323Z</time></trkpt><trkpt lat="43.7802647" lon="12.1088203"><ele>1095.6</ele><time>2026-05-02T14:10:27.322Z</time></trkpt><trkpt lat="43.7803384" lon="12.1089239"><ele>1097.3999999999999</ele><time>2026-05-02T14:10:28.32Z</time></trkpt><trkpt lat="43.7804132" lon="12.1089978"><ele>1099.2</ele><time>2026-05-02T14:10:29.323Z</time></trkpt><trkpt lat="43.7804824" lon="12.1090711"><ele>1101.0</ele><time>2026-05-02T14:10:30.323Z</time></trkpt><trkpt lat="43.7805225" lon="12.1091505"><ele>1101.0</ele><time>2026-05-02T14:10:31.321Z</time></trkpt><trkpt lat="43.7805257" lon="12.1092445"><ele>1101.0</ele><time>2026-05-02T14:10:32.32Z</time></trkpt><trkpt lat="43.7804311" lon="12.1093762"><ele>1101.0</ele><time>2026-05-02T14:10:34.32Z</time></trkpt><trkpt lat="43.7803123" lon="12.1093904"><ele>1101.0</ele><time>2026-05-02T14:10:35.326Z</time></trkpt><trkpt lat="43.7801879" lon="12.1094378"><ele>1095.25</ele><time>2026-05-02T14:10:36.325Z</time></trkpt><trkpt lat="43.7800502" lon="12.109478"><ele>1089.5</ele><time>2026-05-02T14:10:37.323Z</time></trkpt><trkpt lat="43.7799068" lon="12.1095164"><ele>1083.75</ele><time>2026-05-02T14:10:38.32Z</time></trkpt><trkpt lat="43.7797622" lon="12.1095568"><ele>1078.0</ele><time>2026-05-02T14:10:39.321Z</time></trkpt><trkpt lat="43.7796321" lon="12.1096077"><ele>1078.0</ele><time>2026-05-02T14:10:40.324Z</time></trkpt><trkpt lat="43.779509" lon="12.1096747"><ele>1078.0</ele><time>2026-05-02T14:10:41.322Z</time></trkpt><trkpt lat="43.7794225" lon="12.1098221"><ele>1078.0</ele><time>2026-05-02T14:10:42.322Z</time></trkpt><trkpt lat="43.7793558" lon="12.1099646"><ele>1078.0</ele><time>2026-05-02T14:10:43.325Z</time></trkpt><trkpt lat="43.7793272" lon="12.110122"><ele>1073.5</ele><time>2026-05-02T14:10:44.318Z</time></trkpt><trkpt lat="43.7793035" lon="12.1102922"><ele>1069.0</ele><time>2026-05-02T14:10:45.322Z</time></trkpt><trkpt lat="43.7792932" lon="12.1104863"><ele>1064.5</ele><time>2026-05-02T14:10:46.322Z</time></trkpt><trkpt lat="43.7793174" lon="12.1106918"><ele>1060.0</ele><time>2026-05-02T14:10:47.322Z</time></trkpt><trkpt lat="43.7793261" lon="12.1109163"><ele>1058.5</ele><time>2026-05-02T14:10:48.321Z</time></trkpt><trkpt lat="43.7793283" lon="12.11111"><ele>1057.0</ele><time>2026-05-02T14:10:49.323Z</time></trkpt><trkpt lat="43.7793217" lon="12.1112967"><ele>1055.5</ele><time>2026-05-02T14:10:50.324Z</time></trkpt><trkpt lat="43.7793309" lon="12.1114986"><ele>1054.0</ele><time>2026-05-02T14:10:51.322Z</time></trkpt><trkpt lat="43.779335" lon="12.1116748"><ele>1053.0</ele><time>2026-05-02T14:10:52.322Z</time></trkpt><trkpt lat="43.7793305" lon="12.1118557"><ele>1052.0</ele><time>2026-05-02T14:10:53.319Z</time></trkpt><trkpt lat="43.7793328" lon="12.1120047"><ele>1051.0</ele><time>2026-05-02T14:10:54.321Z</time></trkpt><trkpt lat="43.7793376" lon="12.1121532"><ele>1050.0</ele><time>2026-05-02T14:10:55.321Z</time></trkpt><trkpt lat="43.7792723" lon="12.1122614"><ele>1049.0</ele><time>2026-05-02T14:10:56.319Z</time></trkpt><trkpt lat="43.7791922" lon="12.1123643"><ele>1049.0</ele><time>2026-05-02T14:10:57.32Z</time></trkpt><trkpt lat="43.7790558" lon="12.1123615"><ele>1049.0</ele><time>2026-05-02T14:10:58.32Z</time></trkpt><trkpt lat="43.7789469" lon="12.112351"><ele>1049.0</ele><time>2026-05-02T14:10:59.32Z</time></trkpt><trkpt lat="43.7789031" lon="12.112119"><ele>1049.0</ele><time>2026-05-02T14:11:00.32Z</time></trkpt><trkpt lat="43.7788362" lon="12.111962"><ele>1049.0</ele><time>2026-05-02T14:11:01.322Z</time></trkpt><trkpt lat="43.7787806" lon="12.1117803"><ele>1049.0</ele><time>2026-05-02T14:11:02.319Z</time></trkpt><trkpt lat="43.7787247" lon="12.1116166"><ele>1049.0</ele><time>2026-05-02T14:11:03.321Z</time></trkpt><trkpt lat="43.7786647" lon="12.111448"><ele>1049.0</ele><time>2026-05-02T14:11:04.322Z</time></trkpt><trkpt lat="43.7786002" lon="12.1112765"><ele>1045.6666666666667</ele><time>2026-05-02T14:11:05.319Z</time></trkpt><trkpt lat="43.7785127" lon="12.1111049"><ele>1042.3333333333333</ele><time>2026-05-02T14:11:06.32Z</time></trkpt><trkpt lat="43.7784141" lon="12.1109415"><ele>1039.0</ele><time>2026-05-02T14:11:07.32Z</time></trkpt><trkpt lat="43.7782931" lon="12.1107587"><ele>1041.0</ele><time>2026-05-02T14:11:08.32Z</time></trkpt><trkpt lat="43.7781612" lon="12.1105764"><ele>1043.0</ele><time>2026-05-02T14:11:09.319Z</time></trkpt><trkpt lat="43.778032" lon="12.1103881"><ele>1045.0</ele><time>2026-05-02T14:11:10.32Z</time></trkpt><trkpt lat="43.7779072" lon="12.110199"><ele>1045.0</ele><time>2026-05-02T14:11:11.32Z</time></trkpt><trkpt lat="43.777765" lon="12.1100599"><ele>1045.0</ele><time>2026-05-02T14:11:12.319Z</time></trkpt><trkpt lat="43.7776251" lon="12.1099309"><ele>1045.0</ele><time>2026-05-02T14:11:13.32Z</time></trkpt><trkpt lat="43.7774955" lon="12.1098483"><ele>1043.0</ele><time>2026-05-02T14:11:14.319Z</time></trkpt><trkpt lat="43.7773313" lon="12.1098599"><ele>1041.0</ele><time>2026-05-02T14:11:15.321Z</time></trkpt><trkpt lat="43.7771101" lon="12.1099409"><ele>1039.0</ele><time>2026-05-02T14:11:16.319Z</time></trkpt><trkpt lat="43.776937" lon="12.1099337"><ele>1029.0</ele><time>2026-05-02T14:11:17.32Z</time></trkpt><trkpt lat="43.7767114" lon="12.1100117"><ele>1019.0</ele><time>2026-05-02T14:11:18.321Z</time></trkpt><trkpt lat="43.7765006" lon="12.1101488"><ele>1019.0</ele><time>2026-05-02T14:11:19.32Z</time></trkpt><trkpt lat="43.7763027" lon="12.1102512"><ele>1019.0</ele><time>2026-05-02T14:11:20.32Z</time></trkpt><trkpt lat="43.7761335" lon="12.1102962"><ele>1019.0</ele><time>2026-05-02T14:11:21.439Z</time></trkpt><trkpt lat="43.7758033" lon="12.1104489"><ele>1016.5</ele><time>2026-05-02T14:11:23.31Z</time></trkpt><trkpt lat="43.7757201" lon="12.1105246"><ele>1014.0</ele><time>2026-05-02T14:11:24.316Z</time></trkpt><trkpt lat="43.7756393" lon="12.1106533"><ele>1011.5</ele><time>2026-05-02T14:11:25.316Z</time></trkpt><trkpt lat="43.7755929" lon="12.1108208"><ele>1009.0</ele><time>2026-05-02T14:11:26.317Z</time></trkpt><trkpt lat="43.7755933" lon="12.1110235"><ele>1009.0</ele><time>2026-05-02T14:11:27.316Z</time></trkpt><trkpt lat="43.7756156" lon="12.1112507"><ele>1009.0</ele><time>2026-05-02T14:11:28.316Z</time></trkpt><trkpt lat="43.7756452" lon="12.1114754"><ele>1009.0</ele><time>2026-05-02T14:11:29.316Z</time></trkpt><trkpt lat="43.7756774" lon="12.111697"><ele>1007.0</ele><time>2026-05-02T14:11:30.314Z</time></trkpt><trkpt lat="43.7756991" lon="12.1119174"><ele>1005.0</ele><time>2026-05-02T14:11:31.318Z</time></trkpt><trkpt lat="43.775718" lon="12.1121281"><ele>1003.0</ele><time>2026-05-02T14:11:32.319Z</time></trkpt><trkpt lat="43.7757334" lon="12.1123321"><ele>1002.0</ele><time>2026-05-02T14:11:33.321Z</time></trkpt><trkpt lat="43.7757494" lon="12.1125241"><ele>1001.0</ele><time>2026-05-02T14:11:34.32Z</time></trkpt><trkpt lat="43.7757447" lon="12.1127131"><ele>1000.0</ele><time>2026-05-02T14:11:35.32Z</time></trkpt><trkpt lat="43.7757301" lon="12.1128593"><ele>999.0</ele><time>2026-05-02T14:11:36.321Z</time></trkpt><trkpt lat="43.7757057" lon="12.1130144"><ele>999.0</ele><time>2026-05-02T14:11:37.32Z</time></trkpt><trkpt lat="43.7756373" lon="12.1131354"><ele>999.0</ele><time>2026-05-02T14:11:38.32Z</time></trkpt><trkpt lat="43.7754829" lon="12.1130974"><ele>999.0</ele><time>2026-05-02T14:11:39.32Z</time></trkpt><trkpt lat="43.7753914" lon="12.1130894"><ele>999.0</ele><time>2026-05-02T14:11:40.32Z</time></trkpt><trkpt lat="43.7753022" lon="12.1130083"><ele>999.0</ele><time>2026-05-02T14:11:41.319Z</time></trkpt><trkpt lat="43.7752422" lon="12.1128768"><ele>999.0</ele><time>2026-05-02T14:11:42.321Z</time></trkpt><trkpt lat="43.7751825" lon="12.1127585"><ele>999.0</ele><time>2026-05-02T14:11:43.318Z</time></trkpt><trkpt lat="43.775193" lon="12.1125565"><ele>999.0</ele><time>2026-05-02T14:11:44.321Z</time></trkpt><trkpt lat="43.775209" lon="12.1123792"><ele>1000.0</ele><time>2026-05-02T14:11:45.321Z</time></trkpt><trkpt lat="43.775231" lon="12.1122094"><ele>1001.0</ele><time>2026-05-02T14:11:46.323Z</time></trkpt><trkpt lat="43.7752521" lon="12.1120294"><ele>1002.0</ele><time>2026-05-02T14:11:47.32Z</time></trkpt><trkpt lat="43.775258" lon="12.1118535"><ele>1003.0</ele><time>2026-05-02T14:11:48.318Z</time></trkpt><trkpt lat="43.7752403" lon="12.111692"><ele>1004.5</ele><time>2026-05-02T14:11:49.319Z</time></trkpt><trkpt lat="43.7752269" lon="12.1115271"><ele>1006.0</ele><time>2026-05-02T14:11:50.32Z</time></trkpt><trkpt lat="43.7751687" lon="12.1114349"><ele>1007.5</ele><time>2026-05-02T14:11:51.32Z</time></trkpt><trkpt lat="43.7750122" lon="12.1114098"><ele>1009.0</ele><time>2026-05-02T14:11:52.322Z</time></trkpt><trkpt lat="43.774902" lon="12.1113951"><ele>1004.75</ele><time>2026-05-02T14:11:53.32Z</time></trkpt><trkpt lat="43.7747869" lon="12.1114292"><ele>1000.5</ele><time>2026-05-02T14:11:54.321Z</time></trkpt><trkpt lat="43.7746814" lon="12.1115028"><ele>996.25</ele><time>2026-05-02T14:11:55.32Z</time></trkpt><trkpt lat="43.7745858" lon="12.111601"><ele>992.0</ele><time>2026-05-02T14:11:56.321Z</time></trkpt><trkpt lat="43.7744986" lon="12.1117167"><ele>990.0</ele><time>2026-05-02T14:11:57.321Z</time></trkpt><trkpt lat="43.774422" lon="12.1118465"><ele>988.0</ele><time>2026-05-02T14:11:58.322Z</time></trkpt><trkpt lat="43.7743591" lon="12.1119709"><ele>986.0</ele><time>2026-05-02T14:11:59.324Z</time></trkpt><trkpt lat="43.774296" lon="12.1120819"><ele>984.0</ele><time>2026-05-02T14:12:00.322Z</time></trkpt><trkpt lat="43.774222" lon="12.1121628"><ele>982.0</ele><time>2026-05-02T14:12:01.322Z</time></trkpt><trkpt lat="43.7741357" lon="12.1122061"><ele>978.8</ele><time>2026-05-02T14:12:02.325Z</time></trkpt><trkpt lat="43.7740444" lon="12.1121947"><ele>975.6</ele><time>2026-05-02T14:12:03.324Z</time></trkpt><trkpt lat="43.7739674" lon="12.1121352"><ele>972.3999999999999</ele><time>2026-05-02T14:12:04.325Z</time></trkpt><trkpt lat="43.773914" lon="12.1120386"><ele>969.1999999999999</ele><time>2026-05-02T14:12:05.321Z</time></trkpt><trkpt lat="43.7738889" lon="12.1119214"><ele>966.0</ele><time>2026-05-02T14:12:06.324Z</time></trkpt><trkpt lat="43.7738774" lon="12.1117876"><ele>966.0</ele><time>2026-05-02T14:12:07.321Z</time></trkpt><trkpt lat="43.7738597" lon="12.1116361"><ele>966.0</ele><time>2026-05-02T14:12:08.322Z</time></trkpt><trkpt lat="43.7738046" lon="12.1114767"><ele>966.0</ele><time>2026-05-02T14:12:09.325Z</time></trkpt><trkpt lat="43.7737157" lon="12.1113017"><ele>966.0</ele><time>2026-05-02T14:12:10.322Z</time></trkpt><trkpt lat="43.7736115" lon="12.1111082"><ele>962.6666666666667</ele><time>2026-05-02T14:12:11.323Z</time></trkpt><trkpt lat="43.7735044" lon="12.1108835"><ele>959.3333333333334</ele><time>2026-05-02T14:12:12.325Z</time></trkpt><trkpt lat="43.7734158" lon="12.1106678"><ele>956.0</ele><time>2026-05-02T14:12:13.322Z</time></trkpt><trkpt lat="43.7733266" lon="12.1104533"><ele>956.0</ele><time>2026-05-02T14:12:14.322Z</time></trkpt><trkpt lat="43.7732345" lon="12.1102589"><ele>956.0</ele><time>2026-05-02T14:12:15.325Z</time></trkpt><trkpt lat="43.773117" lon="12.1100851"><ele>956.0</ele><time>2026-05-02T14:12:16.325Z</time></trkpt><trkpt lat="43.7729533" lon="12.1099294"><ele>954.0</ele><time>2026-05-02T14:12:17.321Z</time></trkpt><trkpt lat="43.7727499" lon="12.1097992"><ele>952.0</ele><time>2026-05-02T14:12:18.321Z</time></trkpt><trkpt lat="43.7725476" lon="12.1096695"><ele>950.0</ele><time>2026-05-02T14:12:19.323Z</time></trkpt><trkpt lat="43.7723556" lon="12.1095114"><ele>950.0</ele><time>2026-05-02T14:12:20.322Z</time></trkpt><trkpt lat="43.7721594" lon="12.1093602"><ele>950.0</ele><time>2026-05-02T14:12:21.315Z</time></trkpt><trkpt lat="43.7719597" lon="12.1091871"><ele>949.3333333333334</ele><time>2026-05-02T14:12:22.318Z</time></trkpt><trkpt lat="43.7718346" lon="12.1090431"><ele>948.6666666666667</ele><time>2026-05-02T14:12:23.319Z</time></trkpt><trkpt lat="43.7716428" lon="12.1089132"><ele>948.0</ele><time>2026-05-02T14:12:24.32Z</time></trkpt><trkpt lat="43.7714395" lon="12.1089105"><ele>948.0</ele><time>2026-05-02T14:12:25.319Z</time></trkpt><trkpt lat="43.7712119" lon="12.1089074"><ele>948.0</ele><time>2026-05-02T14:12:26.32Z</time></trkpt><trkpt lat="43.770989" lon="12.1089239"><ele>947.6666666666667</ele><time>2026-05-02T14:12:27.318Z</time></trkpt><trkpt lat="43.7707838" lon="12.1089427"><ele>947.3333333333334</ele><time>2026-05-02T14:12:28.32Z</time></trkpt><trkpt lat="43.7705913" lon="12.1089519"><ele>947.0</ele><time>2026-05-02T14:12:29.32Z</time></trkpt><trkpt lat="43.7704218" lon="12.1089169"><ele>947.0</ele><time>2026-05-02T14:12:30.322Z</time></trkpt><trkpt lat="43.7702562" lon="12.1088752"><ele>947.0</ele><time>2026-05-02T14:12:31.32Z</time></trkpt><trkpt lat="43.7701004" lon="12.1087668"><ele>947.0</ele><time>2026-05-02T14:12:32.32Z</time></trkpt><trkpt lat="43.7699674" lon="12.1086048"><ele>943.5</ele><time>2026-05-02T14:12:33.32Z</time></trkpt><trkpt lat="43.7698768" lon="12.1083109"><ele>940.0</ele><time>2026-05-02T14:12:34.322Z</time></trkpt><trkpt lat="43.7697714" lon="12.1080059"><ele>940.0</ele><time>2026-05-02T14:12:35.319Z</time></trkpt><trkpt lat="43.7696563" lon="12.1075975"><ele>940.0</ele><time>2026-05-02T14:12:36.325Z</time></trkpt><trkpt lat="43.7695368" lon="12.1072647"><ele>942.5</ele><time>2026-05-02T14:12:37.318Z</time></trkpt><trkpt lat="43.7694215" lon="12.106926"><ele>945.0</ele><time>2026-05-02T14:12:38.32Z</time></trkpt><trkpt lat="43.7693113" lon="12.1065813"><ele>940.0</ele><time>2026-05-02T14:12:39.32Z</time></trkpt><trkpt lat="43.7691987" lon="12.1062891"><ele>935.0</ele><time>2026-05-02T14:12:40.322Z</time></trkpt><trkpt lat="43.7691004" lon="12.1060296"><ele>935.0</ele><time>2026-05-02T14:12:41.319Z</time></trkpt><trkpt lat="43.7690101" lon="12.1057847"><ele>935.0</ele><time>2026-05-02T14:12:42.318Z</time></trkpt><trkpt lat="43.7689398" lon="12.1055988"><ele>935.0</ele><time>2026-05-02T14:12:43.321Z</time></trkpt><trkpt lat="43.7688595" lon="12.1054368"><ele>934.25</ele><time>2026-05-02T14:12:44.32Z</time></trkpt><trkpt lat="43.7687522" lon="12.1053438"><ele>933.5</ele><time>2026-05-02T14:12:45.32Z</time></trkpt><trkpt lat="43.7686286" lon="12.1053007"><ele>932.75</ele><time>2026-05-02T14:12:46.321Z</time></trkpt><trkpt lat="43.7684869" lon="12.1053368"><ele>932.0</ele><time>2026-05-02T14:12:47.32Z</time></trkpt><trkpt lat="43.7683458" lon="12.1054278"><ele>932.0</ele><time>2026-05-02T14:12:48.324Z</time></trkpt><trkpt lat="43.7682062" lon="12.105536"><ele>932.0</ele><time>2026-05-02T14:12:49.32Z</time></trkpt><trkpt lat="43.7680808" lon="12.1057004"><ele>932.0</ele><time>2026-05-02T14:12:50.321Z</time></trkpt><trkpt lat="43.7679417" lon="12.1058469"><ele>930.5</ele><time>2026-05-02T14:12:51.321Z</time></trkpt><trkpt lat="43.7678868" lon="12.1060325"><ele>929.0</ele><time>2026-05-02T14:12:52.318Z</time></trkpt><trkpt lat="43.7677959" lon="12.1062012"><ele>927.5</ele><time>2026-05-02T14:12:53.322Z</time></trkpt><trkpt lat="43.7677634" lon="12.1063907"><ele>926.0</ele><time>2026-05-02T14:12:54.313Z</time></trkpt><trkpt lat="43.7677476" lon="12.106701"><ele>924.6666666666667</ele><time>2026-05-02T14:12:55.322Z</time></trkpt><trkpt lat="43.7677692" lon="12.1070241"><ele>923.3333333333333</ele><time>2026-05-02T14:12:56.32Z</time></trkpt><trkpt lat="43.7678081" lon="12.1072899"><ele>922.0</ele><time>2026-05-02T14:12:57.328Z</time></trkpt><trkpt lat="43.7678177" lon="12.1075903"><ele>921.0</ele><time>2026-05-02T14:12:58.321Z</time></trkpt><trkpt lat="43.767825" lon="12.1078686"><ele>920.0</ele><time>2026-05-02T14:12:59.32Z</time></trkpt><trkpt lat="43.7678384" lon="12.1081339"><ele>919.0</ele><time>2026-05-02T14:13:00.321Z</time></trkpt><trkpt lat="43.7678356" lon="12.1084241"><ele>918.6666666666666</ele><time>2026-05-02T14:13:01.32Z</time></trkpt><trkpt lat="43.7678316" lon="12.1087134"><ele>918.3333333333333</ele><time>2026-05-02T14:13:02.319Z</time></trkpt><trkpt lat="43.7678661" lon="12.1089434"><ele>918.0</ele><time>2026-05-02T14:13:03.321Z</time></trkpt><trkpt lat="43.767935" lon="12.1091838"><ele>916.3333333333333</ele><time>2026-05-02T14:13:04.321Z</time></trkpt><trkpt lat="43.7680285" lon="12.1094326"><ele>914.6666666666666</ele><time>2026-05-02T14:13:05.321Z</time></trkpt><trkpt lat="43.7681353" lon="12.1096564"><ele>913.0</ele><time>2026-05-02T14:13:06.316Z</time></trkpt><trkpt lat="43.7682511" lon="12.1098902"><ele>917.3333333333333</ele><time>2026-05-02T14:13:07.312Z</time></trkpt><trkpt lat="43.7683868" lon="12.110098"><ele>921.6666666666667</ele><time>2026-05-02T14:13:08.313Z</time></trkpt><trkpt lat="43.76854" lon="12.1102819"><ele>926.0</ele><time>2026-05-02T14:13:09.317Z</time></trkpt><trkpt lat="43.7686903" lon="12.1104559"><ele>926.0</ele><time>2026-05-02T14:13:10.316Z</time></trkpt><trkpt lat="43.7688398" lon="12.1106351"><ele>926.0</ele><time>2026-05-02T14:13:11.317Z</time></trkpt><trkpt lat="43.7689753" lon="12.1108272"><ele>926.0</ele><time>2026-05-02T14:13:12.316Z</time></trkpt><trkpt lat="43.7690938" lon="12.1110346"><ele>917.6666666666667</ele><time>2026-05-02T14:13:13.315Z</time></trkpt><trkpt lat="43.7691956" lon="12.1112597"><ele>909.3333333333333</ele><time>2026-05-02T14:13:14.316Z</time></trkpt><trkpt lat="43.7692865" lon="12.1114988"><ele>901.0</ele><time>2026-05-02T14:13:15.313Z</time></trkpt><trkpt lat="43.7693538" lon="12.1117478"><ele>899.0</ele><time>2026-05-02T14:13:16.319Z</time></trkpt><trkpt lat="43.7694095" lon="12.1120001"><ele>897.0</ele><time>2026-05-02T14:13:17.321Z</time></trkpt><trkpt lat="43.7694673" lon="12.1122499"><ele>895.0</ele><time>2026-05-02T14:13:18.32Z</time></trkpt><trkpt lat="43.7695185" lon="12.1124966"><ele>889.3333333333333</ele><time>2026-05-02T14:13:19.32Z</time></trkpt><trkpt lat="43.7695585" lon="12.1127333"><ele>883.6666666666667</ele><time>2026-05-02T14:13:20.321Z</time></trkpt><trkpt lat="43.7695987" lon="12.112951"><ele>878.0</ele><time>2026-05-02T14:13:21.322Z</time></trkpt><trkpt lat="43.7696581" lon="12.1131324"><ele>875.5</ele><time>2026-05-02T14:13:22.32Z</time></trkpt><trkpt lat="43.7697416" lon="12.1132722"><ele>873.0</ele><time>2026-05-02T14:13:23.321Z</time></trkpt><trkpt lat="43.7698513" lon="12.1133764"><ele>870.5</ele><time>2026-05-02T14:13:24.318Z</time></trkpt><trkpt lat="43.769957" lon="12.113464"><ele>868.0</ele><time>2026-05-02T14:13:25.32Z</time></trkpt><trkpt lat="43.7701159" lon="12.1134938"><ele>869.6666666666666</ele><time>2026-05-02T14:13:26.32Z</time></trkpt><trkpt lat="43.7702989" lon="12.1134698"><ele>871.3333333333333</ele><time>2026-05-02T14:13:27.321Z</time></trkpt><trkpt lat="43.7704487" lon="12.1134991"><ele>873.0</ele><time>2026-05-02T14:13:28.321Z</time></trkpt><trkpt lat="43.770593" lon="12.1135634"><ele>873.0</ele><time>2026-05-02T14:13:29.322Z</time></trkpt><trkpt lat="43.7707094" lon="12.1136787"><ele>873.0</ele><time>2026-05-02T14:13:30.321Z</time></trkpt><trkpt lat="43.7707913" lon="12.1138315"><ele>873.0</ele><time>2026-05-02T14:13:31.323Z</time></trkpt><trkpt lat="43.7708627" lon="12.1140129"><ele>873.0</ele><time>2026-05-02T14:13:32.321Z</time></trkpt><trkpt lat="43.7709141" lon="12.1142142"><ele>869.6666666666667</ele><time>2026-05-02T14:13:33.321Z</time></trkpt><trkpt lat="43.7708618" lon="12.1144932"><ele>866.3333333333334</ele><time>2026-05-02T14:13:34.322Z</time></trkpt><trkpt lat="43.7708539" lon="12.1147686"><ele>863.0</ele><time>2026-05-02T14:13:35.323Z</time></trkpt><trkpt lat="43.7708851" lon="12.1150159"><ele>859.6666666666667</ele><time>2026-05-02T14:13:36.322Z</time></trkpt><trkpt lat="43.7709506" lon="12.1152544"><ele>856.3333333333333</ele><time>2026-05-02T14:13:37.322Z</time></trkpt><trkpt lat="43.7710478" lon="12.1155144"><ele>853.0</ele><time>2026-05-02T14:13:38.321Z</time></trkpt><trkpt lat="43.7711479" lon="12.1157554"><ele>853.0</ele><time>2026-05-02T14:13:39.321Z</time></trkpt><trkpt lat="43.7712591" lon="12.1159844"><ele>853.0</ele><time>2026-05-02T14:13:40.321Z</time></trkpt><trkpt lat="43.7713687" lon="12.1162029"><ele>853.0</ele><time>2026-05-02T14:13:41.323Z</time></trkpt><trkpt lat="43.7714771" lon="12.1164081"><ele>853.0</ele><time>2026-05-02T14:13:42.322Z</time></trkpt><trkpt lat="43.7716318" lon="12.1165616"><ele>853.0</ele><time>2026-05-02T14:13:43.319Z</time></trkpt><trkpt lat="43.7717764" lon="12.1167213"><ele>853.0</ele><time>2026-05-02T14:13:44.323Z</time></trkpt><trkpt lat="43.7719182" lon="12.1168547"><ele>854.25</ele><time>2026-05-02T14:13:45.321Z</time></trkpt><trkpt lat="43.7720533" lon="12.1169713"><ele>855.5</ele><time>2026-05-02T14:13:46.323Z</time></trkpt><trkpt lat="43.7721454" lon="12.1170746"><ele>856.75</ele><time>2026-05-02T14:13:47.321Z</time></trkpt><trkpt lat="43.7722591" lon="12.1171797"><ele>858.0</ele><time>2026-05-02T14:13:48.32Z</time></trkpt><trkpt lat="43.7723411" lon="12.1173177"><ele>853.25</ele><time>2026-05-02T14:13:49.323Z</time></trkpt><trkpt lat="43.7722008" lon="12.1174436"><ele>848.5</ele><time>2026-05-02T14:13:50.321Z</time></trkpt><trkpt lat="43.7721463" lon="12.1175339"><ele>843.75</ele><time>2026-05-02T14:13:51.321Z</time></trkpt><trkpt lat="43.7720475" lon="12.1175362"><ele>839.0</ele><time>2026-05-02T14:13:52.32Z</time></trkpt><trkpt lat="43.7719411" lon="12.1174678"><ele>838.0</ele><time>2026-05-02T14:13:53.321Z</time></trkpt><trkpt lat="43.771822" lon="12.1173655"><ele>837.0</ele><time>2026-05-02T14:13:54.322Z</time></trkpt><trkpt lat="43.771705" lon="12.1172375"><ele>836.0</ele><time>2026-05-02T14:13:55.321Z</time></trkpt><trkpt lat="43.7715842" lon="12.1171266"><ele>835.0</ele><time>2026-05-02T14:13:56.321Z</time></trkpt><trkpt lat="43.7714666" lon="12.1169973"><ele>835.0</ele><time>2026-05-02T14:13:57.324Z</time></trkpt><trkpt lat="43.7713612" lon="12.1168594"><ele>835.0</ele><time>2026-05-02T14:13:58.32Z</time></trkpt><trkpt lat="43.7712568" lon="12.116735"><ele>835.0</ele><time>2026-05-02T14:13:59.32Z</time></trkpt><trkpt lat="43.7711614" lon="12.1166481"><ele>835.0</ele><time>2026-05-02T14:14:00.32Z</time></trkpt><trkpt lat="43.7710662" lon="12.116594"><ele>832.0</ele><time>2026-05-02T14:14:01.321Z</time></trkpt><trkpt lat="43.7709734" lon="12.1166909"><ele>829.0</ele><time>2026-05-02T14:14:02.321Z</time></trkpt><trkpt lat="43.7709162" lon="12.1167974"><ele>826.0</ele><time>2026-05-02T14:14:03.322Z</time></trkpt><trkpt lat="43.7709015" lon="12.1169239"><ele>823.0</ele><time>2026-05-02T14:14:04.325Z</time></trkpt><trkpt lat="43.7709379" lon="12.1170518"><ele>820.0</ele><time>2026-05-02T14:14:05.323Z</time></trkpt><trkpt lat="43.7710089" lon="12.1171587"><ele>821.3333333333333</ele><time>2026-05-02T14:14:06.322Z</time></trkpt><trkpt lat="43.7711174" lon="12.1172834"><ele>822.6666666666667</ele><time>2026-05-02T14:14:07.32Z</time></trkpt><trkpt lat="43.7712578" lon="12.1174395"><ele>824.0</ele><time>2026-05-02T14:14:08.321Z</time></trkpt><trkpt lat="43.7714174" lon="12.1176264"><ele>824.0</ele><time>2026-05-02T14:14:09.321Z</time></trkpt><trkpt lat="43.7715737" lon="12.1178157"><ele>824.0</ele><time>2026-05-02T14:14:10.321Z</time></trkpt><trkpt lat="43.7717151" lon="12.1180115"><ele>824.0</ele><time>2026-05-02T14:14:11.32Z</time></trkpt><trkpt lat="43.7718533" lon="12.1181934"><ele>822.3333333333334</ele><time>2026-05-02T14:14:12.32Z</time></trkpt><trkpt lat="43.7720061" lon="12.1183463"><ele>820.6666666666667</ele><time>2026-05-02T14:14:13.32Z</time></trkpt><trkpt lat="43.7721758" lon="12.1184676"><ele>819.0</ele><time>2026-05-02T14:14:14.322Z</time></trkpt><trkpt lat="43.7723552" lon="12.1185288"><ele>819.0</ele><time>2026-05-02T14:14:15.322Z</time></trkpt><trkpt lat="43.772547" lon="12.1185966"><ele>819.0</ele><time>2026-05-02T14:14:16.322Z</time></trkpt><trkpt lat="43.7727147" lon="12.1186617"><ele>819.0</ele><time>2026-05-02T14:14:17.32Z</time></trkpt><trkpt lat="43.7728879" lon="12.1187152"><ele>822.0</ele><time>2026-05-02T14:14:18.32Z</time></trkpt><trkpt lat="43.7730513" lon="12.1187611"><ele>825.0</ele><time>2026-05-02T14:14:19.323Z</time></trkpt><trkpt lat="43.7732163" lon="12.1188165"><ele>828.0</ele><time>2026-05-02T14:14:20.32Z</time></trkpt><trkpt lat="43.7732875" lon="12.1188975"><ele>831.0</ele><time>2026-05-02T14:14:21.32Z</time></trkpt><trkpt lat="43.7733973" lon="12.1189987"><ele>824.75</ele><time>2026-05-02T14:14:22.32Z</time></trkpt><trkpt lat="43.7734808" lon="12.1191404"><ele>818.5</ele><time>2026-05-02T14:14:23.32Z</time></trkpt><trkpt lat="43.773551" lon="12.1192864"><ele>812.25</ele><time>2026-05-02T14:14:24.32Z</time></trkpt><trkpt lat="43.7735732" lon="12.1194731"><ele>806.0</ele><time>2026-05-02T14:14:25.318Z</time></trkpt><trkpt lat="43.7735078" lon="12.1196385"><ele>804.3333333333334</ele><time>2026-05-02T14:14:26.321Z</time></trkpt><trkpt lat="43.7733552" lon="12.1197973"><ele>802.6666666666667</ele><time>2026-05-02T14:14:27.32Z</time></trkpt><trkpt lat="43.7732374" lon="12.1198909"><ele>801.0</ele><time>2026-05-02T14:14:28.32Z</time></trkpt><trkpt lat="43.7730957" lon="12.119891"><ele>801.0</ele><time>2026-05-02T14:14:29.319Z</time></trkpt><trkpt lat="43.7729521" lon="12.1198585"><ele>801.0</ele><time>2026-05-02T14:14:30.32Z</time></trkpt><trkpt lat="43.7727152" lon="12.1196631"><ele>801.0</ele><time>2026-05-02T14:14:31.32Z</time></trkpt><trkpt lat="43.7725607" lon="12.1196039"><ele>801.0</ele><time>2026-05-02T14:14:32.321Z</time></trkpt><trkpt lat="43.7724192" lon="12.1195216"><ele>801.0</ele><time>2026-05-02T14:14:33.32Z</time></trkpt><trkpt lat="43.7722942" lon="12.1194783"><ele>801.0</ele><time>2026-05-02T14:14:34.319Z</time></trkpt><trkpt lat="43.7721927" lon="12.1194867"><ele>801.0</ele><time>2026-05-02T14:14:35.322Z</time></trkpt><trkpt lat="43.7721185" lon="12.1195635"><ele>801.0</ele><time>2026-05-02T14:14:36.321Z</time></trkpt><trkpt lat="43.7720957" lon="12.11968"><ele>801.0</ele><time>2026-05-02T14:14:37.32Z</time></trkpt><trkpt lat="43.7721243" lon="12.1198142"><ele>801.0</ele><time>2026-05-02T14:14:38.32Z</time></trkpt><trkpt lat="43.7721973" lon="12.1199378"><ele>801.0</ele><time>2026-05-02T14:14:39.32Z</time></trkpt><trkpt lat="43.7723011" lon="12.1200373"><ele>801.0</ele><time>2026-05-02T14:14:40.319Z</time></trkpt><trkpt lat="43.7724323" lon="12.1201164"><ele>797.0</ele><time>2026-05-02T14:14:41.321Z</time></trkpt><trkpt lat="43.7725938" lon="12.1202114"><ele>793.0</ele><time>2026-05-02T14:14:42.32Z</time></trkpt><trkpt lat="43.7727556" lon="12.1203244"><ele>789.0</ele><time>2026-05-02T14:14:43.319Z</time></trkpt><trkpt lat="43.7729258" lon="12.1204408"><ele>789.0</ele><time>2026-05-02T14:14:44.322Z</time></trkpt><trkpt lat="43.773094" lon="12.1205418"><ele>789.0</ele><time>2026-05-02T14:14:45.316Z</time></trkpt><trkpt lat="43.7732563" lon="12.1206474"><ele>789.0</ele><time>2026-05-02T14:14:46.325Z</time></trkpt><trkpt lat="43.773231" lon="12.1209495"><ele>786.3333333333333</ele><time>2026-05-02T14:14:47.318Z</time></trkpt><trkpt lat="43.7733164" lon="12.121144"><ele>783.6666666666666</ele><time>2026-05-02T14:14:48.323Z</time></trkpt><trkpt lat="43.7733913" lon="12.1213682"><ele>781.0</ele><time>2026-05-02T14:14:49.322Z</time></trkpt><trkpt lat="43.7734661" lon="12.1215448"><ele>781.25</ele><time>2026-05-02T14:14:50.325Z</time></trkpt><trkpt lat="43.7735462" lon="12.1217138"><ele>781.5</ele><time>2026-05-02T14:14:51.317Z</time></trkpt><trkpt lat="43.7736263" lon="12.1218541"><ele>781.75</ele><time>2026-05-02T14:14:52.323Z</time></trkpt><trkpt lat="43.7737294" lon="12.1219581"><ele>782.0</ele><time>2026-05-02T14:14:53.323Z</time></trkpt><trkpt lat="43.7738423" lon="12.1220066"><ele>782.0</ele><time>2026-05-02T14:14:54.322Z</time></trkpt><trkpt lat="43.7740336" lon="12.1220502"><ele>782.0</ele><time>2026-05-02T14:14:55.322Z</time></trkpt><trkpt lat="43.7741573" lon="12.122104"><ele>782.0</ele><time>2026-05-02T14:14:56.322Z</time></trkpt><trkpt lat="43.7743125" lon="12.1222175"><ele>778.0</ele><time>2026-05-02T14:14:57.323Z</time></trkpt><trkpt lat="43.7743443" lon="12.1224475"><ele>774.0</ele><time>2026-05-02T14:14:58.322Z</time></trkpt><trkpt lat="43.7743845" lon="12.1226888"><ele>770.0</ele><time>2026-05-02T14:14:59.322Z</time></trkpt><trkpt lat="43.7743944" lon="12.1229425"><ele>774.6666666666667</ele><time>2026-05-02T14:15:00.322Z</time></trkpt><trkpt lat="43.7744524" lon="12.1231501"><ele>779.3333333333333</ele><time>2026-05-02T14:15:01.319Z</time></trkpt><trkpt lat="43.7745206" lon="12.123419"><ele>784.0</ele><time>2026-05-02T14:15:02.319Z</time></trkpt><trkpt lat="43.7745848" lon="12.1236413"><ele>784.0</ele><time>2026-05-02T14:15:03.322Z</time></trkpt><trkpt lat="43.7746528" lon="12.1238782"><ele>784.0</ele><time>2026-05-02T14:15:04.321Z</time></trkpt><trkpt lat="43.7747254" lon="12.124114"><ele>784.0</ele><time>2026-05-02T14:15:05.323Z</time></trkpt><trkpt lat="43.7748099" lon="12.1243261"><ele>779.3333333333333</ele><time>2026-05-02T14:15:06.324Z</time></trkpt><trkpt lat="43.7749209" lon="12.1245057"><ele>774.6666666666667</ele><time>2026-05-02T14:15:07.321Z</time></trkpt><trkpt lat="43.7750002" lon="12.1247183"><ele>770.0</ele><time>2026-05-02T14:15:08.322Z</time></trkpt><trkpt lat="43.7750892" lon="12.1249189"><ele>775.0</ele><time>2026-05-02T14:15:09.324Z</time></trkpt><trkpt lat="43.7751829" lon="12.1251088"><ele>780.0</ele><time>2026-05-02T14:15:10.322Z</time></trkpt><trkpt lat="43.7752731" lon="12.1253004"><ele>785.0</ele><time>2026-05-02T14:15:11.323Z</time></trkpt><trkpt lat="43.7753657" lon="12.1254968"><ele>785.0</ele><time>2026-05-02T14:15:12.322Z</time></trkpt><trkpt lat="43.7754518" lon="12.1256975"><ele>785.0</ele><time>2026-05-02T14:15:13.321Z</time></trkpt><trkpt lat="43.775538" lon="12.1258958"><ele>785.0</ele><time>2026-05-02T14:15:14.323Z</time></trkpt><trkpt lat="43.7756221" lon="12.1260967"><ele>775.6666666666667</ele><time>2026-05-02T14:15:15.324Z</time></trkpt><trkpt lat="43.7757046" lon="12.1262858"><ele>766.3333333333334</ele><time>2026-05-02T14:15:16.321Z</time></trkpt><trkpt lat="43.7757874" lon="12.1264795"><ele>757.0</ele><time>2026-05-02T14:15:17.318Z</time></trkpt><trkpt lat="43.7758627" lon="12.1266621"><ele>759.5</ele><time>2026-05-02T14:15:18.321Z</time></trkpt><trkpt lat="43.7759383" lon="12.1268384"><ele>762.0</ele><time>2026-05-02T14:15:19.32Z</time></trkpt><trkpt lat="43.776016" lon="12.12701"><ele>764.5</ele><time>2026-05-02T14:15:20.321Z</time></trkpt><trkpt lat="43.7761" lon="12.127174"><ele>767.0</ele><time>2026-05-02T14:15:21.32Z</time></trkpt><trkpt lat="43.7762025" lon="12.1273269"><ele>758.6666666666666</ele><time>2026-05-02T14:15:22.321Z</time></trkpt><trkpt lat="43.7763286" lon="12.1274738"><ele>750.3333333333334</ele><time>2026-05-02T14:15:23.32Z</time></trkpt><trkpt lat="43.7764643" lon="12.1276295"><ele>742.0</ele><time>2026-05-02T14:15:24.32Z</time></trkpt><trkpt lat="43.7766028" lon="12.1277703"><ele>742.0</ele><time>2026-05-02T14:15:25.321Z</time></trkpt><trkpt lat="43.7767372" lon="12.1278995"><ele>742.0</ele><time>2026-05-02T14:15:26.322Z</time></trkpt><trkpt lat="43.7768729" lon="12.128016"><ele>742.0</ele><time>2026-05-02T14:15:27.321Z</time></trkpt><trkpt lat="43.7769744" lon="12.1280899"><ele>742.0</ele><time>2026-05-02T14:15:28.321Z</time></trkpt><trkpt lat="43.7770642" lon="12.1281737"><ele>741.0</ele><time>2026-05-02T14:15:29.321Z</time></trkpt><trkpt lat="43.7771088" lon="12.1282818"><ele>740.0</ele><time>2026-05-02T14:15:30.323Z</time></trkpt><trkpt lat="43.7771007" lon="12.1283798"><ele>739.0</ele><time>2026-05-02T14:15:31.32Z</time></trkpt><trkpt lat="43.777083" lon="12.1284722"><ele>738.0</ele><time>2026-05-02T14:15:32.32Z</time></trkpt><trkpt lat="43.777031" lon="12.1285483"><ele>737.0</ele><time>2026-05-02T14:15:33.32Z</time></trkpt><trkpt lat="43.776879" lon="12.1284065"><ele>738.0</ele><time>2026-05-02T14:15:34.321Z</time></trkpt><trkpt lat="43.7767937" lon="12.128383"><ele>739.0</ele><time>2026-05-02T14:15:35.321Z</time></trkpt><trkpt lat="43.7766928" lon="12.1283388"><ele>740.0</ele><time>2026-05-02T14:15:36.321Z</time></trkpt><trkpt lat="43.7765944" lon="12.1283174"><ele>741.0</ele><time>2026-05-02T14:15:37.322Z</time></trkpt><trkpt lat="43.7765019" lon="12.1282141"><ele>742.0</ele><time>2026-05-02T14:15:38.321Z</time></trkpt><trkpt lat="43.776332" lon="12.1280761"><ele>742.0</ele><time>2026-05-02T14:15:39.322Z</time></trkpt><trkpt lat="43.776156" lon="12.127916"><ele>742.0</ele><time>2026-05-02T14:15:40.321Z</time></trkpt><trkpt lat="43.7760286" lon="12.1277738"><ele>742.0</ele><time>2026-05-02T14:15:41.322Z</time></trkpt><trkpt lat="43.7759115" lon="12.127633"><ele>736.75</ele><time>2026-05-02T14:15:42.321Z</time></trkpt><trkpt lat="43.7757904" lon="12.1275112"><ele>731.5</ele><time>2026-05-02T14:15:43.321Z</time></trkpt><trkpt lat="43.7756675" lon="12.1274138"><ele>726.25</ele><time>2026-05-02T14:15:44.322Z</time></trkpt><trkpt lat="43.7755258" lon="12.1274707"><ele>721.0</ele><time>2026-05-02T14:15:45.323Z</time></trkpt><trkpt lat="43.7754036" lon="12.1274532"><ele>721.0</ele><time>2026-05-02T14:15:46.319Z</time></trkpt><trkpt lat="43.7752966" lon="12.1274886"><ele>721.0</ele><time>2026-05-02T14:15:47.32Z</time></trkpt><trkpt lat="43.7752118" lon="12.127667"><ele>721.0</ele><time>2026-05-02T14:15:48.32Z</time></trkpt><trkpt lat="43.7751223" lon="12.1277378"><ele>721.0</ele><time>2026-05-02T14:15:49.321Z</time></trkpt><trkpt lat="43.7750495" lon="12.1278269"><ele>720.4</ele><time>2026-05-02T14:15:50.323Z</time></trkpt><trkpt lat="43.7749686" lon="12.1279062"><ele>719.8</ele><time>2026-05-02T14:15:51.317Z</time></trkpt><trkpt lat="43.7749225" lon="12.1279896"><ele>719.1999999999999</ele><time>2026-05-02T14:15:52.322Z</time></trkpt><trkpt lat="43.7748949" lon="12.1281158"><ele>718.5999999999999</ele><time>2026-05-02T14:15:53.321Z</time></trkpt><trkpt lat="43.7748767" lon="12.1282452"><ele>718.0</ele><time>2026-05-02T14:15:54.32Z</time></trkpt><trkpt lat="43.7749431" lon="12.1283359"><ele>718.0</ele><time>2026-05-02T14:15:55.321Z</time></trkpt><trkpt lat="43.7750815" lon="12.1282599"><ele>718.0</ele><time>2026-05-02T14:15:56.322Z</time></trkpt><trkpt lat="43.7751476" lon="12.1281888"><ele>718.0</ele><time>2026-05-02T14:15:58.321Z</time></trkpt><trkpt lat="43.7751372" lon="12.1280624"><ele>718.0</ele><time>2026-05-02T14:16:00.319Z</time></trkpt><trkpt lat="43.7750915" lon="12.1279958"><ele>718.0</ele><time>2026-05-02T14:16:02.321Z</time></trkpt><trkpt lat="43.775028" lon="12.1280276"><ele>716.0</ele><time>2026-05-02T14:16:13.319Z</time></trkpt><trkpt lat="43.7750138" lon="12.1281803"><ele>714.0</ele><time>2026-05-02T14:16:15.323Z</time></trkpt><trkpt lat="43.7733164" lon="12.121144"><ele>736.3333333333333</ele><time>2026-05-02T14:14:48.323Z</time></trkpt><trkpt lat="43.7733913" lon="12.1213682"><ele>758.6666666666666</ele><time>2026-05-02T14:14:49.322Z</time></trkpt><trkpt lat="43.7734661" lon="12.1215448"><ele>781.0</ele><time>2026-05-02T14:14:50.325Z</time></trkpt><trkpt lat="43.7735462" lon="12.1217138"><ele>781.25</ele><time>2026-05-02T14:14:51.317Z</time></trkpt><trkpt lat="43.7736263" lon="12.1218541"><ele>781.5</ele><time>2026-05-02T14:14:52.323Z</time></trkpt><trkpt lat="43.7737294" lon="12.1219581"><ele>781.75</ele><time>2026-05-02T14:14:53.323Z</time></trkpt><trkpt lat="43.7738423" lon="12.1220066"><ele>782.0</ele><time>2026-05-02T14:14:54.322Z</time></trkpt><trkpt lat="43.7740336" lon="12.1220502"><ele>782.0</ele><time>2026-05-02T14:14:55.322Z</time></trkpt><trkpt lat="43.7741573" lon="12.122104"><ele>782.0</ele><time>2026-05-02T14:14:56.322Z</time></trkpt><trkpt lat="43.7743125" lon="12.1222175"><ele>782.0</ele><time>2026-05-02T14:14:57.323Z</time></trkpt><trkpt lat="43.7743443" lon="12.1224475"><ele>788.3333333333334</ele><time>2026-05-02T14:14:58.322Z</time></trkpt><trkpt lat="43.7743845" lon="12.1226888"><ele>794.6666666666667</ele><time>2026-05-02T14:14:59.322Z</time></trkpt><trkpt lat="43.7743944" lon="12.1229425"><ele>801.0</ele><time>2026-05-02T14:15:00.322Z</time></trkpt><trkpt lat="43.7744524" lon="12.1231501"><ele>795.3333333333333</ele><time>2026-05-02T14:15:01.319Z</time></trkpt><trkpt lat="43.7745206" lon="12.123419"><ele>789.6666666666666</ele><time>2026-05-02T14:15:02.319Z</time></trkpt><trkpt lat="43.7745848" lon="12.1236413"><ele>784.0</ele><time>2026-05-02T14:15:03.322Z</time></trkpt><trkpt lat="43.7746528" lon="12.1238782"><ele>779.3333333333333</ele><time>2026-05-02T14:15:04.321Z</time></trkpt><trkpt lat="43.7747254" lon="12.124114"><ele>774.6666666666667</ele><time>2026-05-02T14:15:05.323Z</time></trkpt><trkpt lat="43.7748099" lon="12.1243261"><ele>770.0</ele><time>2026-05-02T14:15:06.324Z</time></trkpt><trkpt lat="43.7749209" lon="12.1245057"><ele>770.0</ele><time>2026-05-02T14:15:07.321Z</time></trkpt><trkpt lat="43.7750002" lon="12.1247183"><ele>770.0</ele><time>2026-05-02T14:15:08.322Z</time></trkpt><trkpt lat="43.7750892" lon="12.1249189"><ele>770.0</ele><time>2026-05-02T14:15:09.324Z</time></trkpt><trkpt lat="43.7751829" lon="12.1251088"><ele>775.0</ele><time>2026-05-02T14:15:10.322Z</time></trkpt><trkpt lat="43.7752731" lon="12.1253004"><ele>780.0</ele><time>2026-05-02T14:15:11.323Z</time></trkpt><trkpt lat="43.7753657" lon="12.1254968"><ele>785.0</ele><time>2026-05-02T14:15:12.322Z</time></trkpt><trkpt lat="43.7754518" lon="12.1256975"><ele>775.6666666666667</ele><time>2026-05-02T14:15:13.321Z</time></trkpt><trkpt lat="43.775538" lon="12.1258958"><ele>766.3333333333334</ele><time>2026-05-02T14:15:14.323Z</time></trkpt><trkpt lat="43.7756221" lon="12.1260967"><ele>757.0</ele><time>2026-05-02T14:15:15.324Z</time></trkpt><trkpt lat="43.7757046" lon="12.1262858"><ele>757.0</ele><time>2026-05-02T14:15:16.321Z</time></trkpt><trkpt lat="43.7757874" lon="12.1264795"><ele>757.0</ele><time>2026-05-02T14:15:17.318Z</time></trkpt><trkpt lat="43.7758627" lon="12.1266621"><ele>757.0</ele><time>2026-05-02T14:15:18.321Z</time></trkpt><trkpt lat="43.7759383" lon="12.1268384"><ele>759.5</ele><time>2026-05-02T14:15:19.32Z</time></trkpt><trkpt lat="43.776016" lon="12.12701"><ele>762.0</ele><time>2026-05-02T14:15:20.321Z</time></trkpt><trkpt lat="43.7761" lon="12.127174"><ele>764.5</ele><time>2026-05-02T14:15:21.32Z</time></trkpt><trkpt lat="43.7762025" lon="12.1273269"><ele>767.0</ele><time>2026-05-02T14:15:22.321Z</time></trkpt><trkpt lat="43.7763286" lon="12.1274738"><ele>758.6666666666666</ele><time>2026-05-02T14:15:23.32Z</time></trkpt><trkpt lat="43.7764643" lon="12.1276295"><ele>750.3333333333334</ele><time>2026-05-02T14:15:24.32Z</time></trkpt><trkpt lat="43.7766028" lon="12.1277703"><ele>742.0</ele><time>2026-05-02T14:15:25.321Z</time></trkpt><trkpt lat="43.7767372" lon="12.1278995"><ele>740.75</ele><time>2026-05-02T14:15:26.322Z</time></trkpt><trkpt lat="43.7768729" lon="12.128016"><ele>739.5</ele><time>2026-05-02T14:15:27.321Z</time></trkpt><trkpt lat="43.7769744" lon="12.1280899"><ele>738.25</ele><time>2026-05-02T14:15:28.321Z</time></trkpt><trkpt lat="43.7770642" lon="12.1281737"><ele>737.0</ele><time>2026-05-02T14:15:29.321Z</time></trkpt><trkpt lat="43.7771088" lon="12.1282818"><ele>737.0</ele><time>2026-05-02T14:15:30.323Z</time></trkpt><trkpt lat="43.7771007" lon="12.1283798"><ele>737.0</ele><time>2026-05-02T14:15:31.32Z</time></trkpt><trkpt lat="43.777083" lon="12.1284722"><ele>737.0</ele><time>2026-05-02T14:15:32.32Z</time></trkpt><trkpt lat="43.777031" lon="12.1285483"><ele>737.0</ele><time>2026-05-02T14:15:33.32Z</time></trkpt><trkpt lat="43.776879" lon="12.1284065"><ele>737.0</ele><time>2026-05-02T14:15:34.321Z</time></trkpt><trkpt lat="43.7767937" lon="12.128383"><ele>738.25</ele><time>2026-05-02T14:15:35.321Z</time></trkpt><trkpt lat="43.7766928" lon="12.1283388"><ele>739.5</ele><time>2026-05-02T14:15:36.321Z</time></trkpt><trkpt lat="43.7765944" lon="12.1283174"><ele>740.75</ele><time>2026-05-02T14:15:37.322Z</time></trkpt><trkpt lat="43.7765019" lon="12.1282141"><ele>742.0</ele><time>2026-05-02T14:15:38.321Z</time></trkpt><trkpt lat="43.776332" lon="12.1280761"><ele>742.0</ele><time>2026-05-02T14:15:39.322Z</time></trkpt><trkpt lat="43.776156" lon="12.127916"><ele>742.0</ele><time>2026-05-02T14:15:40.321Z</time></trkpt><trkpt lat="43.7760286" lon="12.1277738"><ele>742.0</ele><time>2026-05-02T14:15:41.322Z</time></trkpt><trkpt lat="43.7759115" lon="12.127633"><ele>736.75</ele><time>2026-05-02T14:15:42.321Z</time></trkpt><trkpt lat="43.7757904" lon="12.1275112"><ele>731.5</ele><time>2026-05-02T14:15:43.321Z</time></trkpt><trkpt lat="43.7756675" lon="12.1274138"><ele>726.25</ele><time>2026-05-02T14:15:44.322Z</time></trkpt><trkpt lat="43.7755258" lon="12.1274707"><ele>721.0</ele><time>2026-05-02T14:15:45.323Z</time></trkpt><trkpt lat="43.7754036" lon="12.1274532"><ele>721.0</ele><time>2026-05-02T14:15:46.319Z</time></trkpt><trkpt lat="43.7752966" lon="12.1274886"><ele>721.0</ele><time>2026-05-02T14:15:47.32Z</time></trkpt><trkpt lat="43.7752118" lon="12.127667"><ele>721.0</ele><time>2026-05-02T14:15:48.32Z</time></trkpt><trkpt lat="43.7751223" lon="12.1277378"><ele>721.0</ele><time>2026-05-02T14:15:49.321Z</time></trkpt><trkpt lat="43.7750495" lon="12.1278269"><ele>720.4</ele><time>2026-05-02T14:15:50.323Z</time></trkpt><trkpt lat="43.7749686" lon="12.1279062"><ele>719.8</ele><time>2026-05-02T14:15:51.317Z</time></trkpt><trkpt lat="43.7749225" lon="12.1279896"><ele>719.1999999999999</ele><time>2026-05-02T14:15:52.322Z</time></trkpt><trkpt lat="43.7748949" lon="12.1281158"><ele>718.5999999999999</ele><time>2026-05-02T14:15:53.321Z</time></trkpt><trkpt lat="43.7748767" lon="12.1282452"><ele>718.0</ele><time>2026-05-02T14:15:54.32Z</time></trkpt><trkpt lat="43.7749431" lon="12.1283359"><ele>718.0</ele><time>2026-05-02T14:15:55.321Z</time></trkpt><trkpt lat="43.7750815" lon="12.1282599"><ele>718.0</ele><time>2026-05-02T14:15:56.322Z</time></trkpt><trkpt lat="43.7751476" lon="12.1281888"><ele>718.0</ele><time>2026-05-02T14:15:58.321Z</time></trkpt><trkpt lat="43.7751372" lon="12.1280624"><ele>718.0</ele><time>2026-05-02T14:16:00.319Z</time></trkpt><trkpt lat="43.7750915" lon="12.1279958"><ele>718.0</ele><time>2026-05-02T14:16:02.321Z</time></trkpt><trkpt lat="43.775028" lon="12.1280276"><ele>718.0</ele><time>2026-05-02T14:16:13.319Z</time></trkpt><trkpt lat="43.7750138" lon="12.1281803"><ele>718.0</ele><time>2026-05-02T14:16:15.323Z</time></trkpt><trkpt lat="43.7751127" lon="12.1283507"><ele>718.0</ele><time>2026-05-02T14:16:16.333Z</time></trkpt><trkpt lat="43.7751821" lon="12.1284701"><ele>718.0</ele><time>2026-05-02T14:16:17.32Z</time></trkpt><trkpt lat="43.7752517" lon="12.1285792"><ele>715.75</ele><time>2026-05-02T14:16:18.32Z</time></trkpt><trkpt lat="43.775348" lon="12.1286682"><ele>713.5</ele><time>2026-05-02T14:16:19.32Z</time></trkpt><trkpt lat="43.7754393" lon="12.1287642"><ele>711.25</ele><time>2026-05-02T14:16:20.322Z</time></trkpt><trkpt lat="43.7754905" lon="12.1289274"><ele>709.0</ele><time>2026-05-02T14:16:21.32Z</time></trkpt><trkpt lat="43.7755426" lon="12.1291039"><ele>707.5</ele><time>2026-05-02T14:16:22.324Z</time></trkpt><trkpt lat="43.7755727" lon="12.1292796"><ele>706.0</ele><time>2026-05-02T14:16:23.322Z</time></trkpt><trkpt lat="43.7755897" lon="12.1294545"><ele>704.5</ele><time>2026-05-02T14:16:24.321Z</time></trkpt><trkpt lat="43.7756031" lon="12.1296333"><ele>703.0</ele><time>2026-05-02T14:16:25.321Z</time></trkpt><trkpt lat="43.7755407" lon="12.1297977"><ele>702.5</ele><time>2026-05-02T14:16:26.32Z</time></trkpt><trkpt lat="43.7754983" lon="12.1299623"><ele>702.0</ele><time>2026-05-02T14:16:27.321Z</time></trkpt><trkpt lat="43.7754415" lon="12.1301142"><ele>701.5</ele><time>2026-05-02T14:16:28.321Z</time></trkpt><trkpt lat="43.7753665" lon="12.1303468"><ele>701.0</ele><time>2026-05-02T14:16:29.322Z</time></trkpt><trkpt lat="43.7752876" lon="12.1305062"><ele>701.0</ele><time>2026-05-02T14:16:30.32Z</time></trkpt><trkpt lat="43.7752006" lon="12.1306877"><ele>701.0</ele><time>2026-05-02T14:16:31.321Z</time></trkpt><trkpt lat="43.7750935" lon="12.1308451"><ele>701.0</ele><time>2026-05-02T14:16:32.32Z</time></trkpt><trkpt lat="43.7750163" lon="12.130827"><ele>701.0</ele><time>2026-05-02T14:16:33.322Z</time></trkpt><trkpt lat="43.7749556" lon="12.1309066"><ele>701.75</ele><time>2026-05-02T14:16:34.321Z</time></trkpt><trkpt lat="43.774907" lon="12.1310227"><ele>702.5</ele><time>2026-05-02T14:16:35.321Z</time></trkpt><trkpt lat="43.7748598" lon="12.1311662"><ele>703.25</ele><time>2026-05-02T14:16:36.321Z</time></trkpt><trkpt lat="43.7747996" lon="12.1313767"><ele>704.0</ele><time>2026-05-02T14:16:37.322Z</time></trkpt><trkpt lat="43.7747132" lon="12.1315604"><ele>704.0</ele><time>2026-05-02T14:16:38.323Z</time></trkpt><trkpt lat="43.7746291" lon="12.1317272"><ele>704.0</ele><time>2026-05-02T14:16:39.322Z</time></trkpt><trkpt lat="43.7745599" lon="12.1319194"><ele>704.0</ele><time>2026-05-02T14:16:40.322Z</time></trkpt><trkpt lat="43.7745241" lon="12.1321217"><ele>704.0</ele><time>2026-05-02T14:16:41.321Z</time></trkpt><trkpt lat="43.7745325" lon="12.1323113"><ele>704.0</ele><time>2026-05-02T14:16:42.322Z</time></trkpt><trkpt lat="43.774575" lon="12.1325113"><ele>704.0</ele><time>2026-05-02T14:16:43.321Z</time></trkpt><trkpt lat="43.7746286" lon="12.1327333"><ele>703.6666666666666</ele><time>2026-05-02T14:16:44.32Z</time></trkpt><trkpt lat="43.7746853" lon="12.1329971"><ele>703.3333333333334</ele><time>2026-05-02T14:16:45.322Z</time></trkpt><trkpt lat="43.7747287" lon="12.133248"><ele>703.0</ele><time>2026-05-02T14:16:46.321Z</time></trkpt><trkpt lat="43.7747488" lon="12.1335585"><ele>703.0</ele><time>2026-05-02T14:16:47.322Z</time></trkpt><trkpt lat="43.7747779" lon="12.1338036"><ele>703.0</ele><time>2026-05-02T14:16:48.322Z</time></trkpt><trkpt lat="43.7748047" lon="12.1340539"><ele>703.0</ele><time>2026-05-02T14:16:49.321Z</time></trkpt><trkpt lat="43.7748304" lon="12.1342553"><ele>703.0</ele><time>2026-05-02T14:16:50.32Z</time></trkpt><trkpt lat="43.7748358" lon="12.1344784"><ele>703.0</ele><time>2026-05-02T14:16:51.321Z</time></trkpt><trkpt lat="43.7748257" lon="12.134728"><ele>703.0</ele><time>2026-05-02T14:16:52.321Z</time></trkpt><trkpt lat="43.774779" lon="12.1349987"><ele>703.0</ele><time>2026-05-02T14:16:53.321Z</time></trkpt><trkpt lat="43.7747805" lon="12.1352474"><ele>703.0</ele><time>2026-05-02T14:16:54.32Z</time></trkpt><trkpt lat="43.7747949" lon="12.1355123"><ele>703.0</ele><time>2026-05-02T14:16:55.323Z</time></trkpt><trkpt lat="43.7748207" lon="12.1357742"><ele>703.0</ele><time>2026-05-02T14:16:56.323Z</time></trkpt><trkpt lat="43.7748564" lon="12.1360239"><ele>703.0</ele><time>2026-05-02T14:16:57.322Z</time></trkpt><trkpt lat="43.7749181" lon="12.136276"><ele>703.0</ele><time>2026-05-02T14:16:58.324Z</time></trkpt><trkpt lat="43.7749934" lon="12.1365183"><ele>704.3333333333334</ele><time>2026-05-02T14:16:59.323Z</time></trkpt><trkpt lat="43.7750927" lon="12.1367146"><ele>705.6666666666666</ele><time>2026-05-02T14:17:00.324Z</time></trkpt><trkpt lat="43.7752043" lon="12.1369115"><ele>707.0</ele><time>2026-05-02T14:17:01.323Z</time></trkpt><trkpt lat="43.7753079" lon="12.1371043"><ele>702.5</ele><time>2026-05-02T14:17:02.322Z</time></trkpt><trkpt lat="43.7753719" lon="12.1372896"><ele>698.0</ele><time>2026-05-02T14:17:03.324Z</time></trkpt><trkpt lat="43.7753967" lon="12.1374647"><ele>693.5</ele><time>2026-05-02T14:17:04.323Z</time></trkpt><trkpt lat="43.7753853" lon="12.137612"><ele>689.0</ele><time>2026-05-02T14:17:05.323Z</time></trkpt><trkpt lat="43.7753516" lon="12.1377617"><ele>689.0</ele><time>2026-05-02T14:17:06.322Z</time></trkpt><trkpt lat="43.7752557" lon="12.1378942"><ele>689.0</ele><time>2026-05-02T14:17:07.321Z</time></trkpt><trkpt lat="43.7751977" lon="12.1380401"><ele>689.0</ele><time>2026-05-02T14:17:08.324Z</time></trkpt><trkpt lat="43.7751411" lon="12.1381728"><ele>689.0</ele><time>2026-05-02T14:17:09.322Z</time></trkpt><trkpt lat="43.7752249" lon="12.1382997"><ele>689.75</ele><time>2026-05-02T14:17:10.318Z</time></trkpt><trkpt lat="43.7753042" lon="12.1383879"><ele>690.5</ele><time>2026-05-02T14:17:11.324Z</time></trkpt><trkpt lat="43.7754202" lon="12.1384581"><ele>691.25</ele><time>2026-05-02T14:17:12.323Z</time></trkpt><trkpt lat="43.7755795" lon="12.1385642"><ele>692.0</ele><time>2026-05-02T14:17:13.322Z</time></trkpt><trkpt lat="43.7756972" lon="12.1387004"><ele>692.0</ele><time>2026-05-02T14:17:14.322Z</time></trkpt><trkpt lat="43.7757882" lon="12.1388749"><ele>692.0</ele><time>2026-05-02T14:17:15.322Z</time></trkpt><trkpt lat="43.7758778" lon="12.1390843"><ele>692.0</ele><time>2026-05-02T14:17:16.322Z</time></trkpt><trkpt lat="43.7759755" lon="12.1392906"><ele>689.3333333333333</ele><time>2026-05-02T14:17:17.323Z</time></trkpt><trkpt lat="43.7760708" lon="12.1394923"><ele>686.6666666666666</ele><time>2026-05-02T14:17:18.322Z</time></trkpt><trkpt lat="43.7761624" lon="12.1396925"><ele>684.0</ele><time>2026-05-02T14:17:19.323Z</time></trkpt><trkpt lat="43.7761712" lon="12.1399538"><ele>684.0</ele><time>2026-05-02T14:17:20.324Z</time></trkpt><trkpt lat="43.7761993" lon="12.1402075"><ele>684.0</ele><time>2026-05-02T14:17:21.324Z</time></trkpt><trkpt lat="43.7762001" lon="12.1405022"><ele>684.0</ele><time>2026-05-02T14:17:22.322Z</time></trkpt><trkpt lat="43.7761877" lon="12.1407897"><ele>685.6666666666666</ele><time>2026-05-02T14:17:23.323Z</time></trkpt><trkpt lat="43.7761782" lon="12.1410488"><ele>687.3333333333333</ele><time>2026-05-02T14:17:24.323Z</time></trkpt><trkpt lat="43.776174" lon="12.1412952"><ele>689.0</ele><time>2026-05-02T14:17:25.321Z</time></trkpt><trkpt lat="43.7761643" lon="12.1415212"><ele>691.0</ele><time>2026-05-02T14:17:26.32Z</time></trkpt><trkpt lat="43.7762152" lon="12.1416811"><ele>693.0</ele><time>2026-05-02T14:17:27.324Z</time></trkpt><trkpt lat="43.7763018" lon="12.1418323"><ele>695.0</ele><time>2026-05-02T14:17:28.316Z</time></trkpt><trkpt lat="43.7764922" lon="12.1419528"><ele>695.0</ele><time>2026-05-02T14:17:29.322Z</time></trkpt><trkpt lat="43.7766513" lon="12.1420755"><ele>695.0</ele><time>2026-05-02T14:17:30.322Z</time></trkpt><trkpt lat="43.7768254" lon="12.142141"><ele>695.0</ele><time>2026-05-02T14:17:31.322Z</time></trkpt><trkpt lat="43.7769935" lon="12.1421932"><ele>693.6666666666666</ele><time>2026-05-02T14:17:32.323Z</time></trkpt><trkpt lat="43.777161" lon="12.1422874"><ele>692.3333333333334</ele><time>2026-05-02T14:17:33.323Z</time></trkpt><trkpt lat="43.7773278" lon="12.1424163"><ele>691.0</ele><time>2026-05-02T14:17:34.323Z</time></trkpt><trkpt lat="43.7774749" lon="12.1425725"><ele>691.0</ele><time>2026-05-02T14:17:35.322Z</time></trkpt><trkpt lat="43.7776069" lon="12.142754"><ele>691.0</ele><time>2026-05-02T14:17:36.322Z</time></trkpt><trkpt lat="43.7777302" lon="12.1429601"><ele>691.0</ele><time>2026-05-02T14:17:37.322Z</time></trkpt><trkpt lat="43.7778365" lon="12.1431599"><ele>684.0</ele><time>2026-05-02T14:17:38.322Z</time></trkpt><trkpt lat="43.7779203" lon="12.1433721"><ele>677.0</ele><time>2026-05-02T14:17:39.323Z</time></trkpt><trkpt lat="43.777993" lon="12.1435807"><ele>670.0</ele><time>2026-05-02T14:17:40.322Z</time></trkpt><trkpt lat="43.7779484" lon="12.1438346"><ele>671.0</ele><time>2026-05-02T14:17:41.324Z</time></trkpt><trkpt lat="43.7779414" lon="12.1440689"><ele>672.0</ele><time>2026-05-02T14:17:42.318Z</time></trkpt><trkpt lat="43.7779401" lon="12.1443059"><ele>673.0</ele><time>2026-05-02T14:17:43.321Z</time></trkpt><trkpt lat="43.7779251" lon="12.1445319"><ele>673.0</ele><time>2026-05-02T14:17:44.323Z</time></trkpt><trkpt lat="43.777917" lon="12.1447637"><ele>673.0</ele><time>2026-05-02T14:17:45.324Z</time></trkpt><trkpt lat="43.777923" lon="12.1449783"><ele>673.0</ele><time>2026-05-02T14:17:46.323Z</time></trkpt><trkpt lat="43.7779123" lon="12.1451977"><ele>672.3333333333334</ele><time>2026-05-02T14:17:47.323Z</time></trkpt><trkpt lat="43.7778935" lon="12.1454188"><ele>671.6666666666666</ele><time>2026-05-02T14:17:48.323Z</time></trkpt><trkpt lat="43.7778585" lon="12.1456267"><ele>671.0</ele><time>2026-05-02T14:17:49.322Z</time></trkpt><trkpt lat="43.7778222" lon="12.1458343"><ele>669.25</ele><time>2026-05-02T14:17:50.323Z</time></trkpt><trkpt lat="43.7777905" lon="12.1460344"><ele>667.5</ele><time>2026-05-02T14:17:51.322Z</time></trkpt><trkpt lat="43.7777849" lon="12.1462361"><ele>665.75</ele><time>2026-05-02T14:17:52.324Z</time></trkpt><trkpt lat="43.7778274" lon="12.1464388"><ele>664.0</ele><time>2026-05-02T14:17:53.322Z</time></trkpt><trkpt lat="43.7779094" lon="12.146626"><ele>663.3333333333334</ele><time>2026-05-02T14:17:54.323Z</time></trkpt><trkpt lat="43.7780201" lon="12.1468072"><ele>662.6666666666666</ele><time>2026-05-02T14:17:55.324Z</time></trkpt><trkpt lat="43.7781391" lon="12.1469837"><ele>662.0</ele><time>2026-05-02T14:17:56.324Z</time></trkpt><trkpt lat="43.7782698" lon="12.1471574"><ele>662.0</ele><time>2026-05-02T14:17:57.325Z</time></trkpt><trkpt lat="43.778385" lon="12.1473228"><ele>662.0</ele><time>2026-05-02T14:17:58.323Z</time></trkpt><trkpt lat="43.7784933" lon="12.1474818"><ele>662.0</ele><time>2026-05-02T14:17:59.325Z</time></trkpt><trkpt lat="43.7785986" lon="12.1476351"><ele>662.0</ele><time>2026-05-02T14:18:00.316Z</time></trkpt><trkpt lat="43.7787028" lon="12.1477846"><ele>662.0</ele><time>2026-05-02T14:18:01.325Z</time></trkpt><trkpt lat="43.7788066" lon="12.1479274"><ele>662.0</ele><time>2026-05-02T14:18:02.325Z</time></trkpt><trkpt lat="43.7789115" lon="12.1480466"><ele>662.0</ele><time>2026-05-02T14:18:03.323Z</time></trkpt><trkpt lat="43.7790248" lon="12.1481095"><ele>662.0</ele><time>2026-05-02T14:18:04.325Z</time></trkpt><trkpt lat="43.7791386" lon="12.1481159"><ele>662.0</ele><time>2026-05-02T14:18:05.324Z</time></trkpt><trkpt lat="43.7792405" lon="12.14807"><ele>662.0</ele><time>2026-05-02T14:18:06.323Z</time></trkpt><trkpt lat="43.7793393" lon="12.1479903"><ele>662.0</ele><time>2026-05-02T14:18:07.323Z</time></trkpt><trkpt lat="43.7793977" lon="12.1478173"><ele>659.0</ele><time>2026-05-02T14:18:08.323Z</time></trkpt><trkpt lat="43.7794504" lon="12.1476454"><ele>656.0</ele><time>2026-05-02T14:18:09.323Z</time></trkpt><trkpt lat="43.779499" lon="12.1474688"><ele>653.0</ele><time>2026-05-02T14:18:10.32Z</time></trkpt><trkpt lat="43.7795427" lon="12.1472995"><ele>650.0</ele><time>2026-05-02T14:18:11.32Z</time></trkpt><trkpt lat="43.7796007" lon="12.1471515"><ele>649.5</ele><time>2026-05-02T14:18:12.317Z</time></trkpt><trkpt lat="43.7796881" lon="12.1470585"><ele>649.0</ele><time>2026-05-02T14:18:13.318Z</time></trkpt><trkpt lat="43.7798014" lon="12.1470313"><ele>648.5</ele><time>2026-05-02T14:18:14.313Z</time></trkpt><trkpt lat="43.7799199" lon="12.1470763"><ele>648.0</ele><time>2026-05-02T14:18:15.319Z</time></trkpt><trkpt lat="43.7800382" lon="12.1471848"><ele>648.0</ele><time>2026-05-02T14:18:16.311Z</time></trkpt><trkpt lat="43.7801484" lon="12.1473316"><ele>648.0</ele><time>2026-05-02T14:18:17.318Z</time></trkpt><trkpt lat="43.7802505" lon="12.1474979"><ele>648.0</ele><time>2026-05-02T14:18:18.323Z</time></trkpt><trkpt lat="43.7803338" lon="12.1476937"><ele>645.6666666666666</ele><time>2026-05-02T14:18:19.323Z</time></trkpt><trkpt lat="43.7803989" lon="12.1479109"><ele>643.3333333333333</ele><time>2026-05-02T14:18:20.323Z</time></trkpt><trkpt lat="43.7804512" lon="12.1481428"><ele>641.0</ele><time>2026-05-02T14:18:21.324Z</time></trkpt><trkpt lat="43.7805" lon="12.1483904"><ele>641.0</ele><time>2026-05-02T14:18:22.325Z</time></trkpt><trkpt lat="43.7805475" lon="12.1486605"><ele>641.0</ele><time>2026-05-02T14:18:23.323Z</time></trkpt><trkpt lat="43.7805953" lon="12.148928"><ele>641.0</ele><time>2026-05-02T14:18:24.325Z</time></trkpt><trkpt lat="43.7806466" lon="12.1491802"><ele>640.3333333333333</ele><time>2026-05-02T14:18:25.324Z</time></trkpt><trkpt lat="43.7807147" lon="12.1494248"><ele>639.6666666666666</ele><time>2026-05-02T14:18:26.324Z</time></trkpt><trkpt lat="43.7807739" lon="12.1496783"><ele>639.0</ele><time>2026-05-02T14:18:27.324Z</time></trkpt><trkpt lat="43.7808566" lon="12.1499224"><ele>632.0</ele><time>2026-05-02T14:18:28.323Z</time></trkpt><trkpt lat="43.781097" lon="12.1500228"><ele>625.0</ele><time>2026-05-02T14:18:29.323Z</time></trkpt><trkpt lat="43.7812553" lon="12.1501997"><ele>625.0</ele><time>2026-05-02T14:18:30.323Z</time></trkpt><trkpt lat="43.781413" lon="12.1503653"><ele>625.0</ele><time>2026-05-02T14:18:31.325Z</time></trkpt><trkpt lat="43.7815705" lon="12.1505264"><ele>625.0</ele><time>2026-05-02T14:18:32.322Z</time></trkpt><trkpt lat="43.7817218" lon="12.150689"><ele>620.6666666666667</ele><time>2026-05-02T14:18:33.321Z</time></trkpt><trkpt lat="43.7818549" lon="12.1508592"><ele>616.3333333333334</ele><time>2026-05-02T14:18:34.324Z</time></trkpt><trkpt lat="43.7819709" lon="12.1510464"><ele>612.0</ele><time>2026-05-02T14:18:35.323Z</time></trkpt><trkpt lat="43.7820397" lon="12.1512656"><ele>612.0</ele><time>2026-05-02T14:18:36.324Z</time></trkpt><trkpt lat="43.7821427" lon="12.1514419"><ele>612.0</ele><time>2026-05-02T14:18:37.324Z</time></trkpt><trkpt lat="43.7822518" lon="12.1515905"><ele>612.0</ele><time>2026-05-02T14:18:38.322Z</time></trkpt><trkpt lat="43.7823605" lon="12.1517277"><ele>614.0</ele><time>2026-05-02T14:18:39.324Z</time></trkpt><trkpt lat="43.782468" lon="12.151819"><ele>616.0</ele><time>2026-05-02T14:18:40.323Z</time></trkpt><trkpt lat="43.7825834" lon="12.151838"><ele>618.0</ele><time>2026-05-02T14:18:41.323Z</time></trkpt><trkpt lat="43.7827084" lon="12.1517993"><ele>620.0</ele><time>2026-05-02T14:18:42.324Z</time></trkpt><trkpt lat="43.7828517" lon="12.1517546"><ele>620.0</ele><time>2026-05-02T14:18:43.325Z</time></trkpt><trkpt lat="43.7829837" lon="12.1517226"><ele>620.0</ele><time>2026-05-02T14:18:44.324Z</time></trkpt><trkpt lat="43.7831071" lon="12.1516996"><ele>620.0</ele><time>2026-05-02T14:18:45.322Z</time></trkpt><trkpt lat="43.7832252" lon="12.1516869"><ele>620.0</ele><time>2026-05-02T14:18:46.32Z</time></trkpt><trkpt lat="43.7833386" lon="12.1516919"><ele>620.0</ele><time>2026-05-02T14:18:47.322Z</time></trkpt><trkpt lat="43.7834532" lon="12.1516969"><ele>620.0</ele><time>2026-05-02T14:18:48.316Z</time></trkpt><trkpt lat="43.7835628" lon="12.1517311"><ele>620.0</ele><time>2026-05-02T14:18:49.324Z</time></trkpt><trkpt lat="43.7836707" lon="12.1517666"><ele>620.0</ele><time>2026-05-02T14:18:50.323Z</time></trkpt><trkpt lat="43.7837788" lon="12.15184"><ele>617.8</ele><time>2026-05-02T14:18:51.322Z</time></trkpt><trkpt lat="43.7838816" lon="12.1519041"><ele>615.6</ele><time>2026-05-02T14:18:52.322Z</time></trkpt><trkpt lat="43.78398" lon="12.1519481"><ele>613.4</ele><time>2026-05-02T14:18:53.324Z</time></trkpt><trkpt lat="43.7840882" lon="12.1519595"><ele>611.2</ele><time>2026-05-02T14:18:54.322Z</time></trkpt><trkpt lat="43.784204" lon="12.1519595"><ele>609.0</ele><time>2026-05-02T14:18:55.319Z</time></trkpt><trkpt lat="43.7843271" lon="12.151955"><ele>606.4</ele><time>2026-05-02T14:18:56.319Z</time></trkpt><trkpt lat="43.7844258" lon="12.151949"><ele>603.8</ele><time>2026-05-02T14:18:57.321Z</time></trkpt><trkpt lat="43.7845416" lon="12.1519344"><ele>601.2</ele><time>2026-05-02T14:18:58.322Z</time></trkpt><trkpt lat="43.7845919" lon="12.1517875"><ele>598.6</ele><time>2026-05-02T14:18:59.321Z</time></trkpt><trkpt lat="43.7846769" lon="12.1517238"><ele>596.0</ele><time>2026-05-02T14:19:00.321Z</time></trkpt><trkpt lat="43.7847324" lon="12.1516596"><ele>596.0</ele><time>2026-05-02T14:19:01.322Z</time></trkpt><trkpt lat="43.7848292" lon="12.1516889"><ele>596.0</ele><time>2026-05-02T14:19:02.324Z</time></trkpt><trkpt lat="43.7848931" lon="12.1517291"><ele>596.0</ele><time>2026-05-02T14:19:03.322Z</time></trkpt><trkpt lat="43.7849346" lon="12.1518318"><ele>596.0</ele><time>2026-05-02T14:19:04.322Z</time></trkpt><trkpt lat="43.7849928" lon="12.1519055"><ele>596.0</ele><time>2026-05-02T14:19:05.323Z</time></trkpt><trkpt lat="43.7849821" lon="12.1523479"><ele>598.0</ele><time>2026-05-02T14:19:06.323Z</time></trkpt><trkpt lat="43.7850385" lon="12.1525921"><ele>600.0</ele><time>2026-05-02T14:19:07.322Z</time></trkpt><trkpt lat="43.7851081" lon="12.1530368"><ele>592.6666666666666</ele><time>2026-05-02T14:19:08.323Z</time></trkpt><trkpt lat="43.7851955" lon="12.1533619"><ele>585.3333333333333</ele><time>2026-05-02T14:19:09.322Z</time></trkpt><trkpt lat="43.7852589" lon="12.1535353"><ele>578.0</ele><time>2026-05-02T14:19:10.325Z</time></trkpt><trkpt lat="43.7853386" lon="12.1537702"><ele>578.0</ele><time>2026-05-02T14:19:11.32Z</time></trkpt><trkpt lat="43.7854136" lon="12.1539961"><ele>578.0</ele><time>2026-05-02T14:19:12.318Z</time></trkpt><trkpt lat="43.7855398" lon="12.1541479"><ele>578.0</ele><time>2026-05-02T14:19:13.318Z</time></trkpt><trkpt lat="43.7857147" lon="12.154278"><ele>581.3333333333333</ele><time>2026-05-02T14:19:14.319Z</time></trkpt><trkpt lat="43.7858137" lon="12.1544781"><ele>584.6666666666666</ele><time>2026-05-02T14:19:15.318Z</time></trkpt><trkpt lat="43.785895" lon="12.1546818"><ele>588.0</ele><time>2026-05-02T14:19:16.319Z</time></trkpt><trkpt lat="43.7859877" lon="12.1548629"><ele>586.0</ele><time>2026-05-02T14:19:17.319Z</time></trkpt><trkpt lat="43.7860851" lon="12.1550367"><ele>584.0</ele><time>2026-05-02T14:19:18.316Z</time></trkpt><trkpt lat="43.786204" lon="12.1551714"><ele>582.0</ele><time>2026-05-02T14:19:19.32Z</time></trkpt><trkpt lat="43.7863337" lon="12.155268"><ele>582.0</ele><time>2026-05-02T14:19:20.323Z</time></trkpt><trkpt lat="43.7864629" lon="12.1553238"><ele>582.0</ele><time>2026-05-02T14:19:21.321Z</time></trkpt><trkpt lat="43.7865922" lon="12.1553645"><ele>582.0</ele><time>2026-05-02T14:19:22.323Z</time></trkpt><trkpt lat="43.7867482" lon="12.1554063"><ele>582.0</ele><time>2026-05-02T14:19:23.323Z</time></trkpt><trkpt lat="43.7868697" lon="12.1554783"><ele>581.25</ele><time>2026-05-02T14:19:24.324Z</time></trkpt><trkpt lat="43.7869724" lon="12.1555721"><ele>580.5</ele><time>2026-05-02T14:19:25.322Z</time></trkpt><trkpt lat="43.7870585" lon="12.1556905"><ele>579.75</ele><time>2026-05-02T14:19:26.323Z</time></trkpt><trkpt lat="43.787103" lon="12.1558382"><ele>579.0</ele><time>2026-05-02T14:19:27.323Z</time></trkpt><trkpt lat="43.7871017" lon="12.1560211"><ele>578.75</ele><time>2026-05-02T14:19:28.322Z</time></trkpt><trkpt lat="43.7871028" lon="12.1562176"><ele>578.5</ele><time>2026-05-02T14:19:29.322Z</time></trkpt><trkpt lat="43.7871262" lon="12.1564233"><ele>578.25</ele><time>2026-05-02T14:19:30.322Z</time></trkpt><trkpt lat="43.7871785" lon="12.1566271"><ele>578.0</ele><time>2026-05-02T14:19:31.323Z</time></trkpt><trkpt lat="43.7872225" lon="12.1567952"><ele>579.0</ele><time>2026-05-02T14:19:32.322Z</time></trkpt><trkpt lat="43.7873386" lon="12.1569535"><ele>580.0</ele><time>2026-05-02T14:19:33.323Z</time></trkpt><trkpt lat="43.7874127" lon="12.1571213"><ele>581.0</ele><time>2026-05-02T14:19:34.322Z</time></trkpt><trkpt lat="43.787557" lon="12.1572305"><ele>575.6666666666666</ele><time>2026-05-02T14:19:35.319Z</time></trkpt><trkpt lat="43.7877261" lon="12.1572921"><ele>570.3333333333334</ele><time>2026-05-02T14:19:36.321Z</time></trkpt><trkpt lat="43.7878582" lon="12.1573958"><ele>565.0</ele><time>2026-05-02T14:19:37.319Z</time></trkpt><trkpt lat="43.7879855" lon="12.1574911"><ele>564.75</ele><time>2026-05-02T14:19:38.323Z</time></trkpt><trkpt lat="43.7879986" lon="12.1577359"><ele>564.5</ele><time>2026-05-02T14:19:39.322Z</time></trkpt><trkpt lat="43.7880315" lon="12.1579169"><ele>564.25</ele><time>2026-05-02T14:19:40.319Z</time></trkpt><trkpt lat="43.7880747" lon="12.1580722"><ele>564.0</ele><time>2026-05-02T14:19:41.325Z</time></trkpt><trkpt lat="43.7880338" lon="12.1582072"><ele>564.0</ele><time>2026-05-02T14:19:42.323Z</time></trkpt><trkpt lat="43.7879781" lon="12.1582718"><ele>564.0</ele><time>2026-05-02T14:19:43.321Z</time></trkpt><trkpt lat="43.7878782" lon="12.1582987"><ele>564.0</ele><time>2026-05-02T14:19:44.323Z</time></trkpt><trkpt lat="43.7877317" lon="12.15829"><ele>564.0</ele><time>2026-05-02T14:19:45.322Z</time></trkpt><trkpt lat="43.7875793" lon="12.1582796"><ele>567.5</ele><time>2026-05-02T14:19:46.322Z</time></trkpt><trkpt lat="43.7874429" lon="12.1582965"><ele>571.0</ele><time>2026-05-02T14:19:47.323Z</time></trkpt><trkpt lat="43.7873266" lon="12.1583258"><ele>574.5</ele><time>2026-05-02T14:19:48.323Z</time></trkpt><trkpt lat="43.7872115" lon="12.1583854"><ele>578.0</ele><time>2026-05-02T14:19:49.319Z</time></trkpt><trkpt lat="43.787095" lon="12.1585281"><ele>578.0</ele><time>2026-05-02T14:19:50.318Z</time></trkpt><trkpt lat="43.7870688" lon="12.1587596"><ele>578.0</ele><time>2026-05-02T14:19:51.314Z</time></trkpt><trkpt lat="43.7870238" lon="12.1589285"><ele>578.0</ele><time>2026-05-02T14:19:52.318Z</time></trkpt><trkpt lat="43.7870242" lon="12.1590979"><ele>578.0</ele><time>2026-05-02T14:19:53.32Z</time></trkpt><trkpt lat="43.7870717" lon="12.1592443"><ele>572.5</ele><time>2026-05-02T14:19:54.318Z</time></trkpt><trkpt lat="43.7871231" lon="12.1593945"><ele>567.0</ele><time>2026-05-02T14:19:55.429Z</time></trkpt><trkpt lat="43.7874378" lon="12.1595657"><ele>567.0</ele><time>2026-05-02T14:19:57.316Z</time></trkpt><trkpt lat="43.7875886" lon="12.1596833"><ele>567.0</ele><time>2026-05-02T14:19:58.322Z</time></trkpt><trkpt lat="43.7877506" lon="12.1597981"><ele>567.0</ele><time>2026-05-02T14:19:59.322Z</time></trkpt><trkpt lat="43.7879151" lon="12.1599106"><ele>566.6666666666666</ele><time>2026-05-02T14:20:00.323Z</time></trkpt><trkpt lat="43.7880677" lon="12.1600284"><ele>566.3333333333333</ele><time>2026-05-02T14:20:01.323Z</time></trkpt><trkpt lat="43.7882" lon="12.1601387"><ele>566.0</ele><time>2026-05-02T14:20:02.323Z</time></trkpt><trkpt lat="43.7883374" lon="12.1602291"><ele>566.0</ele><time>2026-05-02T14:20:03.321Z</time></trkpt><trkpt lat="43.7884715" lon="12.1602978"><ele>566.0</ele><time>2026-05-02T14:20:04.323Z</time></trkpt><trkpt lat="43.7886219" lon="12.160299"><ele>566.0</ele><time>2026-05-02T14:20:05.324Z</time></trkpt><trkpt lat="43.7887428" lon="12.1601515"><ele>566.25</ele><time>2026-05-02T14:20:06.323Z</time></trkpt><trkpt lat="43.7888453" lon="12.1599994"><ele>566.5</ele><time>2026-05-02T14:20:07.313Z</time></trkpt><trkpt lat="43.7889499" lon="12.1598951"><ele>566.75</ele><time>2026-05-02T14:20:08.323Z</time></trkpt><trkpt lat="43.7890869" lon="12.1598292"><ele>567.0</ele><time>2026-05-02T14:20:09.315Z</time></trkpt><trkpt lat="43.7892201" lon="12.1598368"><ele>564.25</ele><time>2026-05-02T14:20:10.324Z</time></trkpt><trkpt lat="43.7893616" lon="12.1598597"><ele>561.5</ele><time>2026-05-02T14:20:11.322Z</time></trkpt><trkpt lat="43.7895121" lon="12.1598815"><ele>558.75</ele><time>2026-05-02T14:20:12.32Z</time></trkpt><trkpt lat="43.7896576" lon="12.1599359"><ele>556.0</ele><time>2026-05-02T14:20:13.321Z</time></trkpt><trkpt lat="43.7897727" lon="12.1599786"><ele>556.0</ele><time>2026-05-02T14:20:14.322Z</time></trkpt><trkpt lat="43.7898614" lon="12.1600285"><ele>556.0</ele><time>2026-05-02T14:20:15.322Z</time></trkpt><trkpt lat="43.7899311" lon="12.1600878"><ele>556.0</ele><time>2026-05-02T14:20:16.323Z</time></trkpt><trkpt lat="43.7900095" lon="12.1601654"><ele>556.0</ele><time>2026-05-02T14:20:17.322Z</time></trkpt><trkpt lat="43.7900634" lon="12.1602994"><ele>556.0</ele><time>2026-05-02T14:20:18.323Z</time></trkpt><trkpt lat="43.7901226" lon="12.1604212"><ele>556.2</ele><time>2026-05-02T14:20:19.323Z</time></trkpt><trkpt lat="43.7901778" lon="12.1605424"><ele>556.4000000000001</ele><time>2026-05-02T14:20:20.324Z</time></trkpt><trkpt lat="43.7902297" lon="12.1606609"><ele>556.6</ele><time>2026-05-02T14:20:21.322Z</time></trkpt><trkpt lat="43.7902705" lon="12.1607763"><ele>556.8000000000001</ele><time>2026-05-02T14:20:22.323Z</time></trkpt><trkpt lat="43.7903067" lon="12.1608817"><ele>557.0</ele><time>2026-05-02T14:20:23.32Z</time></trkpt><trkpt lat="43.7903393" lon="12.1609845"><ele>556.6</ele><time>2026-05-02T14:20:24.324Z</time></trkpt><trkpt lat="43.7903695" lon="12.1610811"><ele>556.2</ele><time>2026-05-02T14:20:25.316Z</time></trkpt><trkpt lat="43.7904042" lon="12.1611938"><ele>555.8</ele><time>2026-05-02T14:20:26.323Z</time></trkpt><trkpt lat="43.7904463" lon="12.1613287"><ele>555.4</ele><time>2026-05-02T14:20:27.324Z</time></trkpt><trkpt lat="43.7904951" lon="12.1614805"><ele>555.0</ele><time>2026-05-02T14:20:28.323Z</time></trkpt><trkpt lat="43.7905539" lon="12.1616503"><ele>554.6666666666666</ele><time>2026-05-02T14:20:29.324Z</time></trkpt><trkpt lat="43.7906127" lon="12.1618359"><ele>554.3333333333333</ele><time>2026-05-02T14:20:30.326Z</time></trkpt><trkpt lat="43.7906758" lon="12.1620343"><ele>554.0</ele><time>2026-05-02T14:20:31.323Z</time></trkpt><trkpt lat="43.7907524" lon="12.162227"><ele>553.6666666666666</ele><time>2026-05-02T14:20:32.322Z</time></trkpt><trkpt lat="43.7908607" lon="12.1624102"><ele>553.3333333333334</ele><time>2026-05-02T14:20:33.322Z</time></trkpt><trkpt lat="43.791002" lon="12.1625726"><ele>553.0</ele><time>2026-05-02T14:20:34.323Z</time></trkpt><trkpt lat="43.7911565" lon="12.1627187"><ele>549.6666666666667</ele><time>2026-05-02T14:20:35.324Z</time></trkpt><trkpt lat="43.7913118" lon="12.162847"><ele>546.3333333333334</ele><time>2026-05-02T14:20:36.323Z</time></trkpt><trkpt lat="43.791478" lon="12.1629901"><ele>543.0</ele><time>2026-05-02T14:20:37.322Z</time></trkpt><trkpt lat="43.7916607" lon="12.1631289"><ele>542.6666666666666</ele><time>2026-05-02T14:20:38.323Z</time></trkpt><trkpt lat="43.7917633" lon="12.1632305"><ele>542.3333333333333</ele><time>2026-05-02T14:20:39.32Z</time></trkpt><trkpt lat="43.7918267" lon="12.163471"><ele>542.0</ele><time>2026-05-02T14:20:40.322Z</time></trkpt><trkpt lat="43.7919476" lon="12.1636369"><ele>538.6666666666666</ele><time>2026-05-02T14:20:41.315Z</time></trkpt><trkpt lat="43.792037" lon="12.1638101"><ele>535.3333333333334</ele><time>2026-05-02T14:20:42.324Z</time></trkpt><trkpt lat="43.7920771" lon="12.1641243"><ele>532.0</ele><time>2026-05-02T14:20:43.321Z</time></trkpt><trkpt lat="43.7921404" lon="12.164421"><ele>531.6666666666667</ele><time>2026-05-02T14:20:44.322Z</time></trkpt><trkpt lat="43.7922064" lon="12.1647093"><ele>531.3333333333334</ele><time>2026-05-02T14:20:45.323Z</time></trkpt><trkpt lat="43.7922613" lon="12.1649791"><ele>531.0</ele><time>2026-05-02T14:20:46.323Z</time></trkpt><trkpt lat="43.7923191" lon="12.1652286"><ele>529.3333333333334</ele><time>2026-05-02T14:20:47.324Z</time></trkpt><trkpt lat="43.7923578" lon="12.1654787"><ele>527.6666666666667</ele><time>2026-05-02T14:20:48.322Z</time></trkpt><trkpt lat="43.7924111" lon="12.1657253"><ele>526.0</ele><time>2026-05-02T14:20:49.323Z</time></trkpt><trkpt lat="43.7924968" lon="12.1659241"><ele>526.0</ele><time>2026-05-02T14:20:50.323Z</time></trkpt><trkpt lat="43.7925902" lon="12.1661282"><ele>526.0</ele><time>2026-05-02T14:20:51.323Z</time></trkpt><trkpt lat="43.7927254" lon="12.1662537"><ele>526.0</ele><time>2026-05-02T14:20:52.323Z</time></trkpt><trkpt lat="43.7928541" lon="12.1663731"><ele>522.0</ele><time>2026-05-02T14:20:53.322Z</time></trkpt><trkpt lat="43.7929858" lon="12.1664685"><ele>518.0</ele><time>2026-05-02T14:20:54.324Z</time></trkpt><trkpt lat="43.7931231" lon="12.1665625"><ele>514.0</ele><time>2026-05-02T14:20:55.321Z</time></trkpt><trkpt lat="43.7933287" lon="12.1666598"><ele>510.33333333333337</ele><time>2026-05-02T14:20:56.324Z</time></trkpt><trkpt lat="43.7935285" lon="12.1667448"><ele>506.66666666666663</ele><time>2026-05-02T14:20:57.322Z</time></trkpt><trkpt lat="43.7937208" lon="12.1668228"><ele>503.0</ele><time>2026-05-02T14:20:58.322Z</time></trkpt><trkpt lat="43.7939187" lon="12.1668654"><ele>503.0</ele><time>2026-05-02T14:20:59.323Z</time></trkpt><trkpt lat="43.7940801" lon="12.166921"><ele>503.0</ele><time>2026-05-02T14:21:00.323Z</time></trkpt><trkpt lat="43.7942463" lon="12.1670179"><ele>503.0</ele><time>2026-05-02T14:21:01.321Z</time></trkpt><trkpt lat="43.7943804" lon="12.1671797"><ele>499.66666666666663</ele><time>2026-05-02T14:21:02.322Z</time></trkpt><trkpt lat="43.7944899" lon="12.1674296"><ele>496.33333333333337</ele><time>2026-05-02T14:21:03.324Z</time></trkpt><trkpt lat="43.7945111" lon="12.1676736"><ele>493.0</ele><time>2026-05-02T14:21:04.324Z</time></trkpt><trkpt lat="43.7946299" lon="12.1678211"><ele>493.0</ele><time>2026-05-02T14:21:05.325Z</time></trkpt><trkpt lat="43.7947353" lon="12.1679368"><ele>493.0</ele><time>2026-05-02T14:21:06.323Z</time></trkpt><trkpt lat="43.7948549" lon="12.1680418"><ele>493.0</ele><time>2026-05-02T14:21:07.321Z</time></trkpt><trkpt lat="43.7949486" lon="12.1681792"><ele>493.0</ele><time>2026-05-02T14:21:08.323Z</time></trkpt><trkpt lat="43.7949786" lon="12.1683489"><ele>493.5</ele><time>2026-05-02T14:21:09.323Z</time></trkpt><trkpt lat="43.7949633" lon="12.1685193"><ele>494.0</ele><time>2026-05-02T14:21:10.323Z</time></trkpt><trkpt lat="43.7949212" lon="12.1686958"><ele>494.5</ele><time>2026-05-02T14:21:11.322Z</time></trkpt><trkpt lat="43.7948281" lon="12.168878"><ele>495.0</ele><time>2026-05-02T14:21:12.323Z</time></trkpt><trkpt lat="43.7947857" lon="12.1690516"><ele>495.0</ele><time>2026-05-02T14:21:13.317Z</time></trkpt><trkpt lat="43.7947791" lon="12.1692231"><ele>495.0</ele><time>2026-05-02T14:21:14.324Z</time></trkpt><trkpt lat="43.7947649" lon="12.1693936"><ele>495.0</ele><time>2026-05-02T14:21:15.322Z</time></trkpt><trkpt lat="43.7947836" lon="12.1695652"><ele>495.0</ele><time>2026-05-02T14:21:16.323Z</time></trkpt><trkpt lat="43.7948121" lon="12.1697014"><ele>495.0</ele><time>2026-05-02T14:21:17.323Z</time></trkpt><trkpt lat="43.7948751" lon="12.169699"><ele>495.0</ele><time>2026-05-02T14:21:18.323Z</time></trkpt><trkpt lat="43.7949559" lon="12.1697232"><ele>495.0</ele><time>2026-05-02T14:21:19.323Z</time></trkpt><trkpt lat="43.7952345" lon="12.1695648"><ele>495.0</ele><time>2026-05-02T14:21:20.326Z</time></trkpt><trkpt lat="43.7953719" lon="12.1695243"><ele>491.33333333333337</ele><time>2026-05-02T14:21:21.321Z</time></trkpt><trkpt lat="43.7955357" lon="12.1694856"><ele>487.6666666666667</ele><time>2026-05-02T14:21:22.323Z</time></trkpt><trkpt lat="43.7956975" lon="12.1694484"><ele>484.0</ele><time>2026-05-02T14:21:23.323Z</time></trkpt><trkpt lat="43.7958538" lon="12.1694143"><ele>484.0</ele><time>2026-05-02T14:21:24.324Z</time></trkpt><trkpt lat="43.7959979" lon="12.1693842"><ele>484.0</ele><time>2026-05-02T14:21:25.324Z</time></trkpt><trkpt lat="43.7961404" lon="12.1693591"><ele>484.0</ele><time>2026-05-02T14:21:26.321Z</time></trkpt><trkpt lat="43.7962783" lon="12.1693306"><ele>484.0</ele><time>2026-05-02T14:21:27.322Z</time></trkpt><trkpt lat="43.7964075" lon="12.1693095"><ele>485.2</ele><time>2026-05-02T14:21:28.326Z</time></trkpt><trkpt lat="43.7965247" lon="12.1692905"><ele>486.4</ele><time>2026-05-02T14:21:29.318Z</time></trkpt><trkpt lat="43.7966364" lon="12.1692697"><ele>487.6</ele><time>2026-05-02T14:21:30.324Z</time></trkpt><trkpt lat="43.7967379" lon="12.169266"><ele>488.8</ele><time>2026-05-02T14:21:31.323Z</time></trkpt><trkpt lat="43.79684" lon="12.1692535"><ele>490.0</ele><time>2026-05-02T14:21:32.323Z</time></trkpt><trkpt lat="43.7969317" lon="12.1692918"><ele>495.2</ele><time>2026-05-02T14:21:33.322Z</time></trkpt><trkpt lat="43.7970152" lon="12.1694089"><ele>500.4</ele><time>2026-05-02T14:21:34.322Z</time></trkpt><trkpt lat="43.7970853" lon="12.1695165"><ele>505.6</ele><time>2026-05-02T14:21:35.324Z</time></trkpt><trkpt lat="43.7971477" lon="12.1696307"><ele>510.8</ele><time>2026-05-02T14:21:36.322Z</time></trkpt><trkpt lat="43.7972043" lon="12.1697176"><ele>516.0</ele><time>2026-05-02T14:21:37.322Z</time></trkpt><trkpt lat="43.7973026" lon="12.1700261"><ele>516.0</ele><time>2026-05-02T14:21:38.323Z</time></trkpt><trkpt lat="43.7974325" lon="12.1703863"><ele>516.0</ele><time>2026-05-02T14:21:39.321Z</time></trkpt><trkpt lat="43.7975588" lon="12.1706705"><ele>515.5</ele><time>2026-05-02T14:21:40.324Z</time></trkpt><trkpt lat="43.797687" lon="12.1710041"><ele>515.0</ele><time>2026-05-02T14:21:41.322Z</time></trkpt><trkpt lat="43.7978359" lon="12.1713123"><ele>500.5</ele><time>2026-05-02T14:21:42.322Z</time></trkpt><trkpt lat="43.7979851" lon="12.1716044"><ele>486.0</ele><time>2026-05-02T14:21:43.321Z</time></trkpt><trkpt lat="43.7981374" lon="12.171874"><ele>486.0</ele><time>2026-05-02T14:21:44.323Z</time></trkpt><trkpt lat="43.7982865" lon="12.172161"><ele>486.0</ele><time>2026-05-02T14:21:45.319Z</time></trkpt><trkpt lat="43.798437" lon="12.1724425"><ele>496.0</ele><time>2026-05-02T14:21:46.324Z</time></trkpt><trkpt lat="43.798577" lon="12.1726992"><ele>506.0</ele><time>2026-05-02T14:21:47.324Z</time></trkpt><trkpt lat="43.7987265" lon="12.1729559"><ele>494.5</ele><time>2026-05-02T14:21:48.321Z</time></trkpt><trkpt lat="43.7988824" lon="12.1732241"><ele>483.0</ele><time>2026-05-02T14:21:49.323Z</time></trkpt><trkpt lat="43.7990313" lon="12.1734932"><ele>483.0</ele><time>2026-05-02T14:21:50.322Z</time></trkpt><trkpt lat="43.7991837" lon="12.1737563"><ele>483.0</ele><time>2026-05-02T14:21:51.322Z</time></trkpt><trkpt lat="43.7993113" lon="12.1740025"><ele>493.0</ele><time>2026-05-02T14:21:52.324Z</time></trkpt><trkpt lat="43.7994232" lon="12.1743531"><ele>503.0</ele><time>2026-05-02T14:21:53.325Z</time></trkpt><trkpt lat="43.7995246" lon="12.1746726"><ele>499.5</ele><time>2026-05-02T14:21:54.322Z</time></trkpt><trkpt lat="43.7996288" lon="12.1749911"><ele>496.0</ele><time>2026-05-02T14:21:55.325Z</time></trkpt><trkpt lat="43.7997374" lon="12.1753127"><ele>496.0</ele><time>2026-05-02T14:21:56.32Z</time></trkpt><trkpt lat="43.7998549" lon="12.1756329"><ele>496.0</ele><time>2026-05-02T14:21:57.318Z</time></trkpt><trkpt lat="43.7999622" lon="12.1759556"><ele>489.0</ele><time>2026-05-02T14:21:58.318Z</time></trkpt><trkpt lat="43.8000682" lon="12.1762715"><ele>482.0</ele><time>2026-05-02T14:21:59.318Z</time></trkpt><trkpt lat="43.8001684" lon="12.176568"><ele>480.3333333333333</ele><time>2026-05-02T14:22:00.317Z</time></trkpt><trkpt lat="43.8002662" lon="12.1768477"><ele>478.66666666666663</ele><time>2026-05-02T14:22:01.317Z</time></trkpt><trkpt lat="43.8003512" lon="12.177118"><ele>477.0</ele><time>2026-05-02T14:22:02.312Z</time></trkpt><trkpt lat="43.8004015" lon="12.1774036"><ele>474.33333333333337</ele><time>2026-05-02T14:22:03.317Z</time></trkpt><trkpt lat="43.8004307" lon="12.1776769"><ele>471.6666666666667</ele><time>2026-05-02T14:22:04.316Z</time></trkpt><trkpt lat="43.8004607" lon="12.1779385"><ele>469.0</ele><time>2026-05-02T14:22:05.321Z</time></trkpt><trkpt lat="43.8005257" lon="12.1781814"><ele>466.33333333333337</ele><time>2026-05-02T14:22:06.322Z</time></trkpt><trkpt lat="43.8006398" lon="12.1783981"><ele>463.66666666666663</ele><time>2026-05-02T14:22:07.322Z</time></trkpt><trkpt lat="43.8007841" lon="12.1786127"><ele>461.0</ele><time>2026-05-02T14:22:08.322Z</time></trkpt><trkpt lat="43.8009484" lon="12.1788287"><ele>460.0</ele><time>2026-05-02T14:22:09.322Z</time></trkpt><trkpt lat="43.8011329" lon="12.1790667"><ele>459.0</ele><time>2026-05-02T14:22:10.32Z</time></trkpt><trkpt lat="43.8013122" lon="12.179294"><ele>459.0</ele><time>2026-05-02T14:22:11.321Z</time></trkpt><trkpt lat="43.8014935" lon="12.1795181"><ele>459.0</ele><time>2026-05-02T14:22:12.322Z</time></trkpt><trkpt lat="43.8016735" lon="12.1797423"><ele>460.5</ele><time>2026-05-02T14:22:13.322Z</time></trkpt><trkpt lat="43.8018506" lon="12.1799639"><ele>462.0</ele><time>2026-05-02T14:22:14.322Z</time></trkpt><trkpt lat="43.8020139" lon="12.1801703"><ele>462.0</ele><time>2026-05-02T14:22:15.321Z</time></trkpt><trkpt lat="43.8021728" lon="12.1803722"><ele>462.0</ele><time>2026-05-02T14:22:16.317Z</time></trkpt><trkpt lat="43.8023208" lon="12.1805664"><ele>462.0</ele><time>2026-05-02T14:22:17.324Z</time></trkpt><trkpt lat="43.8024613" lon="12.1807521"><ele>460.66666666666663</ele><time>2026-05-02T14:22:18.319Z</time></trkpt><trkpt lat="43.8026016" lon="12.1809224"><ele>459.3333333333333</ele><time>2026-05-02T14:22:19.32Z</time></trkpt><trkpt lat="43.8027286" lon="12.181085"><ele>458.0</ele><time>2026-05-02T14:22:20.32Z</time></trkpt><trkpt lat="43.8028524" lon="12.1812306"><ele>458.0</ele><time>2026-05-02T14:22:21.32Z</time></trkpt><trkpt lat="43.8029798" lon="12.181385"><ele>458.0</ele><time>2026-05-02T14:22:22.321Z</time></trkpt><trkpt lat="43.8030533" lon="12.181525"><ele>458.0</ele><time>2026-05-02T14:22:23.321Z</time></trkpt><trkpt lat="43.8031247" lon="12.181676"><ele>458.0</ele><time>2026-05-02T14:22:24.321Z</time></trkpt><trkpt lat="43.8031906" lon="12.1818342"><ele>456.0</ele><time>2026-05-02T14:22:25.32Z</time></trkpt><trkpt lat="43.8032605" lon="12.1819831"><ele>454.0</ele><time>2026-05-02T14:22:26.321Z</time></trkpt><trkpt lat="43.8033206" lon="12.182205"><ele>452.0</ele><time>2026-05-02T14:22:27.321Z</time></trkpt><trkpt lat="43.803388" lon="12.1824353"><ele>453.0</ele><time>2026-05-02T14:22:28.32Z</time></trkpt><trkpt lat="43.8034514" lon="12.1826772"><ele>454.0</ele><time>2026-05-02T14:22:29.319Z</time></trkpt><trkpt lat="43.8035114" lon="12.1829376"><ele>455.0</ele><time>2026-05-02T14:22:30.321Z</time></trkpt><trkpt lat="43.8035815" lon="12.183194"><ele>455.0</ele><time>2026-05-02T14:22:31.321Z</time></trkpt><trkpt lat="43.8036566" lon="12.1834559"><ele>455.0</ele><time>2026-05-02T14:22:32.318Z</time></trkpt><trkpt lat="43.8037353" lon="12.1837245"><ele>455.0</ele><time>2026-05-02T14:22:33.322Z</time></trkpt><trkpt lat="43.803816" lon="12.1840081"><ele>454.66666666666663</ele><time>2026-05-02T14:22:34.314Z</time></trkpt><trkpt lat="43.8039" lon="12.1842886"><ele>454.33333333333337</ele><time>2026-05-02T14:22:35.32Z</time></trkpt><trkpt lat="43.8039823" lon="12.1845806"><ele>454.0</ele><time>2026-05-02T14:22:36.32Z</time></trkpt><trkpt lat="43.8040663" lon="12.1848759"><ele>452.0</ele><time>2026-05-02T14:22:37.32Z</time></trkpt><trkpt lat="43.8041502" lon="12.185174"><ele>450.0</ele><time>2026-05-02T14:22:38.319Z</time></trkpt><trkpt lat="43.8042352" lon="12.1854661"><ele>445.5</ele><time>2026-05-02T14:22:39.321Z</time></trkpt><trkpt lat="43.8043158" lon="12.1857571"><ele>441.0</ele><time>2026-05-02T14:22:40.32Z</time></trkpt><trkpt lat="43.8044024" lon="12.1860881"><ele>452.0</ele><time>2026-05-02T14:22:41.321Z</time></trkpt><trkpt lat="43.8044865" lon="12.1863989"><ele>463.0</ele><time>2026-05-02T14:22:42.324Z</time></trkpt><trkpt lat="43.8045756" lon="12.1867213"><ele>463.0</ele><time>2026-05-02T14:22:43.322Z</time></trkpt><trkpt lat="43.8046636" lon="12.187043"><ele>463.0</ele><time>2026-05-02T14:22:44.324Z</time></trkpt><trkpt lat="43.8047527" lon="12.1873636"><ele>455.0</ele><time>2026-05-02T14:22:45.321Z</time></trkpt><trkpt lat="43.8048476" lon="12.1876807"><ele>447.0</ele><time>2026-05-02T14:22:46.321Z</time></trkpt><trkpt lat="43.8049382" lon="12.1880066"><ele>441.0</ele><time>2026-05-02T14:22:47.321Z</time></trkpt><trkpt lat="43.8050272" lon="12.1883331"><ele>435.0</ele><time>2026-05-02T14:22:48.316Z</time></trkpt><trkpt lat="43.8051198" lon="12.1886596"><ele>442.0</ele><time>2026-05-02T14:22:49.321Z</time></trkpt><trkpt lat="43.8052118" lon="12.1889888"><ele>449.0</ele><time>2026-05-02T14:22:50.314Z</time></trkpt><trkpt lat="43.8053071" lon="12.1893188"><ele>449.0</ele><time>2026-05-02T14:22:51.322Z</time></trkpt><trkpt lat="43.8053966" lon="12.1896557"><ele>449.0</ele><time>2026-05-02T14:22:52.321Z</time></trkpt><trkpt lat="43.8054931" lon="12.1899874"><ele>442.0</ele><time>2026-05-02T14:22:53.322Z</time></trkpt><trkpt lat="43.8055895" lon="12.1903214"><ele>435.0</ele><time>2026-05-02T14:22:54.321Z</time></trkpt><trkpt lat="43.8056858" lon="12.1906534"><ele>433.5</ele><time>2026-05-02T14:22:55.321Z</time></trkpt><trkpt lat="43.8057796" lon="12.1909664"><ele>432.0</ele><time>2026-05-02T14:22:56.322Z</time></trkpt><trkpt lat="43.8058651" lon="12.1912698"><ele>430.33333333333337</ele><time>2026-05-02T14:22:57.321Z</time></trkpt><trkpt lat="43.8059474" lon="12.1915565"><ele>428.6666666666667</ele><time>2026-05-02T14:22:58.322Z</time></trkpt><trkpt lat="43.8060291" lon="12.1918345"><ele>427.0</ele><time>2026-05-02T14:22:59.323Z</time></trkpt><trkpt lat="43.8061104" lon="12.1920996"><ele>429.33333333333337</ele><time>2026-05-02T14:23:00.321Z</time></trkpt><trkpt lat="43.8061872" lon="12.1923503"><ele>431.66666666666663</ele><time>2026-05-02T14:23:01.321Z</time></trkpt><trkpt lat="43.8062472" lon="12.1925935"><ele>434.0</ele><time>2026-05-02T14:23:02.321Z</time></trkpt><trkpt lat="43.8062758" lon="12.1928513"><ele>434.0</ele><time>2026-05-02T14:23:03.319Z</time></trkpt><trkpt lat="43.8062638" lon="12.1931219"><ele>434.0</ele><time>2026-05-02T14:23:04.319Z</time></trkpt><trkpt lat="43.806245" lon="12.1934006"><ele>434.0</ele><time>2026-05-02T14:23:05.321Z</time></trkpt><trkpt lat="43.8062554" lon="12.1936974"><ele>439.5</ele><time>2026-05-02T14:23:06.312Z</time></trkpt><trkpt lat="43.8063021" lon="12.194008"><ele>445.0</ele><time>2026-05-02T14:23:07.321Z</time></trkpt><trkpt lat="43.8063687" lon="12.1943354"><ele>445.0</ele><time>2026-05-02T14:23:08.322Z</time></trkpt><trkpt lat="43.8064375" lon="12.1946722"><ele>445.0</ele><time>2026-05-02T14:23:09.321Z</time></trkpt><trkpt lat="43.8065066" lon="12.1950005"><ele>437.5</ele><time>2026-05-02T14:23:10.32Z</time></trkpt><trkpt lat="43.8065789" lon="12.1953344"><ele>430.0</ele><time>2026-05-02T14:23:11.321Z</time></trkpt><trkpt lat="43.8066514" lon="12.195661"><ele>427.5</ele><time>2026-05-02T14:23:12.321Z</time></trkpt><trkpt lat="43.8067262" lon="12.1959841"><ele>425.0</ele><time>2026-05-02T14:23:13.323Z</time></trkpt><trkpt lat="43.8067962" lon="12.1963087"><ele>427.0</ele><time>2026-05-02T14:23:14.322Z</time></trkpt><trkpt lat="43.8068632" lon="12.1966302"><ele>429.0</ele><time>2026-05-02T14:23:15.322Z</time></trkpt><trkpt lat="43.8069322" lon="12.1969489"><ele>429.0</ele><time>2026-05-02T14:23:16.323Z</time></trkpt><trkpt lat="43.8069898" lon="12.1972621"><ele>429.0</ele><time>2026-05-02T14:23:17.322Z</time></trkpt><trkpt lat="43.8070124" lon="12.1975844"><ele>422.5</ele><time>2026-05-02T14:23:18.322Z</time></trkpt><trkpt lat="43.8070088" lon="12.1979102"><ele>416.0</ele><time>2026-05-02T14:23:19.322Z</time></trkpt><trkpt lat="43.8069981" lon="12.1982417"><ele>416.0</ele><time>2026-05-02T14:23:20.321Z</time></trkpt><trkpt lat="43.8069822" lon="12.198571"><ele>416.0</ele><time>2026-05-02T14:23:21.321Z</time></trkpt><trkpt lat="43.8069662" lon="12.1989132"><ele>417.66666666666663</ele><time>2026-05-02T14:23:22.321Z</time></trkpt><trkpt lat="43.8069463" lon="12.1992258"><ele>419.33333333333337</ele><time>2026-05-02T14:23:23.321Z</time></trkpt><trkpt lat="43.8069101" lon="12.1995143"><ele>421.0</ele><time>2026-05-02T14:23:24.32Z</time></trkpt><trkpt lat="43.8068837" lon="12.1997992"><ele>426.6666666666667</ele><time>2026-05-02T14:23:25.321Z</time></trkpt><trkpt lat="43.806861" lon="12.2000792"><ele>432.33333333333337</ele><time>2026-05-02T14:23:26.32Z</time></trkpt><trkpt lat="43.8068536" lon="12.2003631"><ele>438.0</ele><time>2026-05-02T14:23:27.321Z</time></trkpt><trkpt lat="43.8068571" lon="12.2006526"><ele>447.0</ele><time>2026-05-02T14:23:28.322Z</time></trkpt><trkpt lat="43.8068408" lon="12.2009541"><ele>456.0</ele><time>2026-05-02T14:23:29.322Z</time></trkpt><trkpt lat="43.806812" lon="12.2012766"><ele>438.0</ele><time>2026-05-02T14:23:30.321Z</time></trkpt><trkpt lat="43.806769" lon="12.2016028"><ele>420.0</ele><time>2026-05-02T14:23:31.323Z</time></trkpt><trkpt lat="43.8067243" lon="12.2019167"><ele>420.0</ele><time>2026-05-02T14:23:32.322Z</time></trkpt><trkpt lat="43.8066856" lon="12.2022185"><ele>420.0</ele><time>2026-05-02T14:23:33.323Z</time></trkpt><trkpt lat="43.8066434" lon="12.2025255"><ele>420.0</ele><time>2026-05-02T14:23:34.321Z</time></trkpt><trkpt lat="43.806606" lon="12.2028238"><ele>420.66666666666663</ele><time>2026-05-02T14:23:35.322Z</time></trkpt><trkpt lat="43.8066563" lon="12.2031171"><ele>421.3333333333333</ele><time>2026-05-02T14:23:36.321Z</time></trkpt><trkpt lat="43.8066595" lon="12.2034121"><ele>422.0</ele><time>2026-05-02T14:23:37.323Z</time></trkpt><trkpt lat="43.8066714" lon="12.2036907"><ele>418.0</ele><time>2026-05-02T14:23:38.315Z</time></trkpt><trkpt lat="43.8066769" lon="12.2039407"><ele>414.0</ele><time>2026-05-02T14:23:39.322Z</time></trkpt><trkpt lat="43.806694" lon="12.2041857"><ele>410.0</ele><time>2026-05-02T14:23:40.32Z</time></trkpt><trkpt lat="43.806599" lon="12.204463"><ele>409.3333333333333</ele><time>2026-05-02T14:23:41.321Z</time></trkpt><trkpt lat="43.8065411" lon="12.2047401"><ele>408.66666666666663</ele><time>2026-05-02T14:23:42.322Z</time></trkpt><trkpt lat="43.8064841" lon="12.2050036"><ele>408.0</ele><time>2026-05-02T14:23:43.32Z</time></trkpt><trkpt lat="43.8064124" lon="12.2053107"><ele>407.33333333333337</ele><time>2026-05-02T14:23:44.321Z</time></trkpt><trkpt lat="43.8063462" lon="12.2056098"><ele>406.6666666666667</ele><time>2026-05-02T14:23:45.322Z</time></trkpt><trkpt lat="43.8062779" lon="12.2058954"><ele>406.0</ele><time>2026-05-02T14:23:46.322Z</time></trkpt><trkpt lat="43.8062097" lon="12.2061872"><ele>407.6666666666667</ele><time>2026-05-02T14:23:47.322Z</time></trkpt><trkpt lat="43.8061464" lon="12.2064734"><ele>409.33333333333337</ele><time>2026-05-02T14:23:48.321Z</time></trkpt><trkpt lat="43.8061088" lon="12.2067712"><ele>411.0</ele><time>2026-05-02T14:23:49.322Z</time></trkpt><trkpt lat="43.8061156" lon="12.2070798"><ele>413.5</ele><time>2026-05-02T14:23:50.322Z</time></trkpt><trkpt lat="43.8061056" lon="12.2073969"><ele>416.0</ele><time>2026-05-02T14:23:51.321Z</time></trkpt><trkpt lat="43.8061487" lon="12.2077264"><ele>416.0</ele><time>2026-05-02T14:23:52.321Z</time></trkpt><trkpt lat="43.8061638" lon="12.2080522"><ele>416.0</ele><time>2026-05-02T14:23:53.32Z</time></trkpt><trkpt lat="43.8061715" lon="12.2083847"><ele>414.5</ele><time>2026-05-02T14:23:54.321Z</time></trkpt><trkpt lat="43.8061333" lon="12.2087201"><ele>413.0</ele><time>2026-05-02T14:23:55.323Z</time></trkpt><trkpt lat="43.8060663" lon="12.2090506"><ele>403.0</ele><time>2026-05-02T14:23:56.321Z</time></trkpt><trkpt lat="43.8059894" lon="12.2093787"><ele>393.0</ele><time>2026-05-02T14:23:57.321Z</time></trkpt><trkpt lat="43.8059094" lon="12.2097001"><ele>396.5</ele><time>2026-05-02T14:23:58.321Z</time></trkpt><trkpt lat="43.8058037" lon="12.210018"><ele>400.0</ele><time>2026-05-02T14:23:59.322Z</time></trkpt><trkpt lat="43.8056759" lon="12.2103236"><ele>400.0</ele><time>2026-05-02T14:24:00.32Z</time></trkpt><trkpt lat="43.8055249" lon="12.2106253"><ele>400.0</ele><time>2026-05-02T14:24:01.322Z</time></trkpt><trkpt lat="43.8053879" lon="12.2109258"><ele>402.5</ele><time>2026-05-02T14:24:02.322Z</time></trkpt><trkpt lat="43.8052497" lon="12.2112305"><ele>405.0</ele><time>2026-05-02T14:24:03.322Z</time></trkpt><trkpt lat="43.805121" lon="12.2114827"><ele>399.5</ele><time>2026-05-02T14:24:04.321Z</time></trkpt><trkpt lat="43.8049943" lon="12.2117535"><ele>394.0</ele><time>2026-05-02T14:24:05.32Z</time></trkpt><trkpt lat="43.8048537" lon="12.2120286"><ele>394.0</ele><time>2026-05-02T14:24:06.323Z</time></trkpt><trkpt lat="43.804708" lon="12.2122977"><ele>394.0</ele><time>2026-05-02T14:24:07.322Z</time></trkpt><trkpt lat="43.8045695" lon="12.2125545"><ele>396.0</ele><time>2026-05-02T14:24:08.321Z</time></trkpt><trkpt lat="43.8044443" lon="12.2128017"><ele>398.0</ele><time>2026-05-02T14:24:09.322Z</time></trkpt><trkpt lat="43.804307" lon="12.2130401"><ele>400.0</ele><time>2026-05-02T14:24:10.32Z</time></trkpt><trkpt lat="43.8041851" lon="12.2132578"><ele>396.33333333333337</ele><time>2026-05-02T14:24:11.322Z</time></trkpt><trkpt lat="43.8040904" lon="12.213497"><ele>392.66666666666663</ele><time>2026-05-02T14:24:12.321Z</time></trkpt><trkpt lat="43.8039984" lon="12.2137572"><ele>389.0</ele><time>2026-05-02T14:24:13.321Z</time></trkpt><trkpt lat="43.8040177" lon="12.2140888"><ele>389.0</ele><time>2026-05-02T14:24:14.321Z</time></trkpt><trkpt lat="43.8040101" lon="12.2143905"><ele>389.0</ele><time>2026-05-02T14:24:15.318Z</time></trkpt><trkpt lat="43.8039929" lon="12.2147188"><ele>389.0</ele><time>2026-05-02T14:24:16.322Z</time></trkpt><trkpt lat="43.8040361" lon="12.2149853"><ele>389.0</ele><time>2026-05-02T14:24:17.322Z</time></trkpt><trkpt lat="43.8040244" lon="12.2152678"><ele>389.0</ele><time>2026-05-02T14:24:18.322Z</time></trkpt><trkpt lat="43.8040101" lon="12.2155287"><ele>389.0</ele><time>2026-05-02T14:24:19.323Z</time></trkpt><trkpt lat="43.8039764" lon="12.2157864"><ele>389.0</ele><time>2026-05-02T14:24:20.321Z</time></trkpt><trkpt lat="43.8039421" lon="12.2160288"><ele>389.0</ele><time>2026-05-02T14:24:21.322Z</time></trkpt><trkpt lat="43.803908" lon="12.2162664"><ele>389.3333333333333</ele><time>2026-05-02T14:24:22.323Z</time></trkpt><trkpt lat="43.803875" lon="12.2164918"><ele>389.66666666666663</ele><time>2026-05-02T14:24:23.319Z</time></trkpt><trkpt lat="43.8038452" lon="12.2167004"><ele>390.0</ele><time>2026-05-02T14:24:24.319Z</time></trkpt><trkpt lat="43.8038164" lon="12.2168972"><ele>390.0</ele><time>2026-05-02T14:24:25.316Z</time></trkpt><trkpt lat="43.8037923" lon="12.2170769"><ele>390.0</ele><time>2026-05-02T14:24:26.321Z</time></trkpt><trkpt lat="43.8037706" lon="12.217254"><ele>390.0</ele><time>2026-05-02T14:24:27.309Z</time></trkpt><trkpt lat="43.8037429" lon="12.2174134"><ele>390.0</ele><time>2026-05-02T14:24:28.317Z</time></trkpt><trkpt lat="43.8036982" lon="12.2175603"><ele>389.25</ele><time>2026-05-02T14:24:29.317Z</time></trkpt><trkpt lat="43.8036365" lon="12.2177103"><ele>388.5</ele><time>2026-05-02T14:24:30.318Z</time></trkpt><trkpt lat="43.8035456" lon="12.2178943"><ele>387.75</ele><time>2026-05-02T14:24:31.311Z</time></trkpt><trkpt lat="43.8034565" lon="12.2180648"><ele>387.0</ele><time>2026-05-02T14:24:32.316Z</time></trkpt><trkpt lat="43.8033729" lon="12.2182118"><ele>384.20000000000005</ele><time>2026-05-02T14:24:33.32Z</time></trkpt><trkpt lat="43.8032911" lon="12.2183514"><ele>381.4</ele><time>2026-05-02T14:24:34.321Z</time></trkpt><trkpt lat="43.8032206" lon="12.2184716"><ele>378.6</ele><time>2026-05-02T14:24:35.32Z</time></trkpt><trkpt lat="43.803157" lon="12.2185822"><ele>375.79999999999995</ele><time>2026-05-02T14:24:36.326Z</time></trkpt><trkpt lat="43.8031026" lon="12.2186876"><ele>373.0</ele><time>2026-05-02T14:24:37.32Z</time></trkpt><trkpt lat="43.8030487" lon="12.2187814"><ele>373.0</ele><time>2026-05-02T14:24:38.32Z</time></trkpt><trkpt lat="43.8030027" lon="12.2188669"><ele>373.0</ele><time>2026-05-02T14:24:39.32Z</time></trkpt><trkpt lat="43.8029587" lon="12.2189429"><ele>373.0</ele><time>2026-05-02T14:24:40.32Z</time></trkpt><trkpt lat="43.8029172" lon="12.2190126"><ele>373.0</ele><time>2026-05-02T14:24:41.32Z</time></trkpt><trkpt lat="43.8028771" lon="12.21908"><ele>373.0</ele><time>2026-05-02T14:24:42.32Z</time></trkpt><trkpt lat="43.8027868" lon="12.219172"><ele>373.0</ele><time>2026-05-02T14:24:44.321Z</time></trkpt><trkpt lat="43.8026546" lon="12.2191665"><ele>373.5</ele><time>2026-05-02T14:24:46.321Z</time></trkpt><trkpt lat="43.8025884" lon="12.2191375"><ele>374.0</ele><time>2026-05-02T14:24:47.321Z</time></trkpt><trkpt lat="43.8025203" lon="12.2190648"><ele>374.5</ele><time>2026-05-02T14:24:48.321Z</time></trkpt><trkpt lat="43.8024919" lon="12.218964"><ele>375.0</ele><time>2026-05-02T14:24:49.322Z</time></trkpt><trkpt lat="43.8024355" lon="12.2188938"><ele>375.5</ele><time>2026-05-02T14:24:50.318Z</time></trkpt><trkpt lat="43.8023835" lon="12.2188075"><ele>376.0</ele><time>2026-05-02T14:24:51.322Z</time></trkpt><trkpt lat="43.8023277" lon="12.2186999"><ele>376.0</ele><time>2026-05-02T14:24:52.322Z</time></trkpt><trkpt lat="43.8022727" lon="12.2185979"><ele>376.0</ele><time>2026-05-02T14:24:53.321Z</time></trkpt><trkpt lat="43.8022161" lon="12.2185153"><ele>376.0</ele><time>2026-05-02T14:24:54.322Z</time></trkpt><trkpt lat="43.8021633" lon="12.2184318"><ele>376.0</ele><time>2026-05-02T14:24:55.322Z</time></trkpt><trkpt lat="43.8021208" lon="12.2183531"><ele>376.0</ele><time>2026-05-02T14:24:56.324Z</time></trkpt><trkpt lat="43.8020256" lon="12.2182179"><ele>376.0</ele><time>2026-05-02T14:24:58.323Z</time></trkpt><trkpt lat="43.8019647" lon="12.2182565"><ele>376.0</ele><time>2026-05-02T14:24:59.32Z</time></trkpt><trkpt lat="43.8019228" lon="12.2183917"><ele>376.0</ele><time>2026-05-02T14:25:01.321Z</time></trkpt><trkpt lat="43.8019736" lon="12.2185192"><ele>376.0</ele><time>2026-05-02T14:25:03.322Z</time></trkpt><trkpt lat="43.8020998" lon="12.2185928"><ele>376.0</ele><time>2026-05-02T14:25:04.322Z</time></trkpt><trkpt lat="43.8021537" lon="12.2186972"><ele>376.0</ele><time>2026-05-02T14:25:05.323Z</time></trkpt><trkpt lat="43.8021989" lon="12.2188132"><ele>376.0</ele><time>2026-05-02T14:25:06.321Z</time></trkpt><trkpt lat="43.8022534" lon="12.2189464"><ele>376.0</ele><time>2026-05-02T14:25:07.324Z</time></trkpt><trkpt lat="43.8022999" lon="12.2190938"><ele>376.0</ele><time>2026-05-02T14:25:08.322Z</time></trkpt><trkpt lat="43.802346" lon="12.2192442"><ele>376.0</ele><time>2026-05-02T14:25:09.322Z</time></trkpt><trkpt lat="43.8023964" lon="12.2193933"><ele>379.20000000000005</ele><time>2026-05-02T14:25:10.321Z</time></trkpt><trkpt lat="43.8024452" lon="12.219547"><ele>382.40000000000003</ele><time>2026-05-02T14:25:11.321Z</time></trkpt><trkpt lat="43.8024981" lon="12.219685"><ele>385.6</ele><time>2026-05-02T14:25:12.321Z</time></trkpt><trkpt lat="43.8025392" lon="12.2198152"><ele>388.8</ele><time>2026-05-02T14:25:13.321Z</time></trkpt><trkpt lat="43.8025678" lon="12.2199532"><ele>392.0</ele><time>2026-05-02T14:25:14.32Z</time></trkpt><trkpt lat="43.8026036" lon="12.2200926"><ele>388.75</ele><time>2026-05-02T14:25:15.318Z</time></trkpt><trkpt lat="43.8026215" lon="12.2202411"><ele>385.5</ele><time>2026-05-02T14:25:16.321Z</time></trkpt><trkpt lat="43.8026549" lon="12.2204626"><ele>382.25</ele><time>2026-05-02T14:25:17.321Z</time></trkpt><trkpt lat="43.8026879" lon="12.220647"><ele>379.0</ele><time>2026-05-02T14:25:18.321Z</time></trkpt><trkpt lat="43.8026969" lon="12.2208233"><ele>379.0</ele><time>2026-05-02T14:25:19.322Z</time></trkpt><trkpt lat="43.8027118" lon="12.2210874"><ele>379.0</ele><time>2026-05-02T14:25:20.32Z</time></trkpt><trkpt lat="43.8027501" lon="12.2212722"><ele>379.0</ele><time>2026-05-02T14:25:21.321Z</time></trkpt><trkpt lat="43.802805" lon="12.2214164"><ele>379.0</ele><time>2026-05-02T14:25:22.322Z</time></trkpt><trkpt lat="43.8028669" lon="12.2216263"><ele>382.75</ele><time>2026-05-02T14:25:23.319Z</time></trkpt><trkpt lat="43.8029469" lon="12.2217665"><ele>386.5</ele><time>2026-05-02T14:25:24.321Z</time></trkpt><trkpt lat="43.8030499" lon="12.2218285"><ele>390.25</ele><time>2026-05-02T14:25:25.321Z</time></trkpt><trkpt lat="43.8031505" lon="12.2219207"><ele>394.0</ele><time>2026-05-02T14:25:26.317Z</time></trkpt><trkpt lat="43.8032456" lon="12.2220796"><ele>394.0</ele><time>2026-05-02T14:25:27.316Z</time></trkpt><trkpt lat="43.803294" lon="12.2221915"><ele>394.0</ele><time>2026-05-02T14:25:28.319Z</time></trkpt><trkpt lat="43.8033482" lon="12.2223623"><ele>394.0</ele><time>2026-05-02T14:25:29.319Z</time></trkpt><trkpt lat="43.8033419" lon="12.222566"><ele>394.0</ele><time>2026-05-02T14:25:30.32Z</time></trkpt><trkpt lat="43.8033819" lon="12.2227258"><ele>400.25</ele><time>2026-05-02T14:25:31.317Z</time></trkpt><trkpt lat="43.8034055" lon="12.2228845"><ele>406.5</ele><time>2026-05-02T14:25:32.322Z</time></trkpt><trkpt lat="43.8033802" lon="12.2230323"><ele>412.75</ele><time>2026-05-02T14:25:33.321Z</time></trkpt><trkpt lat="43.8033141" lon="12.2231838"><ele>419.0</ele><time>2026-05-02T14:25:34.321Z</time></trkpt><trkpt lat="43.8032597" lon="12.2233291"><ele>420.25</ele><time>2026-05-02T14:25:35.319Z</time></trkpt><trkpt lat="43.8031671" lon="12.2234955"><ele>421.5</ele><time>2026-05-02T14:25:36.326Z</time></trkpt><trkpt lat="43.8031128" lon="12.2236444"><ele>422.75</ele><time>2026-05-02T14:25:37.325Z</time></trkpt><trkpt lat="43.8030594" lon="12.2237909"><ele>424.0</ele><time>2026-05-02T14:25:38.324Z</time></trkpt><trkpt lat="43.8030087" lon="12.223943"><ele>424.5</ele><time>2026-05-02T14:25:39.325Z</time></trkpt><trkpt lat="43.8029636" lon="12.224097"><ele>425.0</ele><time>2026-05-02T14:25:40.324Z</time></trkpt><trkpt lat="43.8029527" lon="12.2242689"><ele>425.5</ele><time>2026-05-02T14:25:41.324Z</time></trkpt><trkpt lat="43.8030453" lon="12.224464"><ele>426.0</ele><time>2026-05-02T14:25:42.326Z</time></trkpt><trkpt lat="43.8031034" lon="12.2246371"><ele>426.0</ele><time>2026-05-02T14:25:43.325Z</time></trkpt><trkpt lat="43.803152" lon="12.2248081"><ele>426.0</ele><time>2026-05-02T14:25:44.324Z</time></trkpt><trkpt lat="43.8032008" lon="12.2249491"><ele>426.0</ele><time>2026-05-02T14:25:45.325Z</time></trkpt><trkpt lat="43.8032477" lon="12.2250822"><ele>426.0</ele><time>2026-05-02T14:25:46.323Z</time></trkpt><trkpt lat="43.8033016" lon="12.2251995"><ele>429.75</ele><time>2026-05-02T14:25:47.322Z</time></trkpt><trkpt lat="43.8033457" lon="12.225313"><ele>433.5</ele><time>2026-05-02T14:25:48.324Z</time></trkpt><trkpt lat="43.8034512" lon="12.2253653"><ele>437.25</ele><time>2026-05-02T14:25:49.315Z</time></trkpt><trkpt lat="43.8035637" lon="12.2252575"><ele>441.0</ele><time>2026-05-02T14:25:50.322Z</time></trkpt><trkpt lat="43.8036903" lon="12.2251493"><ele>441.6</ele><time>2026-05-02T14:25:51.322Z</time></trkpt><trkpt lat="43.8038145" lon="12.2251071"><ele>442.20000000000005</ele><time>2026-05-02T14:25:52.323Z</time></trkpt><trkpt lat="43.8039155" lon="12.225095"><ele>442.79999999999995</ele><time>2026-05-02T14:25:53.326Z</time></trkpt><trkpt lat="43.8040151" lon="12.2250671"><ele>443.4</ele><time>2026-05-02T14:25:54.324Z</time></trkpt><trkpt lat="43.8041022" lon="12.225028"><ele>444.0</ele><time>2026-05-02T14:25:55.322Z</time></trkpt><trkpt lat="43.804177" lon="12.2249705"><ele>444.0</ele><time>2026-05-02T14:25:56.323Z</time></trkpt><trkpt lat="43.8042333" lon="12.2248627"><ele>444.0</ele><time>2026-05-02T14:25:57.439Z</time></trkpt><trkpt lat="43.8043426" lon="12.2247807"><ele>444.0</ele><time>2026-05-02T14:25:59.323Z</time></trkpt><trkpt lat="43.8044248" lon="12.2247445"><ele>444.0</ele><time>2026-05-02T14:26:01.323Z</time></trkpt><trkpt lat="43.8044891" lon="12.2247608"><ele>444.0</ele><time>2026-05-02T14:26:03.321Z</time></trkpt><trkpt lat="43.804573" lon="12.2248697"><ele>441.0</ele><time>2026-05-02T14:26:44.323Z</time></trkpt><trkpt lat="43.8046455" lon="12.2249289"><ele>438.0</ele><time>2026-05-02T14:26:45.325Z</time></trkpt><trkpt lat="43.8047455" lon="12.2250128"><ele>435.0</ele><time>2026-05-02T14:26:46.326Z</time></trkpt><trkpt lat="43.8048084" lon="12.2250902"><ele>432.0</ele><time>2026-05-02T14:26:47.325Z</time></trkpt><trkpt lat="43.804909" lon="12.2252019"><ele>429.0</ele><time>2026-05-02T14:26:48.325Z</time></trkpt><trkpt lat="43.8049611" lon="12.2252655"><ele>429.0</ele><time>2026-05-02T14:26:49.323Z</time></trkpt><trkpt lat="43.8050751" lon="12.2253598"><ele>429.0</ele><time>2026-05-02T14:26:50.325Z</time></trkpt><trkpt lat="43.8051766" lon="12.2254878"><ele>429.0</ele><time>2026-05-02T14:26:51.325Z</time></trkpt><trkpt lat="43.8053181" lon="12.2255813"><ele>429.0</ele><time>2026-05-02T14:26:52.322Z</time></trkpt><trkpt lat="43.8054047" lon="12.2257139"><ele>427.75</ele><time>2026-05-02T14:26:53.323Z</time></trkpt><trkpt lat="43.8054838" lon="12.2258491"><ele>426.5</ele><time>2026-05-02T14:26:54.323Z</time></trkpt><trkpt lat="43.8055332" lon="12.226024"><ele>425.25</ele><time>2026-05-02T14:26:55.324Z</time></trkpt><trkpt lat="43.8055149" lon="12.226199"><ele>424.0</ele><time>2026-05-02T14:26:56.325Z</time></trkpt><trkpt lat="43.8054049" lon="12.2264081"><ele>426.25</ele><time>2026-05-02T14:26:57.325Z</time></trkpt><trkpt lat="43.8053639" lon="12.2265899"><ele>428.5</ele><time>2026-05-02T14:26:58.316Z</time></trkpt><trkpt lat="43.8053302" lon="12.2267633"><ele>430.75</ele><time>2026-05-02T14:26:59.327Z</time></trkpt><trkpt lat="43.8052988" lon="12.2269376"><ele>433.0</ele><time>2026-05-02T14:27:00.326Z</time></trkpt><trkpt lat="43.8052654" lon="12.2271251"><ele>433.0</ele><time>2026-05-02T14:27:01.326Z</time></trkpt><trkpt lat="43.8053012" lon="12.2272221"><ele>433.0</ele><time>2026-05-02T14:27:02.327Z</time></trkpt><trkpt lat="43.8054802" lon="12.2272079"><ele>433.0</ele><time>2026-05-02T14:27:03.326Z</time></trkpt><trkpt lat="43.8055723" lon="12.2272693"><ele>433.0</ele><time>2026-05-02T14:27:04.323Z</time></trkpt><trkpt lat="43.8057406" lon="12.2272417"><ele>433.0</ele><time>2026-05-02T14:27:05.324Z</time></trkpt><trkpt lat="43.8058913" lon="12.227239"><ele>433.0</ele><time>2026-05-02T14:27:06.325Z</time></trkpt><trkpt lat="43.8060337" lon="12.2272307"><ele>433.0</ele><time>2026-05-02T14:27:07.323Z</time></trkpt><trkpt lat="43.8062264" lon="12.2271808"><ele>431.0</ele><time>2026-05-02T14:27:08.321Z</time></trkpt><trkpt lat="43.8064148" lon="12.2269871"><ele>429.0</ele><time>2026-05-02T14:27:09.321Z</time></trkpt><trkpt lat="43.8066085" lon="12.2268078"><ele>429.0</ele><time>2026-05-02T14:27:10.325Z</time></trkpt><trkpt lat="43.8068007" lon="12.2266572"><ele>429.0</ele><time>2026-05-02T14:27:11.322Z</time></trkpt><trkpt lat="43.8069792" lon="12.2265265"><ele>429.0</ele><time>2026-05-02T14:27:12.324Z</time></trkpt><trkpt lat="43.8071574" lon="12.2264337"><ele>428.66666666666663</ele><time>2026-05-02T14:27:13.325Z</time></trkpt><trkpt lat="43.8073817" lon="12.2264312"><ele>428.3333333333333</ele><time>2026-05-02T14:27:14.325Z</time></trkpt><trkpt lat="43.8075031" lon="12.226546"><ele>428.0</ele><time>2026-05-02T14:27:15.323Z</time></trkpt><trkpt lat="43.8076594" lon="12.2267037"><ele>422.0</ele><time>2026-05-02T14:27:16.325Z</time></trkpt><trkpt lat="43.8078265" lon="12.2268871"><ele>416.0</ele><time>2026-05-02T14:27:17.326Z</time></trkpt><trkpt lat="43.8079958" lon="12.227018"><ele>410.0</ele><time>2026-05-02T14:27:18.325Z</time></trkpt><trkpt lat="43.8081889" lon="12.2271782"><ele>406.0</ele><time>2026-05-02T14:27:19.324Z</time></trkpt><trkpt lat="43.8083505" lon="12.2273222"><ele>402.0</ele><time>2026-05-02T14:27:20.324Z</time></trkpt><trkpt lat="43.8084867" lon="12.2274824"><ele>398.0</ele><time>2026-05-02T14:27:21.324Z</time></trkpt><trkpt lat="43.8086372" lon="12.2276679"><ele>398.0</ele><time>2026-05-02T14:27:22.325Z</time></trkpt><trkpt lat="43.808761" lon="12.2278547"><ele>398.0</ele><time>2026-05-02T14:27:23.323Z</time></trkpt><trkpt lat="43.8088776" lon="12.228043"><ele>398.0</ele><time>2026-05-02T14:27:24.319Z</time></trkpt><trkpt lat="43.808978" lon="12.2282302"><ele>404.66666666666663</ele><time>2026-05-02T14:27:25.327Z</time></trkpt><trkpt lat="43.8090982" lon="12.2283988"><ele>411.33333333333337</ele><time>2026-05-02T14:27:26.32Z</time></trkpt><trkpt lat="43.8092078" lon="12.2285712"><ele>418.0</ele><time>2026-05-02T14:27:27.324Z</time></trkpt><trkpt lat="43.8093139" lon="12.2287318"><ele>409.6666666666667</ele><time>2026-05-02T14:27:28.324Z</time></trkpt><trkpt lat="43.809421" lon="12.2289036"><ele>401.33333333333337</ele><time>2026-05-02T14:27:29.325Z</time></trkpt><trkpt lat="43.8095179" lon="12.2290763"><ele>393.0</ele><time>2026-05-02T14:27:30.322Z</time></trkpt><trkpt lat="43.8096123" lon="12.2292603"><ele>393.0</ele><time>2026-05-02T14:27:31.324Z</time></trkpt><trkpt lat="43.8096647" lon="12.2294996"><ele>393.0</ele><time>2026-05-02T14:27:32.324Z</time></trkpt><trkpt lat="43.8095165" lon="12.2298032"><ele>393.0</ele><time>2026-05-02T14:27:33.324Z</time></trkpt><trkpt lat="43.8094591" lon="12.2300501"><ele>392.33333333333337</ele><time>2026-05-02T14:27:34.324Z</time></trkpt><trkpt lat="43.8093729" lon="12.2302919"><ele>391.6666666666667</ele><time>2026-05-02T14:27:35.324Z</time></trkpt><trkpt lat="43.8092872" lon="12.2305302"><ele>391.0</ele><time>2026-05-02T14:27:36.322Z</time></trkpt><trkpt lat="43.8092274" lon="12.2307791"><ele>401.0</ele><time>2026-05-02T14:27:37.324Z</time></trkpt><trkpt lat="43.8091776" lon="12.2310518"><ele>411.0</ele><time>2026-05-02T14:27:38.324Z</time></trkpt><trkpt lat="43.8091476" lon="12.2313068"><ele>421.0</ele><time>2026-05-02T14:27:39.322Z</time></trkpt><trkpt lat="43.8091171" lon="12.2315629"><ele>421.0</ele><time>2026-05-02T14:27:40.321Z</time></trkpt><trkpt lat="43.8090773" lon="12.2318225"><ele>421.0</ele><time>2026-05-02T14:27:41.326Z</time></trkpt><trkpt lat="43.8090291" lon="12.2320564"><ele>421.0</ele><time>2026-05-02T14:27:42.322Z</time></trkpt><trkpt lat="43.8089912" lon="12.2322843"><ele>418.6666666666667</ele><time>2026-05-02T14:27:43.324Z</time></trkpt><trkpt lat="43.8089708" lon="12.23252"><ele>416.33333333333337</ele><time>2026-05-02T14:27:44.321Z</time></trkpt><trkpt lat="43.8089719" lon="12.2327528"><ele>414.0</ele><time>2026-05-02T14:27:45.325Z</time></trkpt><trkpt lat="43.8090071" lon="12.2329765"><ele>415.66666666666663</ele><time>2026-05-02T14:27:46.325Z</time></trkpt><trkpt lat="43.8090689" lon="12.2331896"><ele>417.3333333333333</ele><time>2026-05-02T14:27:47.323Z</time></trkpt><trkpt lat="43.8091573" lon="12.2333735"><ele>419.0</ele><time>2026-05-02T14:27:48.324Z</time></trkpt><trkpt lat="43.8092547" lon="12.2335364"><ele>413.25</ele><time>2026-05-02T14:27:49.324Z</time></trkpt><trkpt lat="43.8093494" lon="12.2336828"><ele>407.5</ele><time>2026-05-02T14:27:50.32Z</time></trkpt><trkpt lat="43.8094261" lon="12.2338486"><ele>401.75</ele><time>2026-05-02T14:27:51.325Z</time></trkpt><trkpt lat="43.8094692" lon="12.2340317"><ele>396.0</ele><time>2026-05-02T14:27:52.324Z</time></trkpt><trkpt lat="43.8094878" lon="12.2342398"><ele>396.0</ele><time>2026-05-02T14:27:53.323Z</time></trkpt><trkpt lat="43.8094912" lon="12.2344651"><ele>396.0</ele><time>2026-05-02T14:27:54.323Z</time></trkpt><trkpt lat="43.8094921" lon="12.2346843"><ele>396.0</ele><time>2026-05-02T14:27:55.325Z</time></trkpt><trkpt lat="43.8094917" lon="12.2348983"><ele>397.0</ele><time>2026-05-02T14:27:56.323Z</time></trkpt><trkpt lat="43.8094915" lon="12.2351078"><ele>398.0</ele><time>2026-05-02T14:27:57.325Z</time></trkpt><trkpt lat="43.8094906" lon="12.2353213"><ele>399.0</ele><time>2026-05-02T14:27:58.318Z</time></trkpt><trkpt lat="43.809489" lon="12.2355357"><ele>398.0</ele><time>2026-05-02T14:27:59.32Z</time></trkpt><trkpt lat="43.8094972" lon="12.2357469"><ele>397.0</ele><time>2026-05-02T14:28:00.324Z</time></trkpt><trkpt lat="43.8095122" lon="12.2359568"><ele>396.0</ele><time>2026-05-02T14:28:01.324Z</time></trkpt><trkpt lat="43.8096046" lon="12.2361601"><ele>396.0</ele><time>2026-05-02T14:28:02.322Z</time></trkpt><trkpt lat="43.8096991" lon="12.2363311"><ele>396.0</ele><time>2026-05-02T14:28:03.325Z</time></trkpt><trkpt lat="43.8098203" lon="12.2364655"><ele>396.0</ele><time>2026-05-02T14:28:04.323Z</time></trkpt><trkpt lat="43.8099548" lon="12.2365776"><ele>398.25</ele><time>2026-05-02T14:28:05.324Z</time></trkpt><trkpt lat="43.8100891" lon="12.2366789"><ele>400.5</ele><time>2026-05-02T14:28:06.324Z</time></trkpt><trkpt lat="43.8102146" lon="12.23678"><ele>402.75</ele><time>2026-05-02T14:28:07.325Z</time></trkpt><trkpt lat="43.8103258" lon="12.2369154"><ele>405.0</ele><time>2026-05-02T14:28:08.321Z</time></trkpt><trkpt lat="43.8103974" lon="12.2370764"><ele>401.75</ele><time>2026-05-02T14:28:09.325Z</time></trkpt><trkpt lat="43.8104345" lon="12.237247"><ele>398.5</ele><time>2026-05-02T14:28:10.323Z</time></trkpt><trkpt lat="43.8104126" lon="12.2374217"><ele>395.25</ele><time>2026-05-02T14:28:11.322Z</time></trkpt><trkpt lat="43.8103539" lon="12.2375851"><ele>392.0</ele><time>2026-05-02T14:28:12.321Z</time></trkpt><trkpt lat="43.810276" lon="12.2377425"><ele>394.0</ele><time>2026-05-02T14:28:13.324Z</time></trkpt><trkpt lat="43.8101035" lon="12.2378653"><ele>396.0</ele><time>2026-05-02T14:28:14.322Z</time></trkpt><trkpt lat="43.809947" lon="12.2380138"><ele>398.0</ele><time>2026-05-02T14:28:15.324Z</time></trkpt><trkpt lat="43.8097493" lon="12.2381831"><ele>398.0</ele><time>2026-05-02T14:28:16.324Z</time></trkpt><trkpt lat="43.8095246" lon="12.2383784"><ele>398.0</ele><time>2026-05-02T14:28:17.321Z</time></trkpt><trkpt lat="43.8093467" lon="12.2385566"><ele>398.3333333333333</ele><time>2026-05-02T14:28:18.319Z</time></trkpt><trkpt lat="43.8091639" lon="12.2387489"><ele>398.66666666666663</ele><time>2026-05-02T14:28:19.319Z</time></trkpt><trkpt lat="43.8090188" lon="12.2389713"><ele>399.0</ele><time>2026-05-02T14:28:20.324Z</time></trkpt><trkpt lat="43.808911" lon="12.2391929"><ele>399.0</ele><time>2026-05-02T14:28:21.324Z</time></trkpt><trkpt lat="43.8089268" lon="12.2395044"><ele>399.0</ele><time>2026-05-02T14:28:22.322Z</time></trkpt><trkpt lat="43.8088971" lon="12.2397812"><ele>399.0</ele><time>2026-05-02T14:28:23.324Z</time></trkpt><trkpt lat="43.8088964" lon="12.24005"><ele>398.33333333333337</ele><time>2026-05-02T14:28:24.324Z</time></trkpt><trkpt lat="43.8089212" lon="12.2403254"><ele>397.6666666666667</ele><time>2026-05-02T14:28:25.391Z</time></trkpt><trkpt lat="43.8089851" lon="12.2405835"><ele>397.0</ele><time>2026-05-02T14:28:26.328Z</time></trkpt><trkpt lat="43.8090505" lon="12.2408551"><ele>397.0</ele><time>2026-05-02T14:28:27.323Z</time></trkpt><trkpt lat="43.8092084" lon="12.2410365"><ele>397.0</ele><time>2026-05-02T14:28:28.323Z</time></trkpt><trkpt lat="43.8093494" lon="12.2412234"><ele>397.0</ele><time>2026-05-02T14:28:29.322Z</time></trkpt><trkpt lat="43.8095529" lon="12.2413457"><ele>395.6666666666667</ele><time>2026-05-02T14:28:30.324Z</time></trkpt><trkpt lat="43.8097587" lon="12.2414545"><ele>394.33333333333337</ele><time>2026-05-02T14:28:31.323Z</time></trkpt><trkpt lat="43.8099702" lon="12.2415426"><ele>393.0</ele><time>2026-05-02T14:28:32.322Z</time></trkpt><trkpt lat="43.8101787" lon="12.2416371"><ele>391.0</ele><time>2026-05-02T14:28:33.324Z</time></trkpt><trkpt lat="43.8103909" lon="12.2417337"><ele>389.0</ele><time>2026-05-02T14:28:34.325Z</time></trkpt><trkpt lat="43.8106038" lon="12.2418258"><ele>387.0</ele><time>2026-05-02T14:28:35.324Z</time></trkpt><trkpt lat="43.8108132" lon="12.2419253"><ele>386.66666666666663</ele><time>2026-05-02T14:28:36.324Z</time></trkpt><trkpt lat="43.8110208" lon="12.2420203"><ele>386.3333333333333</ele><time>2026-05-02T14:28:37.323Z</time></trkpt><trkpt lat="43.8112186" lon="12.2421125"><ele>386.0</ele><time>2026-05-02T14:28:38.322Z</time></trkpt><trkpt lat="43.811425" lon="12.2422011"><ele>386.0</ele><time>2026-05-02T14:28:39.326Z</time></trkpt><trkpt lat="43.811631" lon="12.2422891"><ele>386.0</ele><time>2026-05-02T14:28:40.326Z</time></trkpt><trkpt lat="43.8118289" lon="12.242362"><ele>386.0</ele><time>2026-05-02T14:28:41.322Z</time></trkpt><trkpt lat="43.8120291" lon="12.2424058"><ele>387.3333333333333</ele><time>2026-05-02T14:28:42.324Z</time></trkpt><trkpt lat="43.8122256" lon="12.2423679"><ele>388.66666666666663</ele><time>2026-05-02T14:28:43.322Z</time></trkpt><trkpt lat="43.8124205" lon="12.2422933"><ele>390.0</ele><time>2026-05-02T14:28:44.323Z</time></trkpt><trkpt lat="43.8126097" lon="12.2422064"><ele>388.66666666666663</ele><time>2026-05-02T14:28:45.325Z</time></trkpt><trkpt lat="43.8127639" lon="12.2420561"><ele>387.3333333333333</ele><time>2026-05-02T14:28:46.316Z</time></trkpt><trkpt lat="43.8129394" lon="12.2419395"><ele>386.0</ele><time>2026-05-02T14:28:47.324Z</time></trkpt><trkpt lat="43.8131273" lon="12.2418691"><ele>386.0</ele><time>2026-05-02T14:28:48.324Z</time></trkpt><trkpt lat="43.8133173" lon="12.2418212"><ele>386.0</ele><time>2026-05-02T14:28:49.322Z</time></trkpt><trkpt lat="43.8135233" lon="12.2418494"><ele>386.0</ele><time>2026-05-02T14:28:50.323Z</time></trkpt><trkpt lat="43.8137231" lon="12.2419121"><ele>384.0</ele><time>2026-05-02T14:28:51.325Z</time></trkpt><trkpt lat="43.8139241" lon="12.2420262"><ele>382.0</ele><time>2026-05-02T14:28:52.321Z</time></trkpt><trkpt lat="43.8141264" lon="12.2421556"><ele>380.0</ele><time>2026-05-02T14:28:53.324Z</time></trkpt><trkpt lat="43.81434" lon="12.2422902"><ele>381.0</ele><time>2026-05-02T14:28:54.325Z</time></trkpt><trkpt lat="43.8145496" lon="12.2424211"><ele>382.0</ele><time>2026-05-02T14:28:55.322Z</time></trkpt><trkpt lat="43.8147635" lon="12.2425453"><ele>382.0</ele><time>2026-05-02T14:28:56.324Z</time></trkpt><trkpt lat="43.8149775" lon="12.2426784"><ele>382.0</ele><time>2026-05-02T14:28:57.326Z</time></trkpt><trkpt lat="43.8151879" lon="12.2428108"><ele>378.0</ele><time>2026-05-02T14:28:58.321Z</time></trkpt><trkpt lat="43.8153988" lon="12.2429475"><ele>374.0</ele><time>2026-05-02T14:28:59.323Z</time></trkpt><trkpt lat="43.8156191" lon="12.243084"><ele>375.0</ele><time>2026-05-02T14:29:00.324Z</time></trkpt><trkpt lat="43.8158411" lon="12.2432257"><ele>376.0</ele><time>2026-05-02T14:29:01.325Z</time></trkpt><trkpt lat="43.8160676" lon="12.2433732"><ele>376.0</ele><time>2026-05-02T14:29:02.325Z</time></trkpt><trkpt lat="43.8162971" lon="12.2435191"><ele>376.0</ele><time>2026-05-02T14:29:03.324Z</time></trkpt><trkpt lat="43.8165312" lon="12.2436688"><ele>376.0</ele><time>2026-05-02T14:29:04.322Z</time></trkpt><trkpt lat="43.8167687" lon="12.2438126"><ele>376.0</ele><time>2026-05-02T14:29:05.324Z</time></trkpt><trkpt lat="43.8170003" lon="12.2439619"><ele>374.5</ele><time>2026-05-02T14:29:06.324Z</time></trkpt><trkpt lat="43.8172246" lon="12.244102"><ele>373.0</ele><time>2026-05-02T14:29:07.32Z</time></trkpt><trkpt lat="43.8174381" lon="12.2442453"><ele>369.5</ele><time>2026-05-02T14:29:08.322Z</time></trkpt><trkpt lat="43.8176563" lon="12.2443725"><ele>366.0</ele><time>2026-05-02T14:29:09.324Z</time></trkpt><trkpt lat="43.8178669" lon="12.2445106"><ele>366.0</ele><time>2026-05-02T14:29:10.322Z</time></trkpt><trkpt lat="43.818065" lon="12.2446603"><ele>366.0</ele><time>2026-05-02T14:29:11.324Z</time></trkpt><trkpt lat="43.8182424" lon="12.2448218"><ele>366.0</ele><time>2026-05-02T14:29:12.325Z</time></trkpt><trkpt lat="43.8184052" lon="12.2450048"><ele>365.3333333333333</ele><time>2026-05-02T14:29:13.321Z</time></trkpt><trkpt lat="43.8185507" lon="12.2452012"><ele>364.66666666666663</ele><time>2026-05-02T14:29:14.324Z</time></trkpt><trkpt lat="43.8186814" lon="12.2454098"><ele>364.0</ele><time>2026-05-02T14:29:15.325Z</time></trkpt><trkpt lat="43.8188051" lon="12.2456282"><ele>365.3333333333333</ele><time>2026-05-02T14:29:16.323Z</time></trkpt><trkpt lat="43.8189212" lon="12.2458464"><ele>366.6666666666667</ele><time>2026-05-02T14:29:17.322Z</time></trkpt><trkpt lat="43.8190332" lon="12.2460731"><ele>368.0</ele><time>2026-05-02T14:29:18.321Z</time></trkpt><trkpt lat="43.8191447" lon="12.246299"><ele>367.33333333333337</ele><time>2026-05-02T14:29:19.323Z</time></trkpt><trkpt lat="43.8192601" lon="12.2465234"><ele>366.6666666666667</ele><time>2026-05-02T14:29:20.323Z</time></trkpt><trkpt lat="43.8193682" lon="12.246735"><ele>366.0</ele><time>2026-05-02T14:29:21.324Z</time></trkpt><trkpt lat="43.8194758" lon="12.2469441"><ele>365.6666666666667</ele><time>2026-05-02T14:29:22.321Z</time></trkpt><trkpt lat="43.819576" lon="12.2471529"><ele>365.33333333333337</ele><time>2026-05-02T14:29:23.326Z</time></trkpt><trkpt lat="43.819676" lon="12.2473565"><ele>365.0</ele><time>2026-05-02T14:29:24.324Z</time></trkpt><trkpt lat="43.8197637" lon="12.2475397"><ele>365.0</ele><time>2026-05-02T14:29:25.322Z</time></trkpt><trkpt lat="43.8198514" lon="12.2477208"><ele>365.0</ele><time>2026-05-02T14:29:26.325Z</time></trkpt><trkpt lat="43.8199374" lon="12.2478788"><ele>365.0</ele><time>2026-05-02T14:29:27.322Z</time></trkpt><trkpt lat="43.8200368" lon="12.2480103"><ele>365.0</ele><time>2026-05-02T14:29:28.325Z</time></trkpt><trkpt lat="43.8201373" lon="12.2481013"><ele>364.75</ele><time>2026-05-02T14:29:29.322Z</time></trkpt><trkpt lat="43.8202655" lon="12.2481308"><ele>364.5</ele><time>2026-05-02T14:29:30.321Z</time></trkpt><trkpt lat="43.820399" lon="12.2480554"><ele>364.25</ele><time>2026-05-02T14:29:31.326Z</time></trkpt><trkpt lat="43.8205487" lon="12.2479984"><ele>364.0</ele><time>2026-05-02T14:29:32.325Z</time></trkpt><trkpt lat="43.820699" lon="12.2478836"><ele>364.0</ele><time>2026-05-02T14:29:33.323Z</time></trkpt><trkpt lat="43.8208477" lon="12.2478028"><ele>364.0</ele><time>2026-05-02T14:29:34.325Z</time></trkpt><trkpt lat="43.8209951" lon="12.2477186"><ele>364.0</ele><time>2026-05-02T14:29:35.32Z</time></trkpt><trkpt lat="43.8211393" lon="12.2476413"><ele>365.0</ele><time>2026-05-02T14:29:36.325Z</time></trkpt><trkpt lat="43.8212868" lon="12.2475519"><ele>366.0</ele><time>2026-05-02T14:29:37.323Z</time></trkpt><trkpt lat="43.8214334" lon="12.247471"><ele>367.0</ele><time>2026-05-02T14:29:38.325Z</time></trkpt><trkpt lat="43.8215814" lon="12.2474162"><ele>367.0</ele><time>2026-05-02T14:29:39.326Z</time></trkpt><trkpt lat="43.8217413" lon="12.2473951"><ele>367.0</ele><time>2026-05-02T14:29:40.325Z</time></trkpt><trkpt lat="43.8219037" lon="12.2473813"><ele>367.0</ele><time>2026-05-02T14:29:41.324Z</time></trkpt><trkpt lat="43.8220659" lon="12.247399"><ele>365.75</ele><time>2026-05-02T14:29:42.324Z</time></trkpt><trkpt lat="43.8222232" lon="12.2474207"><ele>364.5</ele><time>2026-05-02T14:29:43.325Z</time></trkpt><trkpt lat="43.822368" lon="12.2474428"><ele>363.25</ele><time>2026-05-02T14:29:44.323Z</time></trkpt><trkpt lat="43.8225003" lon="12.2474684"><ele>362.0</ele><time>2026-05-02T14:29:45.325Z</time></trkpt><trkpt lat="43.8226242" lon="12.2474946"><ele>360.25</ele><time>2026-05-02T14:29:46.326Z</time></trkpt><trkpt lat="43.8227537" lon="12.2475276"><ele>358.5</ele><time>2026-05-02T14:29:47.325Z</time></trkpt><trkpt lat="43.8228907" lon="12.2475574"><ele>356.75</ele><time>2026-05-02T14:29:48.322Z</time></trkpt><trkpt lat="43.8230251" lon="12.2475851"><ele>355.0</ele><time>2026-05-02T14:29:49.319Z</time></trkpt><trkpt lat="43.823141" lon="12.2476086"><ele>355.0</ele><time>2026-05-02T14:29:50.325Z</time></trkpt><trkpt lat="43.8232612" lon="12.2476337"><ele>355.0</ele><time>2026-05-02T14:29:51.322Z</time></trkpt><trkpt lat="43.8233878" lon="12.2476643"><ele>355.0</ele><time>2026-05-02T14:29:52.322Z</time></trkpt><trkpt lat="43.8235216" lon="12.2477022"><ele>355.0</ele><time>2026-05-02T14:29:53.323Z</time></trkpt><trkpt lat="43.8236404" lon="12.2477558"><ele>354.0</ele><time>2026-05-02T14:29:54.324Z</time></trkpt><trkpt lat="43.8237602" lon="12.2478301"><ele>353.0</ele><time>2026-05-02T14:29:55.323Z</time></trkpt><trkpt lat="43.8238735" lon="12.2479174"><ele>352.0</ele><time>2026-05-02T14:29:56.321Z</time></trkpt><trkpt lat="43.8239831" lon="12.2480025"><ele>351.0</ele><time>2026-05-02T14:29:57.323Z</time></trkpt><trkpt lat="43.8240875" lon="12.2481027"><ele>351.5</ele><time>2026-05-02T14:29:58.325Z</time></trkpt><trkpt lat="43.824182" lon="12.2482191"><ele>352.0</ele><time>2026-05-02T14:29:59.324Z</time></trkpt><trkpt lat="43.8242734" lon="12.2483441"><ele>352.5</ele><time>2026-05-02T14:30:00.322Z</time></trkpt><trkpt lat="43.8243584" lon="12.2484765"><ele>353.0</ele><time>2026-05-02T14:30:01.325Z</time></trkpt><trkpt lat="43.824443" lon="12.2486196"><ele>350.25</ele><time>2026-05-02T14:30:02.324Z</time></trkpt><trkpt lat="43.8245264" lon="12.248761"><ele>347.5</ele><time>2026-05-02T14:30:03.321Z</time></trkpt><trkpt lat="43.8246079" lon="12.2488992"><ele>344.75</ele><time>2026-05-02T14:30:04.323Z</time></trkpt><trkpt lat="43.8246828" lon="12.249045"><ele>342.0</ele><time>2026-05-02T14:30:05.315Z</time></trkpt><trkpt lat="43.8247524" lon="12.2491901"><ele>342.0</ele><time>2026-05-02T14:30:06.322Z</time></trkpt><trkpt lat="43.824822" lon="12.2493301"><ele>342.0</ele><time>2026-05-02T14:30:07.316Z</time></trkpt><trkpt lat="43.8248976" lon="12.2494694"><ele>342.0</ele><time>2026-05-02T14:30:08.324Z</time></trkpt><trkpt lat="43.8249724" lon="12.2496119"><ele>342.0</ele><time>2026-05-02T14:30:09.324Z</time></trkpt><trkpt lat="43.8250522" lon="12.2497555"><ele>341.75</ele><time>2026-05-02T14:30:10.322Z</time></trkpt><trkpt lat="43.8251269" lon="12.2499007"><ele>341.5</ele><time>2026-05-02T14:30:11.322Z</time></trkpt><trkpt lat="43.8252121" lon="12.2500725"><ele>341.25</ele><time>2026-05-02T14:30:12.323Z</time></trkpt><trkpt lat="43.8253096" lon="12.2502509"><ele>341.0</ele><time>2026-05-02T14:30:13.321Z</time></trkpt><trkpt lat="43.8253882" lon="12.2504158"><ele>339.25</ele><time>2026-05-02T14:30:14.322Z</time></trkpt><trkpt lat="43.8254829" lon="12.2505841"><ele>337.5</ele><time>2026-05-02T14:30:15.321Z</time></trkpt><trkpt lat="43.8255729" lon="12.2507507"><ele>335.75</ele><time>2026-05-02T14:30:16.324Z</time></trkpt><trkpt lat="43.8256589" lon="12.250894"><ele>334.0</ele><time>2026-05-02T14:30:17.323Z</time></trkpt><trkpt lat="43.8257425" lon="12.2510517"><ele>334.0</ele><time>2026-05-02T14:30:18.324Z</time></trkpt><trkpt lat="43.8258219" lon="12.2512126"><ele>334.0</ele><time>2026-05-02T14:30:19.321Z</time></trkpt><trkpt lat="43.8258988" lon="12.2513629"><ele>334.0</ele><time>2026-05-02T14:30:20.321Z</time></trkpt><trkpt lat="43.8259737" lon="12.2515181"><ele>334.0</ele><time>2026-05-02T14:30:21.321Z</time></trkpt><trkpt lat="43.8260393" lon="12.251655"><ele>332.75</ele><time>2026-05-02T14:30:22.323Z</time></trkpt><trkpt lat="43.8261158" lon="12.2518023"><ele>331.5</ele><time>2026-05-02T14:30:23.315Z</time></trkpt><trkpt lat="43.8261949" lon="12.2519673"><ele>330.25</ele><time>2026-05-02T14:30:24.324Z</time></trkpt><trkpt lat="43.8262832" lon="12.2521149"><ele>329.0</ele><time>2026-05-02T14:30:25.322Z</time></trkpt><trkpt lat="43.8263706" lon="12.2522806"><ele>330.0</ele><time>2026-05-02T14:30:26.32Z</time></trkpt><trkpt lat="43.8264785" lon="12.2524808"><ele>331.0</ele><time>2026-05-02T14:30:27.323Z</time></trkpt><trkpt lat="43.8265896" lon="12.2526733"><ele>332.0</ele><time>2026-05-02T14:30:28.323Z</time></trkpt><trkpt lat="43.8266946" lon="12.2528831"><ele>332.0</ele><time>2026-05-02T14:30:29.324Z</time></trkpt><trkpt lat="43.8268019" lon="12.2530945"><ele>332.0</ele><time>2026-05-02T14:30:30.321Z</time></trkpt><trkpt lat="43.826916" lon="12.2533146"><ele>332.0</ele><time>2026-05-02T14:30:31.323Z</time></trkpt><trkpt lat="43.8270296" lon="12.253532"><ele>331.33333333333337</ele><time>2026-05-02T14:30:32.323Z</time></trkpt><trkpt lat="43.8271522" lon="12.2537567"><ele>330.6666666666667</ele><time>2026-05-02T14:30:33.323Z</time></trkpt><trkpt lat="43.8272733" lon="12.2539868"><ele>330.0</ele><time>2026-05-02T14:30:34.321Z</time></trkpt><trkpt lat="43.8273955" lon="12.2542093"><ele>330.0</ele><time>2026-05-02T14:30:35.323Z</time></trkpt><trkpt lat="43.8275106" lon="12.25443"><ele>330.0</ele><time>2026-05-02T14:30:36.322Z</time></trkpt><trkpt lat="43.8276304" lon="12.2546719"><ele>330.0</ele><time>2026-05-02T14:30:37.323Z</time></trkpt><trkpt lat="43.8277649" lon="12.254896"><ele>329.75</ele><time>2026-05-02T14:30:38.321Z</time></trkpt><trkpt lat="43.8278696" lon="12.2550916"><ele>329.5</ele><time>2026-05-02T14:30:39.322Z</time></trkpt><trkpt lat="43.8279662" lon="12.2552752"><ele>329.25</ele><time>2026-05-02T14:30:40.322Z</time></trkpt><trkpt lat="43.8280201" lon="12.2554019"><ele>329.0</ele><time>2026-05-02T14:30:41.323Z</time></trkpt><trkpt lat="43.8280801" lon="12.2555266"><ele>330.1666666666667</ele><time>2026-05-02T14:30:42.321Z</time></trkpt><trkpt lat="43.8281322" lon="12.2556393"><ele>331.33333333333337</ele><time>2026-05-02T14:30:43.323Z</time></trkpt><trkpt lat="43.8281863" lon="12.2557474"><ele>332.5</ele><time>2026-05-02T14:30:44.324Z</time></trkpt><trkpt lat="43.8282319" lon="12.2558376"><ele>333.6666666666667</ele><time>2026-05-02T14:30:45.322Z</time></trkpt><trkpt lat="43.8282811" lon="12.2559346"><ele>334.8333333333333</ele><time>2026-05-02T14:30:46.324Z</time></trkpt><trkpt lat="43.8283271" lon="12.2560303"><ele>336.0</ele><time>2026-05-02T14:30:47.324Z</time></trkpt><trkpt lat="43.8284086" lon="12.2562024"><ele>335.6666666666667</ele><time>2026-05-02T14:30:48.325Z</time></trkpt><trkpt lat="43.8284832" lon="12.2563432"><ele>335.33333333333337</ele><time>2026-05-02T14:30:49.323Z</time></trkpt><trkpt lat="43.8285727" lon="12.2565015"><ele>335.0</ele><time>2026-05-02T14:30:50.324Z</time></trkpt><trkpt lat="43.8286809" lon="12.2567182"><ele>335.0</ele><time>2026-05-02T14:30:51.324Z</time></trkpt><trkpt lat="43.8287911" lon="12.256926"><ele>335.0</ele><time>2026-05-02T14:30:52.324Z</time></trkpt><trkpt lat="43.8289004" lon="12.2571325"><ele>335.0</ele><time>2026-05-02T14:30:53.319Z</time></trkpt><trkpt lat="43.8290096" lon="12.257355"><ele>334.0</ele><time>2026-05-02T14:30:54.323Z</time></trkpt><trkpt lat="43.8291258" lon="12.257578"><ele>333.0</ele><time>2026-05-02T14:30:55.314Z</time></trkpt><trkpt lat="43.8292425" lon="12.2578033"><ele>332.0</ele><time>2026-05-02T14:30:56.322Z</time></trkpt><trkpt lat="43.8293475" lon="12.2580299"><ele>334.5</ele><time>2026-05-02T14:30:57.429Z</time></trkpt><trkpt lat="43.8295255" lon="12.2584842"><ele>337.0</ele><time>2026-05-02T14:30:59.322Z</time></trkpt><trkpt lat="43.8296018" lon="12.2587258"><ele>337.0</ele><time>2026-05-02T14:31:00.321Z</time></trkpt><trkpt lat="43.8296681" lon="12.2589751"><ele>337.0</ele><time>2026-05-02T14:31:01.323Z</time></trkpt><trkpt lat="43.8297316" lon="12.2592334"><ele>337.0</ele><time>2026-05-02T14:31:02.324Z</time></trkpt><trkpt lat="43.8297891" lon="12.2595031"><ele>337.0</ele><time>2026-05-02T14:31:03.323Z</time></trkpt><trkpt lat="43.8298451" lon="12.2597733"><ele>337.0</ele><time>2026-05-02T14:31:04.322Z</time></trkpt><trkpt lat="43.8298905" lon="12.2600552"><ele>337.0</ele><time>2026-05-02T14:31:05.324Z</time></trkpt><trkpt lat="43.8299216" lon="12.2603409"><ele>339.66666666666663</ele><time>2026-05-02T14:31:06.322Z</time></trkpt><trkpt lat="43.8299391" lon="12.2606301"><ele>342.3333333333333</ele><time>2026-05-02T14:31:07.321Z</time></trkpt><trkpt lat="43.8299587" lon="12.2608957"><ele>345.0</ele><time>2026-05-02T14:31:08.322Z</time></trkpt><trkpt lat="43.829979" lon="12.2611476"><ele>345.0</ele><time>2026-05-02T14:31:09.32Z</time></trkpt><trkpt lat="43.830004" lon="12.2613947"><ele>345.0</ele><time>2026-05-02T14:31:10.322Z</time></trkpt><trkpt lat="43.8300507" lon="12.2616331"><ele>345.0</ele><time>2026-05-02T14:31:11.317Z</time></trkpt><trkpt lat="43.8301268" lon="12.2618482"><ele>344.3333333333333</ele><time>2026-05-02T14:31:12.321Z</time></trkpt><trkpt lat="43.8302309" lon="12.2620321"><ele>343.66666666666663</ele><time>2026-05-02T14:31:13.322Z</time></trkpt><trkpt lat="43.8303725" lon="12.262172"><ele>343.0</ele><time>2026-05-02T14:31:14.325Z</time></trkpt><trkpt lat="43.8305431" lon="12.2622622"><ele>343.0</ele><time>2026-05-02T14:31:15.325Z</time></trkpt><trkpt lat="43.8307279" lon="12.2622866"><ele>343.0</ele><time>2026-05-02T14:31:16.321Z</time></trkpt><trkpt lat="43.8309115" lon="12.262268"><ele>343.0</ele><time>2026-05-02T14:31:17.324Z</time></trkpt><trkpt lat="43.8311124" lon="12.2622399"><ele>346.5</ele><time>2026-05-02T14:31:18.324Z</time></trkpt><trkpt lat="43.8313285" lon="12.2621106"><ele>350.0</ele><time>2026-05-02T14:31:19.322Z</time></trkpt><trkpt lat="43.8315504" lon="12.2620252"><ele>350.0</ele><time>2026-05-02T14:31:20.321Z</time></trkpt><trkpt lat="43.8317482" lon="12.2619442"><ele>350.0</ele><time>2026-05-02T14:31:21.321Z</time></trkpt><trkpt lat="43.8319473" lon="12.261858"><ele>350.0</ele><time>2026-05-02T14:31:22.322Z</time></trkpt><trkpt lat="43.832157" lon="12.2617953"><ele>350.6666666666667</ele><time>2026-05-02T14:31:23.325Z</time></trkpt><trkpt lat="43.8323751" lon="12.2617682"><ele>351.3333333333333</ele><time>2026-05-02T14:31:24.322Z</time></trkpt><trkpt lat="43.8325859" lon="12.2617651"><ele>352.0</ele><time>2026-05-02T14:31:25.32Z</time></trkpt><trkpt lat="43.8328017" lon="12.261793"><ele>352.3333333333333</ele><time>2026-05-02T14:31:26.325Z</time></trkpt><trkpt lat="43.8330086" lon="12.2618282"><ele>352.6666666666667</ele><time>2026-05-02T14:31:27.325Z</time></trkpt><trkpt lat="43.8332247" lon="12.2618698"><ele>353.0</ele><time>2026-05-02T14:31:28.324Z</time></trkpt><trkpt lat="43.8334378" lon="12.2619079"><ele>353.0</ele><time>2026-05-02T14:31:29.324Z</time></trkpt><trkpt lat="43.8336457" lon="12.2619448"><ele>353.0</ele><time>2026-05-02T14:31:30.325Z</time></trkpt><trkpt lat="43.8338542" lon="12.2619823"><ele>353.0</ele><time>2026-05-02T14:31:31.324Z</time></trkpt><trkpt lat="43.8340593" lon="12.2620324"><ele>353.0</ele><time>2026-05-02T14:31:32.323Z</time></trkpt><trkpt lat="43.834265" lon="12.262082"><ele>353.0</ele><time>2026-05-02T14:31:33.326Z</time></trkpt><trkpt lat="43.834483" lon="12.2621407"><ele>353.0</ele><time>2026-05-02T14:31:34.325Z</time></trkpt><trkpt lat="43.8347017" lon="12.2621907"><ele>352.6666666666667</ele><time>2026-05-02T14:31:35.325Z</time></trkpt><trkpt lat="43.8349124" lon="12.2622463"><ele>352.3333333333333</ele><time>2026-05-02T14:31:36.326Z</time></trkpt><trkpt lat="43.8351418" lon="12.262218"><ele>352.0</ele><time>2026-05-02T14:31:37.326Z</time></trkpt><trkpt lat="43.8353627" lon="12.262136"><ele>352.0</ele><time>2026-05-02T14:31:38.324Z</time></trkpt><trkpt lat="43.8355899" lon="12.262085"><ele>352.0</ele><time>2026-05-02T14:31:39.325Z</time></trkpt><trkpt lat="43.8357991" lon="12.2620532"><ele>352.0</ele><time>2026-05-02T14:31:40.321Z</time></trkpt><trkpt lat="43.8360253" lon="12.2620512"><ele>352.0</ele><time>2026-05-02T14:31:41.324Z</time></trkpt><trkpt lat="43.836241" lon="12.2620641"><ele>352.0</ele><time>2026-05-02T14:31:42.324Z</time></trkpt><trkpt lat="43.8364485" lon="12.2621227"><ele>352.0</ele><time>2026-05-02T14:31:43.32Z</time></trkpt><trkpt lat="43.8366557" lon="12.2621961"><ele>352.3333333333333</ele><time>2026-05-02T14:31:44.323Z</time></trkpt><trkpt lat="43.8368628" lon="12.2622943"><ele>352.6666666666667</ele><time>2026-05-02T14:31:45.324Z</time></trkpt><trkpt lat="43.8370407" lon="12.2623857"><ele>353.0</ele><time>2026-05-02T14:31:46.324Z</time></trkpt><trkpt lat="43.8372244" lon="12.2625071"><ele>353.0</ele><time>2026-05-02T14:31:47.322Z</time></trkpt><trkpt lat="43.8373416" lon="12.262703"><ele>353.0</ele><time>2026-05-02T14:31:48.324Z</time></trkpt><trkpt lat="43.8374798" lon="12.2628427"><ele>353.0</ele><time>2026-05-02T14:31:49.324Z</time></trkpt><trkpt lat="43.837572" lon="12.262991"><ele>353.0</ele><time>2026-05-02T14:31:50.323Z</time></trkpt><trkpt lat="43.8376965" lon="12.2631442"><ele>353.0</ele><time>2026-05-02T14:31:51.32Z</time></trkpt><trkpt lat="43.8377809" lon="12.263248"><ele>353.0</ele><time>2026-05-02T14:31:52.324Z</time></trkpt><trkpt lat="43.8378529" lon="12.2633706"><ele>353.0</ele><time>2026-05-02T14:31:53.323Z</time></trkpt><trkpt lat="43.8379253" lon="12.2634942"><ele>353.0</ele><time>2026-05-02T14:31:54.324Z</time></trkpt><trkpt lat="43.8380139" lon="12.2636181"><ele>353.0</ele><time>2026-05-02T14:31:55.32Z</time></trkpt><trkpt lat="43.8380896" lon="12.2637548"><ele>353.0</ele><time>2026-05-02T14:31:56.324Z</time></trkpt><trkpt lat="43.8381917" lon="12.263907"><ele>353.0</ele><time>2026-05-02T14:31:57.324Z</time></trkpt><trkpt lat="43.8383098" lon="12.264064"><ele>353.6666666666667</ele><time>2026-05-02T14:31:58.322Z</time></trkpt><trkpt lat="43.8384604" lon="12.2642646"><ele>354.3333333333333</ele><time>2026-05-02T14:31:59.319Z</time></trkpt><trkpt lat="43.8386164" lon="12.2644835"><ele>355.0</ele><time>2026-05-02T14:32:00.323Z</time></trkpt><trkpt lat="43.8387659" lon="12.2647119"><ele>352.5</ele><time>2026-05-02T14:32:01.323Z</time></trkpt><trkpt lat="43.8389172" lon="12.2649514"><ele>350.0</ele><time>2026-05-02T14:32:02.324Z</time></trkpt><trkpt lat="43.839069" lon="12.2651862"><ele>350.0</ele><time>2026-05-02T14:32:03.322Z</time></trkpt><trkpt lat="43.8392167" lon="12.2654288"><ele>350.0</ele><time>2026-05-02T14:32:04.325Z</time></trkpt><trkpt lat="43.8393693" lon="12.2656803"><ele>347.5</ele><time>2026-05-02T14:32:05.324Z</time></trkpt><trkpt lat="43.83953" lon="12.265894"><ele>345.0</ele><time>2026-05-02T14:32:06.325Z</time></trkpt><trkpt lat="43.8396922" lon="12.2661262"><ele>345.0</ele><time>2026-05-02T14:32:07.323Z</time></trkpt><trkpt lat="43.8398575" lon="12.2663589"><ele>345.0</ele><time>2026-05-02T14:32:08.323Z</time></trkpt><trkpt lat="43.8399826" lon="12.2665277"><ele>345.0</ele><time>2026-05-02T14:32:09.324Z</time></trkpt><trkpt lat="43.840123" lon="12.266725"><ele>346.0</ele><time>2026-05-02T14:32:10.325Z</time></trkpt><trkpt lat="43.8402566" lon="12.2669211"><ele>347.0</ele><time>2026-05-02T14:32:11.322Z</time></trkpt><trkpt lat="43.8403921" lon="12.2671214"><ele>348.0</ele><time>2026-05-02T14:32:12.326Z</time></trkpt><trkpt lat="43.8404918" lon="12.2673402"><ele>348.0</ele><time>2026-05-02T14:32:13.323Z</time></trkpt><trkpt lat="43.8405809" lon="12.2675811"><ele>348.0</ele><time>2026-05-02T14:32:14.321Z</time></trkpt><trkpt lat="43.8406609" lon="12.2678342"><ele>348.0</ele><time>2026-05-02T14:32:15.323Z</time></trkpt><trkpt lat="43.8407349" lon="12.2680711"><ele>347.3333333333333</ele><time>2026-05-02T14:32:16.321Z</time></trkpt><trkpt lat="43.8408139" lon="12.2682887"><ele>346.66666666666663</ele><time>2026-05-02T14:32:17.324Z</time></trkpt><trkpt lat="43.8408844" lon="12.2685044"><ele>346.0</ele><time>2026-05-02T14:32:18.325Z</time></trkpt><trkpt lat="43.8409777" lon="12.2687305"><ele>346.0</ele><time>2026-05-02T14:32:19.323Z</time></trkpt><trkpt lat="43.841132" lon="12.2688557"><ele>346.0</ele><time>2026-05-02T14:32:20.325Z</time></trkpt><trkpt lat="43.841284" lon="12.268863"><ele>346.0</ele><time>2026-05-02T14:32:21.324Z</time></trkpt><trkpt lat="43.8414295" lon="12.2689034"><ele>346.0</ele><time>2026-05-02T14:32:22.325Z</time></trkpt><trkpt lat="43.8415797" lon="12.2689542"><ele>346.0</ele><time>2026-05-02T14:32:23.323Z</time></trkpt><trkpt lat="43.841764" lon="12.2688923"><ele>346.0</ele><time>2026-05-02T14:32:24.324Z</time></trkpt><trkpt lat="43.8419648" lon="12.2688029"><ele>344.66666666666663</ele><time>2026-05-02T14:32:25.323Z</time></trkpt><trkpt lat="43.8421514" lon="12.2687283"><ele>343.3333333333333</ele><time>2026-05-02T14:32:26.324Z</time></trkpt><trkpt lat="43.8423036" lon="12.2686418"><ele>342.0</ele><time>2026-05-02T14:32:27.324Z</time></trkpt><trkpt lat="43.8424783" lon="12.2685846"><ele>333.0</ele><time>2026-05-02T14:32:28.326Z</time></trkpt><trkpt lat="43.8426505" lon="12.2685717"><ele>324.0</ele><time>2026-05-02T14:32:29.324Z</time></trkpt><trkpt lat="43.84279" lon="12.2686505"><ele>315.0</ele><time>2026-05-02T14:32:30.317Z</time></trkpt><trkpt lat="43.8429234" lon="12.2687899"><ele>315.0</ele><time>2026-05-02T14:32:31.321Z</time></trkpt><trkpt lat="43.8430292" lon="12.2689391"><ele>315.0</ele><time>2026-05-02T14:32:32.317Z</time></trkpt><trkpt lat="43.843013" lon="12.2692951"><ele>315.0</ele><time>2026-05-02T14:32:33.325Z</time></trkpt><trkpt lat="43.8429389" lon="12.2696482"><ele>320.6666666666667</ele><time>2026-05-02T14:32:34.325Z</time></trkpt><trkpt lat="43.8428461" lon="12.2698849"><ele>326.33333333333337</ele><time>2026-05-02T14:32:35.322Z</time></trkpt><trkpt lat="43.8427401" lon="12.2701371"><ele>332.0</ele><time>2026-05-02T14:32:36.325Z</time></trkpt><trkpt lat="43.8426126" lon="12.2703629"><ele>340.6666666666667</ele><time>2026-05-02T14:32:37.323Z</time></trkpt><trkpt lat="43.8424881" lon="12.2705895"><ele>349.3333333333333</ele><time>2026-05-02T14:32:38.322Z</time></trkpt><trkpt lat="43.8423698" lon="12.2708319"><ele>358.0</ele><time>2026-05-02T14:32:39.325Z</time></trkpt><trkpt lat="43.8422518" lon="12.2710694"><ele>358.0</ele><time>2026-05-02T14:32:40.326Z</time></trkpt><trkpt lat="43.8422295" lon="12.2714106"><ele>358.0</ele><time>2026-05-02T14:32:41.322Z</time></trkpt><trkpt lat="43.8421855" lon="12.2717332"><ele>355.0</ele><time>2026-05-02T14:32:42.325Z</time></trkpt><trkpt lat="43.8421475" lon="12.27205"><ele>352.0</ele><time>2026-05-02T14:32:43.323Z</time></trkpt><trkpt lat="43.8421138" lon="12.2723482"><ele>349.0</ele><time>2026-05-02T14:32:44.324Z</time></trkpt><trkpt lat="43.842079" lon="12.2726311"><ele>348.3333333333333</ele><time>2026-05-02T14:32:45.325Z</time></trkpt><trkpt lat="43.8420429" lon="12.2729139"><ele>347.6666666666667</ele><time>2026-05-02T14:32:46.319Z</time></trkpt><trkpt lat="43.8420139" lon="12.2731884"><ele>347.0</ele><time>2026-05-02T14:32:47.324Z</time></trkpt><trkpt lat="43.8420006" lon="12.2734457"><ele>347.0</ele><time>2026-05-02T14:32:48.319Z</time></trkpt><trkpt lat="43.8420085" lon="12.2737246"><ele>347.0</ele><time>2026-05-02T14:32:49.437Z</time></trkpt><trkpt lat="43.842127" lon="12.2742087"><ele>349.0</ele><time>2026-05-02T14:32:51.325Z</time></trkpt><trkpt lat="43.8422613" lon="12.274434"><ele>351.0</ele><time>2026-05-02T14:32:52.325Z</time></trkpt><trkpt lat="43.8424637" lon="12.2746376"><ele>351.6666666666667</ele><time>2026-05-02T14:32:53.322Z</time></trkpt><trkpt lat="43.8426097" lon="12.2748351"><ele>352.33333333333337</ele><time>2026-05-02T14:32:54.324Z</time></trkpt><trkpt lat="43.8427443" lon="12.2750053"><ele>353.0</ele><time>2026-05-02T14:32:55.324Z</time></trkpt><trkpt lat="43.8428575" lon="12.2751608"><ele>353.0</ele><time>2026-05-02T14:32:56.323Z</time></trkpt><trkpt lat="43.8429527" lon="12.2752945"><ele>353.0</ele><time>2026-05-02T14:32:57.324Z</time></trkpt><trkpt lat="43.8430224" lon="12.2753896"><ele>353.0</ele><time>2026-05-02T14:32:58.324Z</time></trkpt><trkpt lat="43.8430447" lon="12.2755225"><ele>353.0</ele><time>2026-05-02T14:33:00.324Z</time></trkpt><trkpt lat="43.8429886" lon="12.2756242"><ele>353.0</ele><time>2026-05-02T14:33:02.323Z</time></trkpt><trkpt lat="43.8429483" lon="12.2756998"><ele>352.79999999999995</ele><time>2026-05-02T14:33:03.325Z</time></trkpt><trkpt lat="43.8428926" lon="12.2757855"><ele>352.6</ele><time>2026-05-02T14:33:04.326Z</time></trkpt><trkpt lat="43.8428386" lon="12.2758965"><ele>352.4</ele><time>2026-05-02T14:33:05.322Z</time></trkpt><trkpt lat="43.8428349" lon="12.2760305"><ele>352.20000000000005</ele><time>2026-05-02T14:33:06.325Z</time></trkpt><trkpt lat="43.8427916" lon="12.2761624"><ele>352.0</ele><time>2026-05-02T14:33:07.324Z</time></trkpt><trkpt lat="43.842705" lon="12.276291"><ele>352.0</ele><time>2026-05-02T14:33:08.321Z</time></trkpt><trkpt lat="43.8426348" lon="12.2764318"><ele>352.0</ele><time>2026-05-02T14:33:09.324Z</time></trkpt><trkpt lat="43.8425704" lon="12.276534"><ele>352.0</ele><time>2026-05-02T14:33:10.324Z</time></trkpt><trkpt lat="43.8424614" lon="12.2765758"><ele>352.0</ele><time>2026-05-02T14:33:11.322Z</time></trkpt><trkpt lat="43.8423475" lon="12.2766035"><ele>356.25</ele><time>2026-05-02T14:33:12.324Z</time></trkpt><trkpt lat="43.8422223" lon="12.2765312"><ele>360.5</ele><time>2026-05-02T14:33:13.324Z</time></trkpt><trkpt lat="43.8420821" lon="12.2764925"><ele>364.75</ele><time>2026-05-02T14:33:14.322Z</time></trkpt><trkpt lat="43.841963" lon="12.2764779"><ele>369.0</ele><time>2026-05-02T14:33:15.322Z</time></trkpt><trkpt lat="43.8418549" lon="12.2764577"><ele>370.79999999999995</ele><time>2026-05-02T14:33:16.325Z</time></trkpt><trkpt lat="43.8417416" lon="12.2764625"><ele>372.59999999999997</ele><time>2026-05-02T14:33:17.321Z</time></trkpt><trkpt lat="43.8416451" lon="12.2764985"><ele>374.4</ele><time>2026-05-02T14:33:18.321Z</time></trkpt><trkpt lat="43.8415752" lon="12.2765691"><ele>376.2</ele><time>2026-05-02T14:33:19.325Z</time></trkpt><trkpt lat="43.8414814" lon="12.2766524"><ele>378.0</ele><time>2026-05-02T14:33:20.322Z</time></trkpt><trkpt lat="43.8414244" lon="12.2768039"><ele>378.0</ele><time>2026-05-02T14:33:21.324Z</time></trkpt><trkpt lat="43.8413438" lon="12.276948"><ele>378.0</ele><time>2026-05-02T14:33:22.324Z</time></trkpt><trkpt lat="43.8412608" lon="12.2770969"><ele>378.0</ele><time>2026-05-02T14:33:23.322Z</time></trkpt><trkpt lat="43.8411766" lon="12.2772379"><ele>378.0</ele><time>2026-05-02T14:33:24.321Z</time></trkpt><trkpt lat="43.8410943" lon="12.27738"><ele>378.4</ele><time>2026-05-02T14:33:25.324Z</time></trkpt><trkpt lat="43.8410106" lon="12.2774973"><ele>378.79999999999995</ele><time>2026-05-02T14:33:26.322Z</time></trkpt><trkpt lat="43.8409479" lon="12.2776098"><ele>379.2</ele><time>2026-05-02T14:33:27.324Z</time></trkpt><trkpt lat="43.8408938" lon="12.2777091"><ele>379.6</ele><time>2026-05-02T14:33:28.324Z</time></trkpt><trkpt lat="43.8408572" lon="12.2777886"><ele>380.0</ele><time>2026-05-02T14:33:29.323Z</time></trkpt><trkpt lat="43.840877" lon="12.2779496"><ele>381.2</ele><time>2026-05-02T14:33:31.325Z</time></trkpt><trkpt lat="43.8409278" lon="12.2780341"><ele>382.4</ele><time>2026-05-02T14:33:32.323Z</time></trkpt><trkpt lat="43.840983" lon="12.2781365"><ele>383.6</ele><time>2026-05-02T14:33:33.324Z</time></trkpt><trkpt lat="43.8410374" lon="12.2782376"><ele>384.8</ele><time>2026-05-02T14:33:34.322Z</time></trkpt><trkpt lat="43.8410965" lon="12.2783409"><ele>386.0</ele><time>2026-05-02T14:33:35.324Z</time></trkpt><trkpt lat="43.8411571" lon="12.2784522"><ele>386.0</ele><time>2026-05-02T14:33:36.318Z</time></trkpt><trkpt lat="43.8412245" lon="12.2785526"><ele>386.0</ele><time>2026-05-02T14:33:37.324Z</time></trkpt><trkpt lat="43.8412954" lon="12.278655"><ele>386.0</ele><time>2026-05-02T14:33:38.323Z</time></trkpt><trkpt lat="43.841359" lon="12.2787643"><ele>386.0</ele><time>2026-05-02T14:33:39.325Z</time></trkpt><trkpt lat="43.8414256" lon="12.278879"><ele>386.0</ele><time>2026-05-02T14:33:40.325Z</time></trkpt><trkpt lat="43.841478" lon="12.2789834"><ele>388.0</ele><time>2026-05-02T14:33:41.323Z</time></trkpt><trkpt lat="43.8415523" lon="12.279081"><ele>390.0</ele><time>2026-05-02T14:33:42.325Z</time></trkpt><trkpt lat="43.8416165" lon="12.2791985"><ele>392.0</ele><time>2026-05-02T14:33:43.323Z</time></trkpt><trkpt lat="43.8416802" lon="12.2793361"><ele>394.0</ele><time>2026-05-02T14:33:44.325Z</time></trkpt><trkpt lat="43.8417381" lon="12.2794866"><ele>394.0</ele><time>2026-05-02T14:33:45.325Z</time></trkpt><trkpt lat="43.8417968" lon="12.279645"><ele>394.0</ele><time>2026-05-02T14:33:46.324Z</time></trkpt><trkpt lat="43.841869" lon="12.2797877"><ele>394.0</ele><time>2026-05-02T14:33:47.326Z</time></trkpt><trkpt lat="43.8419701" lon="12.2799066"><ele>394.0</ele><time>2026-05-02T14:33:48.325Z</time></trkpt><trkpt lat="43.8420693" lon="12.2800219"><ele>394.0</ele><time>2026-05-02T14:33:49.323Z</time></trkpt><trkpt lat="43.8421808" lon="12.2801493"><ele>394.0</ele><time>2026-05-02T14:33:50.324Z</time></trkpt><trkpt lat="43.8423321" lon="12.2802322"><ele>394.0</ele><time>2026-05-02T14:33:51.326Z</time></trkpt><trkpt lat="43.8424817" lon="12.2803321"><ele>394.0</ele><time>2026-05-02T14:33:52.323Z</time></trkpt><trkpt lat="43.8426305" lon="12.2804345"><ele>394.0</ele><time>2026-05-02T14:33:53.325Z</time></trkpt><trkpt lat="43.842769" lon="12.280536"><ele>394.0</ele><time>2026-05-02T14:33:54.326Z</time></trkpt><trkpt lat="43.8428963" lon="12.2806502"><ele>395.5</ele><time>2026-05-02T14:33:55.325Z</time></trkpt><trkpt lat="43.8430093" lon="12.2807862"><ele>397.0</ele><time>2026-05-02T14:33:56.325Z</time></trkpt><trkpt lat="43.8430472" lon="12.2809915"><ele>398.5</ele><time>2026-05-02T14:33:57.328Z</time></trkpt><trkpt lat="43.843095" lon="12.281168"><ele>400.0</ele><time>2026-05-02T14:33:58.324Z</time></trkpt><trkpt lat="43.8431256" lon="12.281334"><ele>403.75</ele><time>2026-05-02T14:33:59.325Z</time></trkpt><trkpt lat="43.8431521" lon="12.2815033"><ele>407.5</ele><time>2026-05-02T14:34:00.325Z</time></trkpt><trkpt lat="43.8430864" lon="12.2816986"><ele>411.25</ele><time>2026-05-02T14:34:01.324Z</time></trkpt><trkpt lat="43.8430424" lon="12.2818788"><ele>415.0</ele><time>2026-05-02T14:34:02.324Z</time></trkpt><trkpt lat="43.8430027" lon="12.2820467"><ele>415.0</ele><time>2026-05-02T14:34:03.324Z</time></trkpt><trkpt lat="43.8429513" lon="12.2821767"><ele>415.0</ele><time>2026-05-02T14:34:04.321Z</time></trkpt><trkpt lat="43.8428653" lon="12.2822528"><ele>415.0</ele><time>2026-05-02T14:34:05.325Z</time></trkpt><trkpt lat="43.8427496" lon="12.282282"><ele>415.0</ele><time>2026-05-02T14:34:06.324Z</time></trkpt><trkpt lat="43.842644" lon="12.282316"><ele>415.0</ele><time>2026-05-02T14:34:07.325Z</time></trkpt><trkpt lat="43.8425573" lon="12.2823703"><ele>417.6</ele><time>2026-05-02T14:34:08.32Z</time></trkpt><trkpt lat="43.842492" lon="12.2824469"><ele>420.2</ele><time>2026-05-02T14:34:09.326Z</time></trkpt><trkpt lat="43.8424618" lon="12.282531"><ele>422.79999999999995</ele><time>2026-05-02T14:34:10.323Z</time></trkpt><trkpt lat="43.8425146" lon="12.2826742"><ele>425.4</ele><time>2026-05-02T14:34:12.325Z</time></trkpt><trkpt lat="43.8425712" lon="12.2827649"><ele>428.0</ele><time>2026-05-02T14:34:13.323Z</time></trkpt><trkpt lat="43.8426245" lon="12.2828848"><ele>428.49999999999994</ele><time>2026-05-02T14:34:14.325Z</time></trkpt><trkpt lat="43.8426752" lon="12.2830112"><ele>429.0</ele><time>2026-05-02T14:34:15.325Z</time></trkpt><trkpt lat="43.8427182" lon="12.2831299"><ele>429.5</ele><time>2026-05-02T14:34:16.323Z</time></trkpt><trkpt lat="43.8427487" lon="12.2832253"><ele>430.0</ele><time>2026-05-02T14:34:17.324Z</time></trkpt><trkpt lat="43.8427975" lon="12.2832853"><ele>430.49999999999994</ele><time>2026-05-02T14:34:18.325Z</time></trkpt><trkpt lat="43.8428814" lon="12.283352"><ele>431.0</ele><time>2026-05-02T14:34:20.325Z</time></trkpt><trkpt lat="43.8429906" lon="12.283381"><ele>433.0</ele><time>2026-05-02T14:34:22.322Z</time></trkpt><trkpt lat="43.8431035" lon="12.2834227"><ele>435.0</ele><time>2026-05-02T14:34:24.325Z</time></trkpt><trkpt lat="43.84307" lon="12.2835418"><ele>437.0</ele><time>2026-05-02T14:34:25.327Z</time></trkpt><trkpt lat="43.8430795" lon="12.2836392"><ele>439.0</ele><time>2026-05-02T14:34:26.325Z</time></trkpt><trkpt lat="43.843084" lon="12.2837723"><ele>441.0</ele><time>2026-05-02T14:34:28.325Z</time></trkpt><trkpt lat="43.8431298" lon="12.2838525"><ele>441.0</ele><time>2026-05-02T14:34:30.325Z</time></trkpt><trkpt lat="43.8432737" lon="12.2839077"><ele>441.0</ele><time>2026-05-02T14:34:32.325Z</time></trkpt><trkpt lat="43.8433558" lon="12.2839838"><ele>441.0</ele><time>2026-05-02T14:34:33.326Z</time></trkpt><trkpt lat="43.8434289" lon="12.2841089"><ele>441.0</ele><time>2026-05-02T14:34:34.323Z</time></trkpt><trkpt lat="43.8434665" lon="12.2842876"><ele>436.33333333333337</ele><time>2026-05-02T14:34:35.326Z</time></trkpt><trkpt lat="43.8434931" lon="12.2845003"><ele>431.6666666666667</ele><time>2026-05-02T14:34:36.326Z</time></trkpt><trkpt lat="43.8435257" lon="12.2847216"><ele>427.0</ele><time>2026-05-02T14:34:37.324Z</time></trkpt><trkpt lat="43.8435855" lon="12.2849445"><ele>427.0</ele><time>2026-05-02T14:34:38.325Z</time></trkpt><trkpt lat="43.8436767" lon="12.2851541"><ele>427.0</ele><time>2026-05-02T14:34:39.323Z</time></trkpt><trkpt lat="43.843769" lon="12.2853388"><ele>427.0</ele><time>2026-05-02T14:34:40.321Z</time></trkpt><trkpt lat="43.8438857" lon="12.2854616"><ele>427.0</ele><time>2026-05-02T14:34:41.326Z</time></trkpt><trkpt lat="43.8439929" lon="12.2855719"><ele>427.0</ele><time>2026-05-02T14:34:42.327Z</time></trkpt><trkpt lat="43.8440979" lon="12.2856811"><ele>427.0</ele><time>2026-05-02T14:34:43.324Z</time></trkpt><trkpt lat="43.8441775" lon="12.2857441"><ele>427.0</ele><time>2026-05-02T14:34:44.325Z</time></trkpt><trkpt lat="43.8442401" lon="12.2858622"><ele>428.25</ele><time>2026-05-02T14:34:45.325Z</time></trkpt><trkpt lat="43.8442861" lon="12.2860137"><ele>429.5</ele><time>2026-05-02T14:34:46.325Z</time></trkpt><trkpt lat="43.8442875" lon="12.286201"><ele>430.75</ele><time>2026-05-02T14:34:47.328Z</time></trkpt><trkpt lat="43.8443072" lon="12.2863891"><ele>432.0</ele><time>2026-05-02T14:34:48.327Z</time></trkpt><trkpt lat="43.844313" lon="12.2866253"><ele>432.25</ele><time>2026-05-02T14:34:49.322Z</time></trkpt><trkpt lat="43.844316" lon="12.2868233"><ele>432.5</ele><time>2026-05-02T14:34:50.326Z</time></trkpt><trkpt lat="43.8443089" lon="12.2869986"><ele>432.75</ele><time>2026-05-02T14:34:51.325Z</time></trkpt><trkpt lat="43.8442926" lon="12.2871397"><ele>433.0</ele><time>2026-05-02T14:34:52.323Z</time></trkpt><trkpt lat="43.8442751" lon="12.2872503"><ele>433.5</ele><time>2026-05-02T14:34:53.325Z</time></trkpt><trkpt lat="43.8442262" lon="12.2873732"><ele>434.0</ele><time>2026-05-02T14:34:54.325Z</time></trkpt><trkpt lat="43.8441567" lon="12.2875079"><ele>434.5</ele><time>2026-05-02T14:34:55.318Z</time></trkpt><trkpt lat="43.8440615" lon="12.2876464"><ele>435.0</ele><time>2026-05-02T14:34:56.324Z</time></trkpt><trkpt lat="43.8439492" lon="12.287776"><ele>435.0</ele><time>2026-05-02T14:34:57.324Z</time></trkpt><trkpt lat="43.8438395" lon="12.2879127"><ele>435.0</ele><time>2026-05-02T14:34:58.326Z</time></trkpt><trkpt lat="43.8437429" lon="12.2880623"><ele>435.0</ele><time>2026-05-02T14:34:59.324Z</time></trkpt><trkpt lat="43.8436671" lon="12.2882522"><ele>435.0</ele><time>2026-05-02T14:35:00.325Z</time></trkpt><trkpt lat="43.8436276" lon="12.2884683"><ele>434.66666666666663</ele><time>2026-05-02T14:35:01.324Z</time></trkpt><trkpt lat="43.8436052" lon="12.2887085"><ele>434.3333333333333</ele><time>2026-05-02T14:35:02.325Z</time></trkpt><trkpt lat="43.8435951" lon="12.2889773"><ele>434.0</ele><time>2026-05-02T14:35:03.323Z</time></trkpt><trkpt lat="43.8435884" lon="12.2892484"><ele>434.66666666666663</ele><time>2026-05-02T14:35:04.326Z</time></trkpt><trkpt lat="43.8435884" lon="12.2895191"><ele>435.33333333333337</ele><time>2026-05-02T14:35:05.326Z</time></trkpt><trkpt lat="43.8435851" lon="12.289801"><ele>436.0</ele><time>2026-05-02T14:35:06.326Z</time></trkpt><trkpt lat="43.8435827" lon="12.2900765"><ele>436.6666666666667</ele><time>2026-05-02T14:35:07.322Z</time></trkpt><trkpt lat="43.8435883" lon="12.2903564"><ele>437.33333333333337</ele><time>2026-05-02T14:35:08.324Z</time></trkpt><trkpt lat="43.8435783" lon="12.2906461"><ele>438.0</ele><time>2026-05-02T14:35:09.325Z</time></trkpt><trkpt lat="43.8435732" lon="12.2909437"><ele>440.0</ele><time>2026-05-02T14:35:10.325Z</time></trkpt><trkpt lat="43.8435646" lon="12.2912434"><ele>442.0</ele><time>2026-05-02T14:35:11.32Z</time></trkpt><trkpt lat="43.8435644" lon="12.2915154"><ele>444.0</ele><time>2026-05-02T14:35:12.324Z</time></trkpt><trkpt lat="43.8435648" lon="12.2917726"><ele>447.66666666666663</ele><time>2026-05-02T14:35:13.325Z</time></trkpt><trkpt lat="43.8435626" lon="12.2920139"><ele>451.3333333333333</ele><time>2026-05-02T14:35:14.326Z</time></trkpt><trkpt lat="43.8435402" lon="12.292238"><ele>455.0</ele><time>2026-05-02T14:35:15.324Z</time></trkpt><trkpt lat="43.8434862" lon="12.2924472"><ele>461.3333333333333</ele><time>2026-05-02T14:35:16.325Z</time></trkpt><trkpt lat="43.8434094" lon="12.2926357"><ele>467.66666666666663</ele><time>2026-05-02T14:35:17.325Z</time></trkpt><trkpt lat="43.84329" lon="12.2927984"><ele>474.0</ele><time>2026-05-02T14:35:18.326Z</time></trkpt><trkpt lat="43.8431844" lon="12.2929702"><ele>473.33333333333337</ele><time>2026-05-02T14:35:19.322Z</time></trkpt><trkpt lat="43.8430372" lon="12.2931256"><ele>472.6666666666667</ele><time>2026-05-02T14:35:20.324Z</time></trkpt><trkpt lat="43.8428338" lon="12.2932689"><ele>472.0</ele><time>2026-05-02T14:35:21.326Z</time></trkpt><trkpt lat="43.8426631" lon="12.2934199"><ele>476.33333333333337</ele><time>2026-05-02T14:35:22.325Z</time></trkpt><trkpt lat="43.8425023" lon="12.2935375"><ele>480.66666666666663</ele><time>2026-05-02T14:35:23.323Z</time></trkpt><trkpt lat="43.8423503" lon="12.293643"><ele>485.0</ele><time>2026-05-02T14:35:24.325Z</time></trkpt><trkpt lat="43.8422018" lon="12.2937085"><ele>485.0</ele><time>2026-05-02T14:35:25.325Z</time></trkpt><trkpt lat="43.8420418" lon="12.2937277"><ele>485.0</ele><time>2026-05-02T14:35:26.325Z</time></trkpt><trkpt lat="43.8418703" lon="12.2937272"><ele>485.0</ele><time>2026-05-02T14:35:27.32Z</time></trkpt><trkpt lat="43.8417059" lon="12.2937072"><ele>490.3333333333333</ele><time>2026-05-02T14:35:28.324Z</time></trkpt><trkpt lat="43.841553" lon="12.2937407"><ele>495.66666666666663</ele><time>2026-05-02T14:35:29.324Z</time></trkpt><trkpt lat="43.8414172" lon="12.2938101"><ele>501.0</ele><time>2026-05-02T14:35:30.327Z</time></trkpt><trkpt lat="43.8412746" lon="12.2938847"><ele>497.66666666666663</ele><time>2026-05-02T14:35:31.322Z</time></trkpt><trkpt lat="43.8411587" lon="12.2940297"><ele>494.3333333333333</ele><time>2026-05-02T14:35:32.326Z</time></trkpt><trkpt lat="43.8410459" lon="12.2942819"><ele>491.0</ele><time>2026-05-02T14:35:33.324Z</time></trkpt><trkpt lat="43.8409344" lon="12.2945258"><ele>496.0</ele><time>2026-05-02T14:35:34.326Z</time></trkpt><trkpt lat="43.8408874" lon="12.2948019"><ele>501.0</ele><time>2026-05-02T14:35:35.322Z</time></trkpt><trkpt lat="43.84079" lon="12.29499"><ele>506.0</ele><time>2026-05-02T14:35:36.325Z</time></trkpt><trkpt lat="43.840691" lon="12.2951707"><ele>506.0</ele><time>2026-05-02T14:35:37.325Z</time></trkpt><trkpt lat="43.840581" lon="12.2953378"><ele>506.0</ele><time>2026-05-02T14:35:38.325Z</time></trkpt><trkpt lat="43.8404164" lon="12.2953976"><ele>506.0</ele><time>2026-05-02T14:35:39.323Z</time></trkpt><trkpt lat="43.8402366" lon="12.2955044"><ele>509.3333333333333</ele><time>2026-05-02T14:35:40.324Z</time></trkpt><trkpt lat="43.8399836" lon="12.2954841"><ele>512.6666666666666</ele><time>2026-05-02T14:35:41.326Z</time></trkpt><trkpt lat="43.8398282" lon="12.2955282"><ele>516.0</ele><time>2026-05-02T14:35:42.326Z</time></trkpt><trkpt lat="43.8396964" lon="12.2956161"><ele>516.0</ele><time>2026-05-02T14:35:43.321Z</time></trkpt><trkpt lat="43.8395689" lon="12.2957299"><ele>516.0</ele><time>2026-05-02T14:35:44.325Z</time></trkpt><trkpt lat="43.8394974" lon="12.2959318"><ele>516.0</ele><time>2026-05-02T14:35:45.317Z</time></trkpt><trkpt lat="43.8394132" lon="12.2961027"><ele>516.0</ele><time>2026-05-02T14:35:46.324Z</time></trkpt><trkpt lat="43.8393804" lon="12.2963082"><ele>516.0</ele><time>2026-05-02T14:35:47.323Z</time></trkpt><trkpt lat="43.8393672" lon="12.2965131"><ele>516.0</ele><time>2026-05-02T14:35:48.326Z</time></trkpt><trkpt lat="43.8395166" lon="12.2966436"><ele>516.2</ele><time>2026-05-02T14:35:49.325Z</time></trkpt><trkpt lat="43.8395179" lon="12.2968145"><ele>516.4000000000001</ele><time>2026-05-02T14:35:50.325Z</time></trkpt><trkpt lat="43.8395521" lon="12.2969745"><ele>516.6</ele><time>2026-05-02T14:35:51.323Z</time></trkpt><trkpt lat="43.8395712" lon="12.297106"><ele>516.8000000000001</ele><time>2026-05-02T14:35:52.325Z</time></trkpt><trkpt lat="43.8395056" lon="12.2971293"><ele>517.0</ele><time>2026-05-02T14:35:53.325Z</time></trkpt><trkpt lat="43.8394538" lon="12.2969927"><ele>521.3333333333334</ele><time>2026-05-02T14:35:54.326Z</time></trkpt><trkpt lat="43.8392392" lon="12.2967653"><ele>525.6666666666666</ele><time>2026-05-02T14:35:55.326Z</time></trkpt><trkpt lat="43.8391433" lon="12.2967061"><ele>530.0</ele><time>2026-05-02T14:35:56.324Z</time></trkpt><trkpt lat="43.8390316" lon="12.2966494"><ele>530.0</ele><time>2026-05-02T14:35:57.324Z</time></trkpt><trkpt lat="43.838933" lon="12.2966554"><ele>530.0</ele><time>2026-05-02T14:35:58.325Z</time></trkpt><trkpt lat="43.8387909" lon="12.2968259"><ele>530.0</ele><time>2026-05-02T14:35:59.323Z</time></trkpt><trkpt lat="43.8387211" lon="12.2970262"><ele>530.0</ele><time>2026-05-02T14:36:00.325Z</time></trkpt><trkpt lat="43.838877" lon="12.297375"><ele>532.6666666666666</ele><time>2026-05-02T14:36:01.324Z</time></trkpt><trkpt lat="43.8388778" lon="12.2976233"><ele>535.3333333333334</ele><time>2026-05-02T14:36:02.326Z</time></trkpt><trkpt lat="43.8389987" lon="12.2979132"><ele>538.0</ele><time>2026-05-02T14:36:03.324Z</time></trkpt><trkpt lat="43.8390541" lon="12.2981229"><ele>539.25</ele><time>2026-05-02T14:36:04.325Z</time></trkpt><trkpt lat="43.8390662" lon="12.2983072"><ele>540.5</ele><time>2026-05-02T14:36:05.325Z</time></trkpt><trkpt lat="43.8390651" lon="12.2984635"><ele>541.75</ele><time>2026-05-02T14:36:06.324Z</time></trkpt><trkpt lat="43.8389906" lon="12.2985757"><ele>543.0</ele><time>2026-05-02T14:36:07.324Z</time></trkpt><trkpt lat="43.8389353" lon="12.298689"><ele>543.0</ele><time>2026-05-02T14:36:08.323Z</time></trkpt><trkpt lat="43.838856" lon="12.2987622"><ele>543.0</ele><time>2026-05-02T14:36:09.325Z</time></trkpt><trkpt lat="43.838761" lon="12.2987386"><ele>543.0</ele><time>2026-05-02T14:36:10.324Z</time></trkpt><trkpt lat="43.8385053" lon="12.298577"><ele>548.0</ele><time>2026-05-02T14:36:11.323Z</time></trkpt><trkpt lat="43.8383718" lon="12.2984631"><ele>553.0</ele><time>2026-05-02T14:36:12.326Z</time></trkpt><trkpt lat="43.8382421" lon="12.2983336"><ele>558.0</ele><time>2026-05-02T14:36:13.325Z</time></trkpt><trkpt lat="43.8381199" lon="12.2981646"><ele>557.3333333333334</ele><time>2026-05-02T14:36:14.325Z</time></trkpt><trkpt lat="43.8381225" lon="12.2978725"><ele>556.6666666666667</ele><time>2026-05-02T14:36:15.32Z</time></trkpt><trkpt lat="43.838066" lon="12.29766"><ele>556.0</ele><time>2026-05-02T14:36:16.326Z</time></trkpt><trkpt lat="43.83801" lon="12.2974546"><ele>556.0</ele><time>2026-05-02T14:36:17.324Z</time></trkpt><trkpt lat="43.8379618" lon="12.2972776"><ele>556.0</ele><time>2026-05-02T14:36:18.325Z</time></trkpt><trkpt lat="43.8378167" lon="12.2972558"><ele>556.0</ele><time>2026-05-02T14:36:19.323Z</time></trkpt><trkpt lat="43.8376806" lon="12.2972557"><ele>556.0</ele><time>2026-05-02T14:36:20.326Z</time></trkpt><trkpt lat="43.837587" lon="12.2973248"><ele>560.3333333333334</ele><time>2026-05-02T14:36:21.324Z</time></trkpt><trkpt lat="43.8374681" lon="12.2975189"><ele>564.6666666666666</ele><time>2026-05-02T14:36:22.324Z</time></trkpt><trkpt lat="43.8373715" lon="12.297648"><ele>569.0</ele><time>2026-05-02T14:36:23.324Z</time></trkpt><trkpt lat="43.8372535" lon="12.2978528"><ele>569.3333333333333</ele><time>2026-05-02T14:36:24.324Z</time></trkpt><trkpt lat="43.8372001" lon="12.2981194"><ele>569.6666666666666</ele><time>2026-05-02T14:36:25.324Z</time></trkpt><trkpt lat="43.8371687" lon="12.2983816"><ele>570.0</ele><time>2026-05-02T14:36:26.325Z</time></trkpt><trkpt lat="43.8371645" lon="12.2985852"><ele>571.6666666666666</ele><time>2026-05-02T14:36:27.322Z</time></trkpt><trkpt lat="43.8371718" lon="12.2989376"><ele>573.3333333333333</ele><time>2026-05-02T14:36:28.324Z</time></trkpt><trkpt lat="43.8371413" lon="12.2991106"><ele>575.0</ele><time>2026-05-02T14:36:29.325Z</time></trkpt><trkpt lat="43.8371127" lon="12.2992486"><ele>575.0</ele><time>2026-05-02T14:36:30.325Z</time></trkpt><trkpt lat="43.8370632" lon="12.2993997"><ele>575.0</ele><time>2026-05-02T14:36:31.321Z</time></trkpt><trkpt lat="43.837014" lon="12.2995581"><ele>575.0</ele><time>2026-05-02T14:36:32.325Z</time></trkpt><trkpt lat="43.8369413" lon="12.2996697"><ele>575.0</ele><time>2026-05-02T14:36:33.32Z</time></trkpt><trkpt lat="43.8368367" lon="12.2997379"><ele>574.4</ele><time>2026-05-02T14:36:34.325Z</time></trkpt><trkpt lat="43.8367501" lon="12.2998048"><ele>573.8</ele><time>2026-05-02T14:36:35.323Z</time></trkpt><trkpt lat="43.8366544" lon="12.2998671"><ele>573.2</ele><time>2026-05-02T14:36:36.324Z</time></trkpt><trkpt lat="43.8365447" lon="12.2999185"><ele>572.6</ele><time>2026-05-02T14:36:37.326Z</time></trkpt><trkpt lat="43.8364464" lon="12.2999619"><ele>572.0</ele><time>2026-05-02T14:36:38.325Z</time></trkpt><trkpt lat="43.836362" lon="12.3000052"><ele>572.0</ele><time>2026-05-02T14:36:39.323Z</time></trkpt><trkpt lat="43.836292" lon="12.3000547"><ele>572.0</ele><time>2026-05-02T14:36:40.325Z</time></trkpt><trkpt lat="43.8361992" lon="12.3001313"><ele>572.0</ele><time>2026-05-02T14:36:42.325Z</time></trkpt><trkpt lat="43.8361356" lon="12.300156"><ele>572.0</ele><time>2026-05-02T14:36:45.325Z</time></trkpt><trkpt lat="43.8362061" lon="12.3001833"><ele>572.0</ele><time>2026-05-02T14:36:55.324Z</time></trkpt><trkpt lat="43.8362599" lon="12.3001183"><ele>572.0</ele><time>2026-05-02T14:36:56.329Z</time></trkpt><trkpt lat="43.8363298" lon="12.3000394"><ele>572.0</ele><time>2026-05-02T14:36:57.325Z</time></trkpt><trkpt lat="43.83641" lon="12.2999247"><ele>572.0</ele><time>2026-05-02T14:36:58.325Z</time></trkpt><trkpt lat="43.8365911" lon="12.2998957"><ele>572.0</ele><time>2026-05-02T14:36:59.326Z</time></trkpt><trkpt lat="43.8367066" lon="12.2998475"><ele>572.0</ele><time>2026-05-02T14:37:00.324Z</time></trkpt><trkpt lat="43.8368161" lon="12.2997939"><ele>572.5</ele><time>2026-05-02T14:37:01.325Z</time></trkpt><trkpt lat="43.8369037" lon="12.2997376"><ele>573.0</ele><time>2026-05-02T14:37:02.325Z</time></trkpt><trkpt lat="43.8369822" lon="12.2996782"><ele>573.5</ele><time>2026-05-02T14:37:03.326Z</time></trkpt><trkpt lat="43.8370452" lon="12.2995618"><ele>574.0</ele><time>2026-05-02T14:37:05.322Z</time></trkpt><trkpt lat="43.8370859" lon="12.2994874"><ele>574.5</ele><time>2026-05-02T14:37:06.321Z</time></trkpt><trkpt lat="43.8371245" lon="12.2994108"><ele>575.0</ele><time>2026-05-02T14:37:07.319Z</time></trkpt><trkpt lat="43.8371695" lon="12.2992527"><ele>575.0</ele><time>2026-05-02T14:37:09.322Z</time></trkpt><trkpt lat="43.8371954" lon="12.2991624"><ele>575.0</ele><time>2026-05-02T14:37:10.324Z</time></trkpt><trkpt lat="43.8372206" lon="12.2990775"><ele>575.0</ele><time>2026-05-02T14:37:11.322Z</time></trkpt><trkpt lat="43.8372447" lon="12.2989332"><ele>575.0</ele><time>2026-05-02T14:37:13.32Z</time></trkpt><trkpt lat="43.8372903" lon="12.2988109"><ele>575.0</ele><time>2026-05-02T14:37:15.326Z</time></trkpt><trkpt lat="43.8373092" lon="12.2987204"><ele>575.0</ele><time>2026-05-02T14:37:17.327Z</time></trkpt><trkpt lat="43.8372775" lon="12.2986295"><ele>570.0</ele><time>2026-05-02T14:37:22.323Z</time></trkpt><trkpt lat="43.8372546" lon="12.2985371"><ele>570.0</ele><time>2026-05-02T14:37:25.323Z</time></trkpt><trkpt lat="43.8372787" lon="12.2984469"><ele>570.0</ele><time>2026-05-02T14:37:27.326Z</time></trkpt><trkpt lat="43.8372875" lon="12.2983552"><ele>570.0</ele><time>2026-05-02T14:37:29.326Z</time></trkpt><trkpt lat="43.8372875" lon="12.2983552"><ele>570.0</ele><time>2026-05-02T14:37:29.326Z</time></trkpt></trkseg><trkseg><trkpt lat="43.8372559" lon="12.2984473"><ele>570.0</ele><time>2026-05-02T15:02:16.32Z</time></trkpt><trkpt lat="43.8372444" lon="12.2985711"><ele>570.0</ele><time>2026-05-02T15:02:18.323Z</time></trkpt><trkpt lat="43.8372322" lon="12.2986895"><ele>570.0</ele><time>2026-05-02T15:02:20.318Z</time></trkpt><trkpt lat="43.8372612" lon="12.2988094"><ele>570.0</ele><time>2026-05-02T15:02:37.327Z</time></trkpt><trkpt lat="43.8372279" lon="12.2989074"><ele>570.0</ele><time>2026-05-02T15:02:38.327Z</time></trkpt><trkpt lat="43.8371862" lon="12.2990118"><ele>570.0</ele><time>2026-05-02T15:02:39.326Z</time></trkpt><trkpt lat="43.8371482" lon="12.299117"><ele>571.25</ele><time>2026-05-02T15:02:40.339Z</time></trkpt><trkpt lat="43.8371047" lon="12.299257"><ele>572.5</ele><time>2026-05-02T15:02:41.328Z</time></trkpt><trkpt lat="43.8370837" lon="12.2994059"><ele>573.75</ele><time>2026-05-02T15:02:42.327Z</time></trkpt><trkpt lat="43.8369989" lon="12.2995404"><ele>575.0</ele><time>2026-05-02T15:02:43.329Z</time></trkpt><trkpt lat="43.8369254" lon="12.2996486"><ele>575.0</ele><time>2026-05-02T15:02:44.326Z</time></trkpt><trkpt lat="43.8368473" lon="12.299731"><ele>575.0</ele><time>2026-05-02T15:02:45.325Z</time></trkpt><trkpt lat="43.8367459" lon="12.299797"><ele>575.0</ele><time>2026-05-02T15:02:46.326Z</time></trkpt><trkpt lat="43.8366669" lon="12.2998781"><ele>575.0</ele><time>2026-05-02T15:02:47.327Z</time></trkpt><trkpt lat="43.8365487" lon="12.2999535"><ele>575.0</ele><time>2026-05-02T15:02:48.324Z</time></trkpt><trkpt lat="43.8364405" lon="12.3000048"><ele>574.25</ele><time>2026-05-02T15:02:49.326Z</time></trkpt><trkpt lat="43.8363204" lon="12.3000431"><ele>573.5</ele><time>2026-05-02T15:02:50.321Z</time></trkpt><trkpt lat="43.8361838" lon="12.3000634"><ele>572.75</ele><time>2026-05-02T15:02:51.326Z</time></trkpt><trkpt lat="43.8360628" lon="12.3001446"><ele>572.0</ele><time>2026-05-02T15:02:52.33Z</time></trkpt><trkpt lat="43.835974" lon="12.3002996"><ele>572.6666666666666</ele><time>2026-05-02T15:02:53.325Z</time></trkpt><trkpt lat="43.8358567" lon="12.3004241"><ele>573.3333333333334</ele><time>2026-05-02T15:02:54.325Z</time></trkpt><trkpt lat="43.8357484" lon="12.3005696"><ele>574.0</ele><time>2026-05-02T15:02:55.325Z</time></trkpt><trkpt lat="43.8356397" lon="12.3007159"><ele>574.0</ele><time>2026-05-02T15:02:56.322Z</time></trkpt><trkpt lat="43.8355528" lon="12.3008209"><ele>574.0</ele><time>2026-05-02T15:02:57.329Z</time></trkpt><trkpt lat="43.8354496" lon="12.3009581"><ele>574.0</ele><time>2026-05-02T15:02:58.325Z</time></trkpt><trkpt lat="43.8354191" lon="12.3011366"><ele>574.0</ele><time>2026-05-02T15:02:59.324Z</time></trkpt><trkpt lat="43.835372" lon="12.3013801"><ele>573.0</ele><time>2026-05-02T15:03:00.323Z</time></trkpt><trkpt lat="43.8353675" lon="12.3016288"><ele>572.0</ele><time>2026-05-02T15:03:01.325Z</time></trkpt><trkpt lat="43.8353465" lon="12.3018557"><ele>571.0</ele><time>2026-05-02T15:03:02.324Z</time></trkpt><trkpt lat="43.8353261" lon="12.3020854"><ele>573.0</ele><time>2026-05-02T15:03:03.325Z</time></trkpt><trkpt lat="43.8353416" lon="12.3023391"><ele>575.0</ele><time>2026-05-02T15:03:04.325Z</time></trkpt><trkpt lat="43.8353447" lon="12.3025985"><ele>577.0</ele><time>2026-05-02T15:03:05.324Z</time></trkpt><trkpt lat="43.8353614" lon="12.3028711"><ele>578.3333333333334</ele><time>2026-05-02T15:03:06.319Z</time></trkpt><trkpt lat="43.8353821" lon="12.3031377"><ele>579.6666666666666</ele><time>2026-05-02T15:03:07.324Z</time></trkpt><trkpt lat="43.835403" lon="12.3034063"><ele>581.0</ele><time>2026-05-02T15:03:08.319Z</time></trkpt><trkpt lat="43.8354315" lon="12.3036572"><ele>581.0</ele><time>2026-05-02T15:03:09.325Z</time></trkpt><trkpt lat="43.8354861" lon="12.3039028"><ele>581.0</ele><time>2026-05-02T15:03:10.323Z</time></trkpt><trkpt lat="43.8355601" lon="12.3041192"><ele>581.0</ele><time>2026-05-02T15:03:11.326Z</time></trkpt><trkpt lat="43.8356349" lon="12.3043266"><ele>582.6666666666666</ele><time>2026-05-02T15:03:12.324Z</time></trkpt><trkpt lat="43.8357138" lon="12.3045315"><ele>584.3333333333334</ele><time>2026-05-02T15:03:13.327Z</time></trkpt><trkpt lat="43.8358189" lon="12.3046965"><ele>586.0</ele><time>2026-05-02T15:03:14.325Z</time></trkpt><trkpt lat="43.8359362" lon="12.3048374"><ele>590.0</ele><time>2026-05-02T15:03:15.326Z</time></trkpt><trkpt lat="43.8360623" lon="12.3049159"><ele>594.0</ele><time>2026-05-02T15:03:16.327Z</time></trkpt><trkpt lat="43.8362156" lon="12.3049369"><ele>598.0</ele><time>2026-05-02T15:03:17.327Z</time></trkpt><trkpt lat="43.8363476" lon="12.3048966"><ele>602.0</ele><time>2026-05-02T15:03:18.326Z</time></trkpt><trkpt lat="43.8365046" lon="12.3048569"><ele>602.0</ele><time>2026-05-02T15:03:19.326Z</time></trkpt><trkpt lat="43.8366526" lon="12.3048531"><ele>602.0</ele><time>2026-05-02T15:03:20.326Z</time></trkpt><trkpt lat="43.8367942" lon="12.3049052"><ele>602.0</ele><time>2026-05-02T15:03:21.326Z</time></trkpt><trkpt lat="43.8369378" lon="12.305012"><ele>601.0</ele><time>2026-05-02T15:03:22.321Z</time></trkpt><trkpt lat="43.8370847" lon="12.3051233"><ele>600.0</ele><time>2026-05-02T15:03:23.326Z</time></trkpt><trkpt lat="43.8372698" lon="12.3052689"><ele>599.0</ele><time>2026-05-02T15:03:24.319Z</time></trkpt><trkpt lat="43.8374331" lon="12.3053818"><ele>599.0</ele><time>2026-05-02T15:03:25.329Z</time></trkpt><trkpt lat="43.8375842" lon="12.3054894"><ele>599.0</ele><time>2026-05-02T15:03:26.326Z</time></trkpt><trkpt lat="43.8377229" lon="12.3055901"><ele>599.0</ele><time>2026-05-02T15:03:27.324Z</time></trkpt><trkpt lat="43.8378293" lon="12.3057096"><ele>600.0</ele><time>2026-05-02T15:03:28.323Z</time></trkpt><trkpt lat="43.8378613" lon="12.3058823"><ele>601.0</ele><time>2026-05-02T15:03:29.326Z</time></trkpt><trkpt lat="43.8378813" lon="12.3060678"><ele>602.0</ele><time>2026-05-02T15:03:30.323Z</time></trkpt><trkpt lat="43.8379038" lon="12.3062826"><ele>603.0</ele><time>2026-05-02T15:03:31.325Z</time></trkpt><trkpt lat="43.8379361" lon="12.3064961"><ele>606.0</ele><time>2026-05-02T15:03:32.325Z</time></trkpt><trkpt lat="43.8380189" lon="12.3067357"><ele>609.0</ele><time>2026-05-02T15:03:33.324Z</time></trkpt><trkpt lat="43.8380777" lon="12.3069584"><ele>612.0</ele><time>2026-05-02T15:03:34.325Z</time></trkpt><trkpt lat="43.8381613" lon="12.3071886"><ele>613.6666666666666</ele><time>2026-05-02T15:03:35.325Z</time></trkpt><trkpt lat="43.8382443" lon="12.3073993"><ele>615.3333333333333</ele><time>2026-05-02T15:03:36.324Z</time></trkpt><trkpt lat="43.8383401" lon="12.3076039"><ele>617.0</ele><time>2026-05-02T15:03:37.329Z</time></trkpt><trkpt lat="43.8384934" lon="12.3077319"><ele>617.0</ele><time>2026-05-02T15:03:38.321Z</time></trkpt><trkpt lat="43.8386186" lon="12.307865"><ele>617.0</ele><time>2026-05-02T15:03:39.325Z</time></trkpt><trkpt lat="43.8387953" lon="12.307916"><ele>617.0</ele><time>2026-05-02T15:03:40.323Z</time></trkpt><trkpt lat="43.8389659" lon="12.3079321"><ele>617.0</ele><time>2026-05-02T15:03:41.325Z</time></trkpt><trkpt lat="43.8391108" lon="12.3079441"><ele>617.0</ele><time>2026-05-02T15:03:42.325Z</time></trkpt><trkpt lat="43.8392667" lon="12.3079689"><ele>617.0</ele><time>2026-05-02T15:03:43.325Z</time></trkpt><trkpt lat="43.8394044" lon="12.3080027"><ele>617.0</ele><time>2026-05-02T15:03:44.325Z</time></trkpt><trkpt lat="43.8395498" lon="12.3080606"><ele>614.3333333333333</ele><time>2026-05-02T15:03:45.325Z</time></trkpt><trkpt lat="43.8393295" lon="12.3083753"><ele>611.6666666666666</ele><time>2026-05-02T15:03:46.326Z</time></trkpt><trkpt lat="43.8392925" lon="12.3085402"><ele>609.0</ele><time>2026-05-02T15:03:47.326Z</time></trkpt><trkpt lat="43.8392275" lon="12.3087293"><ele>618.0</ele><time>2026-05-02T15:03:48.325Z</time></trkpt><trkpt lat="43.8391482" lon="12.3089239"><ele>627.0</ele><time>2026-05-02T15:03:49.323Z</time></trkpt><trkpt lat="43.8390827" lon="12.3091317"><ele>636.0</ele><time>2026-05-02T15:03:50.325Z</time></trkpt><trkpt lat="43.8390307" lon="12.3093196"><ele>636.0</ele><time>2026-05-02T15:03:51.325Z</time></trkpt><trkpt lat="43.8390049" lon="12.3094993"><ele>636.0</ele><time>2026-05-02T15:03:52.325Z</time></trkpt><trkpt lat="43.8390238" lon="12.3096696"><ele>636.0</ele><time>2026-05-02T15:03:53.325Z</time></trkpt><trkpt lat="43.8390814" lon="12.3098247"><ele>636.0</ele><time>2026-05-02T15:03:54.32Z</time></trkpt><trkpt lat="43.83917" lon="12.3099919"><ele>638.0</ele><time>2026-05-02T15:03:55.326Z</time></trkpt><trkpt lat="43.8392675" lon="12.3101555"><ele>640.0</ele><time>2026-05-02T15:03:56.324Z</time></trkpt><trkpt lat="43.839374" lon="12.3103198"><ele>642.0</ele><time>2026-05-02T15:03:57.324Z</time></trkpt><trkpt lat="43.8394762" lon="12.3104982"><ele>641.3333333333334</ele><time>2026-05-02T15:03:58.325Z</time></trkpt><trkpt lat="43.8395772" lon="12.3106694"><ele>640.6666666666667</ele><time>2026-05-02T15:03:59.324Z</time></trkpt><trkpt lat="43.8396678" lon="12.3108653"><ele>640.0</ele><time>2026-05-02T15:04:00.324Z</time></trkpt><trkpt lat="43.839771" lon="12.3110669"><ele>640.0</ele><time>2026-05-02T15:04:01.324Z</time></trkpt><trkpt lat="43.8398656" lon="12.3112711"><ele>640.0</ele><time>2026-05-02T15:04:02.324Z</time></trkpt><trkpt lat="43.8399345" lon="12.3115121"><ele>640.0</ele><time>2026-05-02T15:04:03.323Z</time></trkpt><trkpt lat="43.8399897" lon="12.3117797"><ele>640.0</ele><time>2026-05-02T15:04:04.325Z</time></trkpt><trkpt lat="43.8400753" lon="12.3120055"><ele>640.0</ele><time>2026-05-02T15:04:05.324Z</time></trkpt><trkpt lat="43.8401655" lon="12.312292"><ele>640.0</ele><time>2026-05-02T15:04:06.325Z</time></trkpt><trkpt lat="43.8402598" lon="12.312533"><ele>640.0</ele><time>2026-05-02T15:04:07.324Z</time></trkpt><trkpt lat="43.840344" lon="12.3127899"><ele>640.0</ele><time>2026-05-02T15:04:08.324Z</time></trkpt><trkpt lat="43.8404315" lon="12.3130702"><ele>640.0</ele><time>2026-05-02T15:04:09.324Z</time></trkpt><trkpt lat="43.8405164" lon="12.3133362"><ele>641.6666666666667</ele><time>2026-05-02T15:04:10.32Z</time></trkpt><trkpt lat="43.8406034" lon="12.3135967"><ele>643.3333333333334</ele><time>2026-05-02T15:04:11.323Z</time></trkpt><trkpt lat="43.8407258" lon="12.313847"><ele>645.0</ele><time>2026-05-02T15:04:12.323Z</time></trkpt><trkpt lat="43.840817" lon="12.3140689"><ele>646.6666666666666</ele><time>2026-05-02T15:04:13.325Z</time></trkpt><trkpt lat="43.8408965" lon="12.3142871"><ele>648.3333333333333</ele><time>2026-05-02T15:04:14.326Z</time></trkpt><trkpt lat="43.8410203" lon="12.314427"><ele>650.0</ele><time>2026-05-02T15:04:15.335Z</time></trkpt><trkpt lat="43.8411515" lon="12.3145309"><ele>646.0</ele><time>2026-05-02T15:04:16.325Z</time></trkpt><trkpt lat="43.8413529" lon="12.3144765"><ele>642.0</ele><time>2026-05-02T15:04:17.325Z</time></trkpt><trkpt lat="43.8414947" lon="12.3144904"><ele>638.0</ele><time>2026-05-02T15:04:18.325Z</time></trkpt><trkpt lat="43.8416358" lon="12.3144971"><ele>629.3333333333333</ele><time>2026-05-02T15:04:19.325Z</time></trkpt><trkpt lat="43.8417991" lon="12.3145398"><ele>620.6666666666666</ele><time>2026-05-02T15:04:20.324Z</time></trkpt><trkpt lat="43.8419577" lon="12.3146"><ele>612.0</ele><time>2026-05-02T15:04:21.325Z</time></trkpt><trkpt lat="43.8421128" lon="12.3146883"><ele>618.3333333333334</ele><time>2026-05-02T15:04:22.325Z</time></trkpt><trkpt lat="43.8422647" lon="12.3147821"><ele>624.6666666666667</ele><time>2026-05-02T15:04:23.321Z</time></trkpt><trkpt lat="43.8423719" lon="12.3149185"><ele>631.0</ele><time>2026-05-02T15:04:24.326Z</time></trkpt><trkpt lat="43.8424241" lon="12.3151426"><ele>631.0</ele><time>2026-05-02T15:04:25.321Z</time></trkpt><trkpt lat="43.8424439" lon="12.3153393"><ele>631.0</ele><time>2026-05-02T15:04:26.321Z</time></trkpt><trkpt lat="43.8424354" lon="12.3156888"><ele>631.0</ele><time>2026-05-02T15:04:27.325Z</time></trkpt><trkpt lat="43.8424614" lon="12.3159347"><ele>634.0</ele><time>2026-05-02T15:04:28.322Z</time></trkpt><trkpt lat="43.8424844" lon="12.3161716"><ele>637.0</ele><time>2026-05-02T15:04:29.324Z</time></trkpt><trkpt lat="43.8425017" lon="12.3164291"><ele>640.0</ele><time>2026-05-02T15:04:30.325Z</time></trkpt><trkpt lat="43.8425072" lon="12.316688"><ele>640.3333333333334</ele><time>2026-05-02T15:04:31.325Z</time></trkpt><trkpt lat="43.8424906" lon="12.3169364"><ele>640.6666666666666</ele><time>2026-05-02T15:04:32.32Z</time></trkpt><trkpt lat="43.8424505" lon="12.3171307"><ele>641.0</ele><time>2026-05-02T15:04:33.323Z</time></trkpt><trkpt lat="43.8423872" lon="12.3172991"><ele>640.25</ele><time>2026-05-02T15:04:34.326Z</time></trkpt><trkpt lat="43.8422851" lon="12.3174219"><ele>639.5</ele><time>2026-05-02T15:04:35.325Z</time></trkpt><trkpt lat="43.842243" lon="12.3175849"><ele>638.75</ele><time>2026-05-02T15:04:36.325Z</time></trkpt><trkpt lat="43.8422714" lon="12.3177288"><ele>638.0</ele><time>2026-05-02T15:04:37.326Z</time></trkpt><trkpt lat="43.8422784" lon="12.3178993"><ele>638.0</ele><time>2026-05-02T15:04:38.325Z</time></trkpt><trkpt lat="43.8424125" lon="12.318014"><ele>638.0</ele><time>2026-05-02T15:04:39.327Z</time></trkpt><trkpt lat="43.8425517" lon="12.3181586"><ele>638.0</ele><time>2026-05-02T15:04:40.326Z</time></trkpt><trkpt lat="43.8426953" lon="12.3182837"><ele>641.6666666666666</ele><time>2026-05-02T15:04:41.326Z</time></trkpt><trkpt lat="43.8428895" lon="12.3183623"><ele>645.3333333333334</ele><time>2026-05-02T15:04:42.325Z</time></trkpt><trkpt lat="43.8430707" lon="12.3184787"><ele>649.0</ele><time>2026-05-02T15:04:43.326Z</time></trkpt><trkpt lat="43.8432563" lon="12.318534"><ele>649.0</ele><time>2026-05-02T15:04:44.324Z</time></trkpt><trkpt lat="43.8434198" lon="12.3185852"><ele>649.0</ele><time>2026-05-02T15:04:45.327Z</time></trkpt><trkpt lat="43.8435757" lon="12.3186423"><ele>649.0</ele><time>2026-05-02T15:04:46.326Z</time></trkpt><trkpt lat="43.8437243" lon="12.318741"><ele>649.0</ele><time>2026-05-02T15:04:47.326Z</time></trkpt><trkpt lat="43.8438753" lon="12.3188714"><ele>649.0</ele><time>2026-05-02T15:04:48.324Z</time></trkpt><trkpt lat="43.8440337" lon="12.3189662"><ele>649.0</ele><time>2026-05-02T15:04:49.327Z</time></trkpt><trkpt lat="43.8442014" lon="12.3190604"><ele>654.3333333333334</ele><time>2026-05-02T15:04:50.327Z</time></trkpt><trkpt lat="43.8443579" lon="12.3191072"><ele>659.6666666666666</ele><time>2026-05-02T15:04:51.325Z</time></trkpt><trkpt lat="43.8444839" lon="12.3191336"><ele>665.0</ele><time>2026-05-02T15:04:52.326Z</time></trkpt><trkpt lat="43.8446655" lon="12.3191709"><ele>665.0</ele><time>2026-05-02T15:04:53.327Z</time></trkpt><trkpt lat="43.8448208" lon="12.3192491"><ele>665.0</ele><time>2026-05-02T15:04:54.326Z</time></trkpt><trkpt lat="43.8449807" lon="12.3193136"><ele>665.0</ele><time>2026-05-02T15:04:55.327Z</time></trkpt><trkpt lat="43.845127" lon="12.3193975"><ele>667.2</ele><time>2026-05-02T15:04:56.329Z</time></trkpt><trkpt lat="43.8452304" lon="12.3193922"><ele>669.4</ele><time>2026-05-02T15:04:58.325Z</time></trkpt><trkpt lat="43.8452962" lon="12.3192333"><ele>671.5999999999999</ele><time>2026-05-02T15:05:00.321Z</time></trkpt><trkpt lat="43.8453168" lon="12.319144"><ele>673.8</ele><time>2026-05-02T15:05:01.325Z</time></trkpt><trkpt lat="43.8453236" lon="12.3190251"><ele>676.0</ele><time>2026-05-02T15:05:02.326Z</time></trkpt><trkpt lat="43.8452947" lon="12.3188741"><ele>676.75</ele><time>2026-05-02T15:05:03.325Z</time></trkpt><trkpt lat="43.8452783" lon="12.3187089"><ele>677.5</ele><time>2026-05-02T15:05:04.325Z</time></trkpt><trkpt lat="43.8452804" lon="12.3185474"><ele>678.25</ele><time>2026-05-02T15:05:05.325Z</time></trkpt><trkpt lat="43.8452984" lon="12.3183729"><ele>679.0</ele><time>2026-05-02T15:05:06.324Z</time></trkpt><trkpt lat="43.8453185" lon="12.3182012"><ele>678.2</ele><time>2026-05-02T15:05:07.324Z</time></trkpt><trkpt lat="43.8453642" lon="12.3180505"><ele>677.4000000000001</ele><time>2026-05-02T15:05:08.325Z</time></trkpt><trkpt lat="43.8453969" lon="12.3178929"><ele>676.6</ele><time>2026-05-02T15:05:09.324Z</time></trkpt><trkpt lat="43.8454246" lon="12.3177485"><ele>675.8</ele><time>2026-05-02T15:05:10.323Z</time></trkpt><trkpt lat="43.8454427" lon="12.317606"><ele>675.0</ele><time>2026-05-02T15:05:11.325Z</time></trkpt><trkpt lat="43.8454651" lon="12.3174807"><ele>675.0</ele><time>2026-05-02T15:05:12.324Z</time></trkpt><trkpt lat="43.8454799" lon="12.3173914"><ele>675.0</ele><time>2026-05-02T15:05:13.321Z</time></trkpt><trkpt lat="43.8455436" lon="12.3173003"><ele>675.0</ele><time>2026-05-02T15:05:15.325Z</time></trkpt><trkpt lat="43.8456704" lon="12.3173448"><ele>675.0</ele><time>2026-05-02T15:05:17.332Z</time></trkpt><trkpt lat="43.8457535" lon="12.3174067"><ele>675.0</ele><time>2026-05-02T15:05:18.323Z</time></trkpt><trkpt lat="43.8458315" lon="12.3175103"><ele>675.0</ele><time>2026-05-02T15:05:19.325Z</time></trkpt><trkpt lat="43.8459281" lon="12.3176379"><ele>675.0</ele><time>2026-05-02T15:05:20.322Z</time></trkpt><trkpt lat="43.8460139" lon="12.3177678"><ele>675.0</ele><time>2026-05-02T15:05:21.324Z</time></trkpt><trkpt lat="43.8461052" lon="12.317892"><ele>675.0</ele><time>2026-05-02T15:05:22.325Z</time></trkpt><trkpt lat="43.846216" lon="12.318066"><ele>676.0</ele><time>2026-05-02T15:05:23.323Z</time></trkpt><trkpt lat="43.8463286" lon="12.3182261"><ele>677.0</ele><time>2026-05-02T15:05:24.325Z</time></trkpt><trkpt lat="43.8464406" lon="12.3183816"><ele>678.0</ele><time>2026-05-02T15:05:25.324Z</time></trkpt><trkpt lat="43.8465501" lon="12.3185315"><ele>678.0</ele><time>2026-05-02T15:05:26.324Z</time></trkpt><trkpt lat="43.8466525" lon="12.3186794"><ele>678.0</ele><time>2026-05-02T15:05:27.324Z</time></trkpt><trkpt lat="43.8467571" lon="12.3187793"><ele>678.0</ele><time>2026-05-02T15:05:28.325Z</time></trkpt><trkpt lat="43.8468594" lon="12.318897"><ele>678.0</ele><time>2026-05-02T15:05:29.325Z</time></trkpt><trkpt lat="43.8469636" lon="12.3190105"><ele>678.5</ele><time>2026-05-02T15:05:30.325Z</time></trkpt><trkpt lat="43.8470652" lon="12.3191416"><ele>679.0</ele><time>2026-05-02T15:05:31.319Z</time></trkpt><trkpt lat="43.8471534" lon="12.3193096"><ele>679.5</ele><time>2026-05-02T15:05:32.324Z</time></trkpt><trkpt lat="43.847215" lon="12.319508"><ele>680.0</ele><time>2026-05-02T15:05:33.326Z</time></trkpt><trkpt lat="43.8472536" lon="12.3197383"><ele>683.6666666666666</ele><time>2026-05-02T15:05:34.323Z</time></trkpt><trkpt lat="43.8472801" lon="12.3199837"><ele>687.3333333333334</ele><time>2026-05-02T15:05:35.325Z</time></trkpt><trkpt lat="43.847303" lon="12.3202017"><ele>691.0</ele><time>2026-05-02T15:05:36.325Z</time></trkpt><trkpt lat="43.8473246" lon="12.3204063"><ele>694.25</ele><time>2026-05-02T15:05:37.325Z</time></trkpt><trkpt lat="43.8473577" lon="12.3205733"><ele>697.5</ele><time>2026-05-02T15:05:38.324Z</time></trkpt><trkpt lat="43.8473943" lon="12.3207175"><ele>700.75</ele><time>2026-05-02T15:05:39.324Z</time></trkpt><trkpt lat="43.8474602" lon="12.3208648"><ele>704.0</ele><time>2026-05-02T15:05:40.325Z</time></trkpt><trkpt lat="43.8475417" lon="12.3209402"><ele>705.5</ele><time>2026-05-02T15:05:41.325Z</time></trkpt><trkpt lat="43.8476433" lon="12.3210495"><ele>707.0</ele><time>2026-05-02T15:05:42.324Z</time></trkpt><trkpt lat="43.8477405" lon="12.321169"><ele>708.5</ele><time>2026-05-02T15:05:43.325Z</time></trkpt><trkpt lat="43.8478434" lon="12.321291"><ele>710.0</ele><time>2026-05-02T15:05:44.325Z</time></trkpt><trkpt lat="43.8479424" lon="12.3214445"><ele>710.0</ele><time>2026-05-02T15:05:45.325Z</time></trkpt><trkpt lat="43.8480376" lon="12.3216142"><ele>710.0</ele><time>2026-05-02T15:05:46.324Z</time></trkpt><trkpt lat="43.848122" lon="12.3217947"><ele>710.0</ele><time>2026-05-02T15:05:47.323Z</time></trkpt><trkpt lat="43.8482261" lon="12.3220112"><ele>710.0</ele><time>2026-05-02T15:05:48.321Z</time></trkpt><trkpt lat="43.8483175" lon="12.3221896"><ele>710.0</ele><time>2026-05-02T15:05:49.322Z</time></trkpt><trkpt lat="43.8484338" lon="12.3223193"><ele>710.0</ele><time>2026-05-02T15:05:50.325Z</time></trkpt><trkpt lat="43.8485362" lon="12.3224777"><ele>713.3333333333333</ele><time>2026-05-02T15:05:51.325Z</time></trkpt><trkpt lat="43.8486809" lon="12.322571"><ele>716.6666666666666</ele><time>2026-05-02T15:05:52.325Z</time></trkpt><trkpt lat="43.8488161" lon="12.3226753"><ele>720.0</ele><time>2026-05-02T15:05:53.324Z</time></trkpt><trkpt lat="43.8489977" lon="12.3227462"><ele>720.0</ele><time>2026-05-02T15:05:54.324Z</time></trkpt><trkpt lat="43.8491512" lon="12.3228128"><ele>720.0</ele><time>2026-05-02T15:05:55.323Z</time></trkpt><trkpt lat="43.8493463" lon="12.3228619"><ele>720.0</ele><time>2026-05-02T15:05:56.327Z</time></trkpt><trkpt lat="43.8495253" lon="12.3228838"><ele>722.3333333333334</ele><time>2026-05-02T15:05:57.325Z</time></trkpt><trkpt lat="43.8497099" lon="12.3228769"><ele>724.6666666666667</ele><time>2026-05-02T15:05:58.325Z</time></trkpt><trkpt lat="43.8498813" lon="12.3228815"><ele>727.0</ele><time>2026-05-02T15:05:59.324Z</time></trkpt><trkpt lat="43.8500405" lon="12.322889"><ele>729.75</ele><time>2026-05-02T15:06:00.325Z</time></trkpt><trkpt lat="43.8501772" lon="12.3228966"><ele>732.5</ele><time>2026-05-02T15:06:01.324Z</time></trkpt><trkpt lat="43.850317" lon="12.322903"><ele>735.25</ele><time>2026-05-02T15:06:02.325Z</time></trkpt><trkpt lat="43.850428" lon="12.3229341"><ele>738.0</ele><time>2026-05-02T15:06:03.319Z</time></trkpt><trkpt lat="43.8504569" lon="12.3230257"><ele>739.5999999999999</ele><time>2026-05-02T15:06:04.325Z</time></trkpt><trkpt lat="43.8504654" lon="12.3231242"><ele>741.1999999999999</ele><time>2026-05-02T15:06:05.329Z</time></trkpt><trkpt lat="43.8504633" lon="12.3232204"><ele>742.8</ele><time>2026-05-02T15:06:06.327Z</time></trkpt><trkpt lat="43.8503687" lon="12.3232695"><ele>744.4</ele><time>2026-05-02T15:06:07.326Z</time></trkpt><trkpt lat="43.8502608" lon="12.3232936"><ele>746.0</ele><time>2026-05-02T15:06:08.326Z</time></trkpt><trkpt lat="43.8501279" lon="12.3232831"><ele>744.25</ele><time>2026-05-02T15:06:09.325Z</time></trkpt><trkpt lat="43.8499862" lon="12.323264"><ele>742.5</ele><time>2026-05-02T15:06:10.326Z</time></trkpt><trkpt lat="43.8498541" lon="12.3232519"><ele>740.75</ele><time>2026-05-02T15:06:11.325Z</time></trkpt><trkpt lat="43.8497506" lon="12.3232642"><ele>739.0</ele><time>2026-05-02T15:06:12.328Z</time></trkpt><trkpt lat="43.8496892" lon="12.3233826"><ele>739.0</ele><time>2026-05-02T15:06:13.326Z</time></trkpt><trkpt lat="43.8496083" lon="12.3234586"><ele>739.0</ele><time>2026-05-02T15:06:14.325Z</time></trkpt><trkpt lat="43.8495601" lon="12.3236915"><ele>739.0</ele><time>2026-05-02T15:06:15.326Z</time></trkpt><trkpt lat="43.8494984" lon="12.3238579"><ele>739.0</ele><time>2026-05-02T15:06:16.325Z</time></trkpt><trkpt lat="43.8494403" lon="12.324019"><ele>741.75</ele><time>2026-05-02T15:06:17.325Z</time></trkpt><trkpt lat="43.8493484" lon="12.3241924"><ele>744.5</ele><time>2026-05-02T15:06:18.325Z</time></trkpt><trkpt lat="43.8492685" lon="12.3242457"><ele>747.25</ele><time>2026-05-02T15:06:19.325Z</time></trkpt><trkpt lat="43.8491853" lon="12.3243496"><ele>750.0</ele><time>2026-05-02T15:06:20.324Z</time></trkpt><trkpt lat="43.8490882" lon="12.324419"><ele>750.0</ele><time>2026-05-02T15:06:21.317Z</time></trkpt><trkpt lat="43.8489585" lon="12.3240741"><ele>750.0</ele><time>2026-05-02T15:06:22.326Z</time></trkpt><trkpt lat="43.8488443" lon="12.3240121"><ele>750.0</ele><time>2026-05-02T15:06:23.324Z</time></trkpt><trkpt lat="43.8487471" lon="12.3239292"><ele>750.0</ele><time>2026-05-02T15:06:24.325Z</time></trkpt><trkpt lat="43.8486192" lon="12.3238741"><ele>750.0</ele><time>2026-05-02T15:06:25.326Z</time></trkpt><trkpt lat="43.8484927" lon="12.324009"><ele>750.0</ele><time>2026-05-02T15:06:26.326Z</time></trkpt><trkpt lat="43.8483874" lon="12.3240639"><ele>750.0</ele><time>2026-05-02T15:06:27.326Z</time></trkpt><trkpt lat="43.8482914" lon="12.3241604"><ele>751.25</ele><time>2026-05-02T15:06:28.33Z</time></trkpt><trkpt lat="43.8482116" lon="12.3242984"><ele>752.5</ele><time>2026-05-02T15:06:29.325Z</time></trkpt><trkpt lat="43.8481387" lon="12.324438"><ele>753.75</ele><time>2026-05-02T15:06:30.325Z</time></trkpt><trkpt lat="43.8481016" lon="12.3246114"><ele>755.0</ele><time>2026-05-02T15:06:31.324Z</time></trkpt><trkpt lat="43.8480859" lon="12.3247933"><ele>758.6666666666666</ele><time>2026-05-02T15:06:32.325Z</time></trkpt><trkpt lat="43.8481064" lon="12.3250405"><ele>762.3333333333334</ele><time>2026-05-02T15:06:33.326Z</time></trkpt><trkpt lat="43.8480952" lon="12.3252662"><ele>766.0</ele><time>2026-05-02T15:06:34.326Z</time></trkpt><trkpt lat="43.8480832" lon="12.3254829"><ele>769.3333333333334</ele><time>2026-05-02T15:06:35.324Z</time></trkpt><trkpt lat="43.8480356" lon="12.3256961"><ele>772.6666666666667</ele><time>2026-05-02T15:06:36.326Z</time></trkpt><trkpt lat="43.8479594" lon="12.3258845"><ele>776.0</ele><time>2026-05-02T15:06:37.319Z</time></trkpt><trkpt lat="43.8478807" lon="12.3260773"><ele>776.0</ele><time>2026-05-02T15:06:38.326Z</time></trkpt><trkpt lat="43.8477909" lon="12.3262472"><ele>776.0</ele><time>2026-05-02T15:06:39.326Z</time></trkpt><trkpt lat="43.8477043" lon="12.3263557"><ele>776.0</ele><time>2026-05-02T15:06:40.326Z</time></trkpt><trkpt lat="43.8476481" lon="12.3264937"><ele>776.0</ele><time>2026-05-02T15:06:41.325Z</time></trkpt><trkpt lat="43.8476111" lon="12.326607"><ele>776.0000000000001</ele><time>2026-05-02T15:06:42.326Z</time></trkpt><trkpt lat="43.8476092" lon="12.3267128"><ele>776.0</ele><time>2026-05-02T15:06:43.328Z</time></trkpt><trkpt lat="43.8476437" lon="12.3267947"><ele>776.0</ele><time>2026-05-02T15:06:44.326Z</time></trkpt><trkpt lat="43.8477122" lon="12.3268232"><ele>776.0</ele><time>2026-05-02T15:06:45.323Z</time></trkpt><trkpt lat="43.8477997" lon="12.3268235"><ele>776.0000000000001</ele><time>2026-05-02T15:06:46.324Z</time></trkpt><trkpt lat="43.8478928" lon="12.3267637"><ele>776.0</ele><time>2026-05-02T15:06:47.324Z</time></trkpt><trkpt lat="43.847991" lon="12.3267198"><ele>776.0</ele><time>2026-05-02T15:06:48.326Z</time></trkpt><trkpt lat="43.8480962" lon="12.326655"><ele>776.0</ele><time>2026-05-02T15:06:49.325Z</time></trkpt><trkpt lat="43.8482357" lon="12.3264731"><ele>776.0</ele><time>2026-05-02T15:06:50.323Z</time></trkpt><trkpt lat="43.8483517" lon="12.3263586"><ele>776.0</ele><time>2026-05-02T15:06:51.32Z</time></trkpt><trkpt lat="43.8484587" lon="12.3262133"><ele>779.0</ele><time>2026-05-02T15:06:52.325Z</time></trkpt><trkpt lat="43.8485387" lon="12.3260699"><ele>782.0</ele><time>2026-05-02T15:06:53.324Z</time></trkpt><trkpt lat="43.8486138" lon="12.3259249"><ele>785.0</ele><time>2026-05-02T15:06:54.324Z</time></trkpt><trkpt lat="43.8486956" lon="12.3258143"><ele>788.0</ele><time>2026-05-02T15:06:55.325Z</time></trkpt><trkpt lat="43.8488106" lon="12.3257494"><ele>788.0</ele><time>2026-05-02T15:06:56.324Z</time></trkpt><trkpt lat="43.8489247" lon="12.3257005"><ele>788.0</ele><time>2026-05-02T15:06:57.324Z</time></trkpt><trkpt lat="43.8490861" lon="12.3257528"><ele>788.0</ele><time>2026-05-02T15:06:58.325Z</time></trkpt><trkpt lat="43.8492542" lon="12.3257981"><ele>789.6666666666667</ele><time>2026-05-02T15:06:59.323Z</time></trkpt><trkpt lat="43.8494557" lon="12.3258538"><ele>791.3333333333333</ele><time>2026-05-02T15:07:00.326Z</time></trkpt><trkpt lat="43.8496438" lon="12.3259105"><ele>793.0</ele><time>2026-05-02T15:07:01.325Z</time></trkpt><trkpt lat="43.8498123" lon="12.3259452"><ele>793.0</ele><time>2026-05-02T15:07:02.324Z</time></trkpt><trkpt lat="43.8499709" lon="12.325944"><ele>793.0</ele><time>2026-05-02T15:07:03.324Z</time></trkpt><trkpt lat="43.8501087" lon="12.3258949"><ele>793.0</ele><time>2026-05-02T15:07:04.324Z</time></trkpt><trkpt lat="43.8502342" lon="12.3258595"><ele>793.0</ele><time>2026-05-02T15:07:05.322Z</time></trkpt><trkpt lat="43.8503578" lon="12.325861"><ele>792.0</ele><time>2026-05-02T15:07:06.324Z</time></trkpt><trkpt lat="43.8504749" lon="12.325889"><ele>791.0</ele><time>2026-05-02T15:07:07.319Z</time></trkpt><trkpt lat="43.8505816" lon="12.3259529"><ele>790.0</ele><time>2026-05-02T15:07:08.324Z</time></trkpt><trkpt lat="43.8507265" lon="12.3261751"><ele>790.0</ele><time>2026-05-02T15:07:09.324Z</time></trkpt><trkpt lat="43.8508599" lon="12.3262913"><ele>790.0</ele><time>2026-05-02T15:07:10.323Z</time></trkpt><trkpt lat="43.8509853" lon="12.3264317"><ele>790.0</ele><time>2026-05-02T15:07:11.323Z</time></trkpt><trkpt lat="43.8511088" lon="12.3265588"><ele>790.75</ele><time>2026-05-02T15:07:12.322Z</time></trkpt><trkpt lat="43.8511653" lon="12.3267146"><ele>791.5</ele><time>2026-05-02T15:07:13.322Z</time></trkpt><trkpt lat="43.851248" lon="12.3268634"><ele>792.25</ele><time>2026-05-02T15:07:14.323Z</time></trkpt><trkpt lat="43.8512996" lon="12.3269949"><ele>793.0</ele><time>2026-05-02T15:07:15.323Z</time></trkpt><trkpt lat="43.851323" lon="12.3271249"><ele>795.0</ele><time>2026-05-02T15:07:16.322Z</time></trkpt><trkpt lat="43.8513" lon="12.3272459"><ele>797.0</ele><time>2026-05-02T15:07:17.324Z</time></trkpt><trkpt lat="43.8512358" lon="12.3273102"><ele>799.0</ele><time>2026-05-02T15:07:18.323Z</time></trkpt><trkpt lat="43.8511479" lon="12.327304"><ele>801.0</ele><time>2026-05-02T15:07:19.324Z</time></trkpt><trkpt lat="43.8510509" lon="12.3272429"><ele>803.0</ele><time>2026-05-02T15:07:20.323Z</time></trkpt><trkpt lat="43.850931" lon="12.3271318"><ele>803.6666666666667</ele><time>2026-05-02T15:07:21.321Z</time></trkpt><trkpt lat="43.8508086" lon="12.3270118"><ele>804.3333333333333</ele><time>2026-05-02T15:07:22.324Z</time></trkpt><trkpt lat="43.8506668" lon="12.3268766"><ele>805.0</ele><time>2026-05-02T15:07:23.324Z</time></trkpt><trkpt lat="43.8505337" lon="12.3267579"><ele>805.0</ele><time>2026-05-02T15:07:24.323Z</time></trkpt><trkpt lat="43.8504122" lon="12.3266698"><ele>805.0</ele><time>2026-05-02T15:07:25.32Z</time></trkpt><trkpt lat="43.8503043" lon="12.3266239"><ele>805.0</ele><time>2026-05-02T15:07:26.324Z</time></trkpt><trkpt lat="43.8502128" lon="12.326675"><ele>805.0</ele><time>2026-05-02T15:07:27.323Z</time></trkpt><trkpt lat="43.850136" lon="12.3267591"><ele>805.0</ele><time>2026-05-02T15:07:28.323Z</time></trkpt><trkpt lat="43.8500685" lon="12.3268656"><ele>807.0</ele><time>2026-05-02T15:07:29.323Z</time></trkpt><trkpt lat="43.8500034" lon="12.3269768"><ele>809.0</ele><time>2026-05-02T15:07:30.323Z</time></trkpt><trkpt lat="43.8500381" lon="12.327133"><ele>811.0</ele><time>2026-05-02T15:07:31.325Z</time></trkpt><trkpt lat="43.8500932" lon="12.3272675"><ele>813.0</ele><time>2026-05-02T15:07:32.323Z</time></trkpt><trkpt lat="43.8501743" lon="12.3274003"><ele>813.0</ele><time>2026-05-02T15:07:33.322Z</time></trkpt><trkpt lat="43.8502698" lon="12.3275265"><ele>813.0</ele><time>2026-05-02T15:07:34.324Z</time></trkpt><trkpt lat="43.8503773" lon="12.3276553"><ele>813.0</ele><time>2026-05-02T15:07:35.322Z</time></trkpt><trkpt lat="43.8504964" lon="12.3277914"><ele>813.0</ele><time>2026-05-02T15:07:36.324Z</time></trkpt><trkpt lat="43.8506222" lon="12.3279386"><ele>812.6666666666667</ele><time>2026-05-02T15:07:37.324Z</time></trkpt><trkpt lat="43.8507543" lon="12.3281005"><ele>812.3333333333334</ele><time>2026-05-02T15:07:38.323Z</time></trkpt><trkpt lat="43.8508785" lon="12.3282588"><ele>812.0</ele><time>2026-05-02T15:07:39.322Z</time></trkpt><trkpt lat="43.8509877" lon="12.3284045"><ele>812.0</ele><time>2026-05-02T15:07:40.322Z</time></trkpt><trkpt lat="43.8510785" lon="12.3285576"><ele>812.0</ele><time>2026-05-02T15:07:41.324Z</time></trkpt><trkpt lat="43.8511788" lon="12.3287074"><ele>812.0</ele><time>2026-05-02T15:07:42.323Z</time></trkpt><trkpt lat="43.8512657" lon="12.3289006"><ele>813.6666666666667</ele><time>2026-05-02T15:07:43.323Z</time></trkpt><trkpt lat="43.8512126" lon="12.3291706"><ele>815.3333333333333</ele><time>2026-05-02T15:07:44.323Z</time></trkpt><trkpt lat="43.8511974" lon="12.3293932"><ele>817.0</ele><time>2026-05-02T15:07:45.324Z</time></trkpt><trkpt lat="43.8511686" lon="12.3296298"><ele>818.3333333333333</ele><time>2026-05-02T15:07:46.324Z</time></trkpt><trkpt lat="43.8511218" lon="12.3298668"><ele>819.6666666666667</ele><time>2026-05-02T15:07:47.324Z</time></trkpt><trkpt lat="43.8510835" lon="12.3300436"><ele>821.0</ele><time>2026-05-02T15:07:48.324Z</time></trkpt><trkpt lat="43.850931" lon="12.3301439"><ele>823.8</ele><time>2026-05-02T15:07:49.326Z</time></trkpt><trkpt lat="43.8508229" lon="12.3301489"><ele>826.5999999999999</ele><time>2026-05-02T15:07:50.327Z</time></trkpt><trkpt lat="43.8507318" lon="12.3301278"><ele>829.4</ele><time>2026-05-02T15:07:51.327Z</time></trkpt><trkpt lat="43.850667" lon="12.3300336"><ele>832.2</ele><time>2026-05-02T15:07:52.325Z</time></trkpt><trkpt lat="43.8506538" lon="12.3299222"><ele>835.0</ele><time>2026-05-02T15:07:53.324Z</time></trkpt><trkpt lat="43.8506403" lon="12.3297491"><ele>835.6666666666666</ele><time>2026-05-02T15:07:54.325Z</time></trkpt><trkpt lat="43.8508126" lon="12.3295354"><ele>836.3333333333333</ele><time>2026-05-02T15:07:55.325Z</time></trkpt><trkpt lat="43.850842" lon="12.3293702"><ele>837.0</ele><time>2026-05-02T15:07:56.321Z</time></trkpt><trkpt lat="43.8508538" lon="12.3292178"><ele>837.0</ele><time>2026-05-02T15:07:57.324Z</time></trkpt><trkpt lat="43.8508407" lon="12.3290945"><ele>837.0</ele><time>2026-05-02T15:07:58.323Z</time></trkpt><trkpt lat="43.8507966" lon="12.3290114"><ele>837.0</ele><time>2026-05-02T15:07:59.323Z</time></trkpt><trkpt lat="43.850705" lon="12.3289808"><ele>837.0</ele><time>2026-05-02T15:08:00.324Z</time></trkpt><trkpt lat="43.8506307" lon="12.3290141"><ele>837.0</ele><time>2026-05-02T15:08:01.327Z</time></trkpt><trkpt lat="43.850557" lon="12.3290974"><ele>837.0</ele><time>2026-05-02T15:08:02.324Z</time></trkpt><trkpt lat="43.8504667" lon="12.329214"><ele>837.0</ele><time>2026-05-02T15:08:03.324Z</time></trkpt><trkpt lat="43.8503683" lon="12.3293657"><ele>837.0</ele><time>2026-05-02T15:08:04.326Z</time></trkpt><trkpt lat="43.8502731" lon="12.3295218"><ele>837.0</ele><time>2026-05-02T15:08:05.321Z</time></trkpt><trkpt lat="43.8501628" lon="12.3297064"><ele>842.6666666666667</ele><time>2026-05-02T15:08:06.323Z</time></trkpt><trkpt lat="43.8500516" lon="12.3298928"><ele>848.3333333333334</ele><time>2026-05-02T15:08:07.323Z</time></trkpt><trkpt lat="43.8499397" lon="12.3300752"><ele>854.0</ele><time>2026-05-02T15:08:08.325Z</time></trkpt><trkpt lat="43.8498411" lon="12.330243"><ele>854.0</ele><time>2026-05-02T15:08:09.323Z</time></trkpt><trkpt lat="43.8497477" lon="12.3303956"><ele>854.0</ele><time>2026-05-02T15:08:10.325Z</time></trkpt><trkpt lat="43.8496586" lon="12.3305622"><ele>854.0</ele><time>2026-05-02T15:08:11.326Z</time></trkpt><trkpt lat="43.8495872" lon="12.3307088"><ele>854.0</ele><time>2026-05-02T15:08:12.317Z</time></trkpt><trkpt lat="43.8495579" lon="12.3308514"><ele>855.25</ele><time>2026-05-02T15:08:13.323Z</time></trkpt><trkpt lat="43.8495256" lon="12.3310065"><ele>856.5</ele><time>2026-05-02T15:08:14.324Z</time></trkpt><trkpt lat="43.8494893" lon="12.3311634"><ele>857.75</ele><time>2026-05-02T15:08:15.324Z</time></trkpt><trkpt lat="43.849446" lon="12.3313306"><ele>859.0</ele><time>2026-05-02T15:08:16.323Z</time></trkpt><trkpt lat="43.8494012" lon="12.3315073"><ele>860.75</ele><time>2026-05-02T15:08:17.322Z</time></trkpt><trkpt lat="43.8493474" lon="12.3316922"><ele>862.5</ele><time>2026-05-02T15:08:18.323Z</time></trkpt><trkpt lat="43.8492926" lon="12.331869"><ele>864.25</ele><time>2026-05-02T15:08:19.325Z</time></trkpt><trkpt lat="43.8492386" lon="12.3320781"><ele>866.0</ele><time>2026-05-02T15:08:20.324Z</time></trkpt><trkpt lat="43.8491842" lon="12.3322735"><ele>867.75</ele><time>2026-05-02T15:08:21.324Z</time></trkpt><trkpt lat="43.8491559" lon="12.3324489"><ele>869.5</ele><time>2026-05-02T15:08:22.325Z</time></trkpt><trkpt lat="43.8491484" lon="12.3326292"><ele>871.25</ele><time>2026-05-02T15:08:23.324Z</time></trkpt><trkpt lat="43.8491784" lon="12.3327832"><ele>873.0</ele><time>2026-05-02T15:08:24.323Z</time></trkpt><trkpt lat="43.8492462" lon="12.3329178"><ele>872.25</ele><time>2026-05-02T15:08:25.324Z</time></trkpt><trkpt lat="43.8493565" lon="12.3330418"><ele>871.5</ele><time>2026-05-02T15:08:26.324Z</time></trkpt><trkpt lat="43.849473" lon="12.3331665"><ele>870.75</ele><time>2026-05-02T15:08:27.325Z</time></trkpt><trkpt lat="43.8495895" lon="12.333293"><ele>870.0</ele><time>2026-05-02T15:08:28.321Z</time></trkpt><trkpt lat="43.8496192" lon="12.3334955"><ele>871.75</ele><time>2026-05-02T15:08:29.325Z</time></trkpt><trkpt lat="43.8496775" lon="12.3336833"><ele>873.5</ele><time>2026-05-02T15:08:30.324Z</time></trkpt><trkpt lat="43.8497052" lon="12.3338737"><ele>875.25</ele><time>2026-05-02T15:08:31.323Z</time></trkpt><trkpt lat="43.8497038" lon="12.334081"><ele>877.0</ele><time>2026-05-02T15:08:32.328Z</time></trkpt><trkpt lat="43.8495264" lon="12.3342375"><ele>879.0</ele><time>2026-05-02T15:08:33.324Z</time></trkpt><trkpt lat="43.84942" lon="12.3344149"><ele>881.0</ele><time>2026-05-02T15:08:34.324Z</time></trkpt><trkpt lat="43.8493478" lon="12.3345743"><ele>883.0</ele><time>2026-05-02T15:08:35.324Z</time></trkpt><trkpt lat="43.8492963" lon="12.3347238"><ele>885.0</ele><time>2026-05-02T15:08:36.324Z</time></trkpt><trkpt lat="43.849294" lon="12.334879"><ele>887.75</ele><time>2026-05-02T15:08:37.325Z</time></trkpt><trkpt lat="43.8493394" lon="12.335026"><ele>890.5</ele><time>2026-05-02T15:08:38.324Z</time></trkpt><trkpt lat="43.8494263" lon="12.3351492"><ele>893.25</ele><time>2026-05-02T15:08:39.324Z</time></trkpt><trkpt lat="43.8495513" lon="12.3352828"><ele>896.0</ele><time>2026-05-02T15:08:40.326Z</time></trkpt><trkpt lat="43.849679" lon="12.3353986"><ele>896.0</ele><time>2026-05-02T15:08:41.322Z</time></trkpt><trkpt lat="43.8497973" lon="12.3354928"><ele>895.9999999999999</ele><time>2026-05-02T15:08:42.323Z</time></trkpt><trkpt lat="43.8498883" lon="12.3355915"><ele>895.9999999999999</ele><time>2026-05-02T15:08:43.325Z</time></trkpt><trkpt lat="43.8499639" lon="12.3356933"><ele>896.0</ele><time>2026-05-02T15:08:44.323Z</time></trkpt><trkpt lat="43.8499438" lon="12.3357875"><ele>896.0</ele><time>2026-05-02T15:08:45.325Z</time></trkpt><trkpt lat="43.8499037" lon="12.3358717"><ele>898.0</ele><time>2026-05-02T15:08:46.322Z</time></trkpt><trkpt lat="43.8498239" lon="12.3359618"><ele>899.9999999999999</ele><time>2026-05-02T15:08:47.324Z</time></trkpt><trkpt lat="43.84972" lon="12.3360526"><ele>901.9999999999999</ele><time>2026-05-02T15:08:48.324Z</time></trkpt><trkpt lat="43.8496501" lon="12.3361545"><ele>904.0</ele><time>2026-05-02T15:08:49.324Z</time></trkpt><trkpt lat="43.8496065" lon="12.3363006"><ele>906.0</ele><time>2026-05-02T15:08:50.323Z</time></trkpt><trkpt lat="43.8495929" lon="12.3364786"><ele>908.3333333333333</ele><time>2026-05-02T15:08:51.324Z</time></trkpt><trkpt lat="43.8495985" lon="12.3367069"><ele>910.6666666666666</ele><time>2026-05-02T15:08:52.325Z</time></trkpt><trkpt lat="43.8496094" lon="12.33694"><ele>913.0</ele><time>2026-05-02T15:08:53.323Z</time></trkpt><trkpt lat="43.8496206" lon="12.3371626"><ele>915.0</ele><time>2026-05-02T15:08:54.324Z</time></trkpt><trkpt lat="43.8496267" lon="12.3373558"><ele>917.0</ele><time>2026-05-02T15:08:55.324Z</time></trkpt><trkpt lat="43.8496415" lon="12.3375214"><ele>919.0</ele><time>2026-05-02T15:08:56.323Z</time></trkpt><trkpt lat="43.8496823" lon="12.3376463"><ele>921.0</ele><time>2026-05-02T15:08:57.323Z</time></trkpt><trkpt lat="43.8497583" lon="12.3377381"><ele>921.0</ele><time>2026-05-02T15:08:58.324Z</time></trkpt><trkpt lat="43.8498698" lon="12.337782"><ele>921.0</ele><time>2026-05-02T15:08:59.324Z</time></trkpt><trkpt lat="43.8500024" lon="12.3377967"><ele>921.0</ele><time>2026-05-02T15:09:00.321Z</time></trkpt><trkpt lat="43.850139" lon="12.3377811"><ele>921.0</ele><time>2026-05-02T15:09:01.325Z</time></trkpt><trkpt lat="43.8502885" lon="12.3377776"><ele>920.5</ele><time>2026-05-02T15:09:02.314Z</time></trkpt><trkpt lat="43.8504386" lon="12.3377419"><ele>920.0</ele><time>2026-05-02T15:09:03.322Z</time></trkpt><trkpt lat="43.8505763" lon="12.3377463"><ele>919.5</ele><time>2026-05-02T15:09:04.323Z</time></trkpt><trkpt lat="43.8507007" lon="12.3377492"><ele>919.0</ele><time>2026-05-02T15:09:05.323Z</time></trkpt><trkpt lat="43.8508072" lon="12.3377936"><ele>919.0</ele><time>2026-05-02T15:09:06.323Z</time></trkpt><trkpt lat="43.8508879" lon="12.3378409"><ele>919.0</ele><time>2026-05-02T15:09:07.323Z</time></trkpt><trkpt lat="43.8507693" lon="12.3381167"><ele>919.0</ele><time>2026-05-02T15:09:08.323Z</time></trkpt><trkpt lat="43.8507842" lon="12.3383123"><ele>922.0</ele><time>2026-05-02T15:09:09.325Z</time></trkpt><trkpt lat="43.8506296" lon="12.3384147"><ele>925.0</ele><time>2026-05-02T15:09:10.323Z</time></trkpt><trkpt lat="43.8505044" lon="12.3385361"><ele>928.0</ele><time>2026-05-02T15:09:11.325Z</time></trkpt><trkpt lat="43.8503534" lon="12.3386747"><ele>928.0</ele><time>2026-05-02T15:09:12.323Z</time></trkpt><trkpt lat="43.8501923" lon="12.3388244"><ele>928.0</ele><time>2026-05-02T15:09:13.324Z</time></trkpt><trkpt lat="43.8500441" lon="12.3389538"><ele>928.0</ele><time>2026-05-02T15:09:14.319Z</time></trkpt><trkpt lat="43.8499052" lon="12.339066"><ele>929.8</ele><time>2026-05-02T15:09:15.325Z</time></trkpt><trkpt lat="43.8497884" lon="12.3391748"><ele>931.5999999999999</ele><time>2026-05-02T15:09:16.315Z</time></trkpt><trkpt lat="43.8496844" lon="12.339286"><ele>933.4000000000001</ele><time>2026-05-02T15:09:17.323Z</time></trkpt><trkpt lat="43.8496671" lon="12.3393909"><ele>935.2</ele><time>2026-05-02T15:09:18.324Z</time></trkpt><trkpt lat="43.8496732" lon="12.3395075"><ele>937.0</ele><time>2026-05-02T15:09:19.323Z</time></trkpt><trkpt lat="43.8497246" lon="12.3395973"><ele>937.0</ele><time>2026-05-02T15:09:20.324Z</time></trkpt><trkpt lat="43.8498056" lon="12.3396497"><ele>937.0</ele><time>2026-05-02T15:09:21.325Z</time></trkpt><trkpt lat="43.8498939" lon="12.3396486"><ele>937.0</ele><time>2026-05-02T15:09:22.322Z</time></trkpt><trkpt lat="43.8500016" lon="12.3396219"><ele>937.0</ele><time>2026-05-02T15:09:23.322Z</time></trkpt><trkpt lat="43.8501118" lon="12.3395891"><ele>937.0</ele><time>2026-05-02T15:09:24.324Z</time></trkpt><trkpt lat="43.8502428" lon="12.339601"><ele>936.4000000000001</ele><time>2026-05-02T15:09:25.323Z</time></trkpt><trkpt lat="43.8503481" lon="12.3396448"><ele>935.8000000000001</ele><time>2026-05-02T15:09:26.324Z</time></trkpt><trkpt lat="43.8504065" lon="12.3397292"><ele>935.2</ele><time>2026-05-02T15:09:27.325Z</time></trkpt><trkpt lat="43.8504243" lon="12.3398483"><ele>934.6</ele><time>2026-05-02T15:09:28.323Z</time></trkpt><trkpt lat="43.8503994" lon="12.3399642"><ele>934.0</ele><time>2026-05-02T15:09:29.324Z</time></trkpt><trkpt lat="43.8503246" lon="12.3400594"><ele>937.6666666666666</ele><time>2026-05-02T15:09:30.32Z</time></trkpt><trkpt lat="43.8502092" lon="12.3401399"><ele>941.3333333333333</ele><time>2026-05-02T15:09:31.323Z</time></trkpt><trkpt lat="43.8500603" lon="12.3402183"><ele>945.0</ele><time>2026-05-02T15:09:32.323Z</time></trkpt><trkpt lat="43.8499003" lon="12.3402811"><ele>946.0</ele><time>2026-05-02T15:09:33.323Z</time></trkpt><trkpt lat="43.8497136" lon="12.3403329"><ele>947.0</ele><time>2026-05-02T15:09:34.318Z</time></trkpt><trkpt lat="43.849517" lon="12.3403689"><ele>948.0</ele><time>2026-05-02T15:09:35.324Z</time></trkpt><trkpt lat="43.8493385" lon="12.3403817"><ele>948.5</ele><time>2026-05-02T15:09:36.325Z</time></trkpt><trkpt lat="43.8491836" lon="12.340388"><ele>949.0</ele><time>2026-05-02T15:09:37.324Z</time></trkpt><trkpt lat="43.8490464" lon="12.3403752"><ele>949.5</ele><time>2026-05-02T15:09:38.323Z</time></trkpt><trkpt lat="43.8489316" lon="12.3403201"><ele>950.0</ele><time>2026-05-02T15:09:39.323Z</time></trkpt><trkpt lat="43.8488389" lon="12.3402328"><ele>950.0</ele><time>2026-05-02T15:09:40.324Z</time></trkpt><trkpt lat="43.8487566" lon="12.3400659"><ele>950.0</ele><time>2026-05-02T15:09:41.323Z</time></trkpt><trkpt lat="43.8486728" lon="12.3398243"><ele>950.0</ele><time>2026-05-02T15:09:42.322Z</time></trkpt><trkpt lat="43.8485959" lon="12.3396238"><ele>949.75</ele><time>2026-05-02T15:09:43.324Z</time></trkpt><trkpt lat="43.8485252" lon="12.339438"><ele>949.5</ele><time>2026-05-02T15:09:44.324Z</time></trkpt><trkpt lat="43.8484605" lon="12.339295"><ele>949.25</ele><time>2026-05-02T15:09:45.322Z</time></trkpt><trkpt lat="43.8483944" lon="12.3391751"><ele>949.0</ele><time>2026-05-02T15:09:46.325Z</time></trkpt><trkpt lat="43.8483254" lon="12.3392384"><ele>949.0</ele><time>2026-05-02T15:09:48.321Z</time></trkpt><trkpt lat="43.8482588" lon="12.3394022"><ele>949.0</ele><time>2026-05-02T15:09:50.324Z</time></trkpt><trkpt lat="43.8482391" lon="12.3395238"><ele>949.0</ele><time>2026-05-02T15:09:51.325Z</time></trkpt><trkpt lat="43.8482055" lon="12.3397179"><ele>949.0</ele><time>2026-05-02T15:09:52.325Z</time></trkpt><trkpt lat="43.8481763" lon="12.3398775"><ele>951.25</ele><time>2026-05-02T15:09:53.323Z</time></trkpt><trkpt lat="43.848132" lon="12.3400477"><ele>953.5</ele><time>2026-05-02T15:09:54.323Z</time></trkpt><trkpt lat="43.8480601" lon="12.3402419"><ele>955.75</ele><time>2026-05-02T15:09:55.324Z</time></trkpt><trkpt lat="43.8479859" lon="12.3403984"><ele>958.0</ele><time>2026-05-02T15:09:56.325Z</time></trkpt><trkpt lat="43.8479043" lon="12.3405564"><ele>960.25</ele><time>2026-05-02T15:09:57.323Z</time></trkpt><trkpt lat="43.8478087" lon="12.3406943"><ele>962.5</ele><time>2026-05-02T15:09:58.324Z</time></trkpt><trkpt lat="43.847692" lon="12.3407924"><ele>964.75</ele><time>2026-05-02T15:09:59.325Z</time></trkpt><trkpt lat="43.8475587" lon="12.3408372"><ele>967.0</ele><time>2026-05-02T15:10:00.322Z</time></trkpt><trkpt lat="43.8474068" lon="12.340865"><ele>967.25</ele><time>2026-05-02T15:10:01.325Z</time></trkpt><trkpt lat="43.8472614" lon="12.3408546"><ele>967.5</ele><time>2026-05-02T15:10:02.323Z</time></trkpt><trkpt lat="43.8471283" lon="12.3408083"><ele>967.75</ele><time>2026-05-02T15:10:03.325Z</time></trkpt><trkpt lat="43.8469995" lon="12.3407142"><ele>968.0</ele><time>2026-05-02T15:10:04.325Z</time></trkpt><trkpt lat="43.8468729" lon="12.340579"><ele>967.5</ele><time>2026-05-02T15:10:05.323Z</time></trkpt><trkpt lat="43.8467578" lon="12.3404475"><ele>967.0</ele><time>2026-05-02T15:10:06.321Z</time></trkpt><trkpt lat="43.8466529" lon="12.3403249"><ele>966.5</ele><time>2026-05-02T15:10:07.323Z</time></trkpt><trkpt lat="43.8465531" lon="12.3402167"><ele>966.0</ele><time>2026-05-02T15:10:08.324Z</time></trkpt><trkpt lat="43.8464637" lon="12.3401395"><ele>966.0</ele><time>2026-05-02T15:10:09.323Z</time></trkpt><trkpt lat="43.8463691" lon="12.3400677"><ele>965.9999999999999</ele><time>2026-05-02T15:10:10.321Z</time></trkpt><trkpt lat="43.846324" lon="12.3401436"><ele>965.9999999999999</ele><time>2026-05-02T15:10:11.323Z</time></trkpt><trkpt lat="43.8462535" lon="12.3401617"><ele>966.0</ele><time>2026-05-02T15:10:12.324Z</time></trkpt><trkpt lat="43.8461916" lon="12.3402365"><ele>966.0</ele><time>2026-05-02T15:10:13.321Z</time></trkpt><trkpt lat="43.8462521" lon="12.3403765"><ele>966.0</ele><time>2026-05-02T15:10:14.321Z</time></trkpt><trkpt lat="43.8463156" lon="12.340535"><ele>966.0</ele><time>2026-05-02T15:10:15.318Z</time></trkpt><trkpt lat="43.8464118" lon="12.3407065"><ele>966.0</ele><time>2026-05-02T15:10:16.324Z</time></trkpt><trkpt lat="43.8464867" lon="12.3408709"><ele>966.0</ele><time>2026-05-02T15:10:17.321Z</time></trkpt><trkpt lat="43.8465517" lon="12.341027"><ele>967.3333333333334</ele><time>2026-05-02T15:10:18.322Z</time></trkpt><trkpt lat="43.846615" lon="12.3411715"><ele>968.6666666666667</ele><time>2026-05-02T15:10:19.324Z</time></trkpt><trkpt lat="43.8466541" lon="12.3412887"><ele>970.0</ele><time>2026-05-02T15:10:20.319Z</time></trkpt><trkpt lat="43.8466553" lon="12.3413967"><ele>971.3333333333334</ele><time>2026-05-02T15:10:21.324Z</time></trkpt><trkpt lat="43.8466111" lon="12.3414787"><ele>972.6666666666667</ele><time>2026-05-02T15:10:22.324Z</time></trkpt><trkpt lat="43.8465333" lon="12.3415151"><ele>974.0</ele><time>2026-05-02T15:10:23.325Z</time></trkpt><trkpt lat="43.8464291" lon="12.3414947"><ele>974.0</ele><time>2026-05-02T15:10:24.324Z</time></trkpt><trkpt lat="43.8463091" lon="12.3414339"><ele>974.0</ele><time>2026-05-02T15:10:25.325Z</time></trkpt><trkpt lat="43.8461703" lon="12.3413592"><ele>974.0</ele><time>2026-05-02T15:10:26.326Z</time></trkpt><trkpt lat="43.8460225" lon="12.3412776"><ele>974.0</ele><time>2026-05-02T15:10:27.324Z</time></trkpt><trkpt lat="43.8458489" lon="12.3411902"><ele>977.6666666666667</ele><time>2026-05-02T15:10:28.325Z</time></trkpt><trkpt lat="43.8456935" lon="12.3411382"><ele>981.3333333333333</ele><time>2026-05-02T15:10:29.322Z</time></trkpt><trkpt lat="43.8455148" lon="12.3411196"><ele>985.0</ele><time>2026-05-02T15:10:30.325Z</time></trkpt><trkpt lat="43.8453218" lon="12.3411201"><ele>985.0</ele><time>2026-05-02T15:10:31.324Z</time></trkpt><trkpt lat="43.8451329" lon="12.3411228"><ele>985.0</ele><time>2026-05-02T15:10:32.328Z</time></trkpt><trkpt lat="43.844955" lon="12.3411249"><ele>985.0</ele><time>2026-05-02T15:10:33.324Z</time></trkpt><trkpt lat="43.8447845" lon="12.3411364"><ele>985.0</ele><time>2026-05-02T15:10:34.321Z</time></trkpt><trkpt lat="43.8446492" lon="12.3411284"><ele>985.0</ele><time>2026-05-02T15:10:35.322Z</time></trkpt><trkpt lat="43.8445299" lon="12.3411621"><ele>985.0</ele><time>2026-05-02T15:10:36.322Z</time></trkpt><trkpt lat="43.8444212" lon="12.3412097"><ele>985.0</ele><time>2026-05-02T15:10:37.323Z</time></trkpt><trkpt lat="43.8443431" lon="12.3413506"><ele>988.25</ele><time>2026-05-02T15:10:38.325Z</time></trkpt><trkpt lat="43.844263" lon="12.3414736"><ele>991.5</ele><time>2026-05-02T15:10:39.323Z</time></trkpt><trkpt lat="43.8442263" lon="12.3416508"><ele>994.75</ele><time>2026-05-02T15:10:40.323Z</time></trkpt><trkpt lat="43.8442001" lon="12.3417985"><ele>998.0</ele><time>2026-05-02T15:10:41.319Z</time></trkpt><trkpt lat="43.8442086" lon="12.3419419"><ele>998.0</ele><time>2026-05-02T15:10:42.325Z</time></trkpt><trkpt lat="43.8442539" lon="12.3420784"><ele>998.0</ele><time>2026-05-02T15:10:43.318Z</time></trkpt><trkpt lat="43.8443108" lon="12.3421994"><ele>998.0</ele><time>2026-05-02T15:10:44.323Z</time></trkpt><trkpt lat="43.8444155" lon="12.3422967"><ele>998.0</ele><time>2026-05-02T15:10:45.323Z</time></trkpt><trkpt lat="43.844491" lon="12.3423786"><ele>998.0</ele><time>2026-05-02T15:10:46.325Z</time></trkpt><trkpt lat="43.844548" lon="12.3424433"><ele>998.1666666666667</ele><time>2026-05-02T15:10:47.323Z</time></trkpt><trkpt lat="43.8446086" lon="12.3425086"><ele>998.3333333333334</ele><time>2026-05-02T15:10:49.44Z</time></trkpt><trkpt lat="43.8446737" lon="12.3425726"><ele>998.5</ele><time>2026-05-02T15:11:26.324Z</time></trkpt><trkpt lat="43.8447624" lon="12.3426272"><ele>998.6666666666667</ele><time>2026-05-02T15:11:28.332Z</time></trkpt><trkpt lat="43.8448191" lon="12.3426929"><ele>998.8333333333334</ele><time>2026-05-02T15:11:29.324Z</time></trkpt><trkpt lat="43.8448704" lon="12.3427733"><ele>999.0</ele><time>2026-05-02T15:11:30.324Z</time></trkpt><trkpt lat="43.844895" lon="12.3428788"><ele>999.0</ele><time>2026-05-02T15:11:31.324Z</time></trkpt><trkpt lat="43.8448999" lon="12.3430048"><ele>999.0000000000001</ele><time>2026-05-02T15:11:32.324Z</time></trkpt><trkpt lat="43.8448912" lon="12.3431362"><ele>999.0000000000001</ele><time>2026-05-02T15:11:33.324Z</time></trkpt><trkpt lat="43.8448594" lon="12.3432898"><ele>999.0</ele><time>2026-05-02T15:11:34.325Z</time></trkpt><trkpt lat="43.8448272" lon="12.3434414"><ele>999.0</ele><time>2026-05-02T15:11:35.323Z</time></trkpt><trkpt lat="43.8448041" lon="12.3436064"><ele>999.0</ele><time>2026-05-02T15:11:36.324Z</time></trkpt><trkpt lat="43.8447528" lon="12.3438084"><ele>999.0</ele><time>2026-05-02T15:11:37.326Z</time></trkpt><trkpt lat="43.8447073" lon="12.3439882"><ele>999.0</ele><time>2026-05-02T15:11:38.324Z</time></trkpt><trkpt lat="43.8446713" lon="12.3441583"><ele>999.0</ele><time>2026-05-02T15:11:39.325Z</time></trkpt><trkpt lat="43.8446411" lon="12.3443074"><ele>999.0</ele><time>2026-05-02T15:11:40.324Z</time></trkpt><trkpt lat="43.8445905" lon="12.3444382"><ele>999.0000000000001</ele><time>2026-05-02T15:11:41.324Z</time></trkpt><trkpt lat="43.8445174" lon="12.3445351"><ele>999.0000000000001</ele><time>2026-05-02T15:11:42.326Z</time></trkpt><trkpt lat="43.8444422" lon="12.3446261"><ele>999.0</ele><time>2026-05-02T15:11:43.321Z</time></trkpt><trkpt lat="43.8443457" lon="12.3446864"><ele>999.0</ele><time>2026-05-02T15:11:44.326Z</time></trkpt><trkpt lat="43.8442366" lon="12.3446905"><ele>996.8000000000001</ele><time>2026-05-02T15:11:45.314Z</time></trkpt><trkpt lat="43.8441319" lon="12.344724"><ele>994.6000000000001</ele><time>2026-05-02T15:11:46.326Z</time></trkpt><trkpt lat="43.8440308" lon="12.3447692"><ele>992.4</ele><time>2026-05-02T15:11:47.324Z</time></trkpt><trkpt lat="43.8439385" lon="12.3448368"><ele>990.2</ele><time>2026-05-02T15:11:48.321Z</time></trkpt><trkpt lat="43.8438532" lon="12.344931"><ele>988.0</ele><time>2026-05-02T15:11:49.324Z</time></trkpt><trkpt lat="43.8437766" lon="12.3450373"><ele>988.0</ele><time>2026-05-02T15:11:50.325Z</time></trkpt><trkpt lat="43.8437077" lon="12.3451487"><ele>988.0</ele><time>2026-05-02T15:11:51.324Z</time></trkpt><trkpt lat="43.843642" lon="12.3452605"><ele>988.0</ele><time>2026-05-02T15:11:52.325Z</time></trkpt><trkpt lat="43.8435843" lon="12.3453872"><ele>988.0</ele><time>2026-05-02T15:11:53.325Z</time></trkpt><trkpt lat="43.843537" lon="12.3455358"><ele>988.0</ele><time>2026-05-02T15:11:54.324Z</time></trkpt><trkpt lat="43.8435071" lon="12.3457101"><ele>987.75</ele><time>2026-05-02T15:11:55.325Z</time></trkpt><trkpt lat="43.8434892" lon="12.3458903"><ele>987.5</ele><time>2026-05-02T15:11:56.323Z</time></trkpt><trkpt lat="43.8434501" lon="12.3460554"><ele>987.25</ele><time>2026-05-02T15:11:57.324Z</time></trkpt><trkpt lat="43.8433932" lon="12.3462243"><ele>987.0</ele><time>2026-05-02T15:11:58.325Z</time></trkpt><trkpt lat="43.8433465" lon="12.3463985"><ele>981.6666666666667</ele><time>2026-05-02T15:11:59.322Z</time></trkpt><trkpt lat="43.8432575" lon="12.3465709"><ele>976.3333333333334</ele><time>2026-05-02T15:12:00.325Z</time></trkpt><trkpt lat="43.8431535" lon="12.3467514"><ele>971.0</ele><time>2026-05-02T15:12:01.325Z</time></trkpt><trkpt lat="43.8430629" lon="12.3469397"><ele>971.0</ele><time>2026-05-02T15:12:02.325Z</time></trkpt><trkpt lat="43.8429626" lon="12.3471127"><ele>971.0</ele><time>2026-05-02T15:12:03.324Z</time></trkpt><trkpt lat="43.8428673" lon="12.3472815"><ele>971.0</ele><time>2026-05-02T15:12:04.325Z</time></trkpt><trkpt lat="43.842773" lon="12.3474512"><ele>970.0</ele><time>2026-05-02T15:12:05.325Z</time></trkpt><trkpt lat="43.8426782" lon="12.3476177"><ele>969.0</ele><time>2026-05-02T15:12:06.323Z</time></trkpt><trkpt lat="43.8425753" lon="12.3477674"><ele>968.0</ele><time>2026-05-02T15:12:07.324Z</time></trkpt><trkpt lat="43.8424674" lon="12.3478961"><ele>967.0</ele><time>2026-05-02T15:12:08.325Z</time></trkpt><trkpt lat="43.8423543" lon="12.3480267"><ele>965.0</ele><time>2026-05-02T15:12:09.325Z</time></trkpt><trkpt lat="43.8422499" lon="12.3481524"><ele>963.0</ele><time>2026-05-02T15:12:10.325Z</time></trkpt><trkpt lat="43.8421675" lon="12.3483372"><ele>961.0</ele><time>2026-05-02T15:12:11.324Z</time></trkpt><trkpt lat="43.8420858" lon="12.3485098"><ele>959.0</ele><time>2026-05-02T15:12:12.324Z</time></trkpt><trkpt lat="43.8420125" lon="12.3486767"><ele>959.0</ele><time>2026-05-02T15:12:13.321Z</time></trkpt><trkpt lat="43.8419371" lon="12.3488441"><ele>959.0</ele><time>2026-05-02T15:12:14.322Z</time></trkpt><trkpt lat="43.8418619" lon="12.348983"><ele>959.0</ele><time>2026-05-02T15:12:15.318Z</time></trkpt><trkpt lat="43.8418112" lon="12.3491191"><ele>959.0</ele><time>2026-05-02T15:12:16.324Z</time></trkpt><trkpt lat="43.841795" lon="12.3492533"><ele>956.5</ele><time>2026-05-02T15:12:17.324Z</time></trkpt><trkpt lat="43.8418195" lon="12.3493986"><ele>954.0</ele><time>2026-05-02T15:12:18.323Z</time></trkpt><trkpt lat="43.8418633" lon="12.3495639"><ele>951.5</ele><time>2026-05-02T15:12:19.323Z</time></trkpt><trkpt lat="43.8419141" lon="12.3497434"><ele>949.0</ele><time>2026-05-02T15:12:20.324Z</time></trkpt><trkpt lat="43.8419686" lon="12.3499236"><ele>947.0</ele><time>2026-05-02T15:12:21.33Z</time></trkpt><trkpt lat="43.8420298" lon="12.3501085"><ele>945.0</ele><time>2026-05-02T15:12:22.323Z</time></trkpt><trkpt lat="43.8420904" lon="12.3502989"><ele>943.0</ele><time>2026-05-02T15:12:23.324Z</time></trkpt><trkpt lat="43.8421594" lon="12.3504944"><ele>942.0</ele><time>2026-05-02T15:12:24.324Z</time></trkpt><trkpt lat="43.842227" lon="12.3506953"><ele>941.0</ele><time>2026-05-02T15:12:25.322Z</time></trkpt><trkpt lat="43.8422947" lon="12.3509028"><ele>940.0</ele><time>2026-05-02T15:12:26.323Z</time></trkpt><trkpt lat="43.8423644" lon="12.3511097"><ele>938.5</ele><time>2026-05-02T15:12:27.431Z</time></trkpt><trkpt lat="43.8424937" lon="12.3515103"><ele>937.0</ele><time>2026-05-02T15:12:29.322Z</time></trkpt><trkpt lat="43.8425592" lon="12.3517065"><ele>937.0</ele><time>2026-05-02T15:12:30.323Z</time></trkpt><trkpt lat="43.8426106" lon="12.3518771"><ele>937.0</ele><time>2026-05-02T15:12:31.323Z</time></trkpt><trkpt lat="43.8426633" lon="12.3520358"><ele>937.0</ele><time>2026-05-02T15:12:32.326Z</time></trkpt><trkpt lat="43.8427082" lon="12.3521663"><ele>937.0</ele><time>2026-05-02T15:12:33.323Z</time></trkpt><trkpt lat="43.8427461" lon="12.3522628"><ele>937.0</ele><time>2026-05-02T15:12:34.324Z</time></trkpt><trkpt lat="43.8427706" lon="12.3523449"><ele>937.2</ele><time>2026-05-02T15:12:35.322Z</time></trkpt><trkpt lat="43.8427938" lon="12.3525076"><ele>937.4000000000001</ele><time>2026-05-02T15:12:37.324Z</time></trkpt><trkpt lat="43.8427833" lon="12.3526251"><ele>937.5999999999999</ele><time>2026-05-02T15:12:38.327Z</time></trkpt><trkpt lat="43.8427659" lon="12.3527688"><ele>937.8</ele><time>2026-05-02T15:12:39.323Z</time></trkpt><trkpt lat="43.8427487" lon="12.3529281"><ele>938.0</ele><time>2026-05-02T15:12:40.323Z</time></trkpt><trkpt lat="43.8427345" lon="12.3530838"><ele>938.0</ele><time>2026-05-02T15:12:41.327Z</time></trkpt><trkpt lat="43.8427268" lon="12.3532873"><ele>938.0</ele><time>2026-05-02T15:12:42.325Z</time></trkpt><trkpt lat="43.8427088" lon="12.353482"><ele>938.0</ele><time>2026-05-02T15:12:43.323Z</time></trkpt><trkpt lat="43.842591" lon="12.3536452"><ele>936.0</ele><time>2026-05-02T15:12:44.323Z</time></trkpt><trkpt lat="43.8425082" lon="12.3538071"><ele>934.0</ele><time>2026-05-02T15:12:45.323Z</time></trkpt><trkpt lat="43.842428" lon="12.3539774"><ele>932.0</ele><time>2026-05-02T15:12:46.325Z</time></trkpt><trkpt lat="43.8423291" lon="12.3541423"><ele>930.0</ele><time>2026-05-02T15:12:47.323Z</time></trkpt><trkpt lat="43.8422353" lon="12.3543226"><ele>930.0</ele><time>2026-05-02T15:12:48.322Z</time></trkpt><trkpt lat="43.842148" lon="12.3545031"><ele>930.0</ele><time>2026-05-02T15:12:49.325Z</time></trkpt><trkpt lat="43.8420603" lon="12.3546741"><ele>930.0</ele><time>2026-05-02T15:12:50.321Z</time></trkpt><trkpt lat="43.8420096" lon="12.354852"><ele>930.0</ele><time>2026-05-02T15:12:51.325Z</time></trkpt><trkpt lat="43.8419825" lon="12.3550327"><ele>930.0</ele><time>2026-05-02T15:12:52.325Z</time></trkpt><trkpt lat="43.8419445" lon="12.3552137"><ele>930.0</ele><time>2026-05-02T15:12:53.322Z</time></trkpt><trkpt lat="43.8419288" lon="12.3553552"><ele>930.0</ele><time>2026-05-02T15:12:54.323Z</time></trkpt><trkpt lat="43.8419103" lon="12.35548"><ele>930.0</ele><time>2026-05-02T15:12:55.324Z</time></trkpt><trkpt lat="43.8418798" lon="12.3555708"><ele>930.0</ele><time>2026-05-02T15:12:56.323Z</time></trkpt><trkpt lat="43.8417708" lon="12.3555982"><ele>927.8</ele><time>2026-05-02T15:12:58.324Z</time></trkpt><trkpt lat="43.8417157" lon="12.3555215"><ele>925.6</ele><time>2026-05-02T15:12:59.325Z</time></trkpt><trkpt lat="43.8416541" lon="12.3554246"><ele>923.4000000000001</ele><time>2026-05-02T15:13:00.322Z</time></trkpt><trkpt lat="43.8415788" lon="12.3553008"><ele>921.2</ele><time>2026-05-02T15:13:01.324Z</time></trkpt><trkpt lat="43.8414971" lon="12.355176"><ele>919.0</ele><time>2026-05-02T15:13:02.323Z</time></trkpt><trkpt lat="43.8414011" lon="12.3550397"><ele>919.0</ele><time>2026-05-02T15:13:03.325Z</time></trkpt><trkpt lat="43.8413103" lon="12.3549021"><ele>919.0</ele><time>2026-05-02T15:13:04.324Z</time></trkpt><trkpt lat="43.8412105" lon="12.3547444"><ele>919.0</ele><time>2026-05-02T15:13:05.326Z</time></trkpt><trkpt lat="43.8411103" lon="12.354625"><ele>919.0</ele><time>2026-05-02T15:13:06.322Z</time></trkpt><trkpt lat="43.8410057" lon="12.3545142"><ele>916.6666666666666</ele><time>2026-05-02T15:13:07.324Z</time></trkpt><trkpt lat="43.840894" lon="12.3544288"><ele>914.3333333333333</ele><time>2026-05-02T15:13:08.329Z</time></trkpt><trkpt lat="43.840763" lon="12.3544068"><ele>912.0</ele><time>2026-05-02T15:13:09.324Z</time></trkpt><trkpt lat="43.8406032" lon="12.3545527"><ele>912.0</ele><time>2026-05-02T15:13:10.324Z</time></trkpt><trkpt lat="43.8404407" lon="12.3546491"><ele>912.0</ele><time>2026-05-02T15:13:11.324Z</time></trkpt><trkpt lat="43.8402721" lon="12.3547358"><ele>912.0</ele><time>2026-05-02T15:13:12.324Z</time></trkpt><trkpt lat="43.8401053" lon="12.3548199"><ele>908.3333333333333</ele><time>2026-05-02T15:13:13.327Z</time></trkpt><trkpt lat="43.8399576" lon="12.3549215"><ele>904.6666666666666</ele><time>2026-05-02T15:13:14.325Z</time></trkpt><trkpt lat="43.8398134" lon="12.3550002"><ele>901.0</ele><time>2026-05-02T15:13:15.325Z</time></trkpt><trkpt lat="43.8396846" lon="12.3550995"><ele>901.0</ele><time>2026-05-02T15:13:16.323Z</time></trkpt><trkpt lat="43.8395821" lon="12.3552291"><ele>901.0</ele><time>2026-05-02T15:13:17.326Z</time></trkpt><trkpt lat="43.83952" lon="12.3553753"><ele>901.0</ele><time>2026-05-02T15:13:18.324Z</time></trkpt><trkpt lat="43.8395016" lon="12.3555471"><ele>901.0</ele><time>2026-05-02T15:13:19.324Z</time></trkpt><trkpt lat="43.8394989" lon="12.3557063"><ele>900.0</ele><time>2026-05-02T15:13:20.318Z</time></trkpt><trkpt lat="43.8395757" lon="12.3558619"><ele>899.0</ele><time>2026-05-02T15:13:21.324Z</time></trkpt><trkpt lat="43.8396409" lon="12.3560025"><ele>898.0</ele><time>2026-05-02T15:13:22.32Z</time></trkpt><trkpt lat="43.8397152" lon="12.356138"><ele>897.0</ele><time>2026-05-02T15:13:23.324Z</time></trkpt><trkpt lat="43.8397954" lon="12.356248"><ele>895.8</ele><time>2026-05-02T15:13:24.326Z</time></trkpt><trkpt lat="43.8398578" lon="12.356371"><ele>894.6</ele><time>2026-05-02T15:13:25.325Z</time></trkpt><trkpt lat="43.8398956" lon="12.3565101"><ele>893.3999999999999</ele><time>2026-05-02T15:13:26.325Z</time></trkpt><trkpt lat="43.8398944" lon="12.3566447"><ele>892.1999999999999</ele><time>2026-05-02T15:13:27.326Z</time></trkpt><trkpt lat="43.8398669" lon="12.3567578"><ele>891.0</ele><time>2026-05-02T15:13:28.325Z</time></trkpt><trkpt lat="43.8397991" lon="12.3568741"><ele>891.0</ele><time>2026-05-02T15:13:30.327Z</time></trkpt><trkpt lat="43.8396844" lon="12.3568605"><ele>890.9999999999999</ele><time>2026-05-02T15:13:32.324Z</time></trkpt><trkpt lat="43.8396082" lon="12.3568246"><ele>890.9999999999999</ele><time>2026-05-02T15:13:33.324Z</time></trkpt><trkpt lat="43.8395164" lon="12.3568148"><ele>891.0</ele><time>2026-05-02T15:13:34.324Z</time></trkpt><trkpt lat="43.8394187" lon="12.3568253"><ele>891.0</ele><time>2026-05-02T15:13:35.324Z</time></trkpt><trkpt lat="43.8393218" lon="12.3568656"><ele>889.75</ele><time>2026-05-02T15:13:36.321Z</time></trkpt><trkpt lat="43.8392229" lon="12.3569542"><ele>888.5</ele><time>2026-05-02T15:13:37.325Z</time></trkpt><trkpt lat="43.8391343" lon="12.3570726"><ele>887.25</ele><time>2026-05-02T15:13:38.318Z</time></trkpt><trkpt lat="43.8390574" lon="12.3571987"><ele>886.0</ele><time>2026-05-02T15:13:39.323Z</time></trkpt><trkpt lat="43.8389837" lon="12.357329"><ele>884.5</ele><time>2026-05-02T15:13:40.326Z</time></trkpt><trkpt lat="43.8389144" lon="12.3574554"><ele>883.0</ele><time>2026-05-02T15:13:41.323Z</time></trkpt><trkpt lat="43.8388491" lon="12.3575728"><ele>881.5</ele><time>2026-05-02T15:13:42.323Z</time></trkpt><trkpt lat="43.8387724" lon="12.3577051"><ele>880.0</ele><time>2026-05-02T15:13:43.323Z</time></trkpt><trkpt lat="43.8386888" lon="12.357853"><ele>880.0</ele><time>2026-05-02T15:13:44.325Z</time></trkpt><trkpt lat="43.8385994" lon="12.3580252"><ele>880.0</ele><time>2026-05-02T15:13:45.323Z</time></trkpt><trkpt lat="43.8384949" lon="12.358181"><ele>880.0</ele><time>2026-05-02T15:13:46.323Z</time></trkpt><trkpt lat="43.8383649" lon="12.3582864"><ele>876.0</ele><time>2026-05-02T15:13:47.323Z</time></trkpt><trkpt lat="43.8382355" lon="12.358375"><ele>872.0</ele><time>2026-05-02T15:13:48.323Z</time></trkpt><trkpt lat="43.8380519" lon="12.3583277"><ele>868.0</ele><time>2026-05-02T15:13:49.323Z</time></trkpt><trkpt lat="43.8378823" lon="12.358282"><ele>868.0</ele><time>2026-05-02T15:13:50.322Z</time></trkpt><trkpt lat="43.8377099" lon="12.3582141"><ele>868.0</ele><time>2026-05-02T15:13:51.323Z</time></trkpt><trkpt lat="43.8375429" lon="12.3581642"><ele>868.0</ele><time>2026-05-02T15:13:52.318Z</time></trkpt><trkpt lat="43.8373743" lon="12.3581101"><ele>868.6666666666666</ele><time>2026-05-02T15:13:53.324Z</time></trkpt><trkpt lat="43.8372084" lon="12.3580652"><ele>869.3333333333333</ele><time>2026-05-02T15:13:54.316Z</time></trkpt><trkpt lat="43.8370397" lon="12.3580255"><ele>870.0</ele><time>2026-05-02T15:13:55.324Z</time></trkpt><trkpt lat="43.8368681" lon="12.3579844"><ele>867.3333333333333</ele><time>2026-05-02T15:13:56.328Z</time></trkpt><trkpt lat="43.8366996" lon="12.3579431"><ele>864.6666666666666</ele><time>2026-05-02T15:13:57.323Z</time></trkpt><trkpt lat="43.836529" lon="12.3579052"><ele>862.0</ele><time>2026-05-02T15:13:58.323Z</time></trkpt><trkpt lat="43.8363717" lon="12.3578647"><ele>862.0</ele><time>2026-05-02T15:13:59.324Z</time></trkpt><trkpt lat="43.836213" lon="12.3578167"><ele>862.0</ele><time>2026-05-02T15:14:00.324Z</time></trkpt><trkpt lat="43.8360503" lon="12.357782"><ele>862.0</ele><time>2026-05-02T15:14:01.325Z</time></trkpt><trkpt lat="43.835879" lon="12.3577647"><ele>859.3333333333333</ele><time>2026-05-02T15:14:02.323Z</time></trkpt><trkpt lat="43.8357042" lon="12.3577572"><ele>856.6666666666667</ele><time>2026-05-02T15:14:03.323Z</time></trkpt><trkpt lat="43.8355273" lon="12.3577767"><ele>854.0</ele><time>2026-05-02T15:14:04.322Z</time></trkpt><trkpt lat="43.8353557" lon="12.3578041"><ele>854.0</ele><time>2026-05-02T15:14:05.323Z</time></trkpt><trkpt lat="43.8351811" lon="12.3578411"><ele>854.0</ele><time>2026-05-02T15:14:06.322Z</time></trkpt><trkpt lat="43.8350039" lon="12.3578613"><ele>854.0</ele><time>2026-05-02T15:14:07.323Z</time></trkpt><trkpt lat="43.8348263" lon="12.357888"><ele>852.6666666666667</ele><time>2026-05-02T15:14:08.324Z</time></trkpt><trkpt lat="43.8346576" lon="12.3579151"><ele>851.3333333333333</ele><time>2026-05-02T15:14:09.323Z</time></trkpt><trkpt lat="43.8344964" lon="12.3579553"><ele>850.0</ele><time>2026-05-02T15:14:10.323Z</time></trkpt><trkpt lat="43.8343311" lon="12.3579605"><ele>849.75</ele><time>2026-05-02T15:14:11.322Z</time></trkpt><trkpt lat="43.8341798" lon="12.3579807"><ele>849.5</ele><time>2026-05-02T15:14:12.323Z</time></trkpt><trkpt lat="43.8340396" lon="12.3579995"><ele>849.25</ele><time>2026-05-02T15:14:13.324Z</time></trkpt><trkpt lat="43.8339021" lon="12.3580208"><ele>849.0</ele><time>2026-05-02T15:14:14.323Z</time></trkpt><trkpt lat="43.8337807" lon="12.3580538"><ele>845.75</ele><time>2026-05-02T15:14:15.323Z</time></trkpt><trkpt lat="43.833659" lon="12.3580981"><ele>842.5</ele><time>2026-05-02T15:14:16.323Z</time></trkpt><trkpt lat="43.8335318" lon="12.3581618"><ele>839.25</ele><time>2026-05-02T15:14:17.323Z</time></trkpt><trkpt lat="43.8334381" lon="12.3583038"><ele>836.0</ele><time>2026-05-02T15:14:18.323Z</time></trkpt><trkpt lat="43.8333604" lon="12.358431"><ele>836.0</ele><time>2026-05-02T15:14:19.323Z</time></trkpt><trkpt lat="43.833242" lon="12.3585522"><ele>836.0</ele><time>2026-05-02T15:14:20.323Z</time></trkpt><trkpt lat="43.8331273" lon="12.3586468"><ele>836.0</ele><time>2026-05-02T15:14:21.323Z</time></trkpt><trkpt lat="43.8330174" lon="12.3587363"><ele>836.0</ele><time>2026-05-02T15:14:22.324Z</time></trkpt><trkpt lat="43.8329035" lon="12.3588282"><ele>833.75</ele><time>2026-05-02T15:14:23.322Z</time></trkpt><trkpt lat="43.8327942" lon="12.3589269"><ele>831.5</ele><time>2026-05-02T15:14:24.324Z</time></trkpt><trkpt lat="43.8326815" lon="12.3590335"><ele>829.25</ele><time>2026-05-02T15:14:25.322Z</time></trkpt><trkpt lat="43.8325706" lon="12.3591458"><ele>827.0</ele><time>2026-05-02T15:14:26.316Z</time></trkpt><trkpt lat="43.8324636" lon="12.3592607"><ele>827.0</ele><time>2026-05-02T15:14:27.323Z</time></trkpt><trkpt lat="43.8323568" lon="12.3593729"><ele>827.0</ele><time>2026-05-02T15:14:28.323Z</time></trkpt><trkpt lat="43.8322551" lon="12.3595055"><ele>827.0</ele><time>2026-05-02T15:14:29.321Z</time></trkpt><trkpt lat="43.8321548" lon="12.35963"><ele>827.0</ele><time>2026-05-02T15:14:30.322Z</time></trkpt><trkpt lat="43.8320311" lon="12.3597245"><ele>824.0</ele><time>2026-05-02T15:14:31.436Z</time></trkpt><trkpt lat="43.8317586" lon="12.3599098"><ele>821.0</ele><time>2026-05-02T15:14:33.322Z</time></trkpt><trkpt lat="43.8316156" lon="12.3600454"><ele>821.0</ele><time>2026-05-02T15:14:34.323Z</time></trkpt><trkpt lat="43.831457" lon="12.3601887"><ele>821.0</ele><time>2026-05-02T15:14:35.321Z</time></trkpt><trkpt lat="43.8312772" lon="12.3603271"><ele>821.0</ele><time>2026-05-02T15:14:36.322Z</time></trkpt><trkpt lat="43.8310876" lon="12.3604665"><ele>816.3333333333334</ele><time>2026-05-02T15:14:37.323Z</time></trkpt><trkpt lat="43.8309033" lon="12.360559"><ele>811.6666666666667</ele><time>2026-05-02T15:14:38.323Z</time></trkpt><trkpt lat="43.8307378" lon="12.3606741"><ele>807.0</ele><time>2026-05-02T15:14:39.322Z</time></trkpt><trkpt lat="43.8305789" lon="12.3607874"><ele>807.0</ele><time>2026-05-02T15:14:40.322Z</time></trkpt><trkpt lat="43.8304225" lon="12.3608724"><ele>807.0</ele><time>2026-05-02T15:14:41.326Z</time></trkpt><trkpt lat="43.8302852" lon="12.3609777"><ele>807.0</ele><time>2026-05-02T15:14:42.321Z</time></trkpt><trkpt lat="43.8301553" lon="12.3610664"><ele>804.3333333333333</ele><time>2026-05-02T15:14:43.325Z</time></trkpt><trkpt lat="43.8300213" lon="12.3612011"><ele>801.6666666666666</ele><time>2026-05-02T15:14:44.322Z</time></trkpt><trkpt lat="43.8299278" lon="12.3613515"><ele>799.0</ele><time>2026-05-02T15:14:45.323Z</time></trkpt><trkpt lat="43.8298275" lon="12.3614973"><ele>799.0</ele><time>2026-05-02T15:14:46.323Z</time></trkpt><trkpt lat="43.8297982" lon="12.3616809"><ele>799.0</ele><time>2026-05-02T15:14:47.323Z</time></trkpt><trkpt lat="43.8297311" lon="12.3618319"><ele>799.0</ele><time>2026-05-02T15:14:48.326Z</time></trkpt><trkpt lat="43.8296484" lon="12.3619723"><ele>799.0</ele><time>2026-05-02T15:14:49.325Z</time></trkpt><trkpt lat="43.8295634" lon="12.3620896"><ele>799.0</ele><time>2026-05-02T15:14:50.323Z</time></trkpt><trkpt lat="43.8294294" lon="12.3621273"><ele>799.0</ele><time>2026-05-02T15:14:51.323Z</time></trkpt><trkpt lat="43.829311" lon="12.3622028"><ele>799.0</ele><time>2026-05-02T15:14:52.322Z</time></trkpt><trkpt lat="43.8291903" lon="12.3622367"><ele>799.0</ele><time>2026-05-02T15:14:53.32Z</time></trkpt><trkpt lat="43.8290646" lon="12.3623499"><ele>795.6666666666666</ele><time>2026-05-02T15:14:54.323Z</time></trkpt><trkpt lat="43.828942" lon="12.3625157"><ele>792.3333333333333</ele><time>2026-05-02T15:14:55.324Z</time></trkpt><trkpt lat="43.8288068" lon="12.3627093"><ele>789.0</ele><time>2026-05-02T15:14:56.322Z</time></trkpt><trkpt lat="43.828666" lon="12.3629052"><ele>786.3333333333333</ele><time>2026-05-02T15:14:57.323Z</time></trkpt><trkpt lat="43.8285105" lon="12.3630733"><ele>783.6666666666666</ele><time>2026-05-02T15:14:58.318Z</time></trkpt><trkpt lat="43.8283356" lon="12.3632173"><ele>781.0</ele><time>2026-05-02T15:14:59.321Z</time></trkpt><trkpt lat="43.8281666" lon="12.3633478"><ele>781.0</ele><time>2026-05-02T15:15:00.323Z</time></trkpt><trkpt lat="43.8280093" lon="12.3634965"><ele>781.0</ele><time>2026-05-02T15:15:01.323Z</time></trkpt><trkpt lat="43.8278568" lon="12.363668"><ele>781.0</ele><time>2026-05-02T15:15:02.322Z</time></trkpt><trkpt lat="43.8277089" lon="12.3638462"><ele>779.6666666666666</ele><time>2026-05-02T15:15:03.324Z</time></trkpt><trkpt lat="43.8275576" lon="12.3640261"><ele>778.3333333333333</ele><time>2026-05-02T15:15:04.321Z</time></trkpt><trkpt lat="43.8274006" lon="12.3641847"><ele>777.0</ele><time>2026-05-02T15:15:05.322Z</time></trkpt><trkpt lat="43.8272386" lon="12.3643485"><ele>777.0</ele><time>2026-05-02T15:15:06.323Z</time></trkpt><trkpt lat="43.8270635" lon="12.3644691"><ele>777.0</ele><time>2026-05-02T15:15:07.324Z</time></trkpt><trkpt lat="43.8268649" lon="12.3645207"><ele>777.0</ele><time>2026-05-02T15:15:08.324Z</time></trkpt><trkpt lat="43.8267144" lon="12.3646103"><ele>781.0</ele><time>2026-05-02T15:15:09.321Z</time></trkpt><trkpt lat="43.8265277" lon="12.3646573"><ele>785.0</ele><time>2026-05-02T15:15:10.323Z</time></trkpt><trkpt lat="43.8263815" lon="12.3646108"><ele>789.0</ele><time>2026-05-02T15:15:11.325Z</time></trkpt><trkpt lat="43.8262308" lon="12.3645026"><ele>789.0</ele><time>2026-05-02T15:15:12.322Z</time></trkpt><trkpt lat="43.8260764" lon="12.364408"><ele>789.0</ele><time>2026-05-02T15:15:13.321Z</time></trkpt><trkpt lat="43.8259096" lon="12.3642898"><ele>789.0</ele><time>2026-05-02T15:15:14.322Z</time></trkpt><trkpt lat="43.8257345" lon="12.3641394"><ele>790.3333333333333</ele><time>2026-05-02T15:15:15.323Z</time></trkpt><trkpt lat="43.8255863" lon="12.3639301"><ele>791.6666666666666</ele><time>2026-05-02T15:15:16.321Z</time></trkpt><trkpt lat="43.825461" lon="12.3637716"><ele>793.0</ele><time>2026-05-02T15:15:17.322Z</time></trkpt><trkpt lat="43.8253185" lon="12.3636175"><ele>793.0</ele><time>2026-05-02T15:15:18.323Z</time></trkpt><trkpt lat="43.8251821" lon="12.3634898"><ele>793.0</ele><time>2026-05-02T15:15:19.323Z</time></trkpt><trkpt lat="43.8250362" lon="12.3633634"><ele>793.0</ele><time>2026-05-02T15:15:20.319Z</time></trkpt><trkpt lat="43.8248835" lon="12.3632856"><ele>786.0</ele><time>2026-05-02T15:15:21.323Z</time></trkpt><trkpt lat="43.8247297" lon="12.3632207"><ele>779.0</ele><time>2026-05-02T15:15:22.324Z</time></trkpt><trkpt lat="43.8245784" lon="12.3631779"><ele>772.0</ele><time>2026-05-02T15:15:23.321Z</time></trkpt><trkpt lat="43.8244486" lon="12.3631597"><ele>765.0</ele><time>2026-05-02T15:15:24.323Z</time></trkpt><trkpt lat="43.8243314" lon="12.3631355"><ele>762.0</ele><time>2026-05-02T15:15:25.322Z</time></trkpt><trkpt lat="43.8242404" lon="12.3630554"><ele>759.0</ele><time>2026-05-02T15:15:26.325Z</time></trkpt><trkpt lat="43.8241939" lon="12.3629409"><ele>756.0</ele><time>2026-05-02T15:15:27.318Z</time></trkpt><trkpt lat="43.8241976" lon="12.3628105"><ele>753.0</ele><time>2026-05-02T15:15:28.321Z</time></trkpt><trkpt lat="43.8242024" lon="12.362668"><ele>750.0</ele><time>2026-05-02T15:15:29.327Z</time></trkpt><trkpt lat="43.8242663" lon="12.3624954"><ele>750.0</ele><time>2026-05-02T15:15:30.323Z</time></trkpt><trkpt lat="43.8243079" lon="12.3623227"><ele>750.0</ele><time>2026-05-02T15:15:31.323Z</time></trkpt><trkpt lat="43.8242702" lon="12.3620895"><ele>750.0</ele><time>2026-05-02T15:15:32.329Z</time></trkpt><trkpt lat="43.8242085" lon="12.3618904"><ele>751.5</ele><time>2026-05-02T15:15:33.323Z</time></trkpt><trkpt lat="43.8241295" lon="12.3617181"><ele>753.0</ele><time>2026-05-02T15:15:34.322Z</time></trkpt><trkpt lat="43.8240147" lon="12.3615977"><ele>754.5</ele><time>2026-05-02T15:15:35.322Z</time></trkpt><trkpt lat="43.823886" lon="12.3615076"><ele>756.0</ele><time>2026-05-02T15:15:36.326Z</time></trkpt><trkpt lat="43.8237509" lon="12.3614352"><ele>756.0</ele><time>2026-05-02T15:15:37.322Z</time></trkpt><trkpt lat="43.8235752" lon="12.3614576"><ele>756.0</ele><time>2026-05-02T15:15:38.322Z</time></trkpt><trkpt lat="43.8234045" lon="12.3615007"><ele>756.0</ele><time>2026-05-02T15:15:39.323Z</time></trkpt><trkpt lat="43.8232277" lon="12.3615517"><ele>748.3333333333334</ele><time>2026-05-02T15:15:40.323Z</time></trkpt><trkpt lat="43.8230631" lon="12.3616036"><ele>740.6666666666667</ele><time>2026-05-02T15:15:41.323Z</time></trkpt><trkpt lat="43.8229051" lon="12.3616614"><ele>733.0</ele><time>2026-05-02T15:15:42.325Z</time></trkpt><trkpt lat="43.8227542" lon="12.3617132"><ele>731.6666666666667</ele><time>2026-05-02T15:15:43.322Z</time></trkpt><trkpt lat="43.8226011" lon="12.3617502"><ele>730.3333333333334</ele><time>2026-05-02T15:15:44.322Z</time></trkpt><trkpt lat="43.8224661" lon="12.3618042"><ele>729.0</ele><time>2026-05-02T15:15:45.321Z</time></trkpt><trkpt lat="43.8223091" lon="12.3618576"><ele>729.0</ele><time>2026-05-02T15:15:46.323Z</time></trkpt><trkpt lat="43.8221613" lon="12.3619258"><ele>729.0</ele><time>2026-05-02T15:15:47.322Z</time></trkpt><trkpt lat="43.8220117" lon="12.3620192"><ele>729.0</ele><time>2026-05-02T15:15:48.321Z</time></trkpt><trkpt lat="43.8218821" lon="12.3621766"><ele>734.3333333333334</ele><time>2026-05-02T15:15:49.321Z</time></trkpt><trkpt lat="43.8217443" lon="12.3623363"><ele>739.6666666666667</ele><time>2026-05-02T15:15:50.324Z</time></trkpt><trkpt lat="43.821611" lon="12.3625206"><ele>745.0</ele><time>2026-05-02T15:15:51.315Z</time></trkpt><trkpt lat="43.8214775" lon="12.3627172"><ele>745.0</ele><time>2026-05-02T15:15:52.323Z</time></trkpt><trkpt lat="43.8213436" lon="12.3629209"><ele>745.0</ele><time>2026-05-02T15:15:53.324Z</time></trkpt><trkpt lat="43.821205" lon="12.3631276"><ele>745.0</ele><time>2026-05-02T15:15:54.323Z</time></trkpt><trkpt lat="43.8210759" lon="12.3633322"><ele>748.6666666666667</ele><time>2026-05-02T15:15:55.344Z</time></trkpt><trkpt lat="43.8209526" lon="12.3635044"><ele>752.3333333333334</ele><time>2026-05-02T15:15:56.323Z</time></trkpt><trkpt lat="43.8208218" lon="12.3636392"><ele>756.0</ele><time>2026-05-02T15:15:57.323Z</time></trkpt><trkpt lat="43.8206923" lon="12.3637219"><ele>756.0</ele><time>2026-05-02T15:15:58.324Z</time></trkpt><trkpt lat="43.8205417" lon="12.3637654"><ele>756.0</ele><time>2026-05-02T15:15:59.324Z</time></trkpt><trkpt lat="43.8203813" lon="12.3637656"><ele>756.0</ele><time>2026-05-02T15:16:00.327Z</time></trkpt><trkpt lat="43.8202269" lon="12.3637163"><ele>757.75</ele><time>2026-05-02T15:16:01.323Z</time></trkpt><trkpt lat="43.820069" lon="12.3636856"><ele>759.5</ele><time>2026-05-02T15:16:02.324Z</time></trkpt><trkpt lat="43.8199034" lon="12.3636441"><ele>761.25</ele><time>2026-05-02T15:16:03.322Z</time></trkpt><trkpt lat="43.8197973" lon="12.3635836"><ele>763.0</ele><time>2026-05-02T15:16:04.322Z</time></trkpt><trkpt lat="43.8196609" lon="12.3635374"><ele>763.0</ele><time>2026-05-02T15:16:05.325Z</time></trkpt><trkpt lat="43.8195547" lon="12.3634668"><ele>763.0</ele><time>2026-05-02T15:16:06.324Z</time></trkpt><trkpt lat="43.8194501" lon="12.3633918"><ele>763.0</ele><time>2026-05-02T15:16:07.324Z</time></trkpt><trkpt lat="43.8193491" lon="12.3633177"><ele>763.0</ele><time>2026-05-02T15:16:08.324Z</time></trkpt><trkpt lat="43.8192617" lon="12.3632554"><ele>763.0</ele><time>2026-05-02T15:16:09.322Z</time></trkpt><trkpt lat="43.8191572" lon="12.363202"><ele>762.5</ele><time>2026-05-02T15:16:10.325Z</time></trkpt><trkpt lat="43.8190534" lon="12.3631657"><ele>762.0</ele><time>2026-05-02T15:16:11.322Z</time></trkpt><trkpt lat="43.8189507" lon="12.3631396"><ele>761.5</ele><time>2026-05-02T15:16:12.324Z</time></trkpt><trkpt lat="43.8188129" lon="12.3631842"><ele>761.0</ele><time>2026-05-02T15:16:13.323Z</time></trkpt><trkpt lat="43.8186825" lon="12.3632174"><ele>761.0</ele><time>2026-05-02T15:16:14.321Z</time></trkpt><trkpt lat="43.8185247" lon="12.3632837"><ele>761.0</ele><time>2026-05-02T15:16:15.321Z</time></trkpt><trkpt lat="43.8183608" lon="12.3633317"><ele>761.0</ele><time>2026-05-02T15:16:16.324Z</time></trkpt><trkpt lat="43.8181921" lon="12.363368"><ele>762.3333333333333</ele><time>2026-05-02T15:16:17.327Z</time></trkpt><trkpt lat="43.8180143" lon="12.3633942"><ele>763.6666666666666</ele><time>2026-05-02T15:16:18.321Z</time></trkpt><trkpt lat="43.817829" lon="12.3634173"><ele>765.0</ele><time>2026-05-02T15:16:19.326Z</time></trkpt><trkpt lat="43.8176596" lon="12.3634372"><ele>767.6666666666667</ele><time>2026-05-02T15:16:20.323Z</time></trkpt><trkpt lat="43.8175062" lon="12.3634636"><ele>770.3333333333334</ele><time>2026-05-02T15:16:21.323Z</time></trkpt><trkpt lat="43.8173615" lon="12.363522"><ele>773.0</ele><time>2026-05-02T15:16:22.323Z</time></trkpt><trkpt lat="43.8172115" lon="12.3635793"><ele>773.0</ele><time>2026-05-02T15:16:23.325Z</time></trkpt><trkpt lat="43.8171257" lon="12.3637538"><ele>773.0</ele><time>2026-05-02T15:16:24.326Z</time></trkpt><trkpt lat="43.8170112" lon="12.3638648"><ele>773.0</ele><time>2026-05-02T15:16:25.323Z</time></trkpt><trkpt lat="43.816907" lon="12.3639789"><ele>773.0</ele><time>2026-05-02T15:16:26.328Z</time></trkpt><trkpt lat="43.8167829" lon="12.3640383"><ele>765.0</ele><time>2026-05-02T15:16:27.351Z</time></trkpt><trkpt lat="43.8169555" lon="12.3643452"><ele>757.0</ele><time>2026-05-02T15:16:28.325Z</time></trkpt><trkpt lat="43.8169994" lon="12.3646124"><ele>756.0</ele><time>2026-05-02T15:16:29.324Z</time></trkpt><trkpt lat="43.8170745" lon="12.3648464"><ele>755.0</ele><time>2026-05-02T15:16:30.321Z</time></trkpt><trkpt lat="43.817128" lon="12.3650253"><ele>754.0</ele><time>2026-05-02T15:16:31.324Z</time></trkpt><trkpt lat="43.8171149" lon="12.3652058"><ele>754.0</ele><time>2026-05-02T15:16:32.326Z</time></trkpt><trkpt lat="43.8170628" lon="12.3653653"><ele>754.0</ele><time>2026-05-02T15:16:33.326Z</time></trkpt><trkpt lat="43.8169618" lon="12.3655026"><ele>754.0</ele><time>2026-05-02T15:16:34.326Z</time></trkpt><trkpt lat="43.8168382" lon="12.3656235"><ele>754.0</ele><time>2026-05-02T15:16:35.322Z</time></trkpt><trkpt lat="43.8167184" lon="12.3657467"><ele>756.6666666666667</ele><time>2026-05-02T15:16:36.325Z</time></trkpt><trkpt lat="43.8165976" lon="12.365879"><ele>759.3333333333334</ele><time>2026-05-02T15:16:37.325Z</time></trkpt><trkpt lat="43.8164885" lon="12.3660372"><ele>762.0</ele><time>2026-05-02T15:16:38.326Z</time></trkpt><trkpt lat="43.816396" lon="12.3662084"><ele>760.5</ele><time>2026-05-02T15:16:39.324Z</time></trkpt><trkpt lat="43.8163184" lon="12.3663855"><ele>759.0</ele><time>2026-05-02T15:16:40.325Z</time></trkpt><trkpt lat="43.8162422" lon="12.366563"><ele>757.5</ele><time>2026-05-02T15:16:41.325Z</time></trkpt><trkpt lat="43.8161657" lon="12.3667401"><ele>756.0</ele><time>2026-05-02T15:16:42.326Z</time></trkpt><trkpt lat="43.816099" lon="12.366925"><ele>756.0</ele><time>2026-05-02T15:16:43.325Z</time></trkpt><trkpt lat="43.8160043" lon="12.3670823"><ele>756.0</ele><time>2026-05-02T15:16:44.326Z</time></trkpt><trkpt lat="43.8159214" lon="12.3672456"><ele>756.0</ele><time>2026-05-02T15:16:45.325Z</time></trkpt><trkpt lat="43.8158269" lon="12.3674128"><ele>756.0</ele><time>2026-05-02T15:16:46.321Z</time></trkpt><trkpt lat="43.8157335" lon="12.3675754"><ele>756.6666666666666</ele><time>2026-05-02T15:16:47.323Z</time></trkpt><trkpt lat="43.815639" lon="12.3677371"><ele>757.3333333333333</ele><time>2026-05-02T15:16:48.327Z</time></trkpt><trkpt lat="43.8155357" lon="12.3678955"><ele>758.0</ele><time>2026-05-02T15:16:49.325Z</time></trkpt><trkpt lat="43.815435" lon="12.3680486"><ele>756.6666666666666</ele><time>2026-05-02T15:16:50.323Z</time></trkpt><trkpt lat="43.8153288" lon="12.368202"><ele>755.3333333333334</ele><time>2026-05-02T15:16:51.328Z</time></trkpt><trkpt lat="43.81522" lon="12.3683536"><ele>754.0</ele><time>2026-05-02T15:16:52.325Z</time></trkpt><trkpt lat="43.8151099" lon="12.3685066"><ele>754.0</ele><time>2026-05-02T15:16:53.326Z</time></trkpt><trkpt lat="43.8150005" lon="12.3686894"><ele>754.0</ele><time>2026-05-02T15:16:54.324Z</time></trkpt><trkpt lat="43.8148906" lon="12.3688865"><ele>754.0</ele><time>2026-05-02T15:16:55.326Z</time></trkpt><trkpt lat="43.814785" lon="12.3690743"><ele>752.3333333333334</ele><time>2026-05-02T15:16:56.323Z</time></trkpt><trkpt lat="43.8146838" lon="12.3692933"><ele>750.6666666666666</ele><time>2026-05-02T15:16:57.325Z</time></trkpt><trkpt lat="43.8145671" lon="12.3694911"><ele>749.0</ele><time>2026-05-02T15:16:58.324Z</time></trkpt><trkpt lat="43.8144569" lon="12.3696633"><ele>748.6666666666666</ele><time>2026-05-02T15:16:59.325Z</time></trkpt><trkpt lat="43.8143295" lon="12.3698013"><ele>748.3333333333334</ele><time>2026-05-02T15:17:00.325Z</time></trkpt><trkpt lat="43.8141854" lon="12.369905"><ele>748.0</ele><time>2026-05-02T15:17:01.324Z</time></trkpt><trkpt lat="43.8140275" lon="12.3699621"><ele>748.0</ele><time>2026-05-02T15:17:02.325Z</time></trkpt><trkpt lat="43.8138789" lon="12.3699751"><ele>748.0</ele><time>2026-05-02T15:17:03.324Z</time></trkpt><trkpt lat="43.8137383" lon="12.3699945"><ele>748.0</ele><time>2026-05-02T15:17:04.324Z</time></trkpt><trkpt lat="43.8136212" lon="12.3700467"><ele>748.0</ele><time>2026-05-02T15:17:05.326Z</time></trkpt><trkpt lat="43.8135214" lon="12.3701441"><ele>746.25</ele><time>2026-05-02T15:17:06.324Z</time></trkpt><trkpt lat="43.8134419" lon="12.3702926"><ele>744.5</ele><time>2026-05-02T15:17:07.329Z</time></trkpt><trkpt lat="43.8133792" lon="12.3704773"><ele>742.75</ele><time>2026-05-02T15:17:08.325Z</time></trkpt><trkpt lat="43.8133387" lon="12.3706964"><ele>741.0</ele><time>2026-05-02T15:17:09.325Z</time></trkpt><trkpt lat="43.8133275" lon="12.3709289"><ele>740.5</ele><time>2026-05-02T15:17:10.321Z</time></trkpt><trkpt lat="43.8133189" lon="12.3711508"><ele>740.0</ele><time>2026-05-02T15:17:11.329Z</time></trkpt><trkpt lat="43.8133982" lon="12.3716587"><ele>739.5</ele><time>2026-05-02T15:17:13.326Z</time></trkpt><trkpt lat="43.8134294" lon="12.3718852"><ele>739.0</ele><time>2026-05-02T15:17:14.326Z</time></trkpt><trkpt lat="43.8134547" lon="12.3720808"><ele>738.5</ele><time>2026-05-02T15:17:15.325Z</time></trkpt><trkpt lat="43.8134638" lon="12.3722347"><ele>738.0</ele><time>2026-05-02T15:17:16.326Z</time></trkpt><trkpt lat="43.8134527" lon="12.3723505"><ele>738.0</ele><time>2026-05-02T15:17:17.325Z</time></trkpt><trkpt lat="43.8133921" lon="12.3724663"><ele>738.0</ele><time>2026-05-02T15:17:19.323Z</time></trkpt><trkpt lat="43.8133705" lon="12.3726214"><ele>738.0</ele><time>2026-05-02T15:17:21.32Z</time></trkpt><trkpt lat="43.8133506" lon="12.3727995"><ele>738.0</ele><time>2026-05-02T15:17:23.325Z</time></trkpt><trkpt lat="43.8133328" lon="12.3728916"><ele>738.0</ele><time>2026-05-02T15:17:24.326Z</time></trkpt><trkpt lat="43.8133167" lon="12.3729875"><ele>738.3333333333334</ele><time>2026-05-02T15:17:25.323Z</time></trkpt><trkpt lat="43.8133005" lon="12.3730821"><ele>738.6666666666666</ele><time>2026-05-02T15:17:26.323Z</time></trkpt><trkpt lat="43.8132723" lon="12.3731708"><ele>739.0</ele><time>2026-05-02T15:17:27.325Z</time></trkpt><trkpt lat="43.81325" lon="12.3732653"><ele>739.3333333333333</ele><time>2026-05-02T15:17:28.325Z</time></trkpt><trkpt lat="43.8132207" lon="12.3733647"><ele>739.6666666666666</ele><time>2026-05-02T15:17:29.325Z</time></trkpt><trkpt lat="43.8131854" lon="12.373469"><ele>740.0</ele><time>2026-05-02T15:17:30.325Z</time></trkpt><trkpt lat="43.8131547" lon="12.373572"><ele>740.0</ele><time>2026-05-02T15:17:31.326Z</time></trkpt><trkpt lat="43.8131218" lon="12.3736738"><ele>740.0</ele><time>2026-05-02T15:17:32.326Z</time></trkpt><trkpt lat="43.813095" lon="12.3737991"><ele>740.0</ele><time>2026-05-02T15:17:33.325Z</time></trkpt><trkpt lat="43.8130886" lon="12.3739589"><ele>740.0</ele><time>2026-05-02T15:17:34.326Z</time></trkpt><trkpt lat="43.8130768" lon="12.374123"><ele>740.0</ele><time>2026-05-02T15:17:35.324Z</time></trkpt><trkpt lat="43.8131033" lon="12.3743192"><ele>738.3333333333333</ele><time>2026-05-02T15:17:36.321Z</time></trkpt><trkpt lat="43.8132281" lon="12.3745094"><ele>736.6666666666666</ele><time>2026-05-02T15:17:37.324Z</time></trkpt><trkpt lat="43.8133535" lon="12.3747009"><ele>735.0</ele><time>2026-05-02T15:17:38.326Z</time></trkpt><trkpt lat="43.8134834" lon="12.3748883"><ele>733.6666666666666</ele><time>2026-05-02T15:17:39.327Z</time></trkpt><trkpt lat="43.8136167" lon="12.3750862"><ele>732.3333333333333</ele><time>2026-05-02T15:17:40.327Z</time></trkpt><trkpt lat="43.81374" lon="12.3753052"><ele>731.0</ele><time>2026-05-02T15:17:41.323Z</time></trkpt><trkpt lat="43.8138511" lon="12.3755509"><ele>730.0</ele><time>2026-05-02T15:17:42.326Z</time></trkpt><trkpt lat="43.8139482" lon="12.3758146"><ele>729.0</ele><time>2026-05-02T15:17:43.326Z</time></trkpt><trkpt lat="43.814039" lon="12.3760868"><ele>728.0</ele><time>2026-05-02T15:17:44.325Z</time></trkpt><trkpt lat="43.8141343" lon="12.3763664"><ele>722.0</ele><time>2026-05-02T15:17:45.323Z</time></trkpt><trkpt lat="43.8142281" lon="12.3766541"><ele>716.0</ele><time>2026-05-02T15:17:46.326Z</time></trkpt><trkpt lat="43.8143138" lon="12.3769466"><ele>711.0</ele><time>2026-05-02T15:17:47.326Z</time></trkpt><trkpt lat="43.8143908" lon="12.3772479"><ele>706.0</ele><time>2026-05-02T15:17:48.325Z</time></trkpt><trkpt lat="43.8144638" lon="12.3775344"><ele>706.0</ele><time>2026-05-02T15:17:49.325Z</time></trkpt><trkpt lat="43.8144809" lon="12.377875"><ele>706.0</ele><time>2026-05-02T15:17:50.326Z</time></trkpt><trkpt lat="43.8145151" lon="12.3782034"><ele>701.0</ele><time>2026-05-02T15:17:51.437Z</time></trkpt><trkpt lat="43.8145803" lon="12.3788504"><ele>701.5</ele><time>2026-05-02T15:17:53.326Z</time></trkpt><trkpt lat="43.8145838" lon="12.379172"><ele>702.0</ele><time>2026-05-02T15:17:54.327Z</time></trkpt><trkpt lat="43.8145946" lon="12.3794912"><ele>703.0</ele><time>2026-05-02T15:17:55.327Z</time></trkpt><trkpt lat="43.8146215" lon="12.3798138"><ele>704.0</ele><time>2026-05-02T15:17:56.322Z</time></trkpt><trkpt lat="43.8146661" lon="12.380133"><ele>704.0</ele><time>2026-05-02T15:17:57.323Z</time></trkpt><trkpt lat="43.8147299" lon="12.3804606"><ele>704.0</ele><time>2026-05-02T15:17:58.326Z</time></trkpt><trkpt lat="43.814791" lon="12.3807893"><ele>704.5</ele><time>2026-05-02T15:17:59.324Z</time></trkpt><trkpt lat="43.8148503" lon="12.3811195"><ele>705.0</ele><time>2026-05-02T15:18:00.326Z</time></trkpt><trkpt lat="43.8149092" lon="12.3814593"><ele>704.0</ele><time>2026-05-02T15:18:01.325Z</time></trkpt><trkpt lat="43.8149562" lon="12.3817779"><ele>703.0</ele><time>2026-05-02T15:18:02.325Z</time></trkpt><trkpt lat="43.8150091" lon="12.382118"><ele>703.3333333333334</ele><time>2026-05-02T15:18:03.323Z</time></trkpt><trkpt lat="43.815041" lon="12.3823896"><ele>703.6666666666666</ele><time>2026-05-02T15:18:04.325Z</time></trkpt><trkpt lat="43.8151014" lon="12.3826846"><ele>704.0</ele><time>2026-05-02T15:18:05.325Z</time></trkpt><trkpt lat="43.8151758" lon="12.3829869"><ele>705.3333333333333</ele><time>2026-05-02T15:18:06.324Z</time></trkpt><trkpt lat="43.8152522" lon="12.3832791"><ele>706.6666666666666</ele><time>2026-05-02T15:18:07.325Z</time></trkpt><trkpt lat="43.815327" lon="12.3835677"><ele>708.0</ele><time>2026-05-02T15:18:08.326Z</time></trkpt><trkpt lat="43.8154178" lon="12.3838579"><ele>708.0</ele><time>2026-05-02T15:18:09.324Z</time></trkpt><trkpt lat="43.8155166" lon="12.3841306"><ele>708.0</ele><time>2026-05-02T15:18:10.325Z</time></trkpt><trkpt lat="43.8156193" lon="12.3843865"><ele>708.0</ele><time>2026-05-02T15:18:11.324Z</time></trkpt><trkpt lat="43.8157237" lon="12.3846348"><ele>710.0</ele><time>2026-05-02T15:18:12.325Z</time></trkpt><trkpt lat="43.8158299" lon="12.3848622"><ele>712.0</ele><time>2026-05-02T15:18:13.328Z</time></trkpt><trkpt lat="43.8159452" lon="12.385073"><ele>714.0</ele><time>2026-05-02T15:18:14.325Z</time></trkpt><trkpt lat="43.8160855" lon="12.3852611"><ele>714.0</ele><time>2026-05-02T15:18:15.324Z</time></trkpt><trkpt lat="43.8162194" lon="12.3853889"><ele>714.0</ele><time>2026-05-02T15:18:16.325Z</time></trkpt><trkpt lat="43.816356" lon="12.3855072"><ele>714.0</ele><time>2026-05-02T15:18:17.325Z</time></trkpt><trkpt lat="43.8164906" lon="12.3856317"><ele>711.75</ele><time>2026-05-02T15:18:18.324Z</time></trkpt><trkpt lat="43.8165647" lon="12.3858138"><ele>709.5</ele><time>2026-05-02T15:18:19.327Z</time></trkpt><trkpt lat="43.8166466" lon="12.3859977"><ele>707.25</ele><time>2026-05-02T15:18:20.322Z</time></trkpt><trkpt lat="43.8166734" lon="12.3861905"><ele>705.0</ele><time>2026-05-02T15:18:21.327Z</time></trkpt><trkpt lat="43.8167192" lon="12.3863721"><ele>703.0</ele><time>2026-05-02T15:18:22.323Z</time></trkpt><trkpt lat="43.8167471" lon="12.3865552"><ele>701.0</ele><time>2026-05-02T15:18:23.325Z</time></trkpt><trkpt lat="43.8167845" lon="12.3867286"><ele>699.0</ele><time>2026-05-02T15:18:24.325Z</time></trkpt><trkpt lat="43.8168176" lon="12.3869085"><ele>697.0</ele><time>2026-05-02T15:18:25.325Z</time></trkpt><trkpt lat="43.8168549" lon="12.3870852"><ele>698.25</ele><time>2026-05-02T15:18:26.324Z</time></trkpt><trkpt lat="43.8169082" lon="12.3872473"><ele>699.5</ele><time>2026-05-02T15:18:27.326Z</time></trkpt><trkpt lat="43.8169403" lon="12.3873892"><ele>700.75</ele><time>2026-05-02T15:18:28.325Z</time></trkpt><trkpt lat="43.8170188" lon="12.3875428"><ele>702.0</ele><time>2026-05-02T15:18:29.326Z</time></trkpt><trkpt lat="43.8170909" lon="12.3876808"><ele>702.0</ele><time>2026-05-02T15:18:30.323Z</time></trkpt><trkpt lat="43.8171755" lon="12.3877853"><ele>702.0</ele><time>2026-05-02T15:18:31.325Z</time></trkpt><trkpt lat="43.8172741" lon="12.3878477"><ele>702.0</ele><time>2026-05-02T15:18:32.326Z</time></trkpt><trkpt lat="43.8173817" lon="12.3879097"><ele>702.0</ele><time>2026-05-02T15:18:33.326Z</time></trkpt><trkpt lat="43.8174972" lon="12.3879493"><ele>702.0</ele><time>2026-05-02T15:18:34.323Z</time></trkpt><trkpt lat="43.8176221" lon="12.3879823"><ele>702.0</ele><time>2026-05-02T15:18:35.327Z</time></trkpt><trkpt lat="43.8177524" lon="12.3880184"><ele>702.0</ele><time>2026-05-02T15:18:36.324Z</time></trkpt><trkpt lat="43.8178799" lon="12.3880667"><ele>702.0</ele><time>2026-05-02T15:18:37.327Z</time></trkpt><trkpt lat="43.8179978" lon="12.3881352"><ele>699.25</ele><time>2026-05-02T15:18:38.324Z</time></trkpt><trkpt lat="43.8181056" lon="12.3882197"><ele>696.5</ele><time>2026-05-02T15:18:39.326Z</time></trkpt><trkpt lat="43.8182092" lon="12.388327"><ele>693.75</ele><time>2026-05-02T15:18:40.326Z</time></trkpt><trkpt lat="43.8183069" lon="12.3884594"><ele>691.0</ele><time>2026-05-02T15:18:41.326Z</time></trkpt><trkpt lat="43.8183856" lon="12.3886152"><ele>691.0</ele><time>2026-05-02T15:18:42.324Z</time></trkpt><trkpt lat="43.8184518" lon="12.3887736"><ele>691.0</ele><time>2026-05-02T15:18:43.327Z</time></trkpt><trkpt lat="43.8185077" lon="12.3889279"><ele>691.0</ele><time>2026-05-02T15:18:44.325Z</time></trkpt><trkpt lat="43.8185706" lon="12.3890841"><ele>691.0</ele><time>2026-05-02T15:18:45.325Z</time></trkpt><trkpt lat="43.818658" lon="12.3892319"><ele>690.25</ele><time>2026-05-02T15:18:46.325Z</time></trkpt><trkpt lat="43.8187586" lon="12.3893514"><ele>689.5</ele><time>2026-05-02T15:18:47.326Z</time></trkpt><trkpt lat="43.8188651" lon="12.3894503"><ele>688.75</ele><time>2026-05-02T15:18:48.326Z</time></trkpt><trkpt lat="43.818972" lon="12.3895485"><ele>688.0</ele><time>2026-05-02T15:18:49.323Z</time></trkpt><trkpt lat="43.8190778" lon="12.3896524"><ele>684.5</ele><time>2026-05-02T15:18:50.325Z</time></trkpt><trkpt lat="43.8191834" lon="12.389765"><ele>681.0</ele><time>2026-05-02T15:18:51.325Z</time></trkpt><trkpt lat="43.8192887" lon="12.3898957"><ele>677.5</ele><time>2026-05-02T15:18:52.325Z</time></trkpt><trkpt lat="43.8193806" lon="12.3900447"><ele>674.0</ele><time>2026-05-02T15:18:53.325Z</time></trkpt><trkpt lat="43.8194641" lon="12.3901961"><ele>674.0</ele><time>2026-05-02T15:18:54.321Z</time></trkpt><trkpt lat="43.8195464" lon="12.3903513"><ele>674.0</ele><time>2026-05-02T15:18:55.325Z</time></trkpt><trkpt lat="43.8196322" lon="12.3905097"><ele>674.0</ele><time>2026-05-02T15:18:56.33Z</time></trkpt><trkpt lat="43.819711" lon="12.3906704"><ele>674.0</ele><time>2026-05-02T15:18:57.325Z</time></trkpt><trkpt lat="43.8197846" lon="12.3908391"><ele>672.0</ele><time>2026-05-02T15:18:58.326Z</time></trkpt><trkpt lat="43.8198557" lon="12.391011"><ele>670.0</ele><time>2026-05-02T15:18:59.326Z</time></trkpt><trkpt lat="43.8199263" lon="12.3911799"><ele>668.0</ele><time>2026-05-02T15:19:00.327Z</time></trkpt><trkpt lat="43.8199955" lon="12.3913535"><ele>666.0</ele><time>2026-05-02T15:19:01.325Z</time></trkpt><trkpt lat="43.8200677" lon="12.3915271"><ele>663.75</ele><time>2026-05-02T15:19:02.326Z</time></trkpt><trkpt lat="43.820136" lon="12.391719"><ele>661.5</ele><time>2026-05-02T15:19:03.327Z</time></trkpt><trkpt lat="43.8202054" lon="12.3918763"><ele>659.25</ele><time>2026-05-02T15:19:04.325Z</time></trkpt><trkpt lat="43.820285" lon="12.3920337"><ele>657.0</ele><time>2026-05-02T15:19:05.323Z</time></trkpt><trkpt lat="43.8203755" lon="12.3921834"><ele>656.25</ele><time>2026-05-02T15:19:06.325Z</time></trkpt><trkpt lat="43.820467" lon="12.3923315"><ele>655.5</ele><time>2026-05-02T15:19:07.327Z</time></trkpt><trkpt lat="43.8205623" lon="12.3924772"><ele>654.75</ele><time>2026-05-02T15:19:08.328Z</time></trkpt><trkpt lat="43.8206583" lon="12.3926141"><ele>654.0</ele><time>2026-05-02T15:19:09.321Z</time></trkpt><trkpt lat="43.8207531" lon="12.3927392"><ele>654.0</ele><time>2026-05-02T15:19:10.324Z</time></trkpt><trkpt lat="43.8208466" lon="12.3928774"><ele>654.0</ele><time>2026-05-02T15:19:11.324Z</time></trkpt><trkpt lat="43.8209547" lon="12.3929794"><ele>654.0</ele><time>2026-05-02T15:19:12.327Z</time></trkpt><trkpt lat="43.8210347" lon="12.3931514"><ele>654.0</ele><time>2026-05-02T15:19:13.325Z</time></trkpt><trkpt lat="43.821113" lon="12.3932911"><ele>654.75</ele><time>2026-05-02T15:19:14.326Z</time></trkpt><trkpt lat="43.8211832" lon="12.3934346"><ele>655.5</ele><time>2026-05-02T15:19:15.327Z</time></trkpt><trkpt lat="43.8212516" lon="12.3935759"><ele>656.25</ele><time>2026-05-02T15:19:16.326Z</time></trkpt><trkpt lat="43.8213069" lon="12.393712"><ele>657.0</ele><time>2026-05-02T15:19:17.323Z</time></trkpt><trkpt lat="43.8213285" lon="12.393855"><ele>658.0</ele><time>2026-05-02T15:19:18.329Z</time></trkpt><trkpt lat="43.8213407" lon="12.3940326"><ele>659.0</ele><time>2026-05-02T15:19:19.326Z</time></trkpt><trkpt lat="43.8213231" lon="12.394184"><ele>660.0</ele><time>2026-05-02T15:19:20.326Z</time></trkpt><trkpt lat="43.821343" lon="12.3943574"><ele>661.0</ele><time>2026-05-02T15:19:21.324Z</time></trkpt><trkpt lat="43.8213858" lon="12.3945306"><ele>660.0</ele><time>2026-05-02T15:19:22.325Z</time></trkpt><trkpt lat="43.8214417" lon="12.3946926"><ele>659.0</ele><time>2026-05-02T15:19:23.326Z</time></trkpt><trkpt lat="43.8215046" lon="12.3948514"><ele>658.0</ele><time>2026-05-02T15:19:24.327Z</time></trkpt><trkpt lat="43.8215701" lon="12.3950032"><ele>657.0</ele><time>2026-05-02T15:19:25.32Z</time></trkpt><trkpt lat="43.8216449" lon="12.3951359"><ele>657.0</ele><time>2026-05-02T15:19:26.325Z</time></trkpt><trkpt lat="43.8217196" lon="12.3952589"><ele>657.0</ele><time>2026-05-02T15:19:27.327Z</time></trkpt><trkpt lat="43.8218029" lon="12.3953724"><ele>657.0</ele><time>2026-05-02T15:19:28.327Z</time></trkpt><trkpt lat="43.8218967" lon="12.3954832"><ele>657.0</ele><time>2026-05-02T15:19:29.324Z</time></trkpt><trkpt lat="43.8219851" lon="12.3956003"><ele>654.75</ele><time>2026-05-02T15:19:30.326Z</time></trkpt><trkpt lat="43.8220847" lon="12.3957083"><ele>652.5</ele><time>2026-05-02T15:19:31.325Z</time></trkpt><trkpt lat="43.8221798" lon="12.3958191"><ele>650.25</ele><time>2026-05-02T15:19:32.326Z</time></trkpt><trkpt lat="43.8222799" lon="12.3959182"><ele>648.0</ele><time>2026-05-02T15:19:33.324Z</time></trkpt><trkpt lat="43.8223693" lon="12.3960167"><ele>648.0</ele><time>2026-05-02T15:19:34.326Z</time></trkpt><trkpt lat="43.8224551" lon="12.396121"><ele>648.0</ele><time>2026-05-02T15:19:35.329Z</time></trkpt><trkpt lat="43.8225329" lon="12.3962229"><ele>648.0</ele><time>2026-05-02T15:19:36.321Z</time></trkpt><trkpt lat="43.8225951" lon="12.3963431"><ele>648.0</ele><time>2026-05-02T15:19:37.324Z</time></trkpt><trkpt lat="43.8226054" lon="12.3965047"><ele>648.0</ele><time>2026-05-02T15:19:38.328Z</time></trkpt><trkpt lat="43.8226007" lon="12.396672"><ele>646.0</ele><time>2026-05-02T15:19:39.329Z</time></trkpt><trkpt lat="43.8225735" lon="12.396847"><ele>644.0</ele><time>2026-05-02T15:19:40.322Z</time></trkpt><trkpt lat="43.8225313" lon="12.3970504"><ele>642.0</ele><time>2026-05-02T15:19:41.317Z</time></trkpt><trkpt lat="43.8224784" lon="12.3972888"><ele>640.0</ele><time>2026-05-02T15:19:42.327Z</time></trkpt><trkpt lat="43.8224122" lon="12.3975251"><ele>638.0</ele><time>2026-05-02T15:19:43.327Z</time></trkpt><trkpt lat="43.8223031" lon="12.3977243"><ele>636.0</ele><time>2026-05-02T15:19:44.326Z</time></trkpt><trkpt lat="43.8222302" lon="12.3979262"><ele>636.0</ele><time>2026-05-02T15:19:45.322Z</time></trkpt><trkpt lat="43.8221645" lon="12.3981091"><ele>636.0</ele><time>2026-05-02T15:19:46.327Z</time></trkpt><trkpt lat="43.8221033" lon="12.3982946"><ele>636.0</ele><time>2026-05-02T15:19:47.327Z</time></trkpt><trkpt lat="43.8220495" lon="12.3984711"><ele>636.0</ele><time>2026-05-02T15:19:48.325Z</time></trkpt><trkpt lat="43.8220081" lon="12.3986522"><ele>634.5</ele><time>2026-05-02T15:19:49.325Z</time></trkpt><trkpt lat="43.8219794" lon="12.3988367"><ele>633.0</ele><time>2026-05-02T15:19:50.325Z</time></trkpt><trkpt lat="43.8219623" lon="12.3990255"><ele>631.5</ele><time>2026-05-02T15:19:51.327Z</time></trkpt><trkpt lat="43.8219511" lon="12.3992184"><ele>630.0</ele><time>2026-05-02T15:19:52.326Z</time></trkpt><trkpt lat="43.8219425" lon="12.3994183"><ele>630.0</ele><time>2026-05-02T15:19:53.327Z</time></trkpt><trkpt lat="43.8219377" lon="12.3996061"><ele>630.0</ele><time>2026-05-02T15:19:54.326Z</time></trkpt><trkpt lat="43.8219427" lon="12.3997959"><ele>630.0</ele><time>2026-05-02T15:19:55.327Z</time></trkpt><trkpt lat="43.8219521" lon="12.3999843"><ele>630.0</ele><time>2026-05-02T15:19:56.322Z</time></trkpt><trkpt lat="43.8219648" lon="12.4001709"><ele>629.25</ele><time>2026-05-02T15:19:57.322Z</time></trkpt><trkpt lat="43.8219861" lon="12.4003594"><ele>628.5</ele><time>2026-05-02T15:19:58.327Z</time></trkpt><trkpt lat="43.821996" lon="12.40055"><ele>627.75</ele><time>2026-05-02T15:19:59.325Z</time></trkpt><trkpt lat="43.8220343" lon="12.400738"><ele>627.0</ele><time>2026-05-02T15:20:00.323Z</time></trkpt><trkpt lat="43.8220611" lon="12.4009229"><ele>627.0</ele><time>2026-05-02T15:20:01.326Z</time></trkpt><trkpt lat="43.8220873" lon="12.4010971"><ele>627.0</ele><time>2026-05-02T15:20:02.326Z</time></trkpt><trkpt lat="43.8221798" lon="12.4012963"><ele>627.0</ele><time>2026-05-02T15:20:03.354Z</time></trkpt><trkpt lat="43.8222324" lon="12.4014896"><ele>627.0</ele><time>2026-05-02T15:20:04.326Z</time></trkpt><trkpt lat="43.8222847" lon="12.4016736"><ele>628.6666666666666</ele><time>2026-05-02T15:20:05.327Z</time></trkpt><trkpt lat="43.8223323" lon="12.4018772"><ele>630.3333333333333</ele><time>2026-05-02T15:20:06.326Z</time></trkpt><trkpt lat="43.8223879" lon="12.402074"><ele>632.0</ele><time>2026-05-02T15:20:07.325Z</time></trkpt><trkpt lat="43.8224402" lon="12.4022627"><ele>632.0</ele><time>2026-05-02T15:20:08.324Z</time></trkpt><trkpt lat="43.8224848" lon="12.402441"><ele>632.0</ele><time>2026-05-02T15:20:09.326Z</time></trkpt><trkpt lat="43.8225934" lon="12.4028161"><ele>632.0</ele><time>2026-05-02T15:20:11.328Z</time></trkpt><trkpt lat="43.8226645" lon="12.4030065"><ele>630.0</ele><time>2026-05-02T15:20:12.326Z</time></trkpt><trkpt lat="43.8227249" lon="12.403203"><ele>628.0</ele><time>2026-05-02T15:20:13.324Z</time></trkpt><trkpt lat="43.8227933" lon="12.4033738"><ele>626.0</ele><time>2026-05-02T15:20:14.327Z</time></trkpt><trkpt lat="43.8228671" lon="12.4035466"><ele>624.0</ele><time>2026-05-02T15:20:15.326Z</time></trkpt><trkpt lat="43.822939" lon="12.4037037"><ele>625.5</ele><time>2026-05-02T15:20:16.324Z</time></trkpt><trkpt lat="43.823015" lon="12.4038649"><ele>627.0</ele><time>2026-05-02T15:20:17.326Z</time></trkpt><trkpt lat="43.823113" lon="12.4039785"><ele>628.5</ele><time>2026-05-02T15:20:18.326Z</time></trkpt><trkpt lat="43.8232091" lon="12.4040944"><ele>630.0</ele><time>2026-05-02T15:20:19.317Z</time></trkpt><trkpt lat="43.8232968" lon="12.4042172"><ele>630.0</ele><time>2026-05-02T15:20:20.327Z</time></trkpt><trkpt lat="43.8233699" lon="12.4043623"><ele>630.0</ele><time>2026-05-02T15:20:21.326Z</time></trkpt><trkpt lat="43.8234185" lon="12.4045294"><ele>630.0</ele><time>2026-05-02T15:20:22.324Z</time></trkpt><trkpt lat="43.8234504" lon="12.4047145"><ele>630.0</ele><time>2026-05-02T15:20:23.325Z</time></trkpt><trkpt lat="43.823476" lon="12.404903"><ele>630.0</ele><time>2026-05-02T15:20:24.326Z</time></trkpt><trkpt lat="43.8235129" lon="12.4050865"><ele>630.0</ele><time>2026-05-02T15:20:25.327Z</time></trkpt><trkpt lat="43.8235423" lon="12.4052725"><ele>630.0</ele><time>2026-05-02T15:20:26.325Z</time></trkpt><trkpt lat="43.8235667" lon="12.4054499"><ele>630.0</ele><time>2026-05-02T15:20:27.327Z</time></trkpt><trkpt lat="43.8236316" lon="12.4056077"><ele>630.0</ele><time>2026-05-02T15:20:28.33Z</time></trkpt><trkpt lat="43.8236958" lon="12.4057461"><ele>630.0</ele><time>2026-05-02T15:20:29.324Z</time></trkpt><trkpt lat="43.8237789" lon="12.4058768"><ele>630.0</ele><time>2026-05-02T15:20:30.327Z</time></trkpt><trkpt lat="43.8238609" lon="12.4060022"><ele>630.0</ele><time>2026-05-02T15:20:31.327Z</time></trkpt><trkpt lat="43.82398" lon="12.4061158"><ele>630.0</ele><time>2026-05-02T15:20:32.326Z</time></trkpt><trkpt lat="43.8240805" lon="12.4062324"><ele>630.0</ele><time>2026-05-02T15:20:33.325Z</time></trkpt><trkpt lat="43.8241876" lon="12.4063507"><ele>630.0</ele><time>2026-05-02T15:20:34.326Z</time></trkpt><trkpt lat="43.8243029" lon="12.4064563"><ele>630.0</ele><time>2026-05-02T15:20:35.322Z</time></trkpt><trkpt lat="43.8244273" lon="12.406539"><ele>630.75</ele><time>2026-05-02T15:20:36.35Z</time></trkpt><trkpt lat="43.8245575" lon="12.4065905"><ele>631.5</ele><time>2026-05-02T15:20:37.324Z</time></trkpt><trkpt lat="43.8246903" lon="12.406618"><ele>632.25</ele><time>2026-05-02T15:20:38.325Z</time></trkpt><trkpt lat="43.8248245" lon="12.4066246"><ele>633.0</ele><time>2026-05-02T15:20:39.353Z</time></trkpt><trkpt lat="43.8249572" lon="12.4066218"><ele>633.0</ele><time>2026-05-02T15:20:40.323Z</time></trkpt><trkpt lat="43.8250918" lon="12.4066126"><ele>633.0</ele><time>2026-05-02T15:20:41.325Z</time></trkpt><trkpt lat="43.8252243" lon="12.4066004"><ele>633.0</ele><time>2026-05-02T15:20:42.327Z</time></trkpt><trkpt lat="43.825351" lon="12.4065873"><ele>633.0</ele><time>2026-05-02T15:20:43.324Z</time></trkpt><trkpt lat="43.8254762" lon="12.4065677"><ele>631.5</ele><time>2026-05-02T15:20:44.326Z</time></trkpt><trkpt lat="43.8256062" lon="12.4065656"><ele>630.0</ele><time>2026-05-02T15:20:45.323Z</time></trkpt><trkpt lat="43.8257302" lon="12.4065819"><ele>628.5</ele><time>2026-05-02T15:20:46.326Z</time></trkpt><trkpt lat="43.8258525" lon="12.4066186"><ele>627.0</ele><time>2026-05-02T15:20:47.325Z</time></trkpt><trkpt lat="43.825966" lon="12.4066653"><ele>623.0</ele><time>2026-05-02T15:20:48.324Z</time></trkpt><trkpt lat="43.8260847" lon="12.4067379"><ele>619.0</ele><time>2026-05-02T15:20:49.323Z</time></trkpt><trkpt lat="43.8261996" lon="12.4068283"><ele>615.0</ele><time>2026-05-02T15:20:50.328Z</time></trkpt><trkpt lat="43.8263091" lon="12.4069463"><ele>611.0</ele><time>2026-05-02T15:20:51.324Z</time></trkpt><trkpt lat="43.8264176" lon="12.4071059"><ele>613.3333333333333</ele><time>2026-05-02T15:20:52.324Z</time></trkpt><trkpt lat="43.8264862" lon="12.4073046"><ele>615.6666666666666</ele><time>2026-05-02T15:20:53.329Z</time></trkpt><trkpt lat="43.826542" lon="12.4074775"><ele>618.0</ele><time>2026-05-02T15:20:54.325Z</time></trkpt><trkpt lat="43.8265998" lon="12.4076914"><ele>618.0</ele><time>2026-05-02T15:20:55.327Z</time></trkpt><trkpt lat="43.8266157" lon="12.4078723"><ele>618.0</ele><time>2026-05-02T15:20:56.323Z</time></trkpt><trkpt lat="43.8266709" lon="12.4080264"><ele>618.0</ele><time>2026-05-02T15:20:57.325Z</time></trkpt><trkpt lat="43.8267122" lon="12.408181"><ele>618.0</ele><time>2026-05-02T15:20:58.325Z</time></trkpt><trkpt lat="43.8267493" lon="12.4083249"><ele>618.25</ele><time>2026-05-02T15:20:59.324Z</time></trkpt><trkpt lat="43.8268036" lon="12.4084722"><ele>618.5</ele><time>2026-05-02T15:21:00.324Z</time></trkpt><trkpt lat="43.8268732" lon="12.4085953"><ele>618.75</ele><time>2026-05-02T15:21:01.326Z</time></trkpt><trkpt lat="43.826969" lon="12.4086883"><ele>619.0</ele><time>2026-05-02T15:21:02.328Z</time></trkpt><trkpt lat="43.8270748" lon="12.4087558"><ele>619.0</ele><time>2026-05-02T15:21:03.329Z</time></trkpt><trkpt lat="43.8272091" lon="12.4087705"><ele>619.0</ele><time>2026-05-02T15:21:04.324Z</time></trkpt><trkpt lat="43.827384" lon="12.4087515"><ele>619.0</ele><time>2026-05-02T15:21:05.318Z</time></trkpt><trkpt lat="43.8275858" lon="12.4087583"><ele>620.0</ele><time>2026-05-02T15:21:06.322Z</time></trkpt><trkpt lat="43.8277863" lon="12.4087777"><ele>621.0</ele><time>2026-05-02T15:21:07.322Z</time></trkpt><trkpt lat="43.8279751" lon="12.4087958"><ele>622.0</ele><time>2026-05-02T15:21:08.324Z</time></trkpt><trkpt lat="43.8281574" lon="12.4088268"><ele>622.0</ele><time>2026-05-02T15:21:09.325Z</time></trkpt><trkpt lat="43.8283172" lon="12.4088887"><ele>622.0</ele><time>2026-05-02T15:21:10.326Z</time></trkpt><trkpt lat="43.8284847" lon="12.4089661"><ele>622.0</ele><time>2026-05-02T15:21:11.326Z</time></trkpt><trkpt lat="43.8286113" lon="12.4091341"><ele>618.3333333333334</ele><time>2026-05-02T15:21:12.324Z</time></trkpt><trkpt lat="43.8287419" lon="12.4092652"><ele>614.6666666666666</ele><time>2026-05-02T15:21:13.326Z</time></trkpt><trkpt lat="43.8288747" lon="12.4093804"><ele>611.0</ele><time>2026-05-02T15:21:14.325Z</time></trkpt><trkpt lat="43.8290166" lon="12.4094611"><ele>611.0</ele><time>2026-05-02T15:21:15.324Z</time></trkpt><trkpt lat="43.8291584" lon="12.4095413"><ele>611.0</ele><time>2026-05-02T15:21:16.325Z</time></trkpt><trkpt lat="43.8293189" lon="12.4096171"><ele>611.0</ele><time>2026-05-02T15:21:17.325Z</time></trkpt><trkpt lat="43.8295211" lon="12.4095835"><ele>609.0</ele><time>2026-05-02T15:21:18.323Z</time></trkpt><trkpt lat="43.8296879" lon="12.4096098"><ele>607.0</ele><time>2026-05-02T15:21:19.326Z</time></trkpt><trkpt lat="43.8298623" lon="12.4096229"><ele>605.0</ele><time>2026-05-02T15:21:20.324Z</time></trkpt><trkpt lat="43.8300155" lon="12.4096493"><ele>603.3333333333333</ele><time>2026-05-02T15:21:21.321Z</time></trkpt><trkpt lat="43.8301583" lon="12.4096984"><ele>601.6666666666666</ele><time>2026-05-02T15:21:22.326Z</time></trkpt><trkpt lat="43.8303111" lon="12.4097571"><ele>600.0</ele><time>2026-05-02T15:21:23.32Z</time></trkpt><trkpt lat="43.8303354" lon="12.4099743"><ele>600.0</ele><time>2026-05-02T15:21:24.324Z</time></trkpt><trkpt lat="43.8304117" lon="12.4101464"><ele>600.0</ele><time>2026-05-02T15:21:25.33Z</time></trkpt><trkpt lat="43.8303982" lon="12.4103778"><ele>600.0</ele><time>2026-05-02T15:21:26.326Z</time></trkpt><trkpt lat="43.8304383" lon="12.4106093"><ele>600.3333333333334</ele><time>2026-05-02T15:21:27.326Z</time></trkpt><trkpt lat="43.8304798" lon="12.4108457"><ele>600.6666666666667</ele><time>2026-05-02T15:21:28.325Z</time></trkpt><trkpt lat="43.8305397" lon="12.4110781"><ele>601.0</ele><time>2026-05-02T15:21:29.326Z</time></trkpt><trkpt lat="43.8306411" lon="12.4113024"><ele>599.6666666666667</ele><time>2026-05-02T15:21:30.326Z</time></trkpt><trkpt lat="43.8307797" lon="12.4115111"><ele>598.3333333333334</ele><time>2026-05-02T15:21:31.326Z</time></trkpt><trkpt lat="43.8309341" lon="12.4117037"><ele>597.0</ele><time>2026-05-02T15:21:32.323Z</time></trkpt><trkpt lat="43.831094" lon="12.4118889"><ele>597.0</ele><time>2026-05-02T15:21:33.326Z</time></trkpt><trkpt lat="43.8312682" lon="12.4120666"><ele>597.0</ele><time>2026-05-02T15:21:34.326Z</time></trkpt><trkpt lat="43.8314498" lon="12.4122501"><ele>597.0</ele><time>2026-05-02T15:21:35.325Z</time></trkpt><trkpt lat="43.8316467" lon="12.4123777"><ele>594.3333333333334</ele><time>2026-05-02T15:21:36.324Z</time></trkpt><trkpt lat="43.8318316" lon="12.4125105"><ele>591.6666666666667</ele><time>2026-05-02T15:21:37.323Z</time></trkpt><trkpt lat="43.8320127" lon="12.4126376"><ele>589.0</ele><time>2026-05-02T15:21:38.327Z</time></trkpt><trkpt lat="43.8321698" lon="12.4127738"><ele>589.0</ele><time>2026-05-02T15:21:39.319Z</time></trkpt><trkpt lat="43.8323127" lon="12.412946"><ele>589.0</ele><time>2026-05-02T15:21:40.325Z</time></trkpt><trkpt lat="43.8324435" lon="12.4131451"><ele>589.0</ele><time>2026-05-02T15:21:41.328Z</time></trkpt><trkpt lat="43.8325726" lon="12.4133402"><ele>587.3333333333334</ele><time>2026-05-02T15:21:42.327Z</time></trkpt><trkpt lat="43.832714" lon="12.4135152"><ele>585.6666666666666</ele><time>2026-05-02T15:21:43.325Z</time></trkpt><trkpt lat="43.8328631" lon="12.4136632"><ele>584.0</ele><time>2026-05-02T15:21:44.323Z</time></trkpt><trkpt lat="43.8330251" lon="12.4137706"><ele>584.3333333333333</ele><time>2026-05-02T15:21:45.325Z</time></trkpt><trkpt lat="43.8332042" lon="12.4138501"><ele>584.6666666666666</ele><time>2026-05-02T15:21:46.326Z</time></trkpt><trkpt lat="43.8334016" lon="12.413903"><ele>585.0</ele><time>2026-05-02T15:21:47.327Z</time></trkpt><trkpt lat="43.8335938" lon="12.413935"><ele>585.0</ele><time>2026-05-02T15:21:48.324Z</time></trkpt><trkpt lat="43.8337803" lon="12.4139732"><ele>585.0</ele><time>2026-05-02T15:21:49.327Z</time></trkpt><trkpt lat="43.8339552" lon="12.4140269"><ele>585.0</ele><time>2026-05-02T15:21:50.326Z</time></trkpt><trkpt lat="43.8341253" lon="12.4141142"><ele>580.6666666666666</ele><time>2026-05-02T15:21:51.326Z</time></trkpt><trkpt lat="43.8343049" lon="12.4142258"><ele>576.3333333333333</ele><time>2026-05-02T15:21:52.324Z</time></trkpt><trkpt lat="43.8344948" lon="12.4143282"><ele>572.0</ele><time>2026-05-02T15:21:53.324Z</time></trkpt><trkpt lat="43.8346823" lon="12.41443"><ele>572.0</ele><time>2026-05-02T15:21:54.326Z</time></trkpt><trkpt lat="43.8348608" lon="12.4145186"><ele>572.0</ele><time>2026-05-02T15:21:55.318Z</time></trkpt><trkpt lat="43.8350351" lon="12.4146115"><ele>572.0</ele><time>2026-05-02T15:21:56.325Z</time></trkpt><trkpt lat="43.835192" lon="12.4147205"><ele>570.3333333333333</ele><time>2026-05-02T15:21:57.326Z</time></trkpt><trkpt lat="43.835348" lon="12.4148478"><ele>568.6666666666666</ele><time>2026-05-02T15:21:58.326Z</time></trkpt><trkpt lat="43.8354958" lon="12.4149757"><ele>567.0</ele><time>2026-05-02T15:21:59.326Z</time></trkpt><trkpt lat="43.8356394" lon="12.4151"><ele>567.0</ele><time>2026-05-02T15:22:00.322Z</time></trkpt><trkpt lat="43.8357678" lon="12.4152296"><ele>567.0</ele><time>2026-05-02T15:22:01.326Z</time></trkpt><trkpt lat="43.8358829" lon="12.4153677"><ele>567.0</ele><time>2026-05-02T15:22:02.326Z</time></trkpt><trkpt lat="43.8359668" lon="12.4155298"><ele>565.0</ele><time>2026-05-02T15:22:03.327Z</time></trkpt><trkpt lat="43.8360427" lon="12.41569"><ele>563.0</ele><time>2026-05-02T15:22:04.325Z</time></trkpt><trkpt lat="43.8361164" lon="12.4158486"><ele>561.0</ele><time>2026-05-02T15:22:05.325Z</time></trkpt><trkpt lat="43.8361629" lon="12.4159972"><ele>559.0</ele><time>2026-05-02T15:22:06.325Z</time></trkpt><trkpt lat="43.8361924" lon="12.4161334"><ele>559.0</ele><time>2026-05-02T15:22:07.328Z</time></trkpt><trkpt lat="43.8361986" lon="12.4162864"><ele>559.0</ele><time>2026-05-02T15:22:08.324Z</time></trkpt><trkpt lat="43.8361795" lon="12.4164443"><ele>559.0</ele><time>2026-05-02T15:22:09.323Z</time></trkpt><trkpt lat="43.8361594" lon="12.4165999"><ele>559.0</ele><time>2026-05-02T15:22:10.326Z</time></trkpt><trkpt lat="43.8361485" lon="12.4167547"><ele>560.3333333333334</ele><time>2026-05-02T15:22:11.326Z</time></trkpt><trkpt lat="43.8361461" lon="12.4169159"><ele>561.6666666666666</ele><time>2026-05-02T15:22:12.325Z</time></trkpt><trkpt lat="43.8361083" lon="12.4170443"><ele>563.0</ele><time>2026-05-02T15:22:13.325Z</time></trkpt><trkpt lat="43.8363615" lon="12.417205"><ele>563.5</ele><time>2026-05-02T15:22:14.325Z</time></trkpt><trkpt lat="43.8364322" lon="12.4173702"><ele>564.0</ele><time>2026-05-02T15:22:15.326Z</time></trkpt><trkpt lat="43.8365242" lon="12.4175222"><ele>564.5</ele><time>2026-05-02T15:22:16.325Z</time></trkpt><trkpt lat="43.8366172" lon="12.417704"><ele>565.0</ele><time>2026-05-02T15:22:17.326Z</time></trkpt><trkpt lat="43.8365697" lon="12.4178253"><ele>565.0</ele><time>2026-05-02T15:22:18.325Z</time></trkpt><trkpt lat="43.8363922" lon="12.4179409"><ele>565.0</ele><time>2026-05-02T15:22:19.326Z</time></trkpt><trkpt lat="43.8363101" lon="12.4180052"><ele>565.0</ele><time>2026-05-02T15:22:20.323Z</time></trkpt><trkpt lat="43.8361925" lon="12.4180088"><ele>565.0</ele><time>2026-05-02T15:22:21.329Z</time></trkpt><trkpt lat="43.8361026" lon="12.4179266"><ele>565.0</ele><time>2026-05-02T15:22:22.326Z</time></trkpt><trkpt lat="43.8360175" lon="12.4177908"><ele>565.0</ele><time>2026-05-02T15:22:23.327Z</time></trkpt><trkpt lat="43.8359235" lon="12.4176627"><ele>565.0</ele><time>2026-05-02T15:22:24.324Z</time></trkpt><trkpt lat="43.8358513" lon="12.4175392"><ele>565.0</ele><time>2026-05-02T15:22:25.322Z</time></trkpt><trkpt lat="43.8357345" lon="12.4175781"><ele>567.6</ele><time>2026-05-02T15:22:26.327Z</time></trkpt><trkpt lat="43.8356346" lon="12.4176047"><ele>570.2</ele><time>2026-05-02T15:22:27.32Z</time></trkpt><trkpt lat="43.8355386" lon="12.4176911"><ele>572.8</ele><time>2026-05-02T15:22:28.324Z</time></trkpt><trkpt lat="43.8354753" lon="12.4178211"><ele>575.4</ele><time>2026-05-02T15:22:29.326Z</time></trkpt><trkpt lat="43.8354412" lon="12.4179771"><ele>578.0</ele><time>2026-05-02T15:22:30.325Z</time></trkpt><trkpt lat="43.8354412" lon="12.4181622"><ele>578.0</ele><time>2026-05-02T15:22:31.326Z</time></trkpt><trkpt lat="43.8354887" lon="12.4183904"><ele>578.0</ele><time>2026-05-02T15:22:32.323Z</time></trkpt><trkpt lat="43.8355237" lon="12.4186039"><ele>578.0</ele><time>2026-05-02T15:22:33.325Z</time></trkpt><trkpt lat="43.8355432" lon="12.418813"><ele>578.75</ele><time>2026-05-02T15:22:34.326Z</time></trkpt><trkpt lat="43.8355577" lon="12.4190423"><ele>579.5</ele><time>2026-05-02T15:22:35.326Z</time></trkpt><trkpt lat="43.8355396" lon="12.4192214"><ele>580.25</ele><time>2026-05-02T15:22:36.323Z</time></trkpt><trkpt lat="43.835537" lon="12.4194092"><ele>581.0</ele><time>2026-05-02T15:22:37.326Z</time></trkpt><trkpt lat="43.8355277" lon="12.4195693"><ele>583.0</ele><time>2026-05-02T15:22:38.327Z</time></trkpt><trkpt lat="43.8355128" lon="12.419722"><ele>585.0</ele><time>2026-05-02T15:22:39.326Z</time></trkpt><trkpt lat="43.8354874" lon="12.4198391"><ele>587.0</ele><time>2026-05-02T15:22:40.324Z</time></trkpt><trkpt lat="43.8354555" lon="12.4199669"><ele>589.0</ele><time>2026-05-02T15:22:41.323Z</time></trkpt><trkpt lat="43.8354085" lon="12.4200839"><ele>591.0</ele><time>2026-05-02T15:22:42.326Z</time></trkpt><trkpt lat="43.835339" lon="12.420187"><ele>591.0</ele><time>2026-05-02T15:22:43.322Z</time></trkpt><trkpt lat="43.8352474" lon="12.4202681"><ele>591.0</ele><time>2026-05-02T15:22:44.324Z</time></trkpt><trkpt lat="43.8351459" lon="12.4203293"><ele>591.0</ele><time>2026-05-02T15:22:45.326Z</time></trkpt><trkpt lat="43.8350324" lon="12.4203886"><ele>591.0</ele><time>2026-05-02T15:22:46.325Z</time></trkpt><trkpt lat="43.8349221" lon="12.4204357"><ele>593.0</ele><time>2026-05-02T15:22:47.323Z</time></trkpt><trkpt lat="43.8348136" lon="12.4204987"><ele>595.0</ele><time>2026-05-02T15:22:48.324Z</time></trkpt><trkpt lat="43.8347145" lon="12.4205771"><ele>597.0</ele><time>2026-05-02T15:22:49.326Z</time></trkpt><trkpt lat="43.8346255" lon="12.4206723"><ele>599.0</ele><time>2026-05-02T15:22:50.326Z</time></trkpt><trkpt lat="43.8345506" lon="12.4207983"><ele>599.0</ele><time>2026-05-02T15:22:51.332Z</time></trkpt><trkpt lat="43.8344813" lon="12.4209215"><ele>599.0</ele><time>2026-05-02T15:22:52.324Z</time></trkpt><trkpt lat="43.8344051" lon="12.421101"><ele>599.0</ele><time>2026-05-02T15:22:53.326Z</time></trkpt><trkpt lat="43.8343938" lon="12.4213113"><ele>599.0</ele><time>2026-05-02T15:22:54.326Z</time></trkpt><trkpt lat="43.8343921" lon="12.4215051"><ele>598.25</ele><time>2026-05-02T15:22:55.327Z</time></trkpt><trkpt lat="43.834346" lon="12.4216923"><ele>597.5</ele><time>2026-05-02T15:22:56.323Z</time></trkpt><trkpt lat="43.8343149" lon="12.4218759"><ele>596.75</ele><time>2026-05-02T15:22:57.326Z</time></trkpt><trkpt lat="43.8342748" lon="12.4220735"><ele>596.0</ele><time>2026-05-02T15:22:58.324Z</time></trkpt><trkpt lat="43.8342066" lon="12.4222341"><ele>600.5</ele><time>2026-05-02T15:22:59.326Z</time></trkpt><trkpt lat="43.8341834" lon="12.4224467"><ele>605.0</ele><time>2026-05-02T15:23:00.324Z</time></trkpt><trkpt lat="43.8341568" lon="12.4226101"><ele>609.5</ele><time>2026-05-02T15:23:01.325Z</time></trkpt><trkpt lat="43.8341458" lon="12.4227839"><ele>614.0</ele><time>2026-05-02T15:23:02.326Z</time></trkpt><trkpt lat="43.8342039" lon="12.422982"><ele>615.5</ele><time>2026-05-02T15:23:03.326Z</time></trkpt><trkpt lat="43.8342915" lon="12.423148"><ele>617.0</ele><time>2026-05-02T15:23:04.325Z</time></trkpt><trkpt lat="43.8343493" lon="12.4233285"><ele>618.5</ele><time>2026-05-02T15:23:05.351Z</time></trkpt><trkpt lat="43.834377" lon="12.4235223"><ele>620.0</ele><time>2026-05-02T15:23:06.326Z</time></trkpt><trkpt lat="43.8343764" lon="12.4237352"><ele>620.3333333333333</ele><time>2026-05-02T15:23:07.322Z</time></trkpt><trkpt lat="43.8343769" lon="12.4239364"><ele>620.6666666666666</ele><time>2026-05-02T15:23:08.325Z</time></trkpt><trkpt lat="43.8343566" lon="12.4241286"><ele>621.0</ele><time>2026-05-02T15:23:09.327Z</time></trkpt><trkpt lat="43.8342534" lon="12.4243225"><ele>621.0</ele><time>2026-05-02T15:23:10.325Z</time></trkpt><trkpt lat="43.8341946" lon="12.4244972"><ele>621.0</ele><time>2026-05-02T15:23:11.323Z</time></trkpt><trkpt lat="43.8341099" lon="12.4247232"><ele>621.0</ele><time>2026-05-02T15:23:12.325Z</time></trkpt><trkpt lat="43.8340308" lon="12.4249834"><ele>619.6666666666666</ele><time>2026-05-02T15:23:13.327Z</time></trkpt><trkpt lat="43.8339406" lon="12.4252086"><ele>618.3333333333333</ele><time>2026-05-02T15:23:14.322Z</time></trkpt><trkpt lat="43.8338635" lon="12.4254441"><ele>617.0</ele><time>2026-05-02T15:23:15.321Z</time></trkpt><trkpt lat="43.8337357" lon="12.4256443"><ele>615.3333333333333</ele><time>2026-05-02T15:23:16.325Z</time></trkpt><trkpt lat="43.8335665" lon="12.4257336"><ele>613.6666666666666</ele><time>2026-05-02T15:23:17.325Z</time></trkpt><trkpt lat="43.8333905" lon="12.4258192"><ele>612.0</ele><time>2026-05-02T15:23:18.325Z</time></trkpt><trkpt lat="43.8332131" lon="12.4259035"><ele>616.0</ele><time>2026-05-02T15:23:19.324Z</time></trkpt><trkpt lat="43.8330299" lon="12.4259795"><ele>620.0</ele><time>2026-05-02T15:23:20.331Z</time></trkpt><trkpt lat="43.8328467" lon="12.4260177"><ele>624.0</ele><time>2026-05-02T15:23:21.327Z</time></trkpt><trkpt lat="43.8326683" lon="12.4260554"><ele>625.5</ele><time>2026-05-02T15:23:22.33Z</time></trkpt><trkpt lat="43.8325145" lon="12.4260942"><ele>627.0</ele><time>2026-05-02T15:23:23.323Z</time></trkpt><trkpt lat="43.8323735" lon="12.4261457"><ele>628.5</ele><time>2026-05-02T15:23:24.324Z</time></trkpt><trkpt lat="43.8322523" lon="12.4262132"><ele>630.0</ele><time>2026-05-02T15:23:25.326Z</time></trkpt><trkpt lat="43.8321557" lon="12.4262943"><ele>627.4</ele><time>2026-05-02T15:23:26.324Z</time></trkpt><trkpt lat="43.8320715" lon="12.4263916"><ele>624.8</ele><time>2026-05-02T15:23:27.326Z</time></trkpt><trkpt lat="43.8320099" lon="12.4265014"><ele>622.2</ele><time>2026-05-02T15:23:28.324Z</time></trkpt><trkpt lat="43.8319669" lon="12.4266309"><ele>619.6</ele><time>2026-05-02T15:23:29.324Z</time></trkpt><trkpt lat="43.8319163" lon="12.4267614"><ele>617.0</ele><time>2026-05-02T15:23:30.323Z</time></trkpt><trkpt lat="43.8319086" lon="12.4268981"><ele>617.0</ele><time>2026-05-02T15:23:31.326Z</time></trkpt><trkpt lat="43.8319261" lon="12.4270529"><ele>617.0</ele><time>2026-05-02T15:23:32.324Z</time></trkpt><trkpt lat="43.8319233" lon="12.4271931"><ele>617.0</ele><time>2026-05-02T15:23:33.324Z</time></trkpt><trkpt lat="43.8319132" lon="12.4273285"><ele>617.0</ele><time>2026-05-02T15:23:34.323Z</time></trkpt><trkpt lat="43.8318804" lon="12.4274635"><ele>617.0</ele><time>2026-05-02T15:23:35.326Z</time></trkpt><trkpt lat="43.8318349" lon="12.4275898"><ele>619.0</ele><time>2026-05-02T15:23:36.326Z</time></trkpt><trkpt lat="43.8317689" lon="12.4277044"><ele>621.0</ele><time>2026-05-02T15:23:37.327Z</time></trkpt><trkpt lat="43.8316889" lon="12.4277992"><ele>623.0</ele><time>2026-05-02T15:23:38.325Z</time></trkpt><trkpt lat="43.8315913" lon="12.4278749"><ele>625.0</ele><time>2026-05-02T15:23:39.326Z</time></trkpt><trkpt lat="43.8314796" lon="12.4279208"><ele>627.0</ele><time>2026-05-02T15:23:40.326Z</time></trkpt><trkpt lat="43.8313673" lon="12.4279354"><ele>627.0</ele><time>2026-05-02T15:23:41.326Z</time></trkpt><trkpt lat="43.831257" lon="12.4279279"><ele>627.0</ele><time>2026-05-02T15:23:42.323Z</time></trkpt><trkpt lat="43.8311467" lon="12.4279076"><ele>627.0</ele><time>2026-05-02T15:23:43.326Z</time></trkpt><trkpt lat="43.8310349" lon="12.4279048"><ele>627.0</ele><time>2026-05-02T15:23:44.323Z</time></trkpt><trkpt lat="43.8309238" lon="12.4279141"><ele>627.0</ele><time>2026-05-02T15:23:45.326Z</time></trkpt><trkpt lat="43.8308132" lon="12.4279471"><ele>623.75</ele><time>2026-05-02T15:23:46.32Z</time></trkpt><trkpt lat="43.8307057" lon="12.4279993"><ele>620.5</ele><time>2026-05-02T15:23:47.326Z</time></trkpt><trkpt lat="43.8306037" lon="12.4280706"><ele>617.25</ele><time>2026-05-02T15:23:48.321Z</time></trkpt><trkpt lat="43.830512" lon="12.4281531"><ele>614.0</ele><time>2026-05-02T15:23:49.324Z</time></trkpt><trkpt lat="43.8304229" lon="12.4282534"><ele>614.0</ele><time>2026-05-02T15:23:50.327Z</time></trkpt><trkpt lat="43.8303447" lon="12.4283769"><ele>614.0</ele><time>2026-05-02T15:23:51.327Z</time></trkpt><trkpt lat="43.8302828" lon="12.4285148"><ele>614.0</ele><time>2026-05-02T15:23:52.328Z</time></trkpt><trkpt lat="43.8302394" lon="12.4286569"><ele>614.0</ele><time>2026-05-02T15:23:53.322Z</time></trkpt><trkpt lat="43.8302068" lon="12.4288091"><ele>610.3333333333333</ele><time>2026-05-02T15:23:54.326Z</time></trkpt><trkpt lat="43.8302011" lon="12.4289805"><ele>606.6666666666666</ele><time>2026-05-02T15:23:55.326Z</time></trkpt><trkpt lat="43.8302187" lon="12.4291939"><ele>603.0</ele><time>2026-05-02T15:23:56.325Z</time></trkpt><trkpt lat="43.8302477" lon="12.4294462"><ele>602.0</ele><time>2026-05-02T15:23:57.324Z</time></trkpt><trkpt lat="43.8302818" lon="12.4296937"><ele>601.0</ele><time>2026-05-02T15:23:58.324Z</time></trkpt><trkpt lat="43.8303124" lon="12.4299446"><ele>600.0</ele><time>2026-05-02T15:23:59.326Z</time></trkpt><trkpt lat="43.8303228" lon="12.4302148"><ele>598.6666666666666</ele><time>2026-05-02T15:24:00.318Z</time></trkpt><trkpt lat="43.8303011" lon="12.4304979"><ele>597.3333333333333</ele><time>2026-05-02T15:24:01.324Z</time></trkpt><trkpt lat="43.8302539" lon="12.430789"><ele>596.0</ele><time>2026-05-02T15:24:02.325Z</time></trkpt><trkpt lat="43.8302041" lon="12.4310868"><ele>595.0</ele><time>2026-05-02T15:24:03.326Z</time></trkpt><trkpt lat="43.8301547" lon="12.4313761"><ele>594.0</ele><time>2026-05-02T15:24:04.326Z</time></trkpt><trkpt lat="43.8301078" lon="12.4316567"><ele>593.0</ele><time>2026-05-02T15:24:05.326Z</time></trkpt><trkpt lat="43.8300742" lon="12.431929"><ele>593.3333333333333</ele><time>2026-05-02T15:24:06.325Z</time></trkpt><trkpt lat="43.83007" lon="12.4321966"><ele>593.6666666666666</ele><time>2026-05-02T15:24:07.325Z</time></trkpt><trkpt lat="43.8300886" lon="12.4324566"><ele>594.0</ele><time>2026-05-02T15:24:08.325Z</time></trkpt><trkpt lat="43.8301175" lon="12.4327034"><ele>594.0</ele><time>2026-05-02T15:24:09.324Z</time></trkpt><trkpt lat="43.8301379" lon="12.4329256"><ele>594.0</ele><time>2026-05-02T15:24:10.327Z</time></trkpt><trkpt lat="43.8301594" lon="12.4331188"><ele>594.0</ele><time>2026-05-02T15:24:11.326Z</time></trkpt><trkpt lat="43.8301709" lon="12.433293"><ele>594.0</ele><time>2026-05-02T15:24:12.323Z</time></trkpt><trkpt lat="43.830141" lon="12.4334477"><ele>592.75</ele><time>2026-05-02T15:24:13.327Z</time></trkpt><trkpt lat="43.8300727" lon="12.4335728"><ele>591.5</ele><time>2026-05-02T15:24:14.323Z</time></trkpt><trkpt lat="43.8299854" lon="12.4336494"><ele>590.25</ele><time>2026-05-02T15:24:15.325Z</time></trkpt><trkpt lat="43.8299036" lon="12.4337261"><ele>589.0</ele><time>2026-05-02T15:24:16.321Z</time></trkpt><trkpt lat="43.829782" lon="12.4336106"><ele>589.0</ele><time>2026-05-02T15:24:17.326Z</time></trkpt><trkpt lat="43.8296884" lon="12.4334936"><ele>589.0</ele><time>2026-05-02T15:24:18.326Z</time></trkpt><trkpt lat="43.8296025" lon="12.4333454"><ele>589.0</ele><time>2026-05-02T15:24:19.325Z</time></trkpt><trkpt lat="43.8295194" lon="12.433171"><ele>589.0</ele><time>2026-05-02T15:24:20.324Z</time></trkpt><trkpt lat="43.8294561" lon="12.4329812"><ele>590.25</ele><time>2026-05-02T15:24:21.326Z</time></trkpt><trkpt lat="43.8293902" lon="12.4328137"><ele>591.5</ele><time>2026-05-02T15:24:22.325Z</time></trkpt><trkpt lat="43.8293264" lon="12.4326714"><ele>592.75</ele><time>2026-05-02T15:24:23.326Z</time></trkpt><trkpt lat="43.8292486" lon="12.4325673"><ele>594.0</ele><time>2026-05-02T15:24:24.326Z</time></trkpt><trkpt lat="43.8291533" lon="12.4325213"><ele>591.2</ele><time>2026-05-02T15:24:25.325Z</time></trkpt><trkpt lat="43.8290644" lon="12.4325475"><ele>588.4</ele><time>2026-05-02T15:24:26.325Z</time></trkpt><trkpt lat="43.8289962" lon="12.4326064"><ele>585.6</ele><time>2026-05-02T15:24:27.327Z</time></trkpt><trkpt lat="43.8289566" lon="12.4327742"><ele>582.8</ele><time>2026-05-02T15:24:28.324Z</time></trkpt><trkpt lat="43.828939" lon="12.4329506"><ele>580.0</ele><time>2026-05-02T15:24:29.326Z</time></trkpt><trkpt lat="43.8289372" lon="12.4331546"><ele>578.6666666666667</ele><time>2026-05-02T15:24:30.325Z</time></trkpt><trkpt lat="43.8289368" lon="12.43339"><ele>577.3333333333334</ele><time>2026-05-02T15:24:31.327Z</time></trkpt><trkpt lat="43.828926" lon="12.4336135"><ele>576.0</ele><time>2026-05-02T15:24:32.325Z</time></trkpt><trkpt lat="43.828921" lon="12.4338386"><ele>574.3333333333334</ele><time>2026-05-02T15:24:33.326Z</time></trkpt><trkpt lat="43.8289099" lon="12.4340587"><ele>572.6666666666667</ele><time>2026-05-02T15:24:34.324Z</time></trkpt><trkpt lat="43.8288971" lon="12.4342801"><ele>571.0</ele><time>2026-05-02T15:24:35.324Z</time></trkpt><trkpt lat="43.8288822" lon="12.4344869"><ele>571.4</ele><time>2026-05-02T15:24:36.321Z</time></trkpt><trkpt lat="43.828875" lon="12.434686"><ele>571.8</ele><time>2026-05-02T15:24:37.326Z</time></trkpt><trkpt lat="43.8288569" lon="12.4348229"><ele>572.1999999999999</ele><time>2026-05-02T15:24:38.319Z</time></trkpt><trkpt lat="43.8288086" lon="12.4349486"><ele>572.6</ele><time>2026-05-02T15:24:39.327Z</time></trkpt><trkpt lat="43.8287354" lon="12.4350433"><ele>573.0</ele><time>2026-05-02T15:24:40.323Z</time></trkpt><trkpt lat="43.8286455" lon="12.4350968"><ele>573.0</ele><time>2026-05-02T15:24:41.325Z</time></trkpt><trkpt lat="43.8285385" lon="12.4351381"><ele>573.0</ele><time>2026-05-02T15:24:42.325Z</time></trkpt><trkpt lat="43.828426" lon="12.4351913"><ele>573.0</ele><time>2026-05-02T15:24:43.328Z</time></trkpt><trkpt lat="43.8282958" lon="12.4352574"><ele>573.0</ele><time>2026-05-02T15:24:44.323Z</time></trkpt><trkpt lat="43.828194" lon="12.4353721"><ele>570.75</ele><time>2026-05-02T15:24:45.347Z</time></trkpt><trkpt lat="43.8280974" lon="12.4354878"><ele>568.5</ele><time>2026-05-02T15:24:46.325Z</time></trkpt><trkpt lat="43.8280109" lon="12.4355974"><ele>566.25</ele><time>2026-05-02T15:24:47.325Z</time></trkpt><trkpt lat="43.8279697" lon="12.4357689"><ele>564.0</ele><time>2026-05-02T15:24:48.325Z</time></trkpt><trkpt lat="43.8279115" lon="12.4359292"><ele>564.0</ele><time>2026-05-02T15:24:49.325Z</time></trkpt><trkpt lat="43.827906" lon="12.4360909"><ele>564.0</ele><time>2026-05-02T15:24:50.326Z</time></trkpt><trkpt lat="43.8278025" lon="12.4362498"><ele>564.0</ele><time>2026-05-02T15:24:51.327Z</time></trkpt><trkpt lat="43.8277132" lon="12.4364094"><ele>564.0</ele><time>2026-05-02T15:24:52.318Z</time></trkpt><trkpt lat="43.8275967" lon="12.4365002"><ele>559.0</ele><time>2026-05-02T15:24:53.328Z</time></trkpt><trkpt lat="43.8274879" lon="12.4366061"><ele>554.0</ele><time>2026-05-02T15:24:54.318Z</time></trkpt><trkpt lat="43.8273607" lon="12.4366499"><ele>549.0</ele><time>2026-05-02T15:24:55.329Z</time></trkpt><trkpt lat="43.8271757" lon="12.436618"><ele>549.0</ele><time>2026-05-02T15:24:56.326Z</time></trkpt><trkpt lat="43.826977" lon="12.4365702"><ele>549.0</ele><time>2026-05-02T15:24:57.328Z</time></trkpt><trkpt lat="43.826805" lon="12.436561"><ele>549.0</ele><time>2026-05-02T15:24:58.327Z</time></trkpt><trkpt lat="43.8266666" lon="12.4365956"><ele>545.5</ele><time>2026-05-02T15:24:59.326Z</time></trkpt><trkpt lat="43.8265356" lon="12.4366648"><ele>542.0</ele><time>2026-05-02T15:25:00.325Z</time></trkpt><trkpt lat="43.8264632" lon="12.4367861"><ele>538.5</ele><time>2026-05-02T15:25:01.328Z</time></trkpt><trkpt lat="43.8264039" lon="12.4369171"><ele>535.0</ele><time>2026-05-02T15:25:02.329Z</time></trkpt><trkpt lat="43.8263517" lon="12.4370561"><ele>535.5</ele><time>2026-05-02T15:25:03.326Z</time></trkpt><trkpt lat="43.8263118" lon="12.4372179"><ele>536.0</ele><time>2026-05-02T15:25:04.324Z</time></trkpt><trkpt lat="43.8263402" lon="12.4374075"><ele>536.5</ele><time>2026-05-02T15:25:05.323Z</time></trkpt><trkpt lat="43.8264074" lon="12.4375692"><ele>537.0</ele><time>2026-05-02T15:25:06.328Z</time></trkpt><trkpt lat="43.8264632" lon="12.4377067"><ele>537.0</ele><time>2026-05-02T15:25:07.326Z</time></trkpt><trkpt lat="43.8267131" lon="12.4378662"><ele>537.0</ele><time>2026-05-02T15:25:08.322Z</time></trkpt><trkpt lat="43.826874" lon="12.438014"><ele>536.5</ele><time>2026-05-02T15:25:09.327Z</time></trkpt><trkpt lat="43.8270827" lon="12.4381494"><ele>536.0</ele><time>2026-05-02T15:25:10.323Z</time></trkpt><trkpt lat="43.8272948" lon="12.4382931"><ele>536.0</ele><time>2026-05-02T15:25:11.326Z</time></trkpt><trkpt lat="43.8274706" lon="12.4383955"><ele>536.0</ele><time>2026-05-02T15:25:12.323Z</time></trkpt><trkpt lat="43.8276287" lon="12.4385446"><ele>536.0</ele><time>2026-05-02T15:25:13.326Z</time></trkpt><trkpt lat="43.827679" lon="12.4388085"><ele>538.3333333333333</ele><time>2026-05-02T15:25:14.324Z</time></trkpt><trkpt lat="43.8277559" lon="12.4389992"><ele>540.6666666666666</ele><time>2026-05-02T15:25:15.323Z</time></trkpt><trkpt lat="43.8278005" lon="12.4392738"><ele>543.0</ele><time>2026-05-02T15:25:16.325Z</time></trkpt><trkpt lat="43.8278006" lon="12.4394909"><ele>542.3333333333334</ele><time>2026-05-02T15:25:17.326Z</time></trkpt><trkpt lat="43.8277009" lon="12.4397898"><ele>541.6666666666667</ele><time>2026-05-02T15:25:18.323Z</time></trkpt><trkpt lat="43.8276818" lon="12.4400461"><ele>541.0</ele><time>2026-05-02T15:25:19.325Z</time></trkpt><trkpt lat="43.8276187" lon="12.4403018"><ele>532.6666666666667</ele><time>2026-05-02T15:25:20.324Z</time></trkpt><trkpt lat="43.827576" lon="12.4405567"><ele>524.3333333333334</ele><time>2026-05-02T15:25:21.383Z</time></trkpt><trkpt lat="43.8274599" lon="12.4407391"><ele>516.0</ele><time>2026-05-02T15:25:22.323Z</time></trkpt><trkpt lat="43.8273525" lon="12.4409238"><ele>516.0</ele><time>2026-05-02T15:25:23.324Z</time></trkpt><trkpt lat="43.827243" lon="12.4411066"><ele>516.0</ele><time>2026-05-02T15:25:24.323Z</time></trkpt><trkpt lat="43.8271099" lon="12.4412582"><ele>516.0</ele><time>2026-05-02T15:25:25.324Z</time></trkpt><trkpt lat="43.8269811" lon="12.4413811"><ele>517.3333333333334</ele><time>2026-05-02T15:25:26.319Z</time></trkpt><trkpt lat="43.826849" lon="12.4415081"><ele>518.6666666666667</ele><time>2026-05-02T15:25:27.327Z</time></trkpt><trkpt lat="43.8267197" lon="12.4416609"><ele>520.0</ele><time>2026-05-02T15:25:28.323Z</time></trkpt><trkpt lat="43.8265896" lon="12.441745"><ele>513.6666666666667</ele><time>2026-05-02T15:25:29.325Z</time></trkpt><trkpt lat="43.826443" lon="12.4418525"><ele>507.33333333333337</ele><time>2026-05-02T15:25:30.326Z</time></trkpt><trkpt lat="43.8263139" lon="12.4419727"><ele>501.0</ele><time>2026-05-02T15:25:31.325Z</time></trkpt><trkpt lat="43.8261608" lon="12.4419784"><ele>501.0</ele><time>2026-05-02T15:25:32.326Z</time></trkpt><trkpt lat="43.8260236" lon="12.4420335"><ele>501.0</ele><time>2026-05-02T15:25:33.326Z</time></trkpt><trkpt lat="43.8258648" lon="12.4421291"><ele>501.0</ele><time>2026-05-02T15:25:34.324Z</time></trkpt><trkpt lat="43.8257538" lon="12.4423139"><ele>497.66666666666663</ele><time>2026-05-02T15:25:35.322Z</time></trkpt><trkpt lat="43.8256494" lon="12.4424704"><ele>494.3333333333333</ele><time>2026-05-02T15:25:36.323Z</time></trkpt><trkpt lat="43.8255447" lon="12.4426258"><ele>491.0</ele><time>2026-05-02T15:25:37.325Z</time></trkpt><trkpt lat="43.8254376" lon="12.4427949"><ele>490.5</ele><time>2026-05-02T15:25:38.326Z</time></trkpt><trkpt lat="43.8253735" lon="12.4429908"><ele>490.0</ele><time>2026-05-02T15:25:39.317Z</time></trkpt><trkpt lat="43.8253938" lon="12.4431955"><ele>489.5</ele><time>2026-05-02T15:25:40.325Z</time></trkpt><trkpt lat="43.8254321" lon="12.4433745"><ele>489.0</ele><time>2026-05-02T15:25:41.327Z</time></trkpt><trkpt lat="43.8254621" lon="12.4435359"><ele>489.0</ele><time>2026-05-02T15:25:42.317Z</time></trkpt><trkpt lat="43.825505" lon="12.4436393"><ele>489.0</ele><time>2026-05-02T15:25:43.326Z</time></trkpt><trkpt lat="43.8256128" lon="12.4437067"><ele>489.0</ele><time>2026-05-02T15:25:44.325Z</time></trkpt><trkpt lat="43.8257024" lon="12.4437497"><ele>489.0</ele><time>2026-05-02T15:25:45.324Z</time></trkpt><trkpt lat="43.8258282" lon="12.44376"><ele>489.0</ele><time>2026-05-02T15:25:46.325Z</time></trkpt><trkpt lat="43.8260656" lon="12.4436875"><ele>487.33333333333337</ele><time>2026-05-02T15:25:47.325Z</time></trkpt><trkpt lat="43.8261993" lon="12.4436446"><ele>485.6666666666667</ele><time>2026-05-02T15:25:48.325Z</time></trkpt><trkpt lat="43.8263664" lon="12.4436117"><ele>484.0</ele><time>2026-05-02T15:25:49.326Z</time></trkpt><trkpt lat="43.8266811" lon="12.4436134"><ele>484.0</ele><time>2026-05-02T15:25:51.325Z</time></trkpt><trkpt lat="43.8268088" lon="12.4436251"><ele>484.0</ele><time>2026-05-02T15:25:52.325Z</time></trkpt><trkpt lat="43.8269201" lon="12.4437012"><ele>484.0</ele><time>2026-05-02T15:25:53.325Z</time></trkpt><trkpt lat="43.8270496" lon="12.4437462"><ele>484.0</ele><time>2026-05-02T15:25:54.323Z</time></trkpt><trkpt lat="43.8271066" lon="12.4438391"><ele>483.0</ele><time>2026-05-02T15:25:55.326Z</time></trkpt><trkpt lat="43.8271305" lon="12.4440161"><ele>482.0</ele><time>2026-05-02T15:25:56.327Z</time></trkpt><trkpt lat="43.8270523" lon="12.4441678"><ele>481.0</ele><time>2026-05-02T15:25:57.324Z</time></trkpt><trkpt lat="43.8270235" lon="12.4442998"><ele>480.0</ele><time>2026-05-02T15:25:58.325Z</time></trkpt><trkpt lat="43.8269659" lon="12.4444119"><ele>480.0</ele><time>2026-05-02T15:25:59.326Z</time></trkpt><trkpt lat="43.8268891" lon="12.4445031"><ele>480.0</ele><time>2026-05-02T15:26:00.324Z</time></trkpt><trkpt lat="43.8268064" lon="12.444491"><ele>480.0</ele><time>2026-05-02T15:26:01.325Z</time></trkpt><trkpt lat="43.8267351" lon="12.4444794"><ele>480.0</ele><time>2026-05-02T15:26:02.323Z</time></trkpt><trkpt lat="43.8266576" lon="12.4444734"><ele>480.0</ele><time>2026-05-02T15:26:03.323Z</time></trkpt><trkpt lat="43.8265652" lon="12.4444076"><ele>480.0</ele><time>2026-05-02T15:26:04.324Z</time></trkpt><trkpt lat="43.8264645" lon="12.4443486"><ele>476.66666666666663</ele><time>2026-05-02T15:26:05.326Z</time></trkpt><trkpt lat="43.8263371" lon="12.4442795"><ele>473.3333333333333</ele><time>2026-05-02T15:26:06.323Z</time></trkpt><trkpt lat="43.8261533" lon="12.4443474"><ele>470.0</ele><time>2026-05-02T15:26:07.325Z</time></trkpt><trkpt lat="43.8260274" lon="12.4444162"><ele>469.66666666666663</ele><time>2026-05-02T15:26:08.327Z</time></trkpt><trkpt lat="43.8258365" lon="12.4446066"><ele>469.33333333333337</ele><time>2026-05-02T15:26:09.321Z</time></trkpt><trkpt lat="43.8256603" lon="12.4447367"><ele>469.0</ele><time>2026-05-02T15:26:10.324Z</time></trkpt><trkpt lat="43.8254853" lon="12.4448856"><ele>466.33333333333337</ele><time>2026-05-02T15:26:11.323Z</time></trkpt><trkpt lat="43.825326" lon="12.4450603"><ele>463.66666666666663</ele><time>2026-05-02T15:26:12.323Z</time></trkpt><trkpt lat="43.8251887" lon="12.4452316"><ele>461.0</ele><time>2026-05-02T15:26:13.321Z</time></trkpt><trkpt lat="43.8250427" lon="12.4454156"><ele>456.0</ele><time>2026-05-02T15:26:14.321Z</time></trkpt><trkpt lat="43.8249148" lon="12.4456108"><ele>451.0</ele><time>2026-05-02T15:26:15.321Z</time></trkpt><trkpt lat="43.8248899" lon="12.4459649"><ele>446.0</ele><time>2026-05-02T15:26:16.346Z</time></trkpt><trkpt lat="43.8247956" lon="12.4462344"><ele>442.3333333333333</ele><time>2026-05-02T15:26:17.323Z</time></trkpt><trkpt lat="43.8247182" lon="12.4465103"><ele>438.66666666666663</ele><time>2026-05-02T15:26:18.323Z</time></trkpt><trkpt lat="43.8246578" lon="12.4467921"><ele>435.0</ele><time>2026-05-02T15:26:19.324Z</time></trkpt><trkpt lat="43.8245997" lon="12.4470752"><ele>433.33333333333337</ele><time>2026-05-02T15:26:20.324Z</time></trkpt><trkpt lat="43.8245523" lon="12.4473348"><ele>431.6666666666667</ele><time>2026-05-02T15:26:21.323Z</time></trkpt><trkpt lat="43.8244936" lon="12.4475916"><ele>430.0</ele><time>2026-05-02T15:26:22.323Z</time></trkpt><trkpt lat="43.8244463" lon="12.4478322"><ele>429.25</ele><time>2026-05-02T15:26:23.323Z</time></trkpt><trkpt lat="43.8244085" lon="12.448073"><ele>428.5</ele><time>2026-05-02T15:26:24.325Z</time></trkpt><trkpt lat="43.8243558" lon="12.4482874"><ele>427.75</ele><time>2026-05-02T15:26:25.317Z</time></trkpt><trkpt lat="43.8242728" lon="12.4483668"><ele>427.0</ele><time>2026-05-02T15:26:26.323Z</time></trkpt><trkpt lat="43.8241833" lon="12.4484769"><ele>427.0</ele><time>2026-05-02T15:26:27.323Z</time></trkpt><trkpt lat="43.8240825" lon="12.4485179"><ele>427.0</ele><time>2026-05-02T15:26:28.324Z</time></trkpt><trkpt lat="43.8239804" lon="12.448554"><ele>427.0</ele><time>2026-05-02T15:26:29.323Z</time></trkpt><trkpt lat="43.8238593" lon="12.4484833"><ele>427.0</ele><time>2026-05-02T15:26:30.32Z</time></trkpt><trkpt lat="43.8236896" lon="12.4484196"><ele>427.0</ele><time>2026-05-02T15:26:31.324Z</time></trkpt><trkpt lat="43.8234886" lon="12.4483172"><ele>427.0</ele><time>2026-05-02T15:26:32.321Z</time></trkpt><trkpt lat="43.8233282" lon="12.4482042"><ele>427.0</ele><time>2026-05-02T15:26:33.323Z</time></trkpt><trkpt lat="43.8231664" lon="12.448039"><ele>431.0</ele><time>2026-05-02T15:26:34.323Z</time></trkpt><trkpt lat="43.8230138" lon="12.4478677"><ele>435.0</ele><time>2026-05-02T15:26:35.328Z</time></trkpt><trkpt lat="43.8228635" lon="12.4476994"><ele>439.0</ele><time>2026-05-02T15:26:36.321Z</time></trkpt><trkpt lat="43.8227175" lon="12.4475617"><ele>431.33333333333337</ele><time>2026-05-02T15:26:37.323Z</time></trkpt><trkpt lat="43.8225604" lon="12.4474075"><ele>423.66666666666663</ele><time>2026-05-02T15:26:38.323Z</time></trkpt><trkpt lat="43.8223956" lon="12.4473007"><ele>416.0</ele><time>2026-05-02T15:26:39.325Z</time></trkpt><trkpt lat="43.822231" lon="12.4472325"><ele>416.0</ele><time>2026-05-02T15:26:40.323Z</time></trkpt><trkpt lat="43.8220382" lon="12.4472026"><ele>416.0</ele><time>2026-05-02T15:26:41.323Z</time></trkpt><trkpt lat="43.8218405" lon="12.4472024"><ele>416.0</ele><time>2026-05-02T15:26:42.324Z</time></trkpt><trkpt lat="43.8216528" lon="12.4472451"><ele>412.66666666666663</ele><time>2026-05-02T15:26:43.323Z</time></trkpt><trkpt lat="43.8214722" lon="12.4473102"><ele>409.33333333333337</ele><time>2026-05-02T15:26:44.325Z</time></trkpt><trkpt lat="43.8212811" lon="12.4473874"><ele>406.0</ele><time>2026-05-02T15:26:45.318Z</time></trkpt><trkpt lat="43.8210695" lon="12.4474359"><ele>406.0</ele><time>2026-05-02T15:26:46.321Z</time></trkpt><trkpt lat="43.820855" lon="12.447448"><ele>406.0</ele><time>2026-05-02T15:26:47.319Z</time></trkpt><trkpt lat="43.8206348" lon="12.4474594"><ele>406.0</ele><time>2026-05-02T15:26:48.323Z</time></trkpt><trkpt lat="43.8204332" lon="12.4474918"><ele>406.0</ele><time>2026-05-02T15:26:49.323Z</time></trkpt><trkpt lat="43.8202354" lon="12.4475488"><ele>406.0</ele><time>2026-05-02T15:26:50.324Z</time></trkpt><trkpt lat="43.8200301" lon="12.4476411"><ele>406.0</ele><time>2026-05-02T15:26:51.324Z</time></trkpt><trkpt lat="43.8198458" lon="12.4477222"><ele>407.0</ele><time>2026-05-02T15:26:52.323Z</time></trkpt><trkpt lat="43.8196651" lon="12.4478339"><ele>408.0</ele><time>2026-05-02T15:26:53.322Z</time></trkpt><trkpt lat="43.8194755" lon="12.4479284"><ele>409.0</ele><time>2026-05-02T15:26:54.324Z</time></trkpt><trkpt lat="43.8192748" lon="12.448001"><ele>401.0</ele><time>2026-05-02T15:26:55.324Z</time></trkpt><trkpt lat="43.8190982" lon="12.4480349"><ele>393.0</ele><time>2026-05-02T15:26:56.323Z</time></trkpt><trkpt lat="43.8189156" lon="12.448043"><ele>385.0</ele><time>2026-05-02T15:26:57.322Z</time></trkpt><trkpt lat="43.8187309" lon="12.4479938"><ele>389.33333333333337</ele><time>2026-05-02T15:26:58.323Z</time></trkpt><trkpt lat="43.8185495" lon="12.4478977"><ele>393.66666666666663</ele><time>2026-05-02T15:26:59.325Z</time></trkpt><trkpt lat="43.818371" lon="12.4477729"><ele>398.0</ele><time>2026-05-02T15:27:00.323Z</time></trkpt><trkpt lat="43.8181934" lon="12.4476343"><ele>398.0</ele><time>2026-05-02T15:27:01.318Z</time></trkpt><trkpt lat="43.8180161" lon="12.4474907"><ele>398.0</ele><time>2026-05-02T15:27:02.321Z</time></trkpt><trkpt lat="43.8178399" lon="12.4473562"><ele>398.0</ele><time>2026-05-02T15:27:03.323Z</time></trkpt><trkpt lat="43.8176212" lon="12.4472212"><ele>391.0</ele><time>2026-05-02T15:27:04.325Z</time></trkpt><trkpt lat="43.8173874" lon="12.4471745"><ele>384.0</ele><time>2026-05-02T15:27:05.323Z</time></trkpt><trkpt lat="43.8171764" lon="12.4471329"><ele>377.0</ele><time>2026-05-02T15:27:06.324Z</time></trkpt><trkpt lat="43.8169532" lon="12.447129"><ele>374.33333333333337</ele><time>2026-05-02T15:27:07.32Z</time></trkpt><trkpt lat="43.8167454" lon="12.4471351"><ele>371.6666666666667</ele><time>2026-05-02T15:27:08.321Z</time></trkpt><trkpt lat="43.8165449" lon="12.4471404"><ele>369.0</ele><time>2026-05-02T15:27:09.324Z</time></trkpt><trkpt lat="43.8163437" lon="12.4471521"><ele>371.0</ele><time>2026-05-02T15:27:10.322Z</time></trkpt><trkpt lat="43.8161462" lon="12.4471265"><ele>373.0</ele><time>2026-05-02T15:27:11.324Z</time></trkpt><trkpt lat="43.8159468" lon="12.4470811"><ele>375.0</ele><time>2026-05-02T15:27:12.323Z</time></trkpt><trkpt lat="43.8157541" lon="12.4470016"><ele>375.0</ele><time>2026-05-02T15:27:13.323Z</time></trkpt><trkpt lat="43.8155817" lon="12.446909"><ele>375.0</ele><time>2026-05-02T15:27:14.321Z</time></trkpt><trkpt lat="43.8154254" lon="12.4468478"><ele>375.0</ele><time>2026-05-02T15:27:15.321Z</time></trkpt><trkpt lat="43.8152845" lon="12.4467903"><ele>371.25</ele><time>2026-05-02T15:27:16.322Z</time></trkpt><trkpt lat="43.8151539" lon="12.4467193"><ele>367.5</ele><time>2026-05-02T15:27:17.321Z</time></trkpt><trkpt lat="43.8150295" lon="12.4466254"><ele>363.75</ele><time>2026-05-02T15:27:18.323Z</time></trkpt><trkpt lat="43.8149123" lon="12.4464629"><ele>360.0</ele><time>2026-05-02T15:27:19.325Z</time></trkpt><trkpt lat="43.8148202" lon="12.446322"><ele>361.0</ele><time>2026-05-02T15:27:20.326Z</time></trkpt><trkpt lat="43.8147198" lon="12.4461729"><ele>362.0</ele><time>2026-05-02T15:27:21.324Z</time></trkpt><trkpt lat="43.8147011" lon="12.4458967"><ele>363.0</ele><time>2026-05-02T15:27:22.324Z</time></trkpt><trkpt lat="43.8146286" lon="12.4456754"><ele>363.0</ele><time>2026-05-02T15:27:23.326Z</time></trkpt><trkpt lat="43.8145156" lon="12.4454827"><ele>363.0</ele><time>2026-05-02T15:27:24.32Z</time></trkpt><trkpt lat="43.8144145" lon="12.4452774"><ele>363.0</ele><time>2026-05-02T15:27:25.325Z</time></trkpt><trkpt lat="43.8143004" lon="12.4451063"><ele>357.3333333333333</ele><time>2026-05-02T15:27:26.324Z</time></trkpt><trkpt lat="43.814155" lon="12.4449214"><ele>351.66666666666663</ele><time>2026-05-02T15:27:27.324Z</time></trkpt><trkpt lat="43.8140107" lon="12.4447607"><ele>346.0</ele><time>2026-05-02T15:27:28.325Z</time></trkpt><trkpt lat="43.8138654" lon="12.4445934"><ele>346.0</ele><time>2026-05-02T15:27:29.324Z</time></trkpt><trkpt lat="43.8136844" lon="12.4444628"><ele>346.0</ele><time>2026-05-02T15:27:30.324Z</time></trkpt><trkpt lat="43.8135219" lon="12.4443195"><ele>346.0</ele><time>2026-05-02T15:27:31.324Z</time></trkpt><trkpt lat="43.8133652" lon="12.4441801"><ele>344.0</ele><time>2026-05-02T15:27:32.325Z</time></trkpt><trkpt lat="43.813183" lon="12.4440629"><ele>342.0</ele><time>2026-05-02T15:27:33.323Z</time></trkpt><trkpt lat="43.8130046" lon="12.4439336"><ele>340.0</ele><time>2026-05-02T15:27:34.321Z</time></trkpt><trkpt lat="43.8128373" lon="12.4438637"><ele>341.66666666666663</ele><time>2026-05-02T15:27:35.324Z</time></trkpt><trkpt lat="43.8126491" lon="12.4438108"><ele>343.3333333333333</ele><time>2026-05-02T15:27:36.324Z</time></trkpt><trkpt lat="43.812454" lon="12.4437706"><ele>345.0</ele><time>2026-05-02T15:27:37.325Z</time></trkpt><trkpt lat="43.8122549" lon="12.4437446"><ele>341.6666666666667</ele><time>2026-05-02T15:27:38.325Z</time></trkpt><trkpt lat="43.8120507" lon="12.4437241"><ele>338.33333333333337</ele><time>2026-05-02T15:27:39.325Z</time></trkpt><trkpt lat="43.811854" lon="12.4437044"><ele>335.0</ele><time>2026-05-02T15:27:40.326Z</time></trkpt><trkpt lat="43.8116632" lon="12.4436807"><ele>335.0</ele><time>2026-05-02T15:27:41.324Z</time></trkpt><trkpt lat="43.811486" lon="12.443639"><ele>335.0</ele><time>2026-05-02T15:27:42.325Z</time></trkpt><trkpt lat="43.8113248" lon="12.4435362"><ele>335.0</ele><time>2026-05-02T15:27:43.325Z</time></trkpt><trkpt lat="43.8111501" lon="12.4434649"><ele>337.6666666666667</ele><time>2026-05-02T15:27:44.323Z</time></trkpt><trkpt lat="43.810976" lon="12.4433889"><ele>340.3333333333333</ele><time>2026-05-02T15:27:45.324Z</time></trkpt><trkpt lat="43.810803" lon="12.443339"><ele>343.0</ele><time>2026-05-02T15:27:46.325Z</time></trkpt><trkpt lat="43.8106382" lon="12.4432835"><ele>343.0</ele><time>2026-05-02T15:27:47.325Z</time></trkpt><trkpt lat="43.8104624" lon="12.4432279"><ele>343.0</ele><time>2026-05-02T15:27:48.324Z</time></trkpt><trkpt lat="43.8102893" lon="12.4431767"><ele>343.0</ele><time>2026-05-02T15:27:49.324Z</time></trkpt><trkpt lat="43.8101857" lon="12.4431619"><ele>342.3333333333333</ele><time>2026-05-02T15:27:50.323Z</time></trkpt><trkpt lat="43.8099065" lon="12.4430959"><ele>341.6666666666667</ele><time>2026-05-02T15:27:52.323Z</time></trkpt><trkpt lat="43.8097702" lon="12.4430848"><ele>341.0</ele><time>2026-05-02T15:27:53.324Z</time></trkpt><trkpt lat="43.8096464" lon="12.4430732"><ele>341.0</ele><time>2026-05-02T15:27:54.326Z</time></trkpt><trkpt lat="43.809574" lon="12.4430994"><ele>341.0</ele><time>2026-05-02T15:27:55.327Z</time></trkpt><trkpt lat="43.8094814" lon="12.4431028"><ele>341.0</ele><time>2026-05-02T15:27:56.323Z</time></trkpt><trkpt lat="43.8094096" lon="12.4430807"><ele>341.0</ele><time>2026-05-02T15:27:58.324Z</time></trkpt><trkpt lat="43.8093688" lon="12.44301"><ele>341.0</ele><time>2026-05-02T15:28:01.324Z</time></trkpt><trkpt lat="43.8092822" lon="12.4430058"><ele>341.0</ele><time>2026-05-02T15:28:33.325Z</time></trkpt><trkpt lat="43.8093029" lon="12.4430977"><ele>341.0</ele><time>2026-05-02T15:28:36.324Z</time></trkpt><trkpt lat="43.8093583" lon="12.443036"><ele>341.0</ele><time>2026-05-02T15:28:37.324Z</time></trkpt><trkpt lat="43.8094339" lon="12.4429963"><ele>341.0</ele><time>2026-05-02T15:28:38.324Z</time></trkpt><trkpt lat="43.8095332" lon="12.4429371"><ele>341.0</ele><time>2026-05-02T15:28:39.325Z</time></trkpt><trkpt lat="43.8096164" lon="12.4428477"><ele>341.0</ele><time>2026-05-02T15:28:40.326Z</time></trkpt><trkpt lat="43.8096972" lon="12.4427558"><ele>339.20000000000005</ele><time>2026-05-02T15:28:41.323Z</time></trkpt><trkpt lat="43.8097718" lon="12.4426785"><ele>337.40000000000003</ele><time>2026-05-02T15:28:42.323Z</time></trkpt><trkpt lat="43.8098504" lon="12.4425755"><ele>335.6</ele><time>2026-05-02T15:28:43.325Z</time></trkpt><trkpt lat="43.8099338" lon="12.4424873"><ele>333.8</ele><time>2026-05-02T15:28:44.327Z</time></trkpt><trkpt lat="43.8099998" lon="12.4424071"><ele>332.0</ele><time>2026-05-02T15:28:45.324Z</time></trkpt><trkpt lat="43.8100686" lon="12.4423112"><ele>332.0</ele><time>2026-05-02T15:28:46.326Z</time></trkpt><trkpt lat="43.8100893" lon="12.4422001"><ele>332.0</ele><time>2026-05-02T15:28:47.324Z</time></trkpt><trkpt lat="43.810131" lon="12.4421059"><ele>332.0</ele><time>2026-05-02T15:28:48.324Z</time></trkpt><trkpt lat="43.8101684" lon="12.44202"><ele>332.0</ele><time>2026-05-02T15:28:49.32Z</time></trkpt><trkpt lat="43.8101876" lon="12.4419261"><ele>332.0</ele><time>2026-05-02T15:28:50.325Z</time></trkpt><trkpt lat="43.8101659" lon="12.4417765"><ele>332.0</ele><time>2026-05-02T15:28:51.324Z</time></trkpt><trkpt lat="43.8101747" lon="12.4416544"><ele>336.6</ele><time>2026-05-02T15:28:52.323Z</time></trkpt><trkpt lat="43.8101784" lon="12.4414953"><ele>341.20000000000005</ele><time>2026-05-02T15:28:54.317Z</time></trkpt><trkpt lat="43.8101721" lon="12.4413027"><ele>345.8</ele><time>2026-05-02T15:28:56.324Z</time></trkpt><trkpt lat="43.8101697" lon="12.4412015"><ele>350.4</ele><time>2026-05-02T15:28:57.323Z</time></trkpt><trkpt lat="43.8101596" lon="12.4410782"><ele>355.0</ele><time>2026-05-02T15:28:58.331Z</time></trkpt><trkpt lat="43.810145" lon="12.4409724"><ele>355.0</ele><time>2026-05-02T15:28:59.324Z</time></trkpt><trkpt lat="43.8101161" lon="12.4408659"><ele>355.0</ele><time>2026-05-02T15:29:00.327Z</time></trkpt><trkpt lat="43.8101309" lon="12.4407617"><ele>355.0</ele><time>2026-05-02T15:29:01.324Z</time></trkpt><trkpt lat="43.8101316" lon="12.4406278"><ele>355.0</ele><time>2026-05-02T15:29:02.323Z</time></trkpt><trkpt lat="43.8101264" lon="12.4404207"><ele>355.0</ele><time>2026-05-02T15:29:03.324Z</time></trkpt><trkpt lat="43.8101276" lon="12.4402847"><ele>354.6</ele><time>2026-05-02T15:29:04.324Z</time></trkpt><trkpt lat="43.81014" lon="12.4401671"><ele>354.2</ele><time>2026-05-02T15:29:05.322Z</time></trkpt><trkpt lat="43.8101449" lon="12.4400591"><ele>353.79999999999995</ele><time>2026-05-02T15:29:06.324Z</time></trkpt><trkpt lat="43.8101502" lon="12.4398876"><ele>353.4</ele><time>2026-05-02T15:29:08.321Z</time></trkpt><trkpt lat="43.8101676" lon="12.4397517"><ele>353.0</ele><time>2026-05-02T15:29:10.318Z</time></trkpt><trkpt lat="43.8101353" lon="12.4398744"><ele>353.0</ele><time>2026-05-02T15:29:23.323Z</time></trkpt><trkpt lat="43.8101368" lon="12.4399774"><ele>353.0</ele><time>2026-05-02T15:29:25.324Z</time></trkpt><trkpt lat="43.810142" lon="12.4400962"><ele>353.0</ele><time>2026-05-02T15:29:27.325Z</time></trkpt><trkpt lat="43.8101383" lon="12.4401898"><ele>353.0</ele><time>2026-05-02T15:29:29.325Z</time></trkpt><trkpt lat="43.8101289" lon="12.4402785"><ele>353.0</ele><time>2026-05-02T15:29:32.325Z</time></trkpt><trkpt lat="43.8101152" lon="12.4403922"><ele>353.0</ele><time>2026-05-02T15:29:35.325Z</time></trkpt><trkpt lat="43.8101064" lon="12.4404828"><ele>353.0</ele><time>2026-05-02T15:29:37.325Z</time></trkpt><trkpt lat="43.8101052" lon="12.4405729"><ele>353.4</ele><time>2026-05-02T15:29:39.324Z</time></trkpt><trkpt lat="43.8100999" lon="12.4406967"><ele>353.79999999999995</ele><time>2026-05-02T15:29:41.323Z</time></trkpt><trkpt lat="43.8101138" lon="12.4408647"><ele>354.2</ele><time>2026-05-02T15:29:43.326Z</time></trkpt><trkpt lat="43.8101206" lon="12.4410103"><ele>354.6</ele><time>2026-05-02T15:29:45.324Z</time></trkpt><trkpt lat="43.8101278" lon="12.4411811"><ele>355.0</ele><time>2026-05-02T15:29:47.324Z</time></trkpt><trkpt lat="43.8101325" lon="12.44129"><ele>353.8333333333333</ele><time>2026-05-02T15:29:48.326Z</time></trkpt><trkpt lat="43.8101227" lon="12.4413975"><ele>352.66666666666663</ele><time>2026-05-02T15:29:49.326Z</time></trkpt><trkpt lat="43.8101116" lon="12.4415043"><ele>351.5</ele><time>2026-05-02T15:29:50.324Z</time></trkpt><trkpt lat="43.8101063" lon="12.4416265"><ele>350.3333333333333</ele><time>2026-05-02T15:29:51.323Z</time></trkpt><trkpt lat="43.810092" lon="12.4417298"><ele>349.1666666666667</ele><time>2026-05-02T15:29:52.323Z</time></trkpt><trkpt lat="43.8100962" lon="12.4418462"><ele>348.0</ele><time>2026-05-02T15:29:53.324Z</time></trkpt><trkpt lat="43.8101045" lon="12.4419718"><ele>348.0</ele><time>2026-05-02T15:29:54.325Z</time></trkpt><trkpt lat="43.8101173" lon="12.4420911"><ele>348.0</ele><time>2026-05-02T15:29:55.323Z</time></trkpt><trkpt lat="43.8101021" lon="12.4421779"><ele>348.0</ele><time>2026-05-02T15:29:56.325Z</time></trkpt><trkpt lat="43.8100664" lon="12.4422871"><ele>348.0</ele><time>2026-05-02T15:29:57.325Z</time></trkpt><trkpt lat="43.8100121" lon="12.4423799"><ele>348.0</ele><time>2026-05-02T15:29:58.322Z</time></trkpt><trkpt lat="43.8099527" lon="12.4424737"><ele>348.0</ele><time>2026-05-02T15:29:59.321Z</time></trkpt><trkpt lat="43.8098687" lon="12.4425815"><ele>346.59999999999997</ele><time>2026-05-02T15:30:00.324Z</time></trkpt><trkpt lat="43.8097995" lon="12.4426799"><ele>345.2</ele><time>2026-05-02T15:30:01.326Z</time></trkpt><trkpt lat="43.8097132" lon="12.4427858"><ele>343.8</ele><time>2026-05-02T15:30:02.323Z</time></trkpt><trkpt lat="43.8096328" lon="12.442879"><ele>342.4</ele><time>2026-05-02T15:30:03.324Z</time></trkpt><trkpt lat="43.809525" lon="12.4429742"><ele>341.0</ele><time>2026-05-02T15:30:05.321Z</time></trkpt><trkpt lat="43.8094292" lon="12.44303"><ele>341.0</ele><time>2026-05-02T15:30:07.322Z</time></trkpt><trkpt lat="43.8093652" lon="12.4430527"><ele>341.0</ele><time>2026-05-02T15:30:10.325Z</time></trkpt><trkpt lat="43.8093087" lon="12.4431838"><ele>341.0</ele><time>2026-05-02T15:30:19.325Z</time></trkpt><trkpt lat="43.8092453" lon="12.4433203"><ele>341.0</ele><time>2026-05-02T15:30:20.333Z</time></trkpt><trkpt lat="43.8091225" lon="12.4433891"><ele>341.0</ele><time>2026-05-02T15:30:22.325Z</time></trkpt><trkpt lat="43.8090482" lon="12.4433971"><ele>339.6</ele><time>2026-05-02T15:30:23.323Z</time></trkpt><trkpt lat="43.8089586" lon="12.4434106"><ele>338.20000000000005</ele><time>2026-05-02T15:30:24.323Z</time></trkpt><trkpt lat="43.8088644" lon="12.4434164"><ele>336.79999999999995</ele><time>2026-05-02T15:30:25.323Z</time></trkpt><trkpt lat="43.8087473" lon="12.4433931"><ele>335.4</ele><time>2026-05-02T15:30:26.325Z</time></trkpt><trkpt lat="43.808613" lon="12.4434035"><ele>334.0</ele><time>2026-05-02T15:30:27.324Z</time></trkpt><trkpt lat="43.8084799" lon="12.4433929"><ele>334.0</ele><time>2026-05-02T15:30:28.324Z</time></trkpt><trkpt lat="43.808346" lon="12.4433978"><ele>334.0</ele><time>2026-05-02T15:30:29.318Z</time></trkpt><trkpt lat="43.8082099" lon="12.443396"><ele>334.0</ele><time>2026-05-02T15:30:30.324Z</time></trkpt><trkpt lat="43.8080777" lon="12.4434001"><ele>334.0</ele><time>2026-05-02T15:30:31.324Z</time></trkpt><trkpt lat="43.8079423" lon="12.4434079"><ele>334.0</ele><time>2026-05-02T15:30:32.324Z</time></trkpt><trkpt lat="43.807802" lon="12.4434115"><ele>334.0</ele><time>2026-05-02T15:30:33.324Z</time></trkpt><trkpt lat="43.8076728" lon="12.4434156"><ele>334.0</ele><time>2026-05-02T15:30:34.325Z</time></trkpt><trkpt lat="43.8075523" lon="12.4434258"><ele>334.0</ele><time>2026-05-02T15:30:35.323Z</time></trkpt><trkpt lat="43.8074338" lon="12.4434262"><ele>334.6</ele><time>2026-05-02T15:30:36.324Z</time></trkpt><trkpt lat="43.8073235" lon="12.4434322"><ele>335.2</ele><time>2026-05-02T15:30:37.324Z</time></trkpt><trkpt lat="43.8072187" lon="12.4434389"><ele>335.8</ele><time>2026-05-02T15:30:38.324Z</time></trkpt><trkpt lat="43.8071208" lon="12.4434434"><ele>336.40000000000003</ele><time>2026-05-02T15:30:39.325Z</time></trkpt><trkpt lat="43.8070323" lon="12.4434555"><ele>337.0</ele><time>2026-05-02T15:30:40.325Z</time></trkpt><trkpt lat="43.8069667" lon="12.4434721"><ele>337.0</ele><time>2026-05-02T15:30:41.326Z</time></trkpt><trkpt lat="43.8069026" lon="12.4435015"><ele>337.0</ele><time>2026-05-02T15:30:43.325Z</time></trkpt><trkpt lat="43.806824" lon="12.4435228"><ele>337.0</ele><time>2026-05-02T15:30:46.325Z</time></trkpt><trkpt lat="43.8067635" lon="12.4435538"><ele>337.0</ele><time>2026-05-02T15:31:05.326Z</time></trkpt><trkpt lat="43.8066178" lon="12.4436917"><ele>337.0</ele><time>2026-05-02T15:31:07.334Z</time></trkpt><trkpt lat="43.8065152" lon="12.4438165"><ele>340.0</ele><time>2026-05-02T15:31:08.325Z</time></trkpt><trkpt lat="43.8064089" lon="12.4439206"><ele>343.0</ele><time>2026-05-02T15:31:09.325Z</time></trkpt><trkpt lat="43.8063003" lon="12.4440315"><ele>346.0</ele><time>2026-05-02T15:31:10.324Z</time></trkpt><trkpt lat="43.8061906" lon="12.4441404"><ele>349.0</ele><time>2026-05-02T15:31:11.324Z</time></trkpt><trkpt lat="43.8060767" lon="12.4442376"><ele>350.25</ele><time>2026-05-02T15:31:12.325Z</time></trkpt><trkpt lat="43.8059614" lon="12.4443446"><ele>351.5</ele><time>2026-05-02T15:31:13.326Z</time></trkpt><trkpt lat="43.8058509" lon="12.4444532"><ele>352.75</ele><time>2026-05-02T15:31:14.325Z</time></trkpt><trkpt lat="43.8057628" lon="12.4445621"><ele>354.0</ele><time>2026-05-02T15:31:15.325Z</time></trkpt><trkpt lat="43.8056684" lon="12.4446752"><ele>354.0</ele><time>2026-05-02T15:31:16.326Z</time></trkpt><trkpt lat="43.8056266" lon="12.4448307"><ele>354.0</ele><time>2026-05-02T15:31:17.324Z</time></trkpt><trkpt lat="43.8055685" lon="12.4449727"><ele>354.0</ele><time>2026-05-02T15:31:18.325Z</time></trkpt><trkpt lat="43.8055598" lon="12.4450909"><ele>354.0</ele><time>2026-05-02T15:31:19.316Z</time></trkpt><trkpt lat="43.8055553" lon="12.4452196"><ele>354.0</ele><time>2026-05-02T15:31:20.326Z</time></trkpt><trkpt lat="43.8055661" lon="12.4453498"><ele>355.4</ele><time>2026-05-02T15:31:21.323Z</time></trkpt><trkpt lat="43.8055852" lon="12.4454855"><ele>356.79999999999995</ele><time>2026-05-02T15:31:22.326Z</time></trkpt><trkpt lat="43.8056073" lon="12.445603"><ele>358.20000000000005</ele><time>2026-05-02T15:31:23.325Z</time></trkpt><trkpt lat="43.8056276" lon="12.4457412"><ele>359.6</ele><time>2026-05-02T15:31:24.325Z</time></trkpt><trkpt lat="43.8056652" lon="12.445891"><ele>361.0</ele><time>2026-05-02T15:31:25.323Z</time></trkpt><trkpt lat="43.8057059" lon="12.4460271"><ele>361.0</ele><time>2026-05-02T15:31:26.324Z</time></trkpt><trkpt lat="43.8057566" lon="12.446143"><ele>361.0</ele><time>2026-05-02T15:31:27.323Z</time></trkpt><trkpt lat="43.8058053" lon="12.4462508"><ele>361.0</ele><time>2026-05-02T15:31:28.324Z</time></trkpt><trkpt lat="43.8058514" lon="12.4463275"><ele>361.0</ele><time>2026-05-02T15:31:29.324Z</time></trkpt><trkpt lat="43.8058914" lon="12.4464076"><ele>361.0</ele><time>2026-05-02T15:31:31.326Z</time></trkpt><trkpt lat="43.8059491" lon="12.4464893"><ele>361.0</ele><time>2026-05-02T15:31:58.323Z</time></trkpt><trkpt lat="43.8060208" lon="12.446615"><ele>365.75</ele><time>2026-05-02T15:32:00.325Z</time></trkpt><trkpt lat="43.8060872" lon="12.4467876"><ele>370.5</ele><time>2026-05-02T15:32:01.336Z</time></trkpt><trkpt lat="43.8061452" lon="12.4469323"><ele>375.25</ele><time>2026-05-02T15:32:02.327Z</time></trkpt><trkpt lat="43.8062139" lon="12.4470678"><ele>380.0</ele><time>2026-05-02T15:32:03.323Z</time></trkpt><trkpt lat="43.8062707" lon="12.4472154"><ele>380.0</ele><time>2026-05-02T15:32:04.324Z</time></trkpt><trkpt lat="43.8063285" lon="12.44739"><ele>380.0</ele><time>2026-05-02T15:32:05.322Z</time></trkpt><trkpt lat="43.8063793" lon="12.4475376"><ele>380.0</ele><time>2026-05-02T15:32:06.323Z</time></trkpt><trkpt lat="43.8064357" lon="12.4476741"><ele>380.0</ele><time>2026-05-02T15:32:07.319Z</time></trkpt><trkpt lat="43.8064983" lon="12.4478196"><ele>381.0</ele><time>2026-05-02T15:32:08.324Z</time></trkpt><trkpt lat="43.8065805" lon="12.4479689"><ele>382.0</ele><time>2026-05-02T15:32:09.324Z</time></trkpt><trkpt lat="43.8066686" lon="12.4481334"><ele>383.0</ele><time>2026-05-02T15:32:10.324Z</time></trkpt><trkpt lat="43.8067512" lon="12.4482805"><ele>384.0</ele><time>2026-05-02T15:32:11.324Z</time></trkpt><trkpt lat="43.8068407" lon="12.4484393"><ele>384.0</ele><time>2026-05-02T15:32:12.324Z</time></trkpt><trkpt lat="43.8069522" lon="12.4485711"><ele>384.0</ele><time>2026-05-02T15:32:13.324Z</time></trkpt><trkpt lat="43.8070167" lon="12.4487036"><ele>384.0</ele><time>2026-05-02T15:32:14.322Z</time></trkpt><trkpt lat="43.8070943" lon="12.4488294"><ele>384.0</ele><time>2026-05-02T15:32:15.322Z</time></trkpt><trkpt lat="43.8072142" lon="12.4488854"><ele>379.5</ele><time>2026-05-02T15:32:16.324Z</time></trkpt><trkpt lat="43.8073287" lon="12.4489712"><ele>375.0</ele><time>2026-05-02T15:32:17.326Z</time></trkpt><trkpt lat="43.8074295" lon="12.4490796"><ele>370.5</ele><time>2026-05-02T15:32:18.325Z</time></trkpt><trkpt lat="43.8075145" lon="12.4492137"><ele>366.0</ele><time>2026-05-02T15:32:19.322Z</time></trkpt><trkpt lat="43.8075799" lon="12.4493714"><ele>366.0</ele><time>2026-05-02T15:32:20.321Z</time></trkpt><trkpt lat="43.8076475" lon="12.4495384"><ele>366.0</ele><time>2026-05-02T15:32:21.323Z</time></trkpt><trkpt lat="43.8076704" lon="12.4497236"><ele>366.0</ele><time>2026-05-02T15:32:22.321Z</time></trkpt><trkpt lat="43.8076845" lon="12.4499097"><ele>366.0</ele><time>2026-05-02T15:32:23.319Z</time></trkpt><trkpt lat="43.8076981" lon="12.4501062"><ele>366.0</ele><time>2026-05-02T15:32:24.323Z</time></trkpt><trkpt lat="43.8076434" lon="12.4502791"><ele>366.0</ele><time>2026-05-02T15:32:25.321Z</time></trkpt><trkpt lat="43.8076063" lon="12.4504731"><ele>366.0</ele><time>2026-05-02T15:32:26.322Z</time></trkpt><trkpt lat="43.807535" lon="12.4506558"><ele>366.0</ele><time>2026-05-02T15:32:27.323Z</time></trkpt><trkpt lat="43.8074929" lon="12.4508433"><ele>366.0</ele><time>2026-05-02T15:32:28.324Z</time></trkpt><trkpt lat="43.8074494" lon="12.451032"><ele>366.0</ele><time>2026-05-02T15:32:29.322Z</time></trkpt><trkpt lat="43.8074274" lon="12.4512314"><ele>366.0</ele><time>2026-05-02T15:32:30.326Z</time></trkpt><trkpt lat="43.8074284" lon="12.4514249"><ele>366.0</ele><time>2026-05-02T15:32:31.324Z</time></trkpt><trkpt lat="43.8074107" lon="12.451607"><ele>369.25</ele><time>2026-05-02T15:32:32.324Z</time></trkpt><trkpt lat="43.8073651" lon="12.4517831"><ele>372.5</ele><time>2026-05-02T15:32:33.325Z</time></trkpt><trkpt lat="43.8073187" lon="12.4519615"><ele>375.75</ele><time>2026-05-02T15:32:34.354Z</time></trkpt><trkpt lat="43.8072726" lon="12.4521459"><ele>379.0</ele><time>2026-05-02T15:32:35.325Z</time></trkpt><trkpt lat="43.8071998" lon="12.452313"><ele>381.25</ele><time>2026-05-02T15:32:36.323Z</time></trkpt><trkpt lat="43.8071467" lon="12.4524687"><ele>383.5</ele><time>2026-05-02T15:32:37.323Z</time></trkpt><trkpt lat="43.8070714" lon="12.4526354"><ele>385.75</ele><time>2026-05-02T15:32:38.322Z</time></trkpt><trkpt lat="43.8069754" lon="12.452765"><ele>388.0</ele><time>2026-05-02T15:32:39.324Z</time></trkpt><trkpt lat="43.8069023" lon="12.4529012"><ele>389.33333333333337</ele><time>2026-05-02T15:32:40.348Z</time></trkpt><trkpt lat="43.8068197" lon="12.4530099"><ele>390.6666666666667</ele><time>2026-05-02T15:32:41.317Z</time></trkpt><trkpt lat="43.8067526" lon="12.4530688"><ele>392.0</ele><time>2026-05-02T15:32:42.323Z</time></trkpt><trkpt lat="43.8066879" lon="12.4530946"><ele>393.33333333333337</ele><time>2026-05-02T15:32:43.323Z</time></trkpt><trkpt lat="43.8066242" lon="12.4531581"><ele>394.6666666666667</ele><time>2026-05-02T15:32:45.325Z</time></trkpt><trkpt lat="43.806648" lon="12.4532508"><ele>396.0</ele><time>2026-05-02T15:32:48.324Z</time></trkpt><trkpt lat="43.806789" lon="12.4532918"><ele>395.4</ele><time>2026-05-02T15:33:02.328Z</time></trkpt><trkpt lat="43.8068918" lon="12.4533627"><ele>394.8</ele><time>2026-05-02T15:33:03.326Z</time></trkpt><trkpt lat="43.8069794" lon="12.4534461"><ele>394.2</ele><time>2026-05-02T15:33:04.324Z</time></trkpt><trkpt lat="43.8070648" lon="12.4535174"><ele>393.59999999999997</ele><time>2026-05-02T15:33:05.348Z</time></trkpt><trkpt lat="43.8071514" lon="12.4536157"><ele>393.0</ele><time>2026-05-02T15:33:06.326Z</time></trkpt><trkpt lat="43.8072655" lon="12.4537097"><ele>396.25</ele><time>2026-05-02T15:33:07.326Z</time></trkpt><trkpt lat="43.807388" lon="12.4538106"><ele>399.5</ele><time>2026-05-02T15:33:08.327Z</time></trkpt><trkpt lat="43.8075168" lon="12.4539078"><ele>402.75</ele><time>2026-05-02T15:33:09.328Z</time></trkpt><trkpt lat="43.8076629" lon="12.4539814"><ele>406.0</ele><time>2026-05-02T15:33:10.326Z</time></trkpt><trkpt lat="43.8077717" lon="12.4540395"><ele>406.0</ele><time>2026-05-02T15:33:11.323Z</time></trkpt><trkpt lat="43.8078988" lon="12.454125"><ele>406.0</ele><time>2026-05-02T15:33:12.327Z</time></trkpt><trkpt lat="43.8080311" lon="12.4542118"><ele>406.0</ele><time>2026-05-02T15:33:13.325Z</time></trkpt><trkpt lat="43.8081473" lon="12.454293"><ele>406.0</ele><time>2026-05-02T15:33:14.324Z</time></trkpt><trkpt lat="43.8082645" lon="12.4544003"><ele>406.0</ele><time>2026-05-02T15:33:15.323Z</time></trkpt><trkpt lat="43.808392" lon="12.4545303"><ele>406.0</ele><time>2026-05-02T15:33:16.324Z</time></trkpt><trkpt lat="43.8085373" lon="12.4544797"><ele>406.0</ele><time>2026-05-02T15:33:17.347Z</time></trkpt><trkpt lat="43.8086877" lon="12.4545112"><ele>407.75</ele><time>2026-05-02T15:33:18.324Z</time></trkpt><trkpt lat="43.8088267" lon="12.4545449"><ele>409.5</ele><time>2026-05-02T15:33:19.325Z</time></trkpt><trkpt lat="43.8089685" lon="12.4545743"><ele>411.25</ele><time>2026-05-02T15:33:20.325Z</time></trkpt><trkpt lat="43.8091113" lon="12.454607"><ele>413.0</ele><time>2026-05-02T15:33:21.326Z</time></trkpt><trkpt lat="43.809254" lon="12.4546105"><ele>414.75</ele><time>2026-05-02T15:33:22.325Z</time></trkpt><trkpt lat="43.809389" lon="12.454592"><ele>416.5</ele><time>2026-05-02T15:33:23.326Z</time></trkpt><trkpt lat="43.8095141" lon="12.4545734"><ele>418.25</ele><time>2026-05-02T15:33:24.326Z</time></trkpt><trkpt lat="43.8096271" lon="12.4545214"><ele>420.0</ele><time>2026-05-02T15:33:25.323Z</time></trkpt><trkpt lat="43.80973" lon="12.4544204"><ele>420.0</ele><time>2026-05-02T15:33:26.326Z</time></trkpt><trkpt lat="43.809823" lon="12.4543235"><ele>420.0</ele><time>2026-05-02T15:33:27.323Z</time></trkpt><trkpt lat="43.80989" lon="12.4542034"><ele>420.0</ele><time>2026-05-02T15:33:28.324Z</time></trkpt><trkpt lat="43.8099528" lon="12.4540848"><ele>420.0</ele><time>2026-05-02T15:33:29.324Z</time></trkpt><trkpt lat="43.8099883" lon="12.4539521"><ele>420.0</ele><time>2026-05-02T15:33:30.323Z</time></trkpt><trkpt lat="43.8099829" lon="12.4537776"><ele>424.33333333333337</ele><time>2026-05-02T15:33:31.323Z</time></trkpt><trkpt lat="43.8099633" lon="12.453609"><ele>428.6666666666667</ele><time>2026-05-02T15:33:32.324Z</time></trkpt><trkpt lat="43.8099246" lon="12.4533735"><ele>433.0</ele><time>2026-05-02T15:33:33.325Z</time></trkpt><trkpt lat="43.8098968" lon="12.4531421"><ele>434.75</ele><time>2026-05-02T15:33:34.324Z</time></trkpt><trkpt lat="43.8098685" lon="12.4529297"><ele>436.5</ele><time>2026-05-02T15:33:35.324Z</time></trkpt><trkpt lat="43.8098447" lon="12.4527446"><ele>438.25</ele><time>2026-05-02T15:33:36.324Z</time></trkpt><trkpt lat="43.8098429" lon="12.4525628"><ele>440.0</ele><time>2026-05-02T15:33:37.322Z</time></trkpt><trkpt lat="43.8098613" lon="12.4523909"><ele>440.0</ele><time>2026-05-02T15:33:38.325Z</time></trkpt><trkpt lat="43.8098978" lon="12.4522065"><ele>440.0</ele><time>2026-05-02T15:33:39.322Z</time></trkpt><trkpt lat="43.8099425" lon="12.4520128"><ele>440.0</ele><time>2026-05-02T15:33:40.323Z</time></trkpt><trkpt lat="43.8099826" lon="12.4518294"><ele>440.0</ele><time>2026-05-02T15:33:41.322Z</time></trkpt><trkpt lat="43.810029" lon="12.4516524"><ele>439.5</ele><time>2026-05-02T15:33:42.324Z</time></trkpt><trkpt lat="43.8100834" lon="12.4514977"><ele>439.0</ele><time>2026-05-02T15:33:43.322Z</time></trkpt><trkpt lat="43.8101429" lon="12.4513374"><ele>438.5</ele><time>2026-05-02T15:33:44.324Z</time></trkpt><trkpt lat="43.8102711" lon="12.451304"><ele>438.0</ele><time>2026-05-02T15:33:45.323Z</time></trkpt><trkpt lat="43.8103782" lon="12.4512269"><ele>437.25</ele><time>2026-05-02T15:33:46.324Z</time></trkpt><trkpt lat="43.8105004" lon="12.4511529"><ele>436.5</ele><time>2026-05-02T15:33:47.323Z</time></trkpt><trkpt lat="43.8106308" lon="12.4510898"><ele>435.75</ele><time>2026-05-02T15:33:48.322Z</time></trkpt><trkpt lat="43.8107391" lon="12.4510271"><ele>435.0</ele><time>2026-05-02T15:33:49.323Z</time></trkpt><trkpt lat="43.8108793" lon="12.4510283"><ele>435.0</ele><time>2026-05-02T15:33:50.326Z</time></trkpt><trkpt lat="43.8109834" lon="12.4510595"><ele>435.0</ele><time>2026-05-02T15:33:51.323Z</time></trkpt><trkpt lat="43.8111072" lon="12.4511406"><ele>435.0</ele><time>2026-05-02T15:33:52.324Z</time></trkpt><trkpt lat="43.8112109" lon="12.4512299"><ele>435.0</ele><time>2026-05-02T15:33:53.324Z</time></trkpt><trkpt lat="43.8113181" lon="12.4513399"><ele>438.0</ele><time>2026-05-02T15:33:54.323Z</time></trkpt><trkpt lat="43.8113958" lon="12.4514761"><ele>441.0</ele><time>2026-05-02T15:33:55.326Z</time></trkpt><trkpt lat="43.8114882" lon="12.4515652"><ele>444.0</ele><time>2026-05-02T15:33:56.325Z</time></trkpt><trkpt lat="43.8115935" lon="12.4516155"><ele>447.0</ele><time>2026-05-02T15:33:57.325Z</time></trkpt><trkpt lat="43.8117004" lon="12.451628"><ele>447.0</ele><time>2026-05-02T15:33:58.326Z</time></trkpt><trkpt lat="43.8118221" lon="12.4516446"><ele>447.0</ele><time>2026-05-02T15:33:59.324Z</time></trkpt><trkpt lat="43.811939" lon="12.4516603"><ele>447.0</ele><time>2026-05-02T15:34:00.322Z</time></trkpt><trkpt lat="43.8120307" lon="12.4518157"><ele>447.0</ele><time>2026-05-02T15:34:01.324Z</time></trkpt><trkpt lat="43.8121269" lon="12.4519185"><ele>447.33333333333337</ele><time>2026-05-02T15:34:02.321Z</time></trkpt><trkpt lat="43.8122568" lon="12.4520673"><ele>447.6666666666667</ele><time>2026-05-02T15:34:03.323Z</time></trkpt><trkpt lat="43.8123686" lon="12.4522016"><ele>448.0</ele><time>2026-05-02T15:34:04.324Z</time></trkpt><trkpt lat="43.8125123" lon="12.4523354"><ele>448.0</ele><time>2026-05-02T15:34:05.325Z</time></trkpt><trkpt lat="43.8126542" lon="12.4524452"><ele>448.0</ele><time>2026-05-02T15:34:06.326Z</time></trkpt><trkpt lat="43.812803" lon="12.4525394"><ele>448.0</ele><time>2026-05-02T15:34:07.326Z</time></trkpt><trkpt lat="43.8129487" lon="12.4526184"><ele>450.0</ele><time>2026-05-02T15:34:08.325Z</time></trkpt><trkpt lat="43.8131022" lon="12.4526698"><ele>452.0</ele><time>2026-05-02T15:34:09.326Z</time></trkpt><trkpt lat="43.8132531" lon="12.4527243"><ele>454.0</ele><time>2026-05-02T15:34:10.323Z</time></trkpt><trkpt lat="43.8134148" lon="12.4527805"><ele>455.33333333333337</ele><time>2026-05-02T15:34:11.324Z</time></trkpt><trkpt lat="43.8135722" lon="12.4528393"><ele>456.66666666666663</ele><time>2026-05-02T15:34:12.328Z</time></trkpt><trkpt lat="43.8137422" lon="12.4529058"><ele>458.0</ele><time>2026-05-02T15:34:13.323Z</time></trkpt><trkpt lat="43.813917" lon="12.4529742"><ele>458.0</ele><time>2026-05-02T15:34:14.321Z</time></trkpt><trkpt lat="43.8141047" lon="12.4529809"><ele>458.0</ele><time>2026-05-02T15:34:15.324Z</time></trkpt><trkpt lat="43.8142559" lon="12.4530227"><ele>458.0</ele><time>2026-05-02T15:34:16.318Z</time></trkpt><trkpt lat="43.8143237" lon="12.4531528"><ele>457.25</ele><time>2026-05-02T15:34:17.325Z</time></trkpt><trkpt lat="43.8144347" lon="12.4532571"><ele>456.5</ele><time>2026-05-02T15:34:18.324Z</time></trkpt><trkpt lat="43.8145303" lon="12.4533686"><ele>455.75</ele><time>2026-05-02T15:34:19.323Z</time></trkpt><trkpt lat="43.8146321" lon="12.4534826"><ele>455.0</ele><time>2026-05-02T15:34:20.326Z</time></trkpt><trkpt lat="43.8147241" lon="12.4536188"><ele>455.0</ele><time>2026-05-02T15:34:21.324Z</time></trkpt><trkpt lat="43.8148119" lon="12.4537835"><ele>455.0</ele><time>2026-05-02T15:34:22.324Z</time></trkpt><trkpt lat="43.8149011" lon="12.4539551"><ele>455.0</ele><time>2026-05-02T15:34:23.323Z</time></trkpt><trkpt lat="43.8149621" lon="12.4541899"><ele>458.0</ele><time>2026-05-02T15:34:24.322Z</time></trkpt><trkpt lat="43.815039" lon="12.45438"><ele>461.0</ele><time>2026-05-02T15:34:25.324Z</time></trkpt><trkpt lat="43.8151024" lon="12.4545866"><ele>464.0</ele><time>2026-05-02T15:34:26.326Z</time></trkpt><trkpt lat="43.8151216" lon="12.4547835"><ele>465.66666666666663</ele><time>2026-05-02T15:34:27.324Z</time></trkpt><trkpt lat="43.815159" lon="12.4550075"><ele>467.33333333333337</ele><time>2026-05-02T15:34:28.325Z</time></trkpt><trkpt lat="43.8151195" lon="12.4552106"><ele>469.0</ele><time>2026-05-02T15:34:29.323Z</time></trkpt><trkpt lat="43.8151346" lon="12.4553959"><ele>469.0</ele><time>2026-05-02T15:34:30.325Z</time></trkpt><trkpt lat="43.8151418" lon="12.4555911"><ele>469.0</ele><time>2026-05-02T15:34:31.324Z</time></trkpt><trkpt lat="43.8151599" lon="12.4557355"><ele>469.0</ele><time>2026-05-02T15:34:32.324Z</time></trkpt><trkpt lat="43.8151918" lon="12.4558451"><ele>469.0</ele><time>2026-05-02T15:34:33.324Z</time></trkpt><trkpt lat="43.8152233" lon="12.4559283"><ele>469.0</ele><time>2026-05-02T15:34:34.323Z</time></trkpt><trkpt lat="43.8153473" lon="12.4559899"><ele>471.83333333333337</ele><time>2026-05-02T15:34:36.325Z</time></trkpt><trkpt lat="43.8154128" lon="12.4559642"><ele>474.6666666666667</ele><time>2026-05-02T15:34:37.325Z</time></trkpt><trkpt lat="43.8154878" lon="12.4559431"><ele>477.5</ele><time>2026-05-02T15:34:38.33Z</time></trkpt><trkpt lat="43.815583" lon="12.4558488"><ele>480.33333333333337</ele><time>2026-05-02T15:34:39.323Z</time></trkpt><trkpt lat="43.8156681" lon="12.4558155"><ele>483.1666666666667</ele><time>2026-05-02T15:34:40.325Z</time></trkpt><trkpt lat="43.8157529" lon="12.4558036"><ele>486.0</ele><time>2026-05-02T15:34:41.325Z</time></trkpt><trkpt lat="43.8158464" lon="12.4558083"><ele>486.0</ele><time>2026-05-02T15:34:42.325Z</time></trkpt><trkpt lat="43.8159551" lon="12.4558503"><ele>486.0</ele><time>2026-05-02T15:34:43.325Z</time></trkpt><trkpt lat="43.8160515" lon="12.4559209"><ele>486.0</ele><time>2026-05-02T15:34:44.325Z</time></trkpt><trkpt lat="43.8161532" lon="12.4559723"><ele>486.0</ele><time>2026-05-02T15:34:45.326Z</time></trkpt><trkpt lat="43.8162685" lon="12.4560238"><ele>488.5</ele><time>2026-05-02T15:34:46.322Z</time></trkpt><trkpt lat="43.8163804" lon="12.4560852"><ele>491.0</ele><time>2026-05-02T15:34:47.326Z</time></trkpt><trkpt lat="43.8164859" lon="12.4561479"><ele>493.5</ele><time>2026-05-02T15:34:48.324Z</time></trkpt><trkpt lat="43.8165895" lon="12.4562091"><ele>496.0</ele><time>2026-05-02T15:34:49.323Z</time></trkpt><trkpt lat="43.8166975" lon="12.4562395"><ele>493.4</ele><time>2026-05-02T15:34:50.327Z</time></trkpt><trkpt lat="43.8167942" lon="12.4562982"><ele>490.8</ele><time>2026-05-02T15:34:51.323Z</time></trkpt><trkpt lat="43.8169094" lon="12.4563135"><ele>488.19999999999993</ele><time>2026-05-02T15:34:52.321Z</time></trkpt><trkpt lat="43.8169883" lon="12.4563623"><ele>485.59999999999997</ele><time>2026-05-02T15:34:53.322Z</time></trkpt><trkpt lat="43.8170595" lon="12.456392"><ele>483.0</ele><time>2026-05-02T15:34:54.322Z</time></trkpt><trkpt lat="43.8171251" lon="12.4564281"><ele>483.0</ele><time>2026-05-02T15:34:56.323Z</time></trkpt><trkpt lat="43.817182" lon="12.4564701"><ele>483.0</ele><time>2026-05-02T15:35:25.324Z</time></trkpt><trkpt lat="43.8172454" lon="12.4565084"><ele>483.0</ele><time>2026-05-02T15:36:00.324Z</time></trkpt><trkpt lat="43.8173214" lon="12.4565312"><ele>483.0</ele><time>2026-05-02T15:36:01.335Z</time></trkpt><trkpt lat="43.8173976" lon="12.456557"><ele>483.0</ele><time>2026-05-02T15:36:02.323Z</time></trkpt><trkpt lat="43.8174879" lon="12.4565893"><ele>483.0</ele><time>2026-05-02T15:36:03.323Z</time></trkpt><trkpt lat="43.8175854" lon="12.456633"><ele>485.25</ele><time>2026-05-02T15:36:04.324Z</time></trkpt><trkpt lat="43.817706" lon="12.4566572"><ele>487.5</ele><time>2026-05-02T15:36:05.329Z</time></trkpt><trkpt lat="43.8178242" lon="12.4566738"><ele>489.75</ele><time>2026-05-02T15:36:06.321Z</time></trkpt><trkpt lat="43.8179378" lon="12.4566728"><ele>492.0</ele><time>2026-05-02T15:36:07.323Z</time></trkpt><trkpt lat="43.8180519" lon="12.4566761"><ele>492.0</ele><time>2026-05-02T15:36:08.324Z</time></trkpt><trkpt lat="43.8181607" lon="12.4566441"><ele>492.00000000000006</ele><time>2026-05-02T15:36:09.324Z</time></trkpt><trkpt lat="43.8182372" lon="12.4567348"><ele>492.00000000000006</ele><time>2026-05-02T15:36:10.322Z</time></trkpt><trkpt lat="43.818332" lon="12.4567424"><ele>492.0</ele><time>2026-05-02T15:36:11.323Z</time></trkpt><trkpt lat="43.8183742" lon="12.4568132"><ele>492.0</ele><time>2026-05-02T15:36:12.323Z</time></trkpt><trkpt lat="43.8184547" lon="12.4568659"><ele>492.8</ele><time>2026-05-02T15:36:13.324Z</time></trkpt><trkpt lat="43.8185078" lon="12.4569436"><ele>493.6</ele><time>2026-05-02T15:36:14.321Z</time></trkpt><trkpt lat="43.8185429" lon="12.4570511"><ele>494.40000000000003</ele><time>2026-05-02T15:36:15.32Z</time></trkpt><trkpt lat="43.8185588" lon="12.4571849"><ele>495.20000000000005</ele><time>2026-05-02T15:36:16.321Z</time></trkpt><trkpt lat="43.8184871" lon="12.4573468"><ele>496.0</ele><time>2026-05-02T15:36:17.322Z</time></trkpt><trkpt lat="43.8184217" lon="12.4574247"><ele>496.0</ele><time>2026-05-02T15:36:18.324Z</time></trkpt><trkpt lat="43.8183986" lon="12.4575382"><ele>496.0</ele><time>2026-05-02T15:36:19.323Z</time></trkpt><trkpt lat="43.8183652" lon="12.4576451"><ele>496.0</ele><time>2026-05-02T15:36:20.324Z</time></trkpt><trkpt lat="43.8184162" lon="12.457803"><ele>496.0</ele><time>2026-05-02T15:36:22.324Z</time></trkpt><trkpt lat="43.8185331" lon="12.457872"><ele>496.0</ele><time>2026-05-02T15:36:24.324Z</time></trkpt><trkpt lat="43.8186415" lon="12.457884"><ele>496.0</ele><time>2026-05-02T15:36:25.324Z</time></trkpt><trkpt lat="43.8187389" lon="12.4579029"><ele>496.0</ele><time>2026-05-02T15:36:26.323Z</time></trkpt><trkpt lat="43.8188417" lon="12.4579215"><ele>496.0</ele><time>2026-05-02T15:36:27.324Z</time></trkpt><trkpt lat="43.8189457" lon="12.4579526"><ele>496.0</ele><time>2026-05-02T15:36:28.323Z</time></trkpt><trkpt lat="43.8190578" lon="12.4579795"><ele>496.0</ele><time>2026-05-02T15:36:29.324Z</time></trkpt><trkpt lat="43.819169" lon="12.4580137"><ele>490.20000000000005</ele><time>2026-05-02T15:36:30.324Z</time></trkpt><trkpt lat="43.819261" lon="12.4580645"><ele>484.40000000000003</ele><time>2026-05-02T15:36:31.324Z</time></trkpt><trkpt lat="43.8193513" lon="12.4580801"><ele>478.6</ele><time>2026-05-02T15:36:32.323Z</time></trkpt><trkpt lat="43.8194512" lon="12.458089"><ele>472.8</ele><time>2026-05-02T15:36:33.324Z</time></trkpt><trkpt lat="43.8195516" lon="12.4580757"><ele>467.0</ele><time>2026-05-02T15:36:34.323Z</time></trkpt><trkpt lat="43.8196558" lon="12.4580588"><ele>465.66666666666663</ele><time>2026-05-02T15:36:35.322Z</time></trkpt><trkpt lat="43.8197431" lon="12.4580562"><ele>464.3333333333333</ele><time>2026-05-02T15:36:36.321Z</time></trkpt><trkpt lat="43.8198291" lon="12.4580616"><ele>463.0</ele><time>2026-05-02T15:36:37.324Z</time></trkpt><trkpt lat="43.8199128" lon="12.4581091"><ele>461.66666666666663</ele><time>2026-05-02T15:36:38.323Z</time></trkpt><trkpt lat="43.8199777" lon="12.4581872"><ele>460.3333333333333</ele><time>2026-05-02T15:36:39.322Z</time></trkpt><trkpt lat="43.8200227" lon="12.4582922"><ele>459.0</ele><time>2026-05-02T15:36:40.324Z</time></trkpt><trkpt lat="43.8200362" lon="12.458395"><ele>459.0</ele><time>2026-05-02T15:36:41.324Z</time></trkpt><trkpt lat="43.8200358" lon="12.458515"><ele>459.0</ele><time>2026-05-02T15:36:42.324Z</time></trkpt><trkpt lat="43.8200155" lon="12.4586411"><ele>459.0</ele><time>2026-05-02T15:36:43.323Z</time></trkpt><trkpt lat="43.8199831" lon="12.4587828"><ele>459.0</ele><time>2026-05-02T15:36:44.323Z</time></trkpt><trkpt lat="43.819943" lon="12.4589258"><ele>459.0</ele><time>2026-05-02T15:36:45.323Z</time></trkpt><trkpt lat="43.8199023" lon="12.4590703"><ele>455.75</ele><time>2026-05-02T15:36:46.322Z</time></trkpt><trkpt lat="43.8198832" lon="12.4592258"><ele>452.5</ele><time>2026-05-02T15:36:47.323Z</time></trkpt><trkpt lat="43.8198663" lon="12.4593883"><ele>449.25</ele><time>2026-05-02T15:36:48.321Z</time></trkpt><trkpt lat="43.8198531" lon="12.4595339"><ele>446.0</ele><time>2026-05-02T15:36:49.324Z</time></trkpt><trkpt lat="43.8198306" lon="12.4596861"><ele>444.20000000000005</ele><time>2026-05-02T15:36:50.324Z</time></trkpt><trkpt lat="43.8198421" lon="12.4598402"><ele>442.40000000000003</ele><time>2026-05-02T15:36:51.323Z</time></trkpt><trkpt lat="43.8198729" lon="12.4599894"><ele>440.6</ele><time>2026-05-02T15:36:52.32Z</time></trkpt><trkpt lat="43.819919" lon="12.4601338"><ele>438.8</ele><time>2026-05-02T15:36:53.323Z</time></trkpt><trkpt lat="43.8199672" lon="12.460271"><ele>437.0</ele><time>2026-05-02T15:36:54.319Z</time></trkpt><trkpt lat="43.8200214" lon="12.4604227"><ele>437.25</ele><time>2026-05-02T15:36:55.323Z</time></trkpt><trkpt lat="43.8200703" lon="12.4605747"><ele>437.5</ele><time>2026-05-02T15:36:56.324Z</time></trkpt><trkpt lat="43.8201168" lon="12.460721"><ele>437.75</ele><time>2026-05-02T15:36:57.323Z</time></trkpt><trkpt lat="43.8201587" lon="12.4608668"><ele>438.0</ele><time>2026-05-02T15:36:58.324Z</time></trkpt><trkpt lat="43.8202018" lon="12.4610065"><ele>435.0</ele><time>2026-05-02T15:36:59.324Z</time></trkpt><trkpt lat="43.8202465" lon="12.4611312"><ele>431.99999999999994</ele><time>2026-05-02T15:37:00.323Z</time></trkpt><trkpt lat="43.820308" lon="12.4612308"><ele>429.0</ele><time>2026-05-02T15:37:01.324Z</time></trkpt><trkpt lat="43.8203831" lon="12.4612945"><ele>426.0</ele><time>2026-05-02T15:37:02.322Z</time></trkpt><trkpt lat="43.8204666" lon="12.4613253"><ele>423.0</ele><time>2026-05-02T15:37:03.324Z</time></trkpt><trkpt lat="43.8205524" lon="12.4613348"><ele>423.0</ele><time>2026-05-02T15:37:04.323Z</time></trkpt><trkpt lat="43.8206414" lon="12.4613448"><ele>423.0</ele><time>2026-05-02T15:37:05.323Z</time></trkpt><trkpt lat="43.8207149" lon="12.4613732"><ele>423.0</ele><time>2026-05-02T15:37:06.324Z</time></trkpt><trkpt lat="43.8206914" lon="12.4615628"><ele>423.0</ele><time>2026-05-02T15:37:08.323Z</time></trkpt><trkpt lat="43.8206031" lon="12.4617176"><ele>423.0</ele><time>2026-05-02T15:37:10.323Z</time></trkpt><trkpt lat="43.8205149" lon="12.4617775"><ele>423.0</ele><time>2026-05-02T15:37:11.324Z</time></trkpt><trkpt lat="43.8204112" lon="12.4618108"><ele>423.0</ele><time>2026-05-02T15:37:12.323Z</time></trkpt><trkpt lat="43.8202953" lon="12.4618386"><ele>423.0</ele><time>2026-05-02T15:37:13.324Z</time></trkpt><trkpt lat="43.8201812" lon="12.4618476"><ele>423.0</ele><time>2026-05-02T15:37:14.322Z</time></trkpt><trkpt lat="43.8200504" lon="12.4618203"><ele>425.0</ele><time>2026-05-02T15:37:15.321Z</time></trkpt><trkpt lat="43.8199339" lon="12.4617831"><ele>427.0</ele><time>2026-05-02T15:37:16.325Z</time></trkpt><trkpt lat="43.819814" lon="12.4617566"><ele>429.0</ele><time>2026-05-02T15:37:17.321Z</time></trkpt><trkpt lat="43.8196904" lon="12.4617299"><ele>431.0</ele><time>2026-05-02T15:37:18.324Z</time></trkpt><trkpt lat="43.8195813" lon="12.4616862"><ele>431.0</ele><time>2026-05-02T15:37:19.324Z</time></trkpt><trkpt lat="43.8194691" lon="12.4616468"><ele>431.0</ele><time>2026-05-02T15:37:20.322Z</time></trkpt><trkpt lat="43.8193663" lon="12.4616014"><ele>431.0</ele><time>2026-05-02T15:37:21.324Z</time></trkpt><trkpt lat="43.8192627" lon="12.461562"><ele>431.0</ele><time>2026-05-02T15:37:22.324Z</time></trkpt><trkpt lat="43.8191599" lon="12.4615522"><ele>431.0</ele><time>2026-05-02T15:37:23.324Z</time></trkpt><trkpt lat="43.8190505" lon="12.4615688"><ele>427.75</ele><time>2026-05-02T15:37:24.323Z</time></trkpt><trkpt lat="43.8189364" lon="12.4616172"><ele>424.5</ele><time>2026-05-02T15:37:25.322Z</time></trkpt><trkpt lat="43.8188255" lon="12.4616866"><ele>421.25</ele><time>2026-05-02T15:37:26.331Z</time></trkpt><trkpt lat="43.8187269" lon="12.4617756"><ele>418.0</ele><time>2026-05-02T15:37:27.322Z</time></trkpt><trkpt lat="43.8186367" lon="12.4618825"><ele>418.0</ele><time>2026-05-02T15:37:28.323Z</time></trkpt><trkpt lat="43.8185546" lon="12.4620026"><ele>418.0</ele><time>2026-05-02T15:37:29.323Z</time></trkpt><trkpt lat="43.818482" lon="12.4621311"><ele>418.0</ele><time>2026-05-02T15:37:30.322Z</time></trkpt><trkpt lat="43.8184213" lon="12.4622514"><ele>418.0</ele><time>2026-05-02T15:37:31.324Z</time></trkpt><trkpt lat="43.818358" lon="12.4623765"><ele>415.4</ele><time>2026-05-02T15:37:32.324Z</time></trkpt><trkpt lat="43.818302" lon="12.4624989"><ele>412.79999999999995</ele><time>2026-05-02T15:37:33.324Z</time></trkpt><trkpt lat="43.8183354" lon="12.4626342"><ele>410.2</ele><time>2026-05-02T15:37:34.324Z</time></trkpt><trkpt lat="43.8183439" lon="12.4627791"><ele>407.6</ele><time>2026-05-02T15:37:35.324Z</time></trkpt><trkpt lat="43.8183681" lon="12.4629273"><ele>405.0</ele><time>2026-05-02T15:37:36.324Z</time></trkpt><trkpt lat="43.8183917" lon="12.4630996"><ele>404.75</ele><time>2026-05-02T15:37:37.322Z</time></trkpt><trkpt lat="43.8184297" lon="12.4632814"><ele>404.5</ele><time>2026-05-02T15:37:38.323Z</time></trkpt><trkpt lat="43.8184654" lon="12.4634669"><ele>404.25</ele><time>2026-05-02T15:37:39.324Z</time></trkpt><trkpt lat="43.8184991" lon="12.4636483"><ele>404.0</ele><time>2026-05-02T15:37:40.323Z</time></trkpt><trkpt lat="43.8185386" lon="12.4638304"><ele>401.25</ele><time>2026-05-02T15:37:41.322Z</time></trkpt><trkpt lat="43.8185762" lon="12.4639906"><ele>398.5</ele><time>2026-05-02T15:37:42.324Z</time></trkpt><trkpt lat="43.8186218" lon="12.4641456"><ele>395.75</ele><time>2026-05-02T15:37:43.324Z</time></trkpt><trkpt lat="43.8186806" lon="12.4642788"><ele>393.0</ele><time>2026-05-02T15:37:44.324Z</time></trkpt><trkpt lat="43.818749" lon="12.4644094"><ele>393.0</ele><time>2026-05-02T15:37:45.323Z</time></trkpt><trkpt lat="43.8188235" lon="12.4645355"><ele>393.0</ele><time>2026-05-02T15:37:46.323Z</time></trkpt><trkpt lat="43.8188972" lon="12.4646589"><ele>393.0</ele><time>2026-05-02T15:37:47.324Z</time></trkpt><trkpt lat="43.8189579" lon="12.4647953"><ele>393.0</ele><time>2026-05-02T15:37:48.322Z</time></trkpt><trkpt lat="43.8189953" lon="12.4649397"><ele>392.75</ele><time>2026-05-02T15:37:49.324Z</time></trkpt><trkpt lat="43.8190326" lon="12.4651012"><ele>392.5</ele><time>2026-05-02T15:37:50.321Z</time></trkpt><trkpt lat="43.8190411" lon="12.4652817"><ele>392.25</ele><time>2026-05-02T15:37:51.33Z</time></trkpt><trkpt lat="43.819057" lon="12.4654522"><ele>392.0</ele><time>2026-05-02T15:37:52.324Z</time></trkpt><trkpt lat="43.8190617" lon="12.4656029"><ele>391.0</ele><time>2026-05-02T15:37:53.323Z</time></trkpt><trkpt lat="43.8190503" lon="12.4657459"><ele>390.0</ele><time>2026-05-02T15:37:54.324Z</time></trkpt><trkpt lat="43.8190453" lon="12.4658825"><ele>389.0</ele><time>2026-05-02T15:37:55.324Z</time></trkpt><trkpt lat="43.8190307" lon="12.4660178"><ele>388.0</ele><time>2026-05-02T15:37:56.324Z</time></trkpt><trkpt lat="43.8190137" lon="12.466134"><ele>387.0</ele><time>2026-05-02T15:37:57.321Z</time></trkpt><trkpt lat="43.81892" lon="12.4662815"><ele>385.40000000000003</ele><time>2026-05-02T15:37:58.324Z</time></trkpt><trkpt lat="43.8188987" lon="12.4664457"><ele>383.8</ele><time>2026-05-02T15:37:59.318Z</time></trkpt><trkpt lat="43.8188709" lon="12.4665945"><ele>382.2</ele><time>2026-05-02T15:38:00.325Z</time></trkpt><trkpt lat="43.818861" lon="12.4667339"><ele>380.6</ele><time>2026-05-02T15:38:01.323Z</time></trkpt><trkpt lat="43.8188831" lon="12.4668401"><ele>379.0</ele><time>2026-05-02T15:38:02.324Z</time></trkpt><trkpt lat="43.8189063" lon="12.4669493"><ele>379.0</ele><time>2026-05-02T15:38:03.324Z</time></trkpt><trkpt lat="43.8189357" lon="12.4670536"><ele>379.0</ele><time>2026-05-02T15:38:04.324Z</time></trkpt><trkpt lat="43.8189504" lon="12.4671485"><ele>379.0</ele><time>2026-05-02T15:38:05.321Z</time></trkpt><trkpt lat="43.8190206" lon="12.4673345"><ele>379.0</ele><time>2026-05-02T15:38:06.322Z</time></trkpt><trkpt lat="43.8190633" lon="12.4674796"><ele>379.0</ele><time>2026-05-02T15:38:07.324Z</time></trkpt><trkpt lat="43.8190911" lon="12.467638"><ele>378.5</ele><time>2026-05-02T15:38:08.324Z</time></trkpt><trkpt lat="43.8191142" lon="12.4677773"><ele>378.0</ele><time>2026-05-02T15:38:09.324Z</time></trkpt><trkpt lat="43.8191516" lon="12.4679342"><ele>377.5</ele><time>2026-05-02T15:38:10.321Z</time></trkpt><trkpt lat="43.819176" lon="12.4681342"><ele>377.0</ele><time>2026-05-02T15:38:12.315Z</time></trkpt><trkpt lat="43.8191996" lon="12.4682501"><ele>377.0</ele><time>2026-05-02T15:38:13.324Z</time></trkpt><trkpt lat="43.8192308" lon="12.4683682"><ele>377.0</ele><time>2026-05-02T15:38:14.321Z</time></trkpt><trkpt lat="43.819267" lon="12.4684955"><ele>377.0</ele><time>2026-05-02T15:38:15.321Z</time></trkpt><trkpt lat="43.8193162" lon="12.4686245"><ele>377.0</ele><time>2026-05-02T15:38:16.322Z</time></trkpt><trkpt lat="43.8193674" lon="12.4687686"><ele>377.0</ele><time>2026-05-02T15:38:17.323Z</time></trkpt><trkpt lat="43.819423" lon="12.4689061"><ele>372.25</ele><time>2026-05-02T15:38:18.323Z</time></trkpt><trkpt lat="43.8194813" lon="12.4690442"><ele>367.5</ele><time>2026-05-02T15:38:19.325Z</time></trkpt><trkpt lat="43.8195465" lon="12.4691771"><ele>362.75</ele><time>2026-05-02T15:38:20.325Z</time></trkpt><trkpt lat="43.81962" lon="12.4693081"><ele>358.0</ele><time>2026-05-02T15:38:21.322Z</time></trkpt><trkpt lat="43.8197043" lon="12.4694155"><ele>358.0</ele><time>2026-05-02T15:38:22.323Z</time></trkpt><trkpt lat="43.8197836" lon="12.4695225"><ele>358.0</ele><time>2026-05-02T15:38:23.323Z</time></trkpt><trkpt lat="43.8198893" lon="12.4696246"><ele>358.0</ele><time>2026-05-02T15:38:24.324Z</time></trkpt><trkpt lat="43.8199792" lon="12.4697307"><ele>358.0</ele><time>2026-05-02T15:38:25.328Z</time></trkpt><trkpt lat="43.8200699" lon="12.4698257"><ele>355.66666666666663</ele><time>2026-05-02T15:38:26.322Z</time></trkpt><trkpt lat="43.8201523" lon="12.4699107"><ele>353.3333333333333</ele><time>2026-05-02T15:38:27.324Z</time></trkpt><trkpt lat="43.8202229" lon="12.4699782"><ele>351.0</ele><time>2026-05-02T15:38:28.317Z</time></trkpt><trkpt lat="43.8202985" lon="12.4700112"><ele>348.6666666666667</ele><time>2026-05-02T15:38:29.325Z</time></trkpt><trkpt lat="43.8203793" lon="12.4700014"><ele>346.33333333333337</ele><time>2026-05-02T15:38:30.323Z</time></trkpt><trkpt lat="43.8204477" lon="12.4699462"><ele>344.0</ele><time>2026-05-02T15:38:31.323Z</time></trkpt><trkpt lat="43.82049" lon="12.4698663"><ele>344.0</ele><time>2026-05-02T15:38:32.324Z</time></trkpt><trkpt lat="43.8204942" lon="12.4697575"><ele>344.0</ele><time>2026-05-02T15:38:33.323Z</time></trkpt><trkpt lat="43.8204962" lon="12.4696506"><ele>344.0</ele><time>2026-05-02T15:38:34.322Z</time></trkpt><trkpt lat="43.8204507" lon="12.4695034"><ele>344.0</ele><time>2026-05-02T15:38:35.324Z</time></trkpt><trkpt lat="43.8204116" lon="12.4693637"><ele>344.0</ele><time>2026-05-02T15:38:36.323Z</time></trkpt><trkpt lat="43.8203703" lon="12.469218"><ele>344.5</ele><time>2026-05-02T15:38:37.323Z</time></trkpt><trkpt lat="43.8203372" lon="12.4690868"><ele>345.0</ele><time>2026-05-02T15:38:38.323Z</time></trkpt><trkpt lat="43.8203188" lon="12.4689662"><ele>345.5</ele><time>2026-05-02T15:38:39.324Z</time></trkpt><trkpt lat="43.8203262" lon="12.4688487"><ele>346.0</ele><time>2026-05-02T15:38:40.324Z</time></trkpt><trkpt lat="43.8203695" lon="12.4687685"><ele>346.5</ele><time>2026-05-02T15:38:41.323Z</time></trkpt><trkpt lat="43.8204365" lon="12.4687334"><ele>347.0</ele><time>2026-05-02T15:38:42.322Z</time></trkpt><trkpt lat="43.8205179" lon="12.4687451"><ele>347.0</ele><time>2026-05-02T15:38:43.324Z</time></trkpt><trkpt lat="43.8206136" lon="12.468778"><ele>347.0</ele><time>2026-05-02T15:38:44.323Z</time></trkpt><trkpt lat="43.8207137" lon="12.4688218"><ele>347.0</ele><time>2026-05-02T15:38:45.323Z</time></trkpt><trkpt lat="43.8208097" lon="12.468883"><ele>347.0</ele><time>2026-05-02T15:38:46.323Z</time></trkpt><trkpt lat="43.8209063" lon="12.4689452"><ele>347.0</ele><time>2026-05-02T15:38:47.324Z</time></trkpt><trkpt lat="43.8210023" lon="12.4689941"><ele>344.1666666666667</ele><time>2026-05-02T15:38:48.323Z</time></trkpt><trkpt lat="43.8210874" lon="12.4690596"><ele>341.33333333333337</ele><time>2026-05-02T15:38:49.322Z</time></trkpt><trkpt lat="43.8211643" lon="12.4691377"><ele>338.5</ele><time>2026-05-02T15:38:50.322Z</time></trkpt><trkpt lat="43.82119" lon="12.469254"><ele>335.6666666666667</ele><time>2026-05-02T15:38:51.327Z</time></trkpt><trkpt lat="43.8211965" lon="12.4693558"><ele>332.8333333333333</ele><time>2026-05-02T15:38:52.323Z</time></trkpt><trkpt lat="43.8211827" lon="12.4694635"><ele>330.0</ele><time>2026-05-02T15:38:53.324Z</time></trkpt><trkpt lat="43.821163" lon="12.4695732"><ele>329.0</ele><time>2026-05-02T15:38:54.324Z</time></trkpt><trkpt lat="43.8211275" lon="12.4696982"><ele>328.0</ele><time>2026-05-02T15:38:55.323Z</time></trkpt><trkpt lat="43.8210917" lon="12.4698397"><ele>327.0</ele><time>2026-05-02T15:38:56.324Z</time></trkpt><trkpt lat="43.8210566" lon="12.4699921"><ele>326.0</ele><time>2026-05-02T15:38:57.324Z</time></trkpt><trkpt lat="43.8210146" lon="12.4701463"><ele>325.0</ele><time>2026-05-02T15:38:58.324Z</time></trkpt><trkpt lat="43.8209561" lon="12.4703025"><ele>326.5</ele><time>2026-05-02T15:38:59.324Z</time></trkpt><trkpt lat="43.820895" lon="12.4704613"><ele>328.0</ele><time>2026-05-02T15:39:00.322Z</time></trkpt><trkpt lat="43.8208243" lon="12.4706141"><ele>329.5</ele><time>2026-05-02T15:39:01.325Z</time></trkpt><trkpt lat="43.820747" lon="12.4707715"><ele>331.0</ele><time>2026-05-02T15:39:02.323Z</time></trkpt><trkpt lat="43.8206701" lon="12.4709588"><ele>331.0</ele><time>2026-05-02T15:39:03.328Z</time></trkpt><trkpt lat="43.8205875" lon="12.4711292"><ele>331.0</ele><time>2026-05-02T15:39:04.32Z</time></trkpt><trkpt lat="43.8205039" lon="12.4712884"><ele>331.0</ele><time>2026-05-02T15:39:05.324Z</time></trkpt><trkpt lat="43.8204257" lon="12.4714333"><ele>331.0</ele><time>2026-05-02T15:39:06.324Z</time></trkpt><trkpt lat="43.8203528" lon="12.4715655"><ele>327.25</ele><time>2026-05-02T15:39:07.323Z</time></trkpt><trkpt lat="43.8203133" lon="12.4717122"><ele>323.5</ele><time>2026-05-02T15:39:08.323Z</time></trkpt><trkpt lat="43.8202801" lon="12.471856"><ele>319.75</ele><time>2026-05-02T15:39:09.323Z</time></trkpt><trkpt lat="43.8202814" lon="12.4720197"><ele>316.0</ele><time>2026-05-02T15:39:10.322Z</time></trkpt><trkpt lat="43.8202794" lon="12.4721875"><ele>313.5</ele><time>2026-05-02T15:39:11.324Z</time></trkpt><trkpt lat="43.8202947" lon="12.4723584"><ele>311.0</ele><time>2026-05-02T15:39:12.323Z</time></trkpt><trkpt lat="43.8202868" lon="12.4725246"><ele>308.5</ele><time>2026-05-02T15:39:13.323Z</time></trkpt><trkpt lat="43.8202562" lon="12.4726696"><ele>306.0</ele><time>2026-05-02T15:39:14.322Z</time></trkpt><trkpt lat="43.8202038" lon="12.4728135"><ele>308.75</ele><time>2026-05-02T15:39:15.322Z</time></trkpt><trkpt lat="43.820151" lon="12.47294"><ele>311.5</ele><time>2026-05-02T15:39:16.322Z</time></trkpt><trkpt lat="43.820097" lon="12.4730981"><ele>314.25</ele><time>2026-05-02T15:39:17.324Z</time></trkpt><trkpt lat="43.820035" lon="12.4732708"><ele>317.0</ele><time>2026-05-02T15:39:18.319Z</time></trkpt><trkpt lat="43.8199863" lon="12.4734069"><ele>317.0</ele><time>2026-05-02T15:39:19.324Z</time></trkpt><trkpt lat="43.8199488" lon="12.473547"><ele>317.0</ele><time>2026-05-02T15:39:20.317Z</time></trkpt><trkpt lat="43.8199065" lon="12.4736968"><ele>317.0</ele><time>2026-05-02T15:39:21.323Z</time></trkpt><trkpt lat="43.8198641" lon="12.4738351"><ele>317.0</ele><time>2026-05-02T15:39:22.323Z</time></trkpt><trkpt lat="43.8198083" lon="12.4739616"><ele>317.0</ele><time>2026-05-02T15:39:23.323Z</time></trkpt><trkpt lat="43.8197417" lon="12.4740675"><ele>313.6</ele><time>2026-05-02T15:39:24.324Z</time></trkpt><trkpt lat="43.8196603" lon="12.4741695"><ele>310.2</ele><time>2026-05-02T15:39:25.324Z</time></trkpt><trkpt lat="43.8195774" lon="12.4742703"><ele>306.8</ele><time>2026-05-02T15:39:26.324Z</time></trkpt><trkpt lat="43.8194927" lon="12.4743796"><ele>303.4</ele><time>2026-05-02T15:39:27.323Z</time></trkpt><trkpt lat="43.8194321" lon="12.474506"><ele>300.0</ele><time>2026-05-02T15:39:28.325Z</time></trkpt><trkpt lat="43.8193632" lon="12.4746441"><ele>302.25</ele><time>2026-05-02T15:39:29.327Z</time></trkpt><trkpt lat="43.819299" lon="12.4747955"><ele>304.5</ele><time>2026-05-02T15:39:30.324Z</time></trkpt><trkpt lat="43.8192646" lon="12.474972"><ele>306.75</ele><time>2026-05-02T15:39:31.326Z</time></trkpt><trkpt lat="43.8192358" lon="12.4751282"><ele>309.0</ele><time>2026-05-02T15:39:32.325Z</time></trkpt><trkpt lat="43.8192038" lon="12.4752545"><ele>309.0</ele><time>2026-05-02T15:39:33.329Z</time></trkpt><trkpt lat="43.8191596" lon="12.4753568"><ele>309.0</ele><time>2026-05-02T15:39:34.323Z</time></trkpt><trkpt lat="43.8191213" lon="12.475477"><ele>309.0</ele><time>2026-05-02T15:39:36.325Z</time></trkpt><trkpt lat="43.8191402" lon="12.4755609"><ele>309.0</ele><time>2026-05-02T15:39:39.326Z</time></trkpt><trkpt lat="43.8192431" lon="12.4755484"><ele>309.0</ele><time>2026-05-02T15:40:39.326Z</time></trkpt><trkpt lat="43.8192211" lon="12.4754525"><ele>309.0</ele><time>2026-05-02T15:40:44.326Z</time></trkpt><trkpt lat="43.8192198" lon="12.4753206"><ele>309.0</ele><time>2026-05-02T15:40:47.329Z</time></trkpt><trkpt lat="43.8192427" lon="12.4751993"><ele>309.0</ele><time>2026-05-02T15:40:48.323Z</time></trkpt><trkpt lat="43.819285" lon="12.4749849"><ele>309.0</ele><time>2026-05-02T15:40:49.326Z</time></trkpt><trkpt lat="43.8193447" lon="12.4747868"><ele>309.0</ele><time>2026-05-02T15:40:50.323Z</time></trkpt><trkpt lat="43.8193921" lon="12.4746159"><ele>306.75</ele><time>2026-05-02T15:40:51.325Z</time></trkpt><trkpt lat="43.8194502" lon="12.4745026"><ele>304.5</ele><time>2026-05-02T15:40:52.326Z</time></trkpt><trkpt lat="43.8195196" lon="12.4743615"><ele>302.25</ele><time>2026-05-02T15:40:53.325Z</time></trkpt><trkpt lat="43.8196119" lon="12.4742538"><ele>300.0</ele><time>2026-05-02T15:40:54.326Z</time></trkpt><trkpt lat="43.8197041" lon="12.4741601"><ele>300.0</ele><time>2026-05-02T15:40:55.328Z</time></trkpt><trkpt lat="43.8197553" lon="12.4740735"><ele>300.0</ele><time>2026-05-02T15:40:56.32Z</time></trkpt><trkpt lat="43.8198219" lon="12.474001"><ele>300.0</ele><time>2026-05-02T15:40:57.325Z</time></trkpt><trkpt lat="43.8198651" lon="12.4738675"><ele>300.0</ele><time>2026-05-02T15:40:58.326Z</time></trkpt><trkpt lat="43.8199124" lon="12.47372"><ele>300.0</ele><time>2026-05-02T15:40:59.322Z</time></trkpt><trkpt lat="43.8199615" lon="12.4735647"><ele>297.5</ele><time>2026-05-02T15:41:00.324Z</time></trkpt><trkpt lat="43.8200164" lon="12.4733782"><ele>295.0</ele><time>2026-05-02T15:41:01.326Z</time></trkpt><trkpt lat="43.8200583" lon="12.4732247"><ele>292.5</ele><time>2026-05-02T15:41:02.324Z</time></trkpt><trkpt lat="43.8201024" lon="12.4730775"><ele>290.0</ele><time>2026-05-02T15:41:03.326Z</time></trkpt><trkpt lat="43.8201547" lon="12.4729418"><ele>292.6666666666667</ele><time>2026-05-02T15:41:04.325Z</time></trkpt><trkpt lat="43.8202079" lon="12.4728375"><ele>295.33333333333337</ele><time>2026-05-02T15:41:05.322Z</time></trkpt><trkpt lat="43.8202481" lon="12.472731"><ele>298.0</ele><time>2026-05-02T15:41:06.325Z</time></trkpt><trkpt lat="43.8202742" lon="12.472643"><ele>300.6666666666667</ele><time>2026-05-02T15:41:07.325Z</time></trkpt><trkpt lat="43.8202859" lon="12.4725293"><ele>303.3333333333333</ele><time>2026-05-02T15:41:08.323Z</time></trkpt><trkpt lat="43.8203149" lon="12.4724352"><ele>306.0</ele><time>2026-05-02T15:41:09.325Z</time></trkpt><trkpt lat="43.8203309" lon="12.4723119"><ele>306.0</ele><time>2026-05-02T15:41:11.321Z</time></trkpt><trkpt lat="43.8203" lon="12.4722087"><ele>306.0</ele><time>2026-05-02T15:41:14.321Z</time></trkpt><trkpt lat="43.8203014" lon="12.4722966"><ele>306.0</ele><time>2026-05-02T15:41:22.325Z</time></trkpt><trkpt lat="43.8202756" lon="12.4725559"><ele>306.0</ele><time>2026-05-02T15:41:24.323Z</time></trkpt><trkpt lat="43.8202358" lon="12.4727065"><ele>306.0</ele><time>2026-05-02T15:41:25.325Z</time></trkpt><trkpt lat="43.8201707" lon="12.4728633"><ele>308.75</ele><time>2026-05-02T15:41:26.325Z</time></trkpt><trkpt lat="43.820099" lon="12.4730333"><ele>311.5</ele><time>2026-05-02T15:41:27.324Z</time></trkpt><trkpt lat="43.8200338" lon="12.4732245"><ele>314.25</ele><time>2026-05-02T15:41:28.321Z</time></trkpt><trkpt lat="43.8199869" lon="12.4734102"><ele>317.0</ele><time>2026-05-02T15:41:29.319Z</time></trkpt><trkpt lat="43.8199373" lon="12.4735766"><ele>317.0</ele><time>2026-05-02T15:41:30.326Z</time></trkpt><trkpt lat="43.8198891" lon="12.4737213"><ele>317.0</ele><time>2026-05-02T15:41:31.324Z</time></trkpt><trkpt lat="43.8198481" lon="12.4738643"><ele>317.0</ele><time>2026-05-02T15:41:32.325Z</time></trkpt><trkpt lat="43.8197943" lon="12.4739786"><ele>317.0</ele><time>2026-05-02T15:41:33.325Z</time></trkpt><trkpt lat="43.819725" lon="12.474094"><ele>317.0</ele><time>2026-05-02T15:41:34.322Z</time></trkpt><trkpt lat="43.8196491" lon="12.474207"><ele>312.75</ele><time>2026-05-02T15:41:35.325Z</time></trkpt><trkpt lat="43.819564" lon="12.4743367"><ele>308.5</ele><time>2026-05-02T15:41:36.326Z</time></trkpt><trkpt lat="43.8194894" lon="12.4744209"><ele>304.25</ele><time>2026-05-02T15:41:37.325Z</time></trkpt><trkpt lat="43.8194138" lon="12.4745606"><ele>300.0</ele><time>2026-05-02T15:41:38.325Z</time></trkpt><trkpt lat="43.8193511" lon="12.4747188"><ele>301.8</ele><time>2026-05-02T15:41:39.327Z</time></trkpt><trkpt lat="43.8193067" lon="12.4748832"><ele>303.6</ele><time>2026-05-02T15:41:40.324Z</time></trkpt><trkpt lat="43.8192709" lon="12.4750207"><ele>305.4</ele><time>2026-05-02T15:41:41.326Z</time></trkpt><trkpt lat="43.8192431" lon="12.4751461"><ele>307.2</ele><time>2026-05-02T15:41:42.327Z</time></trkpt><trkpt lat="43.8192091" lon="12.4752568"><ele>309.0</ele><time>2026-05-02T15:41:43.316Z</time></trkpt><trkpt lat="43.8191812" lon="12.4753654"><ele>306.0</ele><time>2026-05-02T15:41:44.326Z</time></trkpt><trkpt lat="43.8191624" lon="12.4754509"><ele>303.0</ele><time>2026-05-02T15:41:46.323Z</time></trkpt><trkpt lat="43.8192316" lon="12.4754895"><ele>300.0</ele><time>2026-05-02T15:41:48.323Z</time></trkpt><trkpt lat="43.8193417" lon="12.4753804"><ele>297.0</ele><time>2026-05-02T15:41:50.326Z</time></trkpt><trkpt lat="43.8194117" lon="12.4752968"><ele>294.0</ele><time>2026-05-02T15:41:51.323Z</time></trkpt><trkpt lat="43.8194669" lon="12.4752046"><ele>292.6666666666667</ele><time>2026-05-02T15:41:52.325Z</time></trkpt><trkpt lat="43.8195126" lon="12.4751265"><ele>291.3333333333333</ele><time>2026-05-02T15:41:53.325Z</time></trkpt><trkpt lat="43.8195772" lon="12.4750624"><ele>290.0</ele><time>2026-05-02T15:41:54.323Z</time></trkpt><trkpt lat="43.8196523" lon="12.4750054"><ele>288.66666666666663</ele><time>2026-05-02T15:41:55.324Z</time></trkpt><trkpt lat="43.8197377" lon="12.4749534"><ele>287.3333333333333</ele><time>2026-05-02T15:41:56.326Z</time></trkpt><trkpt lat="43.8198348" lon="12.4749047"><ele>286.0</ele><time>2026-05-02T15:41:57.324Z</time></trkpt><trkpt lat="43.8199287" lon="12.474861"><ele>286.0</ele><time>2026-05-02T15:41:58.324Z</time></trkpt><trkpt lat="43.820038" lon="12.4748326"><ele>286.0</ele><time>2026-05-02T15:41:59.324Z</time></trkpt><trkpt lat="43.8201445" lon="12.4747948"><ele>286.0</ele><time>2026-05-02T15:42:00.321Z</time></trkpt><trkpt lat="43.8202479" lon="12.4747586"><ele>286.0</ele><time>2026-05-02T15:42:01.326Z</time></trkpt><trkpt lat="43.8203511" lon="12.4747217"><ele>286.0</ele><time>2026-05-02T15:42:02.32Z</time></trkpt><trkpt lat="43.8204574" lon="12.4746772"><ele>284.0</ele><time>2026-05-02T15:42:03.327Z</time></trkpt><trkpt lat="43.8205598" lon="12.4746407"><ele>282.0</ele><time>2026-05-02T15:42:04.326Z</time></trkpt><trkpt lat="43.8206619" lon="12.4746275"><ele>280.0</ele><time>2026-05-02T15:42:05.322Z</time></trkpt><trkpt lat="43.8207614" lon="12.474588"><ele>278.0</ele><time>2026-05-02T15:42:06.325Z</time></trkpt><trkpt lat="43.8208648" lon="12.4745409"><ele>276.0</ele><time>2026-05-02T15:42:07.323Z</time></trkpt><trkpt lat="43.8209633" lon="12.4744812"><ele>271.8</ele><time>2026-05-02T15:42:08.323Z</time></trkpt><trkpt lat="43.8210498" lon="12.4744012"><ele>267.6</ele><time>2026-05-02T15:42:09.324Z</time></trkpt><trkpt lat="43.8211377" lon="12.4743112"><ele>263.4</ele><time>2026-05-02T15:42:10.326Z</time></trkpt><trkpt lat="43.821221" lon="12.4742116"><ele>259.2</ele><time>2026-05-02T15:42:11.324Z</time></trkpt><trkpt lat="43.8212995" lon="12.4741046"><ele>255.0</ele><time>2026-05-02T15:42:12.325Z</time></trkpt><trkpt lat="43.8213725" lon="12.4740005"><ele>255.0</ele><time>2026-05-02T15:42:13.325Z</time></trkpt><trkpt lat="43.8214288" lon="12.4739184"><ele>255.0</ele><time>2026-05-02T15:42:14.323Z</time></trkpt><trkpt lat="43.8214753" lon="12.4738544"><ele>255.0</ele><time>2026-05-02T15:42:15.323Z</time></trkpt><trkpt lat="43.8215325" lon="12.4737781"><ele>255.0</ele><time>2026-05-02T15:42:17.321Z</time></trkpt><trkpt lat="43.8215885" lon="12.4738917"><ele>255.0</ele><time>2026-05-02T15:42:21.326Z</time></trkpt><trkpt lat="43.8215242" lon="12.4740556"><ele>255.0</ele><time>2026-05-02T15:42:23.32Z</time></trkpt><trkpt lat="43.8214813" lon="12.4741717"><ele>255.0</ele><time>2026-05-02T15:42:24.328Z</time></trkpt><trkpt lat="43.8214333" lon="12.4742951"><ele>255.0</ele><time>2026-05-02T15:42:25.322Z</time></trkpt><trkpt lat="43.8213821" lon="12.4744235"><ele>255.0</ele><time>2026-05-02T15:42:26.325Z</time></trkpt><trkpt lat="43.8213264" lon="12.4745625"><ele>255.0</ele><time>2026-05-02T15:42:27.326Z</time></trkpt><trkpt lat="43.8212646" lon="12.4746885"><ele>256.8</ele><time>2026-05-02T15:42:28.327Z</time></trkpt><trkpt lat="43.8211988" lon="12.4748123"><ele>258.6</ele><time>2026-05-02T15:42:29.325Z</time></trkpt><trkpt lat="43.8211313" lon="12.4749289"><ele>260.4</ele><time>2026-05-02T15:42:30.328Z</time></trkpt><trkpt lat="43.8210618" lon="12.4750397"><ele>262.2</ele><time>2026-05-02T15:42:31.328Z</time></trkpt><trkpt lat="43.8209907" lon="12.475156"><ele>264.0</ele><time>2026-05-02T15:42:32.324Z</time></trkpt><trkpt lat="43.8209271" lon="12.475268"><ele>264.0</ele><time>2026-05-02T15:42:33.325Z</time></trkpt><trkpt lat="43.8208798" lon="12.475369"><ele>264.0</ele><time>2026-05-02T15:42:34.326Z</time></trkpt><trkpt lat="43.8208493" lon="12.4754485"><ele>264.0</ele><time>2026-05-02T15:42:35.324Z</time></trkpt><trkpt lat="43.8208236" lon="12.475529"><ele>264.0</ele><time>2026-05-02T15:42:36.327Z</time></trkpt><trkpt lat="43.8207959" lon="12.4756214"><ele>264.0</ele><time>2026-05-02T15:42:37.328Z</time></trkpt><trkpt lat="43.8207696" lon="12.4757083"><ele>264.0</ele><time>2026-05-02T15:42:38.324Z</time></trkpt><trkpt lat="43.8207242" lon="12.4758146"><ele>264.0</ele><time>2026-05-02T15:42:39.324Z</time></trkpt><trkpt lat="43.8206863" lon="12.4759202"><ele>262.2</ele><time>2026-05-02T15:42:40.328Z</time></trkpt><trkpt lat="43.8206444" lon="12.4760379"><ele>260.4</ele><time>2026-05-02T15:42:41.326Z</time></trkpt><trkpt lat="43.8206064" lon="12.4761311"><ele>258.6</ele><time>2026-05-02T15:42:42.326Z</time></trkpt><trkpt lat="43.8205624" lon="12.476255"><ele>256.8</ele><time>2026-05-02T15:42:43.327Z</time></trkpt><trkpt lat="43.820528" lon="12.4764153"><ele>255.0</ele><time>2026-05-02T15:42:44.325Z</time></trkpt><trkpt lat="43.820476" lon="12.4765478"><ele>252.75</ele><time>2026-05-02T15:42:45.328Z</time></trkpt><trkpt lat="43.8204455" lon="12.4766999"><ele>250.5</ele><time>2026-05-02T15:42:46.328Z</time></trkpt><trkpt lat="43.8204056" lon="12.476854"><ele>248.25</ele><time>2026-05-02T15:42:47.325Z</time></trkpt><trkpt lat="43.8203652" lon="12.476994"><ele>246.0</ele><time>2026-05-02T15:42:48.328Z</time></trkpt><trkpt lat="43.8203168" lon="12.4771333"><ele>247.0</ele><time>2026-05-02T15:42:49.324Z</time></trkpt><trkpt lat="43.8202684" lon="12.4772867"><ele>248.0</ele><time>2026-05-02T15:42:50.326Z</time></trkpt><trkpt lat="43.8202275" lon="12.4774299"><ele>249.0</ele><time>2026-05-02T15:42:51.328Z</time></trkpt><trkpt lat="43.820166" lon="12.4775619"><ele>250.0</ele><time>2026-05-02T15:42:52.323Z</time></trkpt><trkpt lat="43.8200942" lon="12.4776951"><ele>250.0</ele><time>2026-05-02T15:42:53.326Z</time></trkpt><trkpt lat="43.8200206" lon="12.4778234"><ele>250.0</ele><time>2026-05-02T15:42:54.327Z</time></trkpt><trkpt lat="43.8199348" lon="12.477949"><ele>250.0</ele><time>2026-05-02T15:42:55.324Z</time></trkpt><trkpt lat="43.8198673" lon="12.4780785"><ele>250.0</ele><time>2026-05-02T15:42:56.327Z</time></trkpt><trkpt lat="43.8197908" lon="12.478206"><ele>246.5</ele><time>2026-05-02T15:42:57.326Z</time></trkpt><trkpt lat="43.8197088" lon="12.4783396"><ele>243.0</ele><time>2026-05-02T15:42:58.324Z</time></trkpt><trkpt lat="43.8196198" lon="12.4784593"><ele>239.5</ele><time>2026-05-02T15:42:59.327Z</time></trkpt><trkpt lat="43.8195255" lon="12.4785631"><ele>236.0</ele><time>2026-05-02T15:43:00.326Z</time></trkpt><trkpt lat="43.8194299" lon="12.4786375"><ele>236.0</ele><time>2026-05-02T15:43:01.325Z</time></trkpt><trkpt lat="43.8193489" lon="12.4787396"><ele>236.00000000000003</ele><time>2026-05-02T15:43:02.326Z</time></trkpt><trkpt lat="43.8192753" lon="12.4788474"><ele>236.00000000000003</ele><time>2026-05-02T15:43:03.327Z</time></trkpt><trkpt lat="43.8192228" lon="12.4789697"><ele>236.0</ele><time>2026-05-02T15:43:04.325Z</time></trkpt><trkpt lat="43.8191768" lon="12.4791212"><ele>236.0</ele><time>2026-05-02T15:43:05.326Z</time></trkpt><trkpt lat="43.8191389" lon="12.47926"><ele>235.4</ele><time>2026-05-02T15:43:06.327Z</time></trkpt><trkpt lat="43.8190854" lon="12.4793996"><ele>234.8</ele><time>2026-05-02T15:43:07.324Z</time></trkpt><trkpt lat="43.819012" lon="12.4795108"><ele>234.20000000000002</ele><time>2026-05-02T15:43:08.325Z</time></trkpt><trkpt lat="43.8189159" lon="12.4796057"><ele>233.60000000000002</ele><time>2026-05-02T15:43:09.327Z</time></trkpt><trkpt lat="43.8188288" lon="12.4796931"><ele>233.0</ele><time>2026-05-02T15:43:10.325Z</time></trkpt><trkpt lat="43.8187246" lon="12.4797623"><ele>232.60000000000002</ele><time>2026-05-02T15:43:11.329Z</time></trkpt><trkpt lat="43.8186389" lon="12.4797915"><ele>232.20000000000002</ele><time>2026-05-02T15:43:12.325Z</time></trkpt><trkpt lat="43.818578" lon="12.4798768"><ele>231.8</ele><time>2026-05-02T15:43:13.322Z</time></trkpt><trkpt lat="43.8185276" lon="12.4799727"><ele>231.4</ele><time>2026-05-02T15:43:14.325Z</time></trkpt><trkpt lat="43.8185134" lon="12.4801372"><ele>231.0</ele><time>2026-05-02T15:43:15.327Z</time></trkpt><trkpt lat="43.818481" lon="12.4802808"><ele>229.25</ele><time>2026-05-02T15:43:16.325Z</time></trkpt><trkpt lat="43.8184591" lon="12.4804348"><ele>227.5</ele><time>2026-05-02T15:43:17.325Z</time></trkpt><trkpt lat="43.8184304" lon="12.4805855"><ele>225.75</ele><time>2026-05-02T15:43:18.326Z</time></trkpt><trkpt lat="43.8184009" lon="12.4807392"><ele>224.0</ele><time>2026-05-02T15:43:19.324Z</time></trkpt><trkpt lat="43.8183723" lon="12.4808916"><ele>224.0</ele><time>2026-05-02T15:43:20.323Z</time></trkpt><trkpt lat="43.8183409" lon="12.4810471"><ele>224.0</ele><time>2026-05-02T15:43:21.327Z</time></trkpt><trkpt lat="43.8183089" lon="12.4812018"><ele>224.0</ele><time>2026-05-02T15:43:22.323Z</time></trkpt><trkpt lat="43.8182852" lon="12.4813518"><ele>224.0</ele><time>2026-05-02T15:43:23.324Z</time></trkpt><trkpt lat="43.8182454" lon="12.4814924"><ele>223.5</ele><time>2026-05-02T15:43:24.325Z</time></trkpt><trkpt lat="43.8182105" lon="12.4816495"><ele>223.0</ele><time>2026-05-02T15:43:25.322Z</time></trkpt><trkpt lat="43.8181772" lon="12.4818087"><ele>222.5</ele><time>2026-05-02T15:43:26.325Z</time></trkpt><trkpt lat="43.8181513" lon="12.481968"><ele>222.0</ele><time>2026-05-02T15:43:27.328Z</time></trkpt><trkpt lat="43.8181218" lon="12.482126"><ele>221.5</ele><time>2026-05-02T15:43:28.319Z</time></trkpt><trkpt lat="43.8180887" lon="12.4822866"><ele>221.0</ele><time>2026-05-02T15:43:29.326Z</time></trkpt><trkpt lat="43.8180552" lon="12.4824514"><ele>220.5</ele><time>2026-05-02T15:43:30.318Z</time></trkpt><trkpt lat="43.8180081" lon="12.4826066"><ele>220.0</ele><time>2026-05-02T15:43:31.32Z</time></trkpt><trkpt lat="43.817921" lon="12.4827639"><ele>220.0</ele><time>2026-05-02T15:43:32.323Z</time></trkpt><trkpt lat="43.8178569" lon="12.4829273"><ele>220.0</ele><time>2026-05-02T15:43:33.322Z</time></trkpt><trkpt lat="43.8177966" lon="12.4830703"><ele>220.0</ele><time>2026-05-02T15:43:34.324Z</time></trkpt><trkpt lat="43.8177379" lon="12.4832155"><ele>220.0</ele><time>2026-05-02T15:43:35.325Z</time></trkpt><trkpt lat="43.8176812" lon="12.4833498"><ele>220.0</ele><time>2026-05-02T15:43:36.325Z</time></trkpt><trkpt lat="43.817617" lon="12.4834843"><ele>220.0</ele><time>2026-05-02T15:43:37.323Z</time></trkpt><trkpt lat="43.8175664" lon="12.4836228"><ele>220.0</ele><time>2026-05-02T15:43:38.325Z</time></trkpt><trkpt lat="43.8175099" lon="12.4837548"><ele>220.0</ele><time>2026-05-02T15:43:39.325Z</time></trkpt><trkpt lat="43.8174589" lon="12.4838903"><ele>220.0</ele><time>2026-05-02T15:43:40.323Z</time></trkpt><trkpt lat="43.8174307" lon="12.4840294"><ele>220.0</ele><time>2026-05-02T15:43:41.325Z</time></trkpt><trkpt lat="43.8174037" lon="12.4841671"><ele>220.0</ele><time>2026-05-02T15:43:42.323Z</time></trkpt><trkpt lat="43.817404" lon="12.4843218"><ele>220.0</ele><time>2026-05-02T15:43:43.326Z</time></trkpt><trkpt lat="43.8173988" lon="12.4844766"><ele>220.0</ele><time>2026-05-02T15:43:44.325Z</time></trkpt><trkpt lat="43.817394" lon="12.4846239"><ele>220.0</ele><time>2026-05-02T15:43:45.323Z</time></trkpt><trkpt lat="43.8174775" lon="12.4847546"><ele>219.2</ele><time>2026-05-02T15:43:46.325Z</time></trkpt><trkpt lat="43.8175175" lon="12.4848709"><ele>218.4</ele><time>2026-05-02T15:43:47.325Z</time></trkpt><trkpt lat="43.8175543" lon="12.4850066"><ele>217.60000000000002</ele><time>2026-05-02T15:43:48.322Z</time></trkpt><trkpt lat="43.8176156" lon="12.4851448"><ele>216.8</ele><time>2026-05-02T15:43:49.326Z</time></trkpt><trkpt lat="43.8176602" lon="12.4852765"><ele>216.0</ele><time>2026-05-02T15:43:50.327Z</time></trkpt><trkpt lat="43.8177141" lon="12.4854085"><ele>215.25</ele><time>2026-05-02T15:43:51.325Z</time></trkpt><trkpt lat="43.8177706" lon="12.4855485"><ele>214.5</ele><time>2026-05-02T15:43:52.325Z</time></trkpt><trkpt lat="43.817818" lon="12.4856675"><ele>213.75</ele><time>2026-05-02T15:43:53.325Z</time></trkpt><trkpt lat="43.8178581" lon="12.485785"><ele>213.0</ele><time>2026-05-02T15:43:54.326Z</time></trkpt><trkpt lat="43.8178351" lon="12.4860105"><ele>213.0</ele><time>2026-05-02T15:43:56.327Z</time></trkpt><trkpt lat="43.8177476" lon="12.4861384"><ele>213.0</ele><time>2026-05-02T15:43:57.323Z</time></trkpt><trkpt lat="43.8177281" lon="12.4862613"><ele>213.0</ele><time>2026-05-02T15:43:58.325Z</time></trkpt><trkpt lat="43.8177211" lon="12.4863741"><ele>213.0</ele><time>2026-05-02T15:43:59.323Z</time></trkpt><trkpt lat="43.81774" lon="12.486479"><ele>213.0</ele><time>2026-05-02T15:44:00.323Z</time></trkpt><trkpt lat="43.8177837" lon="12.4865646"><ele>213.2</ele><time>2026-05-02T15:44:01.325Z</time></trkpt><trkpt lat="43.8178386" lon="12.486659"><ele>213.4</ele><time>2026-05-02T15:44:02.326Z</time></trkpt><trkpt lat="43.8179022" lon="12.486755"><ele>213.59999999999997</ele><time>2026-05-02T15:44:03.323Z</time></trkpt><trkpt lat="43.8179661" lon="12.4868737"><ele>213.79999999999998</ele><time>2026-05-02T15:44:04.325Z</time></trkpt><trkpt lat="43.8180133" lon="12.4870322"><ele>214.0</ele><time>2026-05-02T15:44:05.325Z</time></trkpt><trkpt lat="43.8180578" lon="12.4871968"><ele>213.5</ele><time>2026-05-02T15:44:06.322Z</time></trkpt><trkpt lat="43.8180911" lon="12.4873603"><ele>213.0</ele><time>2026-05-02T15:44:07.325Z</time></trkpt><trkpt lat="43.8181262" lon="12.4875176"><ele>212.5</ele><time>2026-05-02T15:44:08.322Z</time></trkpt><trkpt lat="43.8181593" lon="12.48767"><ele>212.0</ele><time>2026-05-02T15:44:09.321Z</time></trkpt><trkpt lat="43.8181415" lon="12.4878146"><ele>211.0</ele><time>2026-05-02T15:44:10.325Z</time></trkpt><trkpt lat="43.818141" lon="12.4879779"><ele>210.0</ele><time>2026-05-02T15:44:11.327Z</time></trkpt><trkpt lat="43.8181076" lon="12.4881093"><ele>209.0</ele><time>2026-05-02T15:44:12.324Z</time></trkpt><trkpt lat="43.8180369" lon="12.4882401"><ele>208.0</ele><time>2026-05-02T15:44:13.324Z</time></trkpt><trkpt lat="43.8179907" lon="12.488396"><ele>208.0</ele><time>2026-05-02T15:44:14.323Z</time></trkpt><trkpt lat="43.8179595" lon="12.4885628"><ele>208.0</ele><time>2026-05-02T15:44:15.323Z</time></trkpt><trkpt lat="43.8179265" lon="12.4887307"><ele>208.0</ele><time>2026-05-02T15:44:16.325Z</time></trkpt><trkpt lat="43.8179" lon="12.4889015"><ele>208.0</ele><time>2026-05-02T15:44:17.322Z</time></trkpt><trkpt lat="43.8178763" lon="12.4890703"><ele>207.25</ele><time>2026-05-02T15:44:18.323Z</time></trkpt><trkpt lat="43.8178626" lon="12.4892426"><ele>206.5</ele><time>2026-05-02T15:44:19.327Z</time></trkpt><trkpt lat="43.8178539" lon="12.4894116"><ele>205.75</ele><time>2026-05-02T15:44:20.326Z</time></trkpt><trkpt lat="43.8178461" lon="12.4895746"><ele>205.0</ele><time>2026-05-02T15:44:21.323Z</time></trkpt><trkpt lat="43.817841" lon="12.48973"><ele>204.99999999999997</ele><time>2026-05-02T15:44:22.327Z</time></trkpt><trkpt lat="43.8178388" lon="12.489868"><ele>205.0</ele><time>2026-05-02T15:44:23.325Z</time></trkpt><trkpt lat="43.8178384" lon="12.4899879"><ele>205.0</ele><time>2026-05-02T15:44:24.317Z</time></trkpt><trkpt lat="43.8178383" lon="12.4900853"><ele>205.0</ele><time>2026-05-02T15:44:25.327Z</time></trkpt><trkpt lat="43.8178379" lon="12.4902261"><ele>204.99999999999997</ele><time>2026-05-02T15:44:27.322Z</time></trkpt><trkpt lat="43.817839" lon="12.4903284"><ele>205.0</ele><time>2026-05-02T15:44:29.325Z</time></trkpt><trkpt lat="43.8178221" lon="12.490426"><ele>204.6</ele><time>2026-05-02T15:44:30.324Z</time></trkpt><trkpt lat="43.8177485" lon="12.4905021"><ele>204.2</ele><time>2026-05-02T15:44:31.334Z</time></trkpt><trkpt lat="43.8176914" lon="12.4905608"><ele>203.8</ele><time>2026-05-02T15:44:32.325Z</time></trkpt><trkpt lat="43.8175971" lon="12.4906756"><ele>203.4</ele><time>2026-05-02T15:44:34.323Z</time></trkpt><trkpt lat="43.8176493" lon="12.4908463"><ele>203.0</ele><time>2026-05-02T15:44:35.325Z</time></trkpt><trkpt lat="43.8176581" lon="12.4909604"><ele>202.5</ele><time>2026-05-02T15:44:36.323Z</time></trkpt><trkpt lat="43.8176698" lon="12.4911161"><ele>202.0</ele><time>2026-05-02T15:44:37.326Z</time></trkpt><trkpt lat="43.8177025" lon="12.4912959"><ele>201.5</ele><time>2026-05-02T15:44:38.324Z</time></trkpt><trkpt lat="43.8176551" lon="12.4914465"><ele>201.0</ele><time>2026-05-02T15:44:39.324Z</time></trkpt><trkpt lat="43.817639" lon="12.4915875"><ele>201.0</ele><time>2026-05-02T15:44:40.318Z</time></trkpt><trkpt lat="43.8176209" lon="12.491739"><ele>201.0</ele><time>2026-05-02T15:44:41.326Z</time></trkpt><trkpt lat="43.8175977" lon="12.4918975"><ele>201.0</ele><time>2026-05-02T15:44:42.325Z</time></trkpt><trkpt lat="43.8175697" lon="12.4920599"><ele>201.0</ele><time>2026-05-02T15:44:43.326Z</time></trkpt><trkpt lat="43.8175368" lon="12.4922187"><ele>200.75</ele><time>2026-05-02T15:44:44.326Z</time></trkpt><trkpt lat="43.8174817" lon="12.4923663"><ele>200.5</ele><time>2026-05-02T15:44:45.322Z</time></trkpt><trkpt lat="43.8174108" lon="12.4925023"><ele>200.25</ele><time>2026-05-02T15:44:46.326Z</time></trkpt><trkpt lat="43.8173253" lon="12.4926131"><ele>200.0</ele><time>2026-05-02T15:44:47.326Z</time></trkpt><trkpt lat="43.8172268" lon="12.4926968"><ele>200.0</ele><time>2026-05-02T15:44:48.323Z</time></trkpt><trkpt lat="43.8171174" lon="12.4927701"><ele>200.0</ele><time>2026-05-02T15:44:49.324Z</time></trkpt><trkpt lat="43.816997" lon="12.492841"><ele>200.0</ele><time>2026-05-02T15:44:50.326Z</time></trkpt><trkpt lat="43.816879" lon="12.4929143"><ele>200.0</ele><time>2026-05-02T15:44:51.322Z</time></trkpt><trkpt lat="43.8167694" lon="12.4929832"><ele>199.2</ele><time>2026-05-02T15:44:52.324Z</time></trkpt><trkpt lat="43.8166752" lon="12.4930663"><ele>198.4</ele><time>2026-05-02T15:44:53.326Z</time></trkpt><trkpt lat="43.8166085" lon="12.4931659"><ele>197.60000000000002</ele><time>2026-05-02T15:44:54.322Z</time></trkpt><trkpt lat="43.816568" lon="12.4932815"><ele>196.8</ele><time>2026-05-02T15:44:55.324Z</time></trkpt><trkpt lat="43.816543" lon="12.4934153"><ele>196.0</ele><time>2026-05-02T15:44:56.323Z</time></trkpt><trkpt lat="43.8165271" lon="12.4935544"><ele>196.0</ele><time>2026-05-02T15:44:57.324Z</time></trkpt><trkpt lat="43.8165058" lon="12.4936878"><ele>196.0</ele><time>2026-05-02T15:44:58.323Z</time></trkpt><trkpt lat="43.816481" lon="12.4938274"><ele>196.0</ele><time>2026-05-02T15:44:59.325Z</time></trkpt><trkpt lat="43.8164525" lon="12.4939769"><ele>196.0</ele><time>2026-05-02T15:45:00.325Z</time></trkpt><trkpt lat="43.8164215" lon="12.49413"><ele>196.0</ele><time>2026-05-02T15:45:01.325Z</time></trkpt><trkpt lat="43.8163793" lon="12.4942789"><ele>195.25</ele><time>2026-05-02T15:45:02.325Z</time></trkpt><trkpt lat="43.8163234" lon="12.4944155"><ele>194.5</ele><time>2026-05-02T15:45:03.322Z</time></trkpt><trkpt lat="43.8162501" lon="12.4945345"><ele>193.75</ele><time>2026-05-02T15:45:04.322Z</time></trkpt><trkpt lat="43.8161715" lon="12.4946435"><ele>193.0</ele><time>2026-05-02T15:45:05.324Z</time></trkpt><trkpt lat="43.8160947" lon="12.4947601"><ele>193.4</ele><time>2026-05-02T15:45:06.323Z</time></trkpt><trkpt lat="43.8160297" lon="12.4948977"><ele>193.8</ele><time>2026-05-02T15:45:07.325Z</time></trkpt><trkpt lat="43.8159815" lon="12.4950409"><ele>194.2</ele><time>2026-05-02T15:45:08.325Z</time></trkpt><trkpt lat="43.815934" lon="12.4951627"><ele>194.6</ele><time>2026-05-02T15:45:09.323Z</time></trkpt><trkpt lat="43.8158718" lon="12.4952984"><ele>195.0</ele><time>2026-05-02T15:45:10.325Z</time></trkpt><trkpt lat="43.8158182" lon="12.4954085"><ele>194.25</ele><time>2026-05-02T15:45:11.324Z</time></trkpt><trkpt lat="43.8158026" lon="12.4955425"><ele>193.5</ele><time>2026-05-02T15:45:12.323Z</time></trkpt><trkpt lat="43.8157637" lon="12.495645"><ele>192.75</ele><time>2026-05-02T15:45:13.349Z</time></trkpt><trkpt lat="43.8159293" lon="12.4958255"><ele>192.0</ele><time>2026-05-02T15:45:14.321Z</time></trkpt><trkpt lat="43.8159699" lon="12.4959552"><ele>192.8</ele><time>2026-05-02T15:45:15.322Z</time></trkpt><trkpt lat="43.8160234" lon="12.4960691"><ele>193.6</ele><time>2026-05-02T15:45:16.324Z</time></trkpt><trkpt lat="43.8160797" lon="12.4961963"><ele>194.4</ele><time>2026-05-02T15:45:17.324Z</time></trkpt><trkpt lat="43.8161328" lon="12.4963182"><ele>195.20000000000002</ele><time>2026-05-02T15:45:18.323Z</time></trkpt><trkpt lat="43.816136" lon="12.4964098"><ele>196.0</ele><time>2026-05-02T15:45:19.325Z</time></trkpt><trkpt lat="43.816128" lon="12.4965426"><ele>194.60000000000002</ele><time>2026-05-02T15:45:20.324Z</time></trkpt><trkpt lat="43.8160989" lon="12.4966747"><ele>193.2</ele><time>2026-05-02T15:45:21.324Z</time></trkpt><trkpt lat="43.8160407" lon="12.4967954"><ele>191.8</ele><time>2026-05-02T15:45:22.322Z</time></trkpt><trkpt lat="43.8159798" lon="12.4969116"><ele>190.39999999999998</ele><time>2026-05-02T15:45:23.324Z</time></trkpt><trkpt lat="43.8158744" lon="12.497006"><ele>189.0</ele><time>2026-05-02T15:45:24.323Z</time></trkpt><trkpt lat="43.8157976" lon="12.4971223"><ele>189.0</ele><time>2026-05-02T15:45:25.325Z</time></trkpt><trkpt lat="43.8157321" lon="12.4972492"><ele>189.0</ele><time>2026-05-02T15:45:26.326Z</time></trkpt><trkpt lat="43.8156834" lon="12.497382"><ele>189.0</ele><time>2026-05-02T15:45:27.323Z</time></trkpt><trkpt lat="43.8156403" lon="12.4975379"><ele>189.0</ele><time>2026-05-02T15:45:28.324Z</time></trkpt><trkpt lat="43.8156144" lon="12.4976916"><ele>189.0</ele><time>2026-05-02T15:45:29.324Z</time></trkpt><trkpt lat="43.815609" lon="12.4978459"><ele>189.0</ele><time>2026-05-02T15:45:30.322Z</time></trkpt><trkpt lat="43.8156187" lon="12.4979921"><ele>189.0</ele><time>2026-05-02T15:45:31.354Z</time></trkpt><trkpt lat="43.8156354" lon="12.4981419"><ele>189.0</ele><time>2026-05-02T15:45:32.325Z</time></trkpt><trkpt lat="43.815655" lon="12.4982866"><ele>189.0</ele><time>2026-05-02T15:45:33.323Z</time></trkpt><trkpt lat="43.8156598" lon="12.4984094"><ele>188.6</ele><time>2026-05-02T15:45:34.326Z</time></trkpt><trkpt lat="43.8156522" lon="12.4985333"><ele>188.2</ele><time>2026-05-02T15:45:35.324Z</time></trkpt><trkpt lat="43.8156383" lon="12.4986563"><ele>187.79999999999998</ele><time>2026-05-02T15:45:36.323Z</time></trkpt><trkpt lat="43.8156131" lon="12.4987843"><ele>187.39999999999998</ele><time>2026-05-02T15:45:37.324Z</time></trkpt><trkpt lat="43.815583" lon="12.4989198"><ele>187.0</ele><time>2026-05-02T15:45:38.323Z</time></trkpt><trkpt lat="43.815559" lon="12.4990608"><ele>186.8</ele><time>2026-05-02T15:45:39.322Z</time></trkpt><trkpt lat="43.815535" lon="12.4991873"><ele>186.6</ele><time>2026-05-02T15:45:40.324Z</time></trkpt><trkpt lat="43.8154999" lon="12.4993023"><ele>186.4</ele><time>2026-05-02T15:45:41.326Z</time></trkpt><trkpt lat="43.8154384" lon="12.4994143"><ele>186.20000000000002</ele><time>2026-05-02T15:45:42.323Z</time></trkpt><trkpt lat="43.8153559" lon="12.4995227"><ele>186.0</ele><time>2026-05-02T15:45:43.324Z</time></trkpt><trkpt lat="43.8152484" lon="12.499617"><ele>185.75</ele><time>2026-05-02T15:45:44.325Z</time></trkpt><trkpt lat="43.8151319" lon="12.4996973"><ele>185.5</ele><time>2026-05-02T15:45:45.323Z</time></trkpt><trkpt lat="43.8150213" lon="12.4997737"><ele>185.25</ele><time>2026-05-02T15:45:46.326Z</time></trkpt><trkpt lat="43.8149135" lon="12.4998638"><ele>185.0</ele><time>2026-05-02T15:45:47.325Z</time></trkpt><trkpt lat="43.8148179" lon="12.4999603"><ele>185.0</ele><time>2026-05-02T15:45:48.323Z</time></trkpt><trkpt lat="43.8147388" lon="12.5000798"><ele>185.0</ele><time>2026-05-02T15:45:49.325Z</time></trkpt><trkpt lat="43.8146693" lon="12.5001953"><ele>185.0</ele><time>2026-05-02T15:45:50.325Z</time></trkpt><trkpt lat="43.8145856" lon="12.500316"><ele>185.0</ele><time>2026-05-02T15:45:51.323Z</time></trkpt><trkpt lat="43.8146193" lon="12.5005301"><ele>185.25</ele><time>2026-05-02T15:45:52.324Z</time></trkpt><trkpt lat="43.8145951" lon="12.5006831"><ele>185.5</ele><time>2026-05-02T15:45:53.322Z</time></trkpt><trkpt lat="43.8145877" lon="12.500836"><ele>185.75</ele><time>2026-05-02T15:45:54.323Z</time></trkpt><trkpt lat="43.8146021" lon="12.5010133"><ele>186.0</ele><time>2026-05-02T15:45:55.323Z</time></trkpt><trkpt lat="43.8146023" lon="12.5011807"><ele>186.25</ele><time>2026-05-02T15:45:56.325Z</time></trkpt><trkpt lat="43.81459" lon="12.5013613"><ele>186.5</ele><time>2026-05-02T15:45:57.324Z</time></trkpt><trkpt lat="43.8145803" lon="12.5015007"><ele>186.75</ele><time>2026-05-02T15:45:58.324Z</time></trkpt><trkpt lat="43.8145749" lon="12.5016694"><ele>187.0</ele><time>2026-05-02T15:45:59.326Z</time></trkpt><trkpt lat="43.8145645" lon="12.5018312"><ele>187.0</ele><time>2026-05-02T15:46:00.323Z</time></trkpt><trkpt lat="43.8145506" lon="12.5019929"><ele>187.0</ele><time>2026-05-02T15:46:01.325Z</time></trkpt><trkpt lat="43.8145283" lon="12.5021462"><ele>187.0</ele><time>2026-05-02T15:46:02.328Z</time></trkpt><trkpt lat="43.814493" lon="12.5022878"><ele>187.0</ele><time>2026-05-02T15:46:03.323Z</time></trkpt><trkpt lat="43.814439" lon="12.5024066"><ele>187.0</ele><time>2026-05-02T15:46:04.326Z</time></trkpt><trkpt lat="43.8143815" lon="12.5024909"><ele>186.0</ele><time>2026-05-02T15:46:05.325Z</time></trkpt><trkpt lat="43.8143112" lon="12.5025442"><ele>185.0</ele><time>2026-05-02T15:46:06.32Z</time></trkpt><trkpt lat="43.8142457" lon="12.5025752"><ele>184.0</ele><time>2026-05-02T15:46:07.323Z</time></trkpt><trkpt lat="43.8141757" lon="12.5026084"><ele>183.0</ele><time>2026-05-02T15:46:08.322Z</time></trkpt><trkpt lat="43.8140908" lon="12.5026538"><ele>182.0</ele><time>2026-05-02T15:46:09.317Z</time></trkpt><trkpt lat="43.8139959" lon="12.5027266"><ele>181.0</ele><time>2026-05-02T15:46:10.322Z</time></trkpt><trkpt lat="43.8138979" lon="12.5028275"><ele>181.0</ele><time>2026-05-02T15:46:11.321Z</time></trkpt><trkpt lat="43.8138032" lon="12.5029487"><ele>181.0</ele><time>2026-05-02T15:46:12.324Z</time></trkpt><trkpt lat="43.813714" lon="12.5030758"><ele>181.0</ele><time>2026-05-02T15:46:13.323Z</time></trkpt><trkpt lat="43.8136289" lon="12.5032063"><ele>181.0</ele><time>2026-05-02T15:46:14.326Z</time></trkpt><trkpt lat="43.8135329" lon="12.5033488"><ele>181.0</ele><time>2026-05-02T15:46:15.323Z</time></trkpt><trkpt lat="43.813424" lon="12.5034892"><ele>181.0</ele><time>2026-05-02T15:46:16.325Z</time></trkpt><trkpt lat="43.8133149" lon="12.5036237"><ele>181.0</ele><time>2026-05-02T15:46:17.322Z</time></trkpt><trkpt lat="43.8131968" lon="12.5037566"><ele>181.0</ele><time>2026-05-02T15:46:18.324Z</time></trkpt><trkpt lat="43.813079" lon="12.5038768"><ele>181.0</ele><time>2026-05-02T15:46:19.326Z</time></trkpt><trkpt lat="43.8129585" lon="12.5040184"><ele>181.0</ele><time>2026-05-02T15:46:20.324Z</time></trkpt><trkpt lat="43.8128425" lon="12.504147"><ele>181.0</ele><time>2026-05-02T15:46:21.325Z</time></trkpt><trkpt lat="43.8127284" lon="12.5042653"><ele>181.0</ele><time>2026-05-02T15:46:22.325Z</time></trkpt><trkpt lat="43.8126116" lon="12.5043629"><ele>181.5</ele><time>2026-05-02T15:46:23.323Z</time></trkpt><trkpt lat="43.8124892" lon="12.5044396"><ele>182.0</ele><time>2026-05-02T15:46:24.325Z</time></trkpt><trkpt lat="43.8123642" lon="12.5045021"><ele>182.5</ele><time>2026-05-02T15:46:25.322Z</time></trkpt><trkpt lat="43.8122425" lon="12.5045547"><ele>183.0</ele><time>2026-05-02T15:46:26.324Z</time></trkpt><trkpt lat="43.8121249" lon="12.504608"><ele>181.75</ele><time>2026-05-02T15:46:27.323Z</time></trkpt><trkpt lat="43.8119998" lon="12.5046545"><ele>180.5</ele><time>2026-05-02T15:46:28.322Z</time></trkpt><trkpt lat="43.811901" lon="12.5047833"><ele>179.25</ele><time>2026-05-02T15:46:29.323Z</time></trkpt><trkpt lat="43.8117979" lon="12.5049117"><ele>178.0</ele><time>2026-05-02T15:46:30.323Z</time></trkpt><trkpt lat="43.8116974" lon="12.5050367"><ele>182.0</ele><time>2026-05-02T15:46:31.323Z</time></trkpt><trkpt lat="43.8115761" lon="12.5051721"><ele>186.0</ele><time>2026-05-02T15:46:32.322Z</time></trkpt><trkpt lat="43.8114479" lon="12.5052976"><ele>190.0</ele><time>2026-05-02T15:46:33.324Z</time></trkpt><trkpt lat="43.8113164" lon="12.5054079"><ele>189.5</ele><time>2026-05-02T15:46:34.322Z</time></trkpt><trkpt lat="43.8112457" lon="12.5054879"><ele>189.0</ele><time>2026-05-02T15:46:35.319Z</time></trkpt><trkpt lat="43.8111682" lon="12.5055634"><ele>188.5</ele><time>2026-05-02T15:46:36.325Z</time></trkpt><trkpt lat="43.8111013" lon="12.5056321"><ele>188.0</ele><time>2026-05-02T15:46:37.323Z</time></trkpt><trkpt lat="43.8110377" lon="12.505698"><ele>187.5</ele><time>2026-05-02T15:46:38.322Z</time></trkpt><trkpt lat="43.8109711" lon="12.5057489"><ele>187.0</ele><time>2026-05-02T15:46:39.324Z</time></trkpt><trkpt lat="43.8108908" lon="12.5057769"><ele>191.2</ele><time>2026-05-02T15:46:40.326Z</time></trkpt><trkpt lat="43.8108136" lon="12.5057166"><ele>195.39999999999998</ele><time>2026-05-02T15:46:41.323Z</time></trkpt><trkpt lat="43.8107267" lon="12.5057052"><ele>199.60000000000002</ele><time>2026-05-02T15:46:42.324Z</time></trkpt><trkpt lat="43.8106191" lon="12.5056606"><ele>203.8</ele><time>2026-05-02T15:46:44.323Z</time></trkpt><trkpt lat="43.8105494" lon="12.5056204"><ele>208.0</ele><time>2026-05-02T15:46:46.328Z</time></trkpt><trkpt lat="43.8104195" lon="12.5055777"><ele>207.99999999999997</ele><time>2026-05-02T15:46:48.323Z</time></trkpt><trkpt lat="43.8103377" lon="12.5055574"><ele>208.0</ele><time>2026-05-02T15:46:49.318Z</time></trkpt><trkpt lat="43.8102621" lon="12.5055226"><ele>208.0</ele><time>2026-05-02T15:46:50.323Z</time></trkpt><trkpt lat="43.8101897" lon="12.5054908"><ele>208.0</ele><time>2026-05-02T15:46:51.323Z</time></trkpt><trkpt lat="43.8101181" lon="12.5054583"><ele>207.99999999999997</ele><time>2026-05-02T15:46:52.324Z</time></trkpt><trkpt lat="43.8100167" lon="12.5054166"><ele>208.0</ele><time>2026-05-02T15:46:54.321Z</time></trkpt><trkpt lat="43.8099435" lon="12.5053837"><ele>207.49999999999997</ele><time>2026-05-02T15:46:57.325Z</time></trkpt><trkpt lat="43.8099239" lon="12.5054844"><ele>207.0</ele><time>2026-05-02T15:47:31.325Z</time></trkpt><trkpt lat="43.8098853" lon="12.5056346"><ele>206.5</ele><time>2026-05-02T15:47:32.335Z</time></trkpt><trkpt lat="43.8098626" lon="12.5057322"><ele>206.0</ele><time>2026-05-02T15:47:33.323Z</time></trkpt><trkpt lat="43.8098365" lon="12.5058359"><ele>205.49999999999997</ele><time>2026-05-02T15:47:34.323Z</time></trkpt><trkpt lat="43.8098218" lon="12.5059483"><ele>205.0</ele><time>2026-05-02T15:47:35.33Z</time></trkpt><trkpt lat="43.8098041" lon="12.5060688"><ele>205.0</ele><time>2026-05-02T15:47:36.323Z</time></trkpt><trkpt lat="43.8097759" lon="12.5061829"><ele>205.0</ele><time>2026-05-02T15:47:37.321Z</time></trkpt><trkpt lat="43.8097486" lon="12.5063055"><ele>205.0</ele><time>2026-05-02T15:47:38.321Z</time></trkpt><trkpt lat="43.8097228" lon="12.5064361"><ele>205.0</ele><time>2026-05-02T15:47:39.32Z</time></trkpt><trkpt lat="43.8096795" lon="12.5066955"><ele>204.5</ele><time>2026-05-02T15:47:41.322Z</time></trkpt><trkpt lat="43.8096496" lon="12.5068526"><ele>204.0</ele><time>2026-05-02T15:47:42.322Z</time></trkpt><trkpt lat="43.8096055" lon="12.5070002"><ele>203.5</ele><time>2026-05-02T15:47:43.325Z</time></trkpt><trkpt lat="43.8095707" lon="12.5071532"><ele>203.0</ele><time>2026-05-02T15:47:44.323Z</time></trkpt><trkpt lat="43.8095397" lon="12.5072897"><ele>202.66666666666669</ele><time>2026-05-02T15:47:45.322Z</time></trkpt><trkpt lat="43.8095086" lon="12.5074216"><ele>202.33333333333334</ele><time>2026-05-02T15:47:46.325Z</time></trkpt><trkpt lat="43.8094787" lon="12.5075493"><ele>202.0</ele><time>2026-05-02T15:47:47.325Z</time></trkpt><trkpt lat="43.8094467" lon="12.5076708"><ele>201.66666666666669</ele><time>2026-05-02T15:47:48.323Z</time></trkpt><trkpt lat="43.8094215" lon="12.507776"><ele>201.33333333333334</ele><time>2026-05-02T15:47:49.324Z</time></trkpt><trkpt lat="43.8093992" lon="12.5078728"><ele>201.0</ele><time>2026-05-02T15:47:50.324Z</time></trkpt><trkpt lat="43.8093868" lon="12.5079643"><ele>200.33333333333334</ele><time>2026-05-02T15:47:51.324Z</time></trkpt><trkpt lat="43.8093959" lon="12.5080612"><ele>199.66666666666669</ele><time>2026-05-02T15:47:52.325Z</time></trkpt><trkpt lat="43.8094065" lon="12.50816"><ele>199.0</ele><time>2026-05-02T15:47:53.32Z</time></trkpt><trkpt lat="43.8094527" lon="12.5082528"><ele>198.33333333333334</ele><time>2026-05-02T15:47:54.323Z</time></trkpt><trkpt lat="43.809489" lon="12.5083319"><ele>197.66666666666669</ele><time>2026-05-02T15:47:55.322Z</time></trkpt><trkpt lat="43.809551" lon="12.508402"><ele>197.0</ele><time>2026-05-02T15:47:56.323Z</time></trkpt><trkpt lat="43.8096301" lon="12.5084763"><ele>197.0</ele><time>2026-05-02T15:47:57.324Z</time></trkpt><trkpt lat="43.8096971" lon="12.5085551"><ele>197.0</ele><time>2026-05-02T15:47:58.322Z</time></trkpt><trkpt lat="43.8097641" lon="12.5086518"><ele>197.0</ele><time>2026-05-02T15:47:59.325Z</time></trkpt><trkpt lat="43.8098255" lon="12.5087555"><ele>197.0</ele><time>2026-05-02T15:48:00.323Z</time></trkpt><trkpt lat="43.8098866" lon="12.5088554"><ele>197.0</ele><time>2026-05-02T15:48:01.325Z</time></trkpt><trkpt lat="43.8099351" lon="12.5089637"><ele>196.6</ele><time>2026-05-02T15:48:02.325Z</time></trkpt><trkpt lat="43.8099848" lon="12.5090696"><ele>196.2</ele><time>2026-05-02T15:48:03.324Z</time></trkpt><trkpt lat="43.8100394" lon="12.5091752"><ele>195.8</ele><time>2026-05-02T15:48:04.324Z</time></trkpt><trkpt lat="43.8100832" lon="12.5092946"><ele>195.4</ele><time>2026-05-02T15:48:05.324Z</time></trkpt><trkpt lat="43.8101673" lon="12.5093752"><ele>195.0</ele><time>2026-05-02T15:48:06.323Z</time></trkpt><trkpt lat="43.810244" lon="12.5094745"><ele>195.0</ele><time>2026-05-02T15:48:07.322Z</time></trkpt><trkpt lat="43.8103222" lon="12.5095656"><ele>195.0</ele><time>2026-05-02T15:48:08.323Z</time></trkpt><trkpt lat="43.810405" lon="12.5096521"><ele>195.0</ele><time>2026-05-02T15:48:09.32Z</time></trkpt><trkpt lat="43.8104879" lon="12.5097416"><ele>195.0</ele><time>2026-05-02T15:48:10.327Z</time></trkpt><trkpt lat="43.810573" lon="12.5098253"><ele>195.0</ele><time>2026-05-02T15:48:11.323Z</time></trkpt><trkpt lat="43.8106485" lon="12.5099226"><ele>193.33333333333334</ele><time>2026-05-02T15:48:12.325Z</time></trkpt><trkpt lat="43.8107183" lon="12.5100136"><ele>191.66666666666666</ele><time>2026-05-02T15:48:13.324Z</time></trkpt><trkpt lat="43.8107898" lon="12.5100956"><ele>190.0</ele><time>2026-05-02T15:48:14.324Z</time></trkpt><trkpt lat="43.8108466" lon="12.5101525"><ele>188.33333333333331</ele><time>2026-05-02T15:48:15.324Z</time></trkpt><trkpt lat="43.8109125" lon="12.5102514"><ele>186.66666666666666</ele><time>2026-05-02T15:48:16.323Z</time></trkpt><trkpt lat="43.8109759" lon="12.5103292"><ele>185.0</ele><time>2026-05-02T15:48:17.323Z</time></trkpt><trkpt lat="43.811039" lon="12.510413"><ele>183.16666666666666</ele><time>2026-05-02T15:48:18.325Z</time></trkpt><trkpt lat="43.8111041" lon="12.510483"><ele>181.33333333333331</ele><time>2026-05-02T15:48:19.331Z</time></trkpt><trkpt lat="43.8111705" lon="12.5105525"><ele>179.5</ele><time>2026-05-02T15:48:20.322Z</time></trkpt><trkpt lat="43.8112291" lon="12.5106195"><ele>177.66666666666666</ele><time>2026-05-02T15:48:21.324Z</time></trkpt><trkpt lat="43.8113011" lon="12.5106862"><ele>175.83333333333334</ele><time>2026-05-02T15:48:22.322Z</time></trkpt><trkpt lat="43.8113529" lon="12.5107365"><ele>174.0</ele><time>2026-05-02T15:48:23.324Z</time></trkpt><trkpt lat="43.8114097" lon="12.5108002"><ele>174.0</ele><time>2026-05-02T15:48:24.324Z</time></trkpt><trkpt lat="43.8114764" lon="12.5109054"><ele>174.0</ele><time>2026-05-02T15:48:26.325Z</time></trkpt><trkpt lat="43.8115247" lon="12.5109761"><ele>174.0</ele><time>2026-05-02T15:48:53.323Z</time></trkpt><trkpt lat="43.8115912" lon="12.5110356"><ele>174.0</ele><time>2026-05-02T15:48:54.332Z</time></trkpt><trkpt lat="43.8116567" lon="12.5110755"><ele>174.0</ele><time>2026-05-02T15:48:55.323Z</time></trkpt><trkpt lat="43.8118139" lon="12.511121"><ele>173.66666666666666</ele><time>2026-05-02T15:48:56.328Z</time></trkpt><trkpt lat="43.8119494" lon="12.5111684"><ele>173.33333333333331</ele><time>2026-05-02T15:48:57.322Z</time></trkpt><trkpt lat="43.8121037" lon="12.5112169"><ele>173.0</ele><time>2026-05-02T15:48:58.321Z</time></trkpt><trkpt lat="43.8122687" lon="12.511275"><ele>172.0</ele><time>2026-05-02T15:48:59.324Z</time></trkpt><trkpt lat="43.8124403" lon="12.5113695"><ele>171.0</ele><time>2026-05-02T15:49:00.323Z</time></trkpt><trkpt lat="43.8126061" lon="12.5114959"><ele>170.0</ele><time>2026-05-02T15:49:01.325Z</time></trkpt><trkpt lat="43.8127616" lon="12.5116638"><ele>171.66666666666666</ele><time>2026-05-02T15:49:02.325Z</time></trkpt><trkpt lat="43.8129035" lon="12.5118602"><ele>173.33333333333334</ele><time>2026-05-02T15:49:03.325Z</time></trkpt><trkpt lat="43.8130226" lon="12.5120845"><ele>175.0</ele><time>2026-05-02T15:49:04.323Z</time></trkpt><trkpt lat="43.8131138" lon="12.5123371"><ele>175.0</ele><time>2026-05-02T15:49:05.328Z</time></trkpt><trkpt lat="43.8131809" lon="12.5125898"><ele>175.0</ele><time>2026-05-02T15:49:06.324Z</time></trkpt><trkpt lat="43.8132363" lon="12.5128253"><ele>175.0</ele><time>2026-05-02T15:49:07.323Z</time></trkpt><trkpt lat="43.8132862" lon="12.5130325"><ele>174.2</ele><time>2026-05-02T15:49:08.324Z</time></trkpt><trkpt lat="43.813329" lon="12.5132071"><ele>173.4</ele><time>2026-05-02T15:49:09.324Z</time></trkpt><trkpt lat="43.8133669" lon="12.5133709"><ele>172.60000000000002</ele><time>2026-05-02T15:49:10.324Z</time></trkpt><trkpt lat="43.8133976" lon="12.5135067"><ele>171.8</ele><time>2026-05-02T15:49:11.325Z</time></trkpt><trkpt lat="43.8134242" lon="12.5136243"><ele>171.0</ele><time>2026-05-02T15:49:12.323Z</time></trkpt><trkpt lat="43.8134485" lon="12.5137272"><ele>170.85714285714283</ele><time>2026-05-02T15:49:13.324Z</time></trkpt><trkpt lat="43.8134728" lon="12.5138233"><ele>170.71428571428572</ele><time>2026-05-02T15:49:14.319Z</time></trkpt><trkpt lat="43.8134928" lon="12.5139141"><ele>170.57142857142856</ele><time>2026-05-02T15:49:15.324Z</time></trkpt><trkpt lat="43.8135139" lon="12.514002"><ele>170.42857142857142</ele><time>2026-05-02T15:49:16.32Z</time></trkpt><trkpt lat="43.8135355" lon="12.5140897"><ele>170.28571428571428</ele><time>2026-05-02T15:49:17.323Z</time></trkpt><trkpt lat="43.8135562" lon="12.5141834"><ele>170.14285714285714</ele><time>2026-05-02T15:49:18.324Z</time></trkpt><trkpt lat="43.8135827" lon="12.5142934"><ele>170.0</ele><time>2026-05-02T15:49:19.325Z</time></trkpt><trkpt lat="43.8136181" lon="12.5144228"><ele>173.0</ele><time>2026-05-02T15:49:20.323Z</time></trkpt><trkpt lat="43.8136578" lon="12.5145595"><ele>176.0</ele><time>2026-05-02T15:49:21.324Z</time></trkpt><trkpt lat="43.8136964" lon="12.514707"><ele>179.0</ele><time>2026-05-02T15:49:22.323Z</time></trkpt><trkpt lat="43.8137338" lon="12.5148654"><ele>182.0</ele><time>2026-05-02T15:49:23.324Z</time></trkpt><trkpt lat="43.8137737" lon="12.5150473"><ele>182.0</ele><time>2026-05-02T15:49:24.324Z</time></trkpt><trkpt lat="43.8138247" lon="12.5152568"><ele>182.0</ele><time>2026-05-02T15:49:25.327Z</time></trkpt><trkpt lat="43.8138785" lon="12.5154988"><ele>182.0</ele><time>2026-05-02T15:49:26.321Z</time></trkpt><trkpt lat="43.8139344" lon="12.5157672"><ele>181.0</ele><time>2026-05-02T15:49:27.324Z</time></trkpt><trkpt lat="43.8139825" lon="12.5160453"><ele>180.0</ele><time>2026-05-02T15:49:28.323Z</time></trkpt><trkpt lat="43.8140321" lon="12.5163122"><ele>179.0</ele><time>2026-05-02T15:49:29.323Z</time></trkpt><trkpt lat="43.8140926" lon="12.5165464"><ele>178.0</ele><time>2026-05-02T15:49:30.32Z</time></trkpt><trkpt lat="43.8141481" lon="12.5167738"><ele>177.0</ele><time>2026-05-02T15:49:31.323Z</time></trkpt><trkpt lat="43.8142007" lon="12.5170012"><ele>176.0</ele><time>2026-05-02T15:49:32.324Z</time></trkpt><trkpt lat="43.8142586" lon="12.5172389"><ele>174.66666666666666</ele><time>2026-05-02T15:49:33.322Z</time></trkpt><trkpt lat="43.8143182" lon="12.5174683"><ele>173.33333333333334</ele><time>2026-05-02T15:49:34.323Z</time></trkpt><trkpt lat="43.8143743" lon="12.5177075"><ele>172.0</ele><time>2026-05-02T15:49:35.325Z</time></trkpt><trkpt lat="43.8144235" lon="12.5179434"><ele>176.66666666666669</ele><time>2026-05-02T15:49:36.322Z</time></trkpt><trkpt lat="43.8144712" lon="12.5181903"><ele>181.33333333333334</ele><time>2026-05-02T15:49:37.323Z</time></trkpt><trkpt lat="43.8144482" lon="12.5184429"><ele>186.0</ele><time>2026-05-02T15:49:38.323Z</time></trkpt><trkpt lat="43.8144072" lon="12.5187027"><ele>187.66666666666666</ele><time>2026-05-02T15:49:39.325Z</time></trkpt><trkpt lat="43.8143443" lon="12.5189691"><ele>189.33333333333331</ele><time>2026-05-02T15:49:40.323Z</time></trkpt><trkpt lat="43.8142825" lon="12.5192539"><ele>191.0</ele><time>2026-05-02T15:49:41.323Z</time></trkpt><trkpt lat="43.8142393" lon="12.5195697"><ele>181.5</ele><time>2026-05-02T15:49:42.323Z</time></trkpt><trkpt lat="43.8142089" lon="12.5198815"><ele>172.0</ele><time>2026-05-02T15:49:43.323Z</time></trkpt><trkpt lat="43.8142001" lon="12.5202054"><ele>170.0</ele><time>2026-05-02T15:49:44.323Z</time></trkpt><trkpt lat="43.8142178" lon="12.5205314"><ele>168.0</ele><time>2026-05-02T15:49:45.329Z</time></trkpt><trkpt lat="43.8142606" lon="12.5208633"><ele>168.0</ele><time>2026-05-02T15:49:46.324Z</time></trkpt><trkpt lat="43.8143156" lon="12.5211829"><ele>168.0</ele><time>2026-05-02T15:49:47.322Z</time></trkpt><trkpt lat="43.8143741" lon="12.5214822"><ele>171.66666666666666</ele><time>2026-05-02T15:49:48.324Z</time></trkpt><trkpt lat="43.814426" lon="12.5217648"><ele>175.33333333333331</ele><time>2026-05-02T15:49:49.323Z</time></trkpt><trkpt lat="43.814473" lon="12.5220534"><ele>179.0</ele><time>2026-05-02T15:49:50.321Z</time></trkpt><trkpt lat="43.8145136" lon="12.5223387"><ele>179.0</ele><time>2026-05-02T15:49:51.323Z</time></trkpt><trkpt lat="43.814474" lon="12.5226534"><ele>179.0</ele><time>2026-05-02T15:49:52.322Z</time></trkpt><trkpt lat="43.8144398" lon="12.5229585"><ele>178.0</ele><time>2026-05-02T15:49:53.322Z</time></trkpt><trkpt lat="43.8143818" lon="12.5232604"><ele>177.0</ele><time>2026-05-02T15:49:54.322Z</time></trkpt><trkpt lat="43.8142932" lon="12.5235537"><ele>173.66666666666666</ele><time>2026-05-02T15:49:55.322Z</time></trkpt><trkpt lat="43.814181" lon="12.5238213"><ele>170.33333333333331</ele><time>2026-05-02T15:49:56.324Z</time></trkpt><trkpt lat="43.8140539" lon="12.5240553"><ele>167.0</ele><time>2026-05-02T15:49:57.322Z</time></trkpt><trkpt lat="43.8139335" lon="12.5242735"><ele>167.0</ele><time>2026-05-02T15:49:58.322Z</time></trkpt><trkpt lat="43.8138187" lon="12.5244777"><ele>167.0</ele><time>2026-05-02T15:49:59.322Z</time></trkpt><trkpt lat="43.8137086" lon="12.5246857"><ele>167.0</ele><time>2026-05-02T15:50:00.324Z</time></trkpt><trkpt lat="43.8135986" lon="12.5248825"><ele>167.33333333333331</ele><time>2026-05-02T15:50:01.323Z</time></trkpt><trkpt lat="43.8134945" lon="12.5250691"><ele>167.66666666666666</ele><time>2026-05-02T15:50:02.321Z</time></trkpt><trkpt lat="43.8133908" lon="12.5252506"><ele>168.0</ele><time>2026-05-02T15:50:03.325Z</time></trkpt><trkpt lat="43.8132874" lon="12.5254314"><ele>168.0</ele><time>2026-05-02T15:50:04.315Z</time></trkpt><trkpt lat="43.813189" lon="12.5256065"><ele>168.0</ele><time>2026-05-02T15:50:05.323Z</time></trkpt><trkpt lat="43.8130919" lon="12.5257793"><ele>168.0</ele><time>2026-05-02T15:50:06.323Z</time></trkpt><trkpt lat="43.8129946" lon="12.5259513"><ele>168.0</ele><time>2026-05-02T15:50:07.326Z</time></trkpt><trkpt lat="43.8128982" lon="12.5261239"><ele>168.0</ele><time>2026-05-02T15:50:08.325Z</time></trkpt><trkpt lat="43.8128046" lon="12.5262917"><ele>168.0</ele><time>2026-05-02T15:50:09.326Z</time></trkpt><trkpt lat="43.8127065" lon="12.5264557"><ele>167.0</ele><time>2026-05-02T15:50:10.323Z</time></trkpt><trkpt lat="43.8126229" lon="12.5266036"><ele>166.0</ele><time>2026-05-02T15:50:11.324Z</time></trkpt><trkpt lat="43.8125418" lon="12.5267475"><ele>165.0</ele><time>2026-05-02T15:50:12.325Z</time></trkpt><trkpt lat="43.8124636" lon="12.526888"><ele>164.0</ele><time>2026-05-02T15:50:13.325Z</time></trkpt><trkpt lat="43.812385" lon="12.5270305"><ele>164.0</ele><time>2026-05-02T15:50:14.325Z</time></trkpt><trkpt lat="43.8123066" lon="12.5271773"><ele>164.0</ele><time>2026-05-02T15:50:15.325Z</time></trkpt><trkpt lat="43.812226" lon="12.5273299"><ele>164.0</ele><time>2026-05-02T15:50:16.323Z</time></trkpt><trkpt lat="43.8121477" lon="12.5274736"><ele>164.0</ele><time>2026-05-02T15:50:17.322Z</time></trkpt><trkpt lat="43.8120658" lon="12.5276212"><ele>164.0</ele><time>2026-05-02T15:50:18.324Z</time></trkpt><trkpt lat="43.8119891" lon="12.5277589"><ele>164.0</ele><time>2026-05-02T15:50:19.325Z</time></trkpt><trkpt lat="43.8119097" lon="12.5279005"><ele>164.0</ele><time>2026-05-02T15:50:20.315Z</time></trkpt><trkpt lat="43.811829" lon="12.5280314"><ele>164.0</ele><time>2026-05-02T15:50:21.325Z</time></trkpt><trkpt lat="43.8117551" lon="12.5281751"><ele>164.75</ele><time>2026-05-02T15:50:22.324Z</time></trkpt><trkpt lat="43.8116761" lon="12.5283086"><ele>165.5</ele><time>2026-05-02T15:50:23.323Z</time></trkpt><trkpt lat="43.8115992" lon="12.5284318"><ele>166.25</ele><time>2026-05-02T15:50:24.323Z</time></trkpt><trkpt lat="43.8115264" lon="12.5285959"><ele>167.0</ele><time>2026-05-02T15:50:25.324Z</time></trkpt><trkpt lat="43.8114507" lon="12.5287628"><ele>167.25</ele><time>2026-05-02T15:50:26.324Z</time></trkpt><trkpt lat="43.8113855" lon="12.5289292"><ele>167.5</ele><time>2026-05-02T15:50:27.324Z</time></trkpt><trkpt lat="43.8113148" lon="12.5290891"><ele>167.75</ele><time>2026-05-02T15:50:28.323Z</time></trkpt><trkpt lat="43.8112504" lon="12.5292565"><ele>168.0</ele><time>2026-05-02T15:50:29.323Z</time></trkpt><trkpt lat="43.8111875" lon="12.5294304"><ele>168.25</ele><time>2026-05-02T15:50:30.323Z</time></trkpt><trkpt lat="43.8111293" lon="12.5296082"><ele>168.5</ele><time>2026-05-02T15:50:31.323Z</time></trkpt><trkpt lat="43.8110849" lon="12.5298071"><ele>168.75</ele><time>2026-05-02T15:50:32.321Z</time></trkpt><trkpt lat="43.8110736" lon="12.530021"><ele>169.0</ele><time>2026-05-02T15:50:33.323Z</time></trkpt><trkpt lat="43.811099" lon="12.5302525"><ele>169.33333333333334</ele><time>2026-05-02T15:50:34.322Z</time></trkpt><trkpt lat="43.8111568" lon="12.5304948"><ele>169.66666666666666</ele><time>2026-05-02T15:50:35.321Z</time></trkpt><trkpt lat="43.8112132" lon="12.5307203"><ele>170.0</ele><time>2026-05-02T15:50:36.318Z</time></trkpt><trkpt lat="43.8112848" lon="12.5309666"><ele>170.0</ele><time>2026-05-02T15:50:37.325Z</time></trkpt><trkpt lat="43.8113589" lon="12.5312203"><ele>170.0</ele><time>2026-05-02T15:50:38.323Z</time></trkpt><trkpt lat="43.8114285" lon="12.5314817"><ele>170.0</ele><time>2026-05-02T15:50:39.324Z</time></trkpt><trkpt lat="43.8115068" lon="12.5317412"><ele>168.66666666666666</ele><time>2026-05-02T15:50:40.325Z</time></trkpt><trkpt lat="43.8115897" lon="12.5320017"><ele>167.33333333333334</ele><time>2026-05-02T15:50:41.323Z</time></trkpt><trkpt lat="43.8116732" lon="12.5322532"><ele>166.0</ele><time>2026-05-02T15:50:42.323Z</time></trkpt><trkpt lat="43.8117564" lon="12.5325185"><ele>167.0</ele><time>2026-05-02T15:50:43.323Z</time></trkpt><trkpt lat="43.8118328" lon="12.5327737"><ele>168.0</ele><time>2026-05-02T15:50:44.324Z</time></trkpt><trkpt lat="43.8119084" lon="12.5330309"><ele>169.0</ele><time>2026-05-02T15:50:45.325Z</time></trkpt><trkpt lat="43.8119897" lon="12.5332893"><ele>166.33333333333334</ele><time>2026-05-02T15:50:46.324Z</time></trkpt><trkpt lat="43.8120673" lon="12.5335487"><ele>163.66666666666666</ele><time>2026-05-02T15:50:47.325Z</time></trkpt><trkpt lat="43.812144" lon="12.5338151"><ele>161.0</ele><time>2026-05-02T15:50:48.323Z</time></trkpt><trkpt lat="43.8122148" lon="12.5340786"><ele>158.66666666666666</ele><time>2026-05-02T15:50:49.324Z</time></trkpt><trkpt lat="43.812283" lon="12.534355"><ele>156.33333333333334</ele><time>2026-05-02T15:50:50.32Z</time></trkpt><trkpt lat="43.8123307" lon="12.5346369"><ele>154.0</ele><time>2026-05-02T15:50:51.322Z</time></trkpt><trkpt lat="43.8123677" lon="12.5349153"><ele>153.66666666666669</ele><time>2026-05-02T15:50:52.324Z</time></trkpt><trkpt lat="43.8123958" lon="12.5352057"><ele>153.33333333333334</ele><time>2026-05-02T15:50:53.322Z</time></trkpt><trkpt lat="43.8124138" lon="12.5354937"><ele>153.0</ele><time>2026-05-02T15:50:54.323Z</time></trkpt><trkpt lat="43.8124205" lon="12.5357875"><ele>152.33333333333334</ele><time>2026-05-02T15:50:55.33Z</time></trkpt><trkpt lat="43.8124137" lon="12.5360941"><ele>151.66666666666669</ele><time>2026-05-02T15:50:56.323Z</time></trkpt><trkpt lat="43.8124031" lon="12.5364022"><ele>151.0</ele><time>2026-05-02T15:50:57.442Z</time></trkpt><trkpt lat="43.8123662" lon="12.5370358"><ele>151.5</ele><time>2026-05-02T15:50:59.322Z</time></trkpt><trkpt lat="43.8123484" lon="12.537347"><ele>152.0</ele><time>2026-05-02T15:51:00.324Z</time></trkpt><trkpt lat="43.812333" lon="12.5376624"><ele>151.5</ele><time>2026-05-02T15:51:01.323Z</time></trkpt><trkpt lat="43.8123149" lon="12.5379776"><ele>151.0</ele><time>2026-05-02T15:51:02.324Z</time></trkpt><trkpt lat="43.8122978" lon="12.538301"><ele>151.0</ele><time>2026-05-02T15:51:03.324Z</time></trkpt><trkpt lat="43.8122856" lon="12.5386209"><ele>151.0</ele><time>2026-05-02T15:51:04.322Z</time></trkpt><trkpt lat="43.8122677" lon="12.538947"><ele>151.0</ele><time>2026-05-02T15:51:05.327Z</time></trkpt><trkpt lat="43.8122509" lon="12.5392765"><ele>151.0</ele><time>2026-05-02T15:51:06.323Z</time></trkpt><trkpt lat="43.8122315" lon="12.5395967"><ele>151.0</ele><time>2026-05-02T15:51:07.325Z</time></trkpt><trkpt lat="43.8122073" lon="12.5398924"><ele>151.0</ele><time>2026-05-02T15:51:08.321Z</time></trkpt><trkpt lat="43.8121814" lon="12.5401833"><ele>151.0</ele><time>2026-05-02T15:51:09.323Z</time></trkpt><trkpt lat="43.812146" lon="12.5404408"><ele>152.0</ele><time>2026-05-02T15:51:10.323Z</time></trkpt><trkpt lat="43.8121" lon="12.5406981"><ele>153.0</ele><time>2026-05-02T15:51:11.324Z</time></trkpt><trkpt lat="43.8120399" lon="12.5409373"><ele>154.0</ele><time>2026-05-02T15:51:12.321Z</time></trkpt><trkpt lat="43.8119807" lon="12.5411467"><ele>153.25</ele><time>2026-05-02T15:51:13.324Z</time></trkpt><trkpt lat="43.8119205" lon="12.5413283"><ele>152.5</ele><time>2026-05-02T15:51:14.347Z</time></trkpt><trkpt lat="43.8118624" lon="12.5414864"><ele>151.75</ele><time>2026-05-02T15:51:15.326Z</time></trkpt><trkpt lat="43.8117979" lon="12.541631"><ele>151.0</ele><time>2026-05-02T15:51:16.321Z</time></trkpt><trkpt lat="43.8117329" lon="12.5417748"><ele>151.0</ele><time>2026-05-02T15:51:17.323Z</time></trkpt><trkpt lat="43.8116513" lon="12.5419098"><ele>151.0</ele><time>2026-05-02T15:51:18.324Z</time></trkpt><trkpt lat="43.8115732" lon="12.5420435"><ele>151.0</ele><time>2026-05-02T15:51:19.324Z</time></trkpt><trkpt lat="43.811507" lon="12.5421674"><ele>151.0</ele><time>2026-05-02T15:51:20.322Z</time></trkpt><trkpt lat="43.8114047" lon="12.5423234"><ele>152.0</ele><time>2026-05-02T15:51:21.324Z</time></trkpt><trkpt lat="43.8113221" lon="12.5424514"><ele>153.0</ele><time>2026-05-02T15:51:22.321Z</time></trkpt><trkpt lat="43.8112399" lon="12.5425951"><ele>154.0</ele><time>2026-05-02T15:51:23.321Z</time></trkpt><trkpt lat="43.8111616" lon="12.5427397"><ele>155.0</ele><time>2026-05-02T15:51:24.324Z</time></trkpt><trkpt lat="43.8110898" lon="12.5428938"><ele>154.33333333333331</ele><time>2026-05-02T15:51:25.323Z</time></trkpt><trkpt lat="43.8109921" lon="12.5430487"><ele>153.66666666666666</ele><time>2026-05-02T15:51:26.323Z</time></trkpt><trkpt lat="43.8109041" lon="12.5432332"><ele>153.0</ele><time>2026-05-02T15:51:27.323Z</time></trkpt><trkpt lat="43.8108488" lon="12.5434254"><ele>153.0</ele><time>2026-05-02T15:51:28.324Z</time></trkpt><trkpt lat="43.810794" lon="12.5436131"><ele>153.0</ele><time>2026-05-02T15:51:29.323Z</time></trkpt><trkpt lat="43.8107326" lon="12.5438135"><ele>153.0</ele><time>2026-05-02T15:51:30.323Z</time></trkpt><trkpt lat="43.8106747" lon="12.5440185"><ele>154.33333333333334</ele><time>2026-05-02T15:51:31.324Z</time></trkpt><trkpt lat="43.8106169" lon="12.5442198"><ele>155.66666666666669</ele><time>2026-05-02T15:51:32.325Z</time></trkpt><trkpt lat="43.8105582" lon="12.5444177"><ele>157.0</ele><time>2026-05-02T15:51:33.323Z</time></trkpt><trkpt lat="43.8104944" lon="12.5446178"><ele>159.0</ele><time>2026-05-02T15:51:34.323Z</time></trkpt><trkpt lat="43.8104335" lon="12.5448224"><ele>161.0</ele><time>2026-05-02T15:51:35.325Z</time></trkpt><trkpt lat="43.8103709" lon="12.5450348"><ele>163.0</ele><time>2026-05-02T15:51:36.347Z</time></trkpt><trkpt lat="43.8103133" lon="12.5452546"><ele>163.33333333333334</ele><time>2026-05-02T15:51:37.323Z</time></trkpt><trkpt lat="43.8102497" lon="12.5454727"><ele>163.66666666666666</ele><time>2026-05-02T15:51:38.324Z</time></trkpt><trkpt lat="43.810194" lon="12.5456974"><ele>164.0</ele><time>2026-05-02T15:51:39.32Z</time></trkpt><trkpt lat="43.8101516" lon="12.5459282"><ele>164.0</ele><time>2026-05-02T15:51:40.323Z</time></trkpt><trkpt lat="43.8101292" lon="12.5461704"><ele>164.0</ele><time>2026-05-02T15:51:41.325Z</time></trkpt><trkpt lat="43.8101289" lon="12.5464179"><ele>164.0</ele><time>2026-05-02T15:51:42.321Z</time></trkpt><trkpt lat="43.8101622" lon="12.5466785"><ele>164.0</ele><time>2026-05-02T15:51:43.325Z</time></trkpt><trkpt lat="43.8102082" lon="12.5469492"><ele>164.0</ele><time>2026-05-02T15:51:44.324Z</time></trkpt><trkpt lat="43.8102533" lon="12.5472281"><ele>164.0</ele><time>2026-05-02T15:51:45.323Z</time></trkpt><trkpt lat="43.8102887" lon="12.5475223"><ele>164.33333333333331</ele><time>2026-05-02T15:51:46.323Z</time></trkpt><trkpt lat="43.8103047" lon="12.5477967"><ele>164.66666666666666</ele><time>2026-05-02T15:51:47.324Z</time></trkpt><trkpt lat="43.8103155" lon="12.5480669"><ele>165.0</ele><time>2026-05-02T15:51:48.323Z</time></trkpt><trkpt lat="43.8102615" lon="12.5483549"><ele>165.66666666666666</ele><time>2026-05-02T15:51:49.323Z</time></trkpt><trkpt lat="43.8102193" lon="12.5486302"><ele>166.33333333333331</ele><time>2026-05-02T15:51:50.323Z</time></trkpt><trkpt lat="43.81019" lon="12.5489127"><ele>167.0</ele><time>2026-05-02T15:51:51.323Z</time></trkpt><trkpt lat="43.8101911" lon="12.5492142"><ele>167.66666666666666</ele><time>2026-05-02T15:51:52.324Z</time></trkpt><trkpt lat="43.8102036" lon="12.5494984"><ele>168.33333333333334</ele><time>2026-05-02T15:51:53.323Z</time></trkpt><trkpt lat="43.8102178" lon="12.5497832"><ele>169.0</ele><time>2026-05-02T15:51:54.323Z</time></trkpt><trkpt lat="43.8102186" lon="12.550075"><ele>170.0</ele><time>2026-05-02T15:51:55.317Z</time></trkpt><trkpt lat="43.8102253" lon="12.5503514"><ele>171.0</ele><time>2026-05-02T15:51:56.323Z</time></trkpt><trkpt lat="43.8102188" lon="12.5506356"><ele>172.0</ele><time>2026-05-02T15:51:57.323Z</time></trkpt><trkpt lat="43.8101963" lon="12.5509065"><ele>172.0</ele><time>2026-05-02T15:51:58.324Z</time></trkpt><trkpt lat="43.8101764" lon="12.5511798"><ele>172.0</ele><time>2026-05-02T15:51:59.322Z</time></trkpt><trkpt lat="43.810171" lon="12.551446"><ele>172.0</ele><time>2026-05-02T15:52:00.321Z</time></trkpt><trkpt lat="43.8101944" lon="12.5516879"><ele>170.66666666666669</ele><time>2026-05-02T15:52:01.323Z</time></trkpt><trkpt lat="43.8102545" lon="12.5519096"><ele>169.33333333333334</ele><time>2026-05-02T15:52:02.323Z</time></trkpt><trkpt lat="43.8103497" lon="12.5521054"><ele>168.0</ele><time>2026-05-02T15:52:03.323Z</time></trkpt><trkpt lat="43.810474" lon="12.5522803"><ele>165.0</ele><time>2026-05-02T15:52:04.323Z</time></trkpt><trkpt lat="43.8106178" lon="12.5524346"><ele>162.0</ele><time>2026-05-02T15:52:05.322Z</time></trkpt><trkpt lat="43.8107612" lon="12.5525935"><ele>159.0</ele><time>2026-05-02T15:52:06.322Z</time></trkpt><trkpt lat="43.810893" lon="12.552757"><ele>157.33333333333334</ele><time>2026-05-02T15:52:07.323Z</time></trkpt><trkpt lat="43.8110097" lon="12.5529329"><ele>155.66666666666669</ele><time>2026-05-02T15:52:08.325Z</time></trkpt><trkpt lat="43.8111224" lon="12.5531118"><ele>154.0</ele><time>2026-05-02T15:52:09.323Z</time></trkpt><trkpt lat="43.8111947" lon="12.5533112"><ele>154.0</ele><time>2026-05-02T15:52:10.325Z</time></trkpt><trkpt lat="43.811248" lon="12.5535003"><ele>154.0</ele><time>2026-05-02T15:52:11.319Z</time></trkpt><trkpt lat="43.8112865" lon="12.553692"><ele>154.0</ele><time>2026-05-02T15:52:12.324Z</time></trkpt><trkpt lat="43.8113159" lon="12.5538668"><ele>154.0</ele><time>2026-05-02T15:52:13.315Z</time></trkpt><trkpt lat="43.8113459" lon="12.5540409"><ele>153.75</ele><time>2026-05-02T15:52:14.323Z</time></trkpt><trkpt lat="43.8113728" lon="12.5542056"><ele>153.5</ele><time>2026-05-02T15:52:15.325Z</time></trkpt><trkpt lat="43.811403" lon="12.5543761"><ele>153.25</ele><time>2026-05-02T15:52:16.321Z</time></trkpt><trkpt lat="43.8114283" lon="12.5545458"><ele>153.0</ele><time>2026-05-02T15:52:17.324Z</time></trkpt><trkpt lat="43.8114613" lon="12.5547302"><ele>152.25</ele><time>2026-05-02T15:52:18.323Z</time></trkpt><trkpt lat="43.8114908" lon="12.5549046"><ele>151.5</ele><time>2026-05-02T15:52:19.323Z</time></trkpt><trkpt lat="43.8115183" lon="12.5550799"><ele>150.75</ele><time>2026-05-02T15:52:20.322Z</time></trkpt><trkpt lat="43.8115487" lon="12.5552581"><ele>150.0</ele><time>2026-05-02T15:52:21.313Z</time></trkpt><trkpt lat="43.8115836" lon="12.555434"><ele>149.0</ele><time>2026-05-02T15:52:22.324Z</time></trkpt><trkpt lat="43.8116081" lon="12.5556083"><ele>148.0</ele><time>2026-05-02T15:52:23.324Z</time></trkpt><trkpt lat="43.8116395" lon="12.5557858"><ele>147.0</ele><time>2026-05-02T15:52:24.324Z</time></trkpt><trkpt lat="43.8116699" lon="12.5559709"><ele>146.0</ele><time>2026-05-02T15:52:25.323Z</time></trkpt><trkpt lat="43.8117071" lon="12.5561463"><ele>145.75</ele><time>2026-05-02T15:52:26.321Z</time></trkpt><trkpt lat="43.8117408" lon="12.5563323"><ele>145.5</ele><time>2026-05-02T15:52:27.323Z</time></trkpt><trkpt lat="43.8117755" lon="12.5565248"><ele>145.25</ele><time>2026-05-02T15:52:28.329Z</time></trkpt><trkpt lat="43.8118074" lon="12.5567269"><ele>145.0</ele><time>2026-05-02T15:52:29.323Z</time></trkpt><trkpt lat="43.8118373" lon="12.5569382"><ele>145.66666666666669</ele><time>2026-05-02T15:52:30.323Z</time></trkpt><trkpt lat="43.811868" lon="12.5571541"><ele>146.33333333333334</ele><time>2026-05-02T15:52:31.324Z</time></trkpt><trkpt lat="43.8118971" lon="12.5573771"><ele>147.0</ele><time>2026-05-02T15:52:32.323Z</time></trkpt><trkpt lat="43.8119202" lon="12.5575937"><ele>147.0</ele><time>2026-05-02T15:52:33.323Z</time></trkpt><trkpt lat="43.8119445" lon="12.5578113"><ele>147.0</ele><time>2026-05-02T15:52:34.325Z</time></trkpt><trkpt lat="43.8119642" lon="12.5580321"><ele>147.0</ele><time>2026-05-02T15:52:35.322Z</time></trkpt><trkpt lat="43.8119772" lon="12.5582701"><ele>146.66666666666666</ele><time>2026-05-02T15:52:36.326Z</time></trkpt><trkpt lat="43.8119953" lon="12.5584998"><ele>146.33333333333331</ele><time>2026-05-02T15:52:37.317Z</time></trkpt><trkpt lat="43.8120024" lon="12.5587704"><ele>146.0</ele><time>2026-05-02T15:52:38.324Z</time></trkpt><trkpt lat="43.8120093" lon="12.5590252"><ele>145.66666666666666</ele><time>2026-05-02T15:52:39.324Z</time></trkpt><trkpt lat="43.8120165" lon="12.55928"><ele>145.33333333333334</ele><time>2026-05-02T15:52:40.323Z</time></trkpt><trkpt lat="43.8120046" lon="12.5595068"><ele>145.0</ele><time>2026-05-02T15:52:41.324Z</time></trkpt><trkpt lat="43.8119896" lon="12.5597245"><ele>147.33333333333334</ele><time>2026-05-02T15:52:42.324Z</time></trkpt><trkpt lat="43.8119429" lon="12.559944"><ele>149.66666666666666</ele><time>2026-05-02T15:52:43.324Z</time></trkpt><trkpt lat="43.8118677" lon="12.5601709"><ele>152.0</ele><time>2026-05-02T15:52:44.324Z</time></trkpt><trkpt lat="43.8117598" lon="12.5603876"><ele>152.0</ele><time>2026-05-02T15:52:45.323Z</time></trkpt><trkpt lat="43.811633" lon="12.5606161"><ele>152.0</ele><time>2026-05-02T15:52:46.323Z</time></trkpt><trkpt lat="43.8114997" lon="12.5608481"><ele>152.0</ele><time>2026-05-02T15:52:47.326Z</time></trkpt><trkpt lat="43.811377" lon="12.5610593"><ele>154.33333333333331</ele><time>2026-05-02T15:52:48.323Z</time></trkpt><trkpt lat="43.8112597" lon="12.561259"><ele>156.66666666666666</ele><time>2026-05-02T15:52:49.325Z</time></trkpt><trkpt lat="43.8111496" lon="12.5614423"><ele>159.0</ele><time>2026-05-02T15:52:50.325Z</time></trkpt><trkpt lat="43.8110599" lon="12.5616243"><ele>159.0</ele><time>2026-05-02T15:52:51.321Z</time></trkpt><trkpt lat="43.811008" lon="12.5618154"><ele>159.0</ele><time>2026-05-02T15:52:52.324Z</time></trkpt><trkpt lat="43.8109982" lon="12.5620107"><ele>159.0</ele><time>2026-05-02T15:52:53.318Z</time></trkpt><trkpt lat="43.8110366" lon="12.5621955"><ele>159.0</ele><time>2026-05-02T15:52:54.32Z</time></trkpt><trkpt lat="43.8111165" lon="12.5623452"><ele>157.66666666666666</ele><time>2026-05-02T15:52:55.323Z</time></trkpt><trkpt lat="43.8112339" lon="12.5624681"><ele>156.33333333333331</ele><time>2026-05-02T15:52:56.323Z</time></trkpt><trkpt lat="43.8113913" lon="12.5625667"><ele>155.0</ele><time>2026-05-02T15:52:57.323Z</time></trkpt><trkpt lat="43.8115561" lon="12.5626548"><ele>155.0</ele><time>2026-05-02T15:52:58.323Z</time></trkpt><trkpt lat="43.8117341" lon="12.5627343"><ele>155.0</ele><time>2026-05-02T15:52:59.323Z</time></trkpt><trkpt lat="43.811952" lon="12.562736"><ele>155.0</ele><time>2026-05-02T15:53:00.323Z</time></trkpt><trkpt lat="43.8121354" lon="12.5627684"><ele>154.66666666666666</ele><time>2026-05-02T15:53:01.324Z</time></trkpt><trkpt lat="43.8122807" lon="12.5628558"><ele>154.33333333333334</ele><time>2026-05-02T15:53:02.324Z</time></trkpt><trkpt lat="43.8124031" lon="12.5629789"><ele>154.0</ele><time>2026-05-02T15:53:03.323Z</time></trkpt><trkpt lat="43.8125055" lon="12.5631147"><ele>154.0</ele><time>2026-05-02T15:53:04.323Z</time></trkpt><trkpt lat="43.8126168" lon="12.5632691"><ele>154.0</ele><time>2026-05-02T15:53:05.322Z</time></trkpt><trkpt lat="43.8126627" lon="12.5634981"><ele>154.0</ele><time>2026-05-02T15:53:06.323Z</time></trkpt><trkpt lat="43.8126214" lon="12.5637632"><ele>153.33333333333334</ele><time>2026-05-02T15:53:07.323Z</time></trkpt><trkpt lat="43.8126407" lon="12.5640328"><ele>152.66666666666666</ele><time>2026-05-02T15:53:08.323Z</time></trkpt><trkpt lat="43.8126876" lon="12.5642934"><ele>152.0</ele><time>2026-05-02T15:53:09.323Z</time></trkpt><trkpt lat="43.8128285" lon="12.5645953"><ele>154.33333333333331</ele><time>2026-05-02T15:53:10.325Z</time></trkpt><trkpt lat="43.8129167" lon="12.564851"><ele>156.66666666666666</ele><time>2026-05-02T15:53:11.322Z</time></trkpt><trkpt lat="43.8129989" lon="12.5651221"><ele>159.0</ele><time>2026-05-02T15:53:12.322Z</time></trkpt><trkpt lat="43.8130736" lon="12.5654166"><ele>159.0</ele><time>2026-05-02T15:53:13.324Z</time></trkpt><trkpt lat="43.8130968" lon="12.5657281"><ele>159.0</ele><time>2026-05-02T15:53:14.32Z</time></trkpt><trkpt lat="43.8130717" lon="12.566019"><ele>159.0</ele><time>2026-05-02T15:53:15.322Z</time></trkpt><trkpt lat="43.813079" lon="12.5663272"><ele>154.5</ele><time>2026-05-02T15:53:16.323Z</time></trkpt><trkpt lat="43.8131136" lon="12.5666463"><ele>150.0</ele><time>2026-05-02T15:53:17.321Z</time></trkpt><trkpt lat="43.8131344" lon="12.5669709"><ele>148.66666666666666</ele><time>2026-05-02T15:53:18.322Z</time></trkpt><trkpt lat="43.8131715" lon="12.5672862"><ele>147.33333333333331</ele><time>2026-05-02T15:53:19.324Z</time></trkpt><trkpt lat="43.8132174" lon="12.5675721"><ele>146.0</ele><time>2026-05-02T15:53:20.322Z</time></trkpt><trkpt lat="43.8132251" lon="12.5678944"><ele>145.66666666666666</ele><time>2026-05-02T15:53:21.323Z</time></trkpt><trkpt lat="43.8133487" lon="12.5681607"><ele>145.33333333333334</ele><time>2026-05-02T15:53:22.325Z</time></trkpt><trkpt lat="43.8133954" lon="12.5684514"><ele>145.0</ele><time>2026-05-02T15:53:23.324Z</time></trkpt><trkpt lat="43.8134153" lon="12.5687489"><ele>144.66666666666669</ele><time>2026-05-02T15:53:24.321Z</time></trkpt><trkpt lat="43.8134147" lon="12.569051"><ele>144.33333333333334</ele><time>2026-05-02T15:53:25.324Z</time></trkpt><trkpt lat="43.8133942" lon="12.5693399"><ele>144.0</ele><time>2026-05-02T15:53:26.323Z</time></trkpt><trkpt lat="43.8133619" lon="12.569624"><ele>145.0</ele><time>2026-05-02T15:53:27.325Z</time></trkpt><trkpt lat="43.8133354" lon="12.5698961"><ele>146.0</ele><time>2026-05-02T15:53:28.324Z</time></trkpt><trkpt lat="43.8133008" lon="12.5701502"><ele>147.0</ele><time>2026-05-02T15:53:29.322Z</time></trkpt><trkpt lat="43.8132773" lon="12.5703849"><ele>147.33333333333334</ele><time>2026-05-02T15:53:30.324Z</time></trkpt><trkpt lat="43.8132595" lon="12.5706049"><ele>147.66666666666669</ele><time>2026-05-02T15:53:31.323Z</time></trkpt><trkpt lat="43.8132436" lon="12.5708165"><ele>148.0</ele><time>2026-05-02T15:53:32.322Z</time></trkpt><trkpt lat="43.8132279" lon="12.5710115"><ele>148.0</ele><time>2026-05-02T15:53:33.325Z</time></trkpt><trkpt lat="43.8132043" lon="12.5711807"><ele>148.0</ele><time>2026-05-02T15:53:34.323Z</time></trkpt><trkpt lat="43.8131551" lon="12.5713195"><ele>148.0</ele><time>2026-05-02T15:53:35.324Z</time></trkpt><trkpt lat="43.8130809" lon="12.5714487"><ele>148.0</ele><time>2026-05-02T15:53:36.323Z</time></trkpt><trkpt lat="43.8130139" lon="12.5716236"><ele>147.66666666666669</ele><time>2026-05-02T15:53:37.322Z</time></trkpt><trkpt lat="43.8129601" lon="12.571834"><ele>147.33333333333334</ele><time>2026-05-02T15:53:38.322Z</time></trkpt><trkpt lat="43.8128717" lon="12.5720461"><ele>147.0</ele><time>2026-05-02T15:53:39.324Z</time></trkpt><trkpt lat="43.8127748" lon="12.5722568"><ele>146.0</ele><time>2026-05-02T15:53:40.32Z</time></trkpt><trkpt lat="43.8126848" lon="12.5724906"><ele>145.0</ele><time>2026-05-02T15:53:41.323Z</time></trkpt><trkpt lat="43.8125979" lon="12.5727322"><ele>144.0</ele><time>2026-05-02T15:53:42.321Z</time></trkpt><trkpt lat="43.8124956" lon="12.5729936"><ele>139.5</ele><time>2026-05-02T15:53:43.322Z</time></trkpt><trkpt lat="43.8124165" lon="12.573291"><ele>135.0</ele><time>2026-05-02T15:53:44.323Z</time></trkpt><trkpt lat="43.8123411" lon="12.5735838"><ele>134.0</ele><time>2026-05-02T15:53:45.323Z</time></trkpt><trkpt lat="43.8122695" lon="12.5738995"><ele>133.0</ele><time>2026-05-02T15:53:46.323Z</time></trkpt><trkpt lat="43.812186" lon="12.5742208"><ele>133.0</ele><time>2026-05-02T15:53:47.349Z</time></trkpt><trkpt lat="43.8121364" lon="12.5745627"><ele>133.0</ele><time>2026-05-02T15:53:48.323Z</time></trkpt><trkpt lat="43.8120767" lon="12.5748815"><ele>133.0</ele><time>2026-05-02T15:53:49.323Z</time></trkpt><trkpt lat="43.8120093" lon="12.5752124"><ele>133.0</ele><time>2026-05-02T15:53:50.324Z</time></trkpt><trkpt lat="43.8120681" lon="12.5756024"><ele>133.0</ele><time>2026-05-02T15:53:51.325Z</time></trkpt><trkpt lat="43.8120703" lon="12.5759805"><ele>133.0</ele><time>2026-05-02T15:53:52.322Z</time></trkpt><trkpt lat="43.8120746" lon="12.5763498"><ele>133.0</ele><time>2026-05-02T15:53:53.347Z</time></trkpt><trkpt lat="43.8120742" lon="12.5767116"><ele>133.0</ele><time>2026-05-02T15:53:54.323Z</time></trkpt><trkpt lat="43.8120675" lon="12.5770706"><ele>132.0</ele><time>2026-05-02T15:53:55.324Z</time></trkpt><trkpt lat="43.8120702" lon="12.5774484"><ele>131.0</ele><time>2026-05-02T15:53:56.317Z</time></trkpt><trkpt lat="43.8120606" lon="12.5778211"><ele>130.5</ele><time>2026-05-02T15:53:57.321Z</time></trkpt><trkpt lat="43.812044" lon="12.5781914"><ele>130.0</ele><time>2026-05-02T15:53:58.318Z</time></trkpt><trkpt lat="43.8120196" lon="12.5785636"><ele>129.0</ele><time>2026-05-02T15:53:59.325Z</time></trkpt><trkpt lat="43.8119811" lon="12.5789238"><ele>128.0</ele><time>2026-05-02T15:54:00.323Z</time></trkpt><trkpt lat="43.8119419" lon="12.5793131"><ele>129.5</ele><time>2026-05-02T15:54:01.324Z</time></trkpt><trkpt lat="43.8118931" lon="12.5796497"><ele>131.0</ele><time>2026-05-02T15:54:02.323Z</time></trkpt><trkpt lat="43.8118495" lon="12.5800034"><ele>130.5</ele><time>2026-05-02T15:54:03.324Z</time></trkpt><trkpt lat="43.8118066" lon="12.5803476"><ele>130.0</ele><time>2026-05-02T15:54:04.324Z</time></trkpt><trkpt lat="43.8117669" lon="12.580688"><ele>129.0</ele><time>2026-05-02T15:54:05.326Z</time></trkpt><trkpt lat="43.8117113" lon="12.5810484"><ele>128.0</ele><time>2026-05-02T15:54:06.324Z</time></trkpt><trkpt lat="43.8116604" lon="12.5814017"><ele>127.5</ele><time>2026-05-02T15:54:07.324Z</time></trkpt><trkpt lat="43.8116143" lon="12.5817679"><ele>127.0</ele><time>2026-05-02T15:54:08.32Z</time></trkpt><trkpt lat="43.8115711" lon="12.5821387"><ele>129.0</ele><time>2026-05-02T15:54:09.323Z</time></trkpt><trkpt lat="43.8115394" lon="12.5825128"><ele>131.0</ele><time>2026-05-02T15:54:10.322Z</time></trkpt><trkpt lat="43.8115135" lon="12.5828942"><ele>131.0</ele><time>2026-05-02T15:54:11.323Z</time></trkpt><trkpt lat="43.8115011" lon="12.5832766"><ele>131.0</ele><time>2026-05-02T15:54:12.319Z</time></trkpt><trkpt lat="43.8114966" lon="12.5836556"><ele>129.5</ele><time>2026-05-02T15:54:13.324Z</time></trkpt><trkpt lat="43.8114955" lon="12.5840346"><ele>128.0</ele><time>2026-05-02T15:54:14.317Z</time></trkpt><trkpt lat="43.8114986" lon="12.584413"><ele>127.5</ele><time>2026-05-02T15:54:15.323Z</time></trkpt><trkpt lat="43.811501" lon="12.5847937"><ele>127.0</ele><time>2026-05-02T15:54:16.321Z</time></trkpt><trkpt lat="43.8115097" lon="12.5851723"><ele>125.5</ele><time>2026-05-02T15:54:17.322Z</time></trkpt><trkpt lat="43.8115207" lon="12.5855513"><ele>124.0</ele><time>2026-05-02T15:54:18.323Z</time></trkpt><trkpt lat="43.8115343" lon="12.5859259"><ele>123.5</ele><time>2026-05-02T15:54:19.323Z</time></trkpt><trkpt lat="43.8115469" lon="12.5863007"><ele>123.0</ele><time>2026-05-02T15:54:20.322Z</time></trkpt><trkpt lat="43.8115502" lon="12.5866674"><ele>122.5</ele><time>2026-05-02T15:54:21.322Z</time></trkpt><trkpt lat="43.8115522" lon="12.5870386"><ele>122.0</ele><time>2026-05-02T15:54:22.322Z</time></trkpt><trkpt lat="43.8115345" lon="12.5874008"><ele>122.0</ele><time>2026-05-02T15:54:23.322Z</time></trkpt><trkpt lat="43.8115114" lon="12.5877653"><ele>122.0</ele><time>2026-05-02T15:54:24.324Z</time></trkpt><trkpt lat="43.8114724" lon="12.588125"><ele>121.5</ele><time>2026-05-02T15:54:25.323Z</time></trkpt><trkpt lat="43.8114179" lon="12.5884793"><ele>121.0</ele><time>2026-05-02T15:54:26.323Z</time></trkpt><trkpt lat="43.8113541" lon="12.588832"><ele>121.0</ele><time>2026-05-02T15:54:27.322Z</time></trkpt><trkpt lat="43.8112904" lon="12.5891889"><ele>121.0</ele><time>2026-05-02T15:54:28.32Z</time></trkpt><trkpt lat="43.8112104" lon="12.5895528"><ele>121.5</ele><time>2026-05-02T15:54:29.323Z</time></trkpt><trkpt lat="43.8111404" lon="12.5899243"><ele>122.0</ele><time>2026-05-02T15:54:30.314Z</time></trkpt><trkpt lat="43.8110648" lon="12.5902814"><ele>122.0</ele><time>2026-05-02T15:54:31.323Z</time></trkpt><trkpt lat="43.8109905" lon="12.5906496"><ele>122.0</ele><time>2026-05-02T15:54:32.349Z</time></trkpt><trkpt lat="43.8109221" lon="12.5910042"><ele>124.0</ele><time>2026-05-02T15:54:33.324Z</time></trkpt><trkpt lat="43.8108467" lon="12.5913484"><ele>126.0</ele><time>2026-05-02T15:54:34.323Z</time></trkpt><trkpt lat="43.8107818" lon="12.5917066"><ele>125.5</ele><time>2026-05-02T15:54:35.322Z</time></trkpt><trkpt lat="43.8107293" lon="12.5920764"><ele>125.0</ele><time>2026-05-02T15:54:36.322Z</time></trkpt><trkpt lat="43.8106858" lon="12.5924479"><ele>125.0</ele><time>2026-05-02T15:54:37.322Z</time></trkpt><trkpt lat="43.8106605" lon="12.5928069"><ele>125.0</ele><time>2026-05-02T15:54:38.322Z</time></trkpt><trkpt lat="43.8106508" lon="12.5931768"><ele>124.0</ele><time>2026-05-02T15:54:39.324Z</time></trkpt><trkpt lat="43.810658" lon="12.5935414"><ele>123.0</ele><time>2026-05-02T15:54:40.323Z</time></trkpt><trkpt lat="43.8106867" lon="12.5939053"><ele>123.0</ele><time>2026-05-02T15:54:41.323Z</time></trkpt><trkpt lat="43.8107225" lon="12.5942698"><ele>123.0</ele><time>2026-05-02T15:54:42.323Z</time></trkpt><trkpt lat="43.8107742" lon="12.5946382"><ele>121.5</ele><time>2026-05-02T15:54:43.323Z</time></trkpt><trkpt lat="43.810831" lon="12.5950053"><ele>120.0</ele><time>2026-05-02T15:54:44.321Z</time></trkpt><trkpt lat="43.8108976" lon="12.5953696"><ele>119.0</ele><time>2026-05-02T15:54:45.324Z</time></trkpt><trkpt lat="43.8109623" lon="12.5957409"><ele>118.0</ele><time>2026-05-02T15:54:46.323Z</time></trkpt><trkpt lat="43.8110256" lon="12.5961116"><ele>119.5</ele><time>2026-05-02T15:54:47.323Z</time></trkpt><trkpt lat="43.8110867" lon="12.5964785"><ele>121.0</ele><time>2026-05-02T15:54:48.321Z</time></trkpt><trkpt lat="43.8111507" lon="12.5968506"><ele>121.5</ele><time>2026-05-02T15:54:49.323Z</time></trkpt><trkpt lat="43.8112155" lon="12.5972169"><ele>122.0</ele><time>2026-05-02T15:54:50.322Z</time></trkpt><trkpt lat="43.8112766" lon="12.5975813"><ele>123.5</ele><time>2026-05-02T15:54:51.322Z</time></trkpt><trkpt lat="43.8113349" lon="12.5979473"><ele>125.0</ele><time>2026-05-02T15:54:52.322Z</time></trkpt><trkpt lat="43.8113844" lon="12.5983165"><ele>126.5</ele><time>2026-05-02T15:54:53.322Z</time></trkpt><trkpt lat="43.8114193" lon="12.5986933"><ele>128.0</ele><time>2026-05-02T15:54:54.322Z</time></trkpt><trkpt lat="43.811432" lon="12.5990656"><ele>128.0</ele><time>2026-05-02T15:54:55.324Z</time></trkpt><trkpt lat="43.8114232" lon="12.5994437"><ele>128.0</ele><time>2026-05-02T15:54:56.323Z</time></trkpt><trkpt lat="43.8114012" lon="12.5998246"><ele>129.5</ele><time>2026-05-02T15:54:57.323Z</time></trkpt><trkpt lat="43.8113631" lon="12.6001853"><ele>131.0</ele><time>2026-05-02T15:54:58.321Z</time></trkpt><trkpt lat="43.8113191" lon="12.6005219"><ele>131.0</ele><time>2026-05-02T15:54:59.323Z</time></trkpt><trkpt lat="43.8112769" lon="12.6008447"><ele>131.0</ele><time>2026-05-02T15:55:00.319Z</time></trkpt><trkpt lat="43.8112352" lon="12.601157"><ele>131.0</ele><time>2026-05-02T15:55:01.325Z</time></trkpt><trkpt lat="43.811197" lon="12.6014784"><ele>131.0</ele><time>2026-05-02T15:55:02.322Z</time></trkpt><trkpt lat="43.8111556" lon="12.6017983"><ele>131.0</ele><time>2026-05-02T15:55:03.322Z</time></trkpt><trkpt lat="43.8111093" lon="12.6021287"><ele>131.0</ele><time>2026-05-02T15:55:04.322Z</time></trkpt><trkpt lat="43.8110572" lon="12.6024576"><ele>131.0</ele><time>2026-05-02T15:55:05.322Z</time></trkpt><trkpt lat="43.8110065" lon="12.6027871"><ele>131.0</ele><time>2026-05-02T15:55:06.322Z</time></trkpt><trkpt lat="43.8109557" lon="12.6031208"><ele>128.5</ele><time>2026-05-02T15:55:07.323Z</time></trkpt><trkpt lat="43.8108992" lon="12.6034545"><ele>126.0</ele><time>2026-05-02T15:55:08.323Z</time></trkpt><trkpt lat="43.8108336" lon="12.6037914"><ele>125.5</ele><time>2026-05-02T15:55:09.322Z</time></trkpt><trkpt lat="43.8107522" lon="12.6041206"><ele>125.0</ele><time>2026-05-02T15:55:10.323Z</time></trkpt><trkpt lat="43.810656" lon="12.6044455"><ele>126.0</ele><time>2026-05-02T15:55:11.324Z</time></trkpt><trkpt lat="43.8105434" lon="12.6047535"><ele>127.0</ele><time>2026-05-02T15:55:12.323Z</time></trkpt><trkpt lat="43.8104107" lon="12.60506"><ele>125.5</ele><time>2026-05-02T15:55:13.323Z</time></trkpt><trkpt lat="43.8102885" lon="12.6053518"><ele>124.0</ele><time>2026-05-02T15:55:14.324Z</time></trkpt><trkpt lat="43.8100993" lon="12.6056094"><ele>124.0</ele><time>2026-05-02T15:55:15.323Z</time></trkpt><trkpt lat="43.8099235" lon="12.605864"><ele>124.0</ele><time>2026-05-02T15:55:16.319Z</time></trkpt><trkpt lat="43.8097316" lon="12.6060988"><ele>124.5</ele><time>2026-05-02T15:55:17.322Z</time></trkpt><trkpt lat="43.8095291" lon="12.606314"><ele>125.0</ele><time>2026-05-02T15:55:18.324Z</time></trkpt><trkpt lat="43.80932" lon="12.6065004"><ele>123.0</ele><time>2026-05-02T15:55:19.323Z</time></trkpt><trkpt lat="43.8091078" lon="12.6066669"><ele>121.0</ele><time>2026-05-02T15:55:20.322Z</time></trkpt><trkpt lat="43.8088973" lon="12.6068129"><ele>121.0</ele><time>2026-05-02T15:55:21.323Z</time></trkpt><trkpt lat="43.808693" lon="12.606927"><ele>121.0</ele><time>2026-05-02T15:55:22.323Z</time></trkpt><trkpt lat="43.8084843" lon="12.6070265"><ele>121.0</ele><time>2026-05-02T15:55:23.322Z</time></trkpt><trkpt lat="43.8082787" lon="12.6071112"><ele>122.0</ele><time>2026-05-02T15:55:24.322Z</time></trkpt><trkpt lat="43.8080701" lon="12.6071964"><ele>123.0</ele><time>2026-05-02T15:55:25.322Z</time></trkpt><trkpt lat="43.8078658" lon="12.6072843"><ele>124.0</ele><time>2026-05-02T15:55:26.323Z</time></trkpt><trkpt lat="43.8076625" lon="12.6073693"><ele>123.33333333333334</ele><time>2026-05-02T15:55:27.323Z</time></trkpt><trkpt lat="43.8074604" lon="12.6074595"><ele>122.66666666666666</ele><time>2026-05-02T15:55:28.322Z</time></trkpt><trkpt lat="43.8072572" lon="12.607543"><ele>122.0</ele><time>2026-05-02T15:55:29.323Z</time></trkpt><trkpt lat="43.8070531" lon="12.607626"><ele>122.0</ele><time>2026-05-02T15:55:30.323Z</time></trkpt><trkpt lat="43.8068507" lon="12.6077126"><ele>122.0</ele><time>2026-05-02T15:55:31.324Z</time></trkpt><trkpt lat="43.8066501" lon="12.6077935"><ele>122.0</ele><time>2026-05-02T15:55:32.321Z</time></trkpt><trkpt lat="43.8064477" lon="12.607873"><ele>121.33333333333333</ele><time>2026-05-02T15:55:33.323Z</time></trkpt><trkpt lat="43.8062409" lon="12.6079532"><ele>120.66666666666666</ele><time>2026-05-02T15:55:34.317Z</time></trkpt><trkpt lat="43.806032" lon="12.6080354"><ele>120.0</ele><time>2026-05-02T15:55:35.344Z</time></trkpt><trkpt lat="43.8058186" lon="12.6081161"><ele>119.66666666666666</ele><time>2026-05-02T15:55:36.324Z</time></trkpt><trkpt lat="43.8056085" lon="12.6081952"><ele>119.33333333333333</ele><time>2026-05-02T15:55:37.322Z</time></trkpt><trkpt lat="43.8053914" lon="12.6082864"><ele>119.0</ele><time>2026-05-02T15:55:38.345Z</time></trkpt><trkpt lat="43.8051777" lon="12.608379"><ele>119.33333333333333</ele><time>2026-05-02T15:55:39.322Z</time></trkpt><trkpt lat="43.8049605" lon="12.6084776"><ele>119.66666666666666</ele><time>2026-05-02T15:55:40.323Z</time></trkpt><trkpt lat="43.8047721" lon="12.6085962"><ele>120.0</ele><time>2026-05-02T15:55:41.322Z</time></trkpt><trkpt lat="43.8045858" lon="12.6086968"><ele>120.0</ele><time>2026-05-02T15:55:42.322Z</time></trkpt><trkpt lat="43.8043506" lon="12.6088969"><ele>120.0</ele><time>2026-05-02T15:55:43.321Z</time></trkpt><trkpt lat="43.8041478" lon="12.6090371"><ele>119.5</ele><time>2026-05-02T15:55:44.324Z</time></trkpt><trkpt lat="43.8039492" lon="12.6091693"><ele>119.0</ele><time>2026-05-02T15:55:45.322Z</time></trkpt><trkpt lat="43.8037486" lon="12.6094283"><ele>119.0</ele><time>2026-05-02T15:55:46.321Z</time></trkpt><trkpt lat="43.803539" lon="12.6096411"><ele>119.0</ele><time>2026-05-02T15:55:47.322Z</time></trkpt><trkpt lat="43.8033598" lon="12.6098751"><ele>115.5</ele><time>2026-05-02T15:55:48.322Z</time></trkpt><trkpt lat="43.8031699" lon="12.6101021"><ele>112.0</ele><time>2026-05-02T15:55:49.321Z</time></trkpt><trkpt lat="43.8029844" lon="12.6103188"><ele>111.5</ele><time>2026-05-02T15:55:50.322Z</time></trkpt><trkpt lat="43.8027985" lon="12.6105398"><ele>111.0</ele><time>2026-05-02T15:55:51.32Z</time></trkpt><trkpt lat="43.8026072" lon="12.6107589"><ele>110.5</ele><time>2026-05-02T15:55:52.323Z</time></trkpt><trkpt lat="43.8024224" lon="12.6109766"><ele>110.0</ele><time>2026-05-02T15:55:53.323Z</time></trkpt><trkpt lat="43.8022354" lon="12.6111941"><ele>110.0</ele><time>2026-05-02T15:55:54.322Z</time></trkpt><trkpt lat="43.8020504" lon="12.6114106"><ele>110.0</ele><time>2026-05-02T15:55:55.322Z</time></trkpt><trkpt lat="43.8018693" lon="12.6116288"><ele>110.0</ele><time>2026-05-02T15:55:56.347Z</time></trkpt><trkpt lat="43.8016916" lon="12.6118406"><ele>110.0</ele><time>2026-05-02T15:55:57.323Z</time></trkpt><trkpt lat="43.8015138" lon="12.6120484"><ele>110.0</ele><time>2026-05-02T15:55:58.323Z</time></trkpt><trkpt lat="43.8013347" lon="12.6122593"><ele>110.0</ele><time>2026-05-02T15:55:59.323Z</time></trkpt><trkpt lat="43.8011578" lon="12.612467"><ele>109.5</ele><time>2026-05-02T15:56:00.323Z</time></trkpt><trkpt lat="43.8009829" lon="12.6126764"><ele>109.0</ele><time>2026-05-02T15:56:01.323Z</time></trkpt><trkpt lat="43.8008046" lon="12.6128922"><ele>108.5</ele><time>2026-05-02T15:56:02.323Z</time></trkpt><trkpt lat="43.8006241" lon="12.6131077"><ele>108.0</ele><time>2026-05-02T15:56:03.323Z</time></trkpt><trkpt lat="43.800443" lon="12.6133228"><ele>108.0</ele><time>2026-05-02T15:56:04.321Z</time></trkpt><trkpt lat="43.8002608" lon="12.613538"><ele>108.0</ele><time>2026-05-02T15:56:05.319Z</time></trkpt><trkpt lat="43.8000778" lon="12.6137556"><ele>107.5</ele><time>2026-05-02T15:56:06.321Z</time></trkpt><trkpt lat="43.7998934" lon="12.6139722"><ele>107.0</ele><time>2026-05-02T15:56:07.318Z</time></trkpt><trkpt lat="43.7997079" lon="12.6141937"><ele>107.0</ele><time>2026-05-02T15:56:08.322Z</time></trkpt><trkpt lat="43.7995205" lon="12.6144131"><ele>107.0</ele><time>2026-05-02T15:56:09.323Z</time></trkpt><trkpt lat="43.7993358" lon="12.6146323"><ele>107.0</ele><time>2026-05-02T15:56:10.325Z</time></trkpt><trkpt lat="43.7991517" lon="12.6148555"><ele>107.0</ele><time>2026-05-02T15:56:11.321Z</time></trkpt><trkpt lat="43.7989663" lon="12.6150786"><ele>107.0</ele><time>2026-05-02T15:56:12.322Z</time></trkpt><trkpt lat="43.7987821" lon="12.6152958"><ele>107.0</ele><time>2026-05-02T15:56:13.322Z</time></trkpt><trkpt lat="43.7985962" lon="12.615516"><ele>106.5</ele><time>2026-05-02T15:56:14.323Z</time></trkpt><trkpt lat="43.7984131" lon="12.6157248"><ele>106.0</ele><time>2026-05-02T15:56:15.322Z</time></trkpt><trkpt lat="43.7982417" lon="12.6159353"><ele>107.5</ele><time>2026-05-02T15:56:16.323Z</time></trkpt><trkpt lat="43.7980412" lon="12.6161597"><ele>109.0</ele><time>2026-05-02T15:56:17.323Z</time></trkpt><trkpt lat="43.7978463" lon="12.6163821"><ele>109.0</ele><time>2026-05-02T15:56:18.323Z</time></trkpt><trkpt lat="43.7976614" lon="12.6165757"><ele>109.0</ele><time>2026-05-02T15:56:19.324Z</time></trkpt><trkpt lat="43.7974635" lon="12.6167857"><ele>110.0</ele><time>2026-05-02T15:56:20.324Z</time></trkpt><trkpt lat="43.7972686" lon="12.6170457"><ele>111.0</ele><time>2026-05-02T15:56:21.317Z</time></trkpt><trkpt lat="43.7970629" lon="12.6173026"><ele>111.0</ele><time>2026-05-02T15:56:22.323Z</time></trkpt><trkpt lat="43.7968904" lon="12.6175187"><ele>111.0</ele><time>2026-05-02T15:56:23.321Z</time></trkpt><trkpt lat="43.7967087" lon="12.6177413"><ele>110.5</ele><time>2026-05-02T15:56:24.322Z</time></trkpt><trkpt lat="43.7965307" lon="12.6179632"><ele>110.0</ele><time>2026-05-02T15:56:25.324Z</time></trkpt><trkpt lat="43.7963504" lon="12.6181821"><ele>110.0</ele><time>2026-05-02T15:56:26.323Z</time></trkpt><trkpt lat="43.7961675" lon="12.6183917"><ele>110.0</ele><time>2026-05-02T15:56:27.323Z</time></trkpt><trkpt lat="43.7959869" lon="12.6186038"><ele>108.5</ele><time>2026-05-02T15:56:28.323Z</time></trkpt><trkpt lat="43.7957987" lon="12.6188376"><ele>107.0</ele><time>2026-05-02T15:56:29.323Z</time></trkpt><trkpt lat="43.7956233" lon="12.6190796"><ele>107.0</ele><time>2026-05-02T15:56:30.324Z</time></trkpt><trkpt lat="43.795461" lon="12.6193345"><ele>107.0</ele><time>2026-05-02T15:56:31.323Z</time></trkpt><trkpt lat="43.7953123" lon="12.6195992"><ele>106.5</ele><time>2026-05-02T15:56:32.322Z</time></trkpt><trkpt lat="43.7951721" lon="12.619875"><ele>106.0</ele><time>2026-05-02T15:56:33.323Z</time></trkpt><trkpt lat="43.795034" lon="12.6201514"><ele>104.5</ele><time>2026-05-02T15:56:34.325Z</time></trkpt><trkpt lat="43.7949092" lon="12.6204399"><ele>103.0</ele><time>2026-05-02T15:56:35.323Z</time></trkpt><trkpt lat="43.7948149" lon="12.6207631"><ele>103.0</ele><time>2026-05-02T15:56:36.323Z</time></trkpt><trkpt lat="43.7947002" lon="12.6210837"><ele>103.0</ele><time>2026-05-02T15:56:37.32Z</time></trkpt><trkpt lat="43.7946193" lon="12.6213925"><ele>103.0</ele><time>2026-05-02T15:56:38.325Z</time></trkpt><trkpt lat="43.7945579" lon="12.6216484"><ele>103.0</ele><time>2026-05-02T15:56:39.325Z</time></trkpt><trkpt lat="43.7944861" lon="12.6219148"><ele>103.0</ele><time>2026-05-02T15:56:40.322Z</time></trkpt><trkpt lat="43.7944215" lon="12.6221854"><ele>103.0</ele><time>2026-05-02T15:56:41.323Z</time></trkpt><trkpt lat="43.7943766" lon="12.6224565"><ele>103.0</ele><time>2026-05-02T15:56:42.321Z</time></trkpt><trkpt lat="43.7943051" lon="12.6226782"><ele>103.0</ele><time>2026-05-02T15:56:43.322Z</time></trkpt><trkpt lat="43.7942258" lon="12.6228782"><ele>103.0</ele><time>2026-05-02T15:56:44.321Z</time></trkpt><trkpt lat="43.7941859" lon="12.6231036"><ele>103.0</ele><time>2026-05-02T15:56:45.322Z</time></trkpt><trkpt lat="43.7941484" lon="12.6233309"><ele>103.0</ele><time>2026-05-02T15:56:46.322Z</time></trkpt><trkpt lat="43.79407" lon="12.6234011"><ele>103.0</ele><time>2026-05-02T15:56:47.323Z</time></trkpt><trkpt lat="43.7940112" lon="12.6235338"><ele>102.75</ele><time>2026-05-02T15:56:48.323Z</time></trkpt><trkpt lat="43.7939486" lon="12.6236676"><ele>102.5</ele><time>2026-05-02T15:56:49.322Z</time></trkpt><trkpt lat="43.7939096" lon="12.6238524"><ele>102.25</ele><time>2026-05-02T15:56:50.324Z</time></trkpt><trkpt lat="43.7938985" lon="12.6240426"><ele>102.0</ele><time>2026-05-02T15:56:51.324Z</time></trkpt><trkpt lat="43.7938451" lon="12.6242539"><ele>102.0</ele><time>2026-05-02T15:56:52.322Z</time></trkpt><trkpt lat="43.793724" lon="12.624553"><ele>102.0</ele><time>2026-05-02T15:56:53.32Z</time></trkpt><trkpt lat="43.7936411" lon="12.6247924"><ele>102.0</ele><time>2026-05-02T15:56:54.324Z</time></trkpt><trkpt lat="43.7935151" lon="12.6250384"><ele>102.0</ele><time>2026-05-02T15:56:55.319Z</time></trkpt><trkpt lat="43.7934006" lon="12.6252892"><ele>102.0</ele><time>2026-05-02T15:56:56.323Z</time></trkpt><trkpt lat="43.7932759" lon="12.6255489"><ele>102.0</ele><time>2026-05-02T15:56:57.323Z</time></trkpt><trkpt lat="43.7931499" lon="12.6258244"><ele>102.0</ele><time>2026-05-02T15:56:58.322Z</time></trkpt><trkpt lat="43.7930201" lon="12.6261009"><ele>102.0</ele><time>2026-05-02T15:56:59.322Z</time></trkpt><trkpt lat="43.7928927" lon="12.6263755"><ele>102.0</ele><time>2026-05-02T15:57:00.322Z</time></trkpt><trkpt lat="43.7927631" lon="12.6266628"><ele>102.0</ele><time>2026-05-02T15:57:01.322Z</time></trkpt><trkpt lat="43.7926381" lon="12.626928"><ele>101.0</ele><time>2026-05-02T15:57:02.322Z</time></trkpt><trkpt lat="43.7925102" lon="12.627198"><ele>100.0</ele><time>2026-05-02T15:57:03.322Z</time></trkpt><trkpt lat="43.7923775" lon="12.6274609"><ele>100.0</ele><time>2026-05-02T15:57:04.322Z</time></trkpt><trkpt lat="43.7922439" lon="12.6277233"><ele>100.0</ele><time>2026-05-02T15:57:05.321Z</time></trkpt><trkpt lat="43.7921164" lon="12.6280033"><ele>100.0</ele><time>2026-05-02T15:57:06.322Z</time></trkpt><trkpt lat="43.7919834" lon="12.628263"><ele>100.0</ele><time>2026-05-02T15:57:07.321Z</time></trkpt><trkpt lat="43.7918523" lon="12.628529"><ele>101.0</ele><time>2026-05-02T15:57:08.322Z</time></trkpt><trkpt lat="43.7917255" lon="12.6288097"><ele>102.0</ele><time>2026-05-02T15:57:09.323Z</time></trkpt><trkpt lat="43.791595" lon="12.6290872"><ele>102.0</ele><time>2026-05-02T15:57:10.323Z</time></trkpt><trkpt lat="43.7914652" lon="12.6293621"><ele>102.0</ele><time>2026-05-02T15:57:11.322Z</time></trkpt><trkpt lat="43.7913437" lon="12.6296416"><ele>104.0</ele><time>2026-05-02T15:57:12.324Z</time></trkpt><trkpt lat="43.7912283" lon="12.6299406"><ele>106.0</ele><time>2026-05-02T15:57:13.322Z</time></trkpt><trkpt lat="43.791129" lon="12.6302577"><ele>104.0</ele><time>2026-05-02T15:57:14.322Z</time></trkpt><trkpt lat="43.7910451" lon="12.6305841"><ele>102.0</ele><time>2026-05-02T15:57:15.323Z</time></trkpt><trkpt lat="43.7909783" lon="12.6309084"><ele>99.5</ele><time>2026-05-02T15:57:16.322Z</time></trkpt><trkpt lat="43.7909278" lon="12.6312389"><ele>97.0</ele><time>2026-05-02T15:57:17.323Z</time></trkpt><trkpt lat="43.7908923" lon="12.6315718"><ele>97.0</ele><time>2026-05-02T15:57:18.324Z</time></trkpt><trkpt lat="43.7908735" lon="12.6319034"><ele>97.0</ele><time>2026-05-02T15:57:19.323Z</time></trkpt><trkpt lat="43.7908706" lon="12.6322396"><ele>97.0</ele><time>2026-05-02T15:57:20.323Z</time></trkpt><trkpt lat="43.7908835" lon="12.6325802"><ele>97.0</ele><time>2026-05-02T15:57:21.322Z</time></trkpt><trkpt lat="43.790909" lon="12.6329174"><ele>98.0</ele><time>2026-05-02T15:57:22.323Z</time></trkpt><trkpt lat="43.7909431" lon="12.6332577"><ele>99.0</ele><time>2026-05-02T15:57:23.322Z</time></trkpt><trkpt lat="43.7909769" lon="12.6335937"><ele>99.5</ele><time>2026-05-02T15:57:24.323Z</time></trkpt><trkpt lat="43.7910083" lon="12.6339237"><ele>100.0</ele><time>2026-05-02T15:57:25.322Z</time></trkpt><trkpt lat="43.7910366" lon="12.6342494"><ele>101.0</ele><time>2026-05-02T15:57:26.323Z</time></trkpt><trkpt lat="43.7910659" lon="12.6345701"><ele>102.0</ele><time>2026-05-02T15:57:27.322Z</time></trkpt><trkpt lat="43.7910979" lon="12.6348954"><ele>102.0</ele><time>2026-05-02T15:57:28.322Z</time></trkpt><trkpt lat="43.7911314" lon="12.6352194"><ele>102.0</ele><time>2026-05-02T15:57:29.323Z</time></trkpt><trkpt lat="43.7911654" lon="12.635543"><ele>102.0</ele><time>2026-05-02T15:57:30.322Z</time></trkpt><trkpt lat="43.7911985" lon="12.6358727"><ele>102.0</ele><time>2026-05-02T15:57:31.323Z</time></trkpt><trkpt lat="43.7912311" lon="12.6361962"><ele>103.0</ele><time>2026-05-02T15:57:32.324Z</time></trkpt><trkpt lat="43.7912662" lon="12.636528"><ele>104.0</ele><time>2026-05-02T15:57:33.323Z</time></trkpt><trkpt lat="43.7912994" lon="12.6368578"><ele>106.0</ele><time>2026-05-02T15:57:34.322Z</time></trkpt><trkpt lat="43.7913306" lon="12.6371887"><ele>108.0</ele><time>2026-05-02T15:57:35.323Z</time></trkpt><trkpt lat="43.7913594" lon="12.6375193"><ele>112.0</ele><time>2026-05-02T15:57:36.321Z</time></trkpt><trkpt lat="43.7913688" lon="12.6378506"><ele>116.0</ele><time>2026-05-02T15:57:37.321Z</time></trkpt><trkpt lat="43.7913647" lon="12.638185"><ele>116.0</ele><time>2026-05-02T15:57:38.324Z</time></trkpt><trkpt lat="43.7912858" lon="12.6384866"><ele>116.0</ele><time>2026-05-02T15:57:39.322Z</time></trkpt><trkpt lat="43.7912159" lon="12.6387913"><ele>119.5</ele><time>2026-05-02T15:57:40.321Z</time></trkpt><trkpt lat="43.7911349" lon="12.6390856"><ele>123.0</ele><time>2026-05-02T15:57:41.319Z</time></trkpt><trkpt lat="43.7910029" lon="12.6393471"><ele>118.5</ele><time>2026-05-02T15:57:42.324Z</time></trkpt><trkpt lat="43.7908736" lon="12.63964"><ele>114.0</ele><time>2026-05-02T15:57:43.323Z</time></trkpt><trkpt lat="43.7907386" lon="12.6399162"><ele>114.0</ele><time>2026-05-02T15:57:44.321Z</time></trkpt><trkpt lat="43.7906092" lon="12.6401891"><ele>114.0</ele><time>2026-05-02T15:57:45.322Z</time></trkpt><trkpt lat="43.7905113" lon="12.64047"><ele>117.0</ele><time>2026-05-02T15:57:46.325Z</time></trkpt><trkpt lat="43.7904482" lon="12.6407623"><ele>120.0</ele><time>2026-05-02T15:57:47.321Z</time></trkpt><trkpt lat="43.7904215" lon="12.6410646"><ele>123.0</ele><time>2026-05-02T15:57:48.321Z</time></trkpt><trkpt lat="43.7904368" lon="12.6413556"><ele>123.0</ele><time>2026-05-02T15:57:49.323Z</time></trkpt><trkpt lat="43.790491" lon="12.6416466"><ele>123.0</ele><time>2026-05-02T15:57:50.322Z</time></trkpt><trkpt lat="43.7905683" lon="12.6419223"><ele>123.0</ele><time>2026-05-02T15:57:51.324Z</time></trkpt><trkpt lat="43.7906453" lon="12.6421861"><ele>121.33333333333334</ele><time>2026-05-02T15:57:52.323Z</time></trkpt><trkpt lat="43.7907453" lon="12.6424033"><ele>119.66666666666667</ele><time>2026-05-02T15:57:53.325Z</time></trkpt><trkpt lat="43.7908334" lon="12.6426253"><ele>118.0</ele><time>2026-05-02T15:57:54.323Z</time></trkpt><trkpt lat="43.7909234" lon="12.6428423"><ele>119.33333333333334</ele><time>2026-05-02T15:57:55.322Z</time></trkpt><trkpt lat="43.7910142" lon="12.6430668"><ele>120.66666666666666</ele><time>2026-05-02T15:57:56.322Z</time></trkpt><trkpt lat="43.7911095" lon="12.6432976"><ele>122.0</ele><time>2026-05-02T15:57:57.322Z</time></trkpt><trkpt lat="43.7912134" lon="12.6435292"><ele>121.0</ele><time>2026-05-02T15:57:58.323Z</time></trkpt><trkpt lat="43.7913124" lon="12.6437682"><ele>120.0</ele><time>2026-05-02T15:57:59.322Z</time></trkpt><trkpt lat="43.7914095" lon="12.6440006"><ele>119.0</ele><time>2026-05-02T15:58:00.323Z</time></trkpt><trkpt lat="43.7914976" lon="12.644223"><ele>119.0</ele><time>2026-05-02T15:58:01.323Z</time></trkpt><trkpt lat="43.791586" lon="12.644443"><ele>119.0</ele><time>2026-05-02T15:58:02.322Z</time></trkpt><trkpt lat="43.7916839" lon="12.6446716"><ele>119.0</ele><time>2026-05-02T15:58:03.322Z</time></trkpt><trkpt lat="43.7918015" lon="12.6449111"><ele>120.0</ele><time>2026-05-02T15:58:04.324Z</time></trkpt><trkpt lat="43.7919258" lon="12.6451855"><ele>121.0</ele><time>2026-05-02T15:58:05.322Z</time></trkpt><trkpt lat="43.7920631" lon="12.6455376"><ele>119.0</ele><time>2026-05-02T15:58:06.322Z</time></trkpt><trkpt lat="43.7922011" lon="12.6458653"><ele>117.0</ele><time>2026-05-02T15:58:07.323Z</time></trkpt><trkpt lat="43.7923254" lon="12.6461744"><ele>114.5</ele><time>2026-05-02T15:58:08.321Z</time></trkpt><trkpt lat="43.7924344" lon="12.646467"><ele>112.0</ele><time>2026-05-02T15:58:09.323Z</time></trkpt><trkpt lat="43.7925174" lon="12.6467573"><ele>111.66666666666667</ele><time>2026-05-02T15:58:10.321Z</time></trkpt><trkpt lat="43.7925685" lon="12.647041"><ele>111.33333333333334</ele><time>2026-05-02T15:58:11.321Z</time></trkpt><trkpt lat="43.7926212" lon="12.6473135"><ele>111.0</ele><time>2026-05-02T15:58:12.321Z</time></trkpt><trkpt lat="43.7926272" lon="12.6475862"><ele>110.33333333333334</ele><time>2026-05-02T15:58:13.323Z</time></trkpt><trkpt lat="43.7926101" lon="12.6478526"><ele>109.66666666666667</ele><time>2026-05-02T15:58:14.318Z</time></trkpt><trkpt lat="43.7926152" lon="12.6481199"><ele>109.0</ele><time>2026-05-02T15:58:15.318Z</time></trkpt><trkpt lat="43.7926152" lon="12.6483573"><ele>109.0</ele><time>2026-05-02T15:58:16.321Z</time></trkpt><trkpt lat="43.7926254" lon="12.6485995"><ele>109.0</ele><time>2026-05-02T15:58:17.321Z</time></trkpt><trkpt lat="43.7926574" lon="12.6488342"><ele>109.0</ele><time>2026-05-02T15:58:18.322Z</time></trkpt><trkpt lat="43.7927657" lon="12.6489916"><ele>110.33333333333334</ele><time>2026-05-02T15:58:19.321Z</time></trkpt><trkpt lat="43.792866" lon="12.649187"><ele>111.66666666666666</ele><time>2026-05-02T15:58:20.322Z</time></trkpt><trkpt lat="43.7930425" lon="12.6493084"><ele>113.0</ele><time>2026-05-02T15:58:21.323Z</time></trkpt><trkpt lat="43.7931931" lon="12.6494558"><ele>112.66666666666666</ele><time>2026-05-02T15:58:22.322Z</time></trkpt><trkpt lat="43.7933709" lon="12.6496019"><ele>112.33333333333334</ele><time>2026-05-02T15:58:23.32Z</time></trkpt><trkpt lat="43.7935445" lon="12.6497484"><ele>112.0</ele><time>2026-05-02T15:58:24.322Z</time></trkpt><trkpt lat="43.7937188" lon="12.6498939"><ele>112.0</ele><time>2026-05-02T15:58:25.322Z</time></trkpt><trkpt lat="43.793883" lon="12.6500437"><ele>112.0</ele><time>2026-05-02T15:58:26.322Z</time></trkpt><trkpt lat="43.7940509" lon="12.6501909"><ele>112.0</ele><time>2026-05-02T15:58:27.323Z</time></trkpt><trkpt lat="43.7942198" lon="12.6503414"><ele>112.33333333333334</ele><time>2026-05-02T15:58:28.322Z</time></trkpt><trkpt lat="43.794386" lon="12.6504776"><ele>112.66666666666666</ele><time>2026-05-02T15:58:29.322Z</time></trkpt><trkpt lat="43.7945467" lon="12.6506191"><ele>113.0</ele><time>2026-05-02T15:58:30.321Z</time></trkpt><trkpt lat="43.7947107" lon="12.6507776"><ele>113.0</ele><time>2026-05-02T15:58:31.32Z</time></trkpt><trkpt lat="43.7948775" lon="12.6509266"><ele>113.0</ele><time>2026-05-02T15:58:32.347Z</time></trkpt><trkpt lat="43.795049" lon="12.6510811"><ele>113.0</ele><time>2026-05-02T15:58:33.323Z</time></trkpt><trkpt lat="43.7952279" lon="12.6512339"><ele>112.0</ele><time>2026-05-02T15:58:34.321Z</time></trkpt><trkpt lat="43.7954034" lon="12.6513911"><ele>111.0</ele><time>2026-05-02T15:58:35.32Z</time></trkpt><trkpt lat="43.7955747" lon="12.6515445"><ele>110.0</ele><time>2026-05-02T15:58:36.322Z</time></trkpt><trkpt lat="43.7957361" lon="12.6516871"><ele>110.0</ele><time>2026-05-02T15:58:37.322Z</time></trkpt><trkpt lat="43.7958894" lon="12.6518039"><ele>110.0</ele><time>2026-05-02T15:58:38.323Z</time></trkpt><trkpt lat="43.7960758" lon="12.6519302"><ele>110.0</ele><time>2026-05-02T15:58:39.323Z</time></trkpt><trkpt lat="43.7962738" lon="12.6520291"><ele>110.33333333333333</ele><time>2026-05-02T15:58:40.323Z</time></trkpt><trkpt lat="43.7964739" lon="12.652122"><ele>110.66666666666666</ele><time>2026-05-02T15:58:41.324Z</time></trkpt><trkpt lat="43.7966769" lon="12.652202"><ele>111.0</ele><time>2026-05-02T15:58:42.325Z</time></trkpt><trkpt lat="43.7968867" lon="12.6522914"><ele>111.0</ele><time>2026-05-02T15:58:43.323Z</time></trkpt><trkpt lat="43.7970926" lon="12.6523888"><ele>111.0</ele><time>2026-05-02T15:58:44.321Z</time></trkpt><trkpt lat="43.7973032" lon="12.6524945"><ele>111.0</ele><time>2026-05-02T15:58:45.345Z</time></trkpt><trkpt lat="43.79751" lon="12.6526194"><ele>109.66666666666666</ele><time>2026-05-02T15:58:46.319Z</time></trkpt><trkpt lat="43.7977115" lon="12.6527441"><ele>108.33333333333333</ele><time>2026-05-02T15:58:47.322Z</time></trkpt><trkpt lat="43.7979019" lon="12.6528573"><ele>107.0</ele><time>2026-05-02T15:58:48.341Z</time></trkpt><trkpt lat="43.7980942" lon="12.6529913"><ele>107.0</ele><time>2026-05-02T15:58:49.322Z</time></trkpt><trkpt lat="43.7982839" lon="12.6531121"><ele>107.0</ele><time>2026-05-02T15:58:50.322Z</time></trkpt><trkpt lat="43.7984685" lon="12.653233"><ele>107.0</ele><time>2026-05-02T15:58:51.427Z</time></trkpt><trkpt lat="43.7988283" lon="12.6535408"><ele>105.33333333333333</ele><time>2026-05-02T15:58:53.322Z</time></trkpt><trkpt lat="43.798998" lon="12.6537427"><ele>103.66666666666666</ele><time>2026-05-02T15:58:54.325Z</time></trkpt><trkpt lat="43.7991607" lon="12.6539574"><ele>102.0</ele><time>2026-05-02T15:58:55.322Z</time></trkpt><trkpt lat="43.7993164" lon="12.6541848"><ele>103.66666666666666</ele><time>2026-05-02T15:58:56.321Z</time></trkpt><trkpt lat="43.7994642" lon="12.6543982"><ele>105.33333333333333</ele><time>2026-05-02T15:58:57.321Z</time></trkpt><trkpt lat="43.7996053" lon="12.6545886"><ele>107.0</ele><time>2026-05-02T15:58:58.324Z</time></trkpt><trkpt lat="43.799749" lon="12.654777"><ele>103.0</ele><time>2026-05-02T15:58:59.323Z</time></trkpt><trkpt lat="43.7998972" lon="12.6549829"><ele>99.0</ele><time>2026-05-02T15:59:00.322Z</time></trkpt><trkpt lat="43.8000358" lon="12.6551986"><ele>95.0</ele><time>2026-05-02T15:59:01.322Z</time></trkpt><trkpt lat="43.8001553" lon="12.6554437"><ele>96.66666666666667</ele><time>2026-05-02T15:59:02.316Z</time></trkpt><trkpt lat="43.8002366" lon="12.6557114"><ele>98.33333333333334</ele><time>2026-05-02T15:59:03.324Z</time></trkpt><trkpt lat="43.8002938" lon="12.6560009"><ele>100.0</ele><time>2026-05-02T15:59:04.317Z</time></trkpt><trkpt lat="43.8003332" lon="12.656304"><ele>100.0</ele><time>2026-05-02T15:59:05.322Z</time></trkpt><trkpt lat="43.8003601" lon="12.656607"><ele>100.0</ele><time>2026-05-02T15:59:06.321Z</time></trkpt><trkpt lat="43.8003861" lon="12.656896"><ele>100.0</ele><time>2026-05-02T15:59:07.319Z</time></trkpt><trkpt lat="43.8004162" lon="12.65718"><ele>98.33333333333334</ele><time>2026-05-02T15:59:08.322Z</time></trkpt><trkpt lat="43.8004566" lon="12.6574498"><ele>96.66666666666667</ele><time>2026-05-02T15:59:09.346Z</time></trkpt><trkpt lat="43.8005263" lon="12.6577049"><ele>95.0</ele><time>2026-05-02T15:59:10.322Z</time></trkpt><trkpt lat="43.8006272" lon="12.657936"><ele>92.66666666666667</ele><time>2026-05-02T15:59:11.321Z</time></trkpt><trkpt lat="43.8007677" lon="12.6581343"><ele>90.33333333333333</ele><time>2026-05-02T15:59:12.321Z</time></trkpt><trkpt lat="43.8009362" lon="12.6583015"><ele>88.0</ele><time>2026-05-02T15:59:13.324Z</time></trkpt><trkpt lat="43.8011196" lon="12.6584654"><ele>87.0</ele><time>2026-05-02T15:59:14.321Z</time></trkpt><trkpt lat="43.8013071" lon="12.6586244"><ele>86.0</ele><time>2026-05-02T15:59:15.32Z</time></trkpt><trkpt lat="43.8015011" lon="12.6587805"><ele>85.0</ele><time>2026-05-02T15:59:16.323Z</time></trkpt><trkpt lat="43.8016976" lon="12.6589447"><ele>85.5</ele><time>2026-05-02T15:59:17.322Z</time></trkpt><trkpt lat="43.8018905" lon="12.659106"><ele>86.0</ele><time>2026-05-02T15:59:18.318Z</time></trkpt><trkpt lat="43.8020846" lon="12.659269"><ele>86.0</ele><time>2026-05-02T15:59:19.32Z</time></trkpt><trkpt lat="43.8022825" lon="12.6594414"><ele>86.0</ele><time>2026-05-02T15:59:20.322Z</time></trkpt><trkpt lat="43.8024823" lon="12.6596038"><ele>85.5</ele><time>2026-05-02T15:59:21.32Z</time></trkpt><trkpt lat="43.8026798" lon="12.6597674"><ele>85.0</ele><time>2026-05-02T15:59:22.322Z</time></trkpt><trkpt lat="43.8028705" lon="12.6599319"><ele>85.0</ele><time>2026-05-02T15:59:23.326Z</time></trkpt><trkpt lat="43.8030686" lon="12.6601049"><ele>85.0</ele><time>2026-05-02T15:59:24.321Z</time></trkpt><trkpt lat="43.8032653" lon="12.660268"><ele>85.0</ele><time>2026-05-02T15:59:25.322Z</time></trkpt><trkpt lat="43.8034585" lon="12.6604422"><ele>85.0</ele><time>2026-05-02T15:59:26.323Z</time></trkpt><trkpt lat="43.80366" lon="12.6606079"><ele>85.0</ele><time>2026-05-02T15:59:27.322Z</time></trkpt><trkpt lat="43.8038557" lon="12.6607734"><ele>85.0</ele><time>2026-05-02T15:59:28.322Z</time></trkpt><trkpt lat="43.8040519" lon="12.6609388"><ele>85.0</ele><time>2026-05-02T15:59:29.325Z</time></trkpt><trkpt lat="43.8042441" lon="12.661102"><ele>85.0</ele><time>2026-05-02T15:59:30.323Z</time></trkpt><trkpt lat="43.8044288" lon="12.6612572"><ele>85.0</ele><time>2026-05-02T15:59:31.322Z</time></trkpt><trkpt lat="43.8046038" lon="12.6614048"><ele>85.33333333333333</ele><time>2026-05-02T15:59:32.323Z</time></trkpt><trkpt lat="43.8047807" lon="12.6615387"><ele>85.66666666666667</ele><time>2026-05-02T15:59:33.324Z</time></trkpt><trkpt lat="43.8049462" lon="12.6616513"><ele>86.0</ele><time>2026-05-02T15:59:34.32Z</time></trkpt><trkpt lat="43.8051159" lon="12.6617372"><ele>86.25</ele><time>2026-05-02T15:59:35.323Z</time></trkpt><trkpt lat="43.8052673" lon="12.6617899"><ele>86.5</ele><time>2026-05-02T15:59:36.318Z</time></trkpt><trkpt lat="43.8053896" lon="12.6618213"><ele>86.75</ele><time>2026-05-02T15:59:37.325Z</time></trkpt><trkpt lat="43.8055423" lon="12.6618471"><ele>87.0</ele><time>2026-05-02T15:59:38.323Z</time></trkpt><trkpt lat="43.8056685" lon="12.6618636"><ele>87.0</ele><time>2026-05-02T15:59:39.322Z</time></trkpt><trkpt lat="43.8057693" lon="12.6618405"><ele>87.0</ele><time>2026-05-02T15:59:41.323Z</time></trkpt><trkpt lat="43.8058327" lon="12.6618498"><ele>87.0</ele><time>2026-05-02T15:59:42.322Z</time></trkpt><trkpt lat="43.8059125" lon="12.6619539"><ele>87.0</ele><time>2026-05-02T15:59:44.324Z</time></trkpt><trkpt lat="43.8059361" lon="12.6620365"><ele>87.0</ele><time>2026-05-02T15:59:45.324Z</time></trkpt><trkpt lat="43.8059579" lon="12.6621557"><ele>87.0</ele><time>2026-05-02T15:59:46.324Z</time></trkpt><trkpt lat="43.8059811" lon="12.662316"><ele>86.25</ele><time>2026-05-02T15:59:47.323Z</time></trkpt><trkpt lat="43.8060023" lon="12.6625099"><ele>85.5</ele><time>2026-05-02T15:59:48.322Z</time></trkpt><trkpt lat="43.806027" lon="12.6627021"><ele>84.75</ele><time>2026-05-02T15:59:49.323Z</time></trkpt><trkpt lat="43.8060357" lon="12.6629231"><ele>84.0</ele><time>2026-05-02T15:59:50.321Z</time></trkpt><trkpt lat="43.806049" lon="12.6631701"><ele>84.0</ele><time>2026-05-02T15:59:51.323Z</time></trkpt><trkpt lat="43.8060743" lon="12.6634249"><ele>84.0</ele><time>2026-05-02T15:59:52.322Z</time></trkpt><trkpt lat="43.8060994" lon="12.6636853"><ele>84.0</ele><time>2026-05-02T15:59:53.323Z</time></trkpt><trkpt lat="43.8061253" lon="12.6639519"><ele>83.66666666666667</ele><time>2026-05-02T15:59:54.323Z</time></trkpt><trkpt lat="43.8061486" lon="12.6642007"><ele>83.33333333333334</ele><time>2026-05-02T15:59:55.323Z</time></trkpt><trkpt lat="43.8061818" lon="12.6644544"><ele>83.0</ele><time>2026-05-02T15:59:56.323Z</time></trkpt><trkpt lat="43.806206" lon="12.664706"><ele>83.0</ele><time>2026-05-02T15:59:57.323Z</time></trkpt><trkpt lat="43.8062281" lon="12.6649539"><ele>83.0</ele><time>2026-05-02T15:59:58.322Z</time></trkpt><trkpt lat="43.8062562" lon="12.6651988"><ele>83.0</ele><time>2026-05-02T15:59:59.323Z</time></trkpt><trkpt lat="43.80628" lon="12.6654386"><ele>82.33333333333334</ele><time>2026-05-02T16:00:00.323Z</time></trkpt><trkpt lat="43.8063034" lon="12.6656933"><ele>81.66666666666667</ele><time>2026-05-02T16:00:01.322Z</time></trkpt><trkpt lat="43.8063307" lon="12.6659569"><ele>81.0</ele><time>2026-05-02T16:00:02.323Z</time></trkpt><trkpt lat="43.8063552" lon="12.6662247"><ele>80.33333333333333</ele><time>2026-05-02T16:00:03.322Z</time></trkpt><trkpt lat="43.806383" lon="12.6664748"><ele>79.66666666666666</ele><time>2026-05-02T16:00:04.322Z</time></trkpt><trkpt lat="43.8064015" lon="12.6667079"><ele>79.0</ele><time>2026-05-02T16:00:05.323Z</time></trkpt><trkpt lat="43.8064055" lon="12.6669396"><ele>79.0</ele><time>2026-05-02T16:00:06.319Z</time></trkpt><trkpt lat="43.8063835" lon="12.667156"><ele>79.0</ele><time>2026-05-02T16:00:07.322Z</time></trkpt><trkpt lat="43.8063422" lon="12.6673769"><ele>79.0</ele><time>2026-05-02T16:00:08.316Z</time></trkpt><trkpt lat="43.8062071" lon="12.6675621"><ele>79.0</ele><time>2026-05-02T16:00:09.324Z</time></trkpt><trkpt lat="43.806091" lon="12.6677413"><ele>79.0</ele><time>2026-05-02T16:00:10.322Z</time></trkpt><trkpt lat="43.805977" lon="12.6679112"><ele>79.0</ele><time>2026-05-02T16:00:11.323Z</time></trkpt><trkpt lat="43.8058639" lon="12.668067"><ele>80.0</ele><time>2026-05-02T16:00:12.323Z</time></trkpt><trkpt lat="43.8057567" lon="12.668223"><ele>81.0</ele><time>2026-05-02T16:00:13.323Z</time></trkpt><trkpt lat="43.8056617" lon="12.668345"><ele>82.0</ele><time>2026-05-02T16:00:14.323Z</time></trkpt><trkpt lat="43.8055634" lon="12.668475"><ele>83.0</ele><time>2026-05-02T16:00:15.324Z</time></trkpt><trkpt lat="43.8054548" lon="12.6686461"><ele>83.0</ele><time>2026-05-02T16:00:16.323Z</time></trkpt><trkpt lat="43.8053499" lon="12.6688087"><ele>83.0</ele><time>2026-05-02T16:00:17.322Z</time></trkpt><trkpt lat="43.8052323" lon="12.6689993"><ele>83.0</ele><time>2026-05-02T16:00:18.323Z</time></trkpt><trkpt lat="43.80506" lon="12.6691918"><ele>86.5</ele><time>2026-05-02T16:00:19.323Z</time></trkpt><trkpt lat="43.8048736" lon="12.6694975"><ele>90.0</ele><time>2026-05-02T16:00:20.322Z</time></trkpt><trkpt lat="43.8046684" lon="12.6697902"><ele>90.0</ele><time>2026-05-02T16:00:21.323Z</time></trkpt><trkpt lat="43.8044665" lon="12.6700796"><ele>90.0</ele><time>2026-05-02T16:00:22.321Z</time></trkpt><trkpt lat="43.8042849" lon="12.6703304"><ele>93.75</ele><time>2026-05-02T16:00:23.323Z</time></trkpt><trkpt lat="43.8041763" lon="12.6705365"><ele>97.5</ele><time>2026-05-02T16:00:24.323Z</time></trkpt><trkpt lat="43.804086" lon="12.6706364"><ele>101.25</ele><time>2026-05-02T16:00:25.323Z</time></trkpt><trkpt lat="43.8039957" lon="12.6707261"><ele>105.0</ele><time>2026-05-02T16:00:26.323Z</time></trkpt><trkpt lat="43.8039416" lon="12.6708172"><ele>105.0</ele><time>2026-05-02T16:00:27.323Z</time></trkpt><trkpt lat="43.8038654" lon="12.6709299"><ele>105.0</ele><time>2026-05-02T16:00:28.322Z</time></trkpt><trkpt lat="43.8037889" lon="12.6710393"><ele>105.0</ele><time>2026-05-02T16:00:29.322Z</time></trkpt><trkpt lat="43.8037003" lon="12.6711591"><ele>105.0</ele><time>2026-05-02T16:00:30.322Z</time></trkpt><trkpt lat="43.8036043" lon="12.6712866"><ele>105.25</ele><time>2026-05-02T16:00:31.323Z</time></trkpt><trkpt lat="43.8035116" lon="12.6714203"><ele>105.5</ele><time>2026-05-02T16:00:32.324Z</time></trkpt><trkpt lat="43.8034131" lon="12.6715628"><ele>105.75</ele><time>2026-05-02T16:00:33.324Z</time></trkpt><trkpt lat="43.8033094" lon="12.6717182"><ele>106.0</ele><time>2026-05-02T16:00:34.324Z</time></trkpt><trkpt lat="43.8032033" lon="12.6718742"><ele>110.33333333333334</ele><time>2026-05-02T16:00:35.323Z</time></trkpt><trkpt lat="43.803097" lon="12.6720363"><ele>114.66666666666666</ele><time>2026-05-02T16:00:36.323Z</time></trkpt><trkpt lat="43.8029838" lon="12.6721911"><ele>119.0</ele><time>2026-05-02T16:00:37.323Z</time></trkpt><trkpt lat="43.8028483" lon="12.6723087"><ele>119.0</ele><time>2026-05-02T16:00:38.323Z</time></trkpt><trkpt lat="43.8026964" lon="12.6723917"><ele>119.0</ele><time>2026-05-02T16:00:39.325Z</time></trkpt><trkpt lat="43.8025303" lon="12.6724267"><ele>119.0</ele><time>2026-05-02T16:00:40.322Z</time></trkpt><trkpt lat="43.8023376" lon="12.6724566"><ele>120.0</ele><time>2026-05-02T16:00:41.322Z</time></trkpt><trkpt lat="43.8021244" lon="12.6724904"><ele>121.0</ele><time>2026-05-02T16:00:42.322Z</time></trkpt><trkpt lat="43.8019156" lon="12.6725126"><ele>122.0</ele><time>2026-05-02T16:00:43.322Z</time></trkpt><trkpt lat="43.8017044" lon="12.6725315"><ele>123.33333333333333</ele><time>2026-05-02T16:00:44.322Z</time></trkpt><trkpt lat="43.8015695" lon="12.6725664"><ele>124.66666666666666</ele><time>2026-05-02T16:00:45.322Z</time></trkpt><trkpt lat="43.8013969" lon="12.6725909"><ele>126.0</ele><time>2026-05-02T16:00:46.322Z</time></trkpt><trkpt lat="43.8012413" lon="12.6726155"><ele>126.0</ele><time>2026-05-02T16:00:47.323Z</time></trkpt><trkpt lat="43.8010992" lon="12.672639"><ele>126.0</ele><time>2026-05-02T16:00:48.322Z</time></trkpt><trkpt lat="43.8009599" lon="12.6726579"><ele>126.0</ele><time>2026-05-02T16:00:49.323Z</time></trkpt><trkpt lat="43.8008145" lon="12.6727085"><ele>126.0</ele><time>2026-05-02T16:00:50.323Z</time></trkpt><trkpt lat="43.8006738" lon="12.6727977"><ele>131.0</ele><time>2026-05-02T16:00:51.322Z</time></trkpt><trkpt lat="43.8005387" lon="12.6729204"><ele>136.0</ele><time>2026-05-02T16:00:52.321Z</time></trkpt><trkpt lat="43.800404" lon="12.6730729"><ele>141.0</ele><time>2026-05-02T16:00:53.323Z</time></trkpt><trkpt lat="43.8002728" lon="12.673229"><ele>142.5</ele><time>2026-05-02T16:00:54.322Z</time></trkpt><trkpt lat="43.80015" lon="12.6733741"><ele>144.0</ele><time>2026-05-02T16:00:55.321Z</time></trkpt><trkpt lat="43.8000446" lon="12.6735128"><ele>145.5</ele><time>2026-05-02T16:00:56.323Z</time></trkpt><trkpt lat="43.7999545" lon="12.6736448"><ele>147.0</ele><time>2026-05-02T16:00:57.323Z</time></trkpt><trkpt lat="43.7998903" lon="12.673771"><ele>147.0</ele><time>2026-05-02T16:00:58.323Z</time></trkpt><trkpt lat="43.7998549" lon="12.6739049"><ele>147.0</ele><time>2026-05-02T16:00:59.323Z</time></trkpt><trkpt lat="43.7998601" lon="12.6740403"><ele>147.0</ele><time>2026-05-02T16:01:00.324Z</time></trkpt><trkpt lat="43.7999059" lon="12.6741596"><ele>147.0</ele><time>2026-05-02T16:01:01.324Z</time></trkpt><trkpt lat="43.7999857" lon="12.674252"><ele>147.0</ele><time>2026-05-02T16:01:02.325Z</time></trkpt><trkpt lat="43.8000641" lon="12.6743316"><ele>149.33333333333334</ele><time>2026-05-02T16:01:03.325Z</time></trkpt><trkpt lat="43.8001881" lon="12.6743716"><ele>151.66666666666669</ele><time>2026-05-02T16:01:04.324Z</time></trkpt><trkpt lat="43.8003239" lon="12.6743634"><ele>154.0</ele><time>2026-05-02T16:01:05.326Z</time></trkpt><trkpt lat="43.8005472" lon="12.6743762"><ele>154.0</ele><time>2026-05-02T16:01:06.324Z</time></trkpt><trkpt lat="43.8007131" lon="12.6744237"><ele>154.0</ele><time>2026-05-02T16:01:07.324Z</time></trkpt><trkpt lat="43.8008888" lon="12.6744976"><ele>154.0</ele><time>2026-05-02T16:01:08.325Z</time></trkpt><trkpt lat="43.8010326" lon="12.6746054"><ele>154.6</ele><time>2026-05-02T16:01:09.323Z</time></trkpt><trkpt lat="43.8011494" lon="12.6747334"><ele>155.2</ele><time>2026-05-02T16:01:10.323Z</time></trkpt><trkpt lat="43.8012101" lon="12.6748489"><ele>155.79999999999998</ele><time>2026-05-02T16:01:11.323Z</time></trkpt><trkpt lat="43.8012293" lon="12.6749629"><ele>156.4</ele><time>2026-05-02T16:01:12.326Z</time></trkpt><trkpt lat="43.8012039" lon="12.6750916"><ele>157.0</ele><time>2026-05-02T16:01:13.32Z</time></trkpt><trkpt lat="43.8011204" lon="12.6751684"><ele>157.0</ele><time>2026-05-02T16:01:14.325Z</time></trkpt><trkpt lat="43.8010217" lon="12.6751839"><ele>157.0</ele><time>2026-05-02T16:01:15.325Z</time></trkpt><trkpt lat="43.8008912" lon="12.675161"><ele>157.0</ele><time>2026-05-02T16:01:16.324Z</time></trkpt><trkpt lat="43.8007577" lon="12.6751531"><ele>157.0</ele><time>2026-05-02T16:01:17.323Z</time></trkpt><trkpt lat="43.8006395" lon="12.6751854"><ele>159.0</ele><time>2026-05-02T16:01:18.331Z</time></trkpt><trkpt lat="43.8005497" lon="12.6752489"><ele>161.0</ele><time>2026-05-02T16:01:19.328Z</time></trkpt><trkpt lat="43.8004966" lon="12.6753577"><ele>163.0</ele><time>2026-05-02T16:01:20.323Z</time></trkpt><trkpt lat="43.8004829" lon="12.6754926"><ele>165.0</ele><time>2026-05-02T16:01:21.324Z</time></trkpt><trkpt lat="43.8005126" lon="12.6756273"><ele>167.0</ele><time>2026-05-02T16:01:22.326Z</time></trkpt><trkpt lat="43.800589" lon="12.6757427"><ele>170.0</ele><time>2026-05-02T16:01:23.324Z</time></trkpt><trkpt lat="43.8006972" lon="12.6758635"><ele>173.0</ele><time>2026-05-02T16:01:24.324Z</time></trkpt><trkpt lat="43.8008157" lon="12.6759911"><ele>176.0</ele><time>2026-05-02T16:01:25.324Z</time></trkpt><trkpt lat="43.8009416" lon="12.6761298"><ele>176.33333333333331</ele><time>2026-05-02T16:01:26.323Z</time></trkpt><trkpt lat="43.8010702" lon="12.6762714"><ele>176.66666666666666</ele><time>2026-05-02T16:01:27.318Z</time></trkpt><trkpt lat="43.8012053" lon="12.6764208"><ele>177.0</ele><time>2026-05-02T16:01:28.325Z</time></trkpt><trkpt lat="43.8013398" lon="12.6765786"><ele>177.0</ele><time>2026-05-02T16:01:29.319Z</time></trkpt><trkpt lat="43.8014707" lon="12.6767333"><ele>177.0</ele><time>2026-05-02T16:01:30.326Z</time></trkpt><trkpt lat="43.8016077" lon="12.6768859"><ele>177.0</ele><time>2026-05-02T16:01:31.324Z</time></trkpt><trkpt lat="43.8017442" lon="12.6770341"><ele>177.33333333333334</ele><time>2026-05-02T16:01:32.325Z</time></trkpt><trkpt lat="43.801871" lon="12.6771859"><ele>177.66666666666669</ele><time>2026-05-02T16:01:33.324Z</time></trkpt><trkpt lat="43.8019896" lon="12.6773412"><ele>178.0</ele><time>2026-05-02T16:01:34.324Z</time></trkpt><trkpt lat="43.8020978" lon="12.6775266"><ele>178.0</ele><time>2026-05-02T16:01:35.325Z</time></trkpt><trkpt lat="43.8021853" lon="12.6777281"><ele>178.0</ele><time>2026-05-02T16:01:36.324Z</time></trkpt><trkpt lat="43.802268" lon="12.6779325"><ele>178.0</ele><time>2026-05-02T16:01:37.325Z</time></trkpt><trkpt lat="43.8023359" lon="12.6781584"><ele>181.66666666666669</ele><time>2026-05-02T16:01:38.324Z</time></trkpt><trkpt lat="43.8024038" lon="12.6783959"><ele>185.33333333333334</ele><time>2026-05-02T16:01:39.325Z</time></trkpt><trkpt lat="43.8024717" lon="12.6786514"><ele>189.0</ele><time>2026-05-02T16:01:40.325Z</time></trkpt><trkpt lat="43.8025391" lon="12.6789172"><ele>192.33333333333331</ele><time>2026-05-02T16:01:41.325Z</time></trkpt><trkpt lat="43.8026059" lon="12.6791819"><ele>195.66666666666666</ele><time>2026-05-02T16:01:42.324Z</time></trkpt><trkpt lat="43.8026675" lon="12.6794501"><ele>199.0</ele><time>2026-05-02T16:01:43.323Z</time></trkpt><trkpt lat="43.8027176" lon="12.6796667"><ele>199.0</ele><time>2026-05-02T16:01:44.325Z</time></trkpt><trkpt lat="43.8028035" lon="12.6799046"><ele>199.0</ele><time>2026-05-02T16:01:45.324Z</time></trkpt><trkpt lat="43.8028735" lon="12.6801297"><ele>199.0</ele><time>2026-05-02T16:01:46.325Z</time></trkpt><trkpt lat="43.8029981" lon="12.6803561"><ele>203.33333333333331</ele><time>2026-05-02T16:01:47.323Z</time></trkpt><trkpt lat="43.8030984" lon="12.6805876"><ele>207.66666666666669</ele><time>2026-05-02T16:01:48.322Z</time></trkpt><trkpt lat="43.8031954" lon="12.6808133"><ele>212.0</ele><time>2026-05-02T16:01:49.325Z</time></trkpt><trkpt lat="43.8033066" lon="12.6810331"><ele>212.39999999999998</ele><time>2026-05-02T16:01:50.325Z</time></trkpt><trkpt lat="43.8033998" lon="12.681205"><ele>212.79999999999998</ele><time>2026-05-02T16:01:51.325Z</time></trkpt><trkpt lat="43.8034394" lon="12.6812911"><ele>213.2</ele><time>2026-05-02T16:01:52.329Z</time></trkpt><trkpt lat="43.8034486" lon="12.6813973"><ele>213.6</ele><time>2026-05-02T16:01:55.324Z</time></trkpt><trkpt lat="43.8034926" lon="12.6814784"><ele>214.0</ele><time>2026-05-02T16:02:02.324Z</time></trkpt><trkpt lat="43.803626" lon="12.6816266"><ele>214.25</ele><time>2026-05-02T16:02:04.332Z</time></trkpt><trkpt lat="43.8037123" lon="12.6816926"><ele>214.5</ele><time>2026-05-02T16:02:05.324Z</time></trkpt><trkpt lat="43.8038131" lon="12.6817797"><ele>214.75</ele><time>2026-05-02T16:02:06.324Z</time></trkpt><trkpt lat="43.8039151" lon="12.6818735"><ele>215.0</ele><time>2026-05-02T16:02:07.323Z</time></trkpt><trkpt lat="43.8040218" lon="12.6819715"><ele>214.25</ele><time>2026-05-02T16:02:08.326Z</time></trkpt><trkpt lat="43.8041284" lon="12.6820759"><ele>213.5</ele><time>2026-05-02T16:02:09.325Z</time></trkpt><trkpt lat="43.8042375" lon="12.6821816"><ele>212.75</ele><time>2026-05-02T16:02:10.323Z</time></trkpt><trkpt lat="43.804345" lon="12.6822912"><ele>212.0</ele><time>2026-05-02T16:02:11.324Z</time></trkpt><trkpt lat="43.8044634" lon="12.6824039"><ele>212.0</ele><time>2026-05-02T16:02:12.324Z</time></trkpt><trkpt lat="43.8045788" lon="12.6825365"><ele>212.0</ele><time>2026-05-02T16:02:13.324Z</time></trkpt><trkpt lat="43.8046953" lon="12.6826634"><ele>212.0</ele><time>2026-05-02T16:02:14.322Z</time></trkpt><trkpt lat="43.8048158" lon="12.6827834"><ele>212.0</ele><time>2026-05-02T16:02:15.324Z</time></trkpt><trkpt lat="43.8049505" lon="12.6829546"><ele>211.33333333333334</ele><time>2026-05-02T16:02:16.323Z</time></trkpt><trkpt lat="43.8050749" lon="12.6831204"><ele>210.66666666666669</ele><time>2026-05-02T16:02:17.324Z</time></trkpt><trkpt lat="43.8052065" lon="12.6832948"><ele>210.0</ele><time>2026-05-02T16:02:18.322Z</time></trkpt><trkpt lat="43.8053312" lon="12.6834618"><ele>210.0</ele><time>2026-05-02T16:02:19.323Z</time></trkpt><trkpt lat="43.8054537" lon="12.6836348"><ele>210.0</ele><time>2026-05-02T16:02:20.325Z</time></trkpt><trkpt lat="43.8055786" lon="12.6838026"><ele>210.0</ele><time>2026-05-02T16:02:21.323Z</time></trkpt><trkpt lat="43.8056992" lon="12.6839821"><ele>210.0</ele><time>2026-05-02T16:02:22.323Z</time></trkpt><trkpt lat="43.8058299" lon="12.6841592"><ele>210.0</ele><time>2026-05-02T16:02:23.324Z</time></trkpt><trkpt lat="43.8059784" lon="12.6843287"><ele>210.0</ele><time>2026-05-02T16:02:24.32Z</time></trkpt><trkpt lat="43.8061411" lon="12.6844861"><ele>213.33333333333331</ele><time>2026-05-02T16:02:25.324Z</time></trkpt><trkpt lat="43.8062943" lon="12.6846507"><ele>216.66666666666666</ele><time>2026-05-02T16:02:26.325Z</time></trkpt><trkpt lat="43.8064442" lon="12.684809"><ele>220.0</ele><time>2026-05-02T16:02:27.321Z</time></trkpt><trkpt lat="43.8065873" lon="12.6849736"><ele>220.0</ele><time>2026-05-02T16:02:28.323Z</time></trkpt><trkpt lat="43.8067272" lon="12.6851277"><ele>220.0</ele><time>2026-05-02T16:02:29.323Z</time></trkpt><trkpt lat="43.8068608" lon="12.6852913"><ele>220.0</ele><time>2026-05-02T16:02:30.324Z</time></trkpt><trkpt lat="43.8069978" lon="12.6854533"><ele>224.0</ele><time>2026-05-02T16:02:31.323Z</time></trkpt><trkpt lat="43.8071377" lon="12.6856045"><ele>228.0</ele><time>2026-05-02T16:02:32.323Z</time></trkpt><trkpt lat="43.8072745" lon="12.6857557"><ele>232.0</ele><time>2026-05-02T16:02:33.325Z</time></trkpt><trkpt lat="43.807405" lon="12.6859031"><ele>232.0</ele><time>2026-05-02T16:02:34.324Z</time></trkpt><trkpt lat="43.807521" lon="12.6860741"><ele>232.0</ele><time>2026-05-02T16:02:35.323Z</time></trkpt><trkpt lat="43.807634" lon="12.6862449"><ele>232.0</ele><time>2026-05-02T16:02:36.323Z</time></trkpt><trkpt lat="43.8077282" lon="12.68644"><ele>230.66666666666666</ele><time>2026-05-02T16:02:37.324Z</time></trkpt><trkpt lat="43.8077917" lon="12.6866498"><ele>229.33333333333331</ele><time>2026-05-02T16:02:38.317Z</time></trkpt><trkpt lat="43.8078456" lon="12.6868803"><ele>228.0</ele><time>2026-05-02T16:02:39.317Z</time></trkpt><trkpt lat="43.8079059" lon="12.6871348"><ele>228.0</ele><time>2026-05-02T16:02:40.323Z</time></trkpt><trkpt lat="43.807966" lon="12.687387"><ele>228.0</ele><time>2026-05-02T16:02:41.321Z</time></trkpt><trkpt lat="43.808016" lon="12.6876609"><ele>228.0</ele><time>2026-05-02T16:02:42.321Z</time></trkpt><trkpt lat="43.8080862" lon="12.6878861"><ele>229.0</ele><time>2026-05-02T16:02:43.325Z</time></trkpt><trkpt lat="43.8081571" lon="12.6881351"><ele>230.0</ele><time>2026-05-02T16:02:44.324Z</time></trkpt><trkpt lat="43.8082446" lon="12.6883718"><ele>231.0</ele><time>2026-05-02T16:02:45.323Z</time></trkpt><trkpt lat="43.8083276" lon="12.6886133"><ele>231.0</ele><time>2026-05-02T16:02:46.323Z</time></trkpt><trkpt lat="43.8084044" lon="12.688855"><ele>231.0</ele><time>2026-05-02T16:02:47.323Z</time></trkpt><trkpt lat="43.8084811" lon="12.6890962"><ele>231.0</ele><time>2026-05-02T16:02:48.324Z</time></trkpt><trkpt lat="43.8085614" lon="12.6893319"><ele>229.66666666666669</ele><time>2026-05-02T16:02:49.323Z</time></trkpt><trkpt lat="43.8086096" lon="12.6895762"><ele>228.33333333333334</ele><time>2026-05-02T16:02:50.323Z</time></trkpt><trkpt lat="43.808655" lon="12.6898243"><ele>227.0</ele><time>2026-05-02T16:02:51.324Z</time></trkpt><trkpt lat="43.8086943" lon="12.69007"><ele>228.33333333333334</ele><time>2026-05-02T16:02:52.323Z</time></trkpt><trkpt lat="43.8087398" lon="12.6903136"><ele>229.66666666666669</ele><time>2026-05-02T16:02:53.322Z</time></trkpt><trkpt lat="43.8087913" lon="12.6905484"><ele>231.0</ele><time>2026-05-02T16:02:54.32Z</time></trkpt><trkpt lat="43.8088395" lon="12.6907878"><ele>231.0</ele><time>2026-05-02T16:02:55.321Z</time></trkpt><trkpt lat="43.808913" lon="12.6910144"><ele>231.0</ele><time>2026-05-02T16:02:56.318Z</time></trkpt><trkpt lat="43.8090006" lon="12.6912308"><ele>231.0</ele><time>2026-05-02T16:02:57.323Z</time></trkpt><trkpt lat="43.8090952" lon="12.6914503"><ele>230.66666666666669</ele><time>2026-05-02T16:02:58.324Z</time></trkpt><trkpt lat="43.809202" lon="12.6916728"><ele>230.33333333333334</ele><time>2026-05-02T16:02:59.322Z</time></trkpt><trkpt lat="43.8093209" lon="12.691871"><ele>230.0</ele><time>2026-05-02T16:03:00.323Z</time></trkpt><trkpt lat="43.8094451" lon="12.6920474"><ele>230.0</ele><time>2026-05-02T16:03:01.322Z</time></trkpt><trkpt lat="43.8095847" lon="12.6922191"><ele>230.0</ele><time>2026-05-02T16:03:02.323Z</time></trkpt><trkpt lat="43.8097242" lon="12.6923997"><ele>230.0</ele><time>2026-05-02T16:03:03.325Z</time></trkpt><trkpt lat="43.8098429" lon="12.6926037"><ele>232.0</ele><time>2026-05-02T16:03:04.324Z</time></trkpt><trkpt lat="43.8099466" lon="12.6928007"><ele>234.0</ele><time>2026-05-02T16:03:05.323Z</time></trkpt><trkpt lat="43.8100429" lon="12.6930005"><ele>236.0</ele><time>2026-05-02T16:03:06.325Z</time></trkpt><trkpt lat="43.810055" lon="12.693177"><ele>236.0</ele><time>2026-05-02T16:03:07.323Z</time></trkpt><trkpt lat="43.8101167" lon="12.6933641"><ele>236.0</ele><time>2026-05-02T16:03:08.324Z</time></trkpt><trkpt lat="43.8101726" lon="12.6935465"><ele>236.0</ele><time>2026-05-02T16:03:09.324Z</time></trkpt><trkpt lat="43.8102371" lon="12.6937319"><ele>236.0</ele><time>2026-05-02T16:03:10.323Z</time></trkpt><trkpt lat="43.8102885" lon="12.6938952"><ele>238.16666666666669</ele><time>2026-05-02T16:03:11.323Z</time></trkpt><trkpt lat="43.8103447" lon="12.6940578"><ele>240.33333333333334</ele><time>2026-05-02T16:03:12.321Z</time></trkpt><trkpt lat="43.8103697" lon="12.6941568"><ele>242.5</ele><time>2026-05-02T16:03:13.323Z</time></trkpt><trkpt lat="43.8104069" lon="12.6942454"><ele>244.66666666666669</ele><time>2026-05-02T16:03:14.322Z</time></trkpt><trkpt lat="43.8104691" lon="12.6942953"><ele>246.83333333333334</ele><time>2026-05-02T16:03:16.322Z</time></trkpt><trkpt lat="43.8105249" lon="12.6942326"><ele>249.0</ele><time>2026-05-02T16:03:43.323Z</time></trkpt><trkpt lat="43.8104579" lon="12.6941389"><ele>249.0</ele><time>2026-05-02T16:04:36.321Z</time></trkpt><trkpt lat="43.8104137" lon="12.6940651"><ele>248.99999999999997</ele><time>2026-05-02T16:04:37.322Z</time></trkpt><trkpt lat="43.8103727" lon="12.6939438"><ele>248.99999999999997</ele><time>2026-05-02T16:04:38.331Z</time></trkpt><trkpt lat="43.8103278" lon="12.6938122"><ele>249.0</ele><time>2026-05-02T16:04:39.323Z</time></trkpt><trkpt lat="43.8102795" lon="12.6936736"><ele>249.0</ele><time>2026-05-02T16:04:40.314Z</time></trkpt><trkpt lat="43.8102278" lon="12.693506"><ele>245.0</ele><time>2026-05-02T16:04:41.324Z</time></trkpt><trkpt lat="43.8101714" lon="12.6933447"><ele>241.0</ele><time>2026-05-02T16:04:42.324Z</time></trkpt><trkpt lat="43.8101004" lon="12.6931266"><ele>237.0</ele><time>2026-05-02T16:04:43.319Z</time></trkpt><trkpt lat="43.810023" lon="12.6929192"><ele>234.66666666666669</ele><time>2026-05-02T16:04:44.323Z</time></trkpt><trkpt lat="43.8099381" lon="12.6927143"><ele>232.33333333333334</ele><time>2026-05-02T16:04:45.324Z</time></trkpt><trkpt lat="43.8098489" lon="12.6925147"><ele>230.0</ele><time>2026-05-02T16:04:46.323Z</time></trkpt><trkpt lat="43.8097657" lon="12.6923109"><ele>230.0</ele><time>2026-05-02T16:04:47.323Z</time></trkpt><trkpt lat="43.809637" lon="12.6920995"><ele>230.0</ele><time>2026-05-02T16:04:48.323Z</time></trkpt><trkpt lat="43.80943" lon="12.6919684"><ele>230.0</ele><time>2026-05-02T16:04:49.322Z</time></trkpt><trkpt lat="43.8093096" lon="12.6917679"><ele>230.0</ele><time>2026-05-02T16:04:50.322Z</time></trkpt><trkpt lat="43.8091972" lon="12.6915669"><ele>230.0</ele><time>2026-05-02T16:04:51.322Z</time></trkpt><trkpt lat="43.8091048" lon="12.691381"><ele>230.0</ele><time>2026-05-02T16:04:52.322Z</time></trkpt><trkpt lat="43.8090214" lon="12.6911983"><ele>230.25</ele><time>2026-05-02T16:04:53.322Z</time></trkpt><trkpt lat="43.8089492" lon="12.6910153"><ele>230.5</ele><time>2026-05-02T16:04:54.322Z</time></trkpt><trkpt lat="43.8088852" lon="12.6908325"><ele>230.75</ele><time>2026-05-02T16:04:55.321Z</time></trkpt><trkpt lat="43.8088219" lon="12.6906432"><ele>231.0</ele><time>2026-05-02T16:04:56.32Z</time></trkpt><trkpt lat="43.8087855" lon="12.6904224"><ele>229.66666666666669</ele><time>2026-05-02T16:04:57.349Z</time></trkpt><trkpt lat="43.8087511" lon="12.6901834"><ele>228.33333333333334</ele><time>2026-05-02T16:04:58.322Z</time></trkpt><trkpt lat="43.8087077" lon="12.6899399"><ele>227.0</ele><time>2026-05-02T16:04:59.322Z</time></trkpt><trkpt lat="43.8086536" lon="12.6896877"><ele>228.33333333333334</ele><time>2026-05-02T16:05:00.323Z</time></trkpt><trkpt lat="43.8085814" lon="12.6894174"><ele>229.66666666666669</ele><time>2026-05-02T16:05:01.322Z</time></trkpt><trkpt lat="43.8085101" lon="12.6891599"><ele>231.0</ele><time>2026-05-02T16:05:02.322Z</time></trkpt><trkpt lat="43.8084266" lon="12.6888989"><ele>231.0</ele><time>2026-05-02T16:05:03.322Z</time></trkpt><trkpt lat="43.8083504" lon="12.6886651"><ele>231.0</ele><time>2026-05-02T16:05:04.323Z</time></trkpt><trkpt lat="43.8082788" lon="12.6884317"><ele>231.0</ele><time>2026-05-02T16:05:05.321Z</time></trkpt><trkpt lat="43.8081918" lon="12.6882009"><ele>231.0</ele><time>2026-05-02T16:05:06.323Z</time></trkpt><trkpt lat="43.8081171" lon="12.6879736"><ele>231.0</ele><time>2026-05-02T16:05:07.323Z</time></trkpt><trkpt lat="43.8080462" lon="12.687732"><ele>231.0</ele><time>2026-05-02T16:05:08.321Z</time></trkpt><trkpt lat="43.8079778" lon="12.687469"><ele>230.0</ele><time>2026-05-02T16:05:09.323Z</time></trkpt><trkpt lat="43.8079162" lon="12.6871983"><ele>229.0</ele><time>2026-05-02T16:05:10.322Z</time></trkpt><trkpt lat="43.8078654" lon="12.6869462"><ele>228.0</ele><time>2026-05-02T16:05:11.323Z</time></trkpt><trkpt lat="43.8078142" lon="12.6867085"><ele>227.66666666666669</ele><time>2026-05-02T16:05:12.321Z</time></trkpt><trkpt lat="43.8077548" lon="12.6864858"><ele>227.33333333333334</ele><time>2026-05-02T16:05:13.323Z</time></trkpt><trkpt lat="43.8076689" lon="12.6862827"><ele>227.0</ele><time>2026-05-02T16:05:14.321Z</time></trkpt><trkpt lat="43.8075635" lon="12.6860963"><ele>228.66666666666669</ele><time>2026-05-02T16:05:15.323Z</time></trkpt><trkpt lat="43.8074404" lon="12.6859189"><ele>230.33333333333331</ele><time>2026-05-02T16:05:16.324Z</time></trkpt><trkpt lat="43.807298" lon="12.6857477"><ele>232.0</ele><time>2026-05-02T16:05:17.323Z</time></trkpt><trkpt lat="43.8071454" lon="12.6855847"><ele>232.0</ele><time>2026-05-02T16:05:18.322Z</time></trkpt><trkpt lat="43.8069925" lon="12.6854123"><ele>232.0</ele><time>2026-05-02T16:05:19.322Z</time></trkpt><trkpt lat="43.8068462" lon="12.6852401"><ele>232.0</ele><time>2026-05-02T16:05:20.324Z</time></trkpt><trkpt lat="43.8067019" lon="12.6850699"><ele>228.0</ele><time>2026-05-02T16:05:21.324Z</time></trkpt><trkpt lat="43.8065556" lon="12.6849037"><ele>224.0</ele><time>2026-05-02T16:05:22.345Z</time></trkpt><trkpt lat="43.8064122" lon="12.6847372"><ele>220.0</ele><time>2026-05-02T16:05:23.322Z</time></trkpt><trkpt lat="43.8062623" lon="12.6845754"><ele>216.66666666666666</ele><time>2026-05-02T16:05:24.323Z</time></trkpt><trkpt lat="43.8061139" lon="12.6844148"><ele>213.33333333333331</ele><time>2026-05-02T16:05:25.322Z</time></trkpt><trkpt lat="43.8059577" lon="12.684263"><ele>210.0</ele><time>2026-05-02T16:05:26.323Z</time></trkpt><trkpt lat="43.8058069" lon="12.6840916"><ele>210.0</ele><time>2026-05-02T16:05:27.325Z</time></trkpt><trkpt lat="43.8056653" lon="12.6838954"><ele>210.0</ele><time>2026-05-02T16:05:28.323Z</time></trkpt><trkpt lat="43.8055234" lon="12.6836925"><ele>210.0</ele><time>2026-05-02T16:05:29.323Z</time></trkpt><trkpt lat="43.8053719" lon="12.6834818"><ele>210.0</ele><time>2026-05-02T16:05:30.324Z</time></trkpt><trkpt lat="43.8052084" lon="12.6832686"><ele>210.0</ele><time>2026-05-02T16:05:31.324Z</time></trkpt><trkpt lat="43.805041" lon="12.6830614"><ele>210.0</ele><time>2026-05-02T16:05:32.324Z</time></trkpt><trkpt lat="43.8048831" lon="12.6828648"><ele>210.66666666666669</ele><time>2026-05-02T16:05:33.324Z</time></trkpt><trkpt lat="43.8047299" lon="12.682689"><ele>211.33333333333334</ele><time>2026-05-02T16:05:34.325Z</time></trkpt><trkpt lat="43.8045847" lon="12.6825177"><ele>212.0</ele><time>2026-05-02T16:05:35.324Z</time></trkpt><trkpt lat="43.8044434" lon="12.6823596"><ele>211.33333333333334</ele><time>2026-05-02T16:05:36.324Z</time></trkpt><trkpt lat="43.8043013" lon="12.6821996"><ele>210.66666666666669</ele><time>2026-05-02T16:05:37.323Z</time></trkpt><trkpt lat="43.8041633" lon="12.6820271"><ele>210.0</ele><time>2026-05-02T16:05:38.326Z</time></trkpt><trkpt lat="43.8040382" lon="12.6819433"><ele>211.25</ele><time>2026-05-02T16:05:39.323Z</time></trkpt><trkpt lat="43.8039174" lon="12.6818305"><ele>212.5</ele><time>2026-05-02T16:05:40.324Z</time></trkpt><trkpt lat="43.8037954" lon="12.6817246"><ele>213.75</ele><time>2026-05-02T16:05:41.324Z</time></trkpt><trkpt lat="43.8036791" lon="12.6816204"><ele>215.0</ele><time>2026-05-02T16:05:42.324Z</time></trkpt><trkpt lat="43.8035505" lon="12.6815205"><ele>214.66666666666669</ele><time>2026-05-02T16:05:43.324Z</time></trkpt><trkpt lat="43.8034074" lon="12.6814396"><ele>214.33333333333331</ele><time>2026-05-02T16:05:44.322Z</time></trkpt><trkpt lat="43.8032529" lon="12.681364"><ele>214.0</ele><time>2026-05-02T16:05:45.324Z</time></trkpt><trkpt lat="43.8030931" lon="12.681288"><ele>214.0</ele><time>2026-05-02T16:05:46.326Z</time></trkpt><trkpt lat="43.8029202" lon="12.6812129"><ele>214.0</ele><time>2026-05-02T16:05:47.322Z</time></trkpt><trkpt lat="43.8027398" lon="12.6811369"><ele>214.0</ele><time>2026-05-02T16:05:48.325Z</time></trkpt><trkpt lat="43.8025542" lon="12.6810672"><ele>215.0</ele><time>2026-05-02T16:05:49.324Z</time></trkpt><trkpt lat="43.802369" lon="12.6809626"><ele>216.0</ele><time>2026-05-02T16:05:50.323Z</time></trkpt><trkpt lat="43.8021821" lon="12.6808834"><ele>217.0</ele><time>2026-05-02T16:05:51.321Z</time></trkpt><trkpt lat="43.8020212" lon="12.6807754"><ele>217.0</ele><time>2026-05-02T16:05:52.324Z</time></trkpt><trkpt lat="43.8018528" lon="12.6806727"><ele>217.0</ele><time>2026-05-02T16:05:53.314Z</time></trkpt><trkpt lat="43.8016775" lon="12.6805651"><ele>217.0</ele><time>2026-05-02T16:05:54.324Z</time></trkpt><trkpt lat="43.8014989" lon="12.6804445"><ele>220.0</ele><time>2026-05-02T16:05:55.323Z</time></trkpt><trkpt lat="43.8013274" lon="12.6803629"><ele>223.0</ele><time>2026-05-02T16:05:56.323Z</time></trkpt><trkpt lat="43.8011293" lon="12.6803036"><ele>226.0</ele><time>2026-05-02T16:05:57.323Z</time></trkpt><trkpt lat="43.8009096" lon="12.6802761"><ele>228.33333333333331</ele><time>2026-05-02T16:05:58.349Z</time></trkpt><trkpt lat="43.8007255" lon="12.6802723"><ele>230.66666666666669</ele><time>2026-05-02T16:05:59.323Z</time></trkpt><trkpt lat="43.8005772" lon="12.6802656"><ele>233.0</ele><time>2026-05-02T16:06:00.324Z</time></trkpt><trkpt lat="43.8004211" lon="12.6803002"><ele>233.0</ele><time>2026-05-02T16:06:01.323Z</time></trkpt><trkpt lat="43.8002645" lon="12.6803792"><ele>233.0</ele><time>2026-05-02T16:06:02.324Z</time></trkpt><trkpt lat="43.8000979" lon="12.6804775"><ele>233.0</ele><time>2026-05-02T16:06:03.323Z</time></trkpt><trkpt lat="43.799929" lon="12.6805852"><ele>237.33333333333334</ele><time>2026-05-02T16:06:04.323Z</time></trkpt><trkpt lat="43.7997606" lon="12.680701"><ele>241.66666666666669</ele><time>2026-05-02T16:06:05.323Z</time></trkpt><trkpt lat="43.7995851" lon="12.6808333"><ele>246.0</ele><time>2026-05-02T16:06:06.322Z</time></trkpt><trkpt lat="43.7994054" lon="12.6809664"><ele>248.33333333333331</ele><time>2026-05-02T16:06:07.322Z</time></trkpt><trkpt lat="43.7992125" lon="12.6809868"><ele>250.66666666666666</ele><time>2026-05-02T16:06:08.323Z</time></trkpt><trkpt lat="43.7990143" lon="12.6810307"><ele>253.0</ele><time>2026-05-02T16:06:09.348Z</time></trkpt><trkpt lat="43.7988082" lon="12.6810524"><ele>253.0</ele><time>2026-05-02T16:06:10.323Z</time></trkpt><trkpt lat="43.7985903" lon="12.6810769"><ele>253.0</ele><time>2026-05-02T16:06:11.323Z</time></trkpt><trkpt lat="43.7983603" lon="12.681102"><ele>253.0</ele><time>2026-05-02T16:06:12.324Z</time></trkpt><trkpt lat="43.7981404" lon="12.6811267"><ele>259.0</ele><time>2026-05-02T16:06:13.323Z</time></trkpt><trkpt lat="43.7979349" lon="12.681155"><ele>265.0</ele><time>2026-05-02T16:06:14.322Z</time></trkpt><trkpt lat="43.7977316" lon="12.6811676"><ele>271.0</ele><time>2026-05-02T16:06:15.322Z</time></trkpt><trkpt lat="43.797526" lon="12.6811852"><ele>272.66666666666663</ele><time>2026-05-02T16:06:16.323Z</time></trkpt><trkpt lat="43.7973117" lon="12.6811696"><ele>274.3333333333333</ele><time>2026-05-02T16:06:17.32Z</time></trkpt><trkpt lat="43.7971019" lon="12.681148"><ele>276.0</ele><time>2026-05-02T16:06:18.323Z</time></trkpt><trkpt lat="43.7968981" lon="12.681121"><ele>265.5</ele><time>2026-05-02T16:06:19.424Z</time></trkpt><trkpt lat="43.7965118" lon="12.6810776"><ele>255.0</ele><time>2026-05-02T16:06:21.319Z</time></trkpt><trkpt lat="43.7963306" lon="12.6810299"><ele>255.0</ele><time>2026-05-02T16:06:22.345Z</time></trkpt><trkpt lat="43.7961536" lon="12.680978"><ele>255.0</ele><time>2026-05-02T16:06:23.32Z</time></trkpt><trkpt lat="43.7959962" lon="12.6808968"><ele>255.0</ele><time>2026-05-02T16:06:24.317Z</time></trkpt><trkpt lat="43.7958408" lon="12.6807812"><ele>256.6666666666667</ele><time>2026-05-02T16:06:25.32Z</time></trkpt><trkpt lat="43.7956817" lon="12.680656"><ele>258.33333333333337</ele><time>2026-05-02T16:06:26.321Z</time></trkpt><trkpt lat="43.7955208" lon="12.6805157"><ele>260.0</ele><time>2026-05-02T16:06:27.318Z</time></trkpt><trkpt lat="43.7953531" lon="12.6803706"><ele>260.6666666666667</ele><time>2026-05-02T16:06:28.322Z</time></trkpt><trkpt lat="43.7951848" lon="12.6802206"><ele>261.3333333333333</ele><time>2026-05-02T16:06:29.323Z</time></trkpt><trkpt lat="43.7950105" lon="12.6800657"><ele>262.0</ele><time>2026-05-02T16:06:30.323Z</time></trkpt><trkpt lat="43.79483" lon="12.6799085"><ele>262.0</ele><time>2026-05-02T16:06:31.325Z</time></trkpt><trkpt lat="43.794652" lon="12.6797441"><ele>262.0</ele><time>2026-05-02T16:06:32.324Z</time></trkpt><trkpt lat="43.7944816" lon="12.6795932"><ele>262.0</ele><time>2026-05-02T16:06:33.319Z</time></trkpt><trkpt lat="43.7943157" lon="12.6794365"><ele>259.3333333333333</ele><time>2026-05-02T16:06:34.324Z</time></trkpt><trkpt lat="43.7941552" lon="12.6792881"><ele>256.6666666666667</ele><time>2026-05-02T16:06:35.321Z</time></trkpt><trkpt lat="43.7939953" lon="12.6791319"><ele>254.0</ele><time>2026-05-02T16:06:36.322Z</time></trkpt><trkpt lat="43.7938416" lon="12.6789497"><ele>254.0</ele><time>2026-05-02T16:06:37.323Z</time></trkpt><trkpt lat="43.7937125" lon="12.6787236"><ele>254.0</ele><time>2026-05-02T16:06:38.323Z</time></trkpt><trkpt lat="43.7935846" lon="12.6784623"><ele>254.0</ele><time>2026-05-02T16:06:39.324Z</time></trkpt><trkpt lat="43.7934662" lon="12.6781959"><ele>253.5</ele><time>2026-05-02T16:06:40.324Z</time></trkpt><trkpt lat="43.7933458" lon="12.6779264"><ele>253.0</ele><time>2026-05-02T16:06:41.323Z</time></trkpt><trkpt lat="43.793222" lon="12.6776656"><ele>252.0</ele><time>2026-05-02T16:06:42.324Z</time></trkpt><trkpt lat="43.7930977" lon="12.6774075"><ele>251.0</ele><time>2026-05-02T16:06:43.325Z</time></trkpt><trkpt lat="43.792968" lon="12.6771508"><ele>251.0</ele><time>2026-05-02T16:06:44.324Z</time></trkpt><trkpt lat="43.7928295" lon="12.6768983"><ele>251.0</ele><time>2026-05-02T16:06:45.324Z</time></trkpt><trkpt lat="43.7926835" lon="12.676639"><ele>252.0</ele><time>2026-05-02T16:06:46.325Z</time></trkpt><trkpt lat="43.792544" lon="12.676392"><ele>253.0</ele><time>2026-05-02T16:06:47.324Z</time></trkpt><trkpt lat="43.7924098" lon="12.6761623"><ele>254.0</ele><time>2026-05-02T16:06:48.322Z</time></trkpt><trkpt lat="43.7922802" lon="12.6759308"><ele>255.66666666666669</ele><time>2026-05-02T16:06:49.32Z</time></trkpt><trkpt lat="43.7921532" lon="12.6757111"><ele>257.3333333333333</ele><time>2026-05-02T16:06:50.322Z</time></trkpt><trkpt lat="43.7920331" lon="12.6755083"><ele>259.0</ele><time>2026-05-02T16:06:51.319Z</time></trkpt><trkpt lat="43.7919052" lon="12.6753275"><ele>259.0</ele><time>2026-05-02T16:06:52.326Z</time></trkpt><trkpt lat="43.7917543" lon="12.6751616"><ele>259.0</ele><time>2026-05-02T16:06:53.325Z</time></trkpt><trkpt lat="43.7915867" lon="12.6750083"><ele>259.0</ele><time>2026-05-02T16:06:54.323Z</time></trkpt><trkpt lat="43.7914062" lon="12.6748737"><ele>259.0</ele><time>2026-05-02T16:06:55.323Z</time></trkpt><trkpt lat="43.7912208" lon="12.6747189"><ele>259.0</ele><time>2026-05-02T16:06:56.322Z</time></trkpt><trkpt lat="43.7910308" lon="12.6745637"><ele>259.0</ele><time>2026-05-02T16:06:57.323Z</time></trkpt><trkpt lat="43.7908416" lon="12.6743982"><ele>257.3333333333333</ele><time>2026-05-02T16:06:58.323Z</time></trkpt><trkpt lat="43.7906954" lon="12.6742043"><ele>255.66666666666669</ele><time>2026-05-02T16:06:59.323Z</time></trkpt><trkpt lat="43.7905267" lon="12.6740264"><ele>254.0</ele><time>2026-05-02T16:07:00.324Z</time></trkpt><trkpt lat="43.7903636" lon="12.6738575"><ele>254.0</ele><time>2026-05-02T16:07:01.323Z</time></trkpt><trkpt lat="43.7901963" lon="12.6736911"><ele>254.0</ele><time>2026-05-02T16:07:02.323Z</time></trkpt><trkpt lat="43.7900417" lon="12.6735323"><ele>254.0</ele><time>2026-05-02T16:07:03.322Z</time></trkpt><trkpt lat="43.7898816" lon="12.6734044"><ele>251.66666666666669</ele><time>2026-05-02T16:07:04.323Z</time></trkpt><trkpt lat="43.7897037" lon="12.6732803"><ele>249.33333333333331</ele><time>2026-05-02T16:07:05.323Z</time></trkpt><trkpt lat="43.7895071" lon="12.6731763"><ele>247.0</ele><time>2026-05-02T16:07:06.324Z</time></trkpt><trkpt lat="43.7893066" lon="12.6730827"><ele>246.0</ele><time>2026-05-02T16:07:07.323Z</time></trkpt><trkpt lat="43.7890963" lon="12.6729946"><ele>245.0</ele><time>2026-05-02T16:07:08.323Z</time></trkpt><trkpt lat="43.7888767" lon="12.6729087"><ele>244.0</ele><time>2026-05-02T16:07:09.323Z</time></trkpt><trkpt lat="43.7886657" lon="12.6728236"><ele>244.33333333333331</ele><time>2026-05-02T16:07:10.322Z</time></trkpt><trkpt lat="43.788458" lon="12.6727357"><ele>244.66666666666669</ele><time>2026-05-02T16:07:11.323Z</time></trkpt><trkpt lat="43.7882554" lon="12.6726532"><ele>245.0</ele><time>2026-05-02T16:07:12.323Z</time></trkpt><trkpt lat="43.7880569" lon="12.6725734"><ele>245.0</ele><time>2026-05-02T16:07:13.324Z</time></trkpt><trkpt lat="43.7878644" lon="12.6724815"><ele>245.0</ele><time>2026-05-02T16:07:14.324Z</time></trkpt><trkpt lat="43.7876967" lon="12.6724093"><ele>245.0</ele><time>2026-05-02T16:07:15.323Z</time></trkpt><trkpt lat="43.7875344" lon="12.6723289"><ele>245.66666666666669</ele><time>2026-05-02T16:07:16.323Z</time></trkpt><trkpt lat="43.7873762" lon="12.6722287"><ele>246.33333333333331</ele><time>2026-05-02T16:07:17.323Z</time></trkpt><trkpt lat="43.7872398" lon="12.6720827"><ele>247.0</ele><time>2026-05-02T16:07:18.325Z</time></trkpt><trkpt lat="43.7871018" lon="12.6719124"><ele>247.0</ele><time>2026-05-02T16:07:19.322Z</time></trkpt><trkpt lat="43.7869604" lon="12.6717185"><ele>247.0</ele><time>2026-05-02T16:07:20.323Z</time></trkpt><trkpt lat="43.7868251" lon="12.6715281"><ele>247.0</ele><time>2026-05-02T16:07:21.32Z</time></trkpt><trkpt lat="43.7866917" lon="12.6713452"><ele>249.0</ele><time>2026-05-02T16:07:22.324Z</time></trkpt><trkpt lat="43.7865738" lon="12.6711557"><ele>251.0</ele><time>2026-05-02T16:07:23.323Z</time></trkpt><trkpt lat="43.786435" lon="12.671053"><ele>253.0</ele><time>2026-05-02T16:07:24.324Z</time></trkpt><trkpt lat="43.7863108" lon="12.6709279"><ele>253.0</ele><time>2026-05-02T16:07:25.323Z</time></trkpt><trkpt lat="43.7861628" lon="12.6708362"><ele>253.0</ele><time>2026-05-02T16:07:26.323Z</time></trkpt><trkpt lat="43.786021" lon="12.6708179"><ele>253.0</ele><time>2026-05-02T16:07:27.322Z</time></trkpt><trkpt lat="43.7858472" lon="12.6708773"><ele>256.3333333333333</ele><time>2026-05-02T16:07:28.323Z</time></trkpt><trkpt lat="43.7856823" lon="12.670862"><ele>259.6666666666667</ele><time>2026-05-02T16:07:29.325Z</time></trkpt><trkpt lat="43.7855113" lon="12.6708153"><ele>263.0</ele><time>2026-05-02T16:07:30.323Z</time></trkpt><trkpt lat="43.7853438" lon="12.6707093"><ele>263.0</ele><time>2026-05-02T16:07:31.324Z</time></trkpt><trkpt lat="43.78518" lon="12.6705793"><ele>263.0</ele><time>2026-05-02T16:07:32.323Z</time></trkpt><trkpt lat="43.7850133" lon="12.6704508"><ele>263.0</ele><time>2026-05-02T16:07:33.323Z</time></trkpt><trkpt lat="43.7848472" lon="12.6703128"><ele>264.0</ele><time>2026-05-02T16:07:34.323Z</time></trkpt><trkpt lat="43.7846825" lon="12.6701761"><ele>265.0</ele><time>2026-05-02T16:07:35.321Z</time></trkpt><trkpt lat="43.784515" lon="12.6700463"><ele>266.0</ele><time>2026-05-02T16:07:36.325Z</time></trkpt><trkpt lat="43.7843506" lon="12.6699232"><ele>270.0</ele><time>2026-05-02T16:07:37.322Z</time></trkpt><trkpt lat="43.7842029" lon="12.6698194"><ele>274.0</ele><time>2026-05-02T16:07:38.324Z</time></trkpt><trkpt lat="43.7840633" lon="12.6697196"><ele>278.0</ele><time>2026-05-02T16:07:39.323Z</time></trkpt><trkpt lat="43.7839314" lon="12.6696226"><ele>278.0</ele><time>2026-05-02T16:07:40.323Z</time></trkpt><trkpt lat="43.7838118" lon="12.6695247"><ele>278.0</ele><time>2026-05-02T16:07:41.323Z</time></trkpt><trkpt lat="43.7836878" lon="12.6694194"><ele>278.0</ele><time>2026-05-02T16:07:42.323Z</time></trkpt><trkpt lat="43.7835681" lon="12.6693142"><ele>278.0</ele><time>2026-05-02T16:07:43.324Z</time></trkpt><trkpt lat="43.78345" lon="12.6692052"><ele>276.75</ele><time>2026-05-02T16:07:44.323Z</time></trkpt><trkpt lat="43.7833464" lon="12.6690812"><ele>275.5</ele><time>2026-05-02T16:07:45.323Z</time></trkpt><trkpt lat="43.7832696" lon="12.668933"><ele>274.25</ele><time>2026-05-02T16:07:46.324Z</time></trkpt><trkpt lat="43.783205" lon="12.6687786"><ele>273.0</ele><time>2026-05-02T16:07:47.323Z</time></trkpt><trkpt lat="43.7831364" lon="12.6686158"><ele>270.25</ele><time>2026-05-02T16:07:48.323Z</time></trkpt><trkpt lat="43.7830574" lon="12.6685134"><ele>267.5</ele><time>2026-05-02T16:07:49.323Z</time></trkpt><trkpt lat="43.7829938" lon="12.6683882"><ele>264.75</ele><time>2026-05-02T16:07:50.323Z</time></trkpt><trkpt lat="43.7828552" lon="12.6683443"><ele>262.0</ele><time>2026-05-02T16:07:51.323Z</time></trkpt><trkpt lat="43.7827486" lon="12.6682632"><ele>263.0</ele><time>2026-05-02T16:07:52.324Z</time></trkpt><trkpt lat="43.7826307" lon="12.6682115"><ele>264.0</ele><time>2026-05-02T16:07:53.32Z</time></trkpt><trkpt lat="43.7824382" lon="12.6682591"><ele>265.0</ele><time>2026-05-02T16:07:54.324Z</time></trkpt><trkpt lat="43.7822781" lon="12.6682431"><ele>265.0</ele><time>2026-05-02T16:07:55.318Z</time></trkpt><trkpt lat="43.7821367" lon="12.6682182"><ele>265.0</ele><time>2026-05-02T16:07:56.323Z</time></trkpt><trkpt lat="43.7820081" lon="12.6681651"><ele>265.0</ele><time>2026-05-02T16:07:57.323Z</time></trkpt><trkpt lat="43.781878" lon="12.668087"><ele>265.0</ele><time>2026-05-02T16:07:58.323Z</time></trkpt><trkpt lat="43.7817518" lon="12.6679869"><ele>264.3333333333333</ele><time>2026-05-02T16:07:59.322Z</time></trkpt><trkpt lat="43.7816309" lon="12.6678797"><ele>263.6666666666667</ele><time>2026-05-02T16:08:00.322Z</time></trkpt><trkpt lat="43.7815194" lon="12.6677674"><ele>263.0</ele><time>2026-05-02T16:08:01.45Z</time></trkpt><trkpt lat="43.7812907" lon="12.6675554"><ele>260.25</ele><time>2026-05-02T16:08:03.324Z</time></trkpt><trkpt lat="43.7811862" lon="12.6674631"><ele>257.5</ele><time>2026-05-02T16:08:04.325Z</time></trkpt><trkpt lat="43.7810791" lon="12.6673676"><ele>254.75</ele><time>2026-05-02T16:08:05.323Z</time></trkpt><trkpt lat="43.7810104" lon="12.6672667"><ele>252.0</ele><time>2026-05-02T16:08:06.323Z</time></trkpt><trkpt lat="43.7809273" lon="12.6671744"><ele>252.0</ele><time>2026-05-02T16:08:07.325Z</time></trkpt><trkpt lat="43.7808751" lon="12.6670812"><ele>252.0</ele><time>2026-05-02T16:08:08.325Z</time></trkpt><trkpt lat="43.7808125" lon="12.6670034"><ele>252.0</ele><time>2026-05-02T16:08:09.322Z</time></trkpt><trkpt lat="43.780766" lon="12.6669288"><ele>252.0</ele><time>2026-05-02T16:08:10.325Z</time></trkpt><trkpt lat="43.7807046" lon="12.6668159"><ele>252.0</ele><time>2026-05-02T16:08:12.323Z</time></trkpt><trkpt lat="43.7807241" lon="12.6667038"><ele>252.0</ele><time>2026-05-02T16:08:15.321Z</time></trkpt><trkpt lat="43.7807953" lon="12.6666402"><ele>246.0</ele><time>2026-05-02T16:08:19.323Z</time></trkpt><trkpt lat="43.7807654" lon="12.6665569"><ele>246.0</ele><time>2026-05-02T16:08:23.323Z</time></trkpt></trkseg></trk></gpx>